<?xml version="1.0" encoding="UTF-8" standalone="no" ?>
<gpx xmlns="http://www.topografix.com/GPX/1/1" xmlns:xsi="http://www.w3.org/2001/XMLSchema-instance" xsi:schemaLocation="http://www.topografix.com/GPX/1/1 http://www.topografix.com/GPX/1/1/gpx.xsd" version="1.1" creator="VisuGPX - https://www.visugpx.com">
  <metadata>
    <name>quevert vildé val</name>
    <desc><![CDATA[l]]></desc>
  </metadata>
  <trk>
    <name><![CDATA[quevert vildé val_1]]></name>
    <desc><![CDATA[]]></desc>
    <trkseg>
      <trkpt lat="48.42038" lon="-2.11705">
        <ele>70.4</ele>
        <time>2025-06-04T07:42:40.262Z</time>
      </trkpt>
      <trkpt lat="48.42056" lon="-2.11701">
        <ele>71.22</ele>
        <time>2025-06-04T07:42:39.273Z</time>
      </trkpt>
      <trkpt lat="48.42058" lon="-2.11702">
        <ele>71.33</ele>
        <time>2025-06-04T07:42:38.806Z</time>
      </trkpt>
      <trkpt lat="48.4206" lon="-2.11702">
        <ele>71.44</ele>
        <time>2025-06-04T07:42:37.754Z</time>
      </trkpt>
      <trkpt lat="48.42064" lon="-2.11703">
        <ele>71.56</ele>
        <time>2025-06-04T07:42:36.821Z</time>
      </trkpt>
      <trkpt lat="48.42067" lon="-2.11705">
        <ele>71.7</ele>
        <time>2025-06-04T07:42:35.825Z</time>
      </trkpt>
      <trkpt lat="48.42071" lon="-2.11705">
        <ele>71.83</ele>
        <time>2025-06-04T07:42:34.810Z</time>
      </trkpt>
      <trkpt lat="48.42074" lon="-2.11706">
        <ele>71.95</ele>
        <time>2025-06-04T07:42:33.766Z</time>
      </trkpt>
      <trkpt lat="48.42077" lon="-2.11706">
        <ele>72.08</ele>
        <time>2025-06-04T07:42:32.729Z</time>
      </trkpt>
      <trkpt lat="48.42081" lon="-2.11707">
        <ele>72.22</ele>
        <time>2025-06-04T07:42:31.879Z</time>
      </trkpt>
      <trkpt lat="48.42085" lon="-2.11708">
        <ele>72.36</ele>
        <time>2025-06-04T07:42:30.740Z</time>
      </trkpt>
      <trkpt lat="48.42089" lon="-2.1171">
        <ele>72.479996</ele>
        <time>2025-06-04T07:42:29.743Z</time>
      </trkpt>
      <trkpt lat="48.42093" lon="-2.1171">
        <ele>72.62</ele>
        <time>2025-06-04T07:42:28.737Z</time>
      </trkpt>
      <trkpt lat="48.42097" lon="-2.1171">
        <ele>72.729996</ele>
        <time>2025-06-04T07:42:27.749Z</time>
      </trkpt>
      <trkpt lat="48.421" lon="-2.11712">
        <ele>72.86</ele>
        <time>2025-06-04T07:42:26.851Z</time>
      </trkpt>
      <trkpt lat="48.42102" lon="-2.11714">
        <ele>72.96</ele>
        <time>2025-06-04T07:42:25.745Z</time>
      </trkpt>
      <trkpt lat="48.42104" lon="-2.11718">
        <ele>73.05</ele>
        <time>2025-06-04T07:42:24.658Z</time>
      </trkpt>
      <trkpt lat="48.42106" lon="-2.11722">
        <ele>73.14</ele>
        <time>2025-06-04T07:42:23.258Z</time>
      </trkpt>
      <trkpt lat="48.42106" lon="-2.11727">
        <ele>73.19</ele>
        <time>2025-06-04T07:42:23.026Z</time>
      </trkpt>
      <trkpt lat="48.42107" lon="-2.11731">
        <ele>73.25</ele>
        <time>2025-06-04T07:42:21.786Z</time>
      </trkpt>
      <trkpt lat="48.42109" lon="-2.11736">
        <ele>73.28</ele>
        <time>2025-06-04T07:42:21.048Z</time>
      </trkpt>
      <trkpt lat="48.42111" lon="-2.1174">
        <ele>73.29</ele>
        <time>2025-06-04T07:42:19.594Z</time>
      </trkpt>
      <trkpt lat="48.42113" lon="-2.11743">
        <ele>73.29</ele>
        <time>2025-06-04T07:42:18.267Z</time>
      </trkpt>
      <trkpt lat="48.42115" lon="-2.11748">
        <ele>73.29</ele>
        <time>2025-06-04T07:42:17.988Z</time>
      </trkpt>
      <trkpt lat="48.42117" lon="-2.11751">
        <ele>73.27</ele>
        <time>2025-06-04T07:42:16.782Z</time>
      </trkpt>
      <trkpt lat="48.42118" lon="-2.11753">
        <ele>73.25</ele>
        <time>2025-06-04T07:42:15.819Z</time>
      </trkpt>
      <trkpt lat="48.42121" lon="-2.11755">
        <ele>73.22</ele>
        <time>2025-06-04T07:42:14.158Z</time>
      </trkpt>
      <trkpt lat="48.42123" lon="-2.11758">
        <ele>73.14</ele>
        <time>2025-06-04T07:42:13.920Z</time>
      </trkpt>
      <trkpt lat="48.42125" lon="-2.11761">
        <ele>73.07</ele>
        <time>2025-06-04T07:42:13.032Z</time>
      </trkpt>
      <trkpt lat="48.42129" lon="-2.11762">
        <ele>72.96</ele>
        <time>2025-06-04T07:42:11.951Z</time>
      </trkpt>
      <trkpt lat="48.42132" lon="-2.11761">
        <ele>72.85</ele>
        <time>2025-06-04T07:42:10.544Z</time>
      </trkpt>
      <trkpt lat="48.42136" lon="-2.11762">
        <ele>72.72</ele>
        <time>2025-06-04T07:42:09.264Z</time>
      </trkpt>
      <trkpt lat="48.42139" lon="-2.11763">
        <ele>72.59</ele>
        <time>2025-06-04T07:42:08.650Z</time>
      </trkpt>
      <trkpt lat="48.4214" lon="-2.11763">
        <ele>72.46</ele>
        <time>2025-06-04T07:42:07.969Z</time>
      </trkpt>
      <trkpt lat="48.42143" lon="-2.11761">
        <ele>72.34</ele>
        <time>2025-06-04T07:42:06.196Z</time>
      </trkpt>
      <trkpt lat="48.42146" lon="-2.11758">
        <ele>72.22</ele>
        <time>2025-06-04T07:42:05.764Z</time>
      </trkpt>
      <trkpt lat="48.42147" lon="-2.11752">
        <ele>72.1</ele>
        <time>2025-06-04T07:42:04.982Z</time>
      </trkpt>
      <trkpt lat="48.42149" lon="-2.11746">
        <ele>72</ele>
        <time>2025-06-04T07:42:03.661Z</time>
      </trkpt>
      <trkpt lat="48.42151" lon="-2.1174">
        <ele>71.92</ele>
        <time>2025-06-04T07:42:02.226Z</time>
      </trkpt>
      <trkpt lat="48.42153" lon="-2.11735">
        <ele>71.86</ele>
        <time>2025-06-04T07:42:01.273Z</time>
      </trkpt>
      <trkpt lat="48.42155" lon="-2.1173">
        <ele>71.81</ele>
        <time>2025-06-04T07:42:00.272Z</time>
      </trkpt>
      <trkpt lat="48.42155" lon="-2.11725">
        <ele>71.78</ele>
        <time>2025-06-04T07:41:59.992Z</time>
      </trkpt>
      <trkpt lat="48.42155" lon="-2.1172">
        <ele>71.75</ele>
        <time>2025-06-04T07:41:58.611Z</time>
      </trkpt>
      <trkpt lat="48.42154" lon="-2.11717">
        <ele>71.74</ele>
        <time>2025-06-04T07:41:58.015Z</time>
      </trkpt>
      <trkpt lat="48.42154" lon="-2.11713">
        <ele>71.75</ele>
        <time>2025-06-04T07:41:57.013Z</time>
      </trkpt>
      <trkpt lat="48.42154" lon="-2.1171">
        <ele>71.770004</ele>
        <time>2025-06-04T07:41:55.266Z</time>
      </trkpt>
      <trkpt lat="48.42152" lon="-2.11708">
        <ele>71.8</ele>
        <time>2025-06-04T07:41:54.978Z</time>
      </trkpt>
      <trkpt lat="48.42151" lon="-2.11707">
        <ele>71.83</ele>
        <time>2025-06-04T07:41:53.264Z</time>
      </trkpt>
      <trkpt lat="48.42149" lon="-2.11706">
        <ele>71.86</ele>
        <time>2025-06-04T07:41:52.857Z</time>
      </trkpt>
      <trkpt lat="48.42148" lon="-2.11706">
        <ele>71.89</ele>
        <time>2025-06-04T07:41:51.229Z</time>
      </trkpt>
      <trkpt lat="48.42147" lon="-2.11707">
        <ele>71.97</ele>
        <time>2025-06-04T07:41:49.977Z</time>
      </trkpt>
      <trkpt lat="48.42161" lon="-2.11707">
        <ele>73.02</ele>
        <time>2025-06-04T07:41:31.233Z</time>
      </trkpt>
      <trkpt lat="48.42165" lon="-2.11711">
        <ele>73.17</ele>
        <time>2025-06-04T07:41:29.283Z</time>
      </trkpt>
      <trkpt lat="48.42169" lon="-2.11714">
        <ele>73.32</ele>
        <time>2025-06-04T07:41:28.272Z</time>
      </trkpt>
      <trkpt lat="48.42173" lon="-2.11719">
        <ele>73.45</ele>
        <time>2025-06-04T07:41:26.947Z</time>
      </trkpt>
      <trkpt lat="48.42177" lon="-2.11724">
        <ele>73.67</ele>
        <time>2025-06-04T07:41:26.262Z</time>
      </trkpt>
      <trkpt lat="48.42184" lon="-2.11732">
        <ele>73.76</ele>
        <time>2025-06-04T07:41:24.261Z</time>
      </trkpt>
      <trkpt lat="48.42191" lon="-2.11734">
        <ele>73.87</ele>
        <time>2025-06-04T07:41:23.115Z</time>
      </trkpt>
      <trkpt lat="48.422" lon="-2.11739">
        <ele>73.91</ele>
        <time>2025-06-04T07:41:22.188Z</time>
      </trkpt>
      <trkpt lat="48.42206" lon="-2.11745">
        <ele>73.93</ele>
        <time>2025-06-04T07:41:20.164Z</time>
      </trkpt>
      <trkpt lat="48.42215" lon="-2.11753">
        <ele>73.94</ele>
        <time>2025-06-04T07:41:18.283Z</time>
      </trkpt>
      <trkpt lat="48.42221" lon="-2.11758">
        <ele>73.95</ele>
        <time>2025-06-04T07:41:17.226Z</time>
      </trkpt>
      <trkpt lat="48.42247" lon="-2.11781">
        <ele>73.96</ele>
        <time>2025-06-04T07:41:14.245Z</time>
      </trkpt>
      <trkpt lat="48.42247" lon="-2.1178">
        <ele>73.97</ele>
        <time>2025-06-04T07:41:10.236Z</time>
      </trkpt>
      <trkpt lat="48.42245" lon="-2.11779">
        <ele>73.96</ele>
        <time>2025-06-04T07:41:09.243Z</time>
      </trkpt>
      <trkpt lat="48.42246" lon="-2.11779">
        <ele>73.97</ele>
        <time>2025-06-04T07:41:07.156Z</time>
      </trkpt>
      <trkpt lat="48.4225" lon="-2.11778">
        <ele>73.99</ele>
        <time>2025-06-04T07:41:05.216Z</time>
      </trkpt>
      <trkpt lat="48.42252" lon="-2.11775">
        <ele>74.02</ele>
        <time>2025-06-04T07:41:03.256Z</time>
      </trkpt>
      <trkpt lat="48.42252" lon="-2.11772">
        <ele>74.04</ele>
        <time>2025-06-04T07:41:02.755Z</time>
      </trkpt>
      <trkpt lat="48.42252" lon="-2.11771">
        <ele>74.08</ele>
        <time>2025-06-04T07:41:01.272Z</time>
      </trkpt>
      <trkpt lat="48.42253" lon="-2.1177">
        <ele>74.12</ele>
        <time>2025-06-04T07:41:00.275Z</time>
      </trkpt>
      <trkpt lat="48.42255" lon="-2.11769">
        <ele>74.14</ele>
        <time>2025-06-04T07:40:59.273Z</time>
      </trkpt>
      <trkpt lat="48.42257" lon="-2.11768">
        <ele>74.16</ele>
        <time>2025-06-04T07:40:58.268Z</time>
      </trkpt>
      <trkpt lat="48.42259" lon="-2.11769">
        <ele>74.19</ele>
        <time>2025-06-04T07:40:57.773Z</time>
      </trkpt>
      <trkpt lat="48.42262" lon="-2.11768">
        <ele>74.22</ele>
        <time>2025-06-04T07:40:56.270Z</time>
      </trkpt>
      <trkpt lat="48.42264" lon="-2.11768">
        <ele>74.24</ele>
        <time>2025-06-04T07:40:55.254Z</time>
      </trkpt>
      <trkpt lat="48.42265" lon="-2.11769">
        <ele>74.26</ele>
        <time>2025-06-04T07:40:54.966Z</time>
      </trkpt>
      <trkpt lat="48.42266" lon="-2.11769">
        <ele>74.27</ele>
        <time>2025-06-04T07:40:53.278Z</time>
      </trkpt>
      <trkpt lat="48.42268" lon="-2.11768">
        <ele>74.29</ele>
        <time>2025-06-04T07:40:52.255Z</time>
      </trkpt>
      <trkpt lat="48.42268" lon="-2.11765">
        <ele>74.32</ele>
        <time>2025-06-04T07:40:51.263Z</time>
      </trkpt>
      <trkpt lat="48.42268" lon="-2.11763">
        <ele>74.34</ele>
        <time>2025-06-04T07:40:50.274Z</time>
      </trkpt>
      <trkpt lat="48.42269" lon="-2.11761">
        <ele>74.37</ele>
        <time>2025-06-04T07:40:49.248Z</time>
      </trkpt>
      <trkpt lat="48.42267" lon="-2.11759">
        <ele>74.45</ele>
        <time>2025-06-04T07:40:48.183Z</time>
      </trkpt>
      <trkpt lat="48.42265" lon="-2.11757">
        <ele>74.48</ele>
        <time>2025-06-04T07:40:46.254Z</time>
      </trkpt>
      <trkpt lat="48.42264" lon="-2.11757">
        <ele>74.56</ele>
        <time>2025-06-04T07:40:44.843Z</time>
      </trkpt>
      <trkpt lat="48.42262" lon="-2.11758">
        <ele>74.61</ele>
        <time>2025-06-04T07:40:43.270Z</time>
      </trkpt>
      <trkpt lat="48.42262" lon="-2.11757">
        <ele>74.66</ele>
        <time>2025-06-04T07:40:42.264Z</time>
      </trkpt>
      <trkpt lat="48.42262" lon="-2.11756">
        <ele>74.78</ele>
        <time>2025-06-04T07:40:40.261Z</time>
      </trkpt>
      <trkpt lat="48.42262" lon="-2.11759">
        <ele>74.85</ele>
        <time>2025-06-04T07:40:40.042Z</time>
      </trkpt>
      <trkpt lat="48.42263" lon="-2.11755">
        <ele>74.93</ele>
        <time>2025-06-04T07:40:38.256Z</time>
      </trkpt>
      <trkpt lat="48.42266" lon="-2.11751">
        <ele>75.01</ele>
        <time>2025-06-04T07:40:37.794Z</time>
      </trkpt>
      <trkpt lat="48.42268" lon="-2.11748">
        <ele>75.11</ele>
        <time>2025-06-04T07:40:36.733Z</time>
      </trkpt>
      <trkpt lat="48.42271" lon="-2.11745">
        <ele>75.21</ele>
        <time>2025-06-04T07:40:35.271Z</time>
      </trkpt>
      <trkpt lat="48.42274" lon="-2.11743">
        <ele>75.33</ele>
        <time>2025-06-04T07:40:34.782Z</time>
      </trkpt>
      <trkpt lat="48.42278" lon="-2.11744">
        <ele>75.46</ele>
        <time>2025-06-04T07:40:33.839Z</time>
      </trkpt>
      <trkpt lat="48.42281" lon="-2.11745">
        <ele>75.61</ele>
        <time>2025-06-04T07:40:32.256Z</time>
      </trkpt>
      <trkpt lat="48.42286" lon="-2.1175">
        <ele>75.74</ele>
        <time>2025-06-04T07:40:31.252Z</time>
      </trkpt>
      <trkpt lat="48.42292" lon="-2.11754">
        <ele>75.88</ele>
        <time>2025-06-04T07:40:30.250Z</time>
      </trkpt>
      <trkpt lat="48.42297" lon="-2.11758">
        <ele>76.03</ele>
        <time>2025-06-04T07:40:29.241Z</time>
      </trkpt>
      <trkpt lat="48.42302" lon="-2.11764">
        <ele>76.35</ele>
        <time>2025-06-04T07:40:28.161Z</time>
      </trkpt>
      <trkpt lat="48.42308" lon="-2.11773">
        <ele>76.52</ele>
        <time>2025-06-04T07:40:26.784Z</time>
      </trkpt>
      <trkpt lat="48.42311" lon="-2.11775">
        <ele>76.69</ele>
        <time>2025-06-04T07:40:25.221Z</time>
      </trkpt>
      <trkpt lat="48.42316" lon="-2.11776">
        <ele>76.87</ele>
        <time>2025-06-04T07:40:24.255Z</time>
      </trkpt>
      <trkpt lat="48.42319" lon="-2.11777">
        <ele>77.06</ele>
        <time>2025-06-04T07:40:23.251Z</time>
      </trkpt>
      <trkpt lat="48.42324" lon="-2.11777">
        <ele>77.26</ele>
        <time>2025-06-04T07:40:22.252Z</time>
      </trkpt>
      <trkpt lat="48.42329" lon="-2.11777">
        <ele>77.45</ele>
        <time>2025-06-04T07:40:21.252Z</time>
      </trkpt>
      <trkpt lat="48.42333" lon="-2.11778">
        <ele>77.64</ele>
        <time>2025-06-04T07:40:20.233Z</time>
      </trkpt>
      <trkpt lat="48.42337" lon="-2.11779">
        <ele>77.85</ele>
        <time>2025-06-04T07:40:19.747Z</time>
      </trkpt>
      <trkpt lat="48.42341" lon="-2.1178">
        <ele>78.05</ele>
        <time>2025-06-04T07:40:18.848Z</time>
      </trkpt>
      <trkpt lat="48.42346" lon="-2.1178">
        <ele>78.26</ele>
        <time>2025-06-04T07:40:18.032Z</time>
      </trkpt>
      <trkpt lat="48.42352" lon="-2.11782">
        <ele>78.65</ele>
        <time>2025-06-04T07:40:16.037Z</time>
      </trkpt>
      <trkpt lat="48.4236" lon="-2.11783">
        <ele>78.87</ele>
        <time>2025-06-04T07:40:14.737Z</time>
      </trkpt>
      <trkpt lat="48.42365" lon="-2.11785">
        <ele>79.08</ele>
        <time>2025-06-04T07:40:13.784Z</time>
      </trkpt>
      <trkpt lat="48.42369" lon="-2.11786">
        <ele>79.28</ele>
        <time>2025-06-04T07:40:12.194Z</time>
      </trkpt>
      <trkpt lat="48.42373" lon="-2.11788">
        <ele>79.5</ele>
        <time>2025-06-04T07:40:11.822Z</time>
      </trkpt>
      <trkpt lat="48.42377" lon="-2.11789">
        <ele>79.73</ele>
        <time>2025-06-04T07:40:10.251Z</time>
      </trkpt>
      <trkpt lat="48.4238" lon="-2.1179">
        <ele>79.92</ele>
        <time>2025-06-04T07:40:09.777Z</time>
      </trkpt>
      <trkpt lat="48.42384" lon="-2.11791">
        <ele>80.14</ele>
        <time>2025-06-04T07:40:08.811Z</time>
      </trkpt>
      <trkpt lat="48.42389" lon="-2.11792">
        <ele>80.53</ele>
        <time>2025-06-04T07:40:07.174Z</time>
      </trkpt>
      <trkpt lat="48.42395" lon="-2.11794">
        <ele>80.87</ele>
        <time>2025-06-04T07:40:05.165Z</time>
      </trkpt>
      <trkpt lat="48.42401" lon="-2.11794">
        <ele>81.03</ele>
        <time>2025-06-04T07:40:03.260Z</time>
      </trkpt>
      <trkpt lat="48.42405" lon="-2.11795">
        <ele>81.21</ele>
        <time>2025-06-04T07:40:02.261Z</time>
      </trkpt>
      <trkpt lat="48.42408" lon="-2.11796">
        <ele>81.37</ele>
        <time>2025-06-04T07:40:01.260Z</time>
      </trkpt>
      <trkpt lat="48.42412" lon="-2.11797">
        <ele>81.54</ele>
        <time>2025-06-04T07:40:01.084Z</time>
      </trkpt>
      <trkpt lat="48.42415" lon="-2.11797">
        <ele>81.7</ele>
        <time>2025-06-04T07:39:59.252Z</time>
      </trkpt>
      <trkpt lat="48.42419" lon="-2.11798">
        <ele>81.85</ele>
        <time>2025-06-04T07:39:58.255Z</time>
      </trkpt>
      <trkpt lat="48.42421" lon="-2.11799">
        <ele>82.09</ele>
        <time>2025-06-04T07:39:56.767Z</time>
      </trkpt>
      <trkpt lat="48.42426" lon="-2.11803">
        <ele>82.21</ele>
        <time>2025-06-04T07:39:55.851Z</time>
      </trkpt>
      <trkpt lat="48.42429" lon="-2.11805">
        <ele>82.34</ele>
        <time>2025-06-04T07:39:55.078Z</time>
      </trkpt>
      <trkpt lat="48.42432" lon="-2.11807">
        <ele>82.46</ele>
        <time>2025-06-04T07:39:53.262Z</time>
      </trkpt>
      <trkpt lat="48.42435" lon="-2.1181">
        <ele>82.58</ele>
        <time>2025-06-04T07:39:52.261Z</time>
      </trkpt>
      <trkpt lat="48.42439" lon="-2.11813">
        <ele>82.69</ele>
        <time>2025-06-04T07:39:51.266Z</time>
      </trkpt>
      <trkpt lat="48.42442" lon="-2.11816">
        <ele>82.8</ele>
        <time>2025-06-04T07:39:50.725Z</time>
      </trkpt>
      <trkpt lat="48.42445" lon="-2.11818">
        <ele>82.92</ele>
        <time>2025-06-04T07:39:49.826Z</time>
      </trkpt>
      <trkpt lat="48.42447" lon="-2.1182">
        <ele>83.04</ele>
        <time>2025-06-04T07:39:48.260Z</time>
      </trkpt>
      <trkpt lat="48.42449" lon="-2.11822">
        <ele>83.14</ele>
        <time>2025-06-04T07:39:47.255Z</time>
      </trkpt>
      <trkpt lat="48.42452" lon="-2.11824">
        <ele>83.23</ele>
        <time>2025-06-04T07:39:46.261Z</time>
      </trkpt>
      <trkpt lat="48.42455" lon="-2.11826">
        <ele>83.33</ele>
        <time>2025-06-04T07:39:45.254Z</time>
      </trkpt>
      <trkpt lat="48.42458" lon="-2.11828">
        <ele>83.42</ele>
        <time>2025-06-04T07:39:44.261Z</time>
      </trkpt>
      <trkpt lat="48.4246" lon="-2.1183">
        <ele>83.52</ele>
        <time>2025-06-04T07:39:43.261Z</time>
      </trkpt>
      <trkpt lat="48.42463" lon="-2.11831">
        <ele>83.61</ele>
        <time>2025-06-04T07:39:43.130Z</time>
      </trkpt>
      <trkpt lat="48.42466" lon="-2.11833">
        <ele>83.7</ele>
        <time>2025-06-04T07:39:41.916Z</time>
      </trkpt>
      <trkpt lat="48.42469" lon="-2.11835">
        <ele>83.77</ele>
        <time>2025-06-04T07:39:41.086Z</time>
      </trkpt>
      <trkpt lat="48.42473" lon="-2.11837">
        <ele>83.85</ele>
        <time>2025-06-04T07:39:39.600Z</time>
      </trkpt>
      <trkpt lat="48.42478" lon="-2.1184">
        <ele>83.99</ele>
        <time>2025-06-04T07:39:37.957Z</time>
      </trkpt>
      <trkpt lat="48.42484" lon="-2.11844">
        <ele>84.07</ele>
        <time>2025-06-04T07:39:36.724Z</time>
      </trkpt>
      <trkpt lat="48.42487" lon="-2.11846">
        <ele>84.16</ele>
        <time>2025-06-04T07:39:35.692Z</time>
      </trkpt>
      <trkpt lat="48.42489" lon="-2.11848">
        <ele>84.26</ele>
        <time>2025-06-04T07:39:34.883Z</time>
      </trkpt>
      <trkpt lat="48.42492" lon="-2.11849">
        <ele>84.36</ele>
        <time>2025-06-04T07:39:33.253Z</time>
      </trkpt>
      <trkpt lat="48.42496" lon="-2.1185">
        <ele>84.46</ele>
        <time>2025-06-04T07:39:32.794Z</time>
      </trkpt>
      <trkpt lat="48.42498" lon="-2.11851">
        <ele>84.57</ele>
        <time>2025-06-04T07:39:32.128Z</time>
      </trkpt>
      <trkpt lat="48.42502" lon="-2.11853">
        <ele>84.7</ele>
        <time>2025-06-04T07:39:31.142Z</time>
      </trkpt>
      <trkpt lat="48.42506" lon="-2.11855">
        <ele>84.82</ele>
        <time>2025-06-04T07:39:29.260Z</time>
      </trkpt>
      <trkpt lat="48.4251" lon="-2.11859">
        <ele>84.95</ele>
        <time>2025-06-04T07:39:28.756Z</time>
      </trkpt>
      <trkpt lat="48.42514" lon="-2.11863">
        <ele>85.1</ele>
        <time>2025-06-04T07:39:27.750Z</time>
      </trkpt>
      <trkpt lat="48.42519" lon="-2.11867">
        <ele>85.26</ele>
        <time>2025-06-04T07:39:26.681Z</time>
      </trkpt>
      <trkpt lat="48.42523" lon="-2.11871">
        <ele>85.39</ele>
        <time>2025-06-04T07:39:25.147Z</time>
      </trkpt>
      <trkpt lat="48.42526" lon="-2.11873">
        <ele>85.51</ele>
        <time>2025-06-04T07:39:24.880Z</time>
      </trkpt>
      <trkpt lat="48.4253" lon="-2.11876">
        <ele>85.64</ele>
        <time>2025-06-04T07:39:24.081Z</time>
      </trkpt>
      <trkpt lat="48.42535" lon="-2.11879">
        <ele>85.75</ele>
        <time>2025-06-04T07:39:22.812Z</time>
      </trkpt>
      <trkpt lat="48.4254" lon="-2.11882">
        <ele>85.88</ele>
        <time>2025-06-04T07:39:21.749Z</time>
      </trkpt>
      <trkpt lat="48.42544" lon="-2.11885">
        <ele>86</ele>
        <time>2025-06-04T07:39:20.713Z</time>
      </trkpt>
      <trkpt lat="48.42548" lon="-2.11887">
        <ele>86.1</ele>
        <time>2025-06-04T07:39:19.971Z</time>
      </trkpt>
      <trkpt lat="48.42552" lon="-2.1189">
        <ele>86.19</ele>
        <time>2025-06-04T07:39:19.079Z</time>
      </trkpt>
      <trkpt lat="48.42557" lon="-2.11893">
        <ele>86.29</ele>
        <time>2025-06-04T07:39:17.864Z</time>
      </trkpt>
      <trkpt lat="48.42561" lon="-2.11896">
        <ele>86.38</ele>
        <time>2025-06-04T07:39:16.030Z</time>
      </trkpt>
      <trkpt lat="48.42566" lon="-2.11898">
        <ele>86.45</ele>
        <time>2025-06-04T07:39:14.755Z</time>
      </trkpt>
      <trkpt lat="48.42568" lon="-2.119">
        <ele>86.55</ele>
        <time>2025-06-04T07:39:13.753Z</time>
      </trkpt>
      <trkpt lat="48.42573" lon="-2.11903">
        <ele>86.59</ele>
        <time>2025-06-04T07:39:12.228Z</time>
      </trkpt>
      <trkpt lat="48.42576" lon="-2.11906">
        <ele>86.63</ele>
        <time>2025-06-04T07:39:11.823Z</time>
      </trkpt>
      <trkpt lat="48.42579" lon="-2.11908">
        <ele>86.67</ele>
        <time>2025-06-04T07:39:11.104Z</time>
      </trkpt>
      <trkpt lat="48.42581" lon="-2.1191">
        <ele>86.7</ele>
        <time>2025-06-04T07:39:09.696Z</time>
      </trkpt>
      <trkpt lat="48.42582" lon="-2.11911">
        <ele>86.73</ele>
        <time>2025-06-04T07:39:08.254Z</time>
      </trkpt>
      <trkpt lat="48.42585" lon="-2.11913">
        <ele>86.76</ele>
        <time>2025-06-04T07:39:07.741Z</time>
      </trkpt>
      <trkpt lat="48.42588" lon="-2.11914">
        <ele>86.78</ele>
        <time>2025-06-04T07:39:06.762Z</time>
      </trkpt>
      <trkpt lat="48.4259" lon="-2.11916">
        <ele>86.8</ele>
        <time>2025-06-04T07:39:06.030Z</time>
      </trkpt>
      <trkpt lat="48.42593" lon="-2.11917">
        <ele>86.81</ele>
        <time>2025-06-04T07:39:05.099Z</time>
      </trkpt>
      <trkpt lat="48.42596" lon="-2.1192">
        <ele>86.83</ele>
        <time>2025-06-04T07:39:03.834Z</time>
      </trkpt>
      <trkpt lat="48.42599" lon="-2.11924">
        <ele>86.84</ele>
        <time>2025-06-04T07:39:02.137Z</time>
      </trkpt>
      <trkpt lat="48.42603" lon="-2.11926">
        <ele>86.85</ele>
        <time>2025-06-04T07:39:01.037Z</time>
      </trkpt>
      <trkpt lat="48.42606" lon="-2.11929">
        <ele>86.86</ele>
        <time>2025-06-04T07:38:59.832Z</time>
      </trkpt>
      <trkpt lat="48.42611" lon="-2.11935">
        <ele>86.85</ele>
        <time>2025-06-04T07:38:58.834Z</time>
      </trkpt>
      <trkpt lat="48.42614" lon="-2.11938">
        <ele>86.85</ele>
        <time>2025-06-04T07:38:57.743Z</time>
      </trkpt>
      <trkpt lat="48.42617" lon="-2.1194">
        <ele>86.85</ele>
        <time>2025-06-04T07:38:56.973Z</time>
      </trkpt>
      <trkpt lat="48.42621" lon="-2.11943">
        <ele>86.86</ele>
        <time>2025-06-04T07:38:55.121Z</time>
      </trkpt>
      <trkpt lat="48.42624" lon="-2.11945">
        <ele>86.87</ele>
        <time>2025-06-04T07:38:55.034Z</time>
      </trkpt>
      <trkpt lat="48.42627" lon="-2.11947">
        <ele>86.88</ele>
        <time>2025-06-04T07:38:53.725Z</time>
      </trkpt>
      <trkpt lat="48.4263" lon="-2.11949">
        <ele>86.91</ele>
        <time>2025-06-04T07:38:52.736Z</time>
      </trkpt>
      <trkpt lat="48.42634" lon="-2.11952">
        <ele>86.96</ele>
        <time>2025-06-04T07:38:51.742Z</time>
      </trkpt>
      <trkpt lat="48.42638" lon="-2.11954">
        <ele>87.01</ele>
        <time>2025-06-04T07:38:50.737Z</time>
      </trkpt>
      <trkpt lat="48.42641" lon="-2.11956">
        <ele>87.07</ele>
        <time>2025-06-04T07:38:50.043Z</time>
      </trkpt>
      <trkpt lat="48.42646" lon="-2.11959">
        <ele>87.14</ele>
        <time>2025-06-04T07:38:48.917Z</time>
      </trkpt>
      <trkpt lat="48.42651" lon="-2.1196">
        <ele>87.21</ele>
        <time>2025-06-04T07:38:47.798Z</time>
      </trkpt>
      <trkpt lat="48.42655" lon="-2.11961">
        <ele>87.31</ele>
        <time>2025-06-04T07:38:46.210Z</time>
      </trkpt>
      <trkpt lat="48.42659" lon="-2.11964">
        <ele>87.42</ele>
        <time>2025-06-04T07:38:45.060Z</time>
      </trkpt>
      <trkpt lat="48.42666" lon="-2.11967">
        <ele>87.47</ele>
        <time>2025-06-04T07:38:43.708Z</time>
      </trkpt>
      <trkpt lat="48.42669" lon="-2.11968">
        <ele>87.49</ele>
        <time>2025-06-04T07:38:42.708Z</time>
      </trkpt>
      <trkpt lat="48.42672" lon="-2.11968">
        <ele>87.53</ele>
        <time>2025-06-04T07:38:41.730Z</time>
      </trkpt>
      <trkpt lat="48.42674" lon="-2.11971">
        <ele>87.57</ele>
        <time>2025-06-04T07:38:40.146Z</time>
      </trkpt>
      <trkpt lat="48.42676" lon="-2.11975">
        <ele>87.62</ele>
        <time>2025-06-04T07:38:40.007Z</time>
      </trkpt>
      <trkpt lat="48.42679" lon="-2.11979">
        <ele>87.67</ele>
        <time>2025-06-04T07:38:38.791Z</time>
      </trkpt>
      <trkpt lat="48.42683" lon="-2.11984">
        <ele>87.74</ele>
        <time>2025-06-04T07:38:38.051Z</time>
      </trkpt>
      <trkpt lat="48.42688" lon="-2.1199">
        <ele>87.8</ele>
        <time>2025-06-04T07:38:36.128Z</time>
      </trkpt>
      <trkpt lat="48.42691" lon="-2.11992">
        <ele>87.88</ele>
        <time>2025-06-04T07:38:35.989Z</time>
      </trkpt>
      <trkpt lat="48.42694" lon="-2.11995">
        <ele>87.96</ele>
        <time>2025-06-04T07:38:34.737Z</time>
      </trkpt>
      <trkpt lat="48.42697" lon="-2.11997">
        <ele>88.04</ele>
        <time>2025-06-04T07:38:34.085Z</time>
      </trkpt>
      <trkpt lat="48.427" lon="-2.12">
        <ele>88.14</ele>
        <time>2025-06-04T07:38:32.916Z</time>
      </trkpt>
      <trkpt lat="48.42703" lon="-2.12001">
        <ele>88.24</ele>
        <time>2025-06-04T07:38:31.533Z</time>
      </trkpt>
      <trkpt lat="48.42706" lon="-2.12003">
        <ele>88.33</ele>
        <time>2025-06-04T07:38:30.764Z</time>
      </trkpt>
      <trkpt lat="48.42709" lon="-2.12004">
        <ele>88.43</ele>
        <time>2025-06-04T07:38:29.801Z</time>
      </trkpt>
      <trkpt lat="48.42712" lon="-2.12006">
        <ele>88.54</ele>
        <time>2025-06-04T07:38:28.676Z</time>
      </trkpt>
      <trkpt lat="48.42715" lon="-2.12008">
        <ele>88.65</ele>
        <time>2025-06-04T07:38:28.042Z</time>
      </trkpt>
      <trkpt lat="48.42718" lon="-2.12009">
        <ele>88.77</ele>
        <time>2025-06-04T07:38:26.720Z</time>
      </trkpt>
      <trkpt lat="48.42722" lon="-2.12011">
        <ele>88.89</ele>
        <time>2025-06-04T07:38:25.669Z</time>
      </trkpt>
      <trkpt lat="48.4274" lon="-2.12019">
        <ele>89.020004</ele>
        <time>2025-06-04T07:38:25.042Z</time>
      </trkpt>
      <trkpt lat="48.42746" lon="-2.12021">
        <ele>89.21</ele>
        <time>2025-06-04T07:38:22.759Z</time>
      </trkpt>
      <trkpt lat="48.42747" lon="-2.12021">
        <ele>89.32</ele>
        <time>2025-06-04T07:38:21.219Z</time>
      </trkpt>
      <trkpt lat="48.42747" lon="-2.1202">
        <ele>89.45</ele>
        <time>2025-06-04T07:38:20.251Z</time>
      </trkpt>
      <trkpt lat="48.42747" lon="-2.12019">
        <ele>89.61</ele>
        <time>2025-06-04T07:38:19.209Z</time>
      </trkpt>
      <trkpt lat="48.42746" lon="-2.12018">
        <ele>89.79</ele>
        <time>2025-06-04T07:38:18.137Z</time>
      </trkpt>
      <trkpt lat="48.42744" lon="-2.12018">
        <ele>89.96</ele>
        <time>2025-06-04T07:38:17.744Z</time>
      </trkpt>
      <trkpt lat="48.42748" lon="-2.12018">
        <ele>90.14</ele>
        <time>2025-06-04T07:38:16.916Z</time>
      </trkpt>
      <trkpt lat="48.42751" lon="-2.12018">
        <ele>90.34</ele>
        <time>2025-06-04T07:38:15.946Z</time>
      </trkpt>
      <trkpt lat="48.42754" lon="-2.12017">
        <ele>90.53</ele>
        <time>2025-06-04T07:38:14.946Z</time>
      </trkpt>
      <trkpt lat="48.42757" lon="-2.12015">
        <ele>90.71</ele>
        <time>2025-06-04T07:38:14.046Z</time>
      </trkpt>
      <trkpt lat="48.4276" lon="-2.12012">
        <ele>90.91</ele>
        <time>2025-06-04T07:38:12.996Z</time>
      </trkpt>
      <trkpt lat="48.42764" lon="-2.12007">
        <ele>91.07</ele>
        <time>2025-06-04T07:38:11.924Z</time>
      </trkpt>
      <trkpt lat="48.42768" lon="-2.12003">
        <ele>91.24</ele>
        <time>2025-06-04T07:38:10.683Z</time>
      </trkpt>
      <trkpt lat="48.42772" lon="-2.11996">
        <ele>91.38</ele>
        <time>2025-06-04T07:38:10.040Z</time>
      </trkpt>
      <trkpt lat="48.42777" lon="-2.11991">
        <ele>91.5</ele>
        <time>2025-06-04T07:38:08.983Z</time>
      </trkpt>
      <trkpt lat="48.42785" lon="-2.1198">
        <ele>91.59</ele>
        <time>2025-06-04T07:38:07.535Z</time>
      </trkpt>
      <trkpt lat="48.42787" lon="-2.11977">
        <ele>91.66</ele>
        <time>2025-06-04T07:38:06.621Z</time>
      </trkpt>
      <trkpt lat="48.42789" lon="-2.11972">
        <ele>91.72</ele>
        <time>2025-06-04T07:38:05.936Z</time>
      </trkpt>
      <trkpt lat="48.42793" lon="-2.11968">
        <ele>91.76</ele>
        <time>2025-06-04T07:38:04.978Z</time>
      </trkpt>
      <trkpt lat="48.42795" lon="-2.11963">
        <ele>91.79</ele>
        <time>2025-06-04T07:38:03.876Z</time>
      </trkpt>
      <trkpt lat="48.42798" lon="-2.11958">
        <ele>91.82</ele>
        <time>2025-06-04T07:38:02.846Z</time>
      </trkpt>
      <trkpt lat="48.42801" lon="-2.11953">
        <ele>91.84</ele>
        <time>2025-06-04T07:38:01.870Z</time>
      </trkpt>
      <trkpt lat="48.42803" lon="-2.11947">
        <ele>91.85</ele>
        <time>2025-06-04T07:38:00.897Z</time>
      </trkpt>
      <trkpt lat="48.42806" lon="-2.11944">
        <ele>91.84</ele>
        <time>2025-06-04T07:37:59.833Z</time>
      </trkpt>
      <trkpt lat="48.4281" lon="-2.11941">
        <ele>91.84</ele>
        <time>2025-06-04T07:37:58.736Z</time>
      </trkpt>
      <trkpt lat="48.42815" lon="-2.11938">
        <ele>91.83</ele>
        <time>2025-06-04T07:37:57.126Z</time>
      </trkpt>
      <trkpt lat="48.42818" lon="-2.11937">
        <ele>91.82</ele>
        <time>2025-06-04T07:37:56.683Z</time>
      </trkpt>
      <trkpt lat="48.42824" lon="-2.11933">
        <ele>91.8</ele>
        <time>2025-06-04T07:37:55.741Z</time>
      </trkpt>
      <trkpt lat="48.42828" lon="-2.11935">
        <ele>91.8</ele>
        <time>2025-06-04T07:37:54.182Z</time>
      </trkpt>
      <trkpt lat="48.4283" lon="-2.11933">
        <ele>91.8</ele>
        <time>2025-06-04T07:37:53.758Z</time>
      </trkpt>
      <trkpt lat="48.42833" lon="-2.11931">
        <ele>91.8</ele>
        <time>2025-06-04T07:37:52.766Z</time>
      </trkpt>
      <trkpt lat="48.42839" lon="-2.11929">
        <ele>91.81</ele>
        <time>2025-06-04T07:37:51.169Z</time>
      </trkpt>
      <trkpt lat="48.42842" lon="-2.11929">
        <ele>91.82</ele>
        <time>2025-06-04T07:37:50.753Z</time>
      </trkpt>
      <trkpt lat="48.42844" lon="-2.11928">
        <ele>91.84</ele>
        <time>2025-06-04T07:37:49.252Z</time>
      </trkpt>
      <trkpt lat="48.42846" lon="-2.11928">
        <ele>91.84</ele>
        <time>2025-06-04T07:37:48.273Z</time>
      </trkpt>
      <trkpt lat="48.42849" lon="-2.11927">
        <ele>91.84</ele>
        <time>2025-06-04T07:37:47.993Z</time>
      </trkpt>
      <trkpt lat="48.42848" lon="-2.11927">
        <ele>91.85</ele>
        <time>2025-06-04T07:37:46.207Z</time>
      </trkpt>
      <trkpt lat="48.42848" lon="-2.11926">
        <ele>91.86</ele>
        <time>2025-06-04T07:37:44.268Z</time>
      </trkpt>
      <trkpt lat="48.42847" lon="-2.11922">
        <ele>91.84</ele>
        <time>2025-06-04T07:37:41.751Z</time>
      </trkpt>
      <trkpt lat="48.42852" lon="-2.11917">
        <ele>91.79</ele>
        <time>2025-06-04T07:37:39.048Z</time>
      </trkpt>
      <trkpt lat="48.42855" lon="-2.11917">
        <ele>91.75</ele>
        <time>2025-06-04T07:37:38.971Z</time>
      </trkpt>
      <trkpt lat="48.42858" lon="-2.11918">
        <ele>91.72</ele>
        <time>2025-06-04T07:37:37.998Z</time>
      </trkpt>
      <trkpt lat="48.42862" lon="-2.11921">
        <ele>91.69</ele>
        <time>2025-06-04T07:37:36.455Z</time>
      </trkpt>
      <trkpt lat="48.42865" lon="-2.11924">
        <ele>91.68</ele>
        <time>2025-06-04T07:37:35.030Z</time>
      </trkpt>
      <trkpt lat="48.42869" lon="-2.11926">
        <ele>91.67</ele>
        <time>2025-06-04T07:37:34.880Z</time>
      </trkpt>
      <trkpt lat="48.42873" lon="-2.11928">
        <ele>91.67</ele>
        <time>2025-06-04T07:37:34.003Z</time>
      </trkpt>
      <trkpt lat="48.42876" lon="-2.11929">
        <ele>91.66</ele>
        <time>2025-06-04T07:37:32.713Z</time>
      </trkpt>
      <trkpt lat="48.4288" lon="-2.11931">
        <ele>91.66</ele>
        <time>2025-06-04T07:37:32.011Z</time>
      </trkpt>
      <trkpt lat="48.42884" lon="-2.11931">
        <ele>91.66</ele>
        <time>2025-06-04T07:37:30.488Z</time>
      </trkpt>
      <trkpt lat="48.42887" lon="-2.11931">
        <ele>91.65</ele>
        <time>2025-06-04T07:37:29.459Z</time>
      </trkpt>
      <trkpt lat="48.42891" lon="-2.1193">
        <ele>91.64</ele>
        <time>2025-06-04T07:37:28.808Z</time>
      </trkpt>
      <trkpt lat="48.42895" lon="-2.11929">
        <ele>91.63</ele>
        <time>2025-06-04T07:37:27.967Z</time>
      </trkpt>
      <trkpt lat="48.42899" lon="-2.11927">
        <ele>91.6</ele>
        <time>2025-06-04T07:37:26.020Z</time>
      </trkpt>
      <trkpt lat="48.42904" lon="-2.11925">
        <ele>91.58</ele>
        <time>2025-06-04T07:37:25.745Z</time>
      </trkpt>
      <trkpt lat="48.42908" lon="-2.11923">
        <ele>91.54</ele>
        <time>2025-06-04T07:37:24.970Z</time>
      </trkpt>
      <trkpt lat="48.42913" lon="-2.11921">
        <ele>91.5</ele>
        <time>2025-06-04T07:37:24.016Z</time>
      </trkpt>
      <trkpt lat="48.42918" lon="-2.11918">
        <ele>91.46</ele>
        <time>2025-06-04T07:37:22.678Z</time>
      </trkpt>
      <trkpt lat="48.42922" lon="-2.11917">
        <ele>91.43</ele>
        <time>2025-06-04T07:37:21.833Z</time>
      </trkpt>
      <trkpt lat="48.42928" lon="-2.11916">
        <ele>91.39</ele>
        <time>2025-06-04T07:37:20.966Z</time>
      </trkpt>
      <trkpt lat="48.42933" lon="-2.11918">
        <ele>91.36</ele>
        <time>2025-06-04T07:37:19.775Z</time>
      </trkpt>
      <trkpt lat="48.42945" lon="-2.11919">
        <ele>91.33</ele>
        <time>2025-06-04T07:37:18.998Z</time>
      </trkpt>
      <trkpt lat="48.42946" lon="-2.11918">
        <ele>91.31</ele>
        <time>2025-06-04T07:37:17.265Z</time>
      </trkpt>
      <trkpt lat="48.42944" lon="-2.11918">
        <ele>91.29</ele>
        <time>2025-06-04T07:37:16.720Z</time>
      </trkpt>
      <trkpt lat="48.42942" lon="-2.11918">
        <ele>91.28</ele>
        <time>2025-06-04T07:37:15.950Z</time>
      </trkpt>
      <trkpt lat="48.42946" lon="-2.11918">
        <ele>91.270004</ele>
        <time>2025-06-04T07:37:14.990Z</time>
      </trkpt>
      <trkpt lat="48.42949" lon="-2.11918">
        <ele>91.270004</ele>
        <time>2025-06-04T07:37:13.851Z</time>
      </trkpt>
      <trkpt lat="48.42952" lon="-2.11918">
        <ele>91.270004</ele>
        <time>2025-06-04T07:37:12.748Z</time>
      </trkpt>
      <trkpt lat="48.42954" lon="-2.11919">
        <ele>91.28</ele>
        <time>2025-06-04T07:37:11.929Z</time>
      </trkpt>
      <trkpt lat="48.42955" lon="-2.11919">
        <ele>91.28</ele>
        <time>2025-06-04T07:37:10.705Z</time>
      </trkpt>
      <trkpt lat="48.42957" lon="-2.11919">
        <ele>91.29</ele>
        <time>2025-06-04T07:37:09.774Z</time>
      </trkpt>
      <trkpt lat="48.42959" lon="-2.11918">
        <ele>91.85</ele>
        <time>2025-06-04T07:36:37.204Z</time>
      </trkpt>
      <trkpt lat="48.42961" lon="-2.11918">
        <ele>91.91</ele>
        <time>2025-06-04T07:36:36.270Z</time>
      </trkpt>
      <trkpt lat="48.42964" lon="-2.11919">
        <ele>91.979996</ele>
        <time>2025-06-04T07:36:35.233Z</time>
      </trkpt>
      <trkpt lat="48.42968" lon="-2.11919">
        <ele>92.06</ele>
        <time>2025-06-04T07:36:34.184Z</time>
      </trkpt>
      <trkpt lat="48.42972" lon="-2.11919">
        <ele>92.14</ele>
        <time>2025-06-04T07:36:33.172Z</time>
      </trkpt>
      <trkpt lat="48.42977" lon="-2.1192">
        <ele>92.229996</ele>
        <time>2025-06-04T07:36:32.157Z</time>
      </trkpt>
      <trkpt lat="48.42983" lon="-2.11921">
        <ele>92.31</ele>
        <time>2025-06-04T07:36:31.145Z</time>
      </trkpt>
      <trkpt lat="48.4299" lon="-2.11923">
        <ele>92.4</ele>
        <time>2025-06-04T07:36:30.474Z</time>
      </trkpt>
      <trkpt lat="48.42997" lon="-2.11926">
        <ele>92.479996</ele>
        <time>2025-06-04T07:36:29.589Z</time>
      </trkpt>
      <trkpt lat="48.43005" lon="-2.11928">
        <ele>92.55</ele>
        <time>2025-06-04T07:36:28.021Z</time>
      </trkpt>
      <trkpt lat="48.43013" lon="-2.11929">
        <ele>92.61</ele>
        <time>2025-06-04T07:36:27Z</time>
      </trkpt>
      <trkpt lat="48.43021" lon="-2.11931">
        <ele>92.71</ele>
        <time>2025-06-04T07:36:26.182Z</time>
      </trkpt>
      <trkpt lat="48.43027" lon="-2.11933">
        <ele>92.81</ele>
        <time>2025-06-04T07:36:25.144Z</time>
      </trkpt>
      <trkpt lat="48.43035" lon="-2.11936">
        <ele>92.94</ele>
        <time>2025-06-04T07:36:24.131Z</time>
      </trkpt>
      <trkpt lat="48.4304" lon="-2.11941">
        <ele>93.09</ele>
        <time>2025-06-04T07:36:23.180Z</time>
      </trkpt>
      <trkpt lat="48.43045" lon="-2.11947">
        <ele>93.26</ele>
        <time>2025-06-04T07:36:22.145Z</time>
      </trkpt>
      <trkpt lat="48.43049" lon="-2.11956">
        <ele>93.42</ele>
        <time>2025-06-04T07:36:21.131Z</time>
      </trkpt>
      <trkpt lat="48.43052" lon="-2.11962">
        <ele>93.6</ele>
        <time>2025-06-04T07:36:20.123Z</time>
      </trkpt>
      <trkpt lat="48.43055" lon="-2.11974">
        <ele>93.770004</ele>
        <time>2025-06-04T07:36:19.552Z</time>
      </trkpt>
      <trkpt lat="48.43056" lon="-2.11978">
        <ele>93.93</ele>
        <time>2025-06-04T07:36:18.132Z</time>
      </trkpt>
      <trkpt lat="48.43059" lon="-2.11985">
        <ele>94.07</ele>
        <time>2025-06-04T07:36:17.122Z</time>
      </trkpt>
      <trkpt lat="48.43061" lon="-2.11992">
        <ele>94.2</ele>
        <time>2025-06-04T07:36:16.494Z</time>
      </trkpt>
      <trkpt lat="48.43066" lon="-2.12002">
        <ele>94.31</ele>
        <time>2025-06-04T07:36:15.530Z</time>
      </trkpt>
      <trkpt lat="48.43068" lon="-2.12007">
        <ele>94.4</ele>
        <time>2025-06-04T07:36:14.243Z</time>
      </trkpt>
      <trkpt lat="48.4307" lon="-2.12014">
        <ele>94.47</ele>
        <time>2025-06-04T07:36:12.737Z</time>
      </trkpt>
      <trkpt lat="48.43071" lon="-2.12019">
        <ele>94.51</ele>
        <time>2025-06-04T07:36:12.231Z</time>
      </trkpt>
      <trkpt lat="48.43074" lon="-2.12024">
        <ele>94.55</ele>
        <time>2025-06-04T07:36:11.497Z</time>
      </trkpt>
      <trkpt lat="48.43077" lon="-2.12034">
        <ele>94.58</ele>
        <time>2025-06-04T07:36:10.560Z</time>
      </trkpt>
      <trkpt lat="48.43078" lon="-2.12036">
        <ele>94.59</ele>
        <time>2025-06-04T07:36:08.571Z</time>
      </trkpt>
      <trkpt lat="48.4308" lon="-2.1204">
        <ele>94.6</ele>
        <time>2025-06-04T07:36:08.080Z</time>
      </trkpt>
      <trkpt lat="48.43081" lon="-2.12044">
        <ele>94.59</ele>
        <time>2025-06-04T07:36:07.145Z</time>
      </trkpt>
      <trkpt lat="48.43082" lon="-2.12049">
        <ele>94.59</ele>
        <time>2025-06-04T07:36:06.459Z</time>
      </trkpt>
      <trkpt lat="48.43083" lon="-2.12052">
        <ele>94.58</ele>
        <time>2025-06-04T07:36:05.204Z</time>
      </trkpt>
      <trkpt lat="48.43084" lon="-2.12053">
        <ele>94.57</ele>
        <time>2025-06-04T07:36:04.188Z</time>
      </trkpt>
      <trkpt lat="48.43084" lon="-2.12054">
        <ele>94.31</ele>
        <time>2025-06-04T07:36:01.251Z</time>
      </trkpt>
      <trkpt lat="48.43088" lon="-2.1205">
        <ele>94.2</ele>
        <time>2025-06-04T07:35:46.797Z</time>
      </trkpt>
      <trkpt lat="48.43091" lon="-2.12047">
        <ele>94.16</ele>
        <time>2025-06-04T07:35:45.086Z</time>
      </trkpt>
      <trkpt lat="48.43093" lon="-2.12044">
        <ele>94.11</ele>
        <time>2025-06-04T07:35:44.852Z</time>
      </trkpt>
      <trkpt lat="48.43095" lon="-2.12042">
        <ele>94.05</ele>
        <time>2025-06-04T07:35:43.145Z</time>
      </trkpt>
      <trkpt lat="48.43099" lon="-2.12041">
        <ele>94</ele>
        <time>2025-06-04T07:35:42.680Z</time>
      </trkpt>
      <trkpt lat="48.43102" lon="-2.1204">
        <ele>93.95</ele>
        <time>2025-06-04T07:35:41.741Z</time>
      </trkpt>
      <trkpt lat="48.43103" lon="-2.1204">
        <ele>93.9</ele>
        <time>2025-06-04T07:35:40.783Z</time>
      </trkpt>
      <trkpt lat="48.43105" lon="-2.12037">
        <ele>93.86</ele>
        <time>2025-06-04T07:35:38.906Z</time>
      </trkpt>
      <trkpt lat="48.43106" lon="-2.12035">
        <ele>93.83</ele>
        <time>2025-06-04T07:35:38.794Z</time>
      </trkpt>
      <trkpt lat="48.43105" lon="-2.12036">
        <ele>93.79</ele>
        <time>2025-06-04T07:35:37.859Z</time>
      </trkpt>
      <trkpt lat="48.43109" lon="-2.12034">
        <ele>93.76</ele>
        <time>2025-06-04T07:35:35.985Z</time>
      </trkpt>
      <trkpt lat="48.43112" lon="-2.1203">
        <ele>93.729996</ele>
        <time>2025-06-04T07:35:35.549Z</time>
      </trkpt>
      <trkpt lat="48.43118" lon="-2.12026">
        <ele>93.71</ele>
        <time>2025-06-04T07:35:34.545Z</time>
      </trkpt>
      <trkpt lat="48.43122" lon="-2.12022">
        <ele>93.71</ele>
        <time>2025-06-04T07:35:33.521Z</time>
      </trkpt>
      <trkpt lat="48.43126" lon="-2.12018">
        <ele>93.71</ele>
        <time>2025-06-04T07:35:32.511Z</time>
      </trkpt>
      <trkpt lat="48.43131" lon="-2.12014">
        <ele>93.729996</ele>
        <time>2025-06-04T07:35:31.019Z</time>
      </trkpt>
      <trkpt lat="48.43135" lon="-2.1201">
        <ele>93.75</ele>
        <time>2025-06-04T07:35:30.573Z</time>
      </trkpt>
      <trkpt lat="48.43141" lon="-2.12006">
        <ele>93.79</ele>
        <time>2025-06-04T07:35:29.549Z</time>
      </trkpt>
      <trkpt lat="48.43146" lon="-2.12003">
        <ele>93.83</ele>
        <time>2025-06-04T07:35:28.530Z</time>
      </trkpt>
      <trkpt lat="48.4315" lon="-2.12">
        <ele>93.88</ele>
        <time>2025-06-04T07:35:27.686Z</time>
      </trkpt>
      <trkpt lat="48.43155" lon="-2.11998">
        <ele>93.92</ele>
        <time>2025-06-04T07:35:26.354Z</time>
      </trkpt>
      <trkpt lat="48.4316" lon="-2.11996">
        <ele>93.95</ele>
        <time>2025-06-04T07:35:25.863Z</time>
      </trkpt>
      <trkpt lat="48.43165" lon="-2.11994">
        <ele>93.97</ele>
        <time>2025-06-04T07:35:24.369Z</time>
      </trkpt>
      <trkpt lat="48.4317" lon="-2.11992">
        <ele>93.99</ele>
        <time>2025-06-04T07:35:23.359Z</time>
      </trkpt>
      <trkpt lat="48.43174" lon="-2.1199">
        <ele>93.99</ele>
        <time>2025-06-04T07:35:22.786Z</time>
      </trkpt>
      <trkpt lat="48.43179" lon="-2.11988">
        <ele>94</ele>
        <time>2025-06-04T07:35:21.726Z</time>
      </trkpt>
      <trkpt lat="48.43183" lon="-2.11986">
        <ele>94.01</ele>
        <time>2025-06-04T07:35:20.661Z</time>
      </trkpt>
      <trkpt lat="48.43187" lon="-2.11985">
        <ele>94.01</ele>
        <time>2025-06-04T07:35:19.856Z</time>
      </trkpt>
      <trkpt lat="48.4319" lon="-2.11983">
        <ele>94.020004</ele>
        <time>2025-06-04T07:35:18.709Z</time>
      </trkpt>
      <trkpt lat="48.43193" lon="-2.11982">
        <ele>94.03</ele>
        <time>2025-06-04T07:35:16.946Z</time>
      </trkpt>
      <trkpt lat="48.43195" lon="-2.11981">
        <ele>94.04</ele>
        <time>2025-06-04T07:35:16.433Z</time>
      </trkpt>
      <trkpt lat="48.43198" lon="-2.1198">
        <ele>94.05</ele>
        <time>2025-06-04T07:35:15.834Z</time>
      </trkpt>
      <trkpt lat="48.43199" lon="-2.11979">
        <ele>94.06</ele>
        <time>2025-06-04T07:35:14.849Z</time>
      </trkpt>
      <trkpt lat="48.432" lon="-2.11977">
        <ele>94.07</ele>
        <time>2025-06-04T07:35:12.856Z</time>
      </trkpt>
      <trkpt lat="48.43204" lon="-2.11978">
        <ele>94.09</ele>
        <time>2025-06-04T07:35:11.457Z</time>
      </trkpt>
      <trkpt lat="48.43206" lon="-2.11979">
        <ele>94.11</ele>
        <time>2025-06-04T07:35:10.418Z</time>
      </trkpt>
      <trkpt lat="48.43208" lon="-2.11979">
        <ele>94.12</ele>
        <time>2025-06-04T07:35:09.468Z</time>
      </trkpt>
      <trkpt lat="48.4321" lon="-2.11979">
        <ele>94.14</ele>
        <time>2025-06-04T07:35:08.395Z</time>
      </trkpt>
      <trkpt lat="48.43212" lon="-2.11979">
        <ele>94.16</ele>
        <time>2025-06-04T07:35:07.090Z</time>
      </trkpt>
      <trkpt lat="48.43214" lon="-2.1198">
        <ele>94.17</ele>
        <time>2025-06-04T07:35:06.585Z</time>
      </trkpt>
      <trkpt lat="48.43216" lon="-2.1198">
        <ele>94.19</ele>
        <time>2025-06-04T07:35:05.749Z</time>
      </trkpt>
      <trkpt lat="48.43219" lon="-2.1198">
        <ele>94.2</ele>
        <time>2025-06-04T07:35:04.653Z</time>
      </trkpt>
      <trkpt lat="48.43222" lon="-2.1198">
        <ele>94.21</ele>
        <time>2025-06-04T07:35:03.621Z</time>
      </trkpt>
      <trkpt lat="48.43224" lon="-2.11979">
        <ele>94.229996</ele>
        <time>2025-06-04T07:35:02.698Z</time>
      </trkpt>
      <trkpt lat="48.43227" lon="-2.11979">
        <ele>94.25</ele>
        <time>2025-06-04T07:35:01.712Z</time>
      </trkpt>
      <trkpt lat="48.4323" lon="-2.11978">
        <ele>94.26</ele>
        <time>2025-06-04T07:35:00.600Z</time>
      </trkpt>
      <trkpt lat="48.43232" lon="-2.11977">
        <ele>94.28</ele>
        <time>2025-06-04T07:34:59.775Z</time>
      </trkpt>
      <trkpt lat="48.43234" lon="-2.11976">
        <ele>94.31</ele>
        <time>2025-06-04T07:34:58.670Z</time>
      </trkpt>
      <trkpt lat="48.43237" lon="-2.11974">
        <ele>94.33</ele>
        <time>2025-06-04T07:34:57.127Z</time>
      </trkpt>
      <trkpt lat="48.4324" lon="-2.11972">
        <ele>94.35</ele>
        <time>2025-06-04T07:34:56.765Z</time>
      </trkpt>
      <trkpt lat="48.43242" lon="-2.11971">
        <ele>94.38</ele>
        <time>2025-06-04T07:34:55.717Z</time>
      </trkpt>
      <trkpt lat="48.43244" lon="-2.1197">
        <ele>94.41</ele>
        <time>2025-06-04T07:34:54.077Z</time>
      </trkpt>
      <trkpt lat="48.43246" lon="-2.11969">
        <ele>94.44</ele>
        <time>2025-06-04T07:34:53.682Z</time>
      </trkpt>
      <trkpt lat="48.43247" lon="-2.11969">
        <ele>94.479996</ele>
        <time>2025-06-04T07:34:52.701Z</time>
      </trkpt>
      <trkpt lat="48.43248" lon="-2.11969">
        <ele>94.520004</ele>
        <time>2025-06-04T07:34:51.722Z</time>
      </trkpt>
      <trkpt lat="48.43249" lon="-2.11969">
        <ele>94.56</ele>
        <time>2025-06-04T07:34:49.850Z</time>
      </trkpt>
      <trkpt lat="48.43251" lon="-2.1197">
        <ele>94.61</ele>
        <time>2025-06-04T07:34:48.836Z</time>
      </trkpt>
      <trkpt lat="48.43253" lon="-2.11972">
        <ele>94.66</ele>
        <time>2025-06-04T07:34:48.642Z</time>
      </trkpt>
      <trkpt lat="48.43256" lon="-2.11974">
        <ele>94.72</ele>
        <time>2025-06-04T07:34:47.510Z</time>
      </trkpt>
      <trkpt lat="48.43259" lon="-2.11977">
        <ele>94.79</ele>
        <time>2025-06-04T07:34:46.519Z</time>
      </trkpt>
      <trkpt lat="48.43262" lon="-2.11979">
        <ele>94.86</ele>
        <time>2025-06-04T07:34:45.404Z</time>
      </trkpt>
      <trkpt lat="48.43267" lon="-2.11982">
        <ele>94.94</ele>
        <time>2025-06-04T07:34:44.382Z</time>
      </trkpt>
      <trkpt lat="48.43272" lon="-2.11986">
        <ele>95.04</ele>
        <time>2025-06-04T07:34:43.457Z</time>
      </trkpt>
      <trkpt lat="48.43276" lon="-2.11991">
        <ele>95.14</ele>
        <time>2025-06-04T07:34:42.438Z</time>
      </trkpt>
      <trkpt lat="48.43281" lon="-2.11996">
        <ele>95.26</ele>
        <time>2025-06-04T07:34:41.381Z</time>
      </trkpt>
      <trkpt lat="48.43285" lon="-2.12002">
        <ele>95.39</ele>
        <time>2025-06-04T07:34:40.394Z</time>
      </trkpt>
      <trkpt lat="48.43288" lon="-2.12009">
        <ele>95.55</ele>
        <time>2025-06-04T07:34:39.491Z</time>
      </trkpt>
      <trkpt lat="48.43291" lon="-2.12016">
        <ele>95.72</ele>
        <time>2025-06-04T07:34:37.937Z</time>
      </trkpt>
      <trkpt lat="48.43293" lon="-2.12025">
        <ele>95.92</ele>
        <time>2025-06-04T07:34:37.516Z</time>
      </trkpt>
      <trkpt lat="48.43295" lon="-2.12031">
        <ele>96.13</ele>
        <time>2025-06-04T07:34:36.493Z</time>
      </trkpt>
      <trkpt lat="48.43298" lon="-2.12038">
        <ele>96.36</ele>
        <time>2025-06-04T07:34:35.451Z</time>
      </trkpt>
      <trkpt lat="48.433" lon="-2.12045">
        <ele>96.62</ele>
        <time>2025-06-04T07:34:34.686Z</time>
      </trkpt>
      <trkpt lat="48.43302" lon="-2.12052">
        <ele>96.9</ele>
        <time>2025-06-04T07:34:32.851Z</time>
      </trkpt>
      <trkpt lat="48.43304" lon="-2.12059">
        <ele>97.16</ele>
        <time>2025-06-04T07:34:31.833Z</time>
      </trkpt>
      <trkpt lat="48.43307" lon="-2.12066">
        <ele>97.44</ele>
        <time>2025-06-04T07:34:31.820Z</time>
      </trkpt>
      <trkpt lat="48.43309" lon="-2.12072">
        <ele>97.72</ele>
        <time>2025-06-04T07:34:30.440Z</time>
      </trkpt>
      <trkpt lat="48.43311" lon="-2.12079">
        <ele>98.03</ele>
        <time>2025-06-04T07:34:29.419Z</time>
      </trkpt>
      <trkpt lat="48.43314" lon="-2.12085">
        <ele>98.38</ele>
        <time>2025-06-04T07:34:28.546Z</time>
      </trkpt>
      <trkpt lat="48.43316" lon="-2.12092">
        <ele>98.729996</ele>
        <time>2025-06-04T07:34:27.401Z</time>
      </trkpt>
      <trkpt lat="48.43317" lon="-2.12099">
        <ele>99.020004</ele>
        <time>2025-06-04T07:34:26.418Z</time>
      </trkpt>
      <trkpt lat="48.43319" lon="-2.12105">
        <ele>99.29</ele>
        <time>2025-06-04T07:34:25.667Z</time>
      </trkpt>
      <trkpt lat="48.43321" lon="-2.12111">
        <ele>99.56</ele>
        <time>2025-06-04T07:34:24.526Z</time>
      </trkpt>
      <trkpt lat="48.43323" lon="-2.12116">
        <ele>99.8</ele>
        <time>2025-06-04T07:34:23.426Z</time>
      </trkpt>
      <trkpt lat="48.43325" lon="-2.12122">
        <ele>100.03</ele>
        <time>2025-06-04T07:34:22.394Z</time>
      </trkpt>
      <trkpt lat="48.43327" lon="-2.12128">
        <ele>100.28</ele>
        <time>2025-06-04T07:34:21.543Z</time>
      </trkpt>
      <trkpt lat="48.43328" lon="-2.12134">
        <ele>100.54</ele>
        <time>2025-06-04T07:34:20.416Z</time>
      </trkpt>
      <trkpt lat="48.4333" lon="-2.1214">
        <ele>100.76</ele>
        <time>2025-06-04T07:34:19.498Z</time>
      </trkpt>
      <trkpt lat="48.43332" lon="-2.12147">
        <ele>100.96</ele>
        <time>2025-06-04T07:34:18.379Z</time>
      </trkpt>
      <trkpt lat="48.43335" lon="-2.12155">
        <ele>101.1</ele>
        <time>2025-06-04T07:34:17.423Z</time>
      </trkpt>
      <trkpt lat="48.43337" lon="-2.12162">
        <ele>101.229996</ele>
        <time>2025-06-04T07:34:16.501Z</time>
      </trkpt>
      <trkpt lat="48.43339" lon="-2.1217">
        <ele>101.37</ele>
        <time>2025-06-04T07:34:15.365Z</time>
      </trkpt>
      <trkpt lat="48.43341" lon="-2.12176">
        <ele>101.5</ele>
        <time>2025-06-04T07:34:14.548Z</time>
      </trkpt>
      <trkpt lat="48.43343" lon="-2.12183">
        <ele>101.63</ele>
        <time>2025-06-04T07:34:13.735Z</time>
      </trkpt>
      <trkpt lat="48.43345" lon="-2.12191">
        <ele>101.75</ele>
        <time>2025-06-04T07:34:12.472Z</time>
      </trkpt>
      <trkpt lat="48.43347" lon="-2.12198">
        <ele>101.88</ele>
        <time>2025-06-04T07:34:11.405Z</time>
      </trkpt>
      <trkpt lat="48.43349" lon="-2.12204">
        <ele>102.020004</ele>
        <time>2025-06-04T07:34:10.445Z</time>
      </trkpt>
      <trkpt lat="48.43351" lon="-2.12211">
        <ele>102.17</ele>
        <time>2025-06-04T07:34:09.698Z</time>
      </trkpt>
      <trkpt lat="48.43353" lon="-2.12218">
        <ele>102.3</ele>
        <time>2025-06-04T07:34:07.792Z</time>
      </trkpt>
      <trkpt lat="48.43356" lon="-2.12224">
        <ele>102.46</ele>
        <time>2025-06-04T07:34:06.817Z</time>
      </trkpt>
      <trkpt lat="48.43357" lon="-2.1223">
        <ele>102.61</ele>
        <time>2025-06-04T07:34:05.820Z</time>
      </trkpt>
      <trkpt lat="48.4336" lon="-2.12237">
        <ele>102.770004</ele>
        <time>2025-06-04T07:34:05.435Z</time>
      </trkpt>
      <trkpt lat="48.43362" lon="-2.12243">
        <ele>102.91</ele>
        <time>2025-06-04T07:34:04.497Z</time>
      </trkpt>
      <trkpt lat="48.43364" lon="-2.1225">
        <ele>103.06</ele>
        <time>2025-06-04T07:34:03.401Z</time>
      </trkpt>
      <trkpt lat="48.43366" lon="-2.12257">
        <ele>103.21</ele>
        <time>2025-06-04T07:34:02.732Z</time>
      </trkpt>
      <trkpt lat="48.43368" lon="-2.12264">
        <ele>103.38</ele>
        <time>2025-06-04T07:34:01.470Z</time>
      </trkpt>
      <trkpt lat="48.4337" lon="-2.1227">
        <ele>103.56</ele>
        <time>2025-06-04T07:34:00.455Z</time>
      </trkpt>
      <trkpt lat="48.43372" lon="-2.12277">
        <ele>103.75</ele>
        <time>2025-06-04T07:33:59.466Z</time>
      </trkpt>
      <trkpt lat="48.43375" lon="-2.12284">
        <ele>103.97</ele>
        <time>2025-06-04T07:33:58.401Z</time>
      </trkpt>
      <trkpt lat="48.43377" lon="-2.1229">
        <ele>104.24</ele>
        <time>2025-06-04T07:33:57.395Z</time>
      </trkpt>
      <trkpt lat="48.43378" lon="-2.12297">
        <ele>104.56</ele>
        <time>2025-06-04T07:33:56.472Z</time>
      </trkpt>
      <trkpt lat="48.43381" lon="-2.12304">
        <ele>104.92</ele>
        <time>2025-06-04T07:33:55.708Z</time>
      </trkpt>
      <trkpt lat="48.43383" lon="-2.1231">
        <ele>105.28</ele>
        <time>2025-06-04T07:33:54.396Z</time>
      </trkpt>
      <trkpt lat="48.43385" lon="-2.12316">
        <ele>105.65</ele>
        <time>2025-06-04T07:33:53.727Z</time>
      </trkpt>
      <trkpt lat="48.43387" lon="-2.12323">
        <ele>106.03</ele>
        <time>2025-06-04T07:33:52.503Z</time>
      </trkpt>
      <trkpt lat="48.43389" lon="-2.12333">
        <ele>106.32</ele>
        <time>2025-06-04T07:33:51.504Z</time>
      </trkpt>
      <trkpt lat="48.43393" lon="-2.12357">
        <ele>106.61</ele>
        <time>2025-06-04T07:33:50.760Z</time>
      </trkpt>
      <trkpt lat="48.43395" lon="-2.12366">
        <ele>106.7</ele>
        <time>2025-06-04T07:33:49.757Z</time>
      </trkpt>
      <trkpt lat="48.43394" lon="-2.12367">
        <ele>106.8</ele>
        <time>2025-06-04T07:33:48.511Z</time>
      </trkpt>
      <trkpt lat="48.43395" lon="-2.1237">
        <ele>106.87</ele>
        <time>2025-06-04T07:33:46.915Z</time>
      </trkpt>
      <trkpt lat="48.43395" lon="-2.12373">
        <ele>106.95</ele>
        <time>2025-06-04T07:33:45.785Z</time>
      </trkpt>
      <trkpt lat="48.43394" lon="-2.12376">
        <ele>107</ele>
        <time>2025-06-04T07:33:44.934Z</time>
      </trkpt>
      <trkpt lat="48.43393" lon="-2.1238">
        <ele>107.05</ele>
        <time>2025-06-04T07:33:44.508Z</time>
      </trkpt>
      <trkpt lat="48.43393" lon="-2.12382">
        <ele>107.11</ele>
        <time>2025-06-04T07:33:43.750Z</time>
      </trkpt>
      <trkpt lat="48.43393" lon="-2.12385">
        <ele>107.16</ele>
        <time>2025-06-04T07:33:42.734Z</time>
      </trkpt>
      <trkpt lat="48.43394" lon="-2.12387">
        <ele>107.21</ele>
        <time>2025-06-04T07:33:40.826Z</time>
      </trkpt>
      <trkpt lat="48.43394" lon="-2.12389">
        <ele>107.3</ele>
        <time>2025-06-04T07:33:39.586Z</time>
      </trkpt>
      <trkpt lat="48.43394" lon="-2.12391">
        <ele>107.34</ele>
        <time>2025-06-04T07:33:37.820Z</time>
      </trkpt>
      <trkpt lat="48.43394" lon="-2.12395">
        <ele>107.89</ele>
        <time>2025-06-04T07:33:36.254Z</time>
      </trkpt>
      <trkpt lat="48.43397" lon="-2.12405">
        <ele>108.24</ele>
        <time>2025-06-04T07:33:19.266Z</time>
      </trkpt>
      <trkpt lat="48.43398" lon="-2.12407">
        <ele>108.41</ele>
        <time>2025-06-04T07:33:13.265Z</time>
      </trkpt>
      <trkpt lat="48.43398" lon="-2.12408">
        <ele>109.35</ele>
        <time>2025-06-04T07:33:10.253Z</time>
      </trkpt>
      <trkpt lat="48.43398" lon="-2.12421">
        <ele>110.29</ele>
        <time>2025-06-04T07:33:02.097Z</time>
      </trkpt>
      <trkpt lat="48.43398" lon="-2.12427">
        <ele>110.71</ele>
        <time>2025-06-04T07:33:00.993Z</time>
      </trkpt>
      <trkpt lat="48.43398" lon="-2.12434">
        <ele>111.21</ele>
        <time>2025-06-04T07:32:59.960Z</time>
      </trkpt>
      <trkpt lat="48.43398" lon="-2.12442">
        <ele>111.78</ele>
        <time>2025-06-04T07:32:59.090Z</time>
      </trkpt>
      <trkpt lat="48.43399" lon="-2.12451">
        <ele>113.14</ele>
        <time>2025-06-04T07:32:58.003Z</time>
      </trkpt>
      <trkpt lat="48.434" lon="-2.12467">
        <ele>113.14</ele>
        <time>2025-06-04T07:32:57.133Z</time>
      </trkpt>
      <trkpt lat="48.434" lon="-2.12465">
        <ele>113.79</ele>
        <time>2025-06-04T07:32:56.058Z</time>
      </trkpt>
      <trkpt lat="48.43401" lon="-2.12473">
        <ele>115.1</ele>
        <time>2025-06-04T07:32:55.132Z</time>
      </trkpt>
      <trkpt lat="48.43402" lon="-2.12488">
        <ele>115.1</ele>
        <time>2025-06-04T07:32:54.096Z</time>
      </trkpt>
      <trkpt lat="48.43402" lon="-2.12487">
        <ele>115.71</ele>
        <time>2025-06-04T07:32:52.993Z</time>
      </trkpt>
      <trkpt lat="48.43403" lon="-2.12493">
        <ele>116.18</ele>
        <time>2025-06-04T07:32:52.004Z</time>
      </trkpt>
      <trkpt lat="48.43404" lon="-2.12502">
        <ele>116.4</ele>
        <time>2025-06-04T07:32:51.010Z</time>
      </trkpt>
      <trkpt lat="48.43406" lon="-2.12521">
        <ele>116.61</ele>
        <time>2025-06-04T07:32:50.153Z</time>
      </trkpt>
      <trkpt lat="48.43406" lon="-2.12522">
        <ele>116.66</ele>
        <time>2025-06-04T07:32:49.131Z</time>
      </trkpt>
      <trkpt lat="48.43412" lon="-2.12561">
        <ele>116.66</ele>
        <time>2025-06-04T07:32:48.153Z</time>
      </trkpt>
      <trkpt lat="48.43413" lon="-2.12568">
        <ele>116.619995</ele>
        <time>2025-06-04T07:32:47.147Z</time>
      </trkpt>
      <trkpt lat="48.43414" lon="-2.12567">
        <ele>116.58</ele>
        <time>2025-06-04T07:32:46.131Z</time>
      </trkpt>
      <trkpt lat="48.43413" lon="-2.12576">
        <ele>116.56</ele>
        <time>2025-06-04T07:32:45.115Z</time>
      </trkpt>
      <trkpt lat="48.43412" lon="-2.12583">
        <ele>116.54</ele>
        <time>2025-06-04T07:32:44.144Z</time>
      </trkpt>
      <trkpt lat="48.43411" lon="-2.12589">
        <ele>116.53</ele>
        <time>2025-06-04T07:32:43.106Z</time>
      </trkpt>
      <trkpt lat="48.4341" lon="-2.12595">
        <ele>116.520004</ele>
        <time>2025-06-04T07:32:42.119Z</time>
      </trkpt>
      <trkpt lat="48.43409" lon="-2.12605">
        <ele>116.54</ele>
        <time>2025-06-04T07:32:41.166Z</time>
      </trkpt>
      <trkpt lat="48.43406" lon="-2.12619">
        <ele>116.57</ele>
        <time>2025-06-04T07:32:39.567Z</time>
      </trkpt>
      <trkpt lat="48.43405" lon="-2.12625">
        <ele>116.67</ele>
        <time>2025-06-04T07:32:39.096Z</time>
      </trkpt>
      <trkpt lat="48.43403" lon="-2.12636">
        <ele>116.82</ele>
        <time>2025-06-04T07:32:37.579Z</time>
      </trkpt>
      <trkpt lat="48.43403" lon="-2.12637">
        <ele>117.19</ele>
        <time>2025-06-04T07:32:37.264Z</time>
      </trkpt>
      <trkpt lat="48.43402" lon="-2.12641">
        <ele>117.19</ele>
        <time>2025-06-04T07:32:36.191Z</time>
      </trkpt>
      <trkpt lat="48.43402" lon="-2.12642">
        <ele>117.39</ele>
        <time>2025-06-04T07:32:35.113Z</time>
      </trkpt>
      <trkpt lat="48.43401" lon="-2.12648">
        <ele>117.6</ele>
        <time>2025-06-04T07:32:33.988Z</time>
      </trkpt>
      <trkpt lat="48.434" lon="-2.1266">
        <ele>117.8</ele>
        <time>2025-06-04T07:32:32.902Z</time>
      </trkpt>
      <trkpt lat="48.43399" lon="-2.12664">
        <ele>117.96</ele>
        <time>2025-06-04T07:32:31.957Z</time>
      </trkpt>
      <trkpt lat="48.43398" lon="-2.12671">
        <ele>118.11</ele>
        <time>2025-06-04T07:32:30.880Z</time>
      </trkpt>
      <trkpt lat="48.43398" lon="-2.12676">
        <ele>118.22</ele>
        <time>2025-06-04T07:32:29.979Z</time>
      </trkpt>
      <trkpt lat="48.43397" lon="-2.12681">
        <ele>118.35</ele>
        <time>2025-06-04T07:32:28.927Z</time>
      </trkpt>
      <trkpt lat="48.43397" lon="-2.12687">
        <ele>118.42</ele>
        <time>2025-06-04T07:32:27.951Z</time>
      </trkpt>
      <trkpt lat="48.43396" lon="-2.12697">
        <ele>118.509995</ele>
        <time>2025-06-04T07:32:26.927Z</time>
      </trkpt>
      <trkpt lat="48.43395" lon="-2.12708">
        <ele>118.44</ele>
        <time>2025-06-04T07:32:25.901Z</time>
      </trkpt>
      <trkpt lat="48.43393" lon="-2.12726">
        <ele>118.369995</ele>
        <time>2025-06-04T07:32:24.919Z</time>
      </trkpt>
      <trkpt lat="48.43394" lon="-2.12729">
        <ele>118.14</ele>
        <time>2025-06-04T07:32:23.941Z</time>
      </trkpt>
      <trkpt lat="48.43392" lon="-2.1275">
        <ele>117.85</ele>
        <time>2025-06-04T07:32:22.998Z</time>
      </trkpt>
      <trkpt lat="48.43391" lon="-2.12749">
        <ele>117.5</ele>
        <time>2025-06-04T07:32:21.981Z</time>
      </trkpt>
      <trkpt lat="48.43392" lon="-2.12753">
        <ele>117.15</ele>
        <time>2025-06-04T07:32:20.908Z</time>
      </trkpt>
      <trkpt lat="48.43393" lon="-2.12756">
        <ele>116.8</ele>
        <time>2025-06-04T07:32:19.954Z</time>
      </trkpt>
      <trkpt lat="48.43396" lon="-2.12757">
        <ele>116.44</ele>
        <time>2025-06-04T07:32:18.931Z</time>
      </trkpt>
      <trkpt lat="48.43399" lon="-2.12758">
        <ele>116.1</ele>
        <time>2025-06-04T07:32:17.978Z</time>
      </trkpt>
      <trkpt lat="48.43402" lon="-2.12759">
        <ele>115.86</ele>
        <time>2025-06-04T07:32:16.892Z</time>
      </trkpt>
      <trkpt lat="48.43408" lon="-2.1276">
        <ele>115.619995</ele>
        <time>2025-06-04T07:32:16.181Z</time>
      </trkpt>
      <trkpt lat="48.43414" lon="-2.12762">
        <ele>115.47</ele>
        <time>2025-06-04T07:32:14.945Z</time>
      </trkpt>
      <trkpt lat="48.43419" lon="-2.12764">
        <ele>115.31</ele>
        <time>2025-06-04T07:32:13.877Z</time>
      </trkpt>
      <trkpt lat="48.43424" lon="-2.12766">
        <ele>115.21</ele>
        <time>2025-06-04T07:32:12.876Z</time>
      </trkpt>
      <trkpt lat="48.4343" lon="-2.12769">
        <ele>115.15</ele>
        <time>2025-06-04T07:32:12.316Z</time>
      </trkpt>
      <trkpt lat="48.43436" lon="-2.12771">
        <ele>115.11</ele>
        <time>2025-06-04T07:32:10.922Z</time>
      </trkpt>
      <trkpt lat="48.43442" lon="-2.12775">
        <ele>115.07</ele>
        <time>2025-06-04T07:32:09.955Z</time>
      </trkpt>
      <trkpt lat="48.43447" lon="-2.12778">
        <ele>115.04</ele>
        <time>2025-06-04T07:32:08.893Z</time>
      </trkpt>
      <trkpt lat="48.43451" lon="-2.12782">
        <ele>115.05</ele>
        <time>2025-06-04T07:32:07.943Z</time>
      </trkpt>
      <trkpt lat="48.43457" lon="-2.12788">
        <ele>115.07</ele>
        <time>2025-06-04T07:32:06.886Z</time>
      </trkpt>
      <trkpt lat="48.43462" lon="-2.12793">
        <ele>115.1</ele>
        <time>2025-06-04T07:32:05.878Z</time>
      </trkpt>
      <trkpt lat="48.43466" lon="-2.12798">
        <ele>115.16</ele>
        <time>2025-06-04T07:32:05.107Z</time>
      </trkpt>
      <trkpt lat="48.43471" lon="-2.12803">
        <ele>115.229996</ele>
        <time>2025-06-04T07:32:03.907Z</time>
      </trkpt>
      <trkpt lat="48.43475" lon="-2.12808">
        <ele>115.3</ele>
        <time>2025-06-04T07:32:03.270Z</time>
      </trkpt>
      <trkpt lat="48.4348" lon="-2.12812">
        <ele>115.380005</ele>
        <time>2025-06-04T07:32:02.281Z</time>
      </trkpt>
      <trkpt lat="48.43486" lon="-2.12817">
        <ele>115.479996</ele>
        <time>2025-06-04T07:32:01.150Z</time>
      </trkpt>
      <trkpt lat="48.43491" lon="-2.1282">
        <ele>115.55</ele>
        <time>2025-06-04T07:31:59.836Z</time>
      </trkpt>
      <trkpt lat="48.43496" lon="-2.12823">
        <ele>115.619995</ele>
        <time>2025-06-04T07:31:58.919Z</time>
      </trkpt>
      <trkpt lat="48.435" lon="-2.12826">
        <ele>115.69</ele>
        <time>2025-06-04T07:31:57.886Z</time>
      </trkpt>
      <trkpt lat="48.43504" lon="-2.12829">
        <ele>115.75</ele>
        <time>2025-06-04T07:31:57.102Z</time>
      </trkpt>
      <trkpt lat="48.43507" lon="-2.12832">
        <ele>115.79</ele>
        <time>2025-06-04T07:31:55.903Z</time>
      </trkpt>
      <trkpt lat="48.43509" lon="-2.12836">
        <ele>115.82</ele>
        <time>2025-06-04T07:31:54.964Z</time>
      </trkpt>
      <trkpt lat="48.4351" lon="-2.1284">
        <ele>115.869995</ele>
        <time>2025-06-04T07:31:54.276Z</time>
      </trkpt>
      <trkpt lat="48.43509" lon="-2.1285">
        <ele>115.9</ele>
        <time>2025-06-04T07:31:51.947Z</time>
      </trkpt>
      <trkpt lat="48.43507" lon="-2.12857">
        <ele>115.93</ele>
        <time>2025-06-04T07:31:50.994Z</time>
      </trkpt>
      <trkpt lat="48.43505" lon="-2.12864">
        <ele>115.94</ele>
        <time>2025-06-04T07:31:49.960Z</time>
      </trkpt>
      <trkpt lat="48.43504" lon="-2.1287">
        <ele>115.96</ele>
        <time>2025-06-04T07:31:49.169Z</time>
      </trkpt>
      <trkpt lat="48.43502" lon="-2.12876">
        <ele>115.979996</ele>
        <time>2025-06-04T07:31:47.930Z</time>
      </trkpt>
      <trkpt lat="48.435" lon="-2.12884">
        <ele>115.990005</ele>
        <time>2025-06-04T07:31:46.958Z</time>
      </trkpt>
      <trkpt lat="48.43497" lon="-2.12891">
        <ele>116</ele>
        <time>2025-06-04T07:31:45.884Z</time>
      </trkpt>
      <trkpt lat="48.43494" lon="-2.12897">
        <ele>116.03</ele>
        <time>2025-06-04T07:31:44.879Z</time>
      </trkpt>
      <trkpt lat="48.43492" lon="-2.12904">
        <ele>116.05</ele>
        <time>2025-06-04T07:31:43.937Z</time>
      </trkpt>
      <trkpt lat="48.43486" lon="-2.12918">
        <ele>116.07</ele>
        <time>2025-06-04T07:31:42.950Z</time>
      </trkpt>
      <trkpt lat="48.43485" lon="-2.12922">
        <ele>116.1</ele>
        <time>2025-06-04T07:31:41.935Z</time>
      </trkpt>
      <trkpt lat="48.43483" lon="-2.12929">
        <ele>116.11</ele>
        <time>2025-06-04T07:31:40.888Z</time>
      </trkpt>
      <trkpt lat="48.43482" lon="-2.12933">
        <ele>116.119995</ele>
        <time>2025-06-04T07:31:40.245Z</time>
      </trkpt>
      <trkpt lat="48.43481" lon="-2.12938">
        <ele>116.119995</ele>
        <time>2025-06-04T07:31:39.190Z</time>
      </trkpt>
      <trkpt lat="48.4348" lon="-2.12943">
        <ele>116.130005</ele>
        <time>2025-06-04T07:31:37.915Z</time>
      </trkpt>
      <trkpt lat="48.4348" lon="-2.12943">
        <ele>115.9</ele>
        <time>2025-06-04T07:29:56.269Z</time>
      </trkpt>
      <trkpt lat="48.4347" lon="-2.12967">
        <ele>116.69</ele>
        <time>2025-06-04T07:29:54.829Z</time>
      </trkpt>
      <trkpt lat="48.43473" lon="-2.12969">
        <ele>116.69</ele>
        <time>2025-06-04T07:29:53.912Z</time>
      </trkpt>
      <trkpt lat="48.43476" lon="-2.1297">
        <ele>116.71</ele>
        <time>2025-06-04T07:29:53.255Z</time>
      </trkpt>
      <trkpt lat="48.43484" lon="-2.12973">
        <ele>116.7</ele>
        <time>2025-06-04T07:29:50.855Z</time>
      </trkpt>
      <trkpt lat="48.43488" lon="-2.12974">
        <ele>116.7</ele>
        <time>2025-06-04T07:29:49.824Z</time>
      </trkpt>
      <trkpt lat="48.43493" lon="-2.12975">
        <ele>116.69</ele>
        <time>2025-06-04T07:29:49.084Z</time>
      </trkpt>
      <trkpt lat="48.43497" lon="-2.12977">
        <ele>116.68</ele>
        <time>2025-06-04T07:29:48.082Z</time>
      </trkpt>
      <trkpt lat="48.43502" lon="-2.12978">
        <ele>116.65</ele>
        <time>2025-06-04T07:29:47.269Z</time>
      </trkpt>
      <trkpt lat="48.43511" lon="-2.12981">
        <ele>116.630005</ele>
        <time>2025-06-04T07:29:45.258Z</time>
      </trkpt>
      <trkpt lat="48.4352" lon="-2.12983">
        <ele>116.619995</ele>
        <time>2025-06-04T07:29:43.279Z</time>
      </trkpt>
      <trkpt lat="48.43525" lon="-2.12984">
        <ele>116.619995</ele>
        <time>2025-06-04T07:29:42.291Z</time>
      </trkpt>
      <trkpt lat="48.4353" lon="-2.12984">
        <ele>116.619995</ele>
        <time>2025-06-04T07:29:41.261Z</time>
      </trkpt>
      <trkpt lat="48.43539" lon="-2.12986">
        <ele>116.619995</ele>
        <time>2025-06-04T07:29:39.268Z</time>
      </trkpt>
      <trkpt lat="48.43544" lon="-2.12987">
        <ele>116.65</ele>
        <time>2025-06-04T07:29:38.262Z</time>
      </trkpt>
      <trkpt lat="48.43552" lon="-2.1299">
        <ele>116.72</ele>
        <time>2025-06-04T07:29:36.248Z</time>
      </trkpt>
      <trkpt lat="48.43561" lon="-2.12993">
        <ele>116.759995</ele>
        <time>2025-06-04T07:29:34.262Z</time>
      </trkpt>
      <trkpt lat="48.43567" lon="-2.12995">
        <ele>116.81</ele>
        <time>2025-06-04T07:29:33.265Z</time>
      </trkpt>
      <trkpt lat="48.43571" lon="-2.12996">
        <ele>116.869995</ele>
        <time>2025-06-04T07:29:32.270Z</time>
      </trkpt>
      <trkpt lat="48.43576" lon="-2.12998">
        <ele>116.93</ele>
        <time>2025-06-04T07:29:31.268Z</time>
      </trkpt>
      <trkpt lat="48.43581" lon="-2.13">
        <ele>116.990005</ele>
        <time>2025-06-04T07:29:30.268Z</time>
      </trkpt>
      <trkpt lat="48.43586" lon="-2.13002">
        <ele>117.06</ele>
        <time>2025-06-04T07:29:29.263Z</time>
      </trkpt>
      <trkpt lat="48.4359" lon="-2.13003">
        <ele>117.130005</ele>
        <time>2025-06-04T07:29:28.267Z</time>
      </trkpt>
      <trkpt lat="48.43594" lon="-2.13004">
        <ele>117.21</ele>
        <time>2025-06-04T07:29:28.078Z</time>
      </trkpt>
      <trkpt lat="48.43599" lon="-2.13005">
        <ele>117.33</ele>
        <time>2025-06-04T07:29:26.145Z</time>
      </trkpt>
      <trkpt lat="48.43607" lon="-2.13008">
        <ele>117.39</ele>
        <time>2025-06-04T07:29:24.282Z</time>
      </trkpt>
      <trkpt lat="48.43612" lon="-2.13009">
        <ele>117.44</ele>
        <time>2025-06-04T07:29:23.267Z</time>
      </trkpt>
      <trkpt lat="48.43615" lon="-2.1301">
        <ele>117.490005</ele>
        <time>2025-06-04T07:29:22.268Z</time>
      </trkpt>
      <trkpt lat="48.43619" lon="-2.13011">
        <ele>117.54</ele>
        <time>2025-06-04T07:29:21.267Z</time>
      </trkpt>
      <trkpt lat="48.43624" lon="-2.13012">
        <ele>117.61</ele>
        <time>2025-06-04T07:29:20.164Z</time>
      </trkpt>
      <trkpt lat="48.43633" lon="-2.13015">
        <ele>117.65</ele>
        <time>2025-06-04T07:29:19.016Z</time>
      </trkpt>
      <trkpt lat="48.43636" lon="-2.13016">
        <ele>117.67</ele>
        <time>2025-06-04T07:29:17.265Z</time>
      </trkpt>
      <trkpt lat="48.43641" lon="-2.13016">
        <ele>117.7</ele>
        <time>2025-06-04T07:29:16.262Z</time>
      </trkpt>
      <trkpt lat="48.43645" lon="-2.13017">
        <ele>117.740005</ele>
        <time>2025-06-04T07:29:15.234Z</time>
      </trkpt>
      <trkpt lat="48.43653" lon="-2.13018">
        <ele>117.759995</ele>
        <time>2025-06-04T07:29:13.262Z</time>
      </trkpt>
      <trkpt lat="48.43657" lon="-2.13019">
        <ele>117.770004</ele>
        <time>2025-06-04T07:29:12.267Z</time>
      </trkpt>
      <trkpt lat="48.43662" lon="-2.13019">
        <ele>117.78</ele>
        <time>2025-06-04T07:29:11.121Z</time>
      </trkpt>
      <trkpt lat="48.4367" lon="-2.13021">
        <ele>117.79</ele>
        <time>2025-06-04T07:29:09.258Z</time>
      </trkpt>
      <trkpt lat="48.43674" lon="-2.13022">
        <ele>117.79</ele>
        <time>2025-06-04T07:29:08.192Z</time>
      </trkpt>
      <trkpt lat="48.43682" lon="-2.13024">
        <ele>117.79</ele>
        <time>2025-06-04T07:29:07.117Z</time>
      </trkpt>
      <trkpt lat="48.43687" lon="-2.13026">
        <ele>117.79</ele>
        <time>2025-06-04T07:29:05.256Z</time>
      </trkpt>
      <trkpt lat="48.4369" lon="-2.13027">
        <ele>117.79</ele>
        <time>2025-06-04T07:29:04.270Z</time>
      </trkpt>
      <trkpt lat="48.43695" lon="-2.13028">
        <ele>117.79</ele>
        <time>2025-06-04T07:29:03.251Z</time>
      </trkpt>
      <trkpt lat="48.43699" lon="-2.13028">
        <ele>117.78</ele>
        <time>2025-06-04T07:29:02.157Z</time>
      </trkpt>
      <trkpt lat="48.43707" lon="-2.13029">
        <ele>117.770004</ele>
        <time>2025-06-04T07:29:00.266Z</time>
      </trkpt>
      <trkpt lat="48.4371" lon="-2.1303">
        <ele>117.759995</ele>
        <time>2025-06-04T07:28:59.220Z</time>
      </trkpt>
      <trkpt lat="48.43718" lon="-2.13031">
        <ele>117.75</ele>
        <time>2025-06-04T07:28:57.632Z</time>
      </trkpt>
      <trkpt lat="48.43723" lon="-2.13031">
        <ele>117.75</ele>
        <time>2025-06-04T07:28:57.054Z</time>
      </trkpt>
      <trkpt lat="48.43726" lon="-2.13031">
        <ele>117.75</ele>
        <time>2025-06-04T07:28:55.252Z</time>
      </trkpt>
      <trkpt lat="48.4373" lon="-2.13032">
        <ele>117.740005</ele>
        <time>2025-06-04T07:28:54.258Z</time>
      </trkpt>
      <trkpt lat="48.43734" lon="-2.13033">
        <ele>117.75</ele>
        <time>2025-06-04T07:28:53.265Z</time>
      </trkpt>
      <trkpt lat="48.43738" lon="-2.13034">
        <ele>117.75</ele>
        <time>2025-06-04T07:28:52.248Z</time>
      </trkpt>
      <trkpt lat="48.43742" lon="-2.13036">
        <ele>117.759995</ele>
        <time>2025-06-04T07:28:51.254Z</time>
      </trkpt>
      <trkpt lat="48.43745" lon="-2.13037">
        <ele>117.770004</ele>
        <time>2025-06-04T07:28:50.276Z</time>
      </trkpt>
      <trkpt lat="48.43749" lon="-2.13038">
        <ele>117.79</ele>
        <time>2025-06-04T07:28:49.249Z</time>
      </trkpt>
      <trkpt lat="48.43753" lon="-2.13039">
        <ele>117.81</ele>
        <time>2025-06-04T07:28:49.126Z</time>
      </trkpt>
      <trkpt lat="48.43757" lon="-2.1304">
        <ele>117.83</ele>
        <time>2025-06-04T07:28:47.264Z</time>
      </trkpt>
      <trkpt lat="48.43761" lon="-2.13041">
        <ele>117.86</ele>
        <time>2025-06-04T07:28:46.255Z</time>
      </trkpt>
      <trkpt lat="48.43765" lon="-2.13042">
        <ele>117.869995</ele>
        <time>2025-06-04T07:28:45.269Z</time>
      </trkpt>
      <trkpt lat="48.43769" lon="-2.13043">
        <ele>117.869995</ele>
        <time>2025-06-04T07:28:45.138Z</time>
      </trkpt>
      <trkpt lat="48.43773" lon="-2.13044">
        <ele>117.869995</ele>
        <time>2025-06-04T07:28:43.245Z</time>
      </trkpt>
      <trkpt lat="48.43777" lon="-2.13045">
        <ele>117.86</ele>
        <time>2025-06-04T07:28:42.259Z</time>
      </trkpt>
      <trkpt lat="48.43781" lon="-2.13045">
        <ele>117.84</ele>
        <time>2025-06-04T07:28:41.241Z</time>
      </trkpt>
      <trkpt lat="48.43784" lon="-2.13046">
        <ele>117.81</ele>
        <time>2025-06-04T07:28:40.284Z</time>
      </trkpt>
      <trkpt lat="48.43788" lon="-2.13048">
        <ele>117.75</ele>
        <time>2025-06-04T07:28:39.271Z</time>
      </trkpt>
      <trkpt lat="48.43793" lon="-2.13048">
        <ele>117.619995</ele>
        <time>2025-06-04T07:28:38.104Z</time>
      </trkpt>
      <trkpt lat="48.43799" lon="-2.1305">
        <ele>117.54</ele>
        <time>2025-06-04T07:28:36.265Z</time>
      </trkpt>
      <trkpt lat="48.43803" lon="-2.1305">
        <ele>117.45</ele>
        <time>2025-06-04T07:28:36.074Z</time>
      </trkpt>
      <trkpt lat="48.43806" lon="-2.1305">
        <ele>117.35</ele>
        <time>2025-06-04T07:28:34.210Z</time>
      </trkpt>
      <trkpt lat="48.4381" lon="-2.13051">
        <ele>117.25</ele>
        <time>2025-06-04T07:28:33.256Z</time>
      </trkpt>
      <trkpt lat="48.43814" lon="-2.13051">
        <ele>117.119995</ele>
        <time>2025-06-04T07:28:32.253Z</time>
      </trkpt>
      <trkpt lat="48.43818" lon="-2.13052">
        <ele>117</ele>
        <time>2025-06-04T07:28:32.041Z</time>
      </trkpt>
      <trkpt lat="48.43821" lon="-2.13053">
        <ele>116.86</ele>
        <time>2025-06-04T07:28:30.256Z</time>
      </trkpt>
      <trkpt lat="48.43826" lon="-2.13054">
        <ele>116.61</ele>
        <time>2025-06-04T07:28:29.140Z</time>
      </trkpt>
      <trkpt lat="48.43833" lon="-2.13055">
        <ele>116.5</ele>
        <time>2025-06-04T07:28:27.270Z</time>
      </trkpt>
      <trkpt lat="48.43837" lon="-2.13056">
        <ele>116.380005</ele>
        <time>2025-06-04T07:28:27.140Z</time>
      </trkpt>
      <trkpt lat="48.43841" lon="-2.13057">
        <ele>116.29</ele>
        <time>2025-06-04T07:28:25.792Z</time>
      </trkpt>
      <trkpt lat="48.43844" lon="-2.13058">
        <ele>116.2</ele>
        <time>2025-06-04T07:28:24.778Z</time>
      </trkpt>
      <trkpt lat="48.43849" lon="-2.13058">
        <ele>116.03</ele>
        <time>2025-06-04T07:28:23.123Z</time>
      </trkpt>
      <trkpt lat="48.43856" lon="-2.13058">
        <ele>115.94</ele>
        <time>2025-06-04T07:28:22.069Z</time>
      </trkpt>
      <trkpt lat="48.4386" lon="-2.13058">
        <ele>115.869995</ele>
        <time>2025-06-04T07:28:20.247Z</time>
      </trkpt>
      <trkpt lat="48.43863" lon="-2.13058">
        <ele>115.78</ele>
        <time>2025-06-04T07:28:19.271Z</time>
      </trkpt>
      <trkpt lat="48.43867" lon="-2.13061">
        <ele>115.630005</ele>
        <time>2025-06-04T07:28:17.816Z</time>
      </trkpt>
      <trkpt lat="48.43871" lon="-2.13069">
        <ele>115.53</ele>
        <time>2025-06-04T07:28:16.271Z</time>
      </trkpt>
      <trkpt lat="48.43871" lon="-2.13073">
        <ele>115.42</ele>
        <time>2025-06-04T07:28:15.259Z</time>
      </trkpt>
      <trkpt lat="48.43871" lon="-2.13079">
        <ele>115.29</ele>
        <time>2025-06-04T07:28:14.275Z</time>
      </trkpt>
      <trkpt lat="48.4387" lon="-2.13084">
        <ele>115.16</ele>
        <time>2025-06-04T07:28:13.872Z</time>
      </trkpt>
      <trkpt lat="48.4387" lon="-2.13089">
        <ele>115.020004</ele>
        <time>2025-06-04T07:28:12.691Z</time>
      </trkpt>
      <trkpt lat="48.43869" lon="-2.13094">
        <ele>114.869995</ele>
        <time>2025-06-04T07:28:11.852Z</time>
      </trkpt>
      <trkpt lat="48.43869" lon="-2.13099">
        <ele>114.69</ele>
        <time>2025-06-04T07:28:10.266Z</time>
      </trkpt>
      <trkpt lat="48.43868" lon="-2.13105">
        <ele>114.380005</ele>
        <time>2025-06-04T07:28:09.012Z</time>
      </trkpt>
      <trkpt lat="48.43867" lon="-2.13115">
        <ele>114.229996</ele>
        <time>2025-06-04T07:28:07.257Z</time>
      </trkpt>
      <trkpt lat="48.43866" lon="-2.1312">
        <ele>114.09</ele>
        <time>2025-06-04T07:28:06.258Z</time>
      </trkpt>
      <trkpt lat="48.43865" lon="-2.13125">
        <ele>113.94</ele>
        <time>2025-06-04T07:28:05.271Z</time>
      </trkpt>
      <trkpt lat="48.43864" lon="-2.1313">
        <ele>113.8</ele>
        <time>2025-06-04T07:28:04.230Z</time>
      </trkpt>
      <trkpt lat="48.43863" lon="-2.13135">
        <ele>113.69</ele>
        <time>2025-06-04T07:28:03.776Z</time>
      </trkpt>
      <trkpt lat="48.43862" lon="-2.1314">
        <ele>113.59</ele>
        <time>2025-06-04T07:28:02.256Z</time>
      </trkpt>
      <trkpt lat="48.43861" lon="-2.13144">
        <ele>113.47</ele>
        <time>2025-06-04T07:28:01.267Z</time>
      </trkpt>
      <trkpt lat="48.4386" lon="-2.13149">
        <ele>113.240005</ele>
        <time>2025-06-04T07:27:59.765Z</time>
      </trkpt>
      <trkpt lat="48.43857" lon="-2.13158">
        <ele>113.119995</ele>
        <time>2025-06-04T07:27:58.271Z</time>
      </trkpt>
      <trkpt lat="48.43856" lon="-2.13162">
        <ele>112.99</ele>
        <time>2025-06-04T07:27:57.264Z</time>
      </trkpt>
      <trkpt lat="48.43855" lon="-2.13167">
        <ele>112.86</ele>
        <time>2025-06-04T07:27:56.238Z</time>
      </trkpt>
      <trkpt lat="48.43853" lon="-2.13171">
        <ele>112.72</ele>
        <time>2025-06-04T07:27:55.256Z</time>
      </trkpt>
      <trkpt lat="48.43852" lon="-2.13176">
        <ele>112.57</ele>
        <time>2025-06-04T07:27:55.132Z</time>
      </trkpt>
      <trkpt lat="48.4385" lon="-2.13181">
        <ele>112.41</ele>
        <time>2025-06-04T07:27:53.266Z</time>
      </trkpt>
      <trkpt lat="48.43849" lon="-2.13186">
        <ele>112.24</ele>
        <time>2025-06-04T07:27:52.785Z</time>
      </trkpt>
      <trkpt lat="48.43847" lon="-2.1319">
        <ele>112.06</ele>
        <time>2025-06-04T07:27:51.263Z</time>
      </trkpt>
      <trkpt lat="48.43846" lon="-2.13195">
        <ele>111.88</ele>
        <time>2025-06-04T07:27:51.041Z</time>
      </trkpt>
      <trkpt lat="48.43845" lon="-2.13199">
        <ele>111.69</ele>
        <time>2025-06-04T07:27:49.261Z</time>
      </trkpt>
      <trkpt lat="48.43843" lon="-2.13204">
        <ele>111.53</ele>
        <time>2025-06-04T07:27:48.257Z</time>
      </trkpt>
      <trkpt lat="48.43842" lon="-2.13209">
        <ele>111.37</ele>
        <time>2025-06-04T07:27:47.224Z</time>
      </trkpt>
      <trkpt lat="48.4384" lon="-2.13213">
        <ele>111.19</ele>
        <time>2025-06-04T07:27:46.263Z</time>
      </trkpt>
      <trkpt lat="48.43839" lon="-2.13217">
        <ele>111</ele>
        <time>2025-06-04T07:27:45.172Z</time>
      </trkpt>
      <trkpt lat="48.43837" lon="-2.13223">
        <ele>110.82</ele>
        <time>2025-06-04T07:27:44.181Z</time>
      </trkpt>
      <trkpt lat="48.43836" lon="-2.13227">
        <ele>110.62</ele>
        <time>2025-06-04T07:27:43.765Z</time>
      </trkpt>
      <trkpt lat="48.43835" lon="-2.13232">
        <ele>110.44</ele>
        <time>2025-06-04T07:27:42.260Z</time>
      </trkpt>
      <trkpt lat="48.43834" lon="-2.13236">
        <ele>110.24</ele>
        <time>2025-06-04T07:27:41.970Z</time>
      </trkpt>
      <trkpt lat="48.43832" lon="-2.13241">
        <ele>110.05</ele>
        <time>2025-06-04T07:27:40.717Z</time>
      </trkpt>
      <trkpt lat="48.4383" lon="-2.13245">
        <ele>109.84</ele>
        <time>2025-06-04T07:27:39.257Z</time>
      </trkpt>
      <trkpt lat="48.43829" lon="-2.1325">
        <ele>109.63</ele>
        <time>2025-06-04T07:27:38.265Z</time>
      </trkpt>
      <trkpt lat="48.43828" lon="-2.13255">
        <ele>109.43</ele>
        <time>2025-06-04T07:27:38.010Z</time>
      </trkpt>
      <trkpt lat="48.43826" lon="-2.1326">
        <ele>109.21</ele>
        <time>2025-06-04T07:27:37.101Z</time>
      </trkpt>
      <trkpt lat="48.43825" lon="-2.13264">
        <ele>109.020004</ele>
        <time>2025-06-04T07:27:35.609Z</time>
      </trkpt>
      <trkpt lat="48.43824" lon="-2.13268">
        <ele>108.83</ele>
        <time>2025-06-04T07:27:34.270Z</time>
      </trkpt>
      <trkpt lat="48.43822" lon="-2.13274">
        <ele>108.65</ele>
        <time>2025-06-04T07:27:34.052Z</time>
      </trkpt>
      <trkpt lat="48.43821" lon="-2.13278">
        <ele>108.45</ele>
        <time>2025-06-04T07:27:32.155Z</time>
      </trkpt>
      <trkpt lat="48.4382" lon="-2.13283">
        <ele>108.26</ele>
        <time>2025-06-04T07:27:31.265Z</time>
      </trkpt>
      <trkpt lat="48.43819" lon="-2.13288">
        <ele>108.07</ele>
        <time>2025-06-04T07:27:31.039Z</time>
      </trkpt>
      <trkpt lat="48.43817" lon="-2.13292">
        <ele>107.9</ele>
        <time>2025-06-04T07:27:29.266Z</time>
      </trkpt>
      <trkpt lat="48.43816" lon="-2.13297">
        <ele>107.729996</ele>
        <time>2025-06-04T07:27:29.125Z</time>
      </trkpt>
      <trkpt lat="48.43814" lon="-2.13302">
        <ele>107.58</ele>
        <time>2025-06-04T07:27:28.040Z</time>
      </trkpt>
      <trkpt lat="48.43813" lon="-2.13306">
        <ele>107.45</ele>
        <time>2025-06-04T07:27:26.260Z</time>
      </trkpt>
      <trkpt lat="48.43811" lon="-2.1331">
        <ele>107.34</ele>
        <time>2025-06-04T07:27:25.184Z</time>
      </trkpt>
      <trkpt lat="48.4381" lon="-2.13315">
        <ele>107.229996</ele>
        <time>2025-06-04T07:27:24.291Z</time>
      </trkpt>
      <trkpt lat="48.43809" lon="-2.1332">
        <ele>107.15</ele>
        <time>2025-06-04T07:27:23.239Z</time>
      </trkpt>
      <trkpt lat="48.43808" lon="-2.13324">
        <ele>107.08</ele>
        <time>2025-06-04T07:27:23.080Z</time>
      </trkpt>
      <trkpt lat="48.43806" lon="-2.13329">
        <ele>107.01</ele>
        <time>2025-06-04T07:27:22.063Z</time>
      </trkpt>
      <trkpt lat="48.43805" lon="-2.13333">
        <ele>106.95</ele>
        <time>2025-06-04T07:27:20.810Z</time>
      </trkpt>
      <trkpt lat="48.43804" lon="-2.13337">
        <ele>106.88</ele>
        <time>2025-06-04T07:27:19.234Z</time>
      </trkpt>
      <trkpt lat="48.43803" lon="-2.13342">
        <ele>106.86</ele>
        <time>2025-06-04T07:27:19.022Z</time>
      </trkpt>
      <trkpt lat="48.43801" lon="-2.13347">
        <ele>106.83</ele>
        <time>2025-06-04T07:27:17.136Z</time>
      </trkpt>
      <trkpt lat="48.438" lon="-2.13352">
        <ele>106.8</ele>
        <time>2025-06-04T07:27:16.788Z</time>
      </trkpt>
      <trkpt lat="48.43799" lon="-2.13357">
        <ele>106.76</ele>
        <time>2025-06-04T07:27:15.181Z</time>
      </trkpt>
      <trkpt lat="48.43798" lon="-2.13361">
        <ele>106.74</ele>
        <time>2025-06-04T07:27:14.262Z</time>
      </trkpt>
      <trkpt lat="48.43797" lon="-2.13366">
        <ele>106.7</ele>
        <time>2025-06-04T07:27:13.146Z</time>
      </trkpt>
      <trkpt lat="48.43795" lon="-2.13371">
        <ele>106.66</ele>
        <time>2025-06-04T07:27:12.266Z</time>
      </trkpt>
      <trkpt lat="48.43793" lon="-2.13376">
        <ele>106.6</ele>
        <time>2025-06-04T07:27:12.082Z</time>
      </trkpt>
      <trkpt lat="48.43792" lon="-2.13381">
        <ele>106.55</ele>
        <time>2025-06-04T07:27:10.778Z</time>
      </trkpt>
      <trkpt lat="48.4379" lon="-2.13386">
        <ele>106.479996</ele>
        <time>2025-06-04T07:27:09.981Z</time>
      </trkpt>
      <trkpt lat="48.43789" lon="-2.13391">
        <ele>106.37</ele>
        <time>2025-06-04T07:27:08.832Z</time>
      </trkpt>
      <trkpt lat="48.43787" lon="-2.13397">
        <ele>106.26</ele>
        <time>2025-06-04T07:27:08.083Z</time>
      </trkpt>
      <trkpt lat="48.43786" lon="-2.13402">
        <ele>106.12</ele>
        <time>2025-06-04T07:27:06.735Z</time>
      </trkpt>
      <trkpt lat="48.43785" lon="-2.1341">
        <ele>105.979996</ele>
        <time>2025-06-04T07:27:05.131Z</time>
      </trkpt>
      <trkpt lat="48.43784" lon="-2.13415">
        <ele>105.81</ele>
        <time>2025-06-04T07:27:04.733Z</time>
      </trkpt>
      <trkpt lat="48.43782" lon="-2.13421">
        <ele>105.64</ele>
        <time>2025-06-04T07:27:04.022Z</time>
      </trkpt>
      <trkpt lat="48.4378" lon="-2.13428">
        <ele>105.43</ele>
        <time>2025-06-04T07:27:03.105Z</time>
      </trkpt>
      <trkpt lat="48.43777" lon="-2.13436">
        <ele>105.22</ele>
        <time>2025-06-04T07:27:01.265Z</time>
      </trkpt>
      <trkpt lat="48.43775" lon="-2.13439">
        <ele>105</ele>
        <time>2025-06-04T07:27:00.830Z</time>
      </trkpt>
      <trkpt lat="48.43774" lon="-2.13443">
        <ele>104.79</ele>
        <time>2025-06-04T07:26:59.809Z</time>
      </trkpt>
      <trkpt lat="48.43772" lon="-2.13448">
        <ele>104.56</ele>
        <time>2025-06-04T07:26:59.098Z</time>
      </trkpt>
      <trkpt lat="48.4377" lon="-2.13455">
        <ele>104.32</ele>
        <time>2025-06-04T07:26:57.261Z</time>
      </trkpt>
      <trkpt lat="48.43769" lon="-2.1346">
        <ele>104.12</ele>
        <time>2025-06-04T07:26:56.719Z</time>
      </trkpt>
      <trkpt lat="48.43767" lon="-2.13466">
        <ele>103.93</ele>
        <time>2025-06-04T07:26:55.934Z</time>
      </trkpt>
      <trkpt lat="48.43766" lon="-2.13472">
        <ele>103.79</ele>
        <time>2025-06-04T07:26:54.278Z</time>
      </trkpt>
      <trkpt lat="48.43763" lon="-2.1348">
        <ele>103.64</ele>
        <time>2025-06-04T07:26:53.261Z</time>
      </trkpt>
      <trkpt lat="48.43762" lon="-2.13485">
        <ele>103.5</ele>
        <time>2025-06-04T07:26:52.716Z</time>
      </trkpt>
      <trkpt lat="48.4376" lon="-2.13491">
        <ele>103.36</ele>
        <time>2025-06-04T07:26:51.769Z</time>
      </trkpt>
      <trkpt lat="48.43758" lon="-2.13497">
        <ele>103.229996</ele>
        <time>2025-06-04T07:26:51.077Z</time>
      </trkpt>
      <trkpt lat="48.43756" lon="-2.13503">
        <ele>103.09</ele>
        <time>2025-06-04T07:26:49.767Z</time>
      </trkpt>
      <trkpt lat="48.43754" lon="-2.13509">
        <ele>102.95</ele>
        <time>2025-06-04T07:26:48.746Z</time>
      </trkpt>
      <trkpt lat="48.43752" lon="-2.13518">
        <ele>102.8</ele>
        <time>2025-06-04T07:26:47.246Z</time>
      </trkpt>
      <trkpt lat="48.43751" lon="-2.13522">
        <ele>102.66</ele>
        <time>2025-06-04T07:26:46.970Z</time>
      </trkpt>
      <trkpt lat="48.43749" lon="-2.13528">
        <ele>102.51</ele>
        <time>2025-06-04T07:26:45.807Z</time>
      </trkpt>
      <trkpt lat="48.43746" lon="-2.13536">
        <ele>102.35</ele>
        <time>2025-06-04T07:26:44.996Z</time>
      </trkpt>
      <trkpt lat="48.43744" lon="-2.13543">
        <ele>102.2</ele>
        <time>2025-06-04T07:26:44.047Z</time>
      </trkpt>
      <trkpt lat="48.43742" lon="-2.1355">
        <ele>102.03</ele>
        <time>2025-06-04T07:26:42.883Z</time>
      </trkpt>
      <trkpt lat="48.43739" lon="-2.13558">
        <ele>101.85</ele>
        <time>2025-06-04T07:26:41.195Z</time>
      </trkpt>
      <trkpt lat="48.43736" lon="-2.13569">
        <ele>101.51</ele>
        <time>2025-06-04T07:26:41.071Z</time>
      </trkpt>
      <trkpt lat="48.43735" lon="-2.13573">
        <ele>101.34</ele>
        <time>2025-06-04T07:26:38.726Z</time>
      </trkpt>
      <trkpt lat="48.43734" lon="-2.13577">
        <ele>101.19</ele>
        <time>2025-06-04T07:26:38.050Z</time>
      </trkpt>
      <trkpt lat="48.43732" lon="-2.13585">
        <ele>101.08</ele>
        <time>2025-06-04T07:26:36.253Z</time>
      </trkpt>
      <trkpt lat="48.4373" lon="-2.1359">
        <ele>100.99</ele>
        <time>2025-06-04T07:26:35.779Z</time>
      </trkpt>
      <trkpt lat="48.43728" lon="-2.13596">
        <ele>100.89</ele>
        <time>2025-06-04T07:26:34.747Z</time>
      </trkpt>
      <trkpt lat="48.43726" lon="-2.13602">
        <ele>100.83</ele>
        <time>2025-06-04T07:26:33.817Z</time>
      </trkpt>
      <trkpt lat="48.43724" lon="-2.13607">
        <ele>100.770004</ele>
        <time>2025-06-04T07:26:32.216Z</time>
      </trkpt>
      <trkpt lat="48.43723" lon="-2.13614">
        <ele>100.72</ele>
        <time>2025-06-04T07:26:31.684Z</time>
      </trkpt>
      <trkpt lat="48.43721" lon="-2.13619">
        <ele>100.69</ele>
        <time>2025-06-04T07:26:31.074Z</time>
      </trkpt>
      <trkpt lat="48.43719" lon="-2.13626">
        <ele>100.68</ele>
        <time>2025-06-04T07:26:30.062Z</time>
      </trkpt>
      <trkpt lat="48.43718" lon="-2.13631">
        <ele>100.67</ele>
        <time>2025-06-04T07:26:28.768Z</time>
      </trkpt>
      <trkpt lat="48.43716" lon="-2.13637">
        <ele>100.69</ele>
        <time>2025-06-04T07:26:27.716Z</time>
      </trkpt>
      <trkpt lat="48.43714" lon="-2.13644">
        <ele>100.72</ele>
        <time>2025-06-04T07:26:27.043Z</time>
      </trkpt>
      <trkpt lat="48.43712" lon="-2.13651">
        <ele>100.78</ele>
        <time>2025-06-04T07:26:25.670Z</time>
      </trkpt>
      <trkpt lat="48.43711" lon="-2.13657">
        <ele>100.86</ele>
        <time>2025-06-04T07:26:25.034Z</time>
      </trkpt>
      <trkpt lat="48.43709" lon="-2.13664">
        <ele>100.94</ele>
        <time>2025-06-04T07:26:24.025Z</time>
      </trkpt>
      <trkpt lat="48.43707" lon="-2.1367">
        <ele>101.03</ele>
        <time>2025-06-04T07:26:22.757Z</time>
      </trkpt>
      <trkpt lat="48.43705" lon="-2.13677">
        <ele>101.13</ele>
        <time>2025-06-04T07:26:21.750Z</time>
      </trkpt>
      <trkpt lat="48.43704" lon="-2.13684">
        <ele>101.229996</ele>
        <time>2025-06-04T07:26:21.022Z</time>
      </trkpt>
      <trkpt lat="48.43702" lon="-2.13691">
        <ele>101.32</ele>
        <time>2025-06-04T07:26:20.017Z</time>
      </trkpt>
      <trkpt lat="48.43701" lon="-2.13698">
        <ele>101.4</ele>
        <time>2025-06-04T07:26:18.740Z</time>
      </trkpt>
      <trkpt lat="48.437" lon="-2.13705">
        <ele>101.49</ele>
        <time>2025-06-04T07:26:17.575Z</time>
      </trkpt>
      <trkpt lat="48.43698" lon="-2.13716">
        <ele>101.55</ele>
        <time>2025-06-04T07:26:16.970Z</time>
      </trkpt>
      <trkpt lat="48.43697" lon="-2.1372">
        <ele>101.61</ele>
        <time>2025-06-04T07:26:15.620Z</time>
      </trkpt>
      <trkpt lat="48.43696" lon="-2.13727">
        <ele>101.66</ele>
        <time>2025-06-04T07:26:14.929Z</time>
      </trkpt>
      <trkpt lat="48.43695" lon="-2.13734">
        <ele>101.7</ele>
        <time>2025-06-04T07:26:14.054Z</time>
      </trkpt>
      <trkpt lat="48.43693" lon="-2.13741">
        <ele>101.7</ele>
        <time>2025-06-04T07:26:12.694Z</time>
      </trkpt>
      <trkpt lat="48.43692" lon="-2.1375">
        <ele>101.7</ele>
        <time>2025-06-04T07:26:11.727Z</time>
      </trkpt>
      <trkpt lat="48.43691" lon="-2.13756">
        <ele>101.66</ele>
        <time>2025-06-04T07:26:11.025Z</time>
      </trkpt>
      <trkpt lat="48.4369" lon="-2.13764">
        <ele>101.61</ele>
        <time>2025-06-04T07:26:09.075Z</time>
      </trkpt>
      <trkpt lat="48.43689" lon="-2.13771">
        <ele>101.58</ele>
        <time>2025-06-04T07:26:08.754Z</time>
      </trkpt>
      <trkpt lat="48.43687" lon="-2.13783">
        <ele>101.53</ele>
        <time>2025-06-04T07:26:08.047Z</time>
      </trkpt>
      <trkpt lat="48.43687" lon="-2.13786">
        <ele>101.479996</ele>
        <time>2025-06-04T07:26:06.074Z</time>
      </trkpt>
      <trkpt lat="48.43686" lon="-2.13799">
        <ele>101.45</ele>
        <time>2025-06-04T07:26:05.948Z</time>
      </trkpt>
      <trkpt lat="48.43685" lon="-2.13801">
        <ele>101.44</ele>
        <time>2025-06-04T07:26:05.035Z</time>
      </trkpt>
      <trkpt lat="48.43684" lon="-2.13809">
        <ele>101.47</ele>
        <time>2025-06-04T07:26:04.061Z</time>
      </trkpt>
      <trkpt lat="48.43683" lon="-2.13817">
        <ele>101.5</ele>
        <time>2025-06-04T07:26:02.206Z</time>
      </trkpt>
      <trkpt lat="48.43682" lon="-2.13824">
        <ele>101.54</ele>
        <time>2025-06-04T07:26:01.781Z</time>
      </trkpt>
      <trkpt lat="48.43681" lon="-2.13836">
        <ele>101.58</ele>
        <time>2025-06-04T07:26:00.075Z</time>
      </trkpt>
      <trkpt lat="48.43681" lon="-2.13839">
        <ele>101.62</ele>
        <time>2025-06-04T07:25:59.075Z</time>
      </trkpt>
      <trkpt lat="48.43681" lon="-2.13846">
        <ele>101.67</ele>
        <time>2025-06-04T07:25:59.037Z</time>
      </trkpt>
      <trkpt lat="48.4368" lon="-2.13854">
        <ele>101.7</ele>
        <time>2025-06-04T07:25:57.064Z</time>
      </trkpt>
      <trkpt lat="48.43679" lon="-2.13862">
        <ele>101.74</ele>
        <time>2025-06-04T07:25:56.059Z</time>
      </trkpt>
      <trkpt lat="48.43679" lon="-2.1387">
        <ele>101.76</ele>
        <time>2025-06-04T07:25:55.713Z</time>
      </trkpt>
      <trkpt lat="48.43678" lon="-2.13878">
        <ele>101.76</ele>
        <time>2025-06-04T07:25:54.781Z</time>
      </trkpt>
      <trkpt lat="48.43678" lon="-2.13885">
        <ele>101.75</ele>
        <time>2025-06-04T07:25:53.789Z</time>
      </trkpt>
      <trkpt lat="48.43678" lon="-2.13893">
        <ele>101.729996</ele>
        <time>2025-06-04T07:25:52.758Z</time>
      </trkpt>
      <trkpt lat="48.43677" lon="-2.13905">
        <ele>101.68</ele>
        <time>2025-06-04T07:25:51.073Z</time>
      </trkpt>
      <trkpt lat="48.43677" lon="-2.13908">
        <ele>101.62</ele>
        <time>2025-06-04T07:25:50.736Z</time>
      </trkpt>
      <trkpt lat="48.43677" lon="-2.13916">
        <ele>101.55</ele>
        <time>2025-06-04T07:25:50.049Z</time>
      </trkpt>
      <trkpt lat="48.43677" lon="-2.13923">
        <ele>101.49</ele>
        <time>2025-06-04T07:25:49.022Z</time>
      </trkpt>
      <trkpt lat="48.43676" lon="-2.13931">
        <ele>101.44</ele>
        <time>2025-06-04T07:25:47.071Z</time>
      </trkpt>
      <trkpt lat="48.43676" lon="-2.13938">
        <ele>101.4</ele>
        <time>2025-06-04T07:25:46.194Z</time>
      </trkpt>
      <trkpt lat="48.43675" lon="-2.13945">
        <ele>101.38</ele>
        <time>2025-06-04T07:25:46.031Z</time>
      </trkpt>
      <trkpt lat="48.43675" lon="-2.13953">
        <ele>101.35</ele>
        <time>2025-06-04T07:25:45.007Z</time>
      </trkpt>
      <trkpt lat="48.43674" lon="-2.13961">
        <ele>101.31</ele>
        <time>2025-06-04T07:25:43.522Z</time>
      </trkpt>
      <trkpt lat="48.43673" lon="-2.13968">
        <ele>101.26</ele>
        <time>2025-06-04T07:25:42.144Z</time>
      </trkpt>
      <trkpt lat="48.43671" lon="-2.13977">
        <ele>101.2</ele>
        <time>2025-06-04T07:25:42.036Z</time>
      </trkpt>
      <trkpt lat="48.43671" lon="-2.13984">
        <ele>101.12</ele>
        <time>2025-06-04T07:25:40.241Z</time>
      </trkpt>
      <trkpt lat="48.43669" lon="-2.13991">
        <ele>100.99</ele>
        <time>2025-06-04T07:25:39.821Z</time>
      </trkpt>
      <trkpt lat="48.43668" lon="-2.13998">
        <ele>100.86</ele>
        <time>2025-06-04T07:25:39.025Z</time>
      </trkpt>
      <trkpt lat="48.43667" lon="-2.14006">
        <ele>100.69</ele>
        <time>2025-06-04T07:25:37.686Z</time>
      </trkpt>
      <trkpt lat="48.43665" lon="-2.14013">
        <ele>100.5</ele>
        <time>2025-06-04T07:25:36.058Z</time>
      </trkpt>
      <trkpt lat="48.43664" lon="-2.1402">
        <ele>100.32</ele>
        <time>2025-06-04T07:25:35.972Z</time>
      </trkpt>
      <trkpt lat="48.43662" lon="-2.14027">
        <ele>100.14</ele>
        <time>2025-06-04T07:25:34.765Z</time>
      </trkpt>
      <trkpt lat="48.4366" lon="-2.14034">
        <ele>99.96</ele>
        <time>2025-06-04T07:25:34.024Z</time>
      </trkpt>
      <trkpt lat="48.43658" lon="-2.14041">
        <ele>99.8</ele>
        <time>2025-06-04T07:25:32.967Z</time>
      </trkpt>
      <trkpt lat="48.43655" lon="-2.14048">
        <ele>99.63</ele>
        <time>2025-06-04T07:25:31.625Z</time>
      </trkpt>
      <trkpt lat="48.43653" lon="-2.14054">
        <ele>99.479996</ele>
        <time>2025-06-04T07:25:30.033Z</time>
      </trkpt>
      <trkpt lat="48.4365" lon="-2.14064">
        <ele>99.38</ele>
        <time>2025-06-04T07:25:30.011Z</time>
      </trkpt>
      <trkpt lat="48.43648" lon="-2.14068">
        <ele>99.270004</ele>
        <time>2025-06-04T07:25:28.040Z</time>
      </trkpt>
      <trkpt lat="48.43645" lon="-2.14077">
        <ele>99.21</ele>
        <time>2025-06-04T07:25:27.963Z</time>
      </trkpt>
      <trkpt lat="48.43645" lon="-2.14084">
        <ele>99.15</ele>
        <time>2025-06-04T07:25:26.521Z</time>
      </trkpt>
      <trkpt lat="48.43642" lon="-2.14087">
        <ele>99.09</ele>
        <time>2025-06-04T07:25:25.036Z</time>
      </trkpt>
      <trkpt lat="48.43639" lon="-2.1409">
        <ele>99.04</ele>
        <time>2025-06-04T07:25:24.031Z</time>
      </trkpt>
      <trkpt lat="48.43634" lon="-2.14095">
        <ele>99.01</ele>
        <time>2025-06-04T07:25:24.016Z</time>
      </trkpt>
      <trkpt lat="48.43626" lon="-2.14102">
        <ele>99</ele>
        <time>2025-06-04T07:25:22.065Z</time>
      </trkpt>
      <trkpt lat="48.43621" lon="-2.14104">
        <ele>98.99</ele>
        <time>2025-06-04T07:25:21.051Z</time>
      </trkpt>
      <trkpt lat="48.43624" lon="-2.14106">
        <ele>98.979996</ele>
        <time>2025-06-04T07:25:20.112Z</time>
      </trkpt>
      <trkpt lat="48.43626" lon="-2.14107">
        <ele>98.96</ele>
        <time>2025-06-04T07:25:19.168Z</time>
      </trkpt>
      <trkpt lat="48.43623" lon="-2.1411">
        <ele>98.92</ele>
        <time>2025-06-04T07:25:17.940Z</time>
      </trkpt>
      <trkpt lat="48.43624" lon="-2.1411">
        <ele>98.88</ele>
        <time>2025-06-04T07:25:15.993Z</time>
      </trkpt>
      <trkpt lat="48.43619" lon="-2.14122">
        <ele>98.58</ele>
        <time>2025-06-04T07:24:59.988Z</time>
      </trkpt>
      <trkpt lat="48.43611" lon="-2.14139">
        <ele>98.54</ele>
        <time>2025-06-04T07:24:58.875Z</time>
      </trkpt>
      <trkpt lat="48.4361" lon="-2.14139">
        <ele>98.53</ele>
        <time>2025-06-04T07:24:57.273Z</time>
      </trkpt>
      <trkpt lat="48.4361" lon="-2.14138">
        <ele>98.5</ele>
        <time>2025-06-04T07:24:56.258Z</time>
      </trkpt>
      <trkpt lat="48.43611" lon="-2.14136">
        <ele>98.46</ele>
        <time>2025-06-04T07:24:54.482Z</time>
      </trkpt>
      <trkpt lat="48.43609" lon="-2.1414">
        <ele>98.44</ele>
        <time>2025-06-04T07:24:53.462Z</time>
      </trkpt>
      <trkpt lat="48.43607" lon="-2.14144">
        <ele>98.43</ele>
        <time>2025-06-04T07:24:52.445Z</time>
      </trkpt>
      <trkpt lat="48.43604" lon="-2.14148">
        <ele>98.43</ele>
        <time>2025-06-04T07:24:51.479Z</time>
      </trkpt>
      <trkpt lat="48.43601" lon="-2.14153">
        <ele>98.42</ele>
        <time>2025-06-04T07:24:50.259Z</time>
      </trkpt>
      <trkpt lat="48.43598" lon="-2.14157">
        <ele>98.42</ele>
        <time>2025-06-04T07:24:49.873Z</time>
      </trkpt>
      <trkpt lat="48.43595" lon="-2.14162">
        <ele>98.44</ele>
        <time>2025-06-04T07:24:48.266Z</time>
      </trkpt>
      <trkpt lat="48.43592" lon="-2.14167">
        <ele>98.46</ele>
        <time>2025-06-04T07:24:47.245Z</time>
      </trkpt>
      <trkpt lat="48.43589" lon="-2.14172">
        <ele>98.49</ele>
        <time>2025-06-04T07:24:46.901Z</time>
      </trkpt>
      <trkpt lat="48.43586" lon="-2.14177">
        <ele>98.520004</ele>
        <time>2025-06-04T07:24:44.969Z</time>
      </trkpt>
      <trkpt lat="48.43583" lon="-2.14182">
        <ele>98.56</ele>
        <time>2025-06-04T07:24:44.120Z</time>
      </trkpt>
      <trkpt lat="48.4358" lon="-2.14188">
        <ele>98.59</ele>
        <time>2025-06-04T07:24:43.272Z</time>
      </trkpt>
      <trkpt lat="48.43577" lon="-2.14193">
        <ele>98.63</ele>
        <time>2025-06-04T07:24:42.880Z</time>
      </trkpt>
      <trkpt lat="48.43575" lon="-2.142">
        <ele>98.67</ele>
        <time>2025-06-04T07:24:40.969Z</time>
      </trkpt>
      <trkpt lat="48.43572" lon="-2.14205">
        <ele>98.71</ele>
        <time>2025-06-04T07:24:40.900Z</time>
      </trkpt>
      <trkpt lat="48.4357" lon="-2.14211">
        <ele>98.75</ele>
        <time>2025-06-04T07:24:39.883Z</time>
      </trkpt>
      <trkpt lat="48.43568" lon="-2.14215">
        <ele>98.78</ele>
        <time>2025-06-04T07:24:38.409Z</time>
      </trkpt>
      <trkpt lat="48.43566" lon="-2.14221">
        <ele>98.81</ele>
        <time>2025-06-04T07:24:37.527Z</time>
      </trkpt>
      <trkpt lat="48.43563" lon="-2.14226">
        <ele>98.84</ele>
        <time>2025-06-04T07:24:36.898Z</time>
      </trkpt>
      <trkpt lat="48.43561" lon="-2.14231">
        <ele>98.88</ele>
        <time>2025-06-04T07:24:35.878Z</time>
      </trkpt>
      <trkpt lat="48.43559" lon="-2.14237">
        <ele>98.91</ele>
        <time>2025-06-04T07:24:34.547Z</time>
      </trkpt>
      <trkpt lat="48.43557" lon="-2.14242">
        <ele>98.94</ele>
        <time>2025-06-04T07:24:33.528Z</time>
      </trkpt>
      <trkpt lat="48.43555" lon="-2.14247">
        <ele>98.979996</ele>
        <time>2025-06-04T07:24:32.515Z</time>
      </trkpt>
      <trkpt lat="48.43554" lon="-2.14253">
        <ele>99.020004</ele>
        <time>2025-06-04T07:24:31.936Z</time>
      </trkpt>
      <trkpt lat="48.43553" lon="-2.14259">
        <ele>99.06</ele>
        <time>2025-06-04T07:24:30.533Z</time>
      </trkpt>
      <trkpt lat="48.43552" lon="-2.14265">
        <ele>99.1</ele>
        <time>2025-06-04T07:24:29.921Z</time>
      </trkpt>
      <trkpt lat="48.43551" lon="-2.14271">
        <ele>99.15</ele>
        <time>2025-06-04T07:24:27.972Z</time>
      </trkpt>
      <trkpt lat="48.4355" lon="-2.14277">
        <ele>99.17</ele>
        <time>2025-06-04T07:24:27.482Z</time>
      </trkpt>
      <trkpt lat="48.43548" lon="-2.14283">
        <ele>99.2</ele>
        <time>2025-06-04T07:24:26.891Z</time>
      </trkpt>
      <trkpt lat="48.43547" lon="-2.14289">
        <ele>99.229996</ele>
        <time>2025-06-04T07:24:24.973Z</time>
      </trkpt>
      <trkpt lat="48.43545" lon="-2.14296">
        <ele>99.25</ele>
        <time>2025-06-04T07:24:23.967Z</time>
      </trkpt>
      <trkpt lat="48.43543" lon="-2.14302">
        <ele>99.26</ele>
        <time>2025-06-04T07:24:23.253Z</time>
      </trkpt>
      <trkpt lat="48.43541" lon="-2.14309">
        <ele>99.24</ele>
        <time>2025-06-04T07:24:22.916Z</time>
      </trkpt>
      <trkpt lat="48.43539" lon="-2.14315">
        <ele>99.22</ele>
        <time>2025-06-04T07:24:21.941Z</time>
      </trkpt>
      <trkpt lat="48.43538" lon="-2.14322">
        <ele>99.19</ele>
        <time>2025-06-04T07:24:20.936Z</time>
      </trkpt>
      <trkpt lat="48.43536" lon="-2.14328">
        <ele>99.15</ele>
        <time>2025-06-04T07:24:19.803Z</time>
      </trkpt>
      <trkpt lat="48.43535" lon="-2.14334">
        <ele>99.12</ele>
        <time>2025-06-04T07:24:18.911Z</time>
      </trkpt>
      <trkpt lat="48.43533" lon="-2.1434">
        <ele>99.08</ele>
        <time>2025-06-04T07:24:16.953Z</time>
      </trkpt>
      <trkpt lat="48.43533" lon="-2.14345">
        <ele>99.04</ele>
        <time>2025-06-04T07:24:16.877Z</time>
      </trkpt>
      <trkpt lat="48.43533" lon="-2.14349">
        <ele>98.99</ele>
        <time>2025-06-04T07:24:15.260Z</time>
      </trkpt>
      <trkpt lat="48.43533" lon="-2.14354">
        <ele>98.93</ele>
        <time>2025-06-04T07:24:14.880Z</time>
      </trkpt>
      <trkpt lat="48.43533" lon="-2.14358">
        <ele>98.88</ele>
        <time>2025-06-04T07:24:12.958Z</time>
      </trkpt>
      <trkpt lat="48.43533" lon="-2.14362">
        <ele>98.82</ele>
        <time>2025-06-04T07:24:12.499Z</time>
      </trkpt>
      <trkpt lat="48.43533" lon="-2.14364">
        <ele>98.770004</ele>
        <time>2025-06-04T07:24:10.957Z</time>
      </trkpt>
      <trkpt lat="48.43532" lon="-2.14366">
        <ele>98.72</ele>
        <time>2025-06-04T07:24:09.943Z</time>
      </trkpt>
      <trkpt lat="48.43533" lon="-2.14371">
        <ele>97.97</ele>
        <time>2025-06-04T07:23:59.276Z</time>
      </trkpt>
      <trkpt lat="48.43533" lon="-2.14376">
        <ele>97.88</ele>
        <time>2025-06-04T07:23:58.262Z</time>
      </trkpt>
      <trkpt lat="48.43533" lon="-2.1438">
        <ele>97.8</ele>
        <time>2025-06-04T07:23:57.266Z</time>
      </trkpt>
      <trkpt lat="48.43534" lon="-2.14385">
        <ele>97.71</ele>
        <time>2025-06-04T07:23:56.273Z</time>
      </trkpt>
      <trkpt lat="48.43534" lon="-2.14388">
        <ele>97.64</ele>
        <time>2025-06-04T07:23:55.278Z</time>
      </trkpt>
      <trkpt lat="48.43535" lon="-2.14392">
        <ele>97.57</ele>
        <time>2025-06-04T07:23:54.257Z</time>
      </trkpt>
      <trkpt lat="48.43537" lon="-2.14397">
        <ele>97.51</ele>
        <time>2025-06-04T07:23:53.800Z</time>
      </trkpt>
      <trkpt lat="48.4354" lon="-2.14401">
        <ele>97.49</ele>
        <time>2025-06-04T07:23:53.046Z</time>
      </trkpt>
      <trkpt lat="48.43544" lon="-2.14404">
        <ele>97.46</ele>
        <time>2025-06-04T07:23:51.266Z</time>
      </trkpt>
      <trkpt lat="48.43547" lon="-2.14406">
        <ele>97.42</ele>
        <time>2025-06-04T07:23:50.266Z</time>
      </trkpt>
      <trkpt lat="48.43551" lon="-2.14408">
        <ele>97.4</ele>
        <time>2025-06-04T07:23:49.256Z</time>
      </trkpt>
      <trkpt lat="48.43555" lon="-2.1441">
        <ele>97.39</ele>
        <time>2025-06-04T07:23:48.262Z</time>
      </trkpt>
      <trkpt lat="48.43559" lon="-2.14413">
        <ele>97.38</ele>
        <time>2025-06-04T07:23:47.269Z</time>
      </trkpt>
      <trkpt lat="48.43563" lon="-2.14415">
        <ele>97.36</ele>
        <time>2025-06-04T07:23:46.179Z</time>
      </trkpt>
      <trkpt lat="48.43568" lon="-2.14417">
        <ele>97.36</ele>
        <time>2025-06-04T07:23:46.161Z</time>
      </trkpt>
      <trkpt lat="48.43572" lon="-2.14419">
        <ele>97.36</ele>
        <time>2025-06-04T07:23:44.840Z</time>
      </trkpt>
      <trkpt lat="48.43577" lon="-2.14422">
        <ele>97.36</ele>
        <time>2025-06-04T07:23:43.248Z</time>
      </trkpt>
      <trkpt lat="48.43581" lon="-2.14424">
        <ele>97.35</ele>
        <time>2025-06-04T07:23:43.097Z</time>
      </trkpt>
      <trkpt lat="48.43586" lon="-2.14427">
        <ele>97.33</ele>
        <time>2025-06-04T07:23:41.709Z</time>
      </trkpt>
      <trkpt lat="48.4359" lon="-2.14429">
        <ele>97.32</ele>
        <time>2025-06-04T07:23:40.251Z</time>
      </trkpt>
      <trkpt lat="48.43595" lon="-2.14432">
        <ele>97.28</ele>
        <time>2025-06-04T07:23:39.251Z</time>
      </trkpt>
      <trkpt lat="48.436" lon="-2.14435">
        <ele>97.22</ele>
        <time>2025-06-04T07:23:38.255Z</time>
      </trkpt>
      <trkpt lat="48.43605" lon="-2.14437">
        <ele>97.16</ele>
        <time>2025-06-04T07:23:37.263Z</time>
      </trkpt>
      <trkpt lat="48.4361" lon="-2.1444">
        <ele>97.08</ele>
        <time>2025-06-04T07:23:37.083Z</time>
      </trkpt>
      <trkpt lat="48.43615" lon="-2.14443">
        <ele>96.979996</ele>
        <time>2025-06-04T07:23:35.251Z</time>
      </trkpt>
      <trkpt lat="48.43619" lon="-2.14446">
        <ele>96.88</ele>
        <time>2025-06-04T07:23:34.262Z</time>
      </trkpt>
      <trkpt lat="48.43624" lon="-2.14449">
        <ele>96.770004</ele>
        <time>2025-06-04T07:23:33.245Z</time>
      </trkpt>
      <trkpt lat="48.43628" lon="-2.14451">
        <ele>96.66</ele>
        <time>2025-06-04T07:23:33.114Z</time>
      </trkpt>
      <trkpt lat="48.43633" lon="-2.14454">
        <ele>96.56</ele>
        <time>2025-06-04T07:23:31.166Z</time>
      </trkpt>
      <trkpt lat="48.43638" lon="-2.14457">
        <ele>96.49</ele>
        <time>2025-06-04T07:23:30.262Z</time>
      </trkpt>
      <trkpt lat="48.43642" lon="-2.1446">
        <ele>96.43</ele>
        <time>2025-06-04T07:23:29.260Z</time>
      </trkpt>
      <trkpt lat="48.43647" lon="-2.14464">
        <ele>96.38</ele>
        <time>2025-06-04T07:23:28.268Z</time>
      </trkpt>
      <trkpt lat="48.43651" lon="-2.14467">
        <ele>96.35</ele>
        <time>2025-06-04T07:23:27.240Z</time>
      </trkpt>
      <trkpt lat="48.43656" lon="-2.1447">
        <ele>96.33</ele>
        <time>2025-06-04T07:23:26.985Z</time>
      </trkpt>
      <trkpt lat="48.4366" lon="-2.14473">
        <ele>96.31</ele>
        <time>2025-06-04T07:23:25.161Z</time>
      </trkpt>
      <trkpt lat="48.43665" lon="-2.14477">
        <ele>96.33</ele>
        <time>2025-06-04T07:23:24.274Z</time>
      </trkpt>
      <trkpt lat="48.43669" lon="-2.1448">
        <ele>96.34</ele>
        <time>2025-06-04T07:23:24.062Z</time>
      </trkpt>
      <trkpt lat="48.43673" lon="-2.14483">
        <ele>96.39</ele>
        <time>2025-06-04T07:23:22.632Z</time>
      </trkpt>
      <trkpt lat="48.43677" lon="-2.14486">
        <ele>96.44</ele>
        <time>2025-06-04T07:23:21.265Z</time>
      </trkpt>
      <trkpt lat="48.43682" lon="-2.1449">
        <ele>96.54</ele>
        <time>2025-06-04T07:23:20.105Z</time>
      </trkpt>
      <trkpt lat="48.43689" lon="-2.14496">
        <ele>96.6</ele>
        <time>2025-06-04T07:23:18.251Z</time>
      </trkpt>
      <trkpt lat="48.43695" lon="-2.145">
        <ele>96.65</ele>
        <time>2025-06-04T07:23:17.161Z</time>
      </trkpt>
      <trkpt lat="48.437" lon="-2.14503">
        <ele>96.71</ele>
        <time>2025-06-04T07:23:16.269Z</time>
      </trkpt>
      <trkpt lat="48.43707" lon="-2.14505">
        <ele>96.75</ele>
        <time>2025-06-04T07:23:15.254Z</time>
      </trkpt>
      <trkpt lat="48.43714" lon="-2.14506">
        <ele>96.79</ele>
        <time>2025-06-04T07:23:14.266Z</time>
      </trkpt>
      <trkpt lat="48.43727" lon="-2.14508">
        <ele>96.8</ele>
        <time>2025-06-04T07:23:14.008Z</time>
      </trkpt>
      <trkpt lat="48.43728" lon="-2.14506">
        <ele>96.81</ele>
        <time>2025-06-04T07:23:13.120Z</time>
      </trkpt>
      <trkpt lat="48.43731" lon="-2.1451">
        <ele>96.82</ele>
        <time>2025-06-04T07:23:11.792Z</time>
      </trkpt>
      <trkpt lat="48.43733" lon="-2.14515">
        <ele>96.81</ele>
        <time>2025-06-04T07:23:10.700Z</time>
      </trkpt>
      <trkpt lat="48.43736" lon="-2.1452">
        <ele>96.81</ele>
        <time>2025-06-04T07:23:09.264Z</time>
      </trkpt>
      <trkpt lat="48.43739" lon="-2.14525">
        <ele>96.8</ele>
        <time>2025-06-04T07:23:08.814Z</time>
      </trkpt>
      <trkpt lat="48.4374" lon="-2.14528">
        <ele>96.79</ele>
        <time>2025-06-04T07:23:08.081Z</time>
      </trkpt>
      <trkpt lat="48.43742" lon="-2.14532">
        <ele>96.770004</ele>
        <time>2025-06-04T07:23:06.271Z</time>
      </trkpt>
      <trkpt lat="48.43744" lon="-2.14535">
        <ele>96.76</ele>
        <time>2025-06-04T07:23:05.739Z</time>
      </trkpt>
      <trkpt lat="48.43745" lon="-2.14537">
        <ele>96.75</ele>
        <time>2025-06-04T07:23:05.026Z</time>
      </trkpt>
      <trkpt lat="48.43746" lon="-2.14539">
        <ele>96.74</ele>
        <time>2025-06-04T07:23:04.084Z</time>
      </trkpt>
      <trkpt lat="48.43746" lon="-2.1454">
        <ele>96.72</ele>
        <time>2025-06-04T07:23:02.274Z</time>
      </trkpt>
      <trkpt lat="48.43747" lon="-2.1454">
        <ele>96.69</ele>
        <time>2025-06-04T07:23:01.118Z</time>
      </trkpt>
      <trkpt lat="48.43748" lon="-2.14542">
        <ele>96.39</ele>
        <time>2025-06-04T07:22:46.030Z</time>
      </trkpt>
      <trkpt lat="48.43753" lon="-2.14545">
        <ele>96.35</ele>
        <time>2025-06-04T07:22:45.023Z</time>
      </trkpt>
      <trkpt lat="48.43755" lon="-2.14547">
        <ele>96.31</ele>
        <time>2025-06-04T07:22:44.009Z</time>
      </trkpt>
      <trkpt lat="48.43756" lon="-2.14548">
        <ele>96.26</ele>
        <time>2025-06-04T07:22:42.883Z</time>
      </trkpt>
      <trkpt lat="48.4376" lon="-2.1455">
        <ele>96.21</ele>
        <time>2025-06-04T07:22:41.918Z</time>
      </trkpt>
      <trkpt lat="48.43763" lon="-2.14553">
        <ele>96.16</ele>
        <time>2025-06-04T07:22:40.850Z</time>
      </trkpt>
      <trkpt lat="48.43767" lon="-2.14555">
        <ele>96.1</ele>
        <time>2025-06-04T07:22:39.839Z</time>
      </trkpt>
      <trkpt lat="48.43771" lon="-2.14557">
        <ele>96.03</ele>
        <time>2025-06-04T07:22:38.963Z</time>
      </trkpt>
      <trkpt lat="48.43776" lon="-2.14559">
        <ele>95.96</ele>
        <time>2025-06-04T07:22:38.265Z</time>
      </trkpt>
      <trkpt lat="48.4378" lon="-2.14561">
        <ele>95.88</ele>
        <time>2025-06-04T07:22:36.846Z</time>
      </trkpt>
      <trkpt lat="48.43784" lon="-2.14562">
        <ele>95.8</ele>
        <time>2025-06-04T07:22:35.894Z</time>
      </trkpt>
      <trkpt lat="48.43789" lon="-2.14563">
        <ele>95.729996</ele>
        <time>2025-06-04T07:22:34.920Z</time>
      </trkpt>
      <trkpt lat="48.43793" lon="-2.14563">
        <ele>95.65</ele>
        <time>2025-06-04T07:22:34.117Z</time>
      </trkpt>
      <trkpt lat="48.43798" lon="-2.14563">
        <ele>95.59</ele>
        <time>2025-06-04T07:22:32.970Z</time>
      </trkpt>
      <trkpt lat="48.43802" lon="-2.14562">
        <ele>95.53</ele>
        <time>2025-06-04T07:22:31.853Z</time>
      </trkpt>
      <trkpt lat="48.43807" lon="-2.14561">
        <ele>95.479996</ele>
        <time>2025-06-04T07:22:30.965Z</time>
      </trkpt>
      <trkpt lat="48.43812" lon="-2.1456">
        <ele>95.44</ele>
        <time>2025-06-04T07:22:29.868Z</time>
      </trkpt>
      <trkpt lat="48.43817" lon="-2.1456">
        <ele>95.41</ele>
        <time>2025-06-04T07:22:28.876Z</time>
      </trkpt>
      <trkpt lat="48.43822" lon="-2.14559">
        <ele>95.38</ele>
        <time>2025-06-04T07:22:27.844Z</time>
      </trkpt>
      <trkpt lat="48.43827" lon="-2.1456">
        <ele>95.36</ele>
        <time>2025-06-04T07:22:26.961Z</time>
      </trkpt>
      <trkpt lat="48.43832" lon="-2.1456">
        <ele>95.34</ele>
        <time>2025-06-04T07:22:26.220Z</time>
      </trkpt>
      <trkpt lat="48.43837" lon="-2.14559">
        <ele>95.35</ele>
        <time>2025-06-04T07:22:24.905Z</time>
      </trkpt>
      <trkpt lat="48.43841" lon="-2.14558">
        <ele>95.36</ele>
        <time>2025-06-04T07:22:23.909Z</time>
      </trkpt>
      <trkpt lat="48.43845" lon="-2.14555">
        <ele>95.37</ele>
        <time>2025-06-04T07:22:22.798Z</time>
      </trkpt>
      <trkpt lat="48.43848" lon="-2.14551">
        <ele>95.4</ele>
        <time>2025-06-04T07:22:21.863Z</time>
      </trkpt>
      <trkpt lat="48.43851" lon="-2.14546">
        <ele>95.45</ele>
        <time>2025-06-04T07:22:20.892Z</time>
      </trkpt>
      <trkpt lat="48.43852" lon="-2.14539">
        <ele>95.5</ele>
        <time>2025-06-04T07:22:19.880Z</time>
      </trkpt>
      <trkpt lat="48.43853" lon="-2.14532">
        <ele>95.54</ele>
        <time>2025-06-04T07:22:18.877Z</time>
      </trkpt>
      <trkpt lat="48.43851" lon="-2.14524">
        <ele>95.58</ele>
        <time>2025-06-04T07:22:17.940Z</time>
      </trkpt>
      <trkpt lat="48.43849" lon="-2.14518">
        <ele>95.6</ele>
        <time>2025-06-04T07:22:16.814Z</time>
      </trkpt>
      <trkpt lat="48.43846" lon="-2.14512">
        <ele>95.63</ele>
        <time>2025-06-04T07:22:15.918Z</time>
      </trkpt>
      <trkpt lat="48.43842" lon="-2.14507">
        <ele>95.65</ele>
        <time>2025-06-04T07:22:14.951Z</time>
      </trkpt>
      <trkpt lat="48.43839" lon="-2.14502">
        <ele>95.65</ele>
        <time>2025-06-04T07:22:13.895Z</time>
      </trkpt>
      <trkpt lat="48.43836" lon="-2.14498">
        <ele>95.65</ele>
        <time>2025-06-04T07:22:12.882Z</time>
      </trkpt>
      <trkpt lat="48.43834" lon="-2.14493">
        <ele>95.6</ele>
        <time>2025-06-04T07:22:11.869Z</time>
      </trkpt>
      <trkpt lat="48.43832" lon="-2.14486">
        <ele>95.56</ele>
        <time>2025-06-04T07:22:10.864Z</time>
      </trkpt>
      <trkpt lat="48.43831" lon="-2.1448">
        <ele>95.49</ele>
        <time>2025-06-04T07:22:09.939Z</time>
      </trkpt>
      <trkpt lat="48.4383" lon="-2.14472">
        <ele>95.41</ele>
        <time>2025-06-04T07:22:09.124Z</time>
      </trkpt>
      <trkpt lat="48.4383" lon="-2.14466">
        <ele>95.33</ele>
        <time>2025-06-04T07:22:07.920Z</time>
      </trkpt>
      <trkpt lat="48.4383" lon="-2.14458">
        <ele>95.25</ele>
        <time>2025-06-04T07:22:06.928Z</time>
      </trkpt>
      <trkpt lat="48.4383" lon="-2.14451">
        <ele>95.16</ele>
        <time>2025-06-04T07:22:05.886Z</time>
      </trkpt>
      <trkpt lat="48.4383" lon="-2.14444">
        <ele>95.01</ele>
        <time>2025-06-04T07:22:05.262Z</time>
      </trkpt>
      <trkpt lat="48.43832" lon="-2.14427">
        <ele>94.94</ele>
        <time>2025-06-04T07:22:02.868Z</time>
      </trkpt>
      <trkpt lat="48.43834" lon="-2.14416">
        <ele>94.92</ele>
        <time>2025-06-04T07:22:00.938Z</time>
      </trkpt>
      <trkpt lat="48.43834" lon="-2.14409">
        <ele>94.91</ele>
        <time>2025-06-04T07:22:00.030Z</time>
      </trkpt>
      <trkpt lat="48.43835" lon="-2.14403">
        <ele>94.89</ele>
        <time>2025-06-04T07:21:59.265Z</time>
      </trkpt>
      <trkpt lat="48.43837" lon="-2.14388">
        <ele>94.88</ele>
        <time>2025-06-04T07:21:56.887Z</time>
      </trkpt>
      <trkpt lat="48.43838" lon="-2.14381">
        <ele>94.88</ele>
        <time>2025-06-04T07:21:55.881Z</time>
      </trkpt>
      <trkpt lat="48.43839" lon="-2.14374">
        <ele>94.88</ele>
        <time>2025-06-04T07:21:55.244Z</time>
      </trkpt>
      <trkpt lat="48.4384" lon="-2.1436">
        <ele>94.89</ele>
        <time>2025-06-04T07:21:53.267Z</time>
      </trkpt>
      <trkpt lat="48.4384" lon="-2.14354">
        <ele>94.92</ele>
        <time>2025-06-04T07:21:52.278Z</time>
      </trkpt>
      <trkpt lat="48.43841" lon="-2.14347">
        <ele>94.95</ele>
        <time>2025-06-04T07:21:51.276Z</time>
      </trkpt>
      <trkpt lat="48.43842" lon="-2.1434">
        <ele>95</ele>
        <time>2025-06-04T07:21:50.272Z</time>
      </trkpt>
      <trkpt lat="48.43842" lon="-2.14333">
        <ele>95.07</ele>
        <time>2025-06-04T07:21:49.276Z</time>
      </trkpt>
      <trkpt lat="48.43842" lon="-2.14326">
        <ele>95.14</ele>
        <time>2025-06-04T07:21:48.288Z</time>
      </trkpt>
      <trkpt lat="48.43843" lon="-2.14319">
        <ele>95.24</ele>
        <time>2025-06-04T07:21:47.261Z</time>
      </trkpt>
      <trkpt lat="48.43843" lon="-2.14312">
        <ele>95.45</ele>
        <time>2025-06-04T07:21:45.723Z</time>
      </trkpt>
      <trkpt lat="48.43844" lon="-2.14298">
        <ele>95.57</ele>
        <time>2025-06-04T07:21:44.809Z</time>
      </trkpt>
      <trkpt lat="48.43845" lon="-2.14291">
        <ele>95.7</ele>
        <time>2025-06-04T07:21:43.279Z</time>
      </trkpt>
      <trkpt lat="48.43845" lon="-2.14281">
        <ele>95.99</ele>
        <time>2025-06-04T07:21:41.879Z</time>
      </trkpt>
      <trkpt lat="48.43846" lon="-2.14271">
        <ele>96.16</ele>
        <time>2025-06-04T07:21:40.265Z</time>
      </trkpt>
      <trkpt lat="48.43846" lon="-2.14264">
        <ele>96.33</ele>
        <time>2025-06-04T07:21:39.264Z</time>
      </trkpt>
      <trkpt lat="48.43847" lon="-2.14257">
        <ele>96.69</ele>
        <time>2025-06-04T07:21:38.242Z</time>
      </trkpt>
      <trkpt lat="48.43847" lon="-2.14244">
        <ele>96.87</ele>
        <time>2025-06-04T07:21:36.274Z</time>
      </trkpt>
      <trkpt lat="48.43848" lon="-2.14237">
        <ele>97.04</ele>
        <time>2025-06-04T07:21:35.274Z</time>
      </trkpt>
      <trkpt lat="48.43848" lon="-2.1423">
        <ele>97.2</ele>
        <time>2025-06-04T07:21:34.252Z</time>
      </trkpt>
      <trkpt lat="48.43848" lon="-2.14222">
        <ele>97.35</ele>
        <time>2025-06-04T07:21:33.960Z</time>
      </trkpt>
      <trkpt lat="48.43849" lon="-2.14216">
        <ele>97.49</ele>
        <time>2025-06-04T07:21:32.836Z</time>
      </trkpt>
      <trkpt lat="48.43849" lon="-2.14209">
        <ele>97.64</ele>
        <time>2025-06-04T07:21:31.265Z</time>
      </trkpt>
      <trkpt lat="48.4385" lon="-2.14202">
        <ele>97.78</ele>
        <time>2025-06-04T07:21:30.251Z</time>
      </trkpt>
      <trkpt lat="48.4385" lon="-2.14195">
        <ele>97.91</ele>
        <time>2025-06-04T07:21:29.267Z</time>
      </trkpt>
      <trkpt lat="48.4385" lon="-2.14188">
        <ele>98.04</ele>
        <time>2025-06-04T07:21:28.234Z</time>
      </trkpt>
      <trkpt lat="48.43851" lon="-2.14182">
        <ele>98.16</ele>
        <time>2025-06-04T07:21:28.175Z</time>
      </trkpt>
      <trkpt lat="48.43851" lon="-2.14174">
        <ele>98.26</ele>
        <time>2025-06-04T07:21:26.251Z</time>
      </trkpt>
      <trkpt lat="48.43851" lon="-2.14168">
        <ele>98.35</ele>
        <time>2025-06-04T07:21:25.257Z</time>
      </trkpt>
      <trkpt lat="48.43851" lon="-2.1416">
        <ele>98.43</ele>
        <time>2025-06-04T07:21:24.240Z</time>
      </trkpt>
      <trkpt lat="48.43852" lon="-2.14154">
        <ele>98.5</ele>
        <time>2025-06-04T07:21:23.248Z</time>
      </trkpt>
      <trkpt lat="48.43852" lon="-2.14147">
        <ele>98.54</ele>
        <time>2025-06-04T07:21:22.287Z</time>
      </trkpt>
      <trkpt lat="48.43853" lon="-2.1414">
        <ele>98.58</ele>
        <time>2025-06-04T07:21:21.271Z</time>
      </trkpt>
      <trkpt lat="48.43853" lon="-2.14132">
        <ele>98.6</ele>
        <time>2025-06-04T07:21:20.267Z</time>
      </trkpt>
      <trkpt lat="48.43853" lon="-2.14125">
        <ele>98.61</ele>
        <time>2025-06-04T07:21:19.266Z</time>
      </trkpt>
      <trkpt lat="48.43854" lon="-2.14118">
        <ele>98.62</ele>
        <time>2025-06-04T07:21:18.247Z</time>
      </trkpt>
      <trkpt lat="48.43854" lon="-2.14111">
        <ele>98.62</ele>
        <time>2025-06-04T07:21:18.174Z</time>
      </trkpt>
      <trkpt lat="48.43855" lon="-2.14104">
        <ele>98.62</ele>
        <time>2025-06-04T07:21:16.262Z</time>
      </trkpt>
      <trkpt lat="48.43855" lon="-2.14097">
        <ele>98.61</ele>
        <time>2025-06-04T07:21:15.261Z</time>
      </trkpt>
      <trkpt lat="48.43855" lon="-2.14089">
        <ele>98.61</ele>
        <time>2025-06-04T07:21:15.173Z</time>
      </trkpt>
      <trkpt lat="48.43856" lon="-2.14082">
        <ele>98.61</ele>
        <time>2025-06-04T07:21:13.243Z</time>
      </trkpt>
      <trkpt lat="48.43856" lon="-2.14075">
        <ele>98.61</ele>
        <time>2025-06-04T07:21:13.164Z</time>
      </trkpt>
      <trkpt lat="48.43856" lon="-2.14067">
        <ele>98.62</ele>
        <time>2025-06-04T07:21:11.245Z</time>
      </trkpt>
      <trkpt lat="48.43857" lon="-2.1406">
        <ele>98.63</ele>
        <time>2025-06-04T07:21:11.162Z</time>
      </trkpt>
      <trkpt lat="48.43857" lon="-2.14053">
        <ele>98.63</ele>
        <time>2025-06-04T07:21:09.235Z</time>
      </trkpt>
      <trkpt lat="48.43858" lon="-2.14046">
        <ele>98.64</ele>
        <time>2025-06-04T07:21:08.236Z</time>
      </trkpt>
      <trkpt lat="48.43858" lon="-2.14035">
        <ele>98.63</ele>
        <time>2025-06-04T07:21:08.147Z</time>
      </trkpt>
      <trkpt lat="48.43859" lon="-2.14032">
        <ele>98.63</ele>
        <time>2025-06-04T07:21:06.640Z</time>
      </trkpt>
      <trkpt lat="48.43859" lon="-2.14025">
        <ele>98.62</ele>
        <time>2025-06-04T07:21:06.059Z</time>
      </trkpt>
      <trkpt lat="48.4386" lon="-2.14017">
        <ele>98.61</ele>
        <time>2025-06-04T07:21:04.245Z</time>
      </trkpt>
      <trkpt lat="48.4386" lon="-2.1401">
        <ele>98.59</ele>
        <time>2025-06-04T07:21:04.159Z</time>
      </trkpt>
      <trkpt lat="48.4386" lon="-2.14004">
        <ele>98.58</ele>
        <time>2025-06-04T07:21:02.238Z</time>
      </trkpt>
      <trkpt lat="48.43861" lon="-2.13997">
        <ele>98.56</ele>
        <time>2025-06-04T07:21:01.239Z</time>
      </trkpt>
      <trkpt lat="48.43861" lon="-2.1399">
        <ele>98.54</ele>
        <time>2025-06-04T07:21:00.257Z</time>
      </trkpt>
      <trkpt lat="48.43862" lon="-2.13983">
        <ele>98.520004</ele>
        <time>2025-06-04T07:20:59.257Z</time>
      </trkpt>
      <trkpt lat="48.43863" lon="-2.13976">
        <ele>98.49</ele>
        <time>2025-06-04T07:20:58.254Z</time>
      </trkpt>
      <trkpt lat="48.43864" lon="-2.13969">
        <ele>98.46</ele>
        <time>2025-06-04T07:20:57.259Z</time>
      </trkpt>
      <trkpt lat="48.43864" lon="-2.13962">
        <ele>98.43</ele>
        <time>2025-06-04T07:20:56.986Z</time>
      </trkpt>
      <trkpt lat="48.43865" lon="-2.13956">
        <ele>98.4</ele>
        <time>2025-06-04T07:20:55.248Z</time>
      </trkpt>
      <trkpt lat="48.43866" lon="-2.13949">
        <ele>98.36</ele>
        <time>2025-06-04T07:20:54.249Z</time>
      </trkpt>
      <trkpt lat="48.43867" lon="-2.13943">
        <ele>98.33</ele>
        <time>2025-06-04T07:20:53.203Z</time>
      </trkpt>
      <trkpt lat="48.43868" lon="-2.13936">
        <ele>98.3</ele>
        <time>2025-06-04T07:20:52.242Z</time>
      </trkpt>
      <trkpt lat="48.4387" lon="-2.1393">
        <ele>98.26</ele>
        <time>2025-06-04T07:20:51.253Z</time>
      </trkpt>
      <trkpt lat="48.43871" lon="-2.13924">
        <ele>98.229996</ele>
        <time>2025-06-04T07:20:50.260Z</time>
      </trkpt>
      <trkpt lat="48.43872" lon="-2.13919">
        <ele>98.19</ele>
        <time>2025-06-04T07:20:49.710Z</time>
      </trkpt>
      <trkpt lat="48.43873" lon="-2.13913">
        <ele>98.15</ele>
        <time>2025-06-04T07:20:48.929Z</time>
      </trkpt>
      <trkpt lat="48.43874" lon="-2.13906">
        <ele>98.12</ele>
        <time>2025-06-04T07:20:47.311Z</time>
      </trkpt>
      <trkpt lat="48.43876" lon="-2.13901">
        <ele>98.1</ele>
        <time>2025-06-04T07:20:46.755Z</time>
      </trkpt>
      <trkpt lat="48.43876" lon="-2.13895">
        <ele>98.07</ele>
        <time>2025-06-04T07:20:45.204Z</time>
      </trkpt>
      <trkpt lat="48.43877" lon="-2.13889">
        <ele>98.05</ele>
        <time>2025-06-04T07:20:44.183Z</time>
      </trkpt>
      <trkpt lat="48.43877" lon="-2.13883">
        <ele>98.04</ele>
        <time>2025-06-04T07:20:43.194Z</time>
      </trkpt>
      <trkpt lat="48.43878" lon="-2.13878">
        <ele>98.03</ele>
        <time>2025-06-04T07:20:42.262Z</time>
      </trkpt>
      <trkpt lat="48.43878" lon="-2.13872">
        <ele>98.04</ele>
        <time>2025-06-04T07:20:41.266Z</time>
      </trkpt>
      <trkpt lat="48.43879" lon="-2.13867">
        <ele>98.07</ele>
        <time>2025-06-04T07:20:40.256Z</time>
      </trkpt>
      <trkpt lat="48.4388" lon="-2.13863">
        <ele>98.14</ele>
        <time>2025-06-04T07:20:39.126Z</time>
      </trkpt>
      <trkpt lat="48.43884" lon="-2.13859">
        <ele>98.19</ele>
        <time>2025-06-04T07:20:37.259Z</time>
      </trkpt>
      <trkpt lat="48.43886" lon="-2.13859">
        <ele>98.25</ele>
        <time>2025-06-04T07:20:37.006Z</time>
      </trkpt>
      <trkpt lat="48.4389" lon="-2.13859">
        <ele>98.31</ele>
        <time>2025-06-04T07:20:35.796Z</time>
      </trkpt>
      <trkpt lat="48.43893" lon="-2.1386">
        <ele>98.36</ele>
        <time>2025-06-04T07:20:34.951Z</time>
      </trkpt>
      <trkpt lat="48.43896" lon="-2.13863">
        <ele>98.41</ele>
        <time>2025-06-04T07:20:33.811Z</time>
      </trkpt>
      <trkpt lat="48.439" lon="-2.13865">
        <ele>98.45</ele>
        <time>2025-06-04T07:20:32.994Z</time>
      </trkpt>
      <trkpt lat="48.43903" lon="-2.13868">
        <ele>98.49</ele>
        <time>2025-06-04T07:20:31.271Z</time>
      </trkpt>
      <trkpt lat="48.43907" lon="-2.13871">
        <ele>98.53</ele>
        <time>2025-06-04T07:20:30.263Z</time>
      </trkpt>
      <trkpt lat="48.43911" lon="-2.13876">
        <ele>98.57</ele>
        <time>2025-06-04T07:20:28.939Z</time>
      </trkpt>
      <trkpt lat="48.43918" lon="-2.13883">
        <ele>98.59</ele>
        <time>2025-06-04T07:20:27.268Z</time>
      </trkpt>
      <trkpt lat="48.43923" lon="-2.13886">
        <ele>98.61</ele>
        <time>2025-06-04T07:20:26.281Z</time>
      </trkpt>
      <trkpt lat="48.43929" lon="-2.1389">
        <ele>98.63</ele>
        <time>2025-06-04T07:20:25.258Z</time>
      </trkpt>
      <trkpt lat="48.43935" lon="-2.13893">
        <ele>98.63</ele>
        <time>2025-06-04T07:20:24.249Z</time>
      </trkpt>
      <trkpt lat="48.43939" lon="-2.13895">
        <ele>98.62</ele>
        <time>2025-06-04T07:20:23.994Z</time>
      </trkpt>
      <trkpt lat="48.43942" lon="-2.13897">
        <ele>98.61</ele>
        <time>2025-06-04T07:20:22.271Z</time>
      </trkpt>
      <trkpt lat="48.43945" lon="-2.13897">
        <ele>98.59</ele>
        <time>2025-06-04T07:20:21.224Z</time>
      </trkpt>
      <trkpt lat="48.43945" lon="-2.13898">
        <ele>98.57</ele>
        <time>2025-06-04T07:20:20.259Z</time>
      </trkpt>
      <trkpt lat="48.4395" lon="-2.13901">
        <ele>98.54</ele>
        <time>2025-06-04T07:20:19.243Z</time>
      </trkpt>
      <trkpt lat="48.43953" lon="-2.13905">
        <ele>98.51</ele>
        <time>2025-06-04T07:20:19.035Z</time>
      </trkpt>
      <trkpt lat="48.43957" lon="-2.13907">
        <ele>98.47</ele>
        <time>2025-06-04T07:20:17.267Z</time>
      </trkpt>
      <trkpt lat="48.43961" lon="-2.1391">
        <ele>98.43</ele>
        <time>2025-06-04T07:20:16.264Z</time>
      </trkpt>
      <trkpt lat="48.43965" lon="-2.13912">
        <ele>98.39</ele>
        <time>2025-06-04T07:20:15.264Z</time>
      </trkpt>
      <trkpt lat="48.43968" lon="-2.13915">
        <ele>98.35</ele>
        <time>2025-06-04T07:20:15.066Z</time>
      </trkpt>
      <trkpt lat="48.43972" lon="-2.13917">
        <ele>98.31</ele>
        <time>2025-06-04T07:20:13.801Z</time>
      </trkpt>
      <trkpt lat="48.43976" lon="-2.13919">
        <ele>98.270004</ele>
        <time>2025-06-04T07:20:12.261Z</time>
      </trkpt>
      <trkpt lat="48.43981" lon="-2.13921">
        <ele>98.22</ele>
        <time>2025-06-04T07:20:11.270Z</time>
      </trkpt>
      <trkpt lat="48.43985" lon="-2.13924">
        <ele>98.18</ele>
        <time>2025-06-04T07:20:10.256Z</time>
      </trkpt>
      <trkpt lat="48.43989" lon="-2.13926">
        <ele>98.13</ele>
        <time>2025-06-04T07:20:09.261Z</time>
      </trkpt>
      <trkpt lat="48.43994" lon="-2.13928">
        <ele>98.09</ele>
        <time>2025-06-04T07:20:08.273Z</time>
      </trkpt>
      <trkpt lat="48.43999" lon="-2.13932">
        <ele>98.06</ele>
        <time>2025-06-04T07:20:07.259Z</time>
      </trkpt>
      <trkpt lat="48.44004" lon="-2.13933">
        <ele>98.04</ele>
        <time>2025-06-04T07:20:06.267Z</time>
      </trkpt>
      <trkpt lat="48.44008" lon="-2.13935">
        <ele>98.03</ele>
        <time>2025-06-04T07:20:05.981Z</time>
      </trkpt>
      <trkpt lat="48.44013" lon="-2.13937">
        <ele>98.04</ele>
        <time>2025-06-04T07:20:04.284Z</time>
      </trkpt>
      <trkpt lat="48.44017" lon="-2.13938">
        <ele>98.04</ele>
        <time>2025-06-04T07:20:03.257Z</time>
      </trkpt>
      <trkpt lat="48.44022" lon="-2.1394">
        <ele>98.05</ele>
        <time>2025-06-04T07:20:02.262Z</time>
      </trkpt>
      <trkpt lat="48.44027" lon="-2.13941">
        <ele>98.06</ele>
        <time>2025-06-04T07:20:01.263Z</time>
      </trkpt>
      <trkpt lat="48.44032" lon="-2.13943">
        <ele>98.07</ele>
        <time>2025-06-04T07:20:00.999Z</time>
      </trkpt>
      <trkpt lat="48.44036" lon="-2.13944">
        <ele>98.08</ele>
        <time>2025-06-04T07:19:59.262Z</time>
      </trkpt>
      <trkpt lat="48.44041" lon="-2.13946">
        <ele>98.1</ele>
        <time>2025-06-04T07:19:58.261Z</time>
      </trkpt>
      <trkpt lat="48.44046" lon="-2.13947">
        <ele>98.1</ele>
        <time>2025-06-04T07:19:57.260Z</time>
      </trkpt>
      <trkpt lat="48.44051" lon="-2.13948">
        <ele>98.11</ele>
        <time>2025-06-04T07:19:56.963Z</time>
      </trkpt>
      <trkpt lat="48.44056" lon="-2.1395">
        <ele>98.09</ele>
        <time>2025-06-04T07:19:55.248Z</time>
      </trkpt>
      <trkpt lat="48.44061" lon="-2.13951">
        <ele>98.07</ele>
        <time>2025-06-04T07:19:54.246Z</time>
      </trkpt>
      <trkpt lat="48.44065" lon="-2.13952">
        <ele>98.05</ele>
        <time>2025-06-04T07:19:53.260Z</time>
      </trkpt>
      <trkpt lat="48.4407" lon="-2.13954">
        <ele>98</ele>
        <time>2025-06-04T07:19:52.678Z</time>
      </trkpt>
      <trkpt lat="48.44075" lon="-2.13956">
        <ele>97.95</ele>
        <time>2025-06-04T07:19:51.709Z</time>
      </trkpt>
      <trkpt lat="48.4408" lon="-2.13958">
        <ele>97.87</ele>
        <time>2025-06-04T07:19:50.747Z</time>
      </trkpt>
      <trkpt lat="48.44085" lon="-2.1396">
        <ele>97.79</ele>
        <time>2025-06-04T07:19:49.674Z</time>
      </trkpt>
      <trkpt lat="48.4409" lon="-2.13963">
        <ele>97.71</ele>
        <time>2025-06-04T07:19:48.263Z</time>
      </trkpt>
      <trkpt lat="48.44098" lon="-2.13967">
        <ele>97.61</ele>
        <time>2025-06-04T07:19:47.788Z</time>
      </trkpt>
      <trkpt lat="48.44101" lon="-2.13969">
        <ele>97.5</ele>
        <time>2025-06-04T07:19:47.066Z</time>
      </trkpt>
      <trkpt lat="48.44106" lon="-2.13972">
        <ele>97.39</ele>
        <time>2025-06-04T07:19:45.773Z</time>
      </trkpt>
      <trkpt lat="48.4411" lon="-2.13975">
        <ele>97.25</ele>
        <time>2025-06-04T07:19:44.820Z</time>
      </trkpt>
      <trkpt lat="48.44115" lon="-2.13979">
        <ele>97.11</ele>
        <time>2025-06-04T07:19:43.657Z</time>
      </trkpt>
      <trkpt lat="48.4412" lon="-2.13983">
        <ele>96.95</ele>
        <time>2025-06-04T07:19:43.001Z</time>
      </trkpt>
      <trkpt lat="48.44123" lon="-2.13988">
        <ele>96.79</ele>
        <time>2025-06-04T07:19:42.084Z</time>
      </trkpt>
      <trkpt lat="48.44128" lon="-2.13992">
        <ele>96.64</ele>
        <time>2025-06-04T07:19:40.263Z</time>
      </trkpt>
      <trkpt lat="48.44133" lon="-2.13995">
        <ele>96.49</ele>
        <time>2025-06-04T07:19:39.887Z</time>
      </trkpt>
      <trkpt lat="48.44137" lon="-2.13998">
        <ele>96.34</ele>
        <time>2025-06-04T07:19:39.088Z</time>
      </trkpt>
      <trkpt lat="48.44141" lon="-2.14001">
        <ele>96.22</ele>
        <time>2025-06-04T07:19:37.672Z</time>
      </trkpt>
      <trkpt lat="48.44145" lon="-2.14005">
        <ele>96.11</ele>
        <time>2025-06-04T07:19:36.808Z</time>
      </trkpt>
      <trkpt lat="48.44149" lon="-2.14009">
        <ele>95.99</ele>
        <time>2025-06-04T07:19:36.059Z</time>
      </trkpt>
      <trkpt lat="48.44153" lon="-2.14013">
        <ele>95.87</ele>
        <time>2025-06-04T07:19:34.610Z</time>
      </trkpt>
      <trkpt lat="48.44158" lon="-2.14016">
        <ele>95.76</ele>
        <time>2025-06-04T07:19:34.070Z</time>
      </trkpt>
      <trkpt lat="48.44162" lon="-2.14019">
        <ele>95.66</ele>
        <time>2025-06-04T07:19:33.022Z</time>
      </trkpt>
      <trkpt lat="48.44166" lon="-2.14024">
        <ele>95.58</ele>
        <time>2025-06-04T07:19:31.251Z</time>
      </trkpt>
      <trkpt lat="48.44169" lon="-2.14028">
        <ele>95.5</ele>
        <time>2025-06-04T07:19:31.045Z</time>
      </trkpt>
      <trkpt lat="48.44173" lon="-2.14032">
        <ele>95.43</ele>
        <time>2025-06-04T07:19:29.275Z</time>
      </trkpt>
      <trkpt lat="48.44177" lon="-2.14038">
        <ele>95.37</ele>
        <time>2025-06-04T07:19:28.265Z</time>
      </trkpt>
      <trkpt lat="48.4418" lon="-2.14043">
        <ele>95.3</ele>
        <time>2025-06-04T07:19:27.963Z</time>
      </trkpt>
      <trkpt lat="48.44183" lon="-2.14047">
        <ele>95.229996</ele>
        <time>2025-06-04T07:19:26.263Z</time>
      </trkpt>
      <trkpt lat="48.44188" lon="-2.14053">
        <ele>95.14</ele>
        <time>2025-06-04T07:19:26.054Z</time>
      </trkpt>
      <trkpt lat="48.44191" lon="-2.14058">
        <ele>95.03</ele>
        <time>2025-06-04T07:19:24.135Z</time>
      </trkpt>
      <trkpt lat="48.44194" lon="-2.14062">
        <ele>94.92</ele>
        <time>2025-06-04T07:19:23.599Z</time>
      </trkpt>
      <trkpt lat="48.44197" lon="-2.14068">
        <ele>94.8</ele>
        <time>2025-06-04T07:19:23.089Z</time>
      </trkpt>
      <trkpt lat="48.44201" lon="-2.14073">
        <ele>94.66</ele>
        <time>2025-06-04T07:19:22.067Z</time>
      </trkpt>
      <trkpt lat="48.44204" lon="-2.14079">
        <ele>94.520004</ele>
        <time>2025-06-04T07:19:20.852Z</time>
      </trkpt>
      <trkpt lat="48.44206" lon="-2.14084">
        <ele>94.37</ele>
        <time>2025-06-04T07:19:19.264Z</time>
      </trkpt>
      <trkpt lat="48.4421" lon="-2.1409">
        <ele>94.22</ele>
        <time>2025-06-04T07:19:18.653Z</time>
      </trkpt>
      <trkpt lat="48.44213" lon="-2.14095">
        <ele>94.07</ele>
        <time>2025-06-04T07:19:17.912Z</time>
      </trkpt>
      <trkpt lat="48.44217" lon="-2.141">
        <ele>93.92</ele>
        <time>2025-06-04T07:19:16.680Z</time>
      </trkpt>
      <trkpt lat="48.4422" lon="-2.14106">
        <ele>93.76</ele>
        <time>2025-06-04T07:19:15.259Z</time>
      </trkpt>
      <trkpt lat="48.44223" lon="-2.14112">
        <ele>93.61</ele>
        <time>2025-06-04T07:19:14.747Z</time>
      </trkpt>
      <trkpt lat="48.44226" lon="-2.14118">
        <ele>93.5</ele>
        <time>2025-06-04T07:19:14.075Z</time>
      </trkpt>
      <trkpt lat="48.44229" lon="-2.14124">
        <ele>93.44</ele>
        <time>2025-06-04T07:19:12.672Z</time>
      </trkpt>
      <trkpt lat="48.44233" lon="-2.14132">
        <ele>93.38</ele>
        <time>2025-06-04T07:19:11.690Z</time>
      </trkpt>
      <trkpt lat="48.44236" lon="-2.14138">
        <ele>93.32</ele>
        <time>2025-06-04T07:19:10.648Z</time>
      </trkpt>
      <trkpt lat="48.4424" lon="-2.14145">
        <ele>93.29</ele>
        <time>2025-06-04T07:19:09.265Z</time>
      </trkpt>
      <trkpt lat="48.44244" lon="-2.14152">
        <ele>93.28</ele>
        <time>2025-06-04T07:19:08.691Z</time>
      </trkpt>
      <trkpt lat="48.44248" lon="-2.14159">
        <ele>93.270004</ele>
        <time>2025-06-04T07:19:08.031Z</time>
      </trkpt>
      <trkpt lat="48.44252" lon="-2.14165">
        <ele>93.29</ele>
        <time>2025-06-04T07:19:06.262Z</time>
      </trkpt>
      <trkpt lat="48.44257" lon="-2.1417">
        <ele>93.31</ele>
        <time>2025-06-04T07:19:05.254Z</time>
      </trkpt>
      <trkpt lat="48.44262" lon="-2.14176">
        <ele>93.34</ele>
        <time>2025-06-04T07:19:04.258Z</time>
      </trkpt>
      <trkpt lat="48.44267" lon="-2.14182">
        <ele>93.37</ele>
        <time>2025-06-04T07:19:03.920Z</time>
      </trkpt>
      <trkpt lat="48.44271" lon="-2.14187">
        <ele>93.41</ele>
        <time>2025-06-04T07:19:02.932Z</time>
      </trkpt>
      <trkpt lat="48.44275" lon="-2.1419">
        <ele>93.45</ele>
        <time>2025-06-04T07:19:01.257Z</time>
      </trkpt>
      <trkpt lat="48.44278" lon="-2.14193">
        <ele>93.479996</ele>
        <time>2025-06-04T07:19:00.271Z</time>
      </trkpt>
      <trkpt lat="48.44283" lon="-2.14197">
        <ele>93.51</ele>
        <time>2025-06-04T07:18:59.260Z</time>
      </trkpt>
      <trkpt lat="48.44289" lon="-2.14201">
        <ele>93.54</ele>
        <time>2025-06-04T07:18:58.730Z</time>
      </trkpt>
      <trkpt lat="48.44294" lon="-2.14205">
        <ele>93.55</ele>
        <time>2025-06-04T07:18:57.686Z</time>
      </trkpt>
      <trkpt lat="48.44299" lon="-2.1421">
        <ele>93.55</ele>
        <time>2025-06-04T07:18:57.054Z</time>
      </trkpt>
      <trkpt lat="48.44305" lon="-2.14215">
        <ele>93.53</ele>
        <time>2025-06-04T07:18:55.680Z</time>
      </trkpt>
      <trkpt lat="48.44312" lon="-2.1422">
        <ele>93.49</ele>
        <time>2025-06-04T07:18:55.061Z</time>
      </trkpt>
      <trkpt lat="48.44318" lon="-2.14224">
        <ele>93.43</ele>
        <time>2025-06-04T07:18:53.781Z</time>
      </trkpt>
      <trkpt lat="48.44323" lon="-2.14228">
        <ele>93.38</ele>
        <time>2025-06-04T07:18:53.032Z</time>
      </trkpt>
      <trkpt lat="48.44329" lon="-2.14231">
        <ele>93.32</ele>
        <time>2025-06-04T07:18:51.806Z</time>
      </trkpt>
      <trkpt lat="48.44336" lon="-2.14234">
        <ele>93.270004</ele>
        <time>2025-06-04T07:18:50.263Z</time>
      </trkpt>
      <trkpt lat="48.44342" lon="-2.14237">
        <ele>93.22</ele>
        <time>2025-06-04T07:18:49.682Z</time>
      </trkpt>
      <trkpt lat="48.44349" lon="-2.1424">
        <ele>93.19</ele>
        <time>2025-06-04T07:18:49.018Z</time>
      </trkpt>
      <trkpt lat="48.44355" lon="-2.14242">
        <ele>93.16</ele>
        <time>2025-06-04T07:18:47.723Z</time>
      </trkpt>
      <trkpt lat="48.44361" lon="-2.14244">
        <ele>93.16</ele>
        <time>2025-06-04T07:18:46.940Z</time>
      </trkpt>
      <trkpt lat="48.44367" lon="-2.14246">
        <ele>93.18</ele>
        <time>2025-06-04T07:18:45.187Z</time>
      </trkpt>
      <trkpt lat="48.44374" lon="-2.14249">
        <ele>93.51</ele>
        <time>2025-06-04T07:18:45.009Z</time>
      </trkpt>
      <trkpt lat="48.44379" lon="-2.14252">
        <ele>93.64</ele>
        <time>2025-06-04T07:18:43.084Z</time>
      </trkpt>
      <trkpt lat="48.44386" lon="-2.14255">
        <ele>93.8</ele>
        <time>2025-06-04T07:18:42.706Z</time>
      </trkpt>
      <trkpt lat="48.44391" lon="-2.1426">
        <ele>94</ele>
        <time>2025-06-04T07:18:41.067Z</time>
      </trkpt>
      <trkpt lat="48.44397" lon="-2.14265">
        <ele>94.229996</ele>
        <time>2025-06-04T07:18:40.264Z</time>
      </trkpt>
      <trkpt lat="48.44403" lon="-2.14269">
        <ele>94.479996</ele>
        <time>2025-06-04T07:18:39.552Z</time>
      </trkpt>
      <trkpt lat="48.44408" lon="-2.14275">
        <ele>94.72</ele>
        <time>2025-06-04T07:18:38.069Z</time>
      </trkpt>
      <trkpt lat="48.44414" lon="-2.1428">
        <ele>94.96</ele>
        <time>2025-06-04T07:18:37.259Z</time>
      </trkpt>
      <trkpt lat="48.44419" lon="-2.14285">
        <ele>95.18</ele>
        <time>2025-06-04T07:18:37.008Z</time>
      </trkpt>
      <trkpt lat="48.44426" lon="-2.14291">
        <ele>95.4</ele>
        <time>2025-06-04T07:18:35.273Z</time>
      </trkpt>
      <trkpt lat="48.44431" lon="-2.14296">
        <ele>95.58</ele>
        <time>2025-06-04T07:18:35.021Z</time>
      </trkpt>
      <trkpt lat="48.44436" lon="-2.14301">
        <ele>95.79</ele>
        <time>2025-06-04T07:18:34.006Z</time>
      </trkpt>
      <trkpt lat="48.44442" lon="-2.14307">
        <ele>96</ele>
        <time>2025-06-04T07:18:32.268Z</time>
      </trkpt>
      <trkpt lat="48.44447" lon="-2.14312">
        <ele>96.21</ele>
        <time>2025-06-04T07:18:31.936Z</time>
      </trkpt>
      <trkpt lat="48.44453" lon="-2.14318">
        <ele>96.44</ele>
        <time>2025-06-04T07:18:30.409Z</time>
      </trkpt>
      <trkpt lat="48.44458" lon="-2.14322">
        <ele>96.65</ele>
        <time>2025-06-04T07:18:30.027Z</time>
      </trkpt>
      <trkpt lat="48.44465" lon="-2.14326">
        <ele>96.86</ele>
        <time>2025-06-04T07:18:28.371Z</time>
      </trkpt>
      <trkpt lat="48.44471" lon="-2.14329">
        <ele>97.08</ele>
        <time>2025-06-04T07:18:27.263Z</time>
      </trkpt>
      <trkpt lat="48.44477" lon="-2.14331">
        <ele>97.28</ele>
        <time>2025-06-04T07:18:26.258Z</time>
      </trkpt>
      <trkpt lat="48.44484" lon="-2.14332">
        <ele>97.47</ele>
        <time>2025-06-04T07:18:25.941Z</time>
      </trkpt>
      <trkpt lat="48.4449" lon="-2.14333">
        <ele>97.62</ele>
        <time>2025-06-04T07:18:24.046Z</time>
      </trkpt>
      <trkpt lat="48.44498" lon="-2.14332">
        <ele>97.76</ele>
        <time>2025-06-04T07:18:23.260Z</time>
      </trkpt>
      <trkpt lat="48.44503" lon="-2.1433">
        <ele>97.89</ele>
        <time>2025-06-04T07:18:22.909Z</time>
      </trkpt>
      <trkpt lat="48.4451" lon="-2.14328">
        <ele>98.04</ele>
        <time>2025-06-04T07:18:21.042Z</time>
      </trkpt>
      <trkpt lat="48.44515" lon="-2.14325">
        <ele>98.21</ele>
        <time>2025-06-04T07:18:20.127Z</time>
      </trkpt>
      <trkpt lat="48.44521" lon="-2.14322">
        <ele>98.37</ele>
        <time>2025-06-04T07:18:19.973Z</time>
      </trkpt>
      <trkpt lat="48.44527" lon="-2.14319">
        <ele>98.54</ele>
        <time>2025-06-04T07:18:19.024Z</time>
      </trkpt>
      <trkpt lat="48.44533" lon="-2.14315">
        <ele>98.7</ele>
        <time>2025-06-04T07:18:17.804Z</time>
      </trkpt>
      <trkpt lat="48.44538" lon="-2.1431">
        <ele>98.85</ele>
        <time>2025-06-04T07:18:16.133Z</time>
      </trkpt>
      <trkpt lat="48.44544" lon="-2.14306">
        <ele>98.97</ele>
        <time>2025-06-04T07:18:15.937Z</time>
      </trkpt>
      <trkpt lat="48.4455" lon="-2.14302">
        <ele>99.08</ele>
        <time>2025-06-04T07:18:14.959Z</time>
      </trkpt>
      <trkpt lat="48.44555" lon="-2.14298">
        <ele>99.15</ele>
        <time>2025-06-04T07:18:13.061Z</time>
      </trkpt>
      <trkpt lat="48.44559" lon="-2.14293">
        <ele>99.22</ele>
        <time>2025-06-04T07:18:12.135Z</time>
      </trkpt>
      <trkpt lat="48.44564" lon="-2.1429">
        <ele>99.22</ele>
        <time>2025-06-04T07:18:11.265Z</time>
      </trkpt>
      <trkpt lat="48.44571" lon="-2.14285">
        <ele>99.22</ele>
        <time>2025-06-04T07:18:10.960Z</time>
      </trkpt>
      <trkpt lat="48.44575" lon="-2.14282">
        <ele>99.17</ele>
        <time>2025-06-04T07:18:09.229Z</time>
      </trkpt>
      <trkpt lat="48.44587" lon="-2.14276">
        <ele>99.07</ele>
        <time>2025-06-04T07:18:08.026Z</time>
      </trkpt>
      <trkpt lat="48.4459" lon="-2.14273">
        <ele>98.94</ele>
        <time>2025-06-04T07:18:07.021Z</time>
      </trkpt>
      <trkpt lat="48.44596" lon="-2.14272">
        <ele>98.79</ele>
        <time>2025-06-04T07:18:06.048Z</time>
      </trkpt>
      <trkpt lat="48.44599" lon="-2.14271">
        <ele>98.45</ele>
        <time>2025-06-04T07:18:05.635Z</time>
      </trkpt>
      <trkpt lat="48.44602" lon="-2.14269">
        <ele>98.45</ele>
        <time>2025-06-04T07:18:04.936Z</time>
      </trkpt>
      <trkpt lat="48.44601" lon="-2.14269">
        <ele>98.24</ele>
        <time>2025-06-04T07:18:03.027Z</time>
      </trkpt>
      <trkpt lat="48.44605" lon="-2.14267">
        <ele>98.020004</ele>
        <time>2025-06-04T07:18:02.040Z</time>
      </trkpt>
      <trkpt lat="48.4461" lon="-2.14264">
        <ele>97.83</ele>
        <time>2025-06-04T07:18:01.025Z</time>
      </trkpt>
      <trkpt lat="48.44613" lon="-2.14261">
        <ele>97.64</ele>
        <time>2025-06-04T07:18:00.030Z</time>
      </trkpt>
      <trkpt lat="48.44618" lon="-2.14257">
        <ele>97.49</ele>
        <time>2025-06-04T07:17:59.016Z</time>
      </trkpt>
      <trkpt lat="48.44622" lon="-2.14254">
        <ele>97.36</ele>
        <time>2025-06-04T07:17:58.614Z</time>
      </trkpt>
      <trkpt lat="48.44624" lon="-2.14248">
        <ele>97.22</ele>
        <time>2025-06-04T07:17:57.959Z</time>
      </trkpt>
      <trkpt lat="48.44625" lon="-2.14242">
        <ele>97.12</ele>
        <time>2025-06-04T07:17:56.887Z</time>
      </trkpt>
      <trkpt lat="48.44625" lon="-2.14232">
        <ele>97.06</ele>
        <time>2025-06-04T07:17:55.951Z</time>
      </trkpt>
      <trkpt lat="48.44625" lon="-2.14228">
        <ele>97</ele>
        <time>2025-06-04T07:17:54.890Z</time>
      </trkpt>
      <trkpt lat="48.44625" lon="-2.1422">
        <ele>96.97</ele>
        <time>2025-06-04T07:17:53.988Z</time>
      </trkpt>
      <trkpt lat="48.44624" lon="-2.14207">
        <ele>96.94</ele>
        <time>2025-06-04T07:17:52.005Z</time>
      </trkpt>
      <trkpt lat="48.44624" lon="-2.14202">
        <ele>96.92</ele>
        <time>2025-06-04T07:17:51.962Z</time>
      </trkpt>
      <trkpt lat="48.44623" lon="-2.14197">
        <ele>96.94</ele>
        <time>2025-06-04T07:17:50.032Z</time>
      </trkpt>
      <trkpt lat="48.44623" lon="-2.14191">
        <ele>96.95</ele>
        <time>2025-06-04T07:17:49.025Z</time>
      </trkpt>
      <trkpt lat="48.44622" lon="-2.14186">
        <ele>96.97</ele>
        <time>2025-06-04T07:17:48.752Z</time>
      </trkpt>
      <trkpt lat="48.44622" lon="-2.1418">
        <ele>96.99</ele>
        <time>2025-06-04T07:17:47.820Z</time>
      </trkpt>
      <trkpt lat="48.44622" lon="-2.14173">
        <ele>97</ele>
        <time>2025-06-04T07:17:46.007Z</time>
      </trkpt>
      <trkpt lat="48.44622" lon="-2.14166">
        <ele>97.01</ele>
        <time>2025-06-04T07:17:45.597Z</time>
      </trkpt>
      <trkpt lat="48.44621" lon="-2.1416">
        <ele>97.020004</ele>
        <time>2025-06-04T07:17:44.910Z</time>
      </trkpt>
      <trkpt lat="48.44621" lon="-2.14153">
        <ele>97.03</ele>
        <time>2025-06-04T07:17:43.009Z</time>
      </trkpt>
      <trkpt lat="48.44619" lon="-2.14147">
        <ele>97.04</ele>
        <time>2025-06-04T07:17:41.987Z</time>
      </trkpt>
      <trkpt lat="48.44618" lon="-2.14141">
        <ele>97.06</ele>
        <time>2025-06-04T07:17:41.264Z</time>
      </trkpt>
      <trkpt lat="48.44617" lon="-2.14135">
        <ele>97.07</ele>
        <time>2025-06-04T07:17:40.936Z</time>
      </trkpt>
      <trkpt lat="48.44616" lon="-2.14129">
        <ele>97.08</ele>
        <time>2025-06-04T07:17:39.861Z</time>
      </trkpt>
      <trkpt lat="48.44615" lon="-2.14123">
        <ele>97.1</ele>
        <time>2025-06-04T07:17:38.941Z</time>
      </trkpt>
      <trkpt lat="48.44614" lon="-2.14118">
        <ele>97.11</ele>
        <time>2025-06-04T07:17:37.970Z</time>
      </trkpt>
      <trkpt lat="48.44613" lon="-2.14112">
        <ele>97.11</ele>
        <time>2025-06-04T07:17:35.990Z</time>
      </trkpt>
      <trkpt lat="48.44611" lon="-2.14106">
        <ele>97.12</ele>
        <time>2025-06-04T07:17:35.694Z</time>
      </trkpt>
      <trkpt lat="48.44611" lon="-2.14101">
        <ele>97.13</ele>
        <time>2025-06-04T07:17:34.968Z</time>
      </trkpt>
      <trkpt lat="48.44609" lon="-2.14095">
        <ele>97.13</ele>
        <time>2025-06-04T07:17:33.961Z</time>
      </trkpt>
      <trkpt lat="48.44608" lon="-2.14091">
        <ele>97.13</ele>
        <time>2025-06-04T07:17:32.009Z</time>
      </trkpt>
      <trkpt lat="48.44607" lon="-2.14087">
        <ele>97.13</ele>
        <time>2025-06-04T07:17:31.036Z</time>
      </trkpt>
      <trkpt lat="48.44606" lon="-2.14082">
        <ele>97.13</ele>
        <time>2025-06-04T07:17:30.028Z</time>
      </trkpt>
      <trkpt lat="48.44605" lon="-2.14077">
        <ele>97.12</ele>
        <time>2025-06-04T07:17:28.994Z</time>
      </trkpt>
      <trkpt lat="48.44604" lon="-2.14073">
        <ele>97.12</ele>
        <time>2025-06-04T07:17:28.040Z</time>
      </trkpt>
      <trkpt lat="48.44603" lon="-2.14068">
        <ele>97.11</ele>
        <time>2025-06-04T07:17:26.985Z</time>
      </trkpt>
      <trkpt lat="48.44603" lon="-2.14063">
        <ele>97.1</ele>
        <time>2025-06-04T07:17:25.991Z</time>
      </trkpt>
      <trkpt lat="48.44602" lon="-2.14058">
        <ele>97.09</ele>
        <time>2025-06-04T07:17:25.750Z</time>
      </trkpt>
      <trkpt lat="48.44602" lon="-2.14054">
        <ele>97.08</ele>
        <time>2025-06-04T07:17:23.966Z</time>
      </trkpt>
      <trkpt lat="48.44601" lon="-2.1405">
        <ele>97.06</ele>
        <time>2025-06-04T07:17:23.947Z</time>
      </trkpt>
      <trkpt lat="48.44601" lon="-2.14047">
        <ele>97.05</ele>
        <time>2025-06-04T07:17:21.996Z</time>
      </trkpt>
      <trkpt lat="48.446" lon="-2.14045">
        <ele>97.03</ele>
        <time>2025-06-04T07:17:20.972Z</time>
      </trkpt>
      <trkpt lat="48.446" lon="-2.14042">
        <ele>97.01</ele>
        <time>2025-06-04T07:17:20.258Z</time>
      </trkpt>
      <trkpt lat="48.44599" lon="-2.1404">
        <ele>97</ele>
        <time>2025-06-04T07:17:19.931Z</time>
      </trkpt>
      <trkpt lat="48.44598" lon="-2.14038">
        <ele>96.979996</ele>
        <time>2025-06-04T07:17:17.983Z</time>
      </trkpt>
      <trkpt lat="48.44598" lon="-2.14035">
        <ele>96.96</ele>
        <time>2025-06-04T07:17:17.070Z</time>
      </trkpt>
      <trkpt lat="48.44597" lon="-2.14032">
        <ele>96.94</ele>
        <time>2025-06-04T07:17:16.019Z</time>
      </trkpt>
      <trkpt lat="48.44597" lon="-2.1403">
        <ele>96.93</ele>
        <time>2025-06-04T07:17:15.030Z</time>
      </trkpt>
      <trkpt lat="48.44596" lon="-2.14027">
        <ele>96.91</ele>
        <time>2025-06-04T07:17:14.030Z</time>
      </trkpt>
      <trkpt lat="48.44596" lon="-2.14023">
        <ele>96.88</ele>
        <time>2025-06-04T07:17:12.963Z</time>
      </trkpt>
      <trkpt lat="48.44595" lon="-2.1402">
        <ele>96.87</ele>
        <time>2025-06-04T07:17:12.026Z</time>
      </trkpt>
      <trkpt lat="48.44595" lon="-2.14017">
        <ele>96.85</ele>
        <time>2025-06-04T07:17:11.029Z</time>
      </trkpt>
      <trkpt lat="48.44594" lon="-2.14013">
        <ele>96.83</ele>
        <time>2025-06-04T07:17:10.690Z</time>
      </trkpt>
      <trkpt lat="48.44593" lon="-2.14009">
        <ele>96.81</ele>
        <time>2025-06-04T07:17:08.984Z</time>
      </trkpt>
      <trkpt lat="48.44593" lon="-2.14005">
        <ele>96.81</ele>
        <time>2025-06-04T07:17:08.010Z</time>
      </trkpt>
      <trkpt lat="48.44592" lon="-2.14001">
        <ele>96.81</ele>
        <time>2025-06-04T07:17:07.032Z</time>
      </trkpt>
      <trkpt lat="48.44591" lon="-2.13998">
        <ele>96.81</ele>
        <time>2025-06-04T07:17:05.986Z</time>
      </trkpt>
      <trkpt lat="48.44591" lon="-2.13995">
        <ele>96.81</ele>
        <time>2025-06-04T07:17:05.742Z</time>
      </trkpt>
      <trkpt lat="48.4459" lon="-2.13992">
        <ele>96.82</ele>
        <time>2025-06-04T07:17:03.979Z</time>
      </trkpt>
      <trkpt lat="48.44591" lon="-2.1399">
        <ele>96.83</ele>
        <time>2025-06-04T07:17:02.982Z</time>
      </trkpt>
      <trkpt lat="48.44592" lon="-2.13986">
        <ele>96.86</ele>
        <time>2025-06-04T07:17:01.371Z</time>
      </trkpt>
      <trkpt lat="48.44593" lon="-2.13985">
        <ele>96.88</ele>
        <time>2025-06-04T07:16:59.945Z</time>
      </trkpt>
      <trkpt lat="48.44597" lon="-2.13981">
        <ele>97.21</ele>
        <time>2025-06-04T07:16:33.074Z</time>
      </trkpt>
      <trkpt lat="48.446" lon="-2.1398">
        <ele>97.24</ele>
        <time>2025-06-04T07:16:32.349Z</time>
      </trkpt>
      <trkpt lat="48.44602" lon="-2.13979">
        <ele>97.26</ele>
        <time>2025-06-04T07:16:30.849Z</time>
      </trkpt>
      <trkpt lat="48.44606" lon="-2.13979">
        <ele>97.270004</ele>
        <time>2025-06-04T07:16:30.319Z</time>
      </trkpt>
      <trkpt lat="48.44609" lon="-2.13978">
        <ele>97.26</ele>
        <time>2025-06-04T07:16:29.044Z</time>
      </trkpt>
      <trkpt lat="48.44613" lon="-2.13978">
        <ele>97.24</ele>
        <time>2025-06-04T07:16:28.256Z</time>
      </trkpt>
      <trkpt lat="48.44616" lon="-2.13978">
        <ele>97.2</ele>
        <time>2025-06-04T07:16:27.175Z</time>
      </trkpt>
      <trkpt lat="48.44619" lon="-2.13977">
        <ele>97.16</ele>
        <time>2025-06-04T07:16:25.943Z</time>
      </trkpt>
      <trkpt lat="48.44623" lon="-2.13977">
        <ele>97.12</ele>
        <time>2025-06-04T07:16:24.889Z</time>
      </trkpt>
      <trkpt lat="48.44627" lon="-2.13976">
        <ele>97.06</ele>
        <time>2025-06-04T07:16:23.894Z</time>
      </trkpt>
      <trkpt lat="48.4463" lon="-2.13976">
        <ele>97</ele>
        <time>2025-06-04T07:16:22.992Z</time>
      </trkpt>
      <trkpt lat="48.44634" lon="-2.13975">
        <ele>96.94</ele>
        <time>2025-06-04T07:16:21.965Z</time>
      </trkpt>
      <trkpt lat="48.44637" lon="-2.13974">
        <ele>96.88</ele>
        <time>2025-06-04T07:16:21.302Z</time>
      </trkpt>
      <trkpt lat="48.44641" lon="-2.13974">
        <ele>96.81</ele>
        <time>2025-06-04T07:16:20.290Z</time>
      </trkpt>
      <trkpt lat="48.44645" lon="-2.13973">
        <ele>96.74</ele>
        <time>2025-06-04T07:16:18.913Z</time>
      </trkpt>
      <trkpt lat="48.44648" lon="-2.13972">
        <ele>96.66</ele>
        <time>2025-06-04T07:16:18.116Z</time>
      </trkpt>
      <trkpt lat="48.44651" lon="-2.13971">
        <ele>96.6</ele>
        <time>2025-06-04T07:16:17.329Z</time>
      </trkpt>
      <trkpt lat="48.44655" lon="-2.13971">
        <ele>96.520004</ele>
        <time>2025-06-04T07:16:15.898Z</time>
      </trkpt>
      <trkpt lat="48.44659" lon="-2.1397">
        <ele>96.45</ele>
        <time>2025-06-04T07:16:15.268Z</time>
      </trkpt>
      <trkpt lat="48.44662" lon="-2.13969">
        <ele>96.38</ele>
        <time>2025-06-04T07:16:13.873Z</time>
      </trkpt>
      <trkpt lat="48.44666" lon="-2.13969">
        <ele>96.31</ele>
        <time>2025-06-04T07:16:12.858Z</time>
      </trkpt>
      <trkpt lat="48.4467" lon="-2.13968">
        <ele>96.25</ele>
        <time>2025-06-04T07:16:12.243Z</time>
      </trkpt>
      <trkpt lat="48.44674" lon="-2.13967">
        <ele>96.19</ele>
        <time>2025-06-04T07:16:10.830Z</time>
      </trkpt>
      <trkpt lat="48.44678" lon="-2.13967">
        <ele>96.15</ele>
        <time>2025-06-04T07:16:09.756Z</time>
      </trkpt>
      <trkpt lat="48.44682" lon="-2.13967">
        <ele>96.1</ele>
        <time>2025-06-04T07:16:09.327Z</time>
      </trkpt>
      <trkpt lat="48.44686" lon="-2.13966">
        <ele>96.05</ele>
        <time>2025-06-04T07:16:08.235Z</time>
      </trkpt>
      <trkpt lat="48.4469" lon="-2.13966">
        <ele>95.99</ele>
        <time>2025-06-04T07:16:07.313Z</time>
      </trkpt>
      <trkpt lat="48.44694" lon="-2.13966">
        <ele>95.96</ele>
        <time>2025-06-04T07:16:06.271Z</time>
      </trkpt>
      <trkpt lat="48.44697" lon="-2.13965">
        <ele>95.92</ele>
        <time>2025-06-04T07:16:04.869Z</time>
      </trkpt>
      <trkpt lat="48.44701" lon="-2.13965">
        <ele>95.89</ele>
        <time>2025-06-04T07:16:03.874Z</time>
      </trkpt>
      <trkpt lat="48.44706" lon="-2.13965">
        <ele>95.86</ele>
        <time>2025-06-04T07:16:02.786Z</time>
      </trkpt>
      <trkpt lat="48.44709" lon="-2.13964">
        <ele>95.83</ele>
        <time>2025-06-04T07:16:01.778Z</time>
      </trkpt>
      <trkpt lat="48.44713" lon="-2.13964">
        <ele>95.81</ele>
        <time>2025-06-04T07:16:00.860Z</time>
      </trkpt>
      <trkpt lat="48.44717" lon="-2.13963">
        <ele>95.79</ele>
        <time>2025-06-04T07:16:00.305Z</time>
      </trkpt>
      <trkpt lat="48.44721" lon="-2.13963">
        <ele>95.770004</ele>
        <time>2025-06-04T07:15:59.180Z</time>
      </trkpt>
      <trkpt lat="48.44725" lon="-2.13962">
        <ele>95.75</ele>
        <time>2025-06-04T07:15:57.856Z</time>
      </trkpt>
      <trkpt lat="48.44729" lon="-2.13961">
        <ele>95.729996</ele>
        <time>2025-06-04T07:15:56.851Z</time>
      </trkpt>
      <trkpt lat="48.44732" lon="-2.13961">
        <ele>95.72</ele>
        <time>2025-06-04T07:15:55.946Z</time>
      </trkpt>
      <trkpt lat="48.44737" lon="-2.1396">
        <ele>95.7</ele>
        <time>2025-06-04T07:15:54.721Z</time>
      </trkpt>
      <trkpt lat="48.4474" lon="-2.1396">
        <ele>95.68</ele>
        <time>2025-06-04T07:15:54.179Z</time>
      </trkpt>
      <trkpt lat="48.44744" lon="-2.13959">
        <ele>95.66</ele>
        <time>2025-06-04T07:15:53.301Z</time>
      </trkpt>
      <trkpt lat="48.44748" lon="-2.13958">
        <ele>95.64</ele>
        <time>2025-06-04T07:15:51.833Z</time>
      </trkpt>
      <trkpt lat="48.44751" lon="-2.13956">
        <ele>95.62</ele>
        <time>2025-06-04T07:15:50.941Z</time>
      </trkpt>
      <trkpt lat="48.44755" lon="-2.13953">
        <ele>95.6</ele>
        <time>2025-06-04T07:15:50.308Z</time>
      </trkpt>
      <trkpt lat="48.44758" lon="-2.1395">
        <ele>95.57</ele>
        <time>2025-06-04T07:15:48.833Z</time>
      </trkpt>
      <trkpt lat="48.44761" lon="-2.13947">
        <ele>95.54</ele>
        <time>2025-06-04T07:15:47.860Z</time>
      </trkpt>
      <trkpt lat="48.44764" lon="-2.13942">
        <ele>95.51</ele>
        <time>2025-06-04T07:15:46.590Z</time>
      </trkpt>
      <trkpt lat="48.44767" lon="-2.13938">
        <ele>95.47</ele>
        <time>2025-06-04T07:15:46.266Z</time>
      </trkpt>
      <trkpt lat="48.44769" lon="-2.13933">
        <ele>95.42</ele>
        <time>2025-06-04T07:15:45.282Z</time>
      </trkpt>
      <trkpt lat="48.4477" lon="-2.13927">
        <ele>95.36</ele>
        <time>2025-06-04T07:15:43.484Z</time>
      </trkpt>
      <trkpt lat="48.44771" lon="-2.13922">
        <ele>95.3</ele>
        <time>2025-06-04T07:15:43.295Z</time>
      </trkpt>
      <trkpt lat="48.44772" lon="-2.13916">
        <ele>95.229996</ele>
        <time>2025-06-04T07:15:41.818Z</time>
      </trkpt>
      <trkpt lat="48.44773" lon="-2.13911">
        <ele>95.14</ele>
        <time>2025-06-04T07:15:40.851Z</time>
      </trkpt>
      <trkpt lat="48.44773" lon="-2.13905">
        <ele>95.05</ele>
        <time>2025-06-04T07:15:40.306Z</time>
      </trkpt>
      <trkpt lat="48.44774" lon="-2.13899">
        <ele>94.96</ele>
        <time>2025-06-04T07:15:38.421Z</time>
      </trkpt>
      <trkpt lat="48.44776" lon="-2.13894">
        <ele>94.85</ele>
        <time>2025-06-04T07:15:38.258Z</time>
      </trkpt>
      <trkpt lat="48.44778" lon="-2.13889">
        <ele>94.75</ele>
        <time>2025-06-04T07:15:36.445Z</time>
      </trkpt>
      <trkpt lat="48.4478" lon="-2.13886">
        <ele>94.65</ele>
        <time>2025-06-04T07:15:36.248Z</time>
      </trkpt>
      <trkpt lat="48.44783" lon="-2.13883">
        <ele>94.54</ele>
        <time>2025-06-04T07:15:34.852Z</time>
      </trkpt>
      <trkpt lat="48.44786" lon="-2.13881">
        <ele>94.43</ele>
        <time>2025-06-04T07:15:33.808Z</time>
      </trkpt>
      <trkpt lat="48.44789" lon="-2.1388">
        <ele>94.32</ele>
        <time>2025-06-04T07:15:32.422Z</time>
      </trkpt>
      <trkpt lat="48.44792" lon="-2.13879">
        <ele>94.22</ele>
        <time>2025-06-04T07:15:31.947Z</time>
      </trkpt>
      <trkpt lat="48.44795" lon="-2.13878">
        <ele>94.12</ele>
        <time>2025-06-04T07:15:31.256Z</time>
      </trkpt>
      <trkpt lat="48.44798" lon="-2.13878">
        <ele>94.03</ele>
        <time>2025-06-04T07:15:29.764Z</time>
      </trkpt>
      <trkpt lat="48.44801" lon="-2.13877">
        <ele>93.94</ele>
        <time>2025-06-04T07:15:28.859Z</time>
      </trkpt>
      <trkpt lat="48.44805" lon="-2.13877">
        <ele>93.85</ele>
        <time>2025-06-04T07:15:27.809Z</time>
      </trkpt>
      <trkpt lat="48.44808" lon="-2.13876">
        <ele>93.76</ele>
        <time>2025-06-04T07:15:27.096Z</time>
      </trkpt>
      <trkpt lat="48.44811" lon="-2.13875">
        <ele>93.67</ele>
        <time>2025-06-04T07:15:26.126Z</time>
      </trkpt>
      <trkpt lat="48.44814" lon="-2.13875">
        <ele>93.59</ele>
        <time>2025-06-04T07:15:24.933Z</time>
      </trkpt>
      <trkpt lat="48.44818" lon="-2.13875">
        <ele>93.5</ele>
        <time>2025-06-04T07:15:23.835Z</time>
      </trkpt>
      <trkpt lat="48.44821" lon="-2.13874">
        <ele>93.43</ele>
        <time>2025-06-04T07:15:22.808Z</time>
      </trkpt>
      <trkpt lat="48.44824" lon="-2.13874">
        <ele>93.36</ele>
        <time>2025-06-04T07:15:21.759Z</time>
      </trkpt>
      <trkpt lat="48.44827" lon="-2.13874">
        <ele>93.3</ele>
        <time>2025-06-04T07:15:20.817Z</time>
      </trkpt>
      <trkpt lat="48.44831" lon="-2.13873">
        <ele>93.229996</ele>
        <time>2025-06-04T07:15:19.953Z</time>
      </trkpt>
      <trkpt lat="48.44835" lon="-2.13873">
        <ele>93.18</ele>
        <time>2025-06-04T07:15:19.096Z</time>
      </trkpt>
      <trkpt lat="48.44838" lon="-2.13872">
        <ele>93.13</ele>
        <time>2025-06-04T07:15:18.153Z</time>
      </trkpt>
      <trkpt lat="48.44841" lon="-2.13871">
        <ele>93.09</ele>
        <time>2025-06-04T07:15:16.844Z</time>
      </trkpt>
      <trkpt lat="48.44844" lon="-2.1387">
        <ele>93.05</ele>
        <time>2025-06-04T07:15:15.799Z</time>
      </trkpt>
      <trkpt lat="48.44848" lon="-2.1387">
        <ele>93.01</ele>
        <time>2025-06-04T07:15:15.252Z</time>
      </trkpt>
      <trkpt lat="48.44851" lon="-2.1387">
        <ele>92.97</ele>
        <time>2025-06-04T07:15:14.157Z</time>
      </trkpt>
      <trkpt lat="48.44854" lon="-2.13871">
        <ele>92.94</ele>
        <time>2025-06-04T07:15:12.871Z</time>
      </trkpt>
      <trkpt lat="48.44858" lon="-2.13871">
        <ele>92.92</ele>
        <time>2025-06-04T07:15:11.772Z</time>
      </trkpt>
      <trkpt lat="48.44862" lon="-2.13872">
        <ele>92.9</ele>
        <time>2025-06-04T07:15:10.285Z</time>
      </trkpt>
      <trkpt lat="48.44865" lon="-2.13872">
        <ele>92.87</ele>
        <time>2025-06-04T07:15:09.895Z</time>
      </trkpt>
      <trkpt lat="48.44868" lon="-2.13873">
        <ele>92.84</ele>
        <time>2025-06-04T07:15:09.103Z</time>
      </trkpt>
      <trkpt lat="48.44872" lon="-2.13872">
        <ele>92.82</ele>
        <time>2025-06-04T07:15:07.409Z</time>
      </trkpt>
      <trkpt lat="48.44875" lon="-2.13871">
        <ele>92.82</ele>
        <time>2025-06-04T07:15:07.182Z</time>
      </trkpt>
      <trkpt lat="48.44878" lon="-2.13869">
        <ele>92.83</ele>
        <time>2025-06-04T07:15:06.276Z</time>
      </trkpt>
      <trkpt lat="48.4488" lon="-2.13866">
        <ele>92.84</ele>
        <time>2025-06-04T07:15:04.830Z</time>
      </trkpt>
      <trkpt lat="48.44882" lon="-2.13861">
        <ele>92.92</ele>
        <time>2025-06-04T07:15:04.262Z</time>
      </trkpt>
      <trkpt lat="48.44883" lon="-2.13852">
        <ele>92.97</ele>
        <time>2025-06-04T07:15:01.810Z</time>
      </trkpt>
      <trkpt lat="48.44883" lon="-2.13847">
        <ele>93.03</ele>
        <time>2025-06-04T07:15:00.906Z</time>
      </trkpt>
      <trkpt lat="48.44883" lon="-2.13842">
        <ele>93.08</ele>
        <time>2025-06-04T07:14:59.859Z</time>
      </trkpt>
      <trkpt lat="48.44884" lon="-2.13838">
        <ele>93.16</ele>
        <time>2025-06-04T07:14:58.772Z</time>
      </trkpt>
      <trkpt lat="48.44884" lon="-2.13834">
        <ele>93.229996</ele>
        <time>2025-06-04T07:14:57.790Z</time>
      </trkpt>
      <trkpt lat="48.44884" lon="-2.1383">
        <ele>93.32</ele>
        <time>2025-06-04T07:14:57.050Z</time>
      </trkpt>
      <trkpt lat="48.44884" lon="-2.13826">
        <ele>93.42</ele>
        <time>2025-06-04T07:14:56.246Z</time>
      </trkpt>
      <trkpt lat="48.44884" lon="-2.13822">
        <ele>93.520004</ele>
        <time>2025-06-04T07:14:55.259Z</time>
      </trkpt>
      <trkpt lat="48.44884" lon="-2.13818">
        <ele>93.63</ele>
        <time>2025-06-04T07:14:54.030Z</time>
      </trkpt>
      <trkpt lat="48.44885" lon="-2.13814">
        <ele>93.729996</ele>
        <time>2025-06-04T07:14:53.020Z</time>
      </trkpt>
      <trkpt lat="48.44885" lon="-2.1381">
        <ele>93.82</ele>
        <time>2025-06-04T07:14:52.266Z</time>
      </trkpt>
      <trkpt lat="48.44885" lon="-2.13806">
        <ele>93.92</ele>
        <time>2025-06-04T07:14:50.799Z</time>
      </trkpt>
      <trkpt lat="48.44885" lon="-2.13802">
        <ele>94.01</ele>
        <time>2025-06-04T07:14:50.095Z</time>
      </trkpt>
      <trkpt lat="48.44886" lon="-2.13797">
        <ele>94.14</ele>
        <time>2025-06-04T07:14:49.256Z</time>
      </trkpt>
      <trkpt lat="48.44886" lon="-2.13787">
        <ele>94.19</ele>
        <time>2025-06-04T07:14:47.719Z</time>
      </trkpt>
      <trkpt lat="48.44887" lon="-2.13782">
        <ele>94.24</ele>
        <time>2025-06-04T07:14:46.024Z</time>
      </trkpt>
      <trkpt lat="48.44887" lon="-2.13777">
        <ele>94.31</ele>
        <time>2025-06-04T07:14:45.251Z</time>
      </trkpt>
      <trkpt lat="48.44888" lon="-2.13768">
        <ele>94.32</ele>
        <time>2025-06-04T07:14:43.250Z</time>
      </trkpt>
      <trkpt lat="48.44889" lon="-2.13758">
        <ele>94.3</ele>
        <time>2025-06-04T07:14:41.244Z</time>
      </trkpt>
      <trkpt lat="48.4489" lon="-2.13749">
        <ele>94.229996</ele>
        <time>2025-06-04T07:14:39.259Z</time>
      </trkpt>
      <trkpt lat="48.44891" lon="-2.13744">
        <ele>94.06</ele>
        <time>2025-06-04T07:14:38.251Z</time>
      </trkpt>
      <trkpt lat="48.44893" lon="-2.13735">
        <ele>93.93</ele>
        <time>2025-06-04T07:14:36.257Z</time>
      </trkpt>
      <trkpt lat="48.44894" lon="-2.13732">
        <ele>93.61</ele>
        <time>2025-06-04T07:14:35.250Z</time>
      </trkpt>
      <trkpt lat="48.44899" lon="-2.13724">
        <ele>93.42</ele>
        <time>2025-06-04T07:14:33.270Z</time>
      </trkpt>
      <trkpt lat="48.44901" lon="-2.13721">
        <ele>93.22</ele>
        <time>2025-06-04T07:14:32.277Z</time>
      </trkpt>
      <trkpt lat="48.44904" lon="-2.13719">
        <ele>93.020004</ele>
        <time>2025-06-04T07:14:31.254Z</time>
      </trkpt>
      <trkpt lat="48.44906" lon="-2.13717">
        <ele>92.81</ele>
        <time>2025-06-04T07:14:30.251Z</time>
      </trkpt>
      <trkpt lat="48.4491" lon="-2.13715">
        <ele>92.61</ele>
        <time>2025-06-04T07:14:29.728Z</time>
      </trkpt>
      <trkpt lat="48.44913" lon="-2.13715">
        <ele>92.41</ele>
        <time>2025-06-04T07:14:28.259Z</time>
      </trkpt>
      <trkpt lat="48.44915" lon="-2.13715">
        <ele>92.2</ele>
        <time>2025-06-04T07:14:27.249Z</time>
      </trkpt>
      <trkpt lat="48.44919" lon="-2.13716">
        <ele>91.99</ele>
        <time>2025-06-04T07:14:26.267Z</time>
      </trkpt>
      <trkpt lat="48.44922" lon="-2.13718">
        <ele>91.78</ele>
        <time>2025-06-04T07:14:25.779Z</time>
      </trkpt>
      <trkpt lat="48.44925" lon="-2.1372">
        <ele>91.56</ele>
        <time>2025-06-04T07:14:24.785Z</time>
      </trkpt>
      <trkpt lat="48.44929" lon="-2.13722">
        <ele>91.31</ele>
        <time>2025-06-04T07:14:23.266Z</time>
      </trkpt>
      <trkpt lat="48.44932" lon="-2.13724">
        <ele>91.04</ele>
        <time>2025-06-04T07:14:22.269Z</time>
      </trkpt>
      <trkpt lat="48.44936" lon="-2.13726">
        <ele>90.82</ele>
        <time>2025-06-04T07:14:21.261Z</time>
      </trkpt>
      <trkpt lat="48.44939" lon="-2.13728">
        <ele>90.62</ele>
        <time>2025-06-04T07:14:20.271Z</time>
      </trkpt>
      <trkpt lat="48.44943" lon="-2.13731">
        <ele>90.43</ele>
        <time>2025-06-04T07:14:19.286Z</time>
      </trkpt>
      <trkpt lat="48.44947" lon="-2.13733">
        <ele>90.229996</ele>
        <time>2025-06-04T07:14:18.742Z</time>
      </trkpt>
      <trkpt lat="48.4495" lon="-2.13737">
        <ele>90.05</ele>
        <time>2025-06-04T07:14:17.776Z</time>
      </trkpt>
      <trkpt lat="48.44955" lon="-2.13739">
        <ele>89.91</ele>
        <time>2025-06-04T07:14:16.257Z</time>
      </trkpt>
      <trkpt lat="48.44958" lon="-2.13743">
        <ele>89.770004</ele>
        <time>2025-06-04T07:14:15.983Z</time>
      </trkpt>
      <trkpt lat="48.44961" lon="-2.13746">
        <ele>89.66</ele>
        <time>2025-06-04T07:14:14.250Z</time>
      </trkpt>
      <trkpt lat="48.44964" lon="-2.13749">
        <ele>89.55</ele>
        <time>2025-06-04T07:14:13.276Z</time>
      </trkpt>
      <trkpt lat="48.44968" lon="-2.13751">
        <ele>89.46</ele>
        <time>2025-06-04T07:14:12.266Z</time>
      </trkpt>
      <trkpt lat="48.44971" lon="-2.13753">
        <ele>89.37</ele>
        <time>2025-06-04T07:14:11.248Z</time>
      </trkpt>
      <trkpt lat="48.44974" lon="-2.13755">
        <ele>89.29</ele>
        <time>2025-06-04T07:14:10.264Z</time>
      </trkpt>
      <trkpt lat="48.44978" lon="-2.13757">
        <ele>89.229996</ele>
        <time>2025-06-04T07:14:09.248Z</time>
      </trkpt>
      <trkpt lat="48.44981" lon="-2.13759">
        <ele>89.2</ele>
        <time>2025-06-04T07:14:08.270Z</time>
      </trkpt>
      <trkpt lat="48.44985" lon="-2.13761">
        <ele>89.17</ele>
        <time>2025-06-04T07:14:07.259Z</time>
      </trkpt>
      <trkpt lat="48.44988" lon="-2.13763">
        <ele>89.16</ele>
        <time>2025-06-04T07:14:06.266Z</time>
      </trkpt>
      <trkpt lat="48.44992" lon="-2.13766">
        <ele>89.15</ele>
        <time>2025-06-04T07:14:05.244Z</time>
      </trkpt>
      <trkpt lat="48.44995" lon="-2.13768">
        <ele>89.16</ele>
        <time>2025-06-04T07:14:04.269Z</time>
      </trkpt>
      <trkpt lat="48.44999" lon="-2.1377">
        <ele>89.2</ele>
        <time>2025-06-04T07:14:03.279Z</time>
      </trkpt>
      <trkpt lat="48.45002" lon="-2.13772">
        <ele>89.229996</ele>
        <time>2025-06-04T07:14:02.263Z</time>
      </trkpt>
      <trkpt lat="48.45005" lon="-2.13774">
        <ele>89.28</ele>
        <time>2025-06-04T07:14:01.263Z</time>
      </trkpt>
      <trkpt lat="48.45008" lon="-2.13775">
        <ele>89.34</ele>
        <time>2025-06-04T07:14:00.258Z</time>
      </trkpt>
      <trkpt lat="48.45012" lon="-2.13777">
        <ele>89.42</ele>
        <time>2025-06-04T07:13:59.272Z</time>
      </trkpt>
      <trkpt lat="48.45014" lon="-2.13778">
        <ele>89.53</ele>
        <time>2025-06-04T07:13:58.272Z</time>
      </trkpt>
      <trkpt lat="48.45017" lon="-2.13779">
        <ele>89.62</ele>
        <time>2025-06-04T07:13:57.261Z</time>
      </trkpt>
      <trkpt lat="48.4502" lon="-2.1378">
        <ele>89.729996</ele>
        <time>2025-06-04T07:13:56.793Z</time>
      </trkpt>
      <trkpt lat="48.45023" lon="-2.13781">
        <ele>89.84</ele>
        <time>2025-06-04T07:13:55.746Z</time>
      </trkpt>
      <trkpt lat="48.45025" lon="-2.13781">
        <ele>89.96</ele>
        <time>2025-06-04T07:13:54.253Z</time>
      </trkpt>
      <trkpt lat="48.45028" lon="-2.13782">
        <ele>90.08</ele>
        <time>2025-06-04T07:13:53.271Z</time>
      </trkpt>
      <trkpt lat="48.45031" lon="-2.13783">
        <ele>90.19</ele>
        <time>2025-06-04T07:13:52.766Z</time>
      </trkpt>
      <trkpt lat="48.45034" lon="-2.13785">
        <ele>90.32</ele>
        <time>2025-06-04T07:13:52.043Z</time>
      </trkpt>
      <trkpt lat="48.45036" lon="-2.13786">
        <ele>90.45</ele>
        <time>2025-06-04T07:13:50.250Z</time>
      </trkpt>
      <trkpt lat="48.45037" lon="-2.13788">
        <ele>90.58</ele>
        <time>2025-06-04T07:13:49.261Z</time>
      </trkpt>
      <trkpt lat="48.45039" lon="-2.13791">
        <ele>90.7</ele>
        <time>2025-06-04T07:13:48.810Z</time>
      </trkpt>
      <trkpt lat="48.45041" lon="-2.13795">
        <ele>90.89</ele>
        <time>2025-06-04T07:13:47.014Z</time>
      </trkpt>
      <trkpt lat="48.45043" lon="-2.13801">
        <ele>90.96</ele>
        <time>2025-06-04T07:13:45.257Z</time>
      </trkpt>
      <trkpt lat="48.45043" lon="-2.13806">
        <ele>91.01</ele>
        <time>2025-06-04T07:13:44.260Z</time>
      </trkpt>
      <trkpt lat="48.45043" lon="-2.13811">
        <ele>91.06</ele>
        <time>2025-06-04T07:13:44.030Z</time>
      </trkpt>
      <trkpt lat="48.45044" lon="-2.13815">
        <ele>91.1</ele>
        <time>2025-06-04T07:13:42.756Z</time>
      </trkpt>
      <trkpt lat="48.45044" lon="-2.13819">
        <ele>91.1</ele>
        <time>2025-06-04T07:13:40.899Z</time>
      </trkpt>
      <trkpt lat="48.45044" lon="-2.13822">
        <ele>91.12</ele>
        <time>2025-06-04T07:13:40.180Z</time>
      </trkpt>
      <trkpt lat="48.45043" lon="-2.13829">
        <ele>91.1</ele>
        <time>2025-06-04T07:13:38.249Z</time>
      </trkpt>
      <trkpt lat="48.45043" lon="-2.13832">
        <ele>91.07</ele>
        <time>2025-06-04T07:13:37.265Z</time>
      </trkpt>
      <trkpt lat="48.45043" lon="-2.13835">
        <ele>91.04</ele>
        <time>2025-06-04T07:13:36.260Z</time>
      </trkpt>
      <trkpt lat="48.45042" lon="-2.13838">
        <ele>90.979996</ele>
        <time>2025-06-04T07:13:35.777Z</time>
      </trkpt>
      <trkpt lat="48.45042" lon="-2.13842">
        <ele>90.85</ele>
        <time>2025-06-04T07:13:33.740Z</time>
      </trkpt>
      <trkpt lat="48.45042" lon="-2.13847">
        <ele>90.76</ele>
        <time>2025-06-04T07:13:32.864Z</time>
      </trkpt>
      <trkpt lat="48.45042" lon="-2.1385">
        <ele>90.67</ele>
        <time>2025-06-04T07:13:31.801Z</time>
      </trkpt>
      <trkpt lat="48.45041" lon="-2.13852">
        <ele>90.55</ele>
        <time>2025-06-04T07:13:30.756Z</time>
      </trkpt>
      <trkpt lat="48.45041" lon="-2.13855">
        <ele>90.42</ele>
        <time>2025-06-04T07:13:30.111Z</time>
      </trkpt>
      <trkpt lat="48.45041" lon="-2.13858">
        <ele>90.28</ele>
        <time>2025-06-04T07:13:28.260Z</time>
      </trkpt>
      <trkpt lat="48.45041" lon="-2.13862">
        <ele>90.15</ele>
        <time>2025-06-04T07:13:27.207Z</time>
      </trkpt>
      <trkpt lat="48.4504" lon="-2.13866">
        <ele>90.020004</ele>
        <time>2025-06-04T07:13:26.268Z</time>
      </trkpt>
      <trkpt lat="48.4504" lon="-2.1387">
        <ele>89.9</ele>
        <time>2025-06-04T07:13:25.217Z</time>
      </trkpt>
      <trkpt lat="48.45039" lon="-2.13874">
        <ele>89.770004</ele>
        <time>2025-06-04T07:13:24.214Z</time>
      </trkpt>
      <trkpt lat="48.45039" lon="-2.13879">
        <ele>89.66</ele>
        <time>2025-06-04T07:13:23.820Z</time>
      </trkpt>
      <trkpt lat="48.45038" lon="-2.13883">
        <ele>89.53</ele>
        <time>2025-06-04T07:13:22.778Z</time>
      </trkpt>
      <trkpt lat="48.45037" lon="-2.13888">
        <ele>89.35</ele>
        <time>2025-06-04T07:13:21.136Z</time>
      </trkpt>
      <trkpt lat="48.45036" lon="-2.13897">
        <ele>89.28</ele>
        <time>2025-06-04T07:13:19.192Z</time>
      </trkpt>
      <trkpt lat="48.45036" lon="-2.13903">
        <ele>89.21</ele>
        <time>2025-06-04T07:13:18.775Z</time>
      </trkpt>
      <trkpt lat="48.45037" lon="-2.13907">
        <ele>89.15</ele>
        <time>2025-06-04T07:13:17.817Z</time>
      </trkpt>
      <trkpt lat="48.45038" lon="-2.13913">
        <ele>89.11</ele>
        <time>2025-06-04T07:13:16.045Z</time>
      </trkpt>
      <trkpt lat="48.4504" lon="-2.13917">
        <ele>89.05</ele>
        <time>2025-06-04T07:13:14.990Z</time>
      </trkpt>
      <trkpt lat="48.45042" lon="-2.13922">
        <ele>88.93</ele>
        <time>2025-06-04T07:13:14.111Z</time>
      </trkpt>
      <trkpt lat="48.45044" lon="-2.13932">
        <ele>88.87</ele>
        <time>2025-06-04T07:13:12.263Z</time>
      </trkpt>
      <trkpt lat="48.45046" lon="-2.13938">
        <ele>88.78</ele>
        <time>2025-06-04T07:13:11.199Z</time>
      </trkpt>
      <trkpt lat="48.45047" lon="-2.13944">
        <ele>88.69</ele>
        <time>2025-06-04T07:13:10.802Z</time>
      </trkpt>
      <trkpt lat="48.45048" lon="-2.1395">
        <ele>88.6</ele>
        <time>2025-06-04T07:13:09.262Z</time>
      </trkpt>
      <trkpt lat="48.45049" lon="-2.13955">
        <ele>88.51</ele>
        <time>2025-06-04T07:13:08.266Z</time>
      </trkpt>
      <trkpt lat="48.4505" lon="-2.13962">
        <ele>88.44</ele>
        <time>2025-06-04T07:13:07.242Z</time>
      </trkpt>
      <trkpt lat="48.4505" lon="-2.13967">
        <ele>88.39</ele>
        <time>2025-06-04T07:13:06.272Z</time>
      </trkpt>
      <trkpt lat="48.45052" lon="-2.13971">
        <ele>88.33</ele>
        <time>2025-06-04T07:13:05.793Z</time>
      </trkpt>
      <trkpt lat="48.45053" lon="-2.13977">
        <ele>88.31</ele>
        <time>2025-06-04T07:13:04.274Z</time>
      </trkpt>
      <trkpt lat="48.45055" lon="-2.13981">
        <ele>88.3</ele>
        <time>2025-06-04T07:13:04.035Z</time>
      </trkpt>
      <trkpt lat="48.45057" lon="-2.13986">
        <ele>88.27</ele>
        <time>2025-06-04T07:13:03.042Z</time>
      </trkpt>
      <trkpt lat="48.45058" lon="-2.13991">
        <ele>88.24</ele>
        <time>2025-06-04T07:13:02.073Z</time>
      </trkpt>
      <trkpt lat="48.4506" lon="-2.13995">
        <ele>88.21</ele>
        <time>2025-06-04T07:13:00.841Z</time>
      </trkpt>
      <trkpt lat="48.45061" lon="-2.14">
        <ele>88.18</ele>
        <time>2025-06-04T07:13:00.055Z</time>
      </trkpt>
      <trkpt lat="48.45062" lon="-2.14006">
        <ele>88.16</ele>
        <time>2025-06-04T07:12:58.711Z</time>
      </trkpt>
      <trkpt lat="48.45063" lon="-2.14012">
        <ele>88.14</ele>
        <time>2025-06-04T07:12:58.065Z</time>
      </trkpt>
      <trkpt lat="48.45065" lon="-2.14017">
        <ele>88.15</ele>
        <time>2025-06-04T07:12:56.731Z</time>
      </trkpt>
      <trkpt lat="48.45066" lon="-2.14023">
        <ele>88.14</ele>
        <time>2025-06-04T07:12:54.793Z</time>
      </trkpt>
      <trkpt lat="48.45068" lon="-2.14029">
        <ele>88.14</ele>
        <time>2025-06-04T07:12:54.106Z</time>
      </trkpt>
      <trkpt lat="48.45073" lon="-2.14039">
        <ele>88.16</ele>
        <time>2025-06-04T07:12:52.206Z</time>
      </trkpt>
      <trkpt lat="48.45075" lon="-2.14044">
        <ele>88.17</ele>
        <time>2025-06-04T07:12:51.210Z</time>
      </trkpt>
      <trkpt lat="48.45078" lon="-2.1405">
        <ele>88.17</ele>
        <time>2025-06-04T07:12:50.275Z</time>
      </trkpt>
      <trkpt lat="48.45081" lon="-2.14057">
        <ele>88.16</ele>
        <time>2025-06-04T07:12:49.734Z</time>
      </trkpt>
      <trkpt lat="48.45083" lon="-2.14062">
        <ele>88.14</ele>
        <time>2025-06-04T07:12:48.828Z</time>
      </trkpt>
      <trkpt lat="48.45085" lon="-2.14067">
        <ele>88.1</ele>
        <time>2025-06-04T07:12:47.265Z</time>
      </trkpt>
      <trkpt lat="48.45087" lon="-2.14074">
        <ele>87.99</ele>
        <time>2025-06-04T07:12:45.797Z</time>
      </trkpt>
      <trkpt lat="48.4509" lon="-2.14086">
        <ele>87.93</ele>
        <time>2025-06-04T07:12:44.283Z</time>
      </trkpt>
      <trkpt lat="48.45092" lon="-2.14091">
        <ele>87.86</ele>
        <time>2025-06-04T07:12:43.710Z</time>
      </trkpt>
      <trkpt lat="48.45094" lon="-2.14098">
        <ele>87.79</ele>
        <time>2025-06-04T07:12:42.970Z</time>
      </trkpt>
      <trkpt lat="48.45095" lon="-2.14104">
        <ele>87.72</ele>
        <time>2025-06-04T07:12:41.720Z</time>
      </trkpt>
      <trkpt lat="48.45097" lon="-2.14113">
        <ele>87.66</ele>
        <time>2025-06-04T07:12:40.707Z</time>
      </trkpt>
      <trkpt lat="48.45098" lon="-2.14116">
        <ele>87.57</ele>
        <time>2025-06-04T07:12:39.743Z</time>
      </trkpt>
      <trkpt lat="48.45099" lon="-2.14124">
        <ele>87.42</ele>
        <time>2025-06-04T07:12:37.733Z</time>
      </trkpt>
      <trkpt lat="48.45102" lon="-2.14135">
        <ele>87.33</ele>
        <time>2025-06-04T07:12:36.735Z</time>
      </trkpt>
      <trkpt lat="48.45103" lon="-2.14143">
        <ele>87.18</ele>
        <time>2025-06-04T07:12:34.748Z</time>
      </trkpt>
      <trkpt lat="48.45105" lon="-2.14154">
        <ele>87.1</ele>
        <time>2025-06-04T07:12:34.057Z</time>
      </trkpt>
      <trkpt lat="48.45105" lon="-2.14159">
        <ele>87.01</ele>
        <time>2025-06-04T07:12:33.130Z</time>
      </trkpt>
      <trkpt lat="48.45106" lon="-2.14165">
        <ele>86.86</ele>
        <time>2025-06-04T07:12:31.117Z</time>
      </trkpt>
      <trkpt lat="48.45107" lon="-2.14176">
        <ele>86.73</ele>
        <time>2025-06-04T07:12:29.092Z</time>
      </trkpt>
      <trkpt lat="48.45106" lon="-2.14186">
        <ele>86.67</ele>
        <time>2025-06-04T07:12:27.257Z</time>
      </trkpt>
      <trkpt lat="48.45106" lon="-2.14191">
        <ele>86.61</ele>
        <time>2025-06-04T07:12:26.250Z</time>
      </trkpt>
      <trkpt lat="48.45106" lon="-2.14197">
        <ele>86.55</ele>
        <time>2025-06-04T07:12:26.125Z</time>
      </trkpt>
      <trkpt lat="48.45106" lon="-2.14203">
        <ele>86.5</ele>
        <time>2025-06-04T07:12:24.171Z</time>
      </trkpt>
      <trkpt lat="48.45105" lon="-2.14209">
        <ele>86.46</ele>
        <time>2025-06-04T07:12:23.183Z</time>
      </trkpt>
      <trkpt lat="48.45105" lon="-2.14214">
        <ele>86.41</ele>
        <time>2025-06-04T07:12:22.196Z</time>
      </trkpt>
      <trkpt lat="48.45105" lon="-2.14221">
        <ele>86.38</ele>
        <time>2025-06-04T07:12:22.046Z</time>
      </trkpt>
      <trkpt lat="48.45104" lon="-2.14226">
        <ele>86.35</ele>
        <time>2025-06-04T07:12:21.042Z</time>
      </trkpt>
      <trkpt lat="48.45104" lon="-2.14231">
        <ele>86.32</ele>
        <time>2025-06-04T07:12:19.270Z</time>
      </trkpt>
      <trkpt lat="48.45104" lon="-2.14237">
        <ele>86.29</ele>
        <time>2025-06-04T07:12:18.771Z</time>
      </trkpt>
      <trkpt lat="48.45104" lon="-2.14242">
        <ele>86.28</ele>
        <time>2025-06-04T07:12:17.140Z</time>
      </trkpt>
      <trkpt lat="48.45104" lon="-2.14247">
        <ele>86.26</ele>
        <time>2025-06-04T07:12:16.280Z</time>
      </trkpt>
      <trkpt lat="48.45104" lon="-2.14253">
        <ele>86.26</ele>
        <time>2025-06-04T07:12:15.266Z</time>
      </trkpt>
      <trkpt lat="48.45105" lon="-2.14258">
        <ele>86.26</ele>
        <time>2025-06-04T07:12:15.010Z</time>
      </trkpt>
      <trkpt lat="48.45105" lon="-2.14264">
        <ele>86.27</ele>
        <time>2025-06-04T07:12:13.788Z</time>
      </trkpt>
      <trkpt lat="48.45105" lon="-2.14269">
        <ele>86.28</ele>
        <time>2025-06-04T07:12:12.697Z</time>
      </trkpt>
      <trkpt lat="48.45106" lon="-2.14274">
        <ele>86.28</ele>
        <time>2025-06-04T07:12:11.984Z</time>
      </trkpt>
      <trkpt lat="48.45107" lon="-2.14279">
        <ele>86.27</ele>
        <time>2025-06-04T07:12:10.783Z</time>
      </trkpt>
      <trkpt lat="48.45108" lon="-2.14284">
        <ele>86.26</ele>
        <time>2025-06-04T07:12:09.804Z</time>
      </trkpt>
      <trkpt lat="48.4511" lon="-2.14288">
        <ele>86.25</ele>
        <time>2025-06-04T07:12:08.260Z</time>
      </trkpt>
      <trkpt lat="48.45111" lon="-2.14292">
        <ele>86.23</ele>
        <time>2025-06-04T07:12:07.809Z</time>
      </trkpt>
      <trkpt lat="48.45112" lon="-2.14296">
        <ele>86.21</ele>
        <time>2025-06-04T07:12:07.066Z</time>
      </trkpt>
      <trkpt lat="48.45113" lon="-2.14299">
        <ele>86.19</ele>
        <time>2025-06-04T07:12:05.760Z</time>
      </trkpt>
      <trkpt lat="48.45115" lon="-2.14304">
        <ele>86.17</ele>
        <time>2025-06-04T07:12:04.707Z</time>
      </trkpt>
      <trkpt lat="48.45116" lon="-2.14309">
        <ele>86.13</ele>
        <time>2025-06-04T07:12:03.172Z</time>
      </trkpt>
      <trkpt lat="48.45118" lon="-2.14315">
        <ele>86.09</ele>
        <time>2025-06-04T07:12:02.984Z</time>
      </trkpt>
      <trkpt lat="48.4512" lon="-2.1432">
        <ele>86.04</ele>
        <time>2025-06-04T07:12:01.828Z</time>
      </trkpt>
      <trkpt lat="48.45122" lon="-2.14325">
        <ele>85.97</ele>
        <time>2025-06-04T07:12:00.723Z</time>
      </trkpt>
      <trkpt lat="48.45124" lon="-2.1433">
        <ele>85.9</ele>
        <time>2025-06-04T07:11:59.764Z</time>
      </trkpt>
      <trkpt lat="48.45127" lon="-2.14335">
        <ele>85.81</ele>
        <time>2025-06-04T07:11:59.071Z</time>
      </trkpt>
      <trkpt lat="48.4513" lon="-2.1434">
        <ele>85.72</ele>
        <time>2025-06-04T07:11:58.104Z</time>
      </trkpt>
      <trkpt lat="48.45133" lon="-2.14344">
        <ele>85.61</ele>
        <time>2025-06-04T07:11:56.265Z</time>
      </trkpt>
      <trkpt lat="48.45136" lon="-2.14349">
        <ele>85.5</ele>
        <time>2025-06-04T07:11:56.065Z</time>
      </trkpt>
      <trkpt lat="48.45139" lon="-2.14353">
        <ele>85.37</ele>
        <time>2025-06-04T07:11:54.191Z</time>
      </trkpt>
      <trkpt lat="48.45143" lon="-2.14358">
        <ele>85.25</ele>
        <time>2025-06-04T07:11:53.109Z</time>
      </trkpt>
      <trkpt lat="48.45146" lon="-2.14361">
        <ele>85.12</ele>
        <time>2025-06-04T07:11:53.068Z</time>
      </trkpt>
      <trkpt lat="48.45149" lon="-2.14365">
        <ele>84.99</ele>
        <time>2025-06-04T07:11:51.179Z</time>
      </trkpt>
      <trkpt lat="48.45153" lon="-2.14368">
        <ele>84.84</ele>
        <time>2025-06-04T07:11:50.109Z</time>
      </trkpt>
      <trkpt lat="48.45156" lon="-2.14372">
        <ele>84.66</ele>
        <time>2025-06-04T07:11:49.955Z</time>
      </trkpt>
      <trkpt lat="48.4516" lon="-2.14376">
        <ele>84.33</ele>
        <time>2025-06-04T07:11:47.990Z</time>
      </trkpt>
      <trkpt lat="48.45165" lon="-2.14379">
        <ele>84.15</ele>
        <time>2025-06-04T07:11:46.113Z</time>
      </trkpt>
      <trkpt lat="48.45168" lon="-2.1438">
        <ele>84</ele>
        <time>2025-06-04T07:11:45.096Z</time>
      </trkpt>
      <trkpt lat="48.45172" lon="-2.14381">
        <ele>83.83</ele>
        <time>2025-06-04T07:11:44.823Z</time>
      </trkpt>
      <trkpt lat="48.45176" lon="-2.14382">
        <ele>83.66</ele>
        <time>2025-06-04T07:11:43.735Z</time>
      </trkpt>
      <trkpt lat="48.4518" lon="-2.14383">
        <ele>83.49</ele>
        <time>2025-06-04T07:11:43.082Z</time>
      </trkpt>
      <trkpt lat="48.45184" lon="-2.14384">
        <ele>83.34</ele>
        <time>2025-06-04T07:11:41.822Z</time>
      </trkpt>
      <trkpt lat="48.45189" lon="-2.14385">
        <ele>83.21</ele>
        <time>2025-06-04T07:11:40.114Z</time>
      </trkpt>
      <trkpt lat="48.45192" lon="-2.14385">
        <ele>83.07</ele>
        <time>2025-06-04T07:11:39.808Z</time>
      </trkpt>
      <trkpt lat="48.45198" lon="-2.14386">
        <ele>82.97</ele>
        <time>2025-06-04T07:11:38.116Z</time>
      </trkpt>
      <trkpt lat="48.452" lon="-2.14387">
        <ele>82.87</ele>
        <time>2025-06-04T07:11:37.972Z</time>
      </trkpt>
      <trkpt lat="48.45204" lon="-2.14387">
        <ele>82.8</ele>
        <time>2025-06-04T07:11:36.847Z</time>
      </trkpt>
      <trkpt lat="48.45208" lon="-2.14388">
        <ele>82.72</ele>
        <time>2025-06-04T07:11:36.036Z</time>
      </trkpt>
      <trkpt lat="48.45212" lon="-2.14389">
        <ele>82.65</ele>
        <time>2025-06-04T07:11:34.637Z</time>
      </trkpt>
      <trkpt lat="48.45215" lon="-2.1439">
        <ele>82.58</ele>
        <time>2025-06-04T07:11:33.962Z</time>
      </trkpt>
      <trkpt lat="48.4522" lon="-2.1439">
        <ele>82.5</ele>
        <time>2025-06-04T07:11:32.660Z</time>
      </trkpt>
      <trkpt lat="48.45224" lon="-2.1439">
        <ele>82.43</ele>
        <time>2025-06-04T07:11:32.007Z</time>
      </trkpt>
      <trkpt lat="48.45227" lon="-2.14389">
        <ele>82.35</ele>
        <time>2025-06-04T07:11:30.091Z</time>
      </trkpt>
      <trkpt lat="48.4523" lon="-2.14388">
        <ele>82.26</ele>
        <time>2025-06-04T07:11:29.096Z</time>
      </trkpt>
      <trkpt lat="48.45234" lon="-2.14388">
        <ele>82.16</ele>
        <time>2025-06-04T07:11:29.072Z</time>
      </trkpt>
      <trkpt lat="48.45238" lon="-2.14386">
        <ele>82.08</ele>
        <time>2025-06-04T07:11:27.134Z</time>
      </trkpt>
      <trkpt lat="48.45242" lon="-2.14384">
        <ele>81.99</ele>
        <time>2025-06-04T07:11:27.022Z</time>
      </trkpt>
      <trkpt lat="48.45246" lon="-2.14383">
        <ele>81.9</ele>
        <time>2025-06-04T07:11:25.268Z</time>
      </trkpt>
      <trkpt lat="48.4525" lon="-2.14383">
        <ele>81.81</ele>
        <time>2025-06-04T07:11:24.956Z</time>
      </trkpt>
      <trkpt lat="48.45253" lon="-2.14383">
        <ele>81.71</ele>
        <time>2025-06-04T07:11:24.045Z</time>
      </trkpt>
      <trkpt lat="48.45256" lon="-2.14383">
        <ele>81.61</ele>
        <time>2025-06-04T07:11:22.879Z</time>
      </trkpt>
      <trkpt lat="48.45259" lon="-2.14383">
        <ele>81.5</ele>
        <time>2025-06-04T07:11:21.157Z</time>
      </trkpt>
      <trkpt lat="48.45262" lon="-2.14384">
        <ele>81.38</ele>
        <time>2025-06-04T07:11:20.984Z</time>
      </trkpt>
      <trkpt lat="48.45265" lon="-2.14385">
        <ele>81.28</ele>
        <time>2025-06-04T07:11:19.898Z</time>
      </trkpt>
      <trkpt lat="48.45267" lon="-2.14386">
        <ele>81.17</ele>
        <time>2025-06-04T07:11:18.924Z</time>
      </trkpt>
      <trkpt lat="48.45271" lon="-2.14387">
        <ele>81</ele>
        <time>2025-06-04T07:11:18.020Z</time>
      </trkpt>
      <trkpt lat="48.45274" lon="-2.14389">
        <ele>80.83</ele>
        <time>2025-06-04T07:11:17.044Z</time>
      </trkpt>
      <trkpt lat="48.45276" lon="-2.14391">
        <ele>80.65</ele>
        <time>2025-06-04T07:11:15.077Z</time>
      </trkpt>
      <trkpt lat="48.45279" lon="-2.14391">
        <ele>80.46</ele>
        <time>2025-06-04T07:11:15.025Z</time>
      </trkpt>
      <trkpt lat="48.45281" lon="-2.14392">
        <ele>80.26</ele>
        <time>2025-06-04T07:11:13.783Z</time>
      </trkpt>
      <trkpt lat="48.45284" lon="-2.14393">
        <ele>80.02</ele>
        <time>2025-06-04T07:11:13.004Z</time>
      </trkpt>
      <trkpt lat="48.45287" lon="-2.14394">
        <ele>79.79</ele>
        <time>2025-06-04T07:11:11.099Z</time>
      </trkpt>
      <trkpt lat="48.4529" lon="-2.14394">
        <ele>79.53</ele>
        <time>2025-06-04T07:11:11.020Z</time>
      </trkpt>
      <trkpt lat="48.45293" lon="-2.14394">
        <ele>79.31</ele>
        <time>2025-06-04T07:11:09.103Z</time>
      </trkpt>
      <trkpt lat="48.45296" lon="-2.14395">
        <ele>79.06</ele>
        <time>2025-06-04T07:11:08.796Z</time>
      </trkpt>
      <trkpt lat="48.45299" lon="-2.14396">
        <ele>78.82</ele>
        <time>2025-06-04T07:11:07.734Z</time>
      </trkpt>
      <trkpt lat="48.45303" lon="-2.14398">
        <ele>78.62</ele>
        <time>2025-06-04T07:11:06.119Z</time>
      </trkpt>
      <trkpt lat="48.45306" lon="-2.144">
        <ele>78.4</ele>
        <time>2025-06-04T07:11:05.097Z</time>
      </trkpt>
      <trkpt lat="48.45309" lon="-2.14402">
        <ele>78.17</ele>
        <time>2025-06-04T07:11:04.500Z</time>
      </trkpt>
      <trkpt lat="48.45313" lon="-2.14405">
        <ele>77.97</ele>
        <time>2025-06-04T07:11:03.070Z</time>
      </trkpt>
      <trkpt lat="48.45316" lon="-2.14408">
        <ele>77.8</ele>
        <time>2025-06-04T07:11:02.113Z</time>
      </trkpt>
      <trkpt lat="48.45319" lon="-2.14411">
        <ele>77.61</ele>
        <time>2025-06-04T07:11:01.079Z</time>
      </trkpt>
      <trkpt lat="48.45321" lon="-2.14414">
        <ele>77.47</ele>
        <time>2025-06-04T07:11:00.145Z</time>
      </trkpt>
      <trkpt lat="48.45324" lon="-2.14417">
        <ele>77.32</ele>
        <time>2025-06-04T07:10:59.065Z</time>
      </trkpt>
      <trkpt lat="48.45326" lon="-2.1442">
        <ele>77.2</ele>
        <time>2025-06-04T07:10:58.098Z</time>
      </trkpt>
      <trkpt lat="48.45329" lon="-2.14423">
        <ele>77.08</ele>
        <time>2025-06-04T07:10:57.081Z</time>
      </trkpt>
      <trkpt lat="48.45331" lon="-2.14426">
        <ele>76.97</ele>
        <time>2025-06-04T07:10:56.693Z</time>
      </trkpt>
      <trkpt lat="48.45334" lon="-2.14429">
        <ele>76.85</ele>
        <time>2025-06-04T07:10:56.028Z</time>
      </trkpt>
      <trkpt lat="48.45337" lon="-2.14433">
        <ele>76.76</ele>
        <time>2025-06-04T07:10:54.057Z</time>
      </trkpt>
      <trkpt lat="48.45339" lon="-2.14435">
        <ele>76.67</ele>
        <time>2025-06-04T07:10:54.043Z</time>
      </trkpt>
      <trkpt lat="48.45341" lon="-2.14439">
        <ele>76.57</ele>
        <time>2025-06-04T07:10:52.160Z</time>
      </trkpt>
      <trkpt lat="48.45342" lon="-2.14441">
        <ele>76.51</ele>
        <time>2025-06-04T07:10:51.995Z</time>
      </trkpt>
      <trkpt lat="48.45343" lon="-2.14444">
        <ele>76.45</ele>
        <time>2025-06-04T07:10:50.098Z</time>
      </trkpt>
      <trkpt lat="48.45344" lon="-2.14446">
        <ele>76.32</ele>
        <time>2025-06-04T07:10:49.098Z</time>
      </trkpt>
      <trkpt lat="48.45344" lon="-2.14448">
        <ele>76.24</ele>
        <time>2025-06-04T07:10:47.985Z</time>
      </trkpt>
      <trkpt lat="48.45344" lon="-2.14449">
        <ele>76.15</ele>
        <time>2025-06-04T07:10:46.096Z</time>
      </trkpt>
      <trkpt lat="48.45344" lon="-2.1445">
        <ele>75.62</ele>
        <time>2025-06-04T07:10:43.267Z</time>
      </trkpt>
      <trkpt lat="48.45351" lon="-2.14457">
        <ele>75.22</ele>
        <time>2025-06-04T07:10:38.306Z</time>
      </trkpt>
      <trkpt lat="48.45353" lon="-2.14459">
        <ele>75.11</ele>
        <time>2025-06-04T07:10:36.475Z</time>
      </trkpt>
      <trkpt lat="48.45355" lon="-2.14461">
        <ele>74.96</ele>
        <time>2025-06-04T07:10:36.279Z</time>
      </trkpt>
      <trkpt lat="48.45357" lon="-2.14463">
        <ele>74.89</ele>
        <time>2025-06-04T07:10:35.297Z</time>
      </trkpt>
      <trkpt lat="48.45359" lon="-2.14466">
        <ele>74.83</ele>
        <time>2025-06-04T07:10:34.264Z</time>
      </trkpt>
      <trkpt lat="48.4536" lon="-2.14468">
        <ele>74.76</ele>
        <time>2025-06-04T07:10:33.219Z</time>
      </trkpt>
      <trkpt lat="48.45362" lon="-2.14472">
        <ele>74.66</ele>
        <time>2025-06-04T07:10:31.947Z</time>
      </trkpt>
      <trkpt lat="48.45363" lon="-2.14476">
        <ele>74.58</ele>
        <time>2025-06-04T07:10:31.228Z</time>
      </trkpt>
      <trkpt lat="48.45363" lon="-2.1448">
        <ele>74.49</ele>
        <time>2025-06-04T07:10:30.187Z</time>
      </trkpt>
      <trkpt lat="48.45364" lon="-2.14484">
        <ele>74.35</ele>
        <time>2025-06-04T07:10:29.108Z</time>
      </trkpt>
      <trkpt lat="48.45365" lon="-2.14488">
        <ele>74.24</ele>
        <time>2025-06-04T07:10:28.056Z</time>
      </trkpt>
      <trkpt lat="48.45366" lon="-2.14492">
        <ele>74.1</ele>
        <time>2025-06-04T07:10:27.211Z</time>
      </trkpt>
      <trkpt lat="48.45367" lon="-2.14496">
        <ele>73.93</ele>
        <time>2025-06-04T07:10:26.247Z</time>
      </trkpt>
      <trkpt lat="48.45368" lon="-2.14499">
        <ele>73.74</ele>
        <time>2025-06-04T07:10:24.650Z</time>
      </trkpt>
      <trkpt lat="48.45369" lon="-2.14502">
        <ele>73.58</ele>
        <time>2025-06-04T07:10:24.029Z</time>
      </trkpt>
      <trkpt lat="48.4537" lon="-2.14504">
        <ele>73.41</ele>
        <time>2025-06-04T07:10:23.297Z</time>
      </trkpt>
      <trkpt lat="48.45371" lon="-2.14507">
        <ele>73.26</ele>
        <time>2025-06-04T07:10:22.244Z</time>
      </trkpt>
      <trkpt lat="48.45372" lon="-2.1451">
        <ele>73.08</ele>
        <time>2025-06-04T07:10:20.600Z</time>
      </trkpt>
      <trkpt lat="48.45374" lon="-2.14513">
        <ele>72.91</ele>
        <time>2025-06-04T07:10:20.197Z</time>
      </trkpt>
      <trkpt lat="48.45376" lon="-2.14515">
        <ele>72.75</ele>
        <time>2025-06-04T07:10:19.219Z</time>
      </trkpt>
      <trkpt lat="48.45378" lon="-2.14517">
        <ele>72.65</ele>
        <time>2025-06-04T07:10:18.149Z</time>
      </trkpt>
      <trkpt lat="48.45381" lon="-2.14518">
        <ele>72.55</ele>
        <time>2025-06-04T07:10:16.513Z</time>
      </trkpt>
      <trkpt lat="48.45383" lon="-2.14519">
        <ele>72.49</ele>
        <time>2025-06-04T07:10:16.021Z</time>
      </trkpt>
      <trkpt lat="48.45386" lon="-2.14521">
        <ele>72.44</ele>
        <time>2025-06-04T07:10:15.241Z</time>
      </trkpt>
      <trkpt lat="48.45388" lon="-2.14525">
        <ele>72.34</ele>
        <time>2025-06-04T07:10:13.209Z</time>
      </trkpt>
      <trkpt lat="48.45388" lon="-2.14527">
        <ele>72.3</ele>
        <time>2025-06-04T07:10:10.309Z</time>
      </trkpt>
      <trkpt lat="48.45389" lon="-2.14528">
        <ele>72.03</ele>
        <time>2025-06-04T07:10:08.262Z</time>
      </trkpt>
      <trkpt lat="48.45391" lon="-2.14532">
        <ele>71.95</ele>
        <time>2025-06-04T07:10:02.741Z</time>
      </trkpt>
      <trkpt lat="48.45393" lon="-2.14533">
        <ele>71.91</ele>
        <time>2025-06-04T07:10:01.075Z</time>
      </trkpt>
      <trkpt lat="48.45395" lon="-2.14534">
        <ele>71.89</ele>
        <time>2025-06-04T07:10:00.132Z</time>
      </trkpt>
      <trkpt lat="48.45397" lon="-2.14534">
        <ele>71.87</ele>
        <time>2025-06-04T07:09:59.216Z</time>
      </trkpt>
      <trkpt lat="48.45399" lon="-2.14535">
        <ele>71.86</ele>
        <time>2025-06-04T07:09:58.263Z</time>
      </trkpt>
      <trkpt lat="48.45401" lon="-2.14537">
        <ele>71.85</ele>
        <time>2025-06-04T07:09:58.013Z</time>
      </trkpt>
      <trkpt lat="48.45404" lon="-2.14538">
        <ele>71.85</ele>
        <time>2025-06-04T07:09:56.745Z</time>
      </trkpt>
      <trkpt lat="48.45406" lon="-2.1454">
        <ele>71.85</ele>
        <time>2025-06-04T07:09:55.979Z</time>
      </trkpt>
      <trkpt lat="48.45407" lon="-2.14542">
        <ele>71.86</ele>
        <time>2025-06-04T07:09:54.814Z</time>
      </trkpt>
      <trkpt lat="48.45409" lon="-2.14543">
        <ele>71.88</ele>
        <time>2025-06-04T07:09:53.228Z</time>
      </trkpt>
      <trkpt lat="48.45411" lon="-2.14546">
        <ele>71.9</ele>
        <time>2025-06-04T07:09:52.854Z</time>
      </trkpt>
      <trkpt lat="48.45413" lon="-2.14549">
        <ele>71.92</ele>
        <time>2025-06-04T07:09:51.123Z</time>
      </trkpt>
      <trkpt lat="48.45414" lon="-2.14549">
        <ele>71.979996</ele>
        <time>2025-06-04T07:09:48.687Z</time>
      </trkpt>
      <trkpt lat="48.45415" lon="-2.14551">
        <ele>72.09</ele>
        <time>2025-06-04T07:09:43.677Z</time>
      </trkpt>
      <trkpt lat="48.45415" lon="-2.14553">
        <ele>72.12</ele>
        <time>2025-06-04T07:09:41.784Z</time>
      </trkpt>
      <trkpt lat="48.45417" lon="-2.14555">
        <ele>72.16</ele>
        <time>2025-06-04T07:09:39.681Z</time>
      </trkpt>
      <trkpt lat="48.45418" lon="-2.14555">
        <ele>72.18</ele>
        <time>2025-06-04T07:09:38.132Z</time>
      </trkpt>
      <trkpt lat="48.45422" lon="-2.14557">
        <ele>72.38</ele>
        <time>2025-06-04T07:09:31.207Z</time>
      </trkpt>
      <trkpt lat="48.45424" lon="-2.14556">
        <ele>72.45</ele>
        <time>2025-06-04T07:09:29.188Z</time>
      </trkpt>
      <trkpt lat="48.45428" lon="-2.14558">
        <ele>72.58</ele>
        <time>2025-06-04T07:09:26.617Z</time>
      </trkpt>
      <trkpt lat="48.45431" lon="-2.14562">
        <ele>72.67</ele>
        <time>2025-06-04T07:09:24.257Z</time>
      </trkpt>
      <trkpt lat="48.45431" lon="-2.14563">
        <ele>72.729996</ele>
        <time>2025-06-04T07:09:23.194Z</time>
      </trkpt>
      <trkpt lat="48.45432" lon="-2.14564">
        <ele>72.770004</ele>
        <time>2025-06-04T07:09:22.204Z</time>
      </trkpt>
      <trkpt lat="48.45435" lon="-2.14567">
        <ele>72.86</ele>
        <time>2025-06-04T07:09:20.558Z</time>
      </trkpt>
      <trkpt lat="48.45435" lon="-2.14569">
        <ele>72.9</ele>
        <time>2025-06-04T07:09:19.168Z</time>
      </trkpt>
      <trkpt lat="48.45435" lon="-2.14572">
        <ele>72.95</ele>
        <time>2025-06-04T07:09:18.171Z</time>
      </trkpt>
      <trkpt lat="48.45434" lon="-2.14575">
        <ele>73.01</ele>
        <time>2025-06-04T07:09:17.182Z</time>
      </trkpt>
      <trkpt lat="48.45435" lon="-2.14578">
        <ele>73.06</ele>
        <time>2025-06-04T07:09:16.228Z</time>
      </trkpt>
      <trkpt lat="48.45435" lon="-2.1458">
        <ele>73.13</ele>
        <time>2025-06-04T07:09:15.546Z</time>
      </trkpt>
      <trkpt lat="48.45436" lon="-2.14584">
        <ele>73.19</ele>
        <time>2025-06-04T07:09:14.416Z</time>
      </trkpt>
      <trkpt lat="48.45438" lon="-2.14588">
        <ele>73.23</ele>
        <time>2025-06-04T07:09:12.658Z</time>
      </trkpt>
      <trkpt lat="48.45439" lon="-2.14592">
        <ele>73.28</ele>
        <time>2025-06-04T07:09:11.738Z</time>
      </trkpt>
      <trkpt lat="48.45441" lon="-2.14596">
        <ele>73.32</ele>
        <time>2025-06-04T07:09:11.513Z</time>
      </trkpt>
      <trkpt lat="48.45442" lon="-2.146">
        <ele>73.37</ele>
        <time>2025-06-04T07:09:10.178Z</time>
      </trkpt>
      <trkpt lat="48.45444" lon="-2.14603">
        <ele>73.41</ele>
        <time>2025-06-04T07:09:09.170Z</time>
      </trkpt>
      <trkpt lat="48.45446" lon="-2.14607">
        <ele>73.44</ele>
        <time>2025-06-04T07:09:08.128Z</time>
      </trkpt>
      <trkpt lat="48.45448" lon="-2.14609">
        <ele>73.47</ele>
        <time>2025-06-04T07:09:07.110Z</time>
      </trkpt>
      <trkpt lat="48.45449" lon="-2.14612">
        <ele>73.49</ele>
        <time>2025-06-04T07:09:06.384Z</time>
      </trkpt>
      <trkpt lat="48.45451" lon="-2.14614">
        <ele>73.51</ele>
        <time>2025-06-04T07:09:05.171Z</time>
      </trkpt>
      <trkpt lat="48.45452" lon="-2.14615">
        <ele>73.55</ele>
        <time>2025-06-04T07:09:03.260Z</time>
      </trkpt>
      <trkpt lat="48.45452" lon="-2.14616">
        <ele>73.57</ele>
        <time>2025-06-04T07:09:02.223Z</time>
      </trkpt>
      <trkpt lat="48.45454" lon="-2.14618">
        <ele>73.75</ele>
        <time>2025-06-04T07:08:55.275Z</time>
      </trkpt>
      <trkpt lat="48.45457" lon="-2.14621">
        <ele>73.81</ele>
        <time>2025-06-04T07:08:51.073Z</time>
      </trkpt>
      <trkpt lat="48.45457" lon="-2.14624">
        <ele>74.01</ele>
        <time>2025-06-04T07:08:48.264Z</time>
      </trkpt>
      <trkpt lat="48.45461" lon="-2.14626">
        <ele>74.09</ele>
        <time>2025-06-04T07:08:30.126Z</time>
      </trkpt>
      <trkpt lat="48.45464" lon="-2.14626">
        <ele>74.11</ele>
        <time>2025-06-04T07:08:29.732Z</time>
      </trkpt>
      <trkpt lat="48.45467" lon="-2.14626">
        <ele>74.13</ele>
        <time>2025-06-04T07:08:28.573Z</time>
      </trkpt>
      <trkpt lat="48.45471" lon="-2.14625">
        <ele>74.15</ele>
        <time>2025-06-04T07:08:27.777Z</time>
      </trkpt>
      <trkpt lat="48.45475" lon="-2.14625">
        <ele>74.17</ele>
        <time>2025-06-04T07:08:26.398Z</time>
      </trkpt>
      <trkpt lat="48.45477" lon="-2.14624">
        <ele>74.19</ele>
        <time>2025-06-04T07:08:25.316Z</time>
      </trkpt>
      <trkpt lat="48.45479" lon="-2.14623">
        <ele>74.22</ele>
        <time>2025-06-04T07:08:24.703Z</time>
      </trkpt>
      <trkpt lat="48.45482" lon="-2.14622">
        <ele>74.23</ele>
        <time>2025-06-04T07:08:22.865Z</time>
      </trkpt>
      <trkpt lat="48.45486" lon="-2.14621">
        <ele>74.25</ele>
        <time>2025-06-04T07:08:22.018Z</time>
      </trkpt>
      <trkpt lat="48.45489" lon="-2.14619">
        <ele>74.27</ele>
        <time>2025-06-04T07:08:21.734Z</time>
      </trkpt>
      <trkpt lat="48.45493" lon="-2.14619">
        <ele>74.29</ele>
        <time>2025-06-04T07:08:20.548Z</time>
      </trkpt>
      <trkpt lat="48.45496" lon="-2.14618">
        <ele>74.3</ele>
        <time>2025-06-04T07:08:19.453Z</time>
      </trkpt>
      <trkpt lat="48.455" lon="-2.14618">
        <ele>74.32</ele>
        <time>2025-06-04T07:08:18.684Z</time>
      </trkpt>
      <trkpt lat="48.45503" lon="-2.14617">
        <ele>74.34</ele>
        <time>2025-06-04T07:08:17.704Z</time>
      </trkpt>
      <trkpt lat="48.45506" lon="-2.14618">
        <ele>74.36</ele>
        <time>2025-06-04T07:08:16.662Z</time>
      </trkpt>
      <trkpt lat="48.45509" lon="-2.14618">
        <ele>74.38</ele>
        <time>2025-06-04T07:08:15.466Z</time>
      </trkpt>
      <trkpt lat="48.45512" lon="-2.14617">
        <ele>74.4</ele>
        <time>2025-06-04T07:08:14.682Z</time>
      </trkpt>
      <trkpt lat="48.45516" lon="-2.14615">
        <ele>74.43</ele>
        <time>2025-06-04T07:08:13.784Z</time>
      </trkpt>
      <trkpt lat="48.45518" lon="-2.14614">
        <ele>74.45</ele>
        <time>2025-06-04T07:08:12.757Z</time>
      </trkpt>
      <trkpt lat="48.45522" lon="-2.14613">
        <ele>74.48</ele>
        <time>2025-06-04T07:08:11.709Z</time>
      </trkpt>
      <trkpt lat="48.45526" lon="-2.14611">
        <ele>74.51</ele>
        <time>2025-06-04T07:08:10.731Z</time>
      </trkpt>
      <trkpt lat="48.4553" lon="-2.1461">
        <ele>74.54</ele>
        <time>2025-06-04T07:08:09.691Z</time>
      </trkpt>
      <trkpt lat="48.45533" lon="-2.14608">
        <ele>74.57</ele>
        <time>2025-06-04T07:08:08.732Z</time>
      </trkpt>
      <trkpt lat="48.45536" lon="-2.14606">
        <ele>74.61</ele>
        <time>2025-06-04T07:08:07.725Z</time>
      </trkpt>
      <trkpt lat="48.45539" lon="-2.14604">
        <ele>74.65</ele>
        <time>2025-06-04T07:08:06.763Z</time>
      </trkpt>
      <trkpt lat="48.45542" lon="-2.14603">
        <ele>74.68</ele>
        <time>2025-06-04T07:08:05.681Z</time>
      </trkpt>
      <trkpt lat="48.45546" lon="-2.14601">
        <ele>74.72</ele>
        <time>2025-06-04T07:08:04.700Z</time>
      </trkpt>
      <trkpt lat="48.45549" lon="-2.14598">
        <ele>74.76</ele>
        <time>2025-06-04T07:08:03.620Z</time>
      </trkpt>
      <trkpt lat="48.45553" lon="-2.14596">
        <ele>74.79</ele>
        <time>2025-06-04T07:08:02.646Z</time>
      </trkpt>
      <trkpt lat="48.45556" lon="-2.14594">
        <ele>74.82</ele>
        <time>2025-06-04T07:08:01.713Z</time>
      </trkpt>
      <trkpt lat="48.45559" lon="-2.14592">
        <ele>74.86</ele>
        <time>2025-06-04T07:07:59.935Z</time>
      </trkpt>
      <trkpt lat="48.45562" lon="-2.14591">
        <ele>74.89</ele>
        <time>2025-06-04T07:07:59.791Z</time>
      </trkpt>
      <trkpt lat="48.45565" lon="-2.14589">
        <ele>74.92</ele>
        <time>2025-06-04T07:07:58.717Z</time>
      </trkpt>
      <trkpt lat="48.45568" lon="-2.14587">
        <ele>74.96</ele>
        <time>2025-06-04T07:07:57.125Z</time>
      </trkpt>
      <trkpt lat="48.4557" lon="-2.14586">
        <ele>75</ele>
        <time>2025-06-04T07:07:56.384Z</time>
      </trkpt>
      <trkpt lat="48.45574" lon="-2.14584">
        <ele>75.04</ele>
        <time>2025-06-04T07:07:55.595Z</time>
      </trkpt>
      <trkpt lat="48.45577" lon="-2.14583">
        <ele>75.08</ele>
        <time>2025-06-04T07:07:54.129Z</time>
      </trkpt>
      <trkpt lat="48.45578" lon="-2.14583">
        <ele>75.13</ele>
        <time>2025-06-04T07:07:53.645Z</time>
      </trkpt>
      <trkpt lat="48.45579" lon="-2.14583">
        <ele>75.19</ele>
        <time>2025-06-04T07:07:52.415Z</time>
      </trkpt>
      <trkpt lat="48.45583" lon="-2.14582">
        <ele>75.25</ele>
        <time>2025-06-04T07:07:51.382Z</time>
      </trkpt>
      <trkpt lat="48.45586" lon="-2.1458">
        <ele>75.32</ele>
        <time>2025-06-04T07:07:50.367Z</time>
      </trkpt>
      <trkpt lat="48.4559" lon="-2.14579">
        <ele>75.39</ele>
        <time>2025-06-04T07:07:49.429Z</time>
      </trkpt>
      <trkpt lat="48.45594" lon="-2.14578">
        <ele>75.48</ele>
        <time>2025-06-04T07:07:48.386Z</time>
      </trkpt>
      <trkpt lat="48.45597" lon="-2.14576">
        <ele>75.56</ele>
        <time>2025-06-04T07:07:47.764Z</time>
      </trkpt>
      <trkpt lat="48.45601" lon="-2.14574">
        <ele>75.67</ele>
        <time>2025-06-04T07:07:46.386Z</time>
      </trkpt>
      <trkpt lat="48.45605" lon="-2.14572">
        <ele>75.78</ele>
        <time>2025-06-04T07:07:45.358Z</time>
      </trkpt>
      <trkpt lat="48.4561" lon="-2.14569">
        <ele>75.89</ele>
        <time>2025-06-04T07:07:44.389Z</time>
      </trkpt>
      <trkpt lat="48.45614" lon="-2.14566">
        <ele>76.01</ele>
        <time>2025-06-04T07:07:43.787Z</time>
      </trkpt>
      <trkpt lat="48.4562" lon="-2.14563">
        <ele>76.14</ele>
        <time>2025-06-04T07:07:41.813Z</time>
      </trkpt>
      <trkpt lat="48.45625" lon="-2.1456">
        <ele>76.28</ele>
        <time>2025-06-04T07:07:41.428Z</time>
      </trkpt>
      <trkpt lat="48.45631" lon="-2.14556">
        <ele>76.42</ele>
        <time>2025-06-04T07:07:40.737Z</time>
      </trkpt>
      <trkpt lat="48.45636" lon="-2.14553">
        <ele>76.57</ele>
        <time>2025-06-04T07:07:39.558Z</time>
      </trkpt>
      <trkpt lat="48.45641" lon="-2.14548">
        <ele>76.73</ele>
        <time>2025-06-04T07:07:38.352Z</time>
      </trkpt>
      <trkpt lat="48.45646" lon="-2.14544">
        <ele>76.91</ele>
        <time>2025-06-04T07:07:37.338Z</time>
      </trkpt>
      <trkpt lat="48.4565" lon="-2.14538">
        <ele>77.11</ele>
        <time>2025-06-04T07:07:36.785Z</time>
      </trkpt>
      <trkpt lat="48.45654" lon="-2.14532">
        <ele>77.34</ele>
        <time>2025-06-04T07:07:35.391Z</time>
      </trkpt>
      <trkpt lat="48.45657" lon="-2.14526">
        <ele>77.59</ele>
        <time>2025-06-04T07:07:34.709Z</time>
      </trkpt>
      <trkpt lat="48.4566" lon="-2.14519">
        <ele>77.88</ele>
        <time>2025-06-04T07:07:33.302Z</time>
      </trkpt>
      <trkpt lat="48.45663" lon="-2.14512">
        <ele>78.2</ele>
        <time>2025-06-04T07:07:32.358Z</time>
      </trkpt>
      <trkpt lat="48.45665" lon="-2.14505">
        <ele>78.5</ele>
        <time>2025-06-04T07:07:31.360Z</time>
      </trkpt>
      <trkpt lat="48.45668" lon="-2.14497">
        <ele>78.84</ele>
        <time>2025-06-04T07:07:30.371Z</time>
      </trkpt>
      <trkpt lat="48.4567" lon="-2.14489">
        <ele>79.17</ele>
        <time>2025-06-04T07:07:29.358Z</time>
      </trkpt>
      <trkpt lat="48.45673" lon="-2.1448">
        <ele>79.49</ele>
        <time>2025-06-04T07:07:28.355Z</time>
      </trkpt>
      <trkpt lat="48.45676" lon="-2.14471">
        <ele>79.8</ele>
        <time>2025-06-04T07:07:27.264Z</time>
      </trkpt>
      <trkpt lat="48.45679" lon="-2.14463">
        <ele>80.11</ele>
        <time>2025-06-04T07:07:26.330Z</time>
      </trkpt>
      <trkpt lat="48.45683" lon="-2.14455">
        <ele>80.38</ele>
        <time>2025-06-04T07:07:25.347Z</time>
      </trkpt>
      <trkpt lat="48.45687" lon="-2.14448">
        <ele>80.69</ele>
        <time>2025-06-04T07:07:24.321Z</time>
      </trkpt>
      <trkpt lat="48.45691" lon="-2.14441">
        <ele>81.02</ele>
        <time>2025-06-04T07:07:23.684Z</time>
      </trkpt>
      <trkpt lat="48.45695" lon="-2.14434">
        <ele>81.38</ele>
        <time>2025-06-04T07:07:21.802Z</time>
      </trkpt>
      <trkpt lat="48.457" lon="-2.14426">
        <ele>81.79</ele>
        <time>2025-06-04T07:07:21.396Z</time>
      </trkpt>
      <trkpt lat="48.45705" lon="-2.14419">
        <ele>82.28</ele>
        <time>2025-06-04T07:07:20.344Z</time>
      </trkpt>
      <trkpt lat="48.4571" lon="-2.14412">
        <ele>82.78</ele>
        <time>2025-06-04T07:07:19.537Z</time>
      </trkpt>
      <trkpt lat="48.45715" lon="-2.14406">
        <ele>83.24</ele>
        <time>2025-06-04T07:07:18.780Z</time>
      </trkpt>
      <trkpt lat="48.4572" lon="-2.14399">
        <ele>83.76</ele>
        <time>2025-06-04T07:07:17.338Z</time>
      </trkpt>
      <trkpt lat="48.45725" lon="-2.14393">
        <ele>84.28</ele>
        <time>2025-06-04T07:07:16.371Z</time>
      </trkpt>
      <trkpt lat="48.4573" lon="-2.14386">
        <ele>84.76</ele>
        <time>2025-06-04T07:07:15.365Z</time>
      </trkpt>
      <trkpt lat="48.45735" lon="-2.1438">
        <ele>85.12</ele>
        <time>2025-06-04T07:07:14.404Z</time>
      </trkpt>
      <trkpt lat="48.45741" lon="-2.14375">
        <ele>85.45</ele>
        <time>2025-06-04T07:07:13.371Z</time>
      </trkpt>
      <trkpt lat="48.45746" lon="-2.1437">
        <ele>85.83</ele>
        <time>2025-06-04T07:07:11.791Z</time>
      </trkpt>
      <trkpt lat="48.45752" lon="-2.14365">
        <ele>86.22</ele>
        <time>2025-06-04T07:07:11.641Z</time>
      </trkpt>
      <trkpt lat="48.45757" lon="-2.1436">
        <ele>86.59</ele>
        <time>2025-06-04T07:07:10.396Z</time>
      </trkpt>
      <trkpt lat="48.45762" lon="-2.14356">
        <ele>86.93</ele>
        <time>2025-06-04T07:07:09.312Z</time>
      </trkpt>
      <trkpt lat="48.45767" lon="-2.14352">
        <ele>87.31</ele>
        <time>2025-06-04T07:07:08.255Z</time>
      </trkpt>
      <trkpt lat="48.45772" lon="-2.14348">
        <ele>87.67</ele>
        <time>2025-06-04T07:07:07.343Z</time>
      </trkpt>
      <trkpt lat="48.45778" lon="-2.14344">
        <ele>88.02</ele>
        <time>2025-06-04T07:07:06.417Z</time>
      </trkpt>
      <trkpt lat="48.45783" lon="-2.1434">
        <ele>88.37</ele>
        <time>2025-06-04T07:07:05.672Z</time>
      </trkpt>
      <trkpt lat="48.45789" lon="-2.14337">
        <ele>88.73</ele>
        <time>2025-06-04T07:07:03.778Z</time>
      </trkpt>
      <trkpt lat="48.45794" lon="-2.14333">
        <ele>89.11</ele>
        <time>2025-06-04T07:07:03.358Z</time>
      </trkpt>
      <trkpt lat="48.45799" lon="-2.14329">
        <ele>89.479996</ele>
        <time>2025-06-04T07:07:02.349Z</time>
      </trkpt>
      <trkpt lat="48.45804" lon="-2.14324">
        <ele>89.89</ele>
        <time>2025-06-04T07:07:01.298Z</time>
      </trkpt>
      <trkpt lat="48.45809" lon="-2.14318">
        <ele>90.28</ele>
        <time>2025-06-04T07:07:00.697Z</time>
      </trkpt>
      <trkpt lat="48.45815" lon="-2.14313">
        <ele>90.65</ele>
        <time>2025-06-04T07:06:59.357Z</time>
      </trkpt>
      <trkpt lat="48.4582" lon="-2.14307">
        <ele>90.979996</ele>
        <time>2025-06-04T07:06:58.668Z</time>
      </trkpt>
      <trkpt lat="48.45826" lon="-2.143">
        <ele>91.229996</ele>
        <time>2025-06-04T07:06:57.389Z</time>
      </trkpt>
      <trkpt lat="48.45836" lon="-2.14288">
        <ele>91.42</ele>
        <time>2025-06-04T07:06:56.470Z</time>
      </trkpt>
      <trkpt lat="48.45838" lon="-2.14285">
        <ele>91.55</ele>
        <time>2025-06-04T07:06:55.750Z</time>
      </trkpt>
      <trkpt lat="48.45842" lon="-2.14282">
        <ele>91.62</ele>
        <time>2025-06-04T07:06:54.328Z</time>
      </trkpt>
      <trkpt lat="48.45846" lon="-2.14278">
        <ele>91.68</ele>
        <time>2025-06-04T07:06:53.378Z</time>
      </trkpt>
      <trkpt lat="48.4585" lon="-2.14275">
        <ele>91.75</ele>
        <time>2025-06-04T07:06:52.379Z</time>
      </trkpt>
      <trkpt lat="48.45854" lon="-2.14272">
        <ele>91.8</ele>
        <time>2025-06-04T07:06:51.371Z</time>
      </trkpt>
      <trkpt lat="48.45854" lon="-2.14272">
        <ele>89</ele>
        <time>2025-06-04T07:04:41.145Z</time>
      </trkpt>
      <trkpt lat="48.45848" lon="-2.14254">
        <ele>94.13</ele>
        <time>2025-06-04T07:04:39.471Z</time>
      </trkpt>
      <trkpt lat="48.45847" lon="-2.14253">
        <ele>94.22</ele>
        <time>2025-06-04T07:04:38.136Z</time>
      </trkpt>
      <trkpt lat="48.45848" lon="-2.14255">
        <ele>94.31</ele>
        <time>2025-06-04T07:04:36.475Z</time>
      </trkpt>
      <trkpt lat="48.45847" lon="-2.14252">
        <ele>94.88</ele>
        <time>2025-06-04T07:04:36.270Z</time>
      </trkpt>
      <trkpt lat="48.45845" lon="-2.14249">
        <ele>95.71</ele>
        <time>2025-06-04T07:04:24.252Z</time>
      </trkpt>
      <trkpt lat="48.45843" lon="-2.14245">
        <ele>96.3</ele>
        <time>2025-06-04T07:04:14.257Z</time>
      </trkpt>
      <trkpt lat="48.45838" lon="-2.14235">
        <ele>96.61</ele>
        <time>2025-06-04T07:04:10.210Z</time>
      </trkpt>
      <trkpt lat="48.45836" lon="-2.14232">
        <ele>96.66</ele>
        <time>2025-06-04T07:04:09.171Z</time>
      </trkpt>
      <trkpt lat="48.45835" lon="-2.14229">
        <ele>96.71</ele>
        <time>2025-06-04T07:04:08.121Z</time>
      </trkpt>
      <trkpt lat="48.45834" lon="-2.14226">
        <ele>96.76</ele>
        <time>2025-06-04T07:04:07.220Z</time>
      </trkpt>
      <trkpt lat="48.45832" lon="-2.14223">
        <ele>96.79</ele>
        <time>2025-06-04T07:04:05.882Z</time>
      </trkpt>
      <trkpt lat="48.45831" lon="-2.14219">
        <ele>96.8</ele>
        <time>2025-06-04T07:04:05.214Z</time>
      </trkpt>
      <trkpt lat="48.45829" lon="-2.14214">
        <ele>96.82</ele>
        <time>2025-06-04T07:04:04.281Z</time>
      </trkpt>
      <trkpt lat="48.45826" lon="-2.14209">
        <ele>96.83</ele>
        <time>2025-06-04T07:04:03.090Z</time>
      </trkpt>
      <trkpt lat="48.45824" lon="-2.14205">
        <ele>96.83</ele>
        <time>2025-06-04T07:04:02.079Z</time>
      </trkpt>
      <trkpt lat="48.45823" lon="-2.14199">
        <ele>96.83</ele>
        <time>2025-06-04T07:04:01.071Z</time>
      </trkpt>
      <trkpt lat="48.45821" lon="-2.14194">
        <ele>96.81</ele>
        <time>2025-06-04T07:04:00.094Z</time>
      </trkpt>
      <trkpt lat="48.45819" lon="-2.14189">
        <ele>96.8</ele>
        <time>2025-06-04T07:03:59.150Z</time>
      </trkpt>
      <trkpt lat="48.45818" lon="-2.14184">
        <ele>96.78</ele>
        <time>2025-06-04T07:03:57.613Z</time>
      </trkpt>
      <trkpt lat="48.45816" lon="-2.14179">
        <ele>96.770004</ele>
        <time>2025-06-04T07:03:57.106Z</time>
      </trkpt>
      <trkpt lat="48.45815" lon="-2.14175">
        <ele>96.770004</ele>
        <time>2025-06-04T07:03:56.199Z</time>
      </trkpt>
      <trkpt lat="48.45813" lon="-2.1417">
        <ele>96.76</ele>
        <time>2025-06-04T07:03:55.111Z</time>
      </trkpt>
      <trkpt lat="48.45811" lon="-2.14165">
        <ele>96.770004</ele>
        <time>2025-06-04T07:03:53.946Z</time>
      </trkpt>
      <trkpt lat="48.45809" lon="-2.1416">
        <ele>96.78</ele>
        <time>2025-06-04T07:03:52.857Z</time>
      </trkpt>
      <trkpt lat="48.45808" lon="-2.14154">
        <ele>96.78</ele>
        <time>2025-06-04T07:03:52.261Z</time>
      </trkpt>
      <trkpt lat="48.45806" lon="-2.14148">
        <ele>96.8</ele>
        <time>2025-06-04T07:03:51.182Z</time>
      </trkpt>
      <trkpt lat="48.45804" lon="-2.14142">
        <ele>96.8</ele>
        <time>2025-06-04T07:03:49.895Z</time>
      </trkpt>
      <trkpt lat="48.45802" lon="-2.14137">
        <ele>96.81</ele>
        <time>2025-06-04T07:03:48.943Z</time>
      </trkpt>
      <trkpt lat="48.458" lon="-2.14131">
        <ele>96.83</ele>
        <time>2025-06-04T07:03:47.965Z</time>
      </trkpt>
      <trkpt lat="48.45797" lon="-2.14123">
        <ele>96.86</ele>
        <time>2025-06-04T07:03:46.992Z</time>
      </trkpt>
      <trkpt lat="48.45796" lon="-2.14115">
        <ele>96.89</ele>
        <time>2025-06-04T07:03:45.943Z</time>
      </trkpt>
      <trkpt lat="48.45794" lon="-2.14105">
        <ele>96.93</ele>
        <time>2025-06-04T07:03:44.965Z</time>
      </trkpt>
      <trkpt lat="48.45793" lon="-2.141">
        <ele>96.97</ele>
        <time>2025-06-04T07:03:43.895Z</time>
      </trkpt>
      <trkpt lat="48.45792" lon="-2.1409">
        <ele>97.020004</ele>
        <time>2025-06-04T07:03:42.924Z</time>
      </trkpt>
      <trkpt lat="48.45792" lon="-2.14088">
        <ele>97.07</ele>
        <time>2025-06-04T07:03:41.967Z</time>
      </trkpt>
      <trkpt lat="48.45792" lon="-2.14086">
        <ele>97.13</ele>
        <time>2025-06-04T07:03:40.954Z</time>
      </trkpt>
      <trkpt lat="48.45792" lon="-2.14082">
        <ele>97.2</ele>
        <time>2025-06-04T07:03:39.941Z</time>
      </trkpt>
      <trkpt lat="48.45791" lon="-2.14076">
        <ele>97.28</ele>
        <time>2025-06-04T07:03:38.929Z</time>
      </trkpt>
      <trkpt lat="48.4579" lon="-2.1407">
        <ele>97.37</ele>
        <time>2025-06-04T07:03:37.953Z</time>
      </trkpt>
      <trkpt lat="48.4579" lon="-2.14065">
        <ele>97.479996</ele>
        <time>2025-06-04T07:03:36.943Z</time>
      </trkpt>
      <trkpt lat="48.45789" lon="-2.1406">
        <ele>97.58</ele>
        <time>2025-06-04T07:03:35.928Z</time>
      </trkpt>
      <trkpt lat="48.45789" lon="-2.14055">
        <ele>97.72</ele>
        <time>2025-06-04T07:03:34.954Z</time>
      </trkpt>
      <trkpt lat="48.45788" lon="-2.1405">
        <ele>97.87</ele>
        <time>2025-06-04T07:03:33.940Z</time>
      </trkpt>
      <trkpt lat="48.45787" lon="-2.14045">
        <ele>98.05</ele>
        <time>2025-06-04T07:03:32.927Z</time>
      </trkpt>
      <trkpt lat="48.45787" lon="-2.1404">
        <ele>98.25</ele>
        <time>2025-06-04T07:03:31.954Z</time>
      </trkpt>
      <trkpt lat="48.45786" lon="-2.14036">
        <ele>98.45</ele>
        <time>2025-06-04T07:03:30.940Z</time>
      </trkpt>
      <trkpt lat="48.45786" lon="-2.14031">
        <ele>98.68</ele>
        <time>2025-06-04T07:03:29.928Z</time>
      </trkpt>
      <trkpt lat="48.45786" lon="-2.14025">
        <ele>98.9</ele>
        <time>2025-06-04T07:03:28.955Z</time>
      </trkpt>
      <trkpt lat="48.45786" lon="-2.14018">
        <ele>99.13</ele>
        <time>2025-06-04T07:03:27.978Z</time>
      </trkpt>
      <trkpt lat="48.45786" lon="-2.14012">
        <ele>99.34</ele>
        <time>2025-06-04T07:03:26.962Z</time>
      </trkpt>
      <trkpt lat="48.45787" lon="-2.14006">
        <ele>99.55</ele>
        <time>2025-06-04T07:03:25.916Z</time>
      </trkpt>
      <trkpt lat="48.45788" lon="-2.14001">
        <ele>99.7</ele>
        <time>2025-06-04T07:03:25.189Z</time>
      </trkpt>
      <trkpt lat="48.45789" lon="-2.13997">
        <ele>99.86</ele>
        <time>2025-06-04T07:03:23.834Z</time>
      </trkpt>
      <trkpt lat="48.4579" lon="-2.13993">
        <ele>99.99</ele>
        <time>2025-06-04T07:03:23.256Z</time>
      </trkpt>
      <trkpt lat="48.4579" lon="-2.13991">
        <ele>100.11</ele>
        <time>2025-06-04T07:03:22.229Z</time>
      </trkpt>
      <trkpt lat="48.45791" lon="-2.13985">
        <ele>100.33</ele>
        <time>2025-06-04T07:03:19.995Z</time>
      </trkpt>
      <trkpt lat="48.45791" lon="-2.13983">
        <ele>100.43</ele>
        <time>2025-06-04T07:03:18.528Z</time>
      </trkpt>
      <trkpt lat="48.45791" lon="-2.13981">
        <ele>100.520004</ele>
        <time>2025-06-04T07:03:18.133Z</time>
      </trkpt>
      <trkpt lat="48.45791" lon="-2.13979">
        <ele>100.58</ele>
        <time>2025-06-04T07:03:16.433Z</time>
      </trkpt>
      <trkpt lat="48.45791" lon="-2.13977">
        <ele>100.65</ele>
        <time>2025-06-04T07:03:16.232Z</time>
      </trkpt>
      <trkpt lat="48.45791" lon="-2.13976">
        <ele>100.89</ele>
        <time>2025-06-04T07:03:14.243Z</time>
      </trkpt>
      <trkpt lat="48.45792" lon="-2.13968">
        <ele>101.19</ele>
        <time>2025-06-04T07:03:09.188Z</time>
      </trkpt>
      <trkpt lat="48.45791" lon="-2.13963">
        <ele>101.25</ele>
        <time>2025-06-04T07:03:08.611Z</time>
      </trkpt>
      <trkpt lat="48.45792" lon="-2.13958">
        <ele>101.31</ele>
        <time>2025-06-04T07:03:07.568Z</time>
      </trkpt>
      <trkpt lat="48.45792" lon="-2.13953">
        <ele>101.36</ele>
        <time>2025-06-04T07:03:06.104Z</time>
      </trkpt>
      <trkpt lat="48.45792" lon="-2.13948">
        <ele>101.39</ele>
        <time>2025-06-04T07:03:05.096Z</time>
      </trkpt>
      <trkpt lat="48.45792" lon="-2.13939">
        <ele>101.42</ele>
        <time>2025-06-04T07:03:03.692Z</time>
      </trkpt>
      <trkpt lat="48.45792" lon="-2.13934">
        <ele>101.45</ele>
        <time>2025-06-04T07:03:03.561Z</time>
      </trkpt>
      <trkpt lat="48.45792" lon="-2.13927">
        <ele>101.479996</ele>
        <time>2025-06-04T07:03:01.636Z</time>
      </trkpt>
      <trkpt lat="48.45792" lon="-2.13919">
        <ele>101.51</ele>
        <time>2025-06-04T07:03:00.644Z</time>
      </trkpt>
      <trkpt lat="48.45791" lon="-2.13908">
        <ele>101.55</ele>
        <time>2025-06-04T07:03:00.590Z</time>
      </trkpt>
      <trkpt lat="48.45791" lon="-2.13904">
        <ele>101.58</ele>
        <time>2025-06-04T07:02:58.654Z</time>
      </trkpt>
      <trkpt lat="48.4579" lon="-2.13899">
        <ele>101.61</ele>
        <time>2025-06-04T07:02:58.611Z</time>
      </trkpt>
      <trkpt lat="48.4579" lon="-2.13894">
        <ele>101.64</ele>
        <time>2025-06-04T07:02:56.640Z</time>
      </trkpt>
      <trkpt lat="48.4579" lon="-2.13888">
        <ele>101.66</ele>
        <time>2025-06-04T07:02:56.558Z</time>
      </trkpt>
      <trkpt lat="48.4579" lon="-2.13883">
        <ele>101.68</ele>
        <time>2025-06-04T07:02:55.114Z</time>
      </trkpt>
      <trkpt lat="48.4579" lon="-2.13877">
        <ele>101.7</ele>
        <time>2025-06-04T07:02:53.644Z</time>
      </trkpt>
      <trkpt lat="48.45789" lon="-2.1387">
        <ele>101.72</ele>
        <time>2025-06-04T07:02:53.570Z</time>
      </trkpt>
      <trkpt lat="48.45789" lon="-2.13864">
        <ele>101.72</ele>
        <time>2025-06-04T07:02:51.628Z</time>
      </trkpt>
      <trkpt lat="48.45787" lon="-2.13859">
        <ele>101.69</ele>
        <time>2025-06-04T07:02:51.588Z</time>
      </trkpt>
      <trkpt lat="48.45784" lon="-2.13855">
        <ele>101.67</ele>
        <time>2025-06-04T07:02:50.077Z</time>
      </trkpt>
      <trkpt lat="48.45779" lon="-2.13851">
        <ele>101.63</ele>
        <time>2025-06-04T07:02:48.655Z</time>
      </trkpt>
      <trkpt lat="48.45775" lon="-2.1385">
        <ele>101.59</ele>
        <time>2025-06-04T07:02:47.729Z</time>
      </trkpt>
      <trkpt lat="48.4577" lon="-2.13847">
        <ele>101.54</ele>
        <time>2025-06-04T07:02:47.536Z</time>
      </trkpt>
      <trkpt lat="48.45765" lon="-2.13847">
        <ele>101.49</ele>
        <time>2025-06-04T07:02:46.064Z</time>
      </trkpt>
      <trkpt lat="48.4576" lon="-2.13847">
        <ele>101.44</ele>
        <time>2025-06-04T07:02:45.572Z</time>
      </trkpt>
      <trkpt lat="48.45757" lon="-2.13848">
        <ele>101.39</ele>
        <time>2025-06-04T07:02:43.697Z</time>
      </trkpt>
      <trkpt lat="48.45754" lon="-2.13849">
        <ele>101.34</ele>
        <time>2025-06-04T07:02:43.597Z</time>
      </trkpt>
      <trkpt lat="48.4575" lon="-2.13849">
        <ele>101.3</ele>
        <time>2025-06-04T07:02:41.629Z</time>
      </trkpt>
      <trkpt lat="48.45745" lon="-2.1385">
        <ele>101.270004</ele>
        <time>2025-06-04T07:02:41.549Z</time>
      </trkpt>
      <trkpt lat="48.45741" lon="-2.1385">
        <ele>101.25</ele>
        <time>2025-06-04T07:02:40.192Z</time>
      </trkpt>
      <trkpt lat="48.45739" lon="-2.13849">
        <ele>101.24</ele>
        <time>2025-06-04T07:02:38.645Z</time>
      </trkpt>
      <trkpt lat="48.45736" lon="-2.13848">
        <ele>101.22</ele>
        <time>2025-06-04T07:02:38.534Z</time>
      </trkpt>
      <trkpt lat="48.45734" lon="-2.13847">
        <ele>101.22</ele>
        <time>2025-06-04T07:02:36.717Z</time>
      </trkpt>
      <trkpt lat="48.45732" lon="-2.13847">
        <ele>101.22</ele>
        <time>2025-06-04T07:02:35.637Z</time>
      </trkpt>
      <trkpt lat="48.45731" lon="-2.13846">
        <ele>101.22</ele>
        <time>2025-06-04T07:02:34.636Z</time>
      </trkpt>
      <trkpt lat="48.45729" lon="-2.13847">
        <ele>101.22</ele>
        <time>2025-06-04T07:02:34.597Z</time>
      </trkpt>
      <trkpt lat="48.45728" lon="-2.13849">
        <ele>101.229996</ele>
        <time>2025-06-04T07:02:32.622Z</time>
      </trkpt>
      <trkpt lat="48.45727" lon="-2.13849">
        <ele>101.25</ele>
        <time>2025-06-04T07:02:32.517Z</time>
      </trkpt>
      <trkpt lat="48.45726" lon="-2.1385">
        <ele>101.31</ele>
        <time>2025-06-04T07:02:28.603Z</time>
      </trkpt>
      <trkpt lat="48.45729" lon="-2.13837">
        <ele>101.67</ele>
        <time>2025-06-04T07:02:20.113Z</time>
      </trkpt>
      <trkpt lat="48.45728" lon="-2.13836">
        <ele>101.71</ele>
        <time>2025-06-04T07:02:18.259Z</time>
      </trkpt>
      <trkpt lat="48.45728" lon="-2.13833">
        <ele>101.74</ele>
        <time>2025-06-04T07:02:17.263Z</time>
      </trkpt>
      <trkpt lat="48.45729" lon="-2.13829">
        <ele>101.78</ele>
        <time>2025-06-04T07:02:16.259Z</time>
      </trkpt>
      <trkpt lat="48.45729" lon="-2.13825">
        <ele>101.81</ele>
        <time>2025-06-04T07:02:15.770Z</time>
      </trkpt>
      <trkpt lat="48.45729" lon="-2.13821">
        <ele>101.83</ele>
        <time>2025-06-04T07:02:14.770Z</time>
      </trkpt>
      <trkpt lat="48.45729" lon="-2.13816">
        <ele>101.84</ele>
        <time>2025-06-04T07:02:13.251Z</time>
      </trkpt>
      <trkpt lat="48.4573" lon="-2.13806">
        <ele>101.86</ele>
        <time>2025-06-04T07:02:12.695Z</time>
      </trkpt>
      <trkpt lat="48.45731" lon="-2.13801">
        <ele>101.87</ele>
        <time>2025-06-04T07:02:11.768Z</time>
      </trkpt>
      <trkpt lat="48.45731" lon="-2.13787">
        <ele>101.87</ele>
        <time>2025-06-04T07:02:10.250Z</time>
      </trkpt>
      <trkpt lat="48.45731" lon="-2.13784">
        <ele>101.87</ele>
        <time>2025-06-04T07:02:09.699Z</time>
      </trkpt>
      <trkpt lat="48.45732" lon="-2.13771">
        <ele>101.87</ele>
        <time>2025-06-04T07:02:08.729Z</time>
      </trkpt>
      <trkpt lat="48.45734" lon="-2.13761">
        <ele>101.86</ele>
        <time>2025-06-04T07:02:07.740Z</time>
      </trkpt>
      <trkpt lat="48.45735" lon="-2.13754">
        <ele>101.86</ele>
        <time>2025-06-04T07:02:06.824Z</time>
      </trkpt>
      <trkpt lat="48.45736" lon="-2.13745">
        <ele>101.86</ele>
        <time>2025-06-04T07:02:05.244Z</time>
      </trkpt>
      <trkpt lat="48.45736" lon="-2.13738">
        <ele>101.86</ele>
        <time>2025-06-04T07:02:05.198Z</time>
      </trkpt>
      <trkpt lat="48.45736" lon="-2.13731">
        <ele>101.86</ele>
        <time>2025-06-04T07:02:03.241Z</time>
      </trkpt>
      <trkpt lat="48.45736" lon="-2.13721">
        <ele>101.86</ele>
        <time>2025-06-04T07:02:03.170Z</time>
      </trkpt>
      <trkpt lat="48.45737" lon="-2.13713">
        <ele>101.86</ele>
        <time>2025-06-04T07:02:01.783Z</time>
      </trkpt>
      <trkpt lat="48.45738" lon="-2.13705">
        <ele>101.86</ele>
        <time>2025-06-04T07:02:01.183Z</time>
      </trkpt>
      <trkpt lat="48.45739" lon="-2.13698">
        <ele>101.86</ele>
        <time>2025-06-04T07:01:59.797Z</time>
      </trkpt>
      <trkpt lat="48.45739" lon="-2.13691">
        <ele>101.86</ele>
        <time>2025-06-04T07:01:58.716Z</time>
      </trkpt>
      <trkpt lat="48.45741" lon="-2.13683">
        <ele>101.87</ele>
        <time>2025-06-04T07:01:58.036Z</time>
      </trkpt>
      <trkpt lat="48.45741" lon="-2.13677">
        <ele>101.88</ele>
        <time>2025-06-04T07:01:57.168Z</time>
      </trkpt>
      <trkpt lat="48.45742" lon="-2.1367">
        <ele>101.91</ele>
        <time>2025-06-04T07:01:55.772Z</time>
      </trkpt>
      <trkpt lat="48.45743" lon="-2.13663">
        <ele>101.93</ele>
        <time>2025-06-04T07:01:54.749Z</time>
      </trkpt>
      <trkpt lat="48.45744" lon="-2.13655">
        <ele>101.96</ele>
        <time>2025-06-04T07:01:53.760Z</time>
      </trkpt>
      <trkpt lat="48.45745" lon="-2.13647">
        <ele>101.979996</ele>
        <time>2025-06-04T07:01:52.999Z</time>
      </trkpt>
      <trkpt lat="48.45746" lon="-2.13642">
        <ele>102.01</ele>
        <time>2025-06-04T07:01:51.702Z</time>
      </trkpt>
      <trkpt lat="48.45747" lon="-2.13637">
        <ele>102.04</ele>
        <time>2025-06-04T07:01:50.702Z</time>
      </trkpt>
      <trkpt lat="48.45747" lon="-2.13632">
        <ele>102.07</ele>
        <time>2025-06-04T07:01:49.750Z</time>
      </trkpt>
      <trkpt lat="48.45749" lon="-2.13627">
        <ele>102.11</ele>
        <time>2025-06-04T07:01:48.694Z</time>
      </trkpt>
      <trkpt lat="48.45749" lon="-2.1362">
        <ele>102.16</ele>
        <time>2025-06-04T07:01:46.799Z</time>
      </trkpt>
      <trkpt lat="48.45752" lon="-2.13609">
        <ele>102.18</ele>
        <time>2025-06-04T07:01:45.258Z</time>
      </trkpt>
      <trkpt lat="48.45755" lon="-2.13603">
        <ele>102.21</ele>
        <time>2025-06-04T07:01:44.259Z</time>
      </trkpt>
      <trkpt lat="48.45758" lon="-2.13598">
        <ele>102.229996</ele>
        <time>2025-06-04T07:01:43.714Z</time>
      </trkpt>
      <trkpt lat="48.4576" lon="-2.13592">
        <ele>102.25</ele>
        <time>2025-06-04T07:01:42.735Z</time>
      </trkpt>
      <trkpt lat="48.45763" lon="-2.13586">
        <ele>102.26</ele>
        <time>2025-06-04T07:01:41.266Z</time>
      </trkpt>
      <trkpt lat="48.45766" lon="-2.1358">
        <ele>102.270004</ele>
        <time>2025-06-04T07:01:40.258Z</time>
      </trkpt>
      <trkpt lat="48.45768" lon="-2.13574">
        <ele>102.26</ele>
        <time>2025-06-04T07:01:39.049Z</time>
      </trkpt>
      <trkpt lat="48.4577" lon="-2.1357">
        <ele>102.24</ele>
        <time>2025-06-04T07:01:38.136Z</time>
      </trkpt>
      <trkpt lat="48.45774" lon="-2.1356">
        <ele>102.22</ele>
        <time>2025-06-04T07:01:37.081Z</time>
      </trkpt>
      <trkpt lat="48.45777" lon="-2.13554">
        <ele>102.2</ele>
        <time>2025-06-04T07:01:35.246Z</time>
      </trkpt>
      <trkpt lat="48.45778" lon="-2.1355">
        <ele>102.17</ele>
        <time>2025-06-04T07:01:34.262Z</time>
      </trkpt>
      <trkpt lat="48.45781" lon="-2.13544">
        <ele>102.14</ele>
        <time>2025-06-04T07:01:33.242Z</time>
      </trkpt>
      <trkpt lat="48.45784" lon="-2.13539">
        <ele>102.08</ele>
        <time>2025-06-04T07:01:32.275Z</time>
      </trkpt>
      <trkpt lat="48.45786" lon="-2.13534">
        <ele>102.020004</ele>
        <time>2025-06-04T07:01:32.068Z</time>
      </trkpt>
      <trkpt lat="48.45789" lon="-2.13529">
        <ele>101.86</ele>
        <time>2025-06-04T07:01:30.163Z</time>
      </trkpt>
      <trkpt lat="48.45792" lon="-2.1352">
        <ele>101.76</ele>
        <time>2025-06-04T07:01:29.082Z</time>
      </trkpt>
      <trkpt lat="48.45794" lon="-2.13516">
        <ele>101.67</ele>
        <time>2025-06-04T07:01:28.030Z</time>
      </trkpt>
      <trkpt lat="48.45795" lon="-2.13512">
        <ele>101.55</ele>
        <time>2025-06-04T07:01:26.270Z</time>
      </trkpt>
      <trkpt lat="48.45797" lon="-2.13507">
        <ele>101.44</ele>
        <time>2025-06-04T07:01:25.266Z</time>
      </trkpt>
      <trkpt lat="48.45799" lon="-2.13502">
        <ele>101.34</ele>
        <time>2025-06-04T07:01:24.982Z</time>
      </trkpt>
      <trkpt lat="48.458" lon="-2.13497">
        <ele>101.22</ele>
        <time>2025-06-04T07:01:23.220Z</time>
      </trkpt>
      <trkpt lat="48.45801" lon="-2.13494">
        <ele>101.020004</ele>
        <time>2025-06-04T07:01:22.143Z</time>
      </trkpt>
      <trkpt lat="48.45803" lon="-2.13488">
        <ele>100.91</ele>
        <time>2025-06-04T07:01:20.829Z</time>
      </trkpt>
      <trkpt lat="48.45805" lon="-2.13485">
        <ele>100.82</ele>
        <time>2025-06-04T07:01:20.088Z</time>
      </trkpt>
      <trkpt lat="48.45806" lon="-2.13482">
        <ele>100.72</ele>
        <time>2025-06-04T07:01:18.261Z</time>
      </trkpt>
      <trkpt lat="48.45807" lon="-2.13479">
        <ele>100.63</ele>
        <time>2025-06-04T07:01:16.953Z</time>
      </trkpt>
      <trkpt lat="48.45808" lon="-2.13476">
        <ele>100.45</ele>
        <time>2025-06-04T07:01:16.039Z</time>
      </trkpt>
      <trkpt lat="48.45807" lon="-2.13469">
        <ele>100.36</ele>
        <time>2025-06-04T07:01:14.262Z</time>
      </trkpt>
      <trkpt lat="48.45807" lon="-2.13465">
        <ele>100.29</ele>
        <time>2025-06-04T07:01:13.260Z</time>
      </trkpt>
      <trkpt lat="48.45806" lon="-2.1346">
        <ele>100.2</ele>
        <time>2025-06-04T07:01:12.241Z</time>
      </trkpt>
      <trkpt lat="48.45805" lon="-2.13455">
        <ele>100.13</ele>
        <time>2025-06-04T07:01:11.183Z</time>
      </trkpt>
      <trkpt lat="48.45804" lon="-2.1345">
        <ele>100.04</ele>
        <time>2025-06-04T07:01:10.259Z</time>
      </trkpt>
      <trkpt lat="48.45803" lon="-2.13444">
        <ele>99.91</ele>
        <time>2025-06-04T07:01:09.109Z</time>
      </trkpt>
      <trkpt lat="48.45802" lon="-2.13433">
        <ele>99.83</ele>
        <time>2025-06-04T07:01:07.752Z</time>
      </trkpt>
      <trkpt lat="48.45801" lon="-2.13428">
        <ele>99.76</ele>
        <time>2025-06-04T07:01:06.997Z</time>
      </trkpt>
      <trkpt lat="48.458" lon="-2.13422">
        <ele>99.67</ele>
        <time>2025-06-04T07:01:05.259Z</time>
      </trkpt>
      <trkpt lat="48.45799" lon="-2.13417">
        <ele>99.58</ele>
        <time>2025-06-04T07:01:04.249Z</time>
      </trkpt>
      <trkpt lat="48.45799" lon="-2.1341">
        <ele>99.4</ele>
        <time>2025-06-04T07:01:02.238Z</time>
      </trkpt>
      <trkpt lat="48.45798" lon="-2.134">
        <ele>99.3</ele>
        <time>2025-06-04T07:01:01.854Z</time>
      </trkpt>
      <trkpt lat="48.45798" lon="-2.13393">
        <ele>99.21</ele>
        <time>2025-06-04T07:01:00.142Z</time>
      </trkpt>
      <trkpt lat="48.45798" lon="-2.13388">
        <ele>99.12</ele>
        <time>2025-06-04T07:00:59.266Z</time>
      </trkpt>
      <trkpt lat="48.45797" lon="-2.13381">
        <ele>99.03</ele>
        <time>2025-06-04T07:00:58.981Z</time>
      </trkpt>
      <trkpt lat="48.45797" lon="-2.13376">
        <ele>98.94</ele>
        <time>2025-06-04T07:00:58.056Z</time>
      </trkpt>
      <trkpt lat="48.45796" lon="-2.13368">
        <ele>98.85</ele>
        <time>2025-06-04T07:00:56.264Z</time>
      </trkpt>
      <trkpt lat="48.45795" lon="-2.13364">
        <ele>98.770004</ele>
        <time>2025-06-04T07:00:55.713Z</time>
      </trkpt>
      <trkpt lat="48.45793" lon="-2.13358">
        <ele>98.68</ele>
        <time>2025-06-04T07:00:54.269Z</time>
      </trkpt>
      <trkpt lat="48.45792" lon="-2.13353">
        <ele>98.59</ele>
        <time>2025-06-04T07:00:53.736Z</time>
      </trkpt>
      <trkpt lat="48.45792" lon="-2.13348">
        <ele>98.5</ele>
        <time>2025-06-04T07:00:53.083Z</time>
      </trkpt>
      <trkpt lat="48.45792" lon="-2.13345">
        <ele>98.41</ele>
        <time>2025-06-04T07:00:51.739Z</time>
      </trkpt>
      <trkpt lat="48.45792" lon="-2.13341">
        <ele>98.229996</ele>
        <time>2025-06-04T07:00:50.120Z</time>
      </trkpt>
      <trkpt lat="48.45796" lon="-2.1333">
        <ele>98.15</ele>
        <time>2025-06-04T07:00:48.266Z</time>
      </trkpt>
      <trkpt lat="48.45798" lon="-2.13325">
        <ele>98.05</ele>
        <time>2025-06-04T07:00:48.063Z</time>
      </trkpt>
      <trkpt lat="48.45804" lon="-2.13314">
        <ele>97.88</ele>
        <time>2025-06-04T07:00:46.117Z</time>
      </trkpt>
      <trkpt lat="48.45803" lon="-2.13314">
        <ele>97.82</ele>
        <time>2025-06-04T07:00:44.720Z</time>
      </trkpt>
      <trkpt lat="48.45801" lon="-2.13315">
        <ele>97.76</ele>
        <time>2025-06-04T07:00:43.276Z</time>
      </trkpt>
      <trkpt lat="48.45802" lon="-2.13314">
        <ele>97.72</ele>
        <time>2025-06-04T07:00:42.266Z</time>
      </trkpt>
      <trkpt lat="48.45805" lon="-2.13309">
        <ele>97.67</ele>
        <time>2025-06-04T07:00:42.005Z</time>
      </trkpt>
      <trkpt lat="48.45808" lon="-2.13304">
        <ele>97.63</ele>
        <time>2025-06-04T07:00:40.253Z</time>
      </trkpt>
      <trkpt lat="48.45811" lon="-2.13299">
        <ele>97.6</ele>
        <time>2025-06-04T07:00:40.031Z</time>
      </trkpt>
      <trkpt lat="48.45815" lon="-2.13296">
        <ele>97.58</ele>
        <time>2025-06-04T07:00:38.622Z</time>
      </trkpt>
      <trkpt lat="48.45818" lon="-2.13294">
        <ele>97.57</ele>
        <time>2025-06-04T07:00:37.601Z</time>
      </trkpt>
      <trkpt lat="48.45822" lon="-2.13293">
        <ele>97.56</ele>
        <time>2025-06-04T07:00:36.592Z</time>
      </trkpt>
      <trkpt lat="48.45826" lon="-2.13293">
        <ele>97.53</ele>
        <time>2025-06-04T07:00:35.281Z</time>
      </trkpt>
      <trkpt lat="48.4583" lon="-2.13294">
        <ele>97.49</ele>
        <time>2025-06-04T07:00:34.186Z</time>
      </trkpt>
      <trkpt lat="48.45834" lon="-2.13297">
        <ele>97.51</ele>
        <time>2025-06-04T07:00:33.260Z</time>
      </trkpt>
      <trkpt lat="48.45839" lon="-2.13302">
        <ele>97.54</ele>
        <time>2025-06-04T07:00:32.870Z</time>
      </trkpt>
      <trkpt lat="48.45843" lon="-2.13306">
        <ele>97.57</ele>
        <time>2025-06-04T07:00:31.257Z</time>
      </trkpt>
      <trkpt lat="48.45847" lon="-2.13311">
        <ele>97.6</ele>
        <time>2025-06-04T07:00:31.014Z</time>
      </trkpt>
      <trkpt lat="48.45851" lon="-2.13315">
        <ele>97.65</ele>
        <time>2025-06-04T07:00:29.262Z</time>
      </trkpt>
      <trkpt lat="48.45855" lon="-2.13318">
        <ele>97.69</ele>
        <time>2025-06-04T07:00:28.189Z</time>
      </trkpt>
      <trkpt lat="48.45859" lon="-2.13322">
        <ele>97.74</ele>
        <time>2025-06-04T07:00:27.207Z</time>
      </trkpt>
      <trkpt lat="48.45862" lon="-2.13325">
        <ele>97.79</ele>
        <time>2025-06-04T07:00:26.161Z</time>
      </trkpt>
      <trkpt lat="48.45867" lon="-2.13329">
        <ele>97.84</ele>
        <time>2025-06-04T07:00:25.793Z</time>
      </trkpt>
      <trkpt lat="48.45871" lon="-2.13334">
        <ele>97.9</ele>
        <time>2025-06-04T07:00:25.029Z</time>
      </trkpt>
      <trkpt lat="48.45876" lon="-2.13338">
        <ele>97.96</ele>
        <time>2025-06-04T07:00:23.738Z</time>
      </trkpt>
      <trkpt lat="48.45879" lon="-2.1334">
        <ele>98.020004</ele>
        <time>2025-06-04T07:00:23.055Z</time>
      </trkpt>
      <trkpt lat="48.45884" lon="-2.13342">
        <ele>98.09</ele>
        <time>2025-06-04T07:00:21.746Z</time>
      </trkpt>
      <trkpt lat="48.45886" lon="-2.13343">
        <ele>98.17</ele>
        <time>2025-06-04T07:00:21.057Z</time>
      </trkpt>
      <trkpt lat="48.4589" lon="-2.13344">
        <ele>98.24</ele>
        <time>2025-06-04T07:00:19.689Z</time>
      </trkpt>
      <trkpt lat="48.45893" lon="-2.13344">
        <ele>98.3</ele>
        <time>2025-06-04T07:00:18.108Z</time>
      </trkpt>
      <trkpt lat="48.45896" lon="-2.13344">
        <ele>98.36</ele>
        <time>2025-06-04T07:00:17.272Z</time>
      </trkpt>
      <trkpt lat="48.45898" lon="-2.13342">
        <ele>98.41</ele>
        <time>2025-06-04T07:00:16.992Z</time>
      </trkpt>
      <trkpt lat="48.45899" lon="-2.13342">
        <ele>98.46</ele>
        <time>2025-06-04T07:00:15.257Z</time>
      </trkpt>
      <trkpt lat="48.45902" lon="-2.13344">
        <ele>98.58</ele>
        <time>2025-06-04T07:00:14.086Z</time>
      </trkpt>
      <trkpt lat="48.45901" lon="-2.13346">
        <ele>98.65</ele>
        <time>2025-06-04T07:00:12.104Z</time>
      </trkpt>
      <trkpt lat="48.45904" lon="-2.13344">
        <ele>98.78</ele>
        <time>2025-06-04T07:00:10.127Z</time>
      </trkpt>
      <trkpt lat="48.45907" lon="-2.13345">
        <ele>100.17</ele>
        <time>2025-06-04T06:59:59.516Z</time>
      </trkpt>
      <trkpt lat="48.45909" lon="-2.13346">
        <ele>100.45</ele>
        <time>2025-06-04T06:59:58.276Z</time>
      </trkpt>
      <trkpt lat="48.45911" lon="-2.13348">
        <ele>100.75</ele>
        <time>2025-06-04T06:59:57.266Z</time>
      </trkpt>
      <trkpt lat="48.45915" lon="-2.13351">
        <ele>101.06</ele>
        <time>2025-06-04T06:59:56.951Z</time>
      </trkpt>
      <trkpt lat="48.45919" lon="-2.13356">
        <ele>101.39</ele>
        <time>2025-06-04T06:59:55.241Z</time>
      </trkpt>
      <trkpt lat="48.45925" lon="-2.13361">
        <ele>101.7</ele>
        <time>2025-06-04T06:59:54.256Z</time>
      </trkpt>
      <trkpt lat="48.4593" lon="-2.13366">
        <ele>102.01</ele>
        <time>2025-06-04T06:59:53.911Z</time>
      </trkpt>
      <trkpt lat="48.45936" lon="-2.13372">
        <ele>102.33</ele>
        <time>2025-06-04T06:59:52.516Z</time>
      </trkpt>
      <trkpt lat="48.45942" lon="-2.13378">
        <ele>102.62</ele>
        <time>2025-06-04T06:59:51.469Z</time>
      </trkpt>
      <trkpt lat="48.45949" lon="-2.13384">
        <ele>102.9</ele>
        <time>2025-06-04T06:59:50.516Z</time>
      </trkpt>
      <trkpt lat="48.45955" lon="-2.1339">
        <ele>103.18</ele>
        <time>2025-06-04T06:59:49.521Z</time>
      </trkpt>
      <trkpt lat="48.45961" lon="-2.13396">
        <ele>103.49</ele>
        <time>2025-06-04T06:59:48.472Z</time>
      </trkpt>
      <trkpt lat="48.45967" lon="-2.13402">
        <ele>103.770004</ele>
        <time>2025-06-04T06:59:47.080Z</time>
      </trkpt>
      <trkpt lat="48.45973" lon="-2.13408">
        <ele>104.09</ele>
        <time>2025-06-04T06:59:46.428Z</time>
      </trkpt>
      <trkpt lat="48.45978" lon="-2.13416">
        <ele>104.4</ele>
        <time>2025-06-04T06:59:45.545Z</time>
      </trkpt>
      <trkpt lat="48.45983" lon="-2.13423">
        <ele>104.61</ele>
        <time>2025-06-04T06:59:44.538Z</time>
      </trkpt>
      <trkpt lat="48.45987" lon="-2.13432">
        <ele>104.84</ele>
        <time>2025-06-04T06:59:43.573Z</time>
      </trkpt>
      <trkpt lat="48.45991" lon="-2.1344">
        <ele>104.97</ele>
        <time>2025-06-04T06:59:42.962Z</time>
      </trkpt>
      <trkpt lat="48.45994" lon="-2.13451">
        <ele>105.1</ele>
        <time>2025-06-04T06:59:41.533Z</time>
      </trkpt>
      <trkpt lat="48.45995" lon="-2.13459">
        <ele>105.16</ele>
        <time>2025-06-04T06:59:40.522Z</time>
      </trkpt>
      <trkpt lat="48.45996" lon="-2.13469">
        <ele>105.22</ele>
        <time>2025-06-04T06:59:39.434Z</time>
      </trkpt>
      <trkpt lat="48.45998" lon="-2.13478">
        <ele>105.229996</ele>
        <time>2025-06-04T06:59:38.532Z</time>
      </trkpt>
      <trkpt lat="48.45999" lon="-2.13487">
        <ele>105.24</ele>
        <time>2025-06-04T06:59:37.482Z</time>
      </trkpt>
      <trkpt lat="48.46" lon="-2.13497">
        <ele>105.2</ele>
        <time>2025-06-04T06:59:36.535Z</time>
      </trkpt>
      <trkpt lat="48.46001" lon="-2.13505">
        <ele>105.15</ele>
        <time>2025-06-04T06:59:35.501Z</time>
      </trkpt>
      <trkpt lat="48.46002" lon="-2.13514">
        <ele>105.09</ele>
        <time>2025-06-04T06:59:34.875Z</time>
      </trkpt>
      <trkpt lat="48.46003" lon="-2.13524">
        <ele>105.020004</ele>
        <time>2025-06-04T06:59:33.847Z</time>
      </trkpt>
      <trkpt lat="48.46004" lon="-2.13533">
        <ele>104.95</ele>
        <time>2025-06-04T06:59:32.459Z</time>
      </trkpt>
      <trkpt lat="48.46005" lon="-2.13542">
        <ele>104.87</ele>
        <time>2025-06-04T06:59:31.485Z</time>
      </trkpt>
      <trkpt lat="48.46006" lon="-2.1355">
        <ele>104.81</ele>
        <time>2025-06-04T06:59:30.509Z</time>
      </trkpt>
      <trkpt lat="48.46007" lon="-2.13559">
        <ele>104.74</ele>
        <time>2025-06-04T06:59:29.730Z</time>
      </trkpt>
      <trkpt lat="48.46008" lon="-2.13567">
        <ele>104.7</ele>
        <time>2025-06-04T06:59:28.520Z</time>
      </trkpt>
      <trkpt lat="48.46009" lon="-2.13574">
        <ele>104.65</ele>
        <time>2025-06-04T06:59:27.528Z</time>
      </trkpt>
      <trkpt lat="48.46009" lon="-2.13582">
        <ele>104.61</ele>
        <time>2025-06-04T06:59:26.549Z</time>
      </trkpt>
      <trkpt lat="48.4601" lon="-2.13589">
        <ele>104.57</ele>
        <time>2025-06-04T06:59:25.483Z</time>
      </trkpt>
      <trkpt lat="48.46011" lon="-2.13596">
        <ele>104.520004</ele>
        <time>2025-06-04T06:59:23.982Z</time>
      </trkpt>
      <trkpt lat="48.46012" lon="-2.13603">
        <ele>104.479996</ele>
        <time>2025-06-04T06:59:23.514Z</time>
      </trkpt>
      <trkpt lat="48.46014" lon="-2.1361">
        <ele>104.43</ele>
        <time>2025-06-04T06:59:22.046Z</time>
      </trkpt>
      <trkpt lat="48.46016" lon="-2.13617">
        <ele>104.38</ele>
        <time>2025-06-04T06:59:21.473Z</time>
      </trkpt>
      <trkpt lat="48.46018" lon="-2.13623">
        <ele>104.32</ele>
        <time>2025-06-04T06:59:20.039Z</time>
      </trkpt>
      <trkpt lat="48.46021" lon="-2.1363">
        <ele>104.270004</ele>
        <time>2025-06-04T06:59:19.444Z</time>
      </trkpt>
      <trkpt lat="48.46022" lon="-2.13637">
        <ele>104.22</ele>
        <time>2025-06-04T06:59:18.530Z</time>
      </trkpt>
      <trkpt lat="48.46024" lon="-2.13645">
        <ele>104.17</ele>
        <time>2025-06-04T06:59:17.461Z</time>
      </trkpt>
      <trkpt lat="48.46026" lon="-2.13652">
        <ele>104.13</ele>
        <time>2025-06-04T06:59:16.450Z</time>
      </trkpt>
      <trkpt lat="48.46028" lon="-2.13659">
        <ele>104.12</ele>
        <time>2025-06-04T06:59:15.433Z</time>
      </trkpt>
      <trkpt lat="48.4603" lon="-2.13666">
        <ele>104.1</ele>
        <time>2025-06-04T06:59:14.932Z</time>
      </trkpt>
      <trkpt lat="48.46031" lon="-2.13673">
        <ele>104.1</ele>
        <time>2025-06-04T06:59:13.561Z</time>
      </trkpt>
      <trkpt lat="48.46032" lon="-2.13681">
        <ele>104.1</ele>
        <time>2025-06-04T06:59:11.954Z</time>
      </trkpt>
      <trkpt lat="48.46033" lon="-2.13687">
        <ele>104.11</ele>
        <time>2025-06-04T06:59:11.465Z</time>
      </trkpt>
      <trkpt lat="48.46034" lon="-2.13695">
        <ele>104.13</ele>
        <time>2025-06-04T06:59:10.445Z</time>
      </trkpt>
      <trkpt lat="48.46035" lon="-2.13701">
        <ele>104.14</ele>
        <time>2025-06-04T06:59:09.546Z</time>
      </trkpt>
      <trkpt lat="48.46036" lon="-2.13708">
        <ele>104.14</ele>
        <time>2025-06-04T06:59:08.856Z</time>
      </trkpt>
      <trkpt lat="48.46037" lon="-2.13715">
        <ele>104.11</ele>
        <time>2025-06-04T06:59:07.486Z</time>
      </trkpt>
      <trkpt lat="48.46038" lon="-2.13723">
        <ele>104.08</ele>
        <time>2025-06-04T06:59:06.528Z</time>
      </trkpt>
      <trkpt lat="48.46038" lon="-2.1373">
        <ele>104.03</ele>
        <time>2025-06-04T06:59:05.537Z</time>
      </trkpt>
      <trkpt lat="48.4604" lon="-2.13738">
        <ele>103.979996</ele>
        <time>2025-06-04T06:59:04.489Z</time>
      </trkpt>
      <trkpt lat="48.4604" lon="-2.13745">
        <ele>103.93</ele>
        <time>2025-06-04T06:59:03.532Z</time>
      </trkpt>
      <trkpt lat="48.46041" lon="-2.13752">
        <ele>103.86</ele>
        <time>2025-06-04T06:59:02.534Z</time>
      </trkpt>
      <trkpt lat="48.46042" lon="-2.13759">
        <ele>103.79</ele>
        <time>2025-06-04T06:59:01.482Z</time>
      </trkpt>
      <trkpt lat="48.46043" lon="-2.13767">
        <ele>103.71</ele>
        <time>2025-06-04T06:59:00.904Z</time>
      </trkpt>
      <trkpt lat="48.46044" lon="-2.13775">
        <ele>103.62</ele>
        <time>2025-06-04T06:58:59.872Z</time>
      </trkpt>
      <trkpt lat="48.46045" lon="-2.13782">
        <ele>103.520004</ele>
        <time>2025-06-04T06:58:58.539Z</time>
      </trkpt>
      <trkpt lat="48.46047" lon="-2.13789">
        <ele>103.44</ele>
        <time>2025-06-04T06:58:57.920Z</time>
      </trkpt>
      <trkpt lat="48.46048" lon="-2.13796">
        <ele>103.36</ele>
        <time>2025-06-04T06:58:56.472Z</time>
      </trkpt>
      <trkpt lat="48.46049" lon="-2.13804">
        <ele>103.26</ele>
        <time>2025-06-04T06:58:55.408Z</time>
      </trkpt>
      <trkpt lat="48.4605" lon="-2.13811">
        <ele>103.16</ele>
        <time>2025-06-04T06:58:54.905Z</time>
      </trkpt>
      <trkpt lat="48.46051" lon="-2.13819">
        <ele>103.08</ele>
        <time>2025-06-04T06:58:53.889Z</time>
      </trkpt>
      <trkpt lat="48.46053" lon="-2.13826">
        <ele>102.979996</ele>
        <time>2025-06-04T06:58:52.444Z</time>
      </trkpt>
      <trkpt lat="48.46054" lon="-2.13833">
        <ele>102.9</ele>
        <time>2025-06-04T06:58:51.441Z</time>
      </trkpt>
      <trkpt lat="48.46054" lon="-2.1384">
        <ele>102.83</ele>
        <time>2025-06-04T06:58:50.519Z</time>
      </trkpt>
      <trkpt lat="48.46056" lon="-2.13847">
        <ele>102.770004</ele>
        <time>2025-06-04T06:58:49.652Z</time>
      </trkpt>
      <trkpt lat="48.46057" lon="-2.13855">
        <ele>102.72</ele>
        <time>2025-06-04T06:58:48.529Z</time>
      </trkpt>
      <trkpt lat="48.46058" lon="-2.13862">
        <ele>102.68</ele>
        <time>2025-06-04T06:58:47.851Z</time>
      </trkpt>
      <trkpt lat="48.46059" lon="-2.13869">
        <ele>102.65</ele>
        <time>2025-06-04T06:58:46.561Z</time>
      </trkpt>
      <trkpt lat="48.4606" lon="-2.13876">
        <ele>102.62</ele>
        <time>2025-06-04T06:58:45.469Z</time>
      </trkpt>
      <trkpt lat="48.46061" lon="-2.13882">
        <ele>102.61</ele>
        <time>2025-06-04T06:58:44.860Z</time>
      </trkpt>
      <trkpt lat="48.46062" lon="-2.13888">
        <ele>102.61</ele>
        <time>2025-06-04T06:58:43.446Z</time>
      </trkpt>
      <trkpt lat="48.46063" lon="-2.13895">
        <ele>102.61</ele>
        <time>2025-06-04T06:58:42.550Z</time>
      </trkpt>
      <trkpt lat="48.46065" lon="-2.13902">
        <ele>102.63</ele>
        <time>2025-06-04T06:58:41.496Z</time>
      </trkpt>
      <trkpt lat="48.46066" lon="-2.13907">
        <ele>102.65</ele>
        <time>2025-06-04T06:58:40.753Z</time>
      </trkpt>
      <trkpt lat="48.46068" lon="-2.13913">
        <ele>102.67</ele>
        <time>2025-06-04T06:58:39.470Z</time>
      </trkpt>
      <trkpt lat="48.46069" lon="-2.13918">
        <ele>102.69</ele>
        <time>2025-06-04T06:58:38.459Z</time>
      </trkpt>
      <trkpt lat="48.46071" lon="-2.13925">
        <ele>102.7</ele>
        <time>2025-06-04T06:58:37.483Z</time>
      </trkpt>
      <trkpt lat="48.46071" lon="-2.1393">
        <ele>102.7</ele>
        <time>2025-06-04T06:58:36.868Z</time>
      </trkpt>
      <trkpt lat="48.46072" lon="-2.13935">
        <ele>102.7</ele>
        <time>2025-06-04T06:58:34.925Z</time>
      </trkpt>
      <trkpt lat="48.46073" lon="-2.13941">
        <ele>102.69</ele>
        <time>2025-06-04T06:58:34.486Z</time>
      </trkpt>
      <trkpt lat="48.46074" lon="-2.13946">
        <ele>102.67</ele>
        <time>2025-06-04T06:58:33.483Z</time>
      </trkpt>
      <trkpt lat="48.46074" lon="-2.1395">
        <ele>102.65</ele>
        <time>2025-06-04T06:58:32.419Z</time>
      </trkpt>
      <trkpt lat="48.46075" lon="-2.13953">
        <ele>102.63</ele>
        <time>2025-06-04T06:58:31.484Z</time>
      </trkpt>
      <trkpt lat="48.46074" lon="-2.13955">
        <ele>102.61</ele>
        <time>2025-06-04T06:58:30.831Z</time>
      </trkpt>
      <trkpt lat="48.46075" lon="-2.13959">
        <ele>102.59</ele>
        <time>2025-06-04T06:58:29.544Z</time>
      </trkpt>
      <trkpt lat="48.46075" lon="-2.13961">
        <ele>102.56</ele>
        <time>2025-06-04T06:58:28.798Z</time>
      </trkpt>
      <trkpt lat="48.46075" lon="-2.13962">
        <ele>102.53</ele>
        <time>2025-06-04T06:58:27.439Z</time>
      </trkpt>
      <trkpt lat="48.46077" lon="-2.13969">
        <ele>101.61</ele>
        <time>2025-06-04T06:58:06.776Z</time>
      </trkpt>
      <trkpt lat="48.46079" lon="-2.13972">
        <ele>101.270004</ele>
        <time>2025-06-04T06:58:06.289Z</time>
      </trkpt>
      <trkpt lat="48.46081" lon="-2.13978">
        <ele>101.05</ele>
        <time>2025-06-04T06:58:03.964Z</time>
      </trkpt>
      <trkpt lat="48.46082" lon="-2.13982">
        <ele>100.81</ele>
        <time>2025-06-04T06:58:02.988Z</time>
      </trkpt>
      <trkpt lat="48.46084" lon="-2.13986">
        <ele>100.54</ele>
        <time>2025-06-04T06:58:02.007Z</time>
      </trkpt>
      <trkpt lat="48.46087" lon="-2.13991">
        <ele>100.25</ele>
        <time>2025-06-04T06:58:01.218Z</time>
      </trkpt>
      <trkpt lat="48.46089" lon="-2.13996">
        <ele>99.94</ele>
        <time>2025-06-04T06:57:59.946Z</time>
      </trkpt>
      <trkpt lat="48.46091" lon="-2.14">
        <ele>99.63</ele>
        <time>2025-06-04T06:57:58.935Z</time>
      </trkpt>
      <trkpt lat="48.46093" lon="-2.14005">
        <ele>99.28</ele>
        <time>2025-06-04T06:57:58.257Z</time>
      </trkpt>
      <trkpt lat="48.46096" lon="-2.14011">
        <ele>98.91</ele>
        <time>2025-06-04T06:57:56.992Z</time>
      </trkpt>
      <trkpt lat="48.46099" lon="-2.14017">
        <ele>98.56</ele>
        <time>2025-06-04T06:57:56.244Z</time>
      </trkpt>
      <trkpt lat="48.46101" lon="-2.14021">
        <ele>98.29</ele>
        <time>2025-06-04T06:57:54.984Z</time>
      </trkpt>
      <trkpt lat="48.46105" lon="-2.14027">
        <ele>98.06</ele>
        <time>2025-06-04T06:57:53.989Z</time>
      </trkpt>
      <trkpt lat="48.46109" lon="-2.14032">
        <ele>97.92</ele>
        <time>2025-06-04T06:57:52.934Z</time>
      </trkpt>
      <trkpt lat="48.46112" lon="-2.14035">
        <ele>97.83</ele>
        <time>2025-06-04T06:57:52.151Z</time>
      </trkpt>
      <trkpt lat="48.46116" lon="-2.14039">
        <ele>97.78</ele>
        <time>2025-06-04T06:57:50.984Z</time>
      </trkpt>
      <trkpt lat="48.4612" lon="-2.14042">
        <ele>97.72</ele>
        <time>2025-06-04T06:57:50.218Z</time>
      </trkpt>
      <trkpt lat="48.46124" lon="-2.14046">
        <ele>97.66</ele>
        <time>2025-06-04T06:57:48.977Z</time>
      </trkpt>
      <trkpt lat="48.46129" lon="-2.1405">
        <ele>97.62</ele>
        <time>2025-06-04T06:57:48.263Z</time>
      </trkpt>
      <trkpt lat="48.46138" lon="-2.14056">
        <ele>97.62</ele>
        <time>2025-06-04T06:57:45.981Z</time>
      </trkpt>
      <trkpt lat="48.46142" lon="-2.1406">
        <ele>97.64</ele>
        <time>2025-06-04T06:57:45.259Z</time>
      </trkpt>
      <trkpt lat="48.46151" lon="-2.14068">
        <ele>97.7</ele>
        <time>2025-06-04T06:57:43.254Z</time>
      </trkpt>
      <trkpt lat="48.4616" lon="-2.14075">
        <ele>97.75</ele>
        <time>2025-06-04T06:57:41.293Z</time>
      </trkpt>
      <trkpt lat="48.46165" lon="-2.14078">
        <ele>97.83</ele>
        <time>2025-06-04T06:57:40.269Z</time>
      </trkpt>
      <trkpt lat="48.4617" lon="-2.14082">
        <ele>97.91</ele>
        <time>2025-06-04T06:57:39.841Z</time>
      </trkpt>
      <trkpt lat="48.46173" lon="-2.14085">
        <ele>98.020004</ele>
        <time>2025-06-04T06:57:38.265Z</time>
      </trkpt>
      <trkpt lat="48.46178" lon="-2.14089">
        <ele>98.18</ele>
        <time>2025-06-04T06:57:37.275Z</time>
      </trkpt>
      <trkpt lat="48.46184" lon="-2.14093">
        <ele>98.37</ele>
        <time>2025-06-04T06:57:36.260Z</time>
      </trkpt>
      <trkpt lat="48.46188" lon="-2.14096">
        <ele>98.9</ele>
        <time>2025-06-04T06:57:35.243Z</time>
      </trkpt>
      <trkpt lat="48.46198" lon="-2.14104">
        <ele>99.24</ele>
        <time>2025-06-04T06:57:33.266Z</time>
      </trkpt>
      <trkpt lat="48.46202" lon="-2.14108">
        <ele>100.03</ele>
        <time>2025-06-04T06:57:32.250Z</time>
      </trkpt>
      <trkpt lat="48.46211" lon="-2.14115">
        <ele>100.28</ele>
        <time>2025-06-04T06:57:30.273Z</time>
      </trkpt>
      <trkpt lat="48.46217" lon="-2.14119">
        <ele>100.520004</ele>
        <time>2025-06-04T06:57:29.264Z</time>
      </trkpt>
      <trkpt lat="48.46222" lon="-2.14123">
        <ele>100.78</ele>
        <time>2025-06-04T06:57:28.279Z</time>
      </trkpt>
      <trkpt lat="48.46226" lon="-2.14126">
        <ele>100.979996</ele>
        <time>2025-06-04T06:57:27.271Z</time>
      </trkpt>
      <trkpt lat="48.4623" lon="-2.1413">
        <ele>101.11</ele>
        <time>2025-06-04T06:57:26.258Z</time>
      </trkpt>
      <trkpt lat="48.46235" lon="-2.14133">
        <ele>101.25</ele>
        <time>2025-06-04T06:57:25.269Z</time>
      </trkpt>
      <trkpt lat="48.4624" lon="-2.14136">
        <ele>101.34</ele>
        <time>2025-06-04T06:57:25.072Z</time>
      </trkpt>
      <trkpt lat="48.46245" lon="-2.1414">
        <ele>101.4</ele>
        <time>2025-06-04T06:57:23.272Z</time>
      </trkpt>
      <trkpt lat="48.4625" lon="-2.14144">
        <ele>101.42</ele>
        <time>2025-06-04T06:57:22.271Z</time>
      </trkpt>
      <trkpt lat="48.46255" lon="-2.14148">
        <ele>101.44</ele>
        <time>2025-06-04T06:57:21.271Z</time>
      </trkpt>
      <trkpt lat="48.4626" lon="-2.14151">
        <ele>101.45</ele>
        <time>2025-06-04T06:57:21.070Z</time>
      </trkpt>
      <trkpt lat="48.46266" lon="-2.14156">
        <ele>101.45</ele>
        <time>2025-06-04T06:57:19.258Z</time>
      </trkpt>
      <trkpt lat="48.4627" lon="-2.14159">
        <ele>101.4</ele>
        <time>2025-06-04T06:57:18.248Z</time>
      </trkpt>
      <trkpt lat="48.46275" lon="-2.14163">
        <ele>101.35</ele>
        <time>2025-06-04T06:57:18.182Z</time>
      </trkpt>
      <trkpt lat="48.4628" lon="-2.14167">
        <ele>101.29</ele>
        <time>2025-06-04T06:57:16.278Z</time>
      </trkpt>
      <trkpt lat="48.46286" lon="-2.14171">
        <ele>101.21</ele>
        <time>2025-06-04T06:57:15.249Z</time>
      </trkpt>
      <trkpt lat="48.4629" lon="-2.14175">
        <ele>101.16</ele>
        <time>2025-06-04T06:57:14.251Z</time>
      </trkpt>
      <trkpt lat="48.46297" lon="-2.14181">
        <ele>101.22</ele>
        <time>2025-06-04T06:57:13.274Z</time>
      </trkpt>
      <trkpt lat="48.46302" lon="-2.14184">
        <ele>101.28</ele>
        <time>2025-06-04T06:57:12.248Z</time>
      </trkpt>
      <trkpt lat="48.46307" lon="-2.14186">
        <ele>101.4</ele>
        <time>2025-06-04T06:57:11.829Z</time>
      </trkpt>
      <trkpt lat="48.46313" lon="-2.14187">
        <ele>101.62</ele>
        <time>2025-06-04T06:57:10.741Z</time>
      </trkpt>
      <trkpt lat="48.4632" lon="-2.14187">
        <ele>101.87</ele>
        <time>2025-06-04T06:57:10.222Z</time>
      </trkpt>
      <trkpt lat="48.46326" lon="-2.14184">
        <ele>102.12</ele>
        <time>2025-06-04T06:57:08.849Z</time>
      </trkpt>
      <trkpt lat="48.46332" lon="-2.14181">
        <ele>102.33</ele>
        <time>2025-06-04T06:57:07.814Z</time>
      </trkpt>
      <trkpt lat="48.46336" lon="-2.14177">
        <ele>102.479996</ele>
        <time>2025-06-04T06:57:07.183Z</time>
      </trkpt>
      <trkpt lat="48.46343" lon="-2.1417">
        <ele>102.59</ele>
        <time>2025-06-04T06:57:05.248Z</time>
      </trkpt>
      <trkpt lat="48.46347" lon="-2.14165">
        <ele>102.63</ele>
        <time>2025-06-04T06:57:04.788Z</time>
      </trkpt>
      <trkpt lat="48.46352" lon="-2.14159">
        <ele>102.66</ele>
        <time>2025-06-04T06:57:04.181Z</time>
      </trkpt>
      <trkpt lat="48.46357" lon="-2.14153">
        <ele>102.68</ele>
        <time>2025-06-04T06:57:02.776Z</time>
      </trkpt>
      <trkpt lat="48.46362" lon="-2.14147">
        <ele>102.59</ele>
        <time>2025-06-04T06:57:01.843Z</time>
      </trkpt>
      <trkpt lat="48.46367" lon="-2.14141">
        <ele>102.49</ele>
        <time>2025-06-04T06:57:01.181Z</time>
      </trkpt>
      <trkpt lat="48.46371" lon="-2.14135">
        <ele>102.32</ele>
        <time>2025-06-04T06:56:59.741Z</time>
      </trkpt>
      <trkpt lat="48.46376" lon="-2.14129">
        <ele>102.14</ele>
        <time>2025-06-04T06:56:59.195Z</time>
      </trkpt>
      <trkpt lat="48.46381" lon="-2.14123">
        <ele>101.95</ele>
        <time>2025-06-04T06:56:57.659Z</time>
      </trkpt>
      <trkpt lat="48.46386" lon="-2.14118">
        <ele>101.82</ele>
        <time>2025-06-04T06:56:56.794Z</time>
      </trkpt>
      <trkpt lat="48.4639" lon="-2.14112">
        <ele>101.7</ele>
        <time>2025-06-04T06:56:55.729Z</time>
      </trkpt>
      <trkpt lat="48.46397" lon="-2.14104">
        <ele>101.6</ele>
        <time>2025-06-04T06:56:54.967Z</time>
      </trkpt>
      <trkpt lat="48.464" lon="-2.14101">
        <ele>101.54</ele>
        <time>2025-06-04T06:56:53.234Z</time>
      </trkpt>
      <trkpt lat="48.46405" lon="-2.14096">
        <ele>101.47</ele>
        <time>2025-06-04T06:56:52.245Z</time>
      </trkpt>
      <trkpt lat="48.4641" lon="-2.1409">
        <ele>101.45</ele>
        <time>2025-06-04T06:56:51.212Z</time>
      </trkpt>
      <trkpt lat="48.46415" lon="-2.14086">
        <ele>101.42</ele>
        <time>2025-06-04T06:56:50.242Z</time>
      </trkpt>
      <trkpt lat="48.4642" lon="-2.14081">
        <ele>101.4</ele>
        <time>2025-06-04T06:56:49.236Z</time>
      </trkpt>
      <trkpt lat="48.46424" lon="-2.14076">
        <ele>101.42</ele>
        <time>2025-06-04T06:56:48.755Z</time>
      </trkpt>
      <trkpt lat="48.46428" lon="-2.14072">
        <ele>101.44</ele>
        <time>2025-06-04T06:56:48.030Z</time>
      </trkpt>
      <trkpt lat="48.46433" lon="-2.14068">
        <ele>101.479996</ele>
        <time>2025-06-04T06:56:47.167Z</time>
      </trkpt>
      <trkpt lat="48.46439" lon="-2.14064">
        <ele>101.53</ele>
        <time>2025-06-04T06:56:45.245Z</time>
      </trkpt>
      <trkpt lat="48.46444" lon="-2.1406">
        <ele>101.58</ele>
        <time>2025-06-04T06:56:44.712Z</time>
      </trkpt>
      <trkpt lat="48.46448" lon="-2.14057">
        <ele>101.64</ele>
        <time>2025-06-04T06:56:43.244Z</time>
      </trkpt>
      <trkpt lat="48.46453" lon="-2.14054">
        <ele>101.7</ele>
        <time>2025-06-04T06:56:43.151Z</time>
      </trkpt>
      <trkpt lat="48.46458" lon="-2.1405">
        <ele>101.79</ele>
        <time>2025-06-04T06:56:41.257Z</time>
      </trkpt>
      <trkpt lat="48.46464" lon="-2.14047">
        <ele>101.9</ele>
        <time>2025-06-04T06:56:41.176Z</time>
      </trkpt>
      <trkpt lat="48.46479" lon="-2.14041">
        <ele>102.04</ele>
        <time>2025-06-04T06:56:40.191Z</time>
      </trkpt>
      <trkpt lat="48.46478" lon="-2.1404">
        <ele>102.19</ele>
        <time>2025-06-04T06:56:39.074Z</time>
      </trkpt>
      <trkpt lat="48.46486" lon="-2.14038">
        <ele>102.44</ele>
        <time>2025-06-04T06:56:37.070Z</time>
      </trkpt>
      <trkpt lat="48.46507" lon="-2.14019">
        <ele>101</ele>
        <time>2025-06-04T06:56:35.214Z</time>
      </trkpt>
      <trkpt lat="48.46507" lon="-2.14019">
        <ele>102.03</ele>
        <time>2025-06-04T06:55:57.455Z</time>
      </trkpt>
      <trkpt lat="48.46507" lon="-2.1401">
        <ele>102.07</ele>
        <time>2025-06-04T06:55:56.442Z</time>
      </trkpt>
      <trkpt lat="48.46507" lon="-2.14001">
        <ele>102.15</ele>
        <time>2025-06-04T06:55:55.407Z</time>
      </trkpt>
      <trkpt lat="48.46508" lon="-2.1398">
        <ele>102.2</ele>
        <time>2025-06-04T06:55:54.454Z</time>
      </trkpt>
      <trkpt lat="48.46508" lon="-2.13979">
        <ele>102.29</ele>
        <time>2025-06-04T06:55:53.424Z</time>
      </trkpt>
      <trkpt lat="48.46508" lon="-2.13973">
        <ele>102.4</ele>
        <time>2025-06-04T06:55:52.428Z</time>
      </trkpt>
      <trkpt lat="48.46507" lon="-2.13966">
        <ele>102.53</ele>
        <time>2025-06-04T06:55:51.398Z</time>
      </trkpt>
      <trkpt lat="48.46507" lon="-2.1396">
        <ele>102.66</ele>
        <time>2025-06-04T06:55:50.384Z</time>
      </trkpt>
      <trkpt lat="48.46508" lon="-2.13954">
        <ele>102.81</ele>
        <time>2025-06-04T06:55:49.394Z</time>
      </trkpt>
      <trkpt lat="48.46508" lon="-2.13947">
        <ele>102.94</ele>
        <time>2025-06-04T06:55:48.320Z</time>
      </trkpt>
      <trkpt lat="48.46509" lon="-2.13941">
        <ele>103.09</ele>
        <time>2025-06-04T06:55:47.418Z</time>
      </trkpt>
      <trkpt lat="48.46509" lon="-2.13936">
        <ele>103.24</ele>
        <time>2025-06-04T06:55:46.624Z</time>
      </trkpt>
      <trkpt lat="48.46509" lon="-2.13931">
        <ele>103.4</ele>
        <time>2025-06-04T06:55:45.381Z</time>
      </trkpt>
      <trkpt lat="48.46509" lon="-2.13921">
        <ele>103.58</ele>
        <time>2025-06-04T06:55:44.617Z</time>
      </trkpt>
      <trkpt lat="48.46509" lon="-2.13918">
        <ele>103.770004</ele>
        <time>2025-06-04T06:55:43.496Z</time>
      </trkpt>
      <trkpt lat="48.46508" lon="-2.1391">
        <ele>103.97</ele>
        <time>2025-06-04T06:55:42.652Z</time>
      </trkpt>
      <trkpt lat="48.46507" lon="-2.13899">
        <ele>104.19</ele>
        <time>2025-06-04T06:55:41.485Z</time>
      </trkpt>
      <trkpt lat="48.46504" lon="-2.13889">
        <ele>104.4</ele>
        <time>2025-06-04T06:55:40.432Z</time>
      </trkpt>
      <trkpt lat="48.46501" lon="-2.13878">
        <ele>104.6</ele>
        <time>2025-06-04T06:55:39.587Z</time>
      </trkpt>
      <trkpt lat="48.46496" lon="-2.1386">
        <ele>104.96</ele>
        <time>2025-06-04T06:55:38.387Z</time>
      </trkpt>
      <trkpt lat="48.46495" lon="-2.13858">
        <ele>104.96</ele>
        <time>2025-06-04T06:55:37.657Z</time>
      </trkpt>
      <trkpt lat="48.46495" lon="-2.13857">
        <ele>105.11</ele>
        <time>2025-06-04T06:55:36.396Z</time>
      </trkpt>
      <trkpt lat="48.46495" lon="-2.13854">
        <ele>105.25</ele>
        <time>2025-06-04T06:55:35.422Z</time>
      </trkpt>
      <trkpt lat="48.46495" lon="-2.13852">
        <ele>105.4</ele>
        <time>2025-06-04T06:55:34.508Z</time>
      </trkpt>
      <trkpt lat="48.46496" lon="-2.1385">
        <ele>105.56</ele>
        <time>2025-06-04T06:55:33.550Z</time>
      </trkpt>
      <trkpt lat="48.46495" lon="-2.13848">
        <ele>105.75</ele>
        <time>2025-06-04T06:55:32.444Z</time>
      </trkpt>
      <trkpt lat="48.46495" lon="-2.13843">
        <ele>105.92</ele>
        <time>2025-06-04T06:55:31.465Z</time>
      </trkpt>
      <trkpt lat="48.46495" lon="-2.13838">
        <ele>106.08</ele>
        <time>2025-06-04T06:55:30.395Z</time>
      </trkpt>
      <trkpt lat="48.46494" lon="-2.13831">
        <ele>106.2</ele>
        <time>2025-06-04T06:55:29.479Z</time>
      </trkpt>
      <trkpt lat="48.46493" lon="-2.13826">
        <ele>106.33</ele>
        <time>2025-06-04T06:55:28.678Z</time>
      </trkpt>
      <trkpt lat="48.46492" lon="-2.13818">
        <ele>106.42</ele>
        <time>2025-06-04T06:55:27.457Z</time>
      </trkpt>
      <trkpt lat="48.46489" lon="-2.13799">
        <ele>106.51</ele>
        <time>2025-06-04T06:55:26.366Z</time>
      </trkpt>
      <trkpt lat="48.46488" lon="-2.13792">
        <ele>106.56</ele>
        <time>2025-06-04T06:55:25.355Z</time>
      </trkpt>
      <trkpt lat="48.46487" lon="-2.13785">
        <ele>106.61</ele>
        <time>2025-06-04T06:55:24.282Z</time>
      </trkpt>
      <trkpt lat="48.46487" lon="-2.13783">
        <ele>106.65</ele>
        <time>2025-06-04T06:55:23.368Z</time>
      </trkpt>
      <trkpt lat="48.46486" lon="-2.13775">
        <ele>106.68</ele>
        <time>2025-06-04T06:55:22.315Z</time>
      </trkpt>
      <trkpt lat="48.46484" lon="-2.13763">
        <ele>106.69</ele>
        <time>2025-06-04T06:55:21.343Z</time>
      </trkpt>
      <trkpt lat="48.46484" lon="-2.13761">
        <ele>106.7</ele>
        <time>2025-06-04T06:55:20.386Z</time>
      </trkpt>
      <trkpt lat="48.46483" lon="-2.13754">
        <ele>106.71</ele>
        <time>2025-06-04T06:55:19.391Z</time>
      </trkpt>
      <trkpt lat="48.46482" lon="-2.13747">
        <ele>106.72</ele>
        <time>2025-06-04T06:55:18.306Z</time>
      </trkpt>
      <trkpt lat="48.46482" lon="-2.13742">
        <ele>106.72</ele>
        <time>2025-06-04T06:55:17.323Z</time>
      </trkpt>
      <trkpt lat="48.46481" lon="-2.13738">
        <ele>106.72</ele>
        <time>2025-06-04T06:55:16.371Z</time>
      </trkpt>
      <trkpt lat="48.4648" lon="-2.13734">
        <ele>106.72</ele>
        <time>2025-06-04T06:55:15.679Z</time>
      </trkpt>
      <trkpt lat="48.46479" lon="-2.13729">
        <ele>106.72</ele>
        <time>2025-06-04T06:55:14.345Z</time>
      </trkpt>
      <trkpt lat="48.46478" lon="-2.13723">
        <ele>106.71</ele>
        <time>2025-06-04T06:55:13.368Z</time>
      </trkpt>
      <trkpt lat="48.46477" lon="-2.13717">
        <ele>106.71</ele>
        <time>2025-06-04T06:55:12.695Z</time>
      </trkpt>
      <trkpt lat="48.46477" lon="-2.13713">
        <ele>106.71</ele>
        <time>2025-06-04T06:55:11.636Z</time>
      </trkpt>
      <trkpt lat="48.46476" lon="-2.13707">
        <ele>106.71</ele>
        <time>2025-06-04T06:55:10.338Z</time>
      </trkpt>
      <trkpt lat="48.46475" lon="-2.13702">
        <ele>106.75</ele>
        <time>2025-06-04T06:55:09.321Z</time>
      </trkpt>
      <trkpt lat="48.46474" lon="-2.13697">
        <ele>106.79</ele>
        <time>2025-06-04T06:55:08.365Z</time>
      </trkpt>
      <trkpt lat="48.46474" lon="-2.13691">
        <ele>106.82</ele>
        <time>2025-06-04T06:55:07.353Z</time>
      </trkpt>
      <trkpt lat="48.46473" lon="-2.13685">
        <ele>106.86</ele>
        <time>2025-06-04T06:55:06.668Z</time>
      </trkpt>
      <trkpt lat="48.46472" lon="-2.13678">
        <ele>106.94</ele>
        <time>2025-06-04T06:55:05.405Z</time>
      </trkpt>
      <trkpt lat="48.46472" lon="-2.13673">
        <ele>107.020004</ele>
        <time>2025-06-04T06:55:04.333Z</time>
      </trkpt>
      <trkpt lat="48.46471" lon="-2.13668">
        <ele>107.1</ele>
        <time>2025-06-04T06:55:03.608Z</time>
      </trkpt>
      <trkpt lat="48.46471" lon="-2.13663">
        <ele>107.18</ele>
        <time>2025-06-04T06:55:02.403Z</time>
      </trkpt>
      <trkpt lat="48.46471" lon="-2.13658">
        <ele>107.25</ele>
        <time>2025-06-04T06:55:01.394Z</time>
      </trkpt>
      <trkpt lat="48.4647" lon="-2.13652">
        <ele>107.33</ele>
        <time>2025-06-04T06:55:00.283Z</time>
      </trkpt>
      <trkpt lat="48.4647" lon="-2.13646">
        <ele>107.39</ele>
        <time>2025-06-04T06:54:59.340Z</time>
      </trkpt>
      <trkpt lat="48.46469" lon="-2.13641">
        <ele>107.44</ele>
        <time>2025-06-04T06:54:58.355Z</time>
      </trkpt>
      <trkpt lat="48.46469" lon="-2.13635">
        <ele>107.5</ele>
        <time>2025-06-04T06:54:57.302Z</time>
      </trkpt>
      <trkpt lat="48.46468" lon="-2.13629">
        <ele>107.54</ele>
        <time>2025-06-04T06:54:56.499Z</time>
      </trkpt>
      <trkpt lat="48.46468" lon="-2.13623">
        <ele>107.57</ele>
        <time>2025-06-04T06:54:55.332Z</time>
      </trkpt>
      <trkpt lat="48.46468" lon="-2.13618">
        <ele>107.59</ele>
        <time>2025-06-04T06:54:54.303Z</time>
      </trkpt>
      <trkpt lat="48.46468" lon="-2.13613">
        <ele>107.59</ele>
        <time>2025-06-04T06:54:53.573Z</time>
      </trkpt>
      <trkpt lat="48.46468" lon="-2.13608">
        <ele>107.58</ele>
        <time>2025-06-04T06:54:52.354Z</time>
      </trkpt>
      <trkpt lat="48.46467" lon="-2.13601">
        <ele>107.520004</ele>
        <time>2025-06-04T06:54:51.416Z</time>
      </trkpt>
      <trkpt lat="48.46466" lon="-2.13595">
        <ele>107.45</ele>
        <time>2025-06-04T06:54:50.307Z</time>
      </trkpt>
      <trkpt lat="48.46465" lon="-2.13588">
        <ele>107.4</ele>
        <time>2025-06-04T06:54:49.321Z</time>
      </trkpt>
      <trkpt lat="48.46462" lon="-2.13575">
        <ele>107.34</ele>
        <time>2025-06-04T06:54:48.358Z</time>
      </trkpt>
      <trkpt lat="48.46461" lon="-2.13568">
        <ele>107.25</ele>
        <time>2025-06-04T06:54:47.725Z</time>
      </trkpt>
      <trkpt lat="48.4646" lon="-2.13565">
        <ele>107.16</ele>
        <time>2025-06-04T06:54:46.581Z</time>
      </trkpt>
      <trkpt lat="48.46463" lon="-2.13564">
        <ele>107.05</ele>
        <time>2025-06-04T06:54:45.212Z</time>
      </trkpt>
      <trkpt lat="48.46464" lon="-2.13567">
        <ele>106.93</ele>
        <time>2025-06-04T06:54:44.196Z</time>
      </trkpt>
      <trkpt lat="48.46464" lon="-2.13561">
        <ele>106.8</ele>
        <time>2025-06-04T06:54:43.350Z</time>
      </trkpt>
      <trkpt lat="48.46465" lon="-2.13554">
        <ele>106.71</ele>
        <time>2025-06-04T06:54:42.696Z</time>
      </trkpt>
      <trkpt lat="48.46465" lon="-2.13548">
        <ele>106.6</ele>
        <time>2025-06-04T06:54:41.248Z</time>
      </trkpt>
      <trkpt lat="48.46465" lon="-2.13542">
        <ele>106.5</ele>
        <time>2025-06-04T06:54:40.290Z</time>
      </trkpt>
      <trkpt lat="48.46465" lon="-2.13537">
        <ele>106.41</ele>
        <time>2025-06-04T06:54:39.357Z</time>
      </trkpt>
      <trkpt lat="48.46465" lon="-2.13531">
        <ele>106.32</ele>
        <time>2025-06-04T06:54:38.692Z</time>
      </trkpt>
      <trkpt lat="48.46465" lon="-2.13525">
        <ele>106.229996</ele>
        <time>2025-06-04T06:54:37.288Z</time>
      </trkpt>
      <trkpt lat="48.46465" lon="-2.13514">
        <ele>106.14</ele>
        <time>2025-06-04T06:54:36.291Z</time>
      </trkpt>
      <trkpt lat="48.46464" lon="-2.1351">
        <ele>106.03</ele>
        <time>2025-06-04T06:54:35.195Z</time>
      </trkpt>
      <trkpt lat="48.46465" lon="-2.13503">
        <ele>105.94</ele>
        <time>2025-06-04T06:54:34.190Z</time>
      </trkpt>
      <trkpt lat="48.46464" lon="-2.13496">
        <ele>105.79</ele>
        <time>2025-06-04T06:54:33.297Z</time>
      </trkpt>
      <trkpt lat="48.46463" lon="-2.13485">
        <ele>105.62</ele>
        <time>2025-06-04T06:54:32.330Z</time>
      </trkpt>
      <trkpt lat="48.46463" lon="-2.13478">
        <ele>105.44</ele>
        <time>2025-06-04T06:54:31.521Z</time>
      </trkpt>
      <trkpt lat="48.46462" lon="-2.13466">
        <ele>105.229996</ele>
        <time>2025-06-04T06:54:30.696Z</time>
      </trkpt>
      <trkpt lat="48.4646" lon="-2.1345">
        <ele>104.99</ele>
        <time>2025-06-04T06:54:28.745Z</time>
      </trkpt>
      <trkpt lat="48.46458" lon="-2.13443">
        <ele>104.9</ele>
        <time>2025-06-04T06:54:28.277Z</time>
      </trkpt>
      <trkpt lat="48.46458" lon="-2.1344">
        <ele>104.74</ele>
        <time>2025-06-04T06:54:27.490Z</time>
      </trkpt>
      <trkpt lat="48.46458" lon="-2.13435">
        <ele>104.55</ele>
        <time>2025-06-04T06:54:26.237Z</time>
      </trkpt>
      <trkpt lat="48.46459" lon="-2.13432">
        <ele>104.33</ele>
        <time>2025-06-04T06:54:25.278Z</time>
      </trkpt>
      <trkpt lat="48.46459" lon="-2.13433">
        <ele>104.09</ele>
        <time>2025-06-04T06:54:24.281Z</time>
      </trkpt>
      <trkpt lat="48.46459" lon="-2.13423">
        <ele>103.91</ele>
        <time>2025-06-04T06:54:23.291Z</time>
      </trkpt>
      <trkpt lat="48.46458" lon="-2.13419">
        <ele>103.76</ele>
        <time>2025-06-04T06:54:22.688Z</time>
      </trkpt>
      <trkpt lat="48.46458" lon="-2.13412">
        <ele>103.61</ele>
        <time>2025-06-04T06:54:21.255Z</time>
      </trkpt>
      <trkpt lat="48.46458" lon="-2.13407">
        <ele>103.45</ele>
        <time>2025-06-04T06:54:20.233Z</time>
      </trkpt>
      <trkpt lat="48.46457" lon="-2.13393">
        <ele>103.28</ele>
        <time>2025-06-04T06:54:19.271Z</time>
      </trkpt>
      <trkpt lat="48.46458" lon="-2.13392">
        <ele>103.14</ele>
        <time>2025-06-04T06:54:18.662Z</time>
      </trkpt>
      <trkpt lat="48.46458" lon="-2.13383">
        <ele>103</ele>
        <time>2025-06-04T06:54:16.718Z</time>
      </trkpt>
      <trkpt lat="48.46458" lon="-2.13379">
        <ele>102.86</ele>
        <time>2025-06-04T06:54:16.243Z</time>
      </trkpt>
      <trkpt lat="48.46458" lon="-2.13373">
        <ele>102.770004</ele>
        <time>2025-06-04T06:54:15.351Z</time>
      </trkpt>
      <trkpt lat="48.4646" lon="-2.13361">
        <ele>102.67</ele>
        <time>2025-06-04T06:54:14.386Z</time>
      </trkpt>
      <trkpt lat="48.46461" lon="-2.13359">
        <ele>102.59</ele>
        <time>2025-06-04T06:54:13.255Z</time>
      </trkpt>
      <trkpt lat="48.46463" lon="-2.1335">
        <ele>102.53</ele>
        <time>2025-06-04T06:54:12.650Z</time>
      </trkpt>
      <trkpt lat="48.46465" lon="-2.13344">
        <ele>102.46</ele>
        <time>2025-06-04T06:54:10.710Z</time>
      </trkpt>
      <trkpt lat="48.46468" lon="-2.13336">
        <ele>102.4</ele>
        <time>2025-06-04T06:54:10.276Z</time>
      </trkpt>
      <trkpt lat="48.46472" lon="-2.13326">
        <ele>102.34</ele>
        <time>2025-06-04T06:54:09.640Z</time>
      </trkpt>
      <trkpt lat="48.46473" lon="-2.1332">
        <ele>102.29</ele>
        <time>2025-06-04T06:54:08.041Z</time>
      </trkpt>
      <trkpt lat="48.46474" lon="-2.13314">
        <ele>102.229996</ele>
        <time>2025-06-04T06:54:07.319Z</time>
      </trkpt>
      <trkpt lat="48.46474" lon="-2.13311">
        <ele>102.18</ele>
        <time>2025-06-04T06:54:06.300Z</time>
      </trkpt>
      <trkpt lat="48.46471" lon="-2.13288">
        <ele>102.14</ele>
        <time>2025-06-04T06:54:05.431Z</time>
      </trkpt>
      <trkpt lat="48.4647" lon="-2.13287">
        <ele>102.13</ele>
        <time>2025-06-04T06:54:04.286Z</time>
      </trkpt>
      <trkpt lat="48.46473" lon="-2.13283">
        <ele>102.12</ele>
        <time>2025-06-04T06:54:03.268Z</time>
      </trkpt>
      <trkpt lat="48.46478" lon="-2.13279">
        <ele>102.13</ele>
        <time>2025-06-04T06:54:01.726Z</time>
      </trkpt>
      <trkpt lat="48.46481" lon="-2.13275">
        <ele>102.13</ele>
        <time>2025-06-04T06:54:01.283Z</time>
      </trkpt>
      <trkpt lat="48.46484" lon="-2.13271">
        <ele>102.14</ele>
        <time>2025-06-04T06:54:00.264Z</time>
      </trkpt>
      <trkpt lat="48.46487" lon="-2.13267">
        <ele>102.15</ele>
        <time>2025-06-04T06:53:59.605Z</time>
      </trkpt>
      <trkpt lat="48.46489" lon="-2.13264">
        <ele>102.17</ele>
        <time>2025-06-04T06:53:57.910Z</time>
      </trkpt>
      <trkpt lat="48.46491" lon="-2.13261">
        <ele>102.18</ele>
        <time>2025-06-04T06:53:57.629Z</time>
      </trkpt>
      <trkpt lat="48.46492" lon="-2.13259">
        <ele>102.19</ele>
        <time>2025-06-04T06:53:55.674Z</time>
      </trkpt>
      <trkpt lat="48.46493" lon="-2.13259">
        <ele>102.21</ele>
        <time>2025-06-04T06:53:55.660Z</time>
      </trkpt>
      <trkpt lat="48.46493" lon="-2.13257">
        <ele>102.229996</ele>
        <time>2025-06-04T06:53:54.378Z</time>
      </trkpt>
      <trkpt lat="48.46493" lon="-2.13254">
        <ele>102.25</ele>
        <time>2025-06-04T06:53:53.440Z</time>
      </trkpt>
      <trkpt lat="48.46494" lon="-2.13253">
        <ele>102.270004</ele>
        <time>2025-06-04T06:53:52.370Z</time>
      </trkpt>
      <trkpt lat="48.46493" lon="-2.13254">
        <ele>103.1</ele>
        <time>2025-06-04T06:53:28.249Z</time>
      </trkpt>
      <trkpt lat="48.46494" lon="-2.13249">
        <ele>103.2</ele>
        <time>2025-06-04T06:53:26.896Z</time>
      </trkpt>
      <trkpt lat="48.46495" lon="-2.13245">
        <ele>103.31</ele>
        <time>2025-06-04T06:53:25.820Z</time>
      </trkpt>
      <trkpt lat="48.46496" lon="-2.13239">
        <ele>103.41</ele>
        <time>2025-06-04T06:53:25.244Z</time>
      </trkpt>
      <trkpt lat="48.46497" lon="-2.13235">
        <ele>103.53</ele>
        <time>2025-06-04T06:53:23.965Z</time>
      </trkpt>
      <trkpt lat="48.46498" lon="-2.1323">
        <ele>103.64</ele>
        <time>2025-06-04T06:53:23.263Z</time>
      </trkpt>
      <trkpt lat="48.465" lon="-2.13225">
        <ele>103.75</ele>
        <time>2025-06-04T06:53:21.978Z</time>
      </trkpt>
      <trkpt lat="48.46501" lon="-2.13221">
        <ele>103.84</ele>
        <time>2025-06-04T06:53:21.228Z</time>
      </trkpt>
      <trkpt lat="48.46502" lon="-2.13216">
        <ele>103.94</ele>
        <time>2025-06-04T06:53:19.315Z</time>
      </trkpt>
      <trkpt lat="48.46503" lon="-2.13211">
        <ele>104.05</ele>
        <time>2025-06-04T06:53:18.870Z</time>
      </trkpt>
      <trkpt lat="48.46504" lon="-2.13205">
        <ele>104.16</ele>
        <time>2025-06-04T06:53:17.928Z</time>
      </trkpt>
      <trkpt lat="48.46505" lon="-2.132">
        <ele>104.28</ele>
        <time>2025-06-04T06:53:17.289Z</time>
      </trkpt>
      <trkpt lat="48.46508" lon="-2.13194">
        <ele>104.38</ele>
        <time>2025-06-04T06:53:15.328Z</time>
      </trkpt>
      <trkpt lat="48.46509" lon="-2.1319">
        <ele>104.51</ele>
        <time>2025-06-04T06:53:14.331Z</time>
      </trkpt>
      <trkpt lat="48.4651" lon="-2.13184">
        <ele>104.63</ele>
        <time>2025-06-04T06:53:13.973Z</time>
      </trkpt>
      <trkpt lat="48.46511" lon="-2.13179">
        <ele>104.75</ele>
        <time>2025-06-04T06:53:13.276Z</time>
      </trkpt>
      <trkpt lat="48.46512" lon="-2.13174">
        <ele>104.87</ele>
        <time>2025-06-04T06:53:11.316Z</time>
      </trkpt>
      <trkpt lat="48.46513" lon="-2.13168">
        <ele>104.979996</ele>
        <time>2025-06-04T06:53:10.933Z</time>
      </trkpt>
      <trkpt lat="48.46514" lon="-2.13163">
        <ele>105.08</ele>
        <time>2025-06-04T06:53:09.846Z</time>
      </trkpt>
      <trkpt lat="48.46515" lon="-2.13158">
        <ele>105.19</ele>
        <time>2025-06-04T06:53:09.281Z</time>
      </trkpt>
      <trkpt lat="48.46516" lon="-2.13152">
        <ele>105.3</ele>
        <time>2025-06-04T06:53:07.317Z</time>
      </trkpt>
      <trkpt lat="48.46518" lon="-2.13146">
        <ele>105.4</ele>
        <time>2025-06-04T06:53:06.867Z</time>
      </trkpt>
      <trkpt lat="48.46519" lon="-2.1314">
        <ele>105.49</ele>
        <time>2025-06-04T06:53:06.255Z</time>
      </trkpt>
      <trkpt lat="48.46521" lon="-2.13134">
        <ele>105.57</ele>
        <time>2025-06-04T06:53:04.957Z</time>
      </trkpt>
      <trkpt lat="48.46522" lon="-2.13128">
        <ele>105.65</ele>
        <time>2025-06-04T06:53:03.950Z</time>
      </trkpt>
      <trkpt lat="48.46523" lon="-2.13121">
        <ele>105.729996</ele>
        <time>2025-06-04T06:53:02.838Z</time>
      </trkpt>
      <trkpt lat="48.46524" lon="-2.13115">
        <ele>105.79</ele>
        <time>2025-06-04T06:53:01.820Z</time>
      </trkpt>
      <trkpt lat="48.46526" lon="-2.13106">
        <ele>105.85</ele>
        <time>2025-06-04T06:53:01.257Z</time>
      </trkpt>
      <trkpt lat="48.46527" lon="-2.13101">
        <ele>105.9</ele>
        <time>2025-06-04T06:53:00.223Z</time>
      </trkpt>
      <trkpt lat="48.46528" lon="-2.13094">
        <ele>105.93</ele>
        <time>2025-06-04T06:52:58.897Z</time>
      </trkpt>
      <trkpt lat="48.4653" lon="-2.13088">
        <ele>105.97</ele>
        <time>2025-06-04T06:52:57.882Z</time>
      </trkpt>
      <trkpt lat="48.46531" lon="-2.13081">
        <ele>106</ele>
        <time>2025-06-04T06:52:56.870Z</time>
      </trkpt>
      <trkpt lat="48.46532" lon="-2.13076">
        <ele>106.01</ele>
        <time>2025-06-04T06:52:55.931Z</time>
      </trkpt>
      <trkpt lat="48.46533" lon="-2.13073">
        <ele>106.03</ele>
        <time>2025-06-04T06:52:54.884Z</time>
      </trkpt>
      <trkpt lat="48.46534" lon="-2.13069">
        <ele>106.04</ele>
        <time>2025-06-04T06:52:53.930Z</time>
      </trkpt>
      <trkpt lat="48.46536" lon="-2.13065">
        <ele>106.05</ele>
        <time>2025-06-04T06:52:53.261Z</time>
      </trkpt>
      <trkpt lat="48.46537" lon="-2.13061">
        <ele>106.06</ele>
        <time>2025-06-04T06:52:51.288Z</time>
      </trkpt>
      <trkpt lat="48.46539" lon="-2.13057">
        <ele>106.06</ele>
        <time>2025-06-04T06:52:51.248Z</time>
      </trkpt>
      <trkpt lat="48.4654" lon="-2.13055">
        <ele>106.07</ele>
        <time>2025-06-04T06:52:49.303Z</time>
      </trkpt>
      <trkpt lat="48.4654" lon="-2.13053">
        <ele>106.07</ele>
        <time>2025-06-04T06:52:48.304Z</time>
      </trkpt>
      <trkpt lat="48.46541" lon="-2.13051">
        <ele>106.4</ele>
        <time>2025-06-04T06:52:08.414Z</time>
      </trkpt>
      <trkpt lat="48.46541" lon="-2.13048">
        <ele>106.44</ele>
        <time>2025-06-04T06:52:07.394Z</time>
      </trkpt>
      <trkpt lat="48.4654" lon="-2.13044">
        <ele>106.479996</ele>
        <time>2025-06-04T06:52:06.460Z</time>
      </trkpt>
      <trkpt lat="48.46541" lon="-2.1304">
        <ele>106.520004</ele>
        <time>2025-06-04T06:52:05.338Z</time>
      </trkpt>
      <trkpt lat="48.46541" lon="-2.13036">
        <ele>106.58</ele>
        <time>2025-06-04T06:52:04.349Z</time>
      </trkpt>
      <trkpt lat="48.46542" lon="-2.1303">
        <ele>106.63</ele>
        <time>2025-06-04T06:52:03.334Z</time>
      </trkpt>
      <trkpt lat="48.46543" lon="-2.13025">
        <ele>106.69</ele>
        <time>2025-06-04T06:52:02.344Z</time>
      </trkpt>
      <trkpt lat="48.46544" lon="-2.13019">
        <ele>106.76</ele>
        <time>2025-06-04T06:52:01.413Z</time>
      </trkpt>
      <trkpt lat="48.46544" lon="-2.13014">
        <ele>106.83</ele>
        <time>2025-06-04T06:52:00.353Z</time>
      </trkpt>
      <trkpt lat="48.46545" lon="-2.13007">
        <ele>106.91</ele>
        <time>2025-06-04T06:51:59.406Z</time>
      </trkpt>
      <trkpt lat="48.46546" lon="-2.13001">
        <ele>107</ele>
        <time>2025-06-04T06:51:58.311Z</time>
      </trkpt>
      <trkpt lat="48.46547" lon="-2.12994">
        <ele>107.08</ele>
        <time>2025-06-04T06:51:57.526Z</time>
      </trkpt>
      <trkpt lat="48.46547" lon="-2.12987">
        <ele>107.16</ele>
        <time>2025-06-04T06:51:56.666Z</time>
      </trkpt>
      <trkpt lat="48.46548" lon="-2.12979">
        <ele>107.24</ele>
        <time>2025-06-04T06:51:55.419Z</time>
      </trkpt>
      <trkpt lat="48.46548" lon="-2.1297">
        <ele>107.31</ele>
        <time>2025-06-04T06:51:54.405Z</time>
      </trkpt>
      <trkpt lat="48.46549" lon="-2.12963">
        <ele>107.36</ele>
        <time>2025-06-04T06:51:53.626Z</time>
      </trkpt>
      <trkpt lat="48.46551" lon="-2.1295">
        <ele>107.41</ele>
        <time>2025-06-04T06:51:52.634Z</time>
      </trkpt>
      <trkpt lat="48.46552" lon="-2.12944">
        <ele>107.44</ele>
        <time>2025-06-04T06:51:51.457Z</time>
      </trkpt>
      <trkpt lat="48.46551" lon="-2.12941">
        <ele>107.479996</ele>
        <time>2025-06-04T06:51:50.410Z</time>
      </trkpt>
      <trkpt lat="48.4655" lon="-2.12942">
        <ele>107.51</ele>
        <time>2025-06-04T06:51:48.762Z</time>
      </trkpt>
      <trkpt lat="48.46551" lon="-2.12935">
        <ele>107.55</ele>
        <time>2025-06-04T06:51:48.432Z</time>
      </trkpt>
      <trkpt lat="48.46552" lon="-2.12928">
        <ele>107.57</ele>
        <time>2025-06-04T06:51:47.646Z</time>
      </trkpt>
      <trkpt lat="48.46553" lon="-2.12921">
        <ele>107.59</ele>
        <time>2025-06-04T06:51:45.767Z</time>
      </trkpt>
      <trkpt lat="48.46553" lon="-2.12916">
        <ele>107.6</ele>
        <time>2025-06-04T06:51:45.342Z</time>
      </trkpt>
      <trkpt lat="48.46553" lon="-2.1291">
        <ele>107.61</ele>
        <time>2025-06-04T06:51:44.374Z</time>
      </trkpt>
      <trkpt lat="48.46553" lon="-2.12905">
        <ele>107.61</ele>
        <time>2025-06-04T06:51:42.771Z</time>
      </trkpt>
      <trkpt lat="48.46554" lon="-2.129">
        <ele>107.6</ele>
        <time>2025-06-04T06:51:42.407Z</time>
      </trkpt>
      <trkpt lat="48.46554" lon="-2.12895">
        <ele>107.6</ele>
        <time>2025-06-04T06:51:41.445Z</time>
      </trkpt>
      <trkpt lat="48.46555" lon="-2.12889">
        <ele>107.57</ele>
        <time>2025-06-04T06:51:39.752Z</time>
      </trkpt>
      <trkpt lat="48.46555" lon="-2.12883">
        <ele>107.54</ele>
        <time>2025-06-04T06:51:39.473Z</time>
      </trkpt>
      <trkpt lat="48.46555" lon="-2.12877">
        <ele>107.51</ele>
        <time>2025-06-04T06:51:38.669Z</time>
      </trkpt>
      <trkpt lat="48.46555" lon="-2.12872">
        <ele>107.479996</ele>
        <time>2025-06-04T06:51:37.421Z</time>
      </trkpt>
      <trkpt lat="48.46556" lon="-2.12865">
        <ele>107.44</ele>
        <time>2025-06-04T06:51:36.319Z</time>
      </trkpt>
      <trkpt lat="48.46555" lon="-2.12858">
        <ele>107.4</ele>
        <time>2025-06-04T06:51:35.347Z</time>
      </trkpt>
      <trkpt lat="48.46555" lon="-2.12851">
        <ele>107.37</ele>
        <time>2025-06-04T06:51:34.566Z</time>
      </trkpt>
      <trkpt lat="48.46555" lon="-2.12843">
        <ele>107.33</ele>
        <time>2025-06-04T06:51:33.411Z</time>
      </trkpt>
      <trkpt lat="48.46554" lon="-2.12836">
        <ele>107.29</ele>
        <time>2025-06-04T06:51:32.365Z</time>
      </trkpt>
      <trkpt lat="48.46554" lon="-2.12829">
        <ele>107.25</ele>
        <time>2025-06-04T06:51:30.722Z</time>
      </trkpt>
      <trkpt lat="48.46554" lon="-2.12821">
        <ele>107.21</ele>
        <time>2025-06-04T06:51:30.473Z</time>
      </trkpt>
      <trkpt lat="48.46555" lon="-2.12814">
        <ele>107.15</ele>
        <time>2025-06-04T06:51:28.804Z</time>
      </trkpt>
      <trkpt lat="48.46556" lon="-2.12804">
        <ele>107.1</ele>
        <time>2025-06-04T06:51:27.749Z</time>
      </trkpt>
      <trkpt lat="48.46556" lon="-2.12798">
        <ele>107.03</ele>
        <time>2025-06-04T06:51:27.360Z</time>
      </trkpt>
      <trkpt lat="48.46556" lon="-2.12789">
        <ele>106.96</ele>
        <time>2025-06-04T06:51:26.399Z</time>
      </trkpt>
      <trkpt lat="48.46556" lon="-2.12779">
        <ele>106.89</ele>
        <time>2025-06-04T06:51:24.754Z</time>
      </trkpt>
      <trkpt lat="48.46555" lon="-2.12774">
        <ele>106.82</ele>
        <time>2025-06-04T06:51:24.436Z</time>
      </trkpt>
      <trkpt lat="48.46554" lon="-2.12764">
        <ele>106.78</ele>
        <time>2025-06-04T06:51:23.418Z</time>
      </trkpt>
      <trkpt lat="48.46554" lon="-2.12755">
        <ele>106.74</ele>
        <time>2025-06-04T06:51:21.698Z</time>
      </trkpt>
      <trkpt lat="48.46554" lon="-2.12746">
        <ele>106.71</ele>
        <time>2025-06-04T06:51:21.470Z</time>
      </trkpt>
      <trkpt lat="48.46555" lon="-2.1274">
        <ele>106.69</ele>
        <time>2025-06-04T06:51:20.574Z</time>
      </trkpt>
      <trkpt lat="48.46555" lon="-2.12734">
        <ele>106.66</ele>
        <time>2025-06-04T06:51:19.335Z</time>
      </trkpt>
      <trkpt lat="48.46554" lon="-2.12732">
        <ele>106.63</ele>
        <time>2025-06-04T06:51:18.325Z</time>
      </trkpt>
      <trkpt lat="48.46553" lon="-2.12734">
        <ele>106.6</ele>
        <time>2025-06-04T06:51:17.311Z</time>
      </trkpt>
      <trkpt lat="48.46553" lon="-2.12735">
        <ele>106.57</ele>
        <time>2025-06-04T06:51:16.119Z</time>
      </trkpt>
      <trkpt lat="48.46552" lon="-2.12728">
        <ele>106.53</ele>
        <time>2025-06-04T06:51:14.720Z</time>
      </trkpt>
      <trkpt lat="48.46552" lon="-2.12722">
        <ele>106.49</ele>
        <time>2025-06-04T06:51:14.367Z</time>
      </trkpt>
      <trkpt lat="48.46552" lon="-2.12715">
        <ele>106.46</ele>
        <time>2025-06-04T06:51:13.625Z</time>
      </trkpt>
      <trkpt lat="48.46552" lon="-2.12709">
        <ele>106.42</ele>
        <time>2025-06-04T06:51:12.185Z</time>
      </trkpt>
      <trkpt lat="48.46551" lon="-2.12702">
        <ele>106.39</ele>
        <time>2025-06-04T06:51:11.640Z</time>
      </trkpt>
      <trkpt lat="48.46551" lon="-2.12693">
        <ele>106.35</ele>
        <time>2025-06-04T06:51:10.625Z</time>
      </trkpt>
      <trkpt lat="48.46549" lon="-2.12657">
        <ele>106.32</ele>
        <time>2025-06-04T06:51:09.198Z</time>
      </trkpt>
      <trkpt lat="48.46548" lon="-2.12649">
        <ele>106.29</ele>
        <time>2025-06-04T06:51:08.437Z</time>
      </trkpt>
      <trkpt lat="48.46548" lon="-2.12651">
        <ele>106.26</ele>
        <time>2025-06-04T06:51:07.340Z</time>
      </trkpt>
      <trkpt lat="48.46548" lon="-2.12646">
        <ele>106.24</ele>
        <time>2025-06-04T06:51:05.670Z</time>
      </trkpt>
      <trkpt lat="48.46547" lon="-2.12641">
        <ele>106.21</ele>
        <time>2025-06-04T06:51:05.339Z</time>
      </trkpt>
      <trkpt lat="48.46548" lon="-2.12638">
        <ele>106.18</ele>
        <time>2025-06-04T06:51:03.669Z</time>
      </trkpt>
      <trkpt lat="48.46548" lon="-2.1264">
        <ele>106.16</ele>
        <time>2025-06-04T06:51:03.323Z</time>
      </trkpt>
      <trkpt lat="48.46548" lon="-2.12641">
        <ele>106.14</ele>
        <time>2025-06-04T06:51:02.493Z</time>
      </trkpt>
      <trkpt lat="48.46548" lon="-2.12636">
        <ele>106.11</ele>
        <time>2025-06-04T06:51:00.658Z</time>
      </trkpt>
      <trkpt lat="48.46547" lon="-2.1263">
        <ele>106.08</ele>
        <time>2025-06-04T06:51:00.384Z</time>
      </trkpt>
      <trkpt lat="48.46547" lon="-2.12622">
        <ele>106.05</ele>
        <time>2025-06-04T06:50:59.378Z</time>
      </trkpt>
      <trkpt lat="48.46546" lon="-2.12616">
        <ele>106.05</ele>
        <time>2025-06-04T06:50:58.460Z</time>
      </trkpt>
      <trkpt lat="48.46546" lon="-2.1261">
        <ele>106.07</ele>
        <time>2025-06-04T06:50:57.596Z</time>
      </trkpt>
      <trkpt lat="48.46545" lon="-2.12604">
        <ele>106.12</ele>
        <time>2025-06-04T06:50:56.366Z</time>
      </trkpt>
      <trkpt lat="48.46545" lon="-2.12597">
        <ele>106.18</ele>
        <time>2025-06-04T06:50:54.736Z</time>
      </trkpt>
      <trkpt lat="48.46544" lon="-2.1259">
        <ele>106.3</ele>
        <time>2025-06-04T06:50:54.456Z</time>
      </trkpt>
      <trkpt lat="48.46544" lon="-2.12583">
        <ele>106.42</ele>
        <time>2025-06-04T06:50:53.558Z</time>
      </trkpt>
      <trkpt lat="48.46543" lon="-2.12571">
        <ele>106.59</ele>
        <time>2025-06-04T06:50:51.758Z</time>
      </trkpt>
      <trkpt lat="48.46542" lon="-2.12563">
        <ele>106.79</ele>
        <time>2025-06-04T06:50:51.511Z</time>
      </trkpt>
      <trkpt lat="48.46542" lon="-2.12546">
        <ele>106.95</ele>
        <time>2025-06-04T06:50:50.048Z</time>
      </trkpt>
      <trkpt lat="48.46541" lon="-2.12539">
        <ele>107.14</ele>
        <time>2025-06-04T06:50:49.059Z</time>
      </trkpt>
      <trkpt lat="48.4654" lon="-2.12535">
        <ele>107.33</ele>
        <time>2025-06-04T06:50:47.843Z</time>
      </trkpt>
      <trkpt lat="48.4654" lon="-2.12533">
        <ele>107.54</ele>
        <time>2025-06-04T06:50:47.570Z</time>
      </trkpt>
      <trkpt lat="48.4654" lon="-2.12529">
        <ele>107.75</ele>
        <time>2025-06-04T06:50:46.056Z</time>
      </trkpt>
      <trkpt lat="48.46539" lon="-2.12525">
        <ele>107.97</ele>
        <time>2025-06-04T06:50:44.779Z</time>
      </trkpt>
      <trkpt lat="48.46539" lon="-2.12522">
        <ele>108.19</ele>
        <time>2025-06-04T06:50:44.455Z</time>
      </trkpt>
      <trkpt lat="48.46538" lon="-2.12515">
        <ele>108.38</ele>
        <time>2025-06-04T06:50:42.681Z</time>
      </trkpt>
      <trkpt lat="48.46538" lon="-2.12509">
        <ele>108.59</ele>
        <time>2025-06-04T06:50:42.417Z</time>
      </trkpt>
      <trkpt lat="48.46537" lon="-2.12502">
        <ele>108.82</ele>
        <time>2025-06-04T06:50:40.703Z</time>
      </trkpt>
      <trkpt lat="48.46537" lon="-2.12495">
        <ele>109.03</ele>
        <time>2025-06-04T06:50:40.358Z</time>
      </trkpt>
      <trkpt lat="48.46536" lon="-2.12488">
        <ele>109.2</ele>
        <time>2025-06-04T06:50:38.781Z</time>
      </trkpt>
      <trkpt lat="48.46536" lon="-2.12481">
        <ele>109.4</ele>
        <time>2025-06-04T06:50:38.405Z</time>
      </trkpt>
      <trkpt lat="48.46535" lon="-2.12474">
        <ele>109.57</ele>
        <time>2025-06-04T06:50:36.744Z</time>
      </trkpt>
      <trkpt lat="48.46535" lon="-2.12465">
        <ele>109.74</ele>
        <time>2025-06-04T06:50:36.386Z</time>
      </trkpt>
      <trkpt lat="48.46535" lon="-2.12459">
        <ele>109.89</ele>
        <time>2025-06-04T06:50:35.457Z</time>
      </trkpt>
      <trkpt lat="48.46534" lon="-2.12452">
        <ele>110</ele>
        <time>2025-06-04T06:50:34.399Z</time>
      </trkpt>
      <trkpt lat="48.46533" lon="-2.12446">
        <ele>110.12</ele>
        <time>2025-06-04T06:50:32.683Z</time>
      </trkpt>
      <trkpt lat="48.46531" lon="-2.12439">
        <ele>110.21</ele>
        <time>2025-06-04T06:50:32.293Z</time>
      </trkpt>
      <trkpt lat="48.46529" lon="-2.12431">
        <ele>110.31</ele>
        <time>2025-06-04T06:50:30.683Z</time>
      </trkpt>
      <trkpt lat="48.46527" lon="-2.12423">
        <ele>110.42</ele>
        <time>2025-06-04T06:50:30.348Z</time>
      </trkpt>
      <trkpt lat="48.46524" lon="-2.12404">
        <ele>110.520004</ele>
        <time>2025-06-04T06:50:28.671Z</time>
      </trkpt>
      <trkpt lat="48.46524" lon="-2.12401">
        <ele>110.59</ele>
        <time>2025-06-04T06:50:28.323Z</time>
      </trkpt>
      <trkpt lat="48.46523" lon="-2.12394">
        <ele>110.66</ele>
        <time>2025-06-04T06:50:26.645Z</time>
      </trkpt>
      <trkpt lat="48.46523" lon="-2.12388">
        <ele>110.72</ele>
        <time>2025-06-04T06:50:26.087Z</time>
      </trkpt>
      <trkpt lat="48.46523" lon="-2.12379">
        <ele>110.770004</ele>
        <time>2025-06-04T06:50:25.372Z</time>
      </trkpt>
      <trkpt lat="48.46524" lon="-2.12373">
        <ele>110.8</ele>
        <time>2025-06-04T06:50:24.248Z</time>
      </trkpt>
      <trkpt lat="48.46524" lon="-2.12367">
        <ele>110.83</ele>
        <time>2025-06-04T06:50:23.114Z</time>
      </trkpt>
      <trkpt lat="48.46523" lon="-2.12361">
        <ele>110.86</ele>
        <time>2025-06-04T06:50:22.287Z</time>
      </trkpt>
      <trkpt lat="48.46522" lon="-2.12357">
        <ele>110.88</ele>
        <time>2025-06-04T06:50:21.424Z</time>
      </trkpt>
      <trkpt lat="48.46521" lon="-2.12355">
        <ele>110.9</ele>
        <time>2025-06-04T06:50:20.420Z</time>
      </trkpt>
      <trkpt lat="48.46521" lon="-2.12351">
        <ele>110.92</ele>
        <time>2025-06-04T06:50:19.391Z</time>
      </trkpt>
      <trkpt lat="48.4652" lon="-2.12345">
        <ele>110.94</ele>
        <time>2025-06-04T06:50:18.303Z</time>
      </trkpt>
      <trkpt lat="48.46519" lon="-2.12333">
        <ele>110.96</ele>
        <time>2025-06-04T06:50:17.366Z</time>
      </trkpt>
      <trkpt lat="48.46515" lon="-2.12307">
        <ele>110.97</ele>
        <time>2025-06-04T06:50:16.390Z</time>
      </trkpt>
      <trkpt lat="48.46512" lon="-2.12298">
        <ele>110.95</ele>
        <time>2025-06-04T06:50:15.262Z</time>
      </trkpt>
      <trkpt lat="48.46514" lon="-2.12296">
        <ele>110.88</ele>
        <time>2025-06-04T06:50:14.331Z</time>
      </trkpt>
      <trkpt lat="48.46515" lon="-2.12296">
        <ele>110.83</ele>
        <time>2025-06-04T06:50:13.359Z</time>
      </trkpt>
      <trkpt lat="48.46517" lon="-2.12294">
        <ele>110.79</ele>
        <time>2025-06-04T06:50:12.303Z</time>
      </trkpt>
      <trkpt lat="48.46518" lon="-2.12292">
        <ele>110.770004</ele>
        <time>2025-06-04T06:50:11.416Z</time>
      </trkpt>
      <trkpt lat="48.46518" lon="-2.1229">
        <ele>110.75</ele>
        <time>2025-06-04T06:50:10.363Z</time>
      </trkpt>
      <trkpt lat="48.46518" lon="-2.12292">
        <ele>110.729996</ele>
        <time>2025-06-04T06:50:09.360Z</time>
      </trkpt>
      <trkpt lat="48.46518" lon="-2.12284">
        <ele>110.71</ele>
        <time>2025-06-04T06:50:08.294Z</time>
      </trkpt>
      <trkpt lat="48.46518" lon="-2.12277">
        <ele>110.7</ele>
        <time>2025-06-04T06:50:07.317Z</time>
      </trkpt>
      <trkpt lat="48.46519" lon="-2.1227">
        <ele>110.68</ele>
        <time>2025-06-04T06:50:06.341Z</time>
      </trkpt>
      <trkpt lat="48.46519" lon="-2.12265">
        <ele>110.66</ele>
        <time>2025-06-04T06:50:05.335Z</time>
      </trkpt>
      <trkpt lat="48.46519" lon="-2.1226">
        <ele>110.64</ele>
        <time>2025-06-04T06:50:04.326Z</time>
      </trkpt>
      <trkpt lat="48.4652" lon="-2.12257">
        <ele>110.63</ele>
        <time>2025-06-04T06:50:03.341Z</time>
      </trkpt>
      <trkpt lat="48.46521" lon="-2.12252">
        <ele>110.62</ele>
        <time>2025-06-04T06:50:02.336Z</time>
      </trkpt>
      <trkpt lat="48.46523" lon="-2.12247">
        <ele>110.59</ele>
        <time>2025-06-04T06:50:01.317Z</time>
      </trkpt>
      <trkpt lat="48.46524" lon="-2.12241">
        <ele>110.55</ele>
        <time>2025-06-04T06:50:00.338Z</time>
      </trkpt>
      <trkpt lat="48.46526" lon="-2.12235">
        <ele>110.51</ele>
        <time>2025-06-04T06:49:59.328Z</time>
      </trkpt>
      <trkpt lat="48.46527" lon="-2.12228">
        <ele>110.47</ele>
        <time>2025-06-04T06:49:58.441Z</time>
      </trkpt>
      <trkpt lat="48.46529" lon="-2.12221">
        <ele>110.41</ele>
        <time>2025-06-04T06:49:57.564Z</time>
      </trkpt>
      <trkpt lat="48.4653" lon="-2.12215">
        <ele>110.36</ele>
        <time>2025-06-04T06:49:56.403Z</time>
      </trkpt>
      <trkpt lat="48.46532" lon="-2.12207">
        <ele>110.3</ele>
        <time>2025-06-04T06:49:55.362Z</time>
      </trkpt>
      <trkpt lat="48.46533" lon="-2.12199">
        <ele>110.24</ele>
        <time>2025-06-04T06:49:54.283Z</time>
      </trkpt>
      <trkpt lat="48.46534" lon="-2.12191">
        <ele>110.21</ele>
        <time>2025-06-04T06:49:53.294Z</time>
      </trkpt>
      <trkpt lat="48.46536" lon="-2.12183">
        <ele>110.18</ele>
        <time>2025-06-04T06:49:52.280Z</time>
      </trkpt>
      <trkpt lat="48.46537" lon="-2.12175">
        <ele>110.17</ele>
        <time>2025-06-04T06:49:51.351Z</time>
      </trkpt>
      <trkpt lat="48.46537" lon="-2.12166">
        <ele>110.17</ele>
        <time>2025-06-04T06:49:50.396Z</time>
      </trkpt>
      <trkpt lat="48.46538" lon="-2.12159">
        <ele>110.18</ele>
        <time>2025-06-04T06:49:49.399Z</time>
      </trkpt>
      <trkpt lat="48.46538" lon="-2.12144">
        <ele>110.2</ele>
        <time>2025-06-04T06:49:48.386Z</time>
      </trkpt>
      <trkpt lat="48.46539" lon="-2.12138">
        <ele>110.229996</ele>
        <time>2025-06-04T06:49:47.419Z</time>
      </trkpt>
      <trkpt lat="48.46539" lon="-2.12135">
        <ele>110.270004</ele>
        <time>2025-06-04T06:49:46.339Z</time>
      </trkpt>
      <trkpt lat="48.46539" lon="-2.12137">
        <ele>110.32</ele>
        <time>2025-06-04T06:49:45.303Z</time>
      </trkpt>
      <trkpt lat="48.46539" lon="-2.12133">
        <ele>110.36</ele>
        <time>2025-06-04T06:49:44.347Z</time>
      </trkpt>
      <trkpt lat="48.46539" lon="-2.1213">
        <ele>110.42</ele>
        <time>2025-06-04T06:49:43.370Z</time>
      </trkpt>
      <trkpt lat="48.46539" lon="-2.12127">
        <ele>110.47</ele>
        <time>2025-06-04T06:49:42.389Z</time>
      </trkpt>
      <trkpt lat="48.46539" lon="-2.12122">
        <ele>110.55</ele>
        <time>2025-06-04T06:49:40.695Z</time>
      </trkpt>
      <trkpt lat="48.4654" lon="-2.12116">
        <ele>110.62</ele>
        <time>2025-06-04T06:49:40.335Z</time>
      </trkpt>
      <trkpt lat="48.4654" lon="-2.12112">
        <ele>110.68</ele>
        <time>2025-06-04T06:49:39.306Z</time>
      </trkpt>
      <trkpt lat="48.4654" lon="-2.12107">
        <ele>110.74</ele>
        <time>2025-06-04T06:49:37.633Z</time>
      </trkpt>
      <trkpt lat="48.46542" lon="-2.12101">
        <ele>110.8</ele>
        <time>2025-06-04T06:49:37.355Z</time>
      </trkpt>
      <trkpt lat="48.46543" lon="-2.12096">
        <ele>110.85</ele>
        <time>2025-06-04T06:49:36.327Z</time>
      </trkpt>
      <trkpt lat="48.46544" lon="-2.12089">
        <ele>110.89</ele>
        <time>2025-06-04T06:49:34.747Z</time>
      </trkpt>
      <trkpt lat="48.46544" lon="-2.12085">
        <ele>110.93</ele>
        <time>2025-06-04T06:49:34.401Z</time>
      </trkpt>
      <trkpt lat="48.46544" lon="-2.12082">
        <ele>110.979996</ele>
        <time>2025-06-04T06:49:33.509Z</time>
      </trkpt>
      <trkpt lat="48.46544" lon="-2.12078">
        <ele>111.020004</ele>
        <time>2025-06-04T06:49:32.369Z</time>
      </trkpt>
      <trkpt lat="48.46544" lon="-2.12075">
        <ele>111.06</ele>
        <time>2025-06-04T06:49:31.267Z</time>
      </trkpt>
      <trkpt lat="48.46544" lon="-2.12071">
        <ele>111.1</ele>
        <time>2025-06-04T06:49:30.349Z</time>
      </trkpt>
      <trkpt lat="48.46544" lon="-2.12066">
        <ele>111.14</ele>
        <time>2025-06-04T06:49:29.498Z</time>
      </trkpt>
      <trkpt lat="48.46545" lon="-2.12062">
        <ele>111.2</ele>
        <time>2025-06-04T06:49:28.233Z</time>
      </trkpt>
      <trkpt lat="48.46546" lon="-2.12056">
        <ele>111.26</ele>
        <time>2025-06-04T06:49:26.734Z</time>
      </trkpt>
      <trkpt lat="48.46548" lon="-2.1205">
        <ele>111.31</ele>
        <time>2025-06-04T06:49:26.222Z</time>
      </trkpt>
      <trkpt lat="48.46548" lon="-2.12045">
        <ele>111.35</ele>
        <time>2025-06-04T06:49:24.665Z</time>
      </trkpt>
      <trkpt lat="48.46549" lon="-2.12039">
        <ele>111.4</ele>
        <time>2025-06-04T06:49:24.150Z</time>
      </trkpt>
      <trkpt lat="48.46549" lon="-2.12033">
        <ele>111.43</ele>
        <time>2025-06-04T06:49:23.543Z</time>
      </trkpt>
      <trkpt lat="48.4655" lon="-2.12027">
        <ele>111.46</ele>
        <time>2025-06-04T06:49:22.513Z</time>
      </trkpt>
      <trkpt lat="48.4655" lon="-2.12022">
        <ele>111.49</ele>
        <time>2025-06-04T06:49:21.286Z</time>
      </trkpt>
      <trkpt lat="48.4655" lon="-2.12017">
        <ele>111.51</ele>
        <time>2025-06-04T06:49:20.273Z</time>
      </trkpt>
      <trkpt lat="48.4655" lon="-2.1201">
        <ele>111.51</ele>
        <time>2025-06-04T06:49:19.315Z</time>
      </trkpt>
      <trkpt lat="48.46551" lon="-2.12004">
        <ele>111.5</ele>
        <time>2025-06-04T06:49:17.763Z</time>
      </trkpt>
      <trkpt lat="48.46552" lon="-2.11994">
        <ele>111.47</ele>
        <time>2025-06-04T06:49:17.522Z</time>
      </trkpt>
      <trkpt lat="48.46552" lon="-2.11988">
        <ele>111.39</ele>
        <time>2025-06-04T06:49:15.833Z</time>
      </trkpt>
      <trkpt lat="48.46553" lon="-2.11983">
        <ele>111.3</ele>
        <time>2025-06-04T06:49:15.364Z</time>
      </trkpt>
      <trkpt lat="48.46555" lon="-2.11977">
        <ele>111.21</ele>
        <time>2025-06-04T06:49:13.746Z</time>
      </trkpt>
      <trkpt lat="48.46557" lon="-2.11973">
        <ele>111.1</ele>
        <time>2025-06-04T06:49:13.524Z</time>
      </trkpt>
      <trkpt lat="48.4656" lon="-2.1197">
        <ele>110.97</ele>
        <time>2025-06-04T06:49:12.330Z</time>
      </trkpt>
      <trkpt lat="48.46564" lon="-2.11969">
        <ele>110.84</ele>
        <time>2025-06-04T06:49:11.373Z</time>
      </trkpt>
      <trkpt lat="48.46569" lon="-2.11969">
        <ele>110.72</ele>
        <time>2025-06-04T06:49:10.531Z</time>
      </trkpt>
      <trkpt lat="48.46572" lon="-2.11969">
        <ele>110.58</ele>
        <time>2025-06-04T06:49:09.389Z</time>
      </trkpt>
      <trkpt lat="48.46576" lon="-2.11968">
        <ele>110.46</ele>
        <time>2025-06-04T06:49:07.675Z</time>
      </trkpt>
      <trkpt lat="48.4658" lon="-2.11968">
        <ele>110.33</ele>
        <time>2025-06-04T06:49:07.290Z</time>
      </trkpt>
      <trkpt lat="48.46584" lon="-2.11968">
        <ele>110.21</ele>
        <time>2025-06-04T06:49:06.469Z</time>
      </trkpt>
      <trkpt lat="48.46587" lon="-2.11968">
        <ele>110.1</ele>
        <time>2025-06-04T06:49:05.048Z</time>
      </trkpt>
      <trkpt lat="48.46591" lon="-2.11968">
        <ele>109.979996</ele>
        <time>2025-06-04T06:49:04.021Z</time>
      </trkpt>
      <trkpt lat="48.46595" lon="-2.11967">
        <ele>109.86</ele>
        <time>2025-06-04T06:49:03.349Z</time>
      </trkpt>
      <trkpt lat="48.46599" lon="-2.11967">
        <ele>109.770004</ele>
        <time>2025-06-04T06:49:01.656Z</time>
      </trkpt>
      <trkpt lat="48.46602" lon="-2.11967">
        <ele>109.68</ele>
        <time>2025-06-04T06:49:01.470Z</time>
      </trkpt>
      <trkpt lat="48.46606" lon="-2.11967">
        <ele>109.59</ele>
        <time>2025-06-04T06:48:59.716Z</time>
      </trkpt>
      <trkpt lat="48.46609" lon="-2.11967">
        <ele>109.520004</ele>
        <time>2025-06-04T06:48:59.432Z</time>
      </trkpt>
      <trkpt lat="48.46613" lon="-2.11967">
        <ele>109.45</ele>
        <time>2025-06-04T06:48:57.583Z</time>
      </trkpt>
      <trkpt lat="48.46618" lon="-2.11967">
        <ele>109.4</ele>
        <time>2025-06-04T06:48:57.421Z</time>
      </trkpt>
      <trkpt lat="48.46621" lon="-2.11966">
        <ele>109.37</ele>
        <time>2025-06-04T06:48:55.623Z</time>
      </trkpt>
      <trkpt lat="48.46625" lon="-2.11966">
        <ele>109.34</ele>
        <time>2025-06-04T06:48:55.409Z</time>
      </trkpt>
      <trkpt lat="48.46629" lon="-2.11966">
        <ele>109.33</ele>
        <time>2025-06-04T06:48:53.571Z</time>
      </trkpt>
      <trkpt lat="48.46633" lon="-2.11965">
        <ele>109.31</ele>
        <time>2025-06-04T06:48:53.382Z</time>
      </trkpt>
      <trkpt lat="48.46637" lon="-2.11964">
        <ele>109.31</ele>
        <time>2025-06-04T06:48:51.583Z</time>
      </trkpt>
      <trkpt lat="48.4664" lon="-2.11963">
        <ele>109.31</ele>
        <time>2025-06-04T06:48:51.356Z</time>
      </trkpt>
      <trkpt lat="48.46644" lon="-2.11963">
        <ele>109.33</ele>
        <time>2025-06-04T06:48:49.522Z</time>
      </trkpt>
      <trkpt lat="48.46648" lon="-2.11963">
        <ele>109.34</ele>
        <time>2025-06-04T06:48:49.241Z</time>
      </trkpt>
      <trkpt lat="48.46652" lon="-2.11963">
        <ele>109.38</ele>
        <time>2025-06-04T06:48:48.078Z</time>
      </trkpt>
      <trkpt lat="48.46655" lon="-2.11962">
        <ele>109.41</ele>
        <time>2025-06-04T06:48:46.769Z</time>
      </trkpt>
      <trkpt lat="48.46659" lon="-2.1196">
        <ele>109.45</ele>
        <time>2025-06-04T06:48:46.451Z</time>
      </trkpt>
      <trkpt lat="48.46661" lon="-2.11956">
        <ele>109.49</ele>
        <time>2025-06-04T06:48:45.507Z</time>
      </trkpt>
      <trkpt lat="48.46663" lon="-2.11953">
        <ele>109.55</ele>
        <time>2025-06-04T06:48:43.529Z</time>
      </trkpt>
      <trkpt lat="48.46663" lon="-2.11948">
        <ele>109.6</ele>
        <time>2025-06-04T06:48:43.496Z</time>
      </trkpt>
      <trkpt lat="48.46664" lon="-2.11943">
        <ele>109.67</ele>
        <time>2025-06-04T06:48:42.326Z</time>
      </trkpt>
      <trkpt lat="48.46664" lon="-2.11939">
        <ele>109.729996</ele>
        <time>2025-06-04T06:48:41.115Z</time>
      </trkpt>
      <trkpt lat="48.46664" lon="-2.11934">
        <ele>109.8</ele>
        <time>2025-06-04T06:48:39.536Z</time>
      </trkpt>
      <trkpt lat="48.46664" lon="-2.11929">
        <ele>109.87</ele>
        <time>2025-06-04T06:48:39.321Z</time>
      </trkpt>
      <trkpt lat="48.46664" lon="-2.11924">
        <ele>109.93</ele>
        <time>2025-06-04T06:48:38.507Z</time>
      </trkpt>
      <trkpt lat="48.46664" lon="-2.11919">
        <ele>110</ele>
        <time>2025-06-04T06:48:37.374Z</time>
      </trkpt>
      <trkpt lat="48.46663" lon="-2.11913">
        <ele>110.06</ele>
        <time>2025-06-04T06:48:36.253Z</time>
      </trkpt>
      <trkpt lat="48.46663" lon="-2.11908">
        <ele>110.11</ele>
        <time>2025-06-04T06:48:35.316Z</time>
      </trkpt>
      <trkpt lat="48.46663" lon="-2.11903">
        <ele>110.16</ele>
        <time>2025-06-04T06:48:33.638Z</time>
      </trkpt>
      <trkpt lat="48.46663" lon="-2.11899">
        <ele>110.2</ele>
        <time>2025-06-04T06:48:33.482Z</time>
      </trkpt>
      <trkpt lat="48.46663" lon="-2.11894">
        <ele>110.24</ele>
        <time>2025-06-04T06:48:32.459Z</time>
      </trkpt>
      <trkpt lat="48.46662" lon="-2.11889">
        <ele>110.25</ele>
        <time>2025-06-04T06:48:30.503Z</time>
      </trkpt>
      <trkpt lat="48.46662" lon="-2.11884">
        <ele>110.26</ele>
        <time>2025-06-04T06:48:29.519Z</time>
      </trkpt>
      <trkpt lat="48.46662" lon="-2.11879">
        <ele>110.26</ele>
        <time>2025-06-04T06:48:28.633Z</time>
      </trkpt>
      <trkpt lat="48.46662" lon="-2.11874">
        <ele>110.24</ele>
        <time>2025-06-04T06:48:28.473Z</time>
      </trkpt>
      <trkpt lat="48.46663" lon="-2.11868">
        <ele>110.2</ele>
        <time>2025-06-04T06:48:27.184Z</time>
      </trkpt>
      <trkpt lat="48.46664" lon="-2.11864">
        <ele>110.16</ele>
        <time>2025-06-04T06:48:26.069Z</time>
      </trkpt>
      <trkpt lat="48.46666" lon="-2.1186">
        <ele>110.11</ele>
        <time>2025-06-04T06:48:25.149Z</time>
      </trkpt>
      <trkpt lat="48.46669" lon="-2.11856">
        <ele>110.06</ele>
        <time>2025-06-04T06:48:24.461Z</time>
      </trkpt>
      <trkpt lat="48.46672" lon="-2.11854">
        <ele>110</ele>
        <time>2025-06-04T06:48:22.670Z</time>
      </trkpt>
      <trkpt lat="48.46677" lon="-2.11852">
        <ele>109.95</ele>
        <time>2025-06-04T06:48:22.341Z</time>
      </trkpt>
      <trkpt lat="48.4668" lon="-2.11852">
        <ele>109.89</ele>
        <time>2025-06-04T06:48:21.324Z</time>
      </trkpt>
      <trkpt lat="48.46684" lon="-2.11853">
        <ele>109.84</ele>
        <time>2025-06-04T06:48:20.444Z</time>
      </trkpt>
      <trkpt lat="48.46687" lon="-2.11855">
        <ele>109.78</ele>
        <time>2025-06-04T06:48:18.510Z</time>
      </trkpt>
      <trkpt lat="48.4669" lon="-2.11857">
        <ele>109.72</ele>
        <time>2025-06-04T06:48:18.490Z</time>
      </trkpt>
      <trkpt lat="48.46694" lon="-2.11858">
        <ele>109.68</ele>
        <time>2025-06-04T06:48:16.492Z</time>
      </trkpt>
      <trkpt lat="48.46698" lon="-2.11858">
        <ele>109.64</ele>
        <time>2025-06-04T06:48:16.431Z</time>
      </trkpt>
      <trkpt lat="48.467" lon="-2.11858">
        <ele>109.61</ele>
        <time>2025-06-04T06:48:15.433Z</time>
      </trkpt>
      <trkpt lat="48.46701" lon="-2.11859">
        <ele>109.58</ele>
        <time>2025-06-04T06:48:14.462Z</time>
      </trkpt>
      <trkpt lat="48.46703" lon="-2.11859">
        <ele>109.55</ele>
        <time>2025-06-04T06:48:13.196Z</time>
      </trkpt>
      <trkpt lat="48.46704" lon="-2.1186">
        <ele>109.520004</ele>
        <time>2025-06-04T06:48:12.475Z</time>
      </trkpt>
      <trkpt lat="48.46705" lon="-2.1186">
        <ele>109.5</ele>
        <time>2025-06-04T06:48:11.172Z</time>
      </trkpt>
      <trkpt lat="48.46706" lon="-2.11861">
        <ele>109.479996</ele>
        <time>2025-06-04T06:48:09.509Z</time>
      </trkpt>
      <trkpt lat="48.46707" lon="-2.11861">
        <ele>109.46</ele>
        <time>2025-06-04T06:48:09.291Z</time>
      </trkpt>
      <trkpt lat="48.46708" lon="-2.11863">
        <ele>109.44</ele>
        <time>2025-06-04T06:48:08.452Z</time>
      </trkpt>
      <trkpt lat="48.46716" lon="-2.11864">
        <ele>108.2</ele>
        <time>2025-06-04T06:48:07.414Z</time>
      </trkpt>
      <trkpt lat="48.46716" lon="-2.11864">
        <ele>107.83</ele>
        <time>2025-06-04T06:46:51.174Z</time>
      </trkpt>
      <trkpt lat="48.46719" lon="-2.11865">
        <ele>107.65</ele>
        <time>2025-06-04T06:46:50.301Z</time>
      </trkpt>
      <trkpt lat="48.46722" lon="-2.11866">
        <ele>107.46</ele>
        <time>2025-06-04T06:46:49.598Z</time>
      </trkpt>
      <trkpt lat="48.46725" lon="-2.11866">
        <ele>107.25</ele>
        <time>2025-06-04T06:46:47.688Z</time>
      </trkpt>
      <trkpt lat="48.46729" lon="-2.11867">
        <ele>107.08</ele>
        <time>2025-06-04T06:46:47.324Z</time>
      </trkpt>
      <trkpt lat="48.46732" lon="-2.11868">
        <ele>106.9</ele>
        <time>2025-06-04T06:46:46.234Z</time>
      </trkpt>
      <trkpt lat="48.46735" lon="-2.11869">
        <ele>106.72</ele>
        <time>2025-06-04T06:46:45.474Z</time>
      </trkpt>
      <trkpt lat="48.46738" lon="-2.11869">
        <ele>106.55</ele>
        <time>2025-06-04T06:46:44.235Z</time>
      </trkpt>
      <trkpt lat="48.46741" lon="-2.11869">
        <ele>106.39</ele>
        <time>2025-06-04T06:46:43.248Z</time>
      </trkpt>
      <trkpt lat="48.46744" lon="-2.1187">
        <ele>106.22</ele>
        <time>2025-06-04T06:46:41.667Z</time>
      </trkpt>
      <trkpt lat="48.46747" lon="-2.1187">
        <ele>106.07</ele>
        <time>2025-06-04T06:46:41.247Z</time>
      </trkpt>
      <trkpt lat="48.46751" lon="-2.11871">
        <ele>105.979996</ele>
        <time>2025-06-04T06:46:40.264Z</time>
      </trkpt>
      <trkpt lat="48.46755" lon="-2.11872">
        <ele>105.87</ele>
        <time>2025-06-04T06:46:39.121Z</time>
      </trkpt>
      <trkpt lat="48.46759" lon="-2.11874">
        <ele>105.79</ele>
        <time>2025-06-04T06:46:38.261Z</time>
      </trkpt>
      <trkpt lat="48.46761" lon="-2.11875">
        <ele>105.729996</ele>
        <time>2025-06-04T06:46:37.235Z</time>
      </trkpt>
      <trkpt lat="48.46764" lon="-2.11877">
        <ele>105.69</ele>
        <time>2025-06-04T06:46:36.455Z</time>
      </trkpt>
      <trkpt lat="48.46766" lon="-2.11878">
        <ele>105.66</ele>
        <time>2025-06-04T06:46:35.275Z</time>
      </trkpt>
      <trkpt lat="48.46767" lon="-2.11879">
        <ele>105.64</ele>
        <time>2025-06-04T06:46:34.279Z</time>
      </trkpt>
      <trkpt lat="48.4677" lon="-2.11876">
        <ele>105.62</ele>
        <time>2025-06-04T06:46:32.195Z</time>
      </trkpt>
      <trkpt lat="48.46771" lon="-2.11874">
        <ele>105.62</ele>
        <time>2025-06-04T06:46:31.232Z</time>
      </trkpt>
      <trkpt lat="48.46777" lon="-2.11831">
        <ele>105.76</ele>
        <time>2025-06-04T06:46:27.217Z</time>
      </trkpt>
      <trkpt lat="48.46775" lon="-2.11833">
        <ele>105.81</ele>
        <time>2025-06-04T06:46:26.569Z</time>
      </trkpt>
      <trkpt lat="48.46774" lon="-2.11833">
        <ele>105.88</ele>
        <time>2025-06-04T06:46:25.188Z</time>
      </trkpt>
      <trkpt lat="48.46774" lon="-2.1183">
        <ele>105.97</ele>
        <time>2025-06-04T06:46:24.591Z</time>
      </trkpt>
      <trkpt lat="48.46773" lon="-2.11828">
        <ele>106.08</ele>
        <time>2025-06-04T06:46:23.220Z</time>
      </trkpt>
      <trkpt lat="48.46773" lon="-2.11829">
        <ele>106.2</ele>
        <time>2025-06-04T06:46:22.199Z</time>
      </trkpt>
      <trkpt lat="48.46773" lon="-2.11826">
        <ele>106.33</ele>
        <time>2025-06-04T06:46:21.103Z</time>
      </trkpt>
      <trkpt lat="48.46774" lon="-2.1182">
        <ele>106.46</ele>
        <time>2025-06-04T06:46:20.084Z</time>
      </trkpt>
      <trkpt lat="48.46774" lon="-2.11815">
        <ele>106.59</ele>
        <time>2025-06-04T06:46:19.190Z</time>
      </trkpt>
      <trkpt lat="48.46774" lon="-2.1181">
        <ele>106.729996</ele>
        <time>2025-06-04T06:46:18.113Z</time>
      </trkpt>
      <trkpt lat="48.46775" lon="-2.11805">
        <ele>106.87</ele>
        <time>2025-06-04T06:46:17.093Z</time>
      </trkpt>
      <trkpt lat="48.46777" lon="-2.11799">
        <ele>107.01</ele>
        <time>2025-06-04T06:46:16.211Z</time>
      </trkpt>
      <trkpt lat="48.46779" lon="-2.11792">
        <ele>107.16</ele>
        <time>2025-06-04T06:46:15.190Z</time>
      </trkpt>
      <trkpt lat="48.46782" lon="-2.11782">
        <ele>107.3</ele>
        <time>2025-06-04T06:46:14.188Z</time>
      </trkpt>
      <trkpt lat="48.46786" lon="-2.11768">
        <ele>107.44</ele>
        <time>2025-06-04T06:46:13.594Z</time>
      </trkpt>
      <trkpt lat="48.46787" lon="-2.11766">
        <ele>107.54</ele>
        <time>2025-06-04T06:46:12.173Z</time>
      </trkpt>
      <trkpt lat="48.46788" lon="-2.11762">
        <ele>107.64</ele>
        <time>2025-06-04T06:46:11.129Z</time>
      </trkpt>
      <trkpt lat="48.46791" lon="-2.11752">
        <ele>107.729996</ele>
        <time>2025-06-04T06:46:10.088Z</time>
      </trkpt>
      <trkpt lat="48.46792" lon="-2.11747">
        <ele>107.8</ele>
        <time>2025-06-04T06:46:09.182Z</time>
      </trkpt>
      <trkpt lat="48.46794" lon="-2.11743">
        <ele>107.85</ele>
        <time>2025-06-04T06:46:08.086Z</time>
      </trkpt>
      <trkpt lat="48.46795" lon="-2.11739">
        <ele>107.89</ele>
        <time>2025-06-04T06:46:07.445Z</time>
      </trkpt>
      <trkpt lat="48.46796" lon="-2.11735">
        <ele>107.93</ele>
        <time>2025-06-04T06:46:06.206Z</time>
      </trkpt>
      <trkpt lat="48.46799" lon="-2.11727">
        <ele>107.97</ele>
        <time>2025-06-04T06:46:05.239Z</time>
      </trkpt>
      <trkpt lat="48.468" lon="-2.11722">
        <ele>107.979996</ele>
        <time>2025-06-04T06:46:04.275Z</time>
      </trkpt>
      <trkpt lat="48.46802" lon="-2.11717">
        <ele>107.99</ele>
        <time>2025-06-04T06:46:03.252Z</time>
      </trkpt>
      <trkpt lat="48.46804" lon="-2.11711">
        <ele>107.99</ele>
        <time>2025-06-04T06:46:02.221Z</time>
      </trkpt>
      <trkpt lat="48.46805" lon="-2.11706">
        <ele>107.99</ele>
        <time>2025-06-04T06:46:01.203Z</time>
      </trkpt>
      <trkpt lat="48.46806" lon="-2.11701">
        <ele>107.99</ele>
        <time>2025-06-04T06:46:00.225Z</time>
      </trkpt>
      <trkpt lat="48.46807" lon="-2.11697">
        <ele>107.99</ele>
        <time>2025-06-04T06:45:59.238Z</time>
      </trkpt>
      <trkpt lat="48.46809" lon="-2.11691">
        <ele>107.99</ele>
        <time>2025-06-04T06:45:58.198Z</time>
      </trkpt>
      <trkpt lat="48.46811" lon="-2.11686">
        <ele>107.99</ele>
        <time>2025-06-04T06:45:57.290Z</time>
      </trkpt>
      <trkpt lat="48.46812" lon="-2.11681">
        <ele>107.99</ele>
        <time>2025-06-04T06:45:56.300Z</time>
      </trkpt>
      <trkpt lat="48.46814" lon="-2.11675">
        <ele>107.99</ele>
        <time>2025-06-04T06:45:55.217Z</time>
      </trkpt>
      <trkpt lat="48.46817" lon="-2.11669">
        <ele>107.99</ele>
        <time>2025-06-04T06:45:54.282Z</time>
      </trkpt>
      <trkpt lat="48.46819" lon="-2.11665">
        <ele>107.99</ele>
        <time>2025-06-04T06:45:53.316Z</time>
      </trkpt>
      <trkpt lat="48.4682" lon="-2.11661">
        <ele>107.99</ele>
        <time>2025-06-04T06:45:52.269Z</time>
      </trkpt>
      <trkpt lat="48.46821" lon="-2.11658">
        <ele>107.99</ele>
        <time>2025-06-04T06:45:51.493Z</time>
      </trkpt>
      <trkpt lat="48.46824" lon="-2.11652">
        <ele>107.99</ele>
        <time>2025-06-04T06:45:50.312Z</time>
      </trkpt>
      <trkpt lat="48.46825" lon="-2.11648">
        <ele>107.99</ele>
        <time>2025-06-04T06:45:49.294Z</time>
      </trkpt>
      <trkpt lat="48.46827" lon="-2.11648">
        <ele>107.99</ele>
        <time>2025-06-04T06:45:48.289Z</time>
      </trkpt>
      <trkpt lat="48.46828" lon="-2.11645">
        <ele>107.99</ele>
        <time>2025-06-04T06:45:47.329Z</time>
      </trkpt>
      <trkpt lat="48.4683" lon="-2.11641">
        <ele>108</ele>
        <time>2025-06-04T06:45:46.069Z</time>
      </trkpt>
      <trkpt lat="48.46832" lon="-2.11636">
        <ele>108.01</ele>
        <time>2025-06-04T06:45:45.210Z</time>
      </trkpt>
      <trkpt lat="48.46833" lon="-2.11632">
        <ele>108.020004</ele>
        <time>2025-06-04T06:45:44.233Z</time>
      </trkpt>
      <trkpt lat="48.46835" lon="-2.11628">
        <ele>108.03</ele>
        <time>2025-06-04T06:45:43.307Z</time>
      </trkpt>
      <trkpt lat="48.46836" lon="-2.11624">
        <ele>108.04</ele>
        <time>2025-06-04T06:45:42.450Z</time>
      </trkpt>
      <trkpt lat="48.46838" lon="-2.1162">
        <ele>108.05</ele>
        <time>2025-06-04T06:45:41.258Z</time>
      </trkpt>
      <trkpt lat="48.4684" lon="-2.11615">
        <ele>108.06</ele>
        <time>2025-06-04T06:45:40.239Z</time>
      </trkpt>
      <trkpt lat="48.46841" lon="-2.11611">
        <ele>108.07</ele>
        <time>2025-06-04T06:45:39.261Z</time>
      </trkpt>
      <trkpt lat="48.46842" lon="-2.11608">
        <ele>108.08</ele>
        <time>2025-06-04T06:45:37.726Z</time>
      </trkpt>
      <trkpt lat="48.46843" lon="-2.11605">
        <ele>108.08</ele>
        <time>2025-06-04T06:45:37.275Z</time>
      </trkpt>
      <trkpt lat="48.46844" lon="-2.11602">
        <ele>108.09</ele>
        <time>2025-06-04T06:45:36.516Z</time>
      </trkpt>
      <trkpt lat="48.46845" lon="-2.11598">
        <ele>108.1</ele>
        <time>2025-06-04T06:45:35.254Z</time>
      </trkpt>
      <trkpt lat="48.46846" lon="-2.11595">
        <ele>108.11</ele>
        <time>2025-06-04T06:45:34.259Z</time>
      </trkpt>
      <trkpt lat="48.46848" lon="-2.11592">
        <ele>108.11</ele>
        <time>2025-06-04T06:45:33.445Z</time>
      </trkpt>
      <trkpt lat="48.46851" lon="-2.11587">
        <ele>108.13</ele>
        <time>2025-06-04T06:45:32.185Z</time>
      </trkpt>
      <trkpt lat="48.46852" lon="-2.11583">
        <ele>108.15</ele>
        <time>2025-06-04T06:45:31.172Z</time>
      </trkpt>
      <trkpt lat="48.46854" lon="-2.11578">
        <ele>108.16</ele>
        <time>2025-06-04T06:45:30.149Z</time>
      </trkpt>
      <trkpt lat="48.46856" lon="-2.11574">
        <ele>108.18</ele>
        <time>2025-06-04T06:45:29.321Z</time>
      </trkpt>
      <trkpt lat="48.46857" lon="-2.11569">
        <ele>108.19</ele>
        <time>2025-06-04T06:45:28.281Z</time>
      </trkpt>
      <trkpt lat="48.46859" lon="-2.11565">
        <ele>108.21</ele>
        <time>2025-06-04T06:45:27.261Z</time>
      </trkpt>
      <trkpt lat="48.46861" lon="-2.1156">
        <ele>108.229996</ele>
        <time>2025-06-04T06:45:26.290Z</time>
      </trkpt>
      <trkpt lat="48.46863" lon="-2.11557">
        <ele>108.25</ele>
        <time>2025-06-04T06:45:25.137Z</time>
      </trkpt>
      <trkpt lat="48.46864" lon="-2.11552">
        <ele>108.270004</ele>
        <time>2025-06-04T06:45:24.074Z</time>
      </trkpt>
      <trkpt lat="48.46866" lon="-2.11548">
        <ele>108.29</ele>
        <time>2025-06-04T06:45:23.306Z</time>
      </trkpt>
      <trkpt lat="48.46867" lon="-2.11543">
        <ele>108.32</ele>
        <time>2025-06-04T06:45:22.171Z</time>
      </trkpt>
      <trkpt lat="48.46869" lon="-2.11539">
        <ele>108.35</ele>
        <time>2025-06-04T06:45:21.212Z</time>
      </trkpt>
      <trkpt lat="48.4687" lon="-2.11535">
        <ele>108.38</ele>
        <time>2025-06-04T06:45:20.166Z</time>
      </trkpt>
      <trkpt lat="48.46872" lon="-2.11531">
        <ele>108.41</ele>
        <time>2025-06-04T06:45:19.214Z</time>
      </trkpt>
      <trkpt lat="48.46873" lon="-2.11526">
        <ele>108.45</ele>
        <time>2025-06-04T06:45:18.244Z</time>
      </trkpt>
      <trkpt lat="48.46875" lon="-2.11521">
        <ele>108.49</ele>
        <time>2025-06-04T06:45:17.119Z</time>
      </trkpt>
      <trkpt lat="48.46877" lon="-2.11517">
        <ele>108.54</ele>
        <time>2025-06-04T06:45:16.226Z</time>
      </trkpt>
      <trkpt lat="48.46878" lon="-2.11512">
        <ele>108.59</ele>
        <time>2025-06-04T06:45:14.684Z</time>
      </trkpt>
      <trkpt lat="48.46881" lon="-2.11507">
        <ele>108.65</ele>
        <time>2025-06-04T06:45:14.267Z</time>
      </trkpt>
      <trkpt lat="48.46883" lon="-2.11502">
        <ele>108.7</ele>
        <time>2025-06-04T06:45:13.194Z</time>
      </trkpt>
      <trkpt lat="48.46885" lon="-2.11497">
        <ele>108.76</ele>
        <time>2025-06-04T06:45:12.256Z</time>
      </trkpt>
      <trkpt lat="48.46887" lon="-2.11493">
        <ele>108.83</ele>
        <time>2025-06-04T06:45:11.254Z</time>
      </trkpt>
      <trkpt lat="48.46888" lon="-2.11489">
        <ele>108.9</ele>
        <time>2025-06-04T06:45:10.288Z</time>
      </trkpt>
      <trkpt lat="48.4689" lon="-2.11484">
        <ele>109.01</ele>
        <time>2025-06-04T06:45:09.249Z</time>
      </trkpt>
      <trkpt lat="48.46893" lon="-2.11478">
        <ele>109.1</ele>
        <time>2025-06-04T06:45:08.298Z</time>
      </trkpt>
      <trkpt lat="48.46894" lon="-2.11474">
        <ele>109.2</ele>
        <time>2025-06-04T06:45:06.666Z</time>
      </trkpt>
      <trkpt lat="48.46896" lon="-2.11469">
        <ele>109.32</ele>
        <time>2025-06-04T06:45:06.256Z</time>
      </trkpt>
      <trkpt lat="48.46898" lon="-2.11464">
        <ele>109.45</ele>
        <time>2025-06-04T06:45:05.223Z</time>
      </trkpt>
      <trkpt lat="48.46899" lon="-2.1146">
        <ele>109.59</ele>
        <time>2025-06-04T06:45:04.183Z</time>
      </trkpt>
      <trkpt lat="48.469" lon="-2.11454">
        <ele>109.729996</ele>
        <time>2025-06-04T06:45:03.201Z</time>
      </trkpt>
      <trkpt lat="48.46901" lon="-2.11449">
        <ele>109.88</ele>
        <time>2025-06-04T06:45:02.182Z</time>
      </trkpt>
      <trkpt lat="48.46903" lon="-2.11443">
        <ele>110.01</ele>
        <time>2025-06-04T06:45:01.152Z</time>
      </trkpt>
      <trkpt lat="48.46904" lon="-2.11438">
        <ele>110.14</ele>
        <time>2025-06-04T06:45:00.188Z</time>
      </trkpt>
      <trkpt lat="48.46906" lon="-2.11433">
        <ele>110.270004</ele>
        <time>2025-06-04T06:44:59.143Z</time>
      </trkpt>
      <trkpt lat="48.46907" lon="-2.11428">
        <ele>110.39</ele>
        <time>2025-06-04T06:44:58.143Z</time>
      </trkpt>
      <trkpt lat="48.46909" lon="-2.11424">
        <ele>110.520004</ele>
        <time>2025-06-04T06:44:57.070Z</time>
      </trkpt>
      <trkpt lat="48.46911" lon="-2.11417">
        <ele>110.57</ele>
        <time>2025-06-04T06:44:56.139Z</time>
      </trkpt>
      <trkpt lat="48.46913" lon="-2.11413">
        <ele>110.62</ele>
        <time>2025-06-04T06:44:55.190Z</time>
      </trkpt>
      <trkpt lat="48.46915" lon="-2.11409">
        <ele>110.66</ele>
        <time>2025-06-04T06:44:54.061Z</time>
      </trkpt>
      <trkpt lat="48.46917" lon="-2.11405">
        <ele>110.7</ele>
        <time>2025-06-04T06:44:53.129Z</time>
      </trkpt>
      <trkpt lat="48.46918" lon="-2.11401">
        <ele>110.72</ele>
        <time>2025-06-04T06:44:52.225Z</time>
      </trkpt>
      <trkpt lat="48.46921" lon="-2.11396">
        <ele>110.729996</ele>
        <time>2025-06-04T06:44:51.152Z</time>
      </trkpt>
      <trkpt lat="48.46923" lon="-2.11392">
        <ele>110.75</ele>
        <time>2025-06-04T06:44:50.022Z</time>
      </trkpt>
      <trkpt lat="48.46925" lon="-2.11388">
        <ele>110.74</ele>
        <time>2025-06-04T06:44:49.235Z</time>
      </trkpt>
      <trkpt lat="48.46927" lon="-2.11384">
        <ele>110.729996</ele>
        <time>2025-06-04T06:44:48.292Z</time>
      </trkpt>
      <trkpt lat="48.46928" lon="-2.1138">
        <ele>110.7</ele>
        <time>2025-06-04T06:44:47.165Z</time>
      </trkpt>
      <trkpt lat="48.4693" lon="-2.11376">
        <ele>110.68</ele>
        <time>2025-06-04T06:44:46.279Z</time>
      </trkpt>
      <trkpt lat="48.46931" lon="-2.11372">
        <ele>110.62</ele>
        <time>2025-06-04T06:44:45.307Z</time>
      </trkpt>
      <trkpt lat="48.46933" lon="-2.11368">
        <ele>110.55</ele>
        <time>2025-06-04T06:44:44.255Z</time>
      </trkpt>
      <trkpt lat="48.46934" lon="-2.11363">
        <ele>110.47</ele>
        <time>2025-06-04T06:44:43.294Z</time>
      </trkpt>
      <trkpt lat="48.46935" lon="-2.11359">
        <ele>110.39</ele>
        <time>2025-06-04T06:44:42.276Z</time>
      </trkpt>
      <trkpt lat="48.46937" lon="-2.11355">
        <ele>110.29</ele>
        <time>2025-06-04T06:44:40.946Z</time>
      </trkpt>
      <trkpt lat="48.46938" lon="-2.11351">
        <ele>110.2</ele>
        <time>2025-06-04T06:44:40.210Z</time>
      </trkpt>
      <trkpt lat="48.4694" lon="-2.11348">
        <ele>110.12</ele>
        <time>2025-06-04T06:44:39.120Z</time>
      </trkpt>
      <trkpt lat="48.46942" lon="-2.11344">
        <ele>110.04</ele>
        <time>2025-06-04T06:44:38.167Z</time>
      </trkpt>
      <trkpt lat="48.46944" lon="-2.11341">
        <ele>109.95</ele>
        <time>2025-06-04T06:44:37.199Z</time>
      </trkpt>
      <trkpt lat="48.46946" lon="-2.11337">
        <ele>109.86</ele>
        <time>2025-06-04T06:44:36.062Z</time>
      </trkpt>
      <trkpt lat="48.46948" lon="-2.11333">
        <ele>109.78</ele>
        <time>2025-06-04T06:44:35.123Z</time>
      </trkpt>
      <trkpt lat="48.4695" lon="-2.1133">
        <ele>109.69</ele>
        <time>2025-06-04T06:44:34.313Z</time>
      </trkpt>
      <trkpt lat="48.46952" lon="-2.11326">
        <ele>109.6</ele>
        <time>2025-06-04T06:44:33.345Z</time>
      </trkpt>
      <trkpt lat="48.46953" lon="-2.11323">
        <ele>109.520004</ele>
        <time>2025-06-04T06:44:32.227Z</time>
      </trkpt>
      <trkpt lat="48.46955" lon="-2.11318">
        <ele>109.44</ele>
        <time>2025-06-04T06:44:31.231Z</time>
      </trkpt>
      <trkpt lat="48.46956" lon="-2.11315">
        <ele>109.39</ele>
        <time>2025-06-04T06:44:30.134Z</time>
      </trkpt>
      <trkpt lat="48.46958" lon="-2.11312">
        <ele>109.35</ele>
        <time>2025-06-04T06:44:29.122Z</time>
      </trkpt>
      <trkpt lat="48.46961" lon="-2.11307">
        <ele>109.32</ele>
        <time>2025-06-04T06:44:28.033Z</time>
      </trkpt>
      <trkpt lat="48.46963" lon="-2.11303">
        <ele>109.31</ele>
        <time>2025-06-04T06:44:27.021Z</time>
      </trkpt>
      <trkpt lat="48.46965" lon="-2.11298">
        <ele>109.3</ele>
        <time>2025-06-04T06:44:26.035Z</time>
      </trkpt>
      <trkpt lat="48.46967" lon="-2.11294">
        <ele>109.29</ele>
        <time>2025-06-04T06:44:25.449Z</time>
      </trkpt>
      <trkpt lat="48.4697" lon="-2.11289">
        <ele>109.29</ele>
        <time>2025-06-04T06:44:24.017Z</time>
      </trkpt>
      <trkpt lat="48.46973" lon="-2.11283">
        <ele>109.3</ele>
        <time>2025-06-04T06:44:23.279Z</time>
      </trkpt>
      <trkpt lat="48.46976" lon="-2.11277">
        <ele>109.31</ele>
        <time>2025-06-04T06:44:22.285Z</time>
      </trkpt>
      <trkpt lat="48.46979" lon="-2.11268">
        <ele>109.33</ele>
        <time>2025-06-04T06:44:21.270Z</time>
      </trkpt>
      <trkpt lat="48.46985" lon="-2.11255">
        <ele>109.36</ele>
        <time>2025-06-04T06:44:20.281Z</time>
      </trkpt>
      <trkpt lat="48.46987" lon="-2.1125">
        <ele>109.39</ele>
        <time>2025-06-04T06:44:19.269Z</time>
      </trkpt>
      <trkpt lat="48.46989" lon="-2.11248">
        <ele>109.43</ele>
        <time>2025-06-04T06:44:18.454Z</time>
      </trkpt>
      <trkpt lat="48.4699" lon="-2.11247">
        <ele>109.47</ele>
        <time>2025-06-04T06:44:17.293Z</time>
      </trkpt>
      <trkpt lat="48.46989" lon="-2.11244">
        <ele>109.51</ele>
        <time>2025-06-04T06:44:16.466Z</time>
      </trkpt>
      <trkpt lat="48.46989" lon="-2.11246">
        <ele>109.56</ele>
        <time>2025-06-04T06:44:15.193Z</time>
      </trkpt>
      <trkpt lat="48.4699" lon="-2.11243">
        <ele>109.61</ele>
        <time>2025-06-04T06:44:14.429Z</time>
      </trkpt>
      <trkpt lat="48.46991" lon="-2.11239">
        <ele>109.66</ele>
        <time>2025-06-04T06:44:12.993Z</time>
      </trkpt>
      <trkpt lat="48.46993" lon="-2.11235">
        <ele>109.72</ele>
        <time>2025-06-04T06:44:12.173Z</time>
      </trkpt>
      <trkpt lat="48.46995" lon="-2.11231">
        <ele>109.78</ele>
        <time>2025-06-04T06:44:11.173Z</time>
      </trkpt>
      <trkpt lat="48.46998" lon="-2.11225">
        <ele>109.85</ele>
        <time>2025-06-04T06:44:10.058Z</time>
      </trkpt>
      <trkpt lat="48.47004" lon="-2.11215">
        <ele>109.9</ele>
        <time>2025-06-04T06:44:09.125Z</time>
      </trkpt>
      <trkpt lat="48.47005" lon="-2.11211">
        <ele>109.95</ele>
        <time>2025-06-04T06:44:08.149Z</time>
      </trkpt>
      <trkpt lat="48.47007" lon="-2.11207">
        <ele>109.979996</ele>
        <time>2025-06-04T06:44:07.434Z</time>
      </trkpt>
      <trkpt lat="48.47009" lon="-2.11203">
        <ele>110</ele>
        <time>2025-06-04T06:44:06.023Z</time>
      </trkpt>
      <trkpt lat="48.47011" lon="-2.11199">
        <ele>110.03</ele>
        <time>2025-06-04T06:44:05.141Z</time>
      </trkpt>
      <trkpt lat="48.47013" lon="-2.11194">
        <ele>110.03</ele>
        <time>2025-06-04T06:44:04.133Z</time>
      </trkpt>
      <trkpt lat="48.47016" lon="-2.11191">
        <ele>110.03</ele>
        <time>2025-06-04T06:44:03.094Z</time>
      </trkpt>
      <trkpt lat="48.47018" lon="-2.11187">
        <ele>110.04</ele>
        <time>2025-06-04T06:44:02.103Z</time>
      </trkpt>
      <trkpt lat="48.47021" lon="-2.11182">
        <ele>110.03</ele>
        <time>2025-06-04T06:44:01.166Z</time>
      </trkpt>
      <trkpt lat="48.47023" lon="-2.11179">
        <ele>110.03</ele>
        <time>2025-06-04T06:44:00.056Z</time>
      </trkpt>
      <trkpt lat="48.47026" lon="-2.11173">
        <ele>110.020004</ele>
        <time>2025-06-04T06:43:59.213Z</time>
      </trkpt>
      <trkpt lat="48.4703" lon="-2.11167">
        <ele>109.99</ele>
        <time>2025-06-04T06:43:58.294Z</time>
      </trkpt>
      <trkpt lat="48.47033" lon="-2.11161">
        <ele>109.96</ele>
        <time>2025-06-04T06:43:57.171Z</time>
      </trkpt>
      <trkpt lat="48.47036" lon="-2.11154">
        <ele>109.9</ele>
        <time>2025-06-04T06:43:56.132Z</time>
      </trkpt>
      <trkpt lat="48.47038" lon="-2.11148">
        <ele>109.85</ele>
        <time>2025-06-04T06:43:55.105Z</time>
      </trkpt>
      <trkpt lat="48.4704" lon="-2.11143">
        <ele>109.78</ele>
        <time>2025-06-04T06:43:54.145Z</time>
      </trkpt>
      <trkpt lat="48.47042" lon="-2.11139">
        <ele>109.69</ele>
        <time>2025-06-04T06:43:53.067Z</time>
      </trkpt>
      <trkpt lat="48.47043" lon="-2.11135">
        <ele>109.62</ele>
        <time>2025-06-04T06:43:52.149Z</time>
      </trkpt>
      <trkpt lat="48.47044" lon="-2.11131">
        <ele>109.55</ele>
        <time>2025-06-04T06:43:51.095Z</time>
      </trkpt>
      <trkpt lat="48.47046" lon="-2.11126">
        <ele>109.46</ele>
        <time>2025-06-04T06:43:50.095Z</time>
      </trkpt>
      <trkpt lat="48.47048" lon="-2.1112">
        <ele>109.38</ele>
        <time>2025-06-04T06:43:49.293Z</time>
      </trkpt>
      <trkpt lat="48.4705" lon="-2.11115">
        <ele>109.29</ele>
        <time>2025-06-04T06:43:48.118Z</time>
      </trkpt>
      <trkpt lat="48.47052" lon="-2.11109">
        <ele>109.19</ele>
        <time>2025-06-04T06:43:47.126Z</time>
      </trkpt>
      <trkpt lat="48.47054" lon="-2.11104">
        <ele>109.12</ele>
        <time>2025-06-04T06:43:46.180Z</time>
      </trkpt>
      <trkpt lat="48.47056" lon="-2.111">
        <ele>109.03</ele>
        <time>2025-06-04T06:43:45.253Z</time>
      </trkpt>
      <trkpt lat="48.47059" lon="-2.11094">
        <ele>108.95</ele>
        <time>2025-06-04T06:43:43.597Z</time>
      </trkpt>
      <trkpt lat="48.47061" lon="-2.11089">
        <ele>108.86</ele>
        <time>2025-06-04T06:43:43.233Z</time>
      </trkpt>
      <trkpt lat="48.47063" lon="-2.11084">
        <ele>108.770004</ele>
        <time>2025-06-04T06:43:41.992Z</time>
      </trkpt>
      <trkpt lat="48.47066" lon="-2.11079">
        <ele>108.69</ele>
        <time>2025-06-04T06:43:41.010Z</time>
      </trkpt>
      <trkpt lat="48.47068" lon="-2.11074">
        <ele>108.61</ele>
        <time>2025-06-04T06:43:40.282Z</time>
      </trkpt>
      <trkpt lat="48.4707" lon="-2.11069">
        <ele>108.520004</ele>
        <time>2025-06-04T06:43:38.997Z</time>
      </trkpt>
      <trkpt lat="48.47074" lon="-2.11063">
        <ele>108.45</ele>
        <time>2025-06-04T06:43:38.050Z</time>
      </trkpt>
      <trkpt lat="48.47076" lon="-2.1106">
        <ele>108.36</ele>
        <time>2025-06-04T06:43:37.088Z</time>
      </trkpt>
      <trkpt lat="48.47078" lon="-2.11055">
        <ele>108.28</ele>
        <time>2025-06-04T06:43:35.985Z</time>
      </trkpt>
      <trkpt lat="48.4708" lon="-2.11051">
        <ele>108.2</ele>
        <time>2025-06-04T06:43:35.052Z</time>
      </trkpt>
      <trkpt lat="48.47082" lon="-2.11047">
        <ele>108.13</ele>
        <time>2025-06-04T06:43:34.231Z</time>
      </trkpt>
      <trkpt lat="48.47084" lon="-2.11042">
        <ele>108.08</ele>
        <time>2025-06-04T06:43:32.649Z</time>
      </trkpt>
      <trkpt lat="48.47086" lon="-2.11038">
        <ele>108.020004</ele>
        <time>2025-06-04T06:43:32.175Z</time>
      </trkpt>
      <trkpt lat="48.47089" lon="-2.11034">
        <ele>107.97</ele>
        <time>2025-06-04T06:43:31.325Z</time>
      </trkpt>
      <trkpt lat="48.47091" lon="-2.1103">
        <ele>107.93</ele>
        <time>2025-06-04T06:43:30.041Z</time>
      </trkpt>
      <trkpt lat="48.47092" lon="-2.11025">
        <ele>107.91</ele>
        <time>2025-06-04T06:43:28.989Z</time>
      </trkpt>
      <trkpt lat="48.47094" lon="-2.11021">
        <ele>107.88</ele>
        <time>2025-06-04T06:43:28.208Z</time>
      </trkpt>
      <trkpt lat="48.47097" lon="-2.11015">
        <ele>107.86</ele>
        <time>2025-06-04T06:43:27.036Z</time>
      </trkpt>
      <trkpt lat="48.47099" lon="-2.1101">
        <ele>107.85</ele>
        <time>2025-06-04T06:43:26.019Z</time>
      </trkpt>
      <trkpt lat="48.47102" lon="-2.11004">
        <ele>107.84</ele>
        <time>2025-06-04T06:43:25.250Z</time>
      </trkpt>
      <trkpt lat="48.47106" lon="-2.10995">
        <ele>107.83</ele>
        <time>2025-06-04T06:43:23.704Z</time>
      </trkpt>
      <trkpt lat="48.47108" lon="-2.1099">
        <ele>107.82</ele>
        <time>2025-06-04T06:43:23.240Z</time>
      </trkpt>
      <trkpt lat="48.47113" lon="-2.10973">
        <ele>107.8</ele>
        <time>2025-06-04T06:43:22.241Z</time>
      </trkpt>
      <trkpt lat="48.47116" lon="-2.10968">
        <ele>107.79</ele>
        <time>2025-06-04T06:43:20.638Z</time>
      </trkpt>
      <trkpt lat="48.47119" lon="-2.10969">
        <ele>107.78</ele>
        <time>2025-06-04T06:43:19.588Z</time>
      </trkpt>
      <trkpt lat="48.47119" lon="-2.1097">
        <ele>107.76</ele>
        <time>2025-06-04T06:43:19.242Z</time>
      </trkpt>
      <trkpt lat="48.47117" lon="-2.10972">
        <ele>107.74</ele>
        <time>2025-06-04T06:43:17.628Z</time>
      </trkpt>
      <trkpt lat="48.47116" lon="-2.10972">
        <ele>107.729996</ele>
        <time>2025-06-04T06:43:17.328Z</time>
      </trkpt>
      <trkpt lat="48.47118" lon="-2.10968">
        <ele>107.71</ele>
        <time>2025-06-04T06:43:15.565Z</time>
      </trkpt>
      <trkpt lat="48.4712" lon="-2.10964">
        <ele>107.69</ele>
        <time>2025-06-04T06:43:14.714Z</time>
      </trkpt>
      <trkpt lat="48.47122" lon="-2.10958">
        <ele>107.65</ele>
        <time>2025-06-04T06:43:13.518Z</time>
      </trkpt>
      <trkpt lat="48.47123" lon="-2.10954">
        <ele>107.61</ele>
        <time>2025-06-04T06:43:13.236Z</time>
      </trkpt>
      <trkpt lat="48.47125" lon="-2.10948">
        <ele>107.57</ele>
        <time>2025-06-04T06:43:11.555Z</time>
      </trkpt>
      <trkpt lat="48.47127" lon="-2.10943">
        <ele>107.53</ele>
        <time>2025-06-04T06:43:10.737Z</time>
      </trkpt>
      <trkpt lat="48.47129" lon="-2.10937">
        <ele>107.49</ele>
        <time>2025-06-04T06:43:09.531Z</time>
      </trkpt>
      <trkpt lat="48.47133" lon="-2.10925">
        <ele>107.45</ele>
        <time>2025-06-04T06:43:08.705Z</time>
      </trkpt>
      <trkpt lat="48.47134" lon="-2.10923">
        <ele>107.41</ele>
        <time>2025-06-04T06:43:07.543Z</time>
      </trkpt>
      <trkpt lat="48.47136" lon="-2.10916">
        <ele>107.39</ele>
        <time>2025-06-04T06:43:07.063Z</time>
      </trkpt>
      <trkpt lat="48.47139" lon="-2.10907">
        <ele>107.36</ele>
        <time>2025-06-04T06:43:06.298Z</time>
      </trkpt>
      <trkpt lat="48.4714" lon="-2.10901">
        <ele>107.37</ele>
        <time>2025-06-04T06:43:05.046Z</time>
      </trkpt>
      <trkpt lat="48.47141" lon="-2.10897">
        <ele>107.37</ele>
        <time>2025-06-04T06:43:04.218Z</time>
      </trkpt>
      <trkpt lat="48.47143" lon="-2.10893">
        <ele>107.38</ele>
        <time>2025-06-04T06:43:03.065Z</time>
      </trkpt>
      <trkpt lat="48.47145" lon="-2.10885">
        <ele>107.38</ele>
        <time>2025-06-04T06:43:01.990Z</time>
      </trkpt>
      <trkpt lat="48.47146" lon="-2.1088">
        <ele>107.38</ele>
        <time>2025-06-04T06:43:01.025Z</time>
      </trkpt>
      <trkpt lat="48.47148" lon="-2.10875">
        <ele>107.37</ele>
        <time>2025-06-04T06:42:59.987Z</time>
      </trkpt>
      <trkpt lat="48.4715" lon="-2.10869">
        <ele>107.36</ele>
        <time>2025-06-04T06:42:59.405Z</time>
      </trkpt>
      <trkpt lat="48.47152" lon="-2.10863">
        <ele>107.35</ele>
        <time>2025-06-04T06:42:58.250Z</time>
      </trkpt>
      <trkpt lat="48.47153" lon="-2.10857">
        <ele>107.34</ele>
        <time>2025-06-04T06:42:57.179Z</time>
      </trkpt>
      <trkpt lat="48.47155" lon="-2.10848">
        <ele>107.33</ele>
        <time>2025-06-04T06:42:55.435Z</time>
      </trkpt>
      <trkpt lat="48.47156" lon="-2.10844">
        <ele>107.32</ele>
        <time>2025-06-04T06:42:54.652Z</time>
      </trkpt>
      <trkpt lat="48.47157" lon="-2.10836">
        <ele>107.32</ele>
        <time>2025-06-04T06:42:53.423Z</time>
      </trkpt>
      <trkpt lat="48.47158" lon="-2.10829">
        <ele>107.31</ele>
        <time>2025-06-04T06:42:53.130Z</time>
      </trkpt>
      <trkpt lat="48.47159" lon="-2.10823">
        <ele>107.31</ele>
        <time>2025-06-04T06:42:51.694Z</time>
      </trkpt>
      <trkpt lat="48.47161" lon="-2.10817">
        <ele>107.3</ele>
        <time>2025-06-04T06:42:51.406Z</time>
      </trkpt>
      <trkpt lat="48.47163" lon="-2.10813">
        <ele>107.28</ele>
        <time>2025-06-04T06:42:50.229Z</time>
      </trkpt>
      <trkpt lat="48.47166" lon="-2.10809">
        <ele>107.26</ele>
        <time>2025-06-04T06:42:49.261Z</time>
      </trkpt>
      <trkpt lat="48.47176" lon="-2.10778">
        <ele>105.7</ele>
        <time>2025-06-04T06:42:47.739Z</time>
      </trkpt>
      <trkpt lat="48.47176" lon="-2.10779">
        <ele>107.29</ele>
        <time>2025-06-04T06:41:10.914Z</time>
      </trkpt>
      <trkpt lat="48.4717" lon="-2.10777">
        <ele>107.26</ele>
        <time>2025-06-04T06:41:09.912Z</time>
      </trkpt>
      <trkpt lat="48.47165" lon="-2.10775">
        <ele>107.24</ele>
        <time>2025-06-04T06:41:08.980Z</time>
      </trkpt>
      <trkpt lat="48.4716" lon="-2.10772">
        <ele>107.229996</ele>
        <time>2025-06-04T06:41:08.274Z</time>
      </trkpt>
      <trkpt lat="48.47155" lon="-2.10768">
        <ele>107.22</ele>
        <time>2025-06-04T06:41:06.927Z</time>
      </trkpt>
      <trkpt lat="48.4715" lon="-2.10764">
        <ele>107.229996</ele>
        <time>2025-06-04T06:41:05.940Z</time>
      </trkpt>
      <trkpt lat="48.47145" lon="-2.10761">
        <ele>107.24</ele>
        <time>2025-06-04T06:41:04.905Z</time>
      </trkpt>
      <trkpt lat="48.47141" lon="-2.10757">
        <ele>107.25</ele>
        <time>2025-06-04T06:41:03.962Z</time>
      </trkpt>
      <trkpt lat="48.47136" lon="-2.10753">
        <ele>107.26</ele>
        <time>2025-06-04T06:41:03.232Z</time>
      </trkpt>
      <trkpt lat="48.47131" lon="-2.1075">
        <ele>107.26</ele>
        <time>2025-06-04T06:41:01.890Z</time>
      </trkpt>
      <trkpt lat="48.47126" lon="-2.10747">
        <ele>107.26</ele>
        <time>2025-06-04T06:41:00.942Z</time>
      </trkpt>
      <trkpt lat="48.47122" lon="-2.10744">
        <ele>107.26</ele>
        <time>2025-06-04T06:41:00.237Z</time>
      </trkpt>
      <trkpt lat="48.47117" lon="-2.1074">
        <ele>107.25</ele>
        <time>2025-06-04T06:40:58.308Z</time>
      </trkpt>
      <trkpt lat="48.47112" lon="-2.10737">
        <ele>107.229996</ele>
        <time>2025-06-04T06:40:57.889Z</time>
      </trkpt>
      <trkpt lat="48.47108" lon="-2.10734">
        <ele>107.2</ele>
        <time>2025-06-04T06:40:57.263Z</time>
      </trkpt>
      <trkpt lat="48.47103" lon="-2.1073">
        <ele>107.17</ele>
        <time>2025-06-04T06:40:55.897Z</time>
      </trkpt>
      <trkpt lat="48.47094" lon="-2.10722">
        <ele>107.14</ele>
        <time>2025-06-04T06:40:54.887Z</time>
      </trkpt>
      <trkpt lat="48.47086" lon="-2.10713">
        <ele>107.13</ele>
        <time>2025-06-04T06:40:53.965Z</time>
      </trkpt>
      <trkpt lat="48.47085" lon="-2.1071">
        <ele>107.14</ele>
        <time>2025-06-04T06:40:52.894Z</time>
      </trkpt>
      <trkpt lat="48.47081" lon="-2.10709">
        <ele>107.16</ele>
        <time>2025-06-04T06:40:52.195Z</time>
      </trkpt>
      <trkpt lat="48.47075" lon="-2.10707">
        <ele>107.16</ele>
        <time>2025-06-04T06:40:50.295Z</time>
      </trkpt>
      <trkpt lat="48.47072" lon="-2.10706">
        <ele>107.17</ele>
        <time>2025-06-04T06:40:48.514Z</time>
      </trkpt>
      <trkpt lat="48.4707" lon="-2.10705">
        <ele>107.17</ele>
        <time>2025-06-04T06:40:48.205Z</time>
      </trkpt>
      <trkpt lat="48.47069" lon="-2.10705">
        <ele>107.17</ele>
        <time>2025-06-04T06:40:47.192Z</time>
      </trkpt>
      <trkpt lat="48.47068" lon="-2.10704">
        <ele>107.16</ele>
        <time>2025-06-04T06:40:45.290Z</time>
      </trkpt>
      <trkpt lat="48.47067" lon="-2.10707">
        <ele>107.03</ele>
        <time>2025-06-04T06:40:33.613Z</time>
      </trkpt>
      <trkpt lat="48.47064" lon="-2.10704">
        <ele>107.01</ele>
        <time>2025-06-04T06:40:32.368Z</time>
      </trkpt>
      <trkpt lat="48.47061" lon="-2.10702">
        <ele>106.99</ele>
        <time>2025-06-04T06:40:31.634Z</time>
      </trkpt>
      <trkpt lat="48.47058" lon="-2.107">
        <ele>106.96</ele>
        <time>2025-06-04T06:40:30.170Z</time>
      </trkpt>
      <trkpt lat="48.47055" lon="-2.10697">
        <ele>106.93</ele>
        <time>2025-06-04T06:40:29.600Z</time>
      </trkpt>
      <trkpt lat="48.47054" lon="-2.10695">
        <ele>106.9</ele>
        <time>2025-06-04T06:40:28.133Z</time>
      </trkpt>
      <trkpt lat="48.47051" lon="-2.10693">
        <ele>106.88</ele>
        <time>2025-06-04T06:40:27.153Z</time>
      </trkpt>
      <trkpt lat="48.47048" lon="-2.10691">
        <ele>106.85</ele>
        <time>2025-06-04T06:40:26.189Z</time>
      </trkpt>
      <trkpt lat="48.47045" lon="-2.10689">
        <ele>106.82</ele>
        <time>2025-06-04T06:40:25.117Z</time>
      </trkpt>
      <trkpt lat="48.47042" lon="-2.10687">
        <ele>106.78</ele>
        <time>2025-06-04T06:40:23.819Z</time>
      </trkpt>
      <trkpt lat="48.47038" lon="-2.10684">
        <ele>106.729996</ele>
        <time>2025-06-04T06:40:23.620Z</time>
      </trkpt>
      <trkpt lat="48.47034" lon="-2.10682">
        <ele>106.67</ele>
        <time>2025-06-04T06:40:22.123Z</time>
      </trkpt>
      <trkpt lat="48.4703" lon="-2.10679">
        <ele>106.62</ele>
        <time>2025-06-04T06:40:21.219Z</time>
      </trkpt>
      <trkpt lat="48.47025" lon="-2.10675">
        <ele>106.56</ele>
        <time>2025-06-04T06:40:19.954Z</time>
      </trkpt>
      <trkpt lat="48.47021" lon="-2.10672">
        <ele>106.479996</ele>
        <time>2025-06-04T06:40:19.634Z</time>
      </trkpt>
      <trkpt lat="48.47017" lon="-2.10668">
        <ele>106.4</ele>
        <time>2025-06-04T06:40:18.181Z</time>
      </trkpt>
      <trkpt lat="48.47013" lon="-2.10665">
        <ele>106.32</ele>
        <time>2025-06-04T06:40:17.191Z</time>
      </trkpt>
      <trkpt lat="48.4701" lon="-2.10662">
        <ele>106.229996</ele>
        <time>2025-06-04T06:40:16.194Z</time>
      </trkpt>
      <trkpt lat="48.47006" lon="-2.10658">
        <ele>106.13</ele>
        <time>2025-06-04T06:40:15.630Z</time>
      </trkpt>
      <trkpt lat="48.47003" lon="-2.10655">
        <ele>106.05</ele>
        <time>2025-06-04T06:40:14.181Z</time>
      </trkpt>
      <trkpt lat="48.47001" lon="-2.10652">
        <ele>105.94</ele>
        <time>2025-06-04T06:40:13.154Z</time>
      </trkpt>
      <trkpt lat="48.46998" lon="-2.1065">
        <ele>105.82</ele>
        <time>2025-06-04T06:40:12.182Z</time>
      </trkpt>
      <trkpt lat="48.46995" lon="-2.10648">
        <ele>105.7</ele>
        <time>2025-06-04T06:40:11.126Z</time>
      </trkpt>
      <trkpt lat="48.46993" lon="-2.10647">
        <ele>105.57</ele>
        <time>2025-06-04T06:40:09.658Z</time>
      </trkpt>
      <trkpt lat="48.46991" lon="-2.10646">
        <ele>105.42</ele>
        <time>2025-06-04T06:40:09.603Z</time>
      </trkpt>
      <trkpt lat="48.46989" lon="-2.10645">
        <ele>105.270004</ele>
        <time>2025-06-04T06:40:08.211Z</time>
      </trkpt>
      <trkpt lat="48.46986" lon="-2.10643">
        <ele>105.1</ele>
        <time>2025-06-04T06:40:07.142Z</time>
      </trkpt>
      <trkpt lat="48.46983" lon="-2.1064">
        <ele>104.94</ele>
        <time>2025-06-04T06:40:06.195Z</time>
      </trkpt>
      <trkpt lat="48.4698" lon="-2.10638">
        <ele>104.76</ele>
        <time>2025-06-04T06:40:05.187Z</time>
      </trkpt>
      <trkpt lat="48.46976" lon="-2.10635">
        <ele>104.59</ele>
        <time>2025-06-04T06:40:04.252Z</time>
      </trkpt>
      <trkpt lat="48.46973" lon="-2.10633">
        <ele>104.4</ele>
        <time>2025-06-04T06:40:03.153Z</time>
      </trkpt>
      <trkpt lat="48.46969" lon="-2.10631">
        <ele>104.24</ele>
        <time>2025-06-04T06:40:02.217Z</time>
      </trkpt>
      <trkpt lat="48.46965" lon="-2.10628">
        <ele>104.1</ele>
        <time>2025-06-04T06:40:01.140Z</time>
      </trkpt>
      <trkpt lat="48.4696" lon="-2.10625">
        <ele>103.979996</ele>
        <time>2025-06-04T06:40:00.221Z</time>
      </trkpt>
      <trkpt lat="48.46956" lon="-2.10622">
        <ele>103.84</ele>
        <time>2025-06-04T06:39:59.577Z</time>
      </trkpt>
      <trkpt lat="48.46951" lon="-2.10619">
        <ele>103.76</ele>
        <time>2025-06-04T06:39:58.148Z</time>
      </trkpt>
      <trkpt lat="48.46948" lon="-2.10615">
        <ele>103.6</ele>
        <time>2025-06-04T06:39:56.129Z</time>
      </trkpt>
      <trkpt lat="48.46908" lon="-2.10591">
        <ele>103.46</ele>
        <time>2025-06-04T06:39:47.206Z</time>
      </trkpt>
      <trkpt lat="48.46907" lon="-2.10591">
        <ele>103.44</ele>
        <time>2025-06-04T06:39:46.195Z</time>
      </trkpt>
      <trkpt lat="48.46902" lon="-2.10588">
        <ele>103.41</ele>
        <time>2025-06-04T06:39:45.107Z</time>
      </trkpt>
      <trkpt lat="48.46899" lon="-2.10586">
        <ele>103.38</ele>
        <time>2025-06-04T06:39:44.176Z</time>
      </trkpt>
      <trkpt lat="48.46895" lon="-2.10583">
        <ele>103.35</ele>
        <time>2025-06-04T06:39:43.577Z</time>
      </trkpt>
      <trkpt lat="48.46891" lon="-2.10581">
        <ele>103.32</ele>
        <time>2025-06-04T06:39:42.577Z</time>
      </trkpt>
      <trkpt lat="48.46887" lon="-2.10578">
        <ele>103.29</ele>
        <time>2025-06-04T06:39:41.095Z</time>
      </trkpt>
      <trkpt lat="48.46883" lon="-2.10575">
        <ele>103.26</ele>
        <time>2025-06-04T06:39:40.295Z</time>
      </trkpt>
      <trkpt lat="48.46879" lon="-2.10572">
        <ele>103.22</ele>
        <time>2025-06-04T06:39:39.157Z</time>
      </trkpt>
      <trkpt lat="48.46875" lon="-2.10569">
        <ele>103.19</ele>
        <time>2025-06-04T06:39:38.091Z</time>
      </trkpt>
      <trkpt lat="48.46871" lon="-2.10566">
        <ele>103.15</ele>
        <time>2025-06-04T06:39:37.184Z</time>
      </trkpt>
      <trkpt lat="48.46867" lon="-2.10562">
        <ele>103.11</ele>
        <time>2025-06-04T06:39:36.149Z</time>
      </trkpt>
      <trkpt lat="48.46863" lon="-2.10558">
        <ele>103.07</ele>
        <time>2025-06-04T06:39:35.357Z</time>
      </trkpt>
      <trkpt lat="48.4686" lon="-2.10555">
        <ele>103.020004</ele>
        <time>2025-06-04T06:39:34.071Z</time>
      </trkpt>
      <trkpt lat="48.46856" lon="-2.10552">
        <ele>102.97</ele>
        <time>2025-06-04T06:39:33.152Z</time>
      </trkpt>
      <trkpt lat="48.46852" lon="-2.10548">
        <ele>102.92</ele>
        <time>2025-06-04T06:39:32.179Z</time>
      </trkpt>
      <trkpt lat="48.46848" lon="-2.10544">
        <ele>102.88</ele>
        <time>2025-06-04T06:39:31.078Z</time>
      </trkpt>
      <trkpt lat="48.46844" lon="-2.1054">
        <ele>102.86</ele>
        <time>2025-06-04T06:39:30.187Z</time>
      </trkpt>
      <trkpt lat="48.4684" lon="-2.10536">
        <ele>102.83</ele>
        <time>2025-06-04T06:39:29.087Z</time>
      </trkpt>
      <trkpt lat="48.46836" lon="-2.10532">
        <ele>102.81</ele>
        <time>2025-06-04T06:39:28.086Z</time>
      </trkpt>
      <trkpt lat="48.46832" lon="-2.10529">
        <ele>102.79</ele>
        <time>2025-06-04T06:39:27.062Z</time>
      </trkpt>
      <trkpt lat="48.46828" lon="-2.10526">
        <ele>102.770004</ele>
        <time>2025-06-04T06:39:26.450Z</time>
      </trkpt>
      <trkpt lat="48.46825" lon="-2.10523">
        <ele>102.74</ele>
        <time>2025-06-04T06:39:25.086Z</time>
      </trkpt>
      <trkpt lat="48.46822" lon="-2.1052">
        <ele>102.729996</ele>
        <time>2025-06-04T06:39:24.150Z</time>
      </trkpt>
      <trkpt lat="48.46819" lon="-2.10516">
        <ele>102.7</ele>
        <time>2025-06-04T06:39:23.126Z</time>
      </trkpt>
      <trkpt lat="48.46816" lon="-2.10513">
        <ele>102.68</ele>
        <time>2025-06-04T06:39:22.087Z</time>
      </trkpt>
      <trkpt lat="48.46812" lon="-2.10509">
        <ele>102.66</ele>
        <time>2025-06-04T06:39:21.401Z</time>
      </trkpt>
      <trkpt lat="48.46809" lon="-2.10506">
        <ele>102.65</ele>
        <time>2025-06-04T06:39:20.192Z</time>
      </trkpt>
      <trkpt lat="48.46805" lon="-2.10501">
        <ele>102.63</ele>
        <time>2025-06-04T06:39:19.190Z</time>
      </trkpt>
      <trkpt lat="48.46802" lon="-2.10497">
        <ele>102.62</ele>
        <time>2025-06-04T06:39:18.064Z</time>
      </trkpt>
      <trkpt lat="48.46798" lon="-2.10492">
        <ele>102.6</ele>
        <time>2025-06-04T06:39:17.310Z</time>
      </trkpt>
      <trkpt lat="48.46794" lon="-2.10486">
        <ele>102.6</ele>
        <time>2025-06-04T06:39:15.653Z</time>
      </trkpt>
      <trkpt lat="48.4679" lon="-2.10481">
        <ele>102.61</ele>
        <time>2025-06-04T06:39:15.148Z</time>
      </trkpt>
      <trkpt lat="48.46783" lon="-2.10474">
        <ele>102.61</ele>
        <time>2025-06-04T06:39:13.559Z</time>
      </trkpt>
      <trkpt lat="48.46771" lon="-2.10467">
        <ele>102.64</ele>
        <time>2025-06-04T06:39:13.264Z</time>
      </trkpt>
      <trkpt lat="48.46766" lon="-2.10461">
        <ele>102.65</ele>
        <time>2025-06-04T06:39:11.567Z</time>
      </trkpt>
      <trkpt lat="48.46767" lon="-2.10461">
        <ele>102.66</ele>
        <time>2025-06-04T06:39:11.092Z</time>
      </trkpt>
      <trkpt lat="48.4677" lon="-2.10458">
        <ele>102.66</ele>
        <time>2025-06-04T06:39:09.571Z</time>
      </trkpt>
      <trkpt lat="48.46772" lon="-2.10459">
        <ele>102.65</ele>
        <time>2025-06-04T06:39:09.151Z</time>
      </trkpt>
      <trkpt lat="48.46769" lon="-2.10457">
        <ele>102.63</ele>
        <time>2025-06-04T06:39:08.336Z</time>
      </trkpt>
      <trkpt lat="48.46767" lon="-2.10453">
        <ele>102.62</ele>
        <time>2025-06-04T06:39:07.155Z</time>
      </trkpt>
      <trkpt lat="48.46764" lon="-2.10448">
        <ele>102.62</ele>
        <time>2025-06-04T06:39:05.573Z</time>
      </trkpt>
      <trkpt lat="48.46761" lon="-2.10444">
        <ele>102.62</ele>
        <time>2025-06-04T06:39:05.084Z</time>
      </trkpt>
      <trkpt lat="48.46758" lon="-2.10439">
        <ele>102.63</ele>
        <time>2025-06-04T06:39:04.168Z</time>
      </trkpt>
      <trkpt lat="48.46755" lon="-2.10434">
        <ele>102.64</ele>
        <time>2025-06-04T06:39:03.431Z</time>
      </trkpt>
      <trkpt lat="48.46751" lon="-2.1043">
        <ele>102.67</ele>
        <time>2025-06-04T06:39:01.569Z</time>
      </trkpt>
      <trkpt lat="48.46747" lon="-2.10424">
        <ele>102.729996</ele>
        <time>2025-06-04T06:39:01.079Z</time>
      </trkpt>
      <trkpt lat="48.46742" lon="-2.10417">
        <ele>102.79</ele>
        <time>2025-06-04T06:39:00.016Z</time>
      </trkpt>
      <trkpt lat="48.46734" lon="-2.10405">
        <ele>102.84</ele>
        <time>2025-06-04T06:38:59.132Z</time>
      </trkpt>
      <trkpt lat="48.46732" lon="-2.10402">
        <ele>102.89</ele>
        <time>2025-06-04T06:38:58.112Z</time>
      </trkpt>
      <trkpt lat="48.46724" lon="-2.10394">
        <ele>102.95</ele>
        <time>2025-06-04T06:38:57.083Z</time>
      </trkpt>
      <trkpt lat="48.46724" lon="-2.10388">
        <ele>103.01</ele>
        <time>2025-06-04T06:38:56.050Z</time>
      </trkpt>
      <trkpt lat="48.46725" lon="-2.10389">
        <ele>103.08</ele>
        <time>2025-06-04T06:38:55.104Z</time>
      </trkpt>
      <trkpt lat="48.46722" lon="-2.10383">
        <ele>103.15</ele>
        <time>2025-06-04T06:38:54.153Z</time>
      </trkpt>
      <trkpt lat="48.46717" lon="-2.10377">
        <ele>103.21</ele>
        <time>2025-06-04T06:38:53.065Z</time>
      </trkpt>
      <trkpt lat="48.46714" lon="-2.10371">
        <ele>103.26</ele>
        <time>2025-06-04T06:38:52.068Z</time>
      </trkpt>
      <trkpt lat="48.4671" lon="-2.10366">
        <ele>103.3</ele>
        <time>2025-06-04T06:38:51.100Z</time>
      </trkpt>
      <trkpt lat="48.46706" lon="-2.1036">
        <ele>103.38</ele>
        <time>2025-06-04T06:38:50.129Z</time>
      </trkpt>
      <trkpt lat="48.46703" lon="-2.10354">
        <ele>103.46</ele>
        <time>2025-06-04T06:38:49.084Z</time>
      </trkpt>
      <trkpt lat="48.467" lon="-2.10348">
        <ele>103.55</ele>
        <time>2025-06-04T06:38:48.099Z</time>
      </trkpt>
      <trkpt lat="48.46698" lon="-2.10342">
        <ele>103.65</ele>
        <time>2025-06-04T06:38:47.019Z</time>
      </trkpt>
      <trkpt lat="48.46696" lon="-2.10335">
        <ele>103.770004</ele>
        <time>2025-06-04T06:38:46.108Z</time>
      </trkpt>
      <trkpt lat="48.46692" lon="-2.10328">
        <ele>103.91</ele>
        <time>2025-06-04T06:38:45.083Z</time>
      </trkpt>
      <trkpt lat="48.4669" lon="-2.1032">
        <ele>104.06</ele>
        <time>2025-06-04T06:38:44.070Z</time>
      </trkpt>
      <trkpt lat="48.46687" lon="-2.10313">
        <ele>104.2</ele>
        <time>2025-06-04T06:38:42.620Z</time>
      </trkpt>
      <trkpt lat="48.46683" lon="-2.10306">
        <ele>104.35</ele>
        <time>2025-06-04T06:38:42.077Z</time>
      </trkpt>
      <trkpt lat="48.4668" lon="-2.103">
        <ele>104.479996</ele>
        <time>2025-06-04T06:38:41.095Z</time>
      </trkpt>
      <trkpt lat="48.46677" lon="-2.10294">
        <ele>104.63</ele>
        <time>2025-06-04T06:38:40.439Z</time>
      </trkpt>
      <trkpt lat="48.46674" lon="-2.10287">
        <ele>104.74</ele>
        <time>2025-06-04T06:38:39.124Z</time>
      </trkpt>
      <trkpt lat="48.46671" lon="-2.1028">
        <ele>104.86</ele>
        <time>2025-06-04T06:38:38.107Z</time>
      </trkpt>
      <trkpt lat="48.46668" lon="-2.10273">
        <ele>104.96</ele>
        <time>2025-06-04T06:38:37.057Z</time>
      </trkpt>
      <trkpt lat="48.46665" lon="-2.10266">
        <ele>105.05</ele>
        <time>2025-06-04T06:38:36.284Z</time>
      </trkpt>
      <trkpt lat="48.46662" lon="-2.10258">
        <ele>105.12</ele>
        <time>2025-06-04T06:38:35.122Z</time>
      </trkpt>
      <trkpt lat="48.46659" lon="-2.1025">
        <ele>105.16</ele>
        <time>2025-06-04T06:38:34.053Z</time>
      </trkpt>
      <trkpt lat="48.46657" lon="-2.10243">
        <ele>105.19</ele>
        <time>2025-06-04T06:38:33.056Z</time>
      </trkpt>
      <trkpt lat="48.46654" lon="-2.10236">
        <ele>105.18</ele>
        <time>2025-06-04T06:38:32.125Z</time>
      </trkpt>
      <trkpt lat="48.46651" lon="-2.10229">
        <ele>105.17</ele>
        <time>2025-06-04T06:38:31.394Z</time>
      </trkpt>
      <trkpt lat="48.46648" lon="-2.10222">
        <ele>105.15</ele>
        <time>2025-06-04T06:38:30.045Z</time>
      </trkpt>
      <trkpt lat="48.46646" lon="-2.10213">
        <ele>105.13</ele>
        <time>2025-06-04T06:38:29.125Z</time>
      </trkpt>
      <trkpt lat="48.46643" lon="-2.10204">
        <ele>105.12</ele>
        <time>2025-06-04T06:38:28.039Z</time>
      </trkpt>
      <trkpt lat="48.4664" lon="-2.10196">
        <ele>105.1</ele>
        <time>2025-06-04T06:38:27.279Z</time>
      </trkpt>
      <trkpt lat="48.46637" lon="-2.10187">
        <ele>105.08</ele>
        <time>2025-06-04T06:38:26.024Z</time>
      </trkpt>
      <trkpt lat="48.46634" lon="-2.10179">
        <ele>105.05</ele>
        <time>2025-06-04T06:38:25.071Z</time>
      </trkpt>
      <trkpt lat="48.46632" lon="-2.10171">
        <ele>105.020004</ele>
        <time>2025-06-04T06:38:23.614Z</time>
      </trkpt>
      <trkpt lat="48.4663" lon="-2.10164">
        <ele>104.99</ele>
        <time>2025-06-04T06:38:23.194Z</time>
      </trkpt>
      <trkpt lat="48.46628" lon="-2.10156">
        <ele>104.979996</ele>
        <time>2025-06-04T06:38:22.072Z</time>
      </trkpt>
      <trkpt lat="48.46626" lon="-2.10147">
        <ele>104.95</ele>
        <time>2025-06-04T06:38:21.044Z</time>
      </trkpt>
      <trkpt lat="48.46625" lon="-2.10141">
        <ele>104.95</ele>
        <time>2025-06-04T06:38:19.553Z</time>
      </trkpt>
      <trkpt lat="48.46623" lon="-2.10131">
        <ele>104.95</ele>
        <time>2025-06-04T06:38:19.171Z</time>
      </trkpt>
      <trkpt lat="48.46622" lon="-2.10125">
        <ele>104.95</ele>
        <time>2025-06-04T06:38:18.295Z</time>
      </trkpt>
      <trkpt lat="48.4662" lon="-2.10118">
        <ele>104.96</ele>
        <time>2025-06-04T06:38:17.083Z</time>
      </trkpt>
      <trkpt lat="48.46618" lon="-2.10111">
        <ele>104.96</ele>
        <time>2025-06-04T06:38:15.590Z</time>
      </trkpt>
      <trkpt lat="48.46617" lon="-2.10104">
        <ele>104.97</ele>
        <time>2025-06-04T06:38:15.149Z</time>
      </trkpt>
      <trkpt lat="48.46615" lon="-2.10097">
        <ele>104.979996</ele>
        <time>2025-06-04T06:38:13.527Z</time>
      </trkpt>
      <trkpt lat="48.46614" lon="-2.1009">
        <ele>105.01</ele>
        <time>2025-06-04T06:38:13.342Z</time>
      </trkpt>
      <trkpt lat="48.46612" lon="-2.10082">
        <ele>105.04</ele>
        <time>2025-06-04T06:38:11.417Z</time>
      </trkpt>
      <trkpt lat="48.46611" lon="-2.10075">
        <ele>105.08</ele>
        <time>2025-06-04T06:38:11.135Z</time>
      </trkpt>
      <trkpt lat="48.46609" lon="-2.10067">
        <ele>105.12</ele>
        <time>2025-06-04T06:38:09.441Z</time>
      </trkpt>
      <trkpt lat="48.46608" lon="-2.10061">
        <ele>105.16</ele>
        <time>2025-06-04T06:38:09.245Z</time>
      </trkpt>
      <trkpt lat="48.46606" lon="-2.10054">
        <ele>105.2</ele>
        <time>2025-06-04T06:38:07.440Z</time>
      </trkpt>
      <trkpt lat="48.46605" lon="-2.10047">
        <ele>105.24</ele>
        <time>2025-06-04T06:38:07.149Z</time>
      </trkpt>
      <trkpt lat="48.46603" lon="-2.10041">
        <ele>105.28</ele>
        <time>2025-06-04T06:38:05.423Z</time>
      </trkpt>
      <trkpt lat="48.46602" lon="-2.10034">
        <ele>105.31</ele>
        <time>2025-06-04T06:38:05.051Z</time>
      </trkpt>
      <trkpt lat="48.466" lon="-2.10027">
        <ele>105.33</ele>
        <time>2025-06-04T06:38:04.303Z</time>
      </trkpt>
      <trkpt lat="48.466" lon="-2.1002">
        <ele>105.33</ele>
        <time>2025-06-04T06:38:03.150Z</time>
      </trkpt>
      <trkpt lat="48.46598" lon="-2.10013">
        <ele>105.33</ele>
        <time>2025-06-04T06:38:01.426Z</time>
      </trkpt>
      <trkpt lat="48.46597" lon="-2.10006">
        <ele>105.3</ele>
        <time>2025-06-04T06:38:01.086Z</time>
      </trkpt>
      <trkpt lat="48.46595" lon="-2.09999">
        <ele>105.24</ele>
        <time>2025-06-04T06:38:00.286Z</time>
      </trkpt>
      <trkpt lat="48.46593" lon="-2.09993">
        <ele>105.15</ele>
        <time>2025-06-04T06:37:58.638Z</time>
      </trkpt>
      <trkpt lat="48.46592" lon="-2.09985">
        <ele>105.04</ele>
        <time>2025-06-04T06:37:58.046Z</time>
      </trkpt>
      <trkpt lat="48.4659" lon="-2.09978">
        <ele>104.92</ele>
        <time>2025-06-04T06:37:57.042Z</time>
      </trkpt>
      <trkpt lat="48.46589" lon="-2.09971">
        <ele>104.81</ele>
        <time>2025-06-04T06:37:56.083Z</time>
      </trkpt>
      <trkpt lat="48.46588" lon="-2.09964">
        <ele>104.69</ele>
        <time>2025-06-04T06:37:55.369Z</time>
      </trkpt>
      <trkpt lat="48.46586" lon="-2.09957">
        <ele>104.58</ele>
        <time>2025-06-04T06:37:54.033Z</time>
      </trkpt>
      <trkpt lat="48.46585" lon="-2.09951">
        <ele>104.479996</ele>
        <time>2025-06-04T06:37:53.033Z</time>
      </trkpt>
      <trkpt lat="48.46583" lon="-2.09944">
        <ele>104.39</ele>
        <time>2025-06-04T06:37:52.153Z</time>
      </trkpt>
      <trkpt lat="48.46581" lon="-2.09937">
        <ele>104.32</ele>
        <time>2025-06-04T06:37:51.277Z</time>
      </trkpt>
      <trkpt lat="48.46579" lon="-2.0993">
        <ele>104.26</ele>
        <time>2025-06-04T06:37:50.085Z</time>
      </trkpt>
      <trkpt lat="48.46578" lon="-2.09924">
        <ele>104.21</ele>
        <time>2025-06-04T06:37:49.084Z</time>
      </trkpt>
      <trkpt lat="48.46576" lon="-2.09917">
        <ele>104.18</ele>
        <time>2025-06-04T06:37:48.038Z</time>
      </trkpt>
      <trkpt lat="48.46575" lon="-2.0991">
        <ele>104.16</ele>
        <time>2025-06-04T06:37:47.096Z</time>
      </trkpt>
      <trkpt lat="48.46573" lon="-2.09903">
        <ele>104.14</ele>
        <time>2025-06-04T06:37:46.281Z</time>
      </trkpt>
      <trkpt lat="48.46572" lon="-2.09896">
        <ele>104.12</ele>
        <time>2025-06-04T06:37:45.103Z</time>
      </trkpt>
      <trkpt lat="48.46571" lon="-2.09889">
        <ele>104.09</ele>
        <time>2025-06-04T06:37:44.072Z</time>
      </trkpt>
      <trkpt lat="48.46569" lon="-2.09882">
        <ele>104.07</ele>
        <time>2025-06-04T06:37:43.032Z</time>
      </trkpt>
      <trkpt lat="48.46568" lon="-2.09875">
        <ele>104.03</ele>
        <time>2025-06-04T06:37:42.180Z</time>
      </trkpt>
      <trkpt lat="48.46566" lon="-2.09868">
        <ele>103.97</ele>
        <time>2025-06-04T06:37:40.635Z</time>
      </trkpt>
      <trkpt lat="48.46564" lon="-2.09859">
        <ele>103.9</ele>
        <time>2025-06-04T06:37:40.036Z</time>
      </trkpt>
      <trkpt lat="48.46563" lon="-2.09852">
        <ele>103.81</ele>
        <time>2025-06-04T06:37:39.034Z</time>
      </trkpt>
      <trkpt lat="48.46561" lon="-2.09845">
        <ele>103.7</ele>
        <time>2025-06-04T06:37:38.236Z</time>
      </trkpt>
      <trkpt lat="48.46559" lon="-2.09838">
        <ele>103.58</ele>
        <time>2025-06-04T06:37:37.259Z</time>
      </trkpt>
      <trkpt lat="48.46557" lon="-2.09826">
        <ele>103.44</ele>
        <time>2025-06-04T06:37:36.060Z</time>
      </trkpt>
      <trkpt lat="48.4655" lon="-2.09806">
        <ele>103.09</ele>
        <time>2025-06-04T06:37:35.200Z</time>
      </trkpt>
      <trkpt lat="48.46548" lon="-2.09794">
        <ele>102.91</ele>
        <time>2025-06-04T06:37:33.154Z</time>
      </trkpt>
      <trkpt lat="48.46549" lon="-2.09795">
        <ele>102.71</ele>
        <time>2025-06-04T06:37:31.593Z</time>
      </trkpt>
      <trkpt lat="48.4655" lon="-2.09796">
        <ele>102.51</ele>
        <time>2025-06-04T06:37:31.116Z</time>
      </trkpt>
      <trkpt lat="48.4655" lon="-2.09797">
        <ele>102.31</ele>
        <time>2025-06-04T06:37:30.148Z</time>
      </trkpt>
      <trkpt lat="48.46548" lon="-2.09791">
        <ele>102.1</ele>
        <time>2025-06-04T06:37:29.094Z</time>
      </trkpt>
      <trkpt lat="48.46547" lon="-2.09785">
        <ele>101.91</ele>
        <time>2025-06-04T06:37:28.286Z</time>
      </trkpt>
      <trkpt lat="48.46544" lon="-2.0978">
        <ele>101.74</ele>
        <time>2025-06-04T06:37:27.078Z</time>
      </trkpt>
      <trkpt lat="48.46543" lon="-2.09773">
        <ele>101.58</ele>
        <time>2025-06-04T06:37:26.023Z</time>
      </trkpt>
      <trkpt lat="48.46542" lon="-2.09767">
        <ele>101.44</ele>
        <time>2025-06-04T06:37:25.095Z</time>
      </trkpt>
      <trkpt lat="48.4654" lon="-2.0976">
        <ele>101.33</ele>
        <time>2025-06-04T06:37:24.072Z</time>
      </trkpt>
      <trkpt lat="48.46539" lon="-2.09754">
        <ele>101.24</ele>
        <time>2025-06-04T06:37:23.277Z</time>
      </trkpt>
      <trkpt lat="48.46537" lon="-2.09748">
        <ele>101.16</ele>
        <time>2025-06-04T06:37:22.032Z</time>
      </trkpt>
      <trkpt lat="48.46536" lon="-2.09741">
        <ele>101.14</ele>
        <time>2025-06-04T06:37:21.021Z</time>
      </trkpt>
      <trkpt lat="48.46534" lon="-2.09735">
        <ele>101.11</ele>
        <time>2025-06-04T06:37:20.127Z</time>
      </trkpt>
      <trkpt lat="48.46533" lon="-2.09728">
        <ele>101.09</ele>
        <time>2025-06-04T06:37:19.285Z</time>
      </trkpt>
      <trkpt lat="48.46532" lon="-2.09721">
        <ele>101.09</ele>
        <time>2025-06-04T06:37:18.034Z</time>
      </trkpt>
      <trkpt lat="48.4653" lon="-2.09714">
        <ele>101.08</ele>
        <time>2025-06-04T06:37:17.129Z</time>
      </trkpt>
      <trkpt lat="48.46528" lon="-2.09707">
        <ele>101.06</ele>
        <time>2025-06-04T06:37:16.013Z</time>
      </trkpt>
      <trkpt lat="48.46526" lon="-2.09701">
        <ele>101.05</ele>
        <time>2025-06-04T06:37:15.081Z</time>
      </trkpt>
      <trkpt lat="48.46525" lon="-2.09694">
        <ele>101.04</ele>
        <time>2025-06-04T06:37:13.986Z</time>
      </trkpt>
      <trkpt lat="48.46524" lon="-2.09688">
        <ele>101.020004</ele>
        <time>2025-06-04T06:37:13.056Z</time>
      </trkpt>
      <trkpt lat="48.46522" lon="-2.09682">
        <ele>100.99</ele>
        <time>2025-06-04T06:37:12.003Z</time>
      </trkpt>
      <trkpt lat="48.46521" lon="-2.09676">
        <ele>100.97</ele>
        <time>2025-06-04T06:37:11.175Z</time>
      </trkpt>
      <trkpt lat="48.4652" lon="-2.09669">
        <ele>100.94</ele>
        <time>2025-06-04T06:37:10.236Z</time>
      </trkpt>
      <trkpt lat="48.46518" lon="-2.09663">
        <ele>100.91</ele>
        <time>2025-06-04T06:37:08.562Z</time>
      </trkpt>
      <trkpt lat="48.46516" lon="-2.09657">
        <ele>100.89</ele>
        <time>2025-06-04T06:37:08.020Z</time>
      </trkpt>
      <trkpt lat="48.46513" lon="-2.09652">
        <ele>100.84</ele>
        <time>2025-06-04T06:37:07.234Z</time>
      </trkpt>
      <trkpt lat="48.4651" lon="-2.09647">
        <ele>100.8</ele>
        <time>2025-06-04T06:37:06.147Z</time>
      </trkpt>
      <trkpt lat="48.46508" lon="-2.09639">
        <ele>100.76</ele>
        <time>2025-06-04T06:37:05.131Z</time>
      </trkpt>
      <trkpt lat="48.46506" lon="-2.09635">
        <ele>100.71</ele>
        <time>2025-06-04T06:37:03.966Z</time>
      </trkpt>
      <trkpt lat="48.46504" lon="-2.09629">
        <ele>100.66</ele>
        <time>2025-06-04T06:37:02.943Z</time>
      </trkpt>
      <trkpt lat="48.46503" lon="-2.09623">
        <ele>100.62</ele>
        <time>2025-06-04T06:37:01.971Z</time>
      </trkpt>
      <trkpt lat="48.46501" lon="-2.09617">
        <ele>100.58</ele>
        <time>2025-06-04T06:37:00.944Z</time>
      </trkpt>
      <trkpt lat="48.465" lon="-2.09608">
        <ele>100.56</ele>
        <time>2025-06-04T06:36:59.915Z</time>
      </trkpt>
      <trkpt lat="48.46498" lon="-2.09603">
        <ele>100.53</ele>
        <time>2025-06-04T06:36:58.907Z</time>
      </trkpt>
      <trkpt lat="48.46495" lon="-2.09596">
        <ele>100.51</ele>
        <time>2025-06-04T06:36:58.054Z</time>
      </trkpt>
      <trkpt lat="48.46492" lon="-2.09584">
        <ele>100.49</ele>
        <time>2025-06-04T06:36:56.985Z</time>
      </trkpt>
      <trkpt lat="48.46489" lon="-2.09571">
        <ele>100.51</ele>
        <time>2025-06-04T06:36:55.899Z</time>
      </trkpt>
      <trkpt lat="48.46491" lon="-2.09572">
        <ele>100.53</ele>
        <time>2025-06-04T06:36:54.516Z</time>
      </trkpt>
      <trkpt lat="48.4649" lon="-2.09573">
        <ele>100.55</ele>
        <time>2025-06-04T06:36:54.108Z</time>
      </trkpt>
      <trkpt lat="48.46474" lon="-2.09524">
        <ele>101.270004</ele>
        <time>2025-06-04T06:36:46.136Z</time>
      </trkpt>
      <trkpt lat="48.46471" lon="-2.0952">
        <ele>101.42</ele>
        <time>2025-06-04T06:36:44.979Z</time>
      </trkpt>
      <trkpt lat="48.46468" lon="-2.09518">
        <ele>101.6</ele>
        <time>2025-06-04T06:36:43.935Z</time>
      </trkpt>
      <trkpt lat="48.46465" lon="-2.09517">
        <ele>101.79</ele>
        <time>2025-06-04T06:36:42.979Z</time>
      </trkpt>
      <trkpt lat="48.46462" lon="-2.09519">
        <ele>101.95</ele>
        <time>2025-06-04T06:36:41.989Z</time>
      </trkpt>
      <trkpt lat="48.46458" lon="-2.09521">
        <ele>102.3</ele>
        <time>2025-06-04T06:36:41.266Z</time>
      </trkpt>
      <trkpt lat="48.4645" lon="-2.09528">
        <ele>102.46</ele>
        <time>2025-06-04T06:36:38.952Z</time>
      </trkpt>
      <trkpt lat="48.46447" lon="-2.09532">
        <ele>102.59</ele>
        <time>2025-06-04T06:36:38.113Z</time>
      </trkpt>
      <trkpt lat="48.46442" lon="-2.09536">
        <ele>102.69</ele>
        <time>2025-06-04T06:36:36.971Z</time>
      </trkpt>
      <trkpt lat="48.46438" lon="-2.09539">
        <ele>102.78</ele>
        <time>2025-06-04T06:36:35.907Z</time>
      </trkpt>
      <trkpt lat="48.46434" lon="-2.09543">
        <ele>102.86</ele>
        <time>2025-06-04T06:36:34.434Z</time>
      </trkpt>
      <trkpt lat="48.4643" lon="-2.09545">
        <ele>102.95</ele>
        <time>2025-06-04T06:36:34.035Z</time>
      </trkpt>
      <trkpt lat="48.46426" lon="-2.09549">
        <ele>103.07</ele>
        <time>2025-06-04T06:36:33.267Z</time>
      </trkpt>
      <trkpt lat="48.46417" lon="-2.09553">
        <ele>103.12</ele>
        <time>2025-06-04T06:36:31.280Z</time>
      </trkpt>
      <trkpt lat="48.46412" lon="-2.09555">
        <ele>103.2</ele>
        <time>2025-06-04T06:36:30.264Z</time>
      </trkpt>
      <trkpt lat="48.46403" lon="-2.09556">
        <ele>103.22</ele>
        <time>2025-06-04T06:36:28.269Z</time>
      </trkpt>
      <trkpt lat="48.46399" lon="-2.09556">
        <ele>103.25</ele>
        <time>2025-06-04T06:36:26.380Z</time>
      </trkpt>
      <trkpt lat="48.46394" lon="-2.09556">
        <ele>103.3</ele>
        <time>2025-06-04T06:36:25.282Z</time>
      </trkpt>
      <trkpt lat="48.46385" lon="-2.09553">
        <ele>103.33</ele>
        <time>2025-06-04T06:36:24.290Z</time>
      </trkpt>
      <trkpt lat="48.46381" lon="-2.09552">
        <ele>103.35</ele>
        <time>2025-06-04T06:36:23.283Z</time>
      </trkpt>
      <trkpt lat="48.46377" lon="-2.09549">
        <ele>103.41</ele>
        <time>2025-06-04T06:36:22.186Z</time>
      </trkpt>
      <trkpt lat="48.46369" lon="-2.09543">
        <ele>103.44</ele>
        <time>2025-06-04T06:36:20.250Z</time>
      </trkpt>
      <trkpt lat="48.46366" lon="-2.0954">
        <ele>103.479996</ele>
        <time>2025-06-04T06:36:19.280Z</time>
      </trkpt>
      <trkpt lat="48.46362" lon="-2.09536">
        <ele>103.51</ele>
        <time>2025-06-04T06:36:18.279Z</time>
      </trkpt>
      <trkpt lat="48.46358" lon="-2.09532">
        <ele>103.53</ele>
        <time>2025-06-04T06:36:17.261Z</time>
      </trkpt>
      <trkpt lat="48.46354" lon="-2.09529">
        <ele>103.55</ele>
        <time>2025-06-04T06:36:16.245Z</time>
      </trkpt>
      <trkpt lat="48.4635" lon="-2.09527">
        <ele>103.56</ele>
        <time>2025-06-04T06:36:15.253Z</time>
      </trkpt>
      <trkpt lat="48.46347" lon="-2.09527">
        <ele>103.55</ele>
        <time>2025-06-04T06:36:14.172Z</time>
      </trkpt>
      <trkpt lat="48.46335" lon="-2.09548">
        <ele>103.53</ele>
        <time>2025-06-04T06:36:11.724Z</time>
      </trkpt>
      <trkpt lat="48.46334" lon="-2.09548">
        <ele>103.51</ele>
        <time>2025-06-04T06:36:10.278Z</time>
      </trkpt>
      <trkpt lat="48.46333" lon="-2.09548">
        <ele>103.49</ele>
        <time>2025-06-04T06:36:09.248Z</time>
      </trkpt>
      <trkpt lat="48.46334" lon="-2.09547">
        <ele>103.47</ele>
        <time>2025-06-04T06:36:09.217Z</time>
      </trkpt>
      <trkpt lat="48.46334" lon="-2.09546">
        <ele>103.45</ele>
        <time>2025-06-04T06:36:07.766Z</time>
      </trkpt>
      <trkpt lat="48.46331" lon="-2.09552">
        <ele>103.41</ele>
        <time>2025-06-04T06:36:06.266Z</time>
      </trkpt>
      <trkpt lat="48.46329" lon="-2.09557">
        <ele>103.38</ele>
        <time>2025-06-04T06:36:05.795Z</time>
      </trkpt>
      <trkpt lat="48.46327" lon="-2.09561">
        <ele>103.34</ele>
        <time>2025-06-04T06:36:04.747Z</time>
      </trkpt>
      <trkpt lat="48.46324" lon="-2.09566">
        <ele>103.31</ele>
        <time>2025-06-04T06:36:03.279Z</time>
      </trkpt>
      <trkpt lat="48.46321" lon="-2.09571">
        <ele>103.270004</ele>
        <time>2025-06-04T06:36:02.268Z</time>
      </trkpt>
      <trkpt lat="48.46317" lon="-2.09577">
        <ele>103.25</ele>
        <time>2025-06-04T06:36:01.294Z</time>
      </trkpt>
      <trkpt lat="48.46315" lon="-2.09582">
        <ele>103.22</ele>
        <time>2025-06-04T06:36:00.268Z</time>
      </trkpt>
      <trkpt lat="48.46312" lon="-2.09588">
        <ele>103.21</ele>
        <time>2025-06-04T06:35:59.057Z</time>
      </trkpt>
      <trkpt lat="48.46309" lon="-2.09594">
        <ele>103.19</ele>
        <time>2025-06-04T06:35:57.246Z</time>
      </trkpt>
      <trkpt lat="48.46307" lon="-2.09604">
        <ele>103.18</ele>
        <time>2025-06-04T06:35:56.241Z</time>
      </trkpt>
      <trkpt lat="48.46307" lon="-2.0961">
        <ele>103.19</ele>
        <time>2025-06-04T06:35:55.268Z</time>
      </trkpt>
      <trkpt lat="48.46307" lon="-2.09616">
        <ele>103.19</ele>
        <time>2025-06-04T06:35:54.245Z</time>
      </trkpt>
      <trkpt lat="48.46307" lon="-2.09623">
        <ele>103.22</ele>
        <time>2025-06-04T06:35:53.144Z</time>
      </trkpt>
      <trkpt lat="48.46307" lon="-2.09634">
        <ele>103.229996</ele>
        <time>2025-06-04T06:35:51.260Z</time>
      </trkpt>
      <trkpt lat="48.46308" lon="-2.09638">
        <ele>103.26</ele>
        <time>2025-06-04T06:35:50.234Z</time>
      </trkpt>
      <trkpt lat="48.46308" lon="-2.09644">
        <ele>103.29</ele>
        <time>2025-06-04T06:35:49.268Z</time>
      </trkpt>
      <trkpt lat="48.46309" lon="-2.0965">
        <ele>103.32</ele>
        <time>2025-06-04T06:35:48.257Z</time>
      </trkpt>
      <trkpt lat="48.46309" lon="-2.09655">
        <ele>103.36</ele>
        <time>2025-06-04T06:35:47.266Z</time>
      </trkpt>
      <trkpt lat="48.46309" lon="-2.09661">
        <ele>103.39</ele>
        <time>2025-06-04T06:35:46.273Z</time>
      </trkpt>
      <trkpt lat="48.4631" lon="-2.09666">
        <ele>103.44</ele>
        <time>2025-06-04T06:35:45.275Z</time>
      </trkpt>
      <trkpt lat="48.46311" lon="-2.09672">
        <ele>103.5</ele>
        <time>2025-06-04T06:35:44.782Z</time>
      </trkpt>
      <trkpt lat="48.46313" lon="-2.09678">
        <ele>103.65</ele>
        <time>2025-06-04T06:35:43.148Z</time>
      </trkpt>
      <trkpt lat="48.46317" lon="-2.09688">
        <ele>103.75</ele>
        <time>2025-06-04T06:35:41.274Z</time>
      </trkpt>
      <trkpt lat="48.46319" lon="-2.09693">
        <ele>104</ele>
        <time>2025-06-04T06:35:40.098Z</time>
      </trkpt>
      <trkpt lat="48.46323" lon="-2.09701">
        <ele>104.17</ele>
        <time>2025-06-04T06:35:38.213Z</time>
      </trkpt>
      <trkpt lat="48.46325" lon="-2.09705">
        <ele>104.35</ele>
        <time>2025-06-04T06:35:37.276Z</time>
      </trkpt>
      <trkpt lat="48.46326" lon="-2.09711">
        <ele>104.729996</ele>
        <time>2025-06-04T06:35:36.149Z</time>
      </trkpt>
      <trkpt lat="48.46329" lon="-2.0972">
        <ele>104.95</ele>
        <time>2025-06-04T06:35:34.277Z</time>
      </trkpt>
      <trkpt lat="48.4633" lon="-2.09725">
        <ele>105.18</ele>
        <time>2025-06-04T06:35:33.259Z</time>
      </trkpt>
      <trkpt lat="48.46331" lon="-2.0973">
        <ele>105.42</ele>
        <time>2025-06-04T06:35:32.877Z</time>
      </trkpt>
      <trkpt lat="48.46331" lon="-2.09736">
        <ele>105.65</ele>
        <time>2025-06-04T06:35:31.735Z</time>
      </trkpt>
      <trkpt lat="48.46332" lon="-2.0974">
        <ele>105.92</ele>
        <time>2025-06-04T06:35:30.814Z</time>
      </trkpt>
      <trkpt lat="48.46333" lon="-2.09745">
        <ele>106.19</ele>
        <time>2025-06-04T06:35:29.749Z</time>
      </trkpt>
      <trkpt lat="48.46333" lon="-2.0975">
        <ele>106.46</ele>
        <time>2025-06-04T06:35:28.805Z</time>
      </trkpt>
      <trkpt lat="48.46334" lon="-2.09756">
        <ele>106.74</ele>
        <time>2025-06-04T06:35:27.737Z</time>
      </trkpt>
      <trkpt lat="48.46335" lon="-2.09761">
        <ele>107</ele>
        <time>2025-06-04T06:35:26.818Z</time>
      </trkpt>
      <trkpt lat="48.46336" lon="-2.09767">
        <ele>107.26</ele>
        <time>2025-06-04T06:35:26.133Z</time>
      </trkpt>
      <trkpt lat="48.46336" lon="-2.09772">
        <ele>107.51</ele>
        <time>2025-06-04T06:35:24.761Z</time>
      </trkpt>
      <trkpt lat="48.46337" lon="-2.09777">
        <ele>107.729996</ele>
        <time>2025-06-04T06:35:23.260Z</time>
      </trkpt>
      <trkpt lat="48.46337" lon="-2.09783">
        <ele>107.94</ele>
        <time>2025-06-04T06:35:22.796Z</time>
      </trkpt>
      <trkpt lat="48.46338" lon="-2.09788">
        <ele>108.270004</ele>
        <time>2025-06-04T06:35:21.121Z</time>
      </trkpt>
      <trkpt lat="48.46339" lon="-2.09796">
        <ele>108.42</ele>
        <time>2025-06-04T06:35:19.920Z</time>
      </trkpt>
      <trkpt lat="48.46341" lon="-2.098">
        <ele>108.55</ele>
        <time>2025-06-04T06:35:18.273Z</time>
      </trkpt>
      <trkpt lat="48.46341" lon="-2.09804">
        <ele>108.7</ele>
        <time>2025-06-04T06:35:17.986Z</time>
      </trkpt>
      <trkpt lat="48.46342" lon="-2.09807">
        <ele>108.84</ele>
        <time>2025-06-04T06:35:16.273Z</time>
      </trkpt>
      <trkpt lat="48.46344" lon="-2.09811">
        <ele>109.08</ele>
        <time>2025-06-04T06:35:15.100Z</time>
      </trkpt>
      <trkpt lat="48.46345" lon="-2.0982">
        <ele>109.19</ele>
        <time>2025-06-04T06:35:14.147Z</time>
      </trkpt>
      <trkpt lat="48.46345" lon="-2.09825">
        <ele>109.29</ele>
        <time>2025-06-04T06:35:12.275Z</time>
      </trkpt>
      <trkpt lat="48.46345" lon="-2.0983">
        <ele>109.4</ele>
        <time>2025-06-04T06:35:11.276Z</time>
      </trkpt>
      <trkpt lat="48.46345" lon="-2.09836">
        <ele>109.479996</ele>
        <time>2025-06-04T06:35:10.277Z</time>
      </trkpt>
      <trkpt lat="48.46345" lon="-2.09841">
        <ele>109.58</ele>
        <time>2025-06-04T06:35:09.278Z</time>
      </trkpt>
      <trkpt lat="48.46345" lon="-2.09846">
        <ele>109.65</ele>
        <time>2025-06-04T06:35:08.272Z</time>
      </trkpt>
      <trkpt lat="48.46345" lon="-2.09852">
        <ele>109.72</ele>
        <time>2025-06-04T06:35:07.272Z</time>
      </trkpt>
      <trkpt lat="48.46344" lon="-2.09858">
        <ele>109.8</ele>
        <time>2025-06-04T06:35:06.177Z</time>
      </trkpt>
      <trkpt lat="48.46344" lon="-2.09863">
        <ele>109.87</ele>
        <time>2025-06-04T06:35:05.895Z</time>
      </trkpt>
      <trkpt lat="48.46344" lon="-2.09867">
        <ele>109.95</ele>
        <time>2025-06-04T06:35:04.228Z</time>
      </trkpt>
      <trkpt lat="48.46343" lon="-2.09871">
        <ele>110.03</ele>
        <time>2025-06-04T06:35:03.269Z</time>
      </trkpt>
      <trkpt lat="48.46343" lon="-2.09875">
        <ele>110.13</ele>
        <time>2025-06-04T06:35:02.259Z</time>
      </trkpt>
      <trkpt lat="48.46343" lon="-2.09878">
        <ele>110.21</ele>
        <time>2025-06-04T06:35:01.272Z</time>
      </trkpt>
      <trkpt lat="48.46343" lon="-2.09882">
        <ele>110.33</ele>
        <time>2025-06-04T06:35:00.273Z</time>
      </trkpt>
      <trkpt lat="48.46345" lon="-2.09885">
        <ele>110.42</ele>
        <time>2025-06-04T06:34:59.277Z</time>
      </trkpt>
      <trkpt lat="48.46348" lon="-2.09887">
        <ele>110.49</ele>
        <time>2025-06-04T06:34:58.803Z</time>
      </trkpt>
      <trkpt lat="48.46352" lon="-2.09887">
        <ele>110.54</ele>
        <time>2025-06-04T06:34:57.721Z</time>
      </trkpt>
      <trkpt lat="48.46355" lon="-2.09887">
        <ele>110.6</ele>
        <time>2025-06-04T06:34:56.732Z</time>
      </trkpt>
      <trkpt lat="48.46359" lon="-2.09887">
        <ele>110.63</ele>
        <time>2025-06-04T06:34:55.663Z</time>
      </trkpt>
      <trkpt lat="48.46362" lon="-2.09887">
        <ele>110.66</ele>
        <time>2025-06-04T06:34:54.778Z</time>
      </trkpt>
      <trkpt lat="48.46365" lon="-2.09888">
        <ele>110.67</ele>
        <time>2025-06-04T06:34:53.731Z</time>
      </trkpt>
      <trkpt lat="48.46368" lon="-2.09891">
        <ele>110.66</ele>
        <time>2025-06-04T06:34:52.689Z</time>
      </trkpt>
      <trkpt lat="48.4637" lon="-2.09894">
        <ele>110.65</ele>
        <time>2025-06-04T06:34:51.635Z</time>
      </trkpt>
      <trkpt lat="48.46372" lon="-2.09902">
        <ele>110.61</ele>
        <time>2025-06-04T06:34:50.120Z</time>
      </trkpt>
      <trkpt lat="48.46374" lon="-2.0991">
        <ele>110.56</ele>
        <time>2025-06-04T06:34:49.664Z</time>
      </trkpt>
      <trkpt lat="48.46375" lon="-2.09915">
        <ele>110.47</ele>
        <time>2025-06-04T06:34:48.645Z</time>
      </trkpt>
      <trkpt lat="48.46376" lon="-2.09922">
        <ele>110.25</ele>
        <time>2025-06-04T06:34:47.105Z</time>
      </trkpt>
      <trkpt lat="48.46378" lon="-2.09933">
        <ele>110.14</ele>
        <time>2025-06-04T06:34:45.774Z</time>
      </trkpt>
      <trkpt lat="48.4638" lon="-2.09939">
        <ele>110.01</ele>
        <time>2025-06-04T06:34:44.712Z</time>
      </trkpt>
      <trkpt lat="48.46382" lon="-2.09944">
        <ele>109.86</ele>
        <time>2025-06-04T06:34:43.753Z</time>
      </trkpt>
      <trkpt lat="48.46383" lon="-2.09951">
        <ele>109.68</ele>
        <time>2025-06-04T06:34:42.268Z</time>
      </trkpt>
      <trkpt lat="48.46386" lon="-2.09958">
        <ele>109.51</ele>
        <time>2025-06-04T06:34:41.267Z</time>
      </trkpt>
      <trkpt lat="48.46387" lon="-2.09965">
        <ele>109.34</ele>
        <time>2025-06-04T06:34:40.256Z</time>
      </trkpt>
      <trkpt lat="48.46389" lon="-2.09973">
        <ele>109.16</ele>
        <time>2025-06-04T06:34:40.091Z</time>
      </trkpt>
      <trkpt lat="48.46391" lon="-2.09985">
        <ele>108.99</ele>
        <time>2025-06-04T06:34:38.225Z</time>
      </trkpt>
      <trkpt lat="48.46391" lon="-2.09988">
        <ele>108.88</ele>
        <time>2025-06-04T06:34:37.643Z</time>
      </trkpt>
      <trkpt lat="48.46391" lon="-2.09995">
        <ele>108.770004</ele>
        <time>2025-06-04T06:34:36.597Z</time>
      </trkpt>
      <trkpt lat="48.46392" lon="-2.10001">
        <ele>108.68</ele>
        <time>2025-06-04T06:34:35.630Z</time>
      </trkpt>
      <trkpt lat="48.46392" lon="-2.10007">
        <ele>108.61</ele>
        <time>2025-06-04T06:34:34.165Z</time>
      </trkpt>
      <trkpt lat="48.46392" lon="-2.10012">
        <ele>108.58</ele>
        <time>2025-06-04T06:34:33.611Z</time>
      </trkpt>
      <trkpt lat="48.46394" lon="-2.10017">
        <ele>108.56</ele>
        <time>2025-06-04T06:34:32.649Z</time>
      </trkpt>
      <trkpt lat="48.46395" lon="-2.10021">
        <ele>108.53</ele>
        <time>2025-06-04T06:34:31.630Z</time>
      </trkpt>
      <trkpt lat="48.46395" lon="-2.10025">
        <ele>108.520004</ele>
        <time>2025-06-04T06:34:30.165Z</time>
      </trkpt>
      <trkpt lat="48.46397" lon="-2.10029">
        <ele>108.520004</ele>
        <time>2025-06-04T06:34:29.142Z</time>
      </trkpt>
      <trkpt lat="48.46399" lon="-2.10034">
        <ele>108.55</ele>
        <time>2025-06-04T06:34:28.602Z</time>
      </trkpt>
      <trkpt lat="48.464" lon="-2.10038">
        <ele>108.61</ele>
        <time>2025-06-04T06:34:28.017Z</time>
      </trkpt>
      <trkpt lat="48.464" lon="-2.10044">
        <ele>108.729996</ele>
        <time>2025-06-04T06:34:26.602Z</time>
      </trkpt>
      <trkpt lat="48.46397" lon="-2.1005">
        <ele>108.86</ele>
        <time>2025-06-04T06:34:26.070Z</time>
      </trkpt>
      <trkpt lat="48.46394" lon="-2.10055">
        <ele>109.020004</ele>
        <time>2025-06-04T06:34:24.094Z</time>
      </trkpt>
      <trkpt lat="48.46392" lon="-2.1006">
        <ele>109.18</ele>
        <time>2025-06-04T06:34:23.619Z</time>
      </trkpt>
      <trkpt lat="48.4639" lon="-2.10064">
        <ele>109.38</ele>
        <time>2025-06-04T06:34:22.957Z</time>
      </trkpt>
      <trkpt lat="48.46387" lon="-2.10072">
        <ele>109.56</ele>
        <time>2025-06-04T06:34:21.122Z</time>
      </trkpt>
      <trkpt lat="48.46385" lon="-2.10076">
        <ele>109.78</ele>
        <time>2025-06-04T06:34:21.055Z</time>
      </trkpt>
      <trkpt lat="48.46383" lon="-2.10082">
        <ele>110.020004</ele>
        <time>2025-06-04T06:34:19.574Z</time>
      </trkpt>
      <trkpt lat="48.4638" lon="-2.10087">
        <ele>110.270004</ele>
        <time>2025-06-04T06:34:18.698Z</time>
      </trkpt>
      <trkpt lat="48.46377" lon="-2.10091">
        <ele>110.520004</ele>
        <time>2025-06-04T06:34:18.017Z</time>
      </trkpt>
      <trkpt lat="48.46373" lon="-2.10095">
        <ele>110.76</ele>
        <time>2025-06-04T06:34:16.572Z</time>
      </trkpt>
      <trkpt lat="48.4637" lon="-2.10098">
        <ele>110.95</ele>
        <time>2025-06-04T06:34:15.648Z</time>
      </trkpt>
      <trkpt lat="48.46367" lon="-2.101">
        <ele>111.18</ele>
        <time>2025-06-04T06:34:15.043Z</time>
      </trkpt>
      <trkpt lat="48.46363" lon="-2.10103">
        <ele>111.41</ele>
        <time>2025-06-04T06:34:14.071Z</time>
      </trkpt>
      <trkpt lat="48.46358" lon="-2.10105">
        <ele>111.57</ele>
        <time>2025-06-04T06:34:12.090Z</time>
      </trkpt>
      <trkpt lat="48.46355" lon="-2.10106">
        <ele>111.76</ele>
        <time>2025-06-04T06:34:11.640Z</time>
      </trkpt>
      <trkpt lat="48.46351" lon="-2.10108">
        <ele>111.91</ele>
        <time>2025-06-04T06:34:10.279Z</time>
      </trkpt>
      <trkpt lat="48.46348" lon="-2.1011">
        <ele>112.08</ele>
        <time>2025-06-04T06:34:10.054Z</time>
      </trkpt>
      <trkpt lat="48.46344" lon="-2.10112">
        <ele>112.21</ele>
        <time>2025-06-04T06:34:09.015Z</time>
      </trkpt>
      <trkpt lat="48.4634" lon="-2.10115">
        <ele>112.32</ele>
        <time>2025-06-04T06:34:07.271Z</time>
      </trkpt>
      <trkpt lat="48.46336" lon="-2.10116">
        <ele>112.44</ele>
        <time>2025-06-04T06:34:07.043Z</time>
      </trkpt>
      <trkpt lat="48.46332" lon="-2.10118">
        <ele>112.53</ele>
        <time>2025-06-04T06:34:05.278Z</time>
      </trkpt>
      <trkpt lat="48.46328" lon="-2.1012">
        <ele>112.61</ele>
        <time>2025-06-04T06:34:04.279Z</time>
      </trkpt>
      <trkpt lat="48.46323" lon="-2.10122">
        <ele>112.65</ele>
        <time>2025-06-04T06:34:03.991Z</time>
      </trkpt>
      <trkpt lat="48.46321" lon="-2.10123">
        <ele>112.69</ele>
        <time>2025-06-04T06:34:03.051Z</time>
      </trkpt>
      <trkpt lat="48.46317" lon="-2.10125">
        <ele>112.729996</ele>
        <time>2025-06-04T06:34:01.085Z</time>
      </trkpt>
      <trkpt lat="48.46315" lon="-2.10126">
        <ele>112.75</ele>
        <time>2025-06-04T06:34:00.066Z</time>
      </trkpt>
      <trkpt lat="48.46313" lon="-2.10127">
        <ele>112.770004</ele>
        <time>2025-06-04T06:33:59.343Z</time>
      </trkpt>
      <trkpt lat="48.46312" lon="-2.1013">
        <ele>112.78</ele>
        <time>2025-06-04T06:33:58.034Z</time>
      </trkpt>
      <trkpt lat="48.4631" lon="-2.10132">
        <ele>112.79</ele>
        <time>2025-06-04T06:33:55.043Z</time>
      </trkpt>
      <trkpt lat="48.46309" lon="-2.10132">
        <ele>112.79</ele>
        <time>2025-06-04T06:33:53.049Z</time>
      </trkpt>
      <trkpt lat="48.46308" lon="-2.10133">
        <ele>112.79</ele>
        <time>2025-06-04T06:33:44.258Z</time>
      </trkpt>
      <trkpt lat="48.46309" lon="-2.10135">
        <ele>112.78</ele>
        <time>2025-06-04T06:33:36.166Z</time>
      </trkpt>
      <trkpt lat="48.46306" lon="-2.10135">
        <ele>112.78</ele>
        <time>2025-06-04T06:33:31.594Z</time>
      </trkpt>
      <trkpt lat="48.46304" lon="-2.10137">
        <ele>112.75</ele>
        <time>2025-06-04T06:33:30.594Z</time>
      </trkpt>
      <trkpt lat="48.46302" lon="-2.10137">
        <ele>112.71</ele>
        <time>2025-06-04T06:33:29.583Z</time>
      </trkpt>
      <trkpt lat="48.46299" lon="-2.10138">
        <ele>112.65</ele>
        <time>2025-06-04T06:33:28.584Z</time>
      </trkpt>
      <trkpt lat="48.46296" lon="-2.10139">
        <ele>112.59</ele>
        <time>2025-06-04T06:33:27.504Z</time>
      </trkpt>
      <trkpt lat="48.46292" lon="-2.10139">
        <ele>112.51</ele>
        <time>2025-06-04T06:33:26.539Z</time>
      </trkpt>
      <trkpt lat="48.46288" lon="-2.10141">
        <ele>112.42</ele>
        <time>2025-06-04T06:33:25.511Z</time>
      </trkpt>
      <trkpt lat="48.46284" lon="-2.10142">
        <ele>112.31</ele>
        <time>2025-06-04T06:33:24.495Z</time>
      </trkpt>
      <trkpt lat="48.4628" lon="-2.10144">
        <ele>112.18</ele>
        <time>2025-06-04T06:33:23.544Z</time>
      </trkpt>
      <trkpt lat="48.46276" lon="-2.10145">
        <ele>112.05</ele>
        <time>2025-06-04T06:33:22.621Z</time>
      </trkpt>
      <trkpt lat="48.46272" lon="-2.10146">
        <ele>111.93</ele>
        <time>2025-06-04T06:33:21.819Z</time>
      </trkpt>
      <trkpt lat="48.46268" lon="-2.10148">
        <ele>111.8</ele>
        <time>2025-06-04T06:33:20.907Z</time>
      </trkpt>
      <trkpt lat="48.46263" lon="-2.1015">
        <ele>111.69</ele>
        <time>2025-06-04T06:33:18.911Z</time>
      </trkpt>
      <trkpt lat="48.46259" lon="-2.10153">
        <ele>111.58</ele>
        <time>2025-06-04T06:33:18.556Z</time>
      </trkpt>
      <trkpt lat="48.46255" lon="-2.10155">
        <ele>111.47</ele>
        <time>2025-06-04T06:33:17.522Z</time>
      </trkpt>
      <trkpt lat="48.46251" lon="-2.10156">
        <ele>111.37</ele>
        <time>2025-06-04T06:33:16.550Z</time>
      </trkpt>
      <trkpt lat="48.46247" lon="-2.10158">
        <ele>111.270004</ele>
        <time>2025-06-04T06:33:15.595Z</time>
      </trkpt>
      <trkpt lat="48.46243" lon="-2.1016">
        <ele>111.19</ele>
        <time>2025-06-04T06:33:14.814Z</time>
      </trkpt>
      <trkpt lat="48.46239" lon="-2.10162">
        <ele>111.12</ele>
        <time>2025-06-04T06:33:13.384Z</time>
      </trkpt>
      <trkpt lat="48.46235" lon="-2.10164">
        <ele>111.04</ele>
        <time>2025-06-04T06:33:12.494Z</time>
      </trkpt>
      <trkpt lat="48.4623" lon="-2.10166">
        <ele>110.97</ele>
        <time>2025-06-04T06:33:11.575Z</time>
      </trkpt>
      <trkpt lat="48.46225" lon="-2.10167">
        <ele>110.9</ele>
        <time>2025-06-04T06:33:10.580Z</time>
      </trkpt>
      <trkpt lat="48.4622" lon="-2.10169">
        <ele>110.85</ele>
        <time>2025-06-04T06:33:09.485Z</time>
      </trkpt>
      <trkpt lat="48.46216" lon="-2.10171">
        <ele>110.8</ele>
        <time>2025-06-04T06:33:08.545Z</time>
      </trkpt>
      <trkpt lat="48.46212" lon="-2.10173">
        <ele>110.75</ele>
        <time>2025-06-04T06:33:07.511Z</time>
      </trkpt>
      <trkpt lat="48.46207" lon="-2.10176">
        <ele>110.72</ele>
        <time>2025-06-04T06:33:06.532Z</time>
      </trkpt>
      <trkpt lat="48.46202" lon="-2.10178">
        <ele>110.69</ele>
        <time>2025-06-04T06:33:05.604Z</time>
      </trkpt>
      <trkpt lat="48.46199" lon="-2.1018">
        <ele>110.67</ele>
        <time>2025-06-04T06:33:04.487Z</time>
      </trkpt>
      <trkpt lat="48.46195" lon="-2.10182">
        <ele>110.67</ele>
        <time>2025-06-04T06:33:03.521Z</time>
      </trkpt>
      <trkpt lat="48.4619" lon="-2.10184">
        <ele>110.66</ele>
        <time>2025-06-04T06:33:02.791Z</time>
      </trkpt>
      <trkpt lat="48.46186" lon="-2.10187">
        <ele>110.65</ele>
        <time>2025-06-04T06:33:01.230Z</time>
      </trkpt>
      <trkpt lat="48.46182" lon="-2.10188">
        <ele>110.65</ele>
        <time>2025-06-04T06:33:00.453Z</time>
      </trkpt>
      <trkpt lat="48.46178" lon="-2.1019">
        <ele>110.65</ele>
        <time>2025-06-04T06:32:59.508Z</time>
      </trkpt>
      <trkpt lat="48.46175" lon="-2.10192">
        <ele>110.65</ele>
        <time>2025-06-04T06:32:58.882Z</time>
      </trkpt>
      <trkpt lat="48.46171" lon="-2.10194">
        <ele>110.63</ele>
        <time>2025-06-04T06:32:57.853Z</time>
      </trkpt>
      <trkpt lat="48.46167" lon="-2.10196">
        <ele>110.61</ele>
        <time>2025-06-04T06:32:56.456Z</time>
      </trkpt>
      <trkpt lat="48.46163" lon="-2.10197">
        <ele>110.59</ele>
        <time>2025-06-04T06:32:55.848Z</time>
      </trkpt>
      <trkpt lat="48.4616" lon="-2.10198">
        <ele>110.57</ele>
        <time>2025-06-04T06:32:54.682Z</time>
      </trkpt>
      <trkpt lat="48.46157" lon="-2.102">
        <ele>110.53</ele>
        <time>2025-06-04T06:32:53.025Z</time>
      </trkpt>
      <trkpt lat="48.46154" lon="-2.10202">
        <ele>110.49</ele>
        <time>2025-06-04T06:32:52.515Z</time>
      </trkpt>
      <trkpt lat="48.4615" lon="-2.10204">
        <ele>110.45</ele>
        <time>2025-06-04T06:32:51.543Z</time>
      </trkpt>
      <trkpt lat="48.46147" lon="-2.10207">
        <ele>110.39</ele>
        <time>2025-06-04T06:32:50.849Z</time>
      </trkpt>
      <trkpt lat="48.46145" lon="-2.10209">
        <ele>110.33</ele>
        <time>2025-06-04T06:32:49.569Z</time>
      </trkpt>
      <trkpt lat="48.46143" lon="-2.10211">
        <ele>110.25</ele>
        <time>2025-06-04T06:32:48.465Z</time>
      </trkpt>
      <trkpt lat="48.46141" lon="-2.10213">
        <ele>110.16</ele>
        <time>2025-06-04T06:32:47.807Z</time>
      </trkpt>
      <trkpt lat="48.46138" lon="-2.10216">
        <ele>110.04</ele>
        <time>2025-06-04T06:32:46.527Z</time>
      </trkpt>
      <trkpt lat="48.46136" lon="-2.10218">
        <ele>109.92</ele>
        <time>2025-06-04T06:32:45.689Z</time>
      </trkpt>
      <trkpt lat="48.46133" lon="-2.10221">
        <ele>109.770004</ele>
        <time>2025-06-04T06:32:44.530Z</time>
      </trkpt>
      <trkpt lat="48.4613" lon="-2.10223">
        <ele>109.61</ele>
        <time>2025-06-04T06:32:43.810Z</time>
      </trkpt>
      <trkpt lat="48.46127" lon="-2.10224">
        <ele>109.43</ele>
        <time>2025-06-04T06:32:42.863Z</time>
      </trkpt>
      <trkpt lat="48.46124" lon="-2.10225">
        <ele>109.26</ele>
        <time>2025-06-04T06:32:41.567Z</time>
      </trkpt>
      <trkpt lat="48.46121" lon="-2.10225">
        <ele>109.06</ele>
        <time>2025-06-04T06:32:40.470Z</time>
      </trkpt>
      <trkpt lat="48.46117" lon="-2.10226">
        <ele>108.86</ele>
        <time>2025-06-04T06:32:38.894Z</time>
      </trkpt>
      <trkpt lat="48.46114" lon="-2.10226">
        <ele>108.64</ele>
        <time>2025-06-04T06:32:38.538Z</time>
      </trkpt>
      <trkpt lat="48.4611" lon="-2.10226">
        <ele>108.45</ele>
        <time>2025-06-04T06:32:37.848Z</time>
      </trkpt>
      <trkpt lat="48.46106" lon="-2.10226">
        <ele>108.28</ele>
        <time>2025-06-04T06:32:36.868Z</time>
      </trkpt>
      <trkpt lat="48.46103" lon="-2.10226">
        <ele>108.1</ele>
        <time>2025-06-04T06:32:35.470Z</time>
      </trkpt>
      <trkpt lat="48.46099" lon="-2.10225">
        <ele>107.93</ele>
        <time>2025-06-04T06:32:33.920Z</time>
      </trkpt>
      <trkpt lat="48.46096" lon="-2.10223">
        <ele>107.78</ele>
        <time>2025-06-04T06:32:32.870Z</time>
      </trkpt>
      <trkpt lat="48.46093" lon="-2.10221">
        <ele>107.64</ele>
        <time>2025-06-04T06:32:31.978Z</time>
      </trkpt>
      <trkpt lat="48.46088" lon="-2.10218">
        <ele>107.54</ele>
        <time>2025-06-04T06:32:31.824Z</time>
      </trkpt>
      <trkpt lat="48.46086" lon="-2.10216">
        <ele>107.44</ele>
        <time>2025-06-04T06:32:30.484Z</time>
      </trkpt>
      <trkpt lat="48.46082" lon="-2.10213">
        <ele>107.37</ele>
        <time>2025-06-04T06:32:29.829Z</time>
      </trkpt>
      <trkpt lat="48.46079" lon="-2.1021">
        <ele>107.33</ele>
        <time>2025-06-04T06:32:27.893Z</time>
      </trkpt>
      <trkpt lat="48.46077" lon="-2.10208">
        <ele>107.29</ele>
        <time>2025-06-04T06:32:27.552Z</time>
      </trkpt>
      <trkpt lat="48.46073" lon="-2.1021">
        <ele>107.270004</ele>
        <time>2025-06-04T06:32:26.807Z</time>
      </trkpt>
      <trkpt lat="48.46071" lon="-2.10214">
        <ele>107.26</ele>
        <time>2025-06-04T06:32:25.480Z</time>
      </trkpt>
      <trkpt lat="48.46069" lon="-2.10221">
        <ele>107.26</ele>
        <time>2025-06-04T06:32:24.450Z</time>
      </trkpt>
      <trkpt lat="48.46068" lon="-2.10227">
        <ele>107.26</ele>
        <time>2025-06-04T06:32:23.435Z</time>
      </trkpt>
      <trkpt lat="48.46068" lon="-2.10233">
        <ele>107.25</ele>
        <time>2025-06-04T06:32:22.815Z</time>
      </trkpt>
      <trkpt lat="48.46067" lon="-2.10246">
        <ele>107.25</ele>
        <time>2025-06-04T06:32:20.861Z</time>
      </trkpt>
      <trkpt lat="48.46067" lon="-2.10249">
        <ele>107.24</ele>
        <time>2025-06-04T06:32:20.857Z</time>
      </trkpt>
      <trkpt lat="48.46067" lon="-2.10255">
        <ele>107.2</ele>
        <time>2025-06-04T06:32:19.328Z</time>
      </trkpt>
      <trkpt lat="48.46067" lon="-2.1026">
        <ele>107.16</ele>
        <time>2025-06-04T06:32:17.993Z</time>
      </trkpt>
      <trkpt lat="48.46067" lon="-2.10266">
        <ele>107.12</ele>
        <time>2025-06-04T06:32:17.857Z</time>
      </trkpt>
      <trkpt lat="48.46065" lon="-2.10272">
        <ele>107.07</ele>
        <time>2025-06-04T06:32:16.504Z</time>
      </trkpt>
      <trkpt lat="48.46064" lon="-2.10276">
        <ele>106.99</ele>
        <time>2025-06-04T06:32:15.542Z</time>
      </trkpt>
      <trkpt lat="48.46061" lon="-2.10282">
        <ele>106.91</ele>
        <time>2025-06-04T06:32:14.839Z</time>
      </trkpt>
      <trkpt lat="48.46059" lon="-2.10286">
        <ele>106.82</ele>
        <time>2025-06-04T06:32:13.817Z</time>
      </trkpt>
      <trkpt lat="48.46058" lon="-2.1029">
        <ele>106.72</ele>
        <time>2025-06-04T06:32:11.870Z</time>
      </trkpt>
      <trkpt lat="48.46055" lon="-2.10294">
        <ele>106.6</ele>
        <time>2025-06-04T06:32:11.790Z</time>
      </trkpt>
      <trkpt lat="48.46053" lon="-2.10298">
        <ele>106.479996</ele>
        <time>2025-06-04T06:32:10.832Z</time>
      </trkpt>
      <trkpt lat="48.4605" lon="-2.103">
        <ele>106.34</ele>
        <time>2025-06-04T06:32:08.854Z</time>
      </trkpt>
      <trkpt lat="48.46047" lon="-2.10305">
        <ele>106.24</ele>
        <time>2025-06-04T06:32:08.838Z</time>
      </trkpt>
      <trkpt lat="48.46045" lon="-2.10309">
        <ele>106.14</ele>
        <time>2025-06-04T06:32:07.671Z</time>
      </trkpt>
      <trkpt lat="48.46043" lon="-2.10312">
        <ele>106.020004</ele>
        <time>2025-06-04T06:32:05.897Z</time>
      </trkpt>
      <trkpt lat="48.4604" lon="-2.10316">
        <ele>105.91</ele>
        <time>2025-06-04T06:32:04.854Z</time>
      </trkpt>
      <trkpt lat="48.46037" lon="-2.10318">
        <ele>105.81</ele>
        <time>2025-06-04T06:32:04.831Z</time>
      </trkpt>
      <trkpt lat="48.46035" lon="-2.10322">
        <ele>105.72</ele>
        <time>2025-06-04T06:32:02.932Z</time>
      </trkpt>
      <trkpt lat="48.46032" lon="-2.10325">
        <ele>105.63</ele>
        <time>2025-06-04T06:32:01.846Z</time>
      </trkpt>
      <trkpt lat="48.4603" lon="-2.10328">
        <ele>105.53</ele>
        <time>2025-06-04T06:32:01.838Z</time>
      </trkpt>
      <trkpt lat="48.46027" lon="-2.1033">
        <ele>105.46</ele>
        <time>2025-06-04T06:31:59.879Z</time>
      </trkpt>
      <trkpt lat="48.46024" lon="-2.10333">
        <ele>105.39</ele>
        <time>2025-06-04T06:31:59.834Z</time>
      </trkpt>
      <trkpt lat="48.4602" lon="-2.10335">
        <ele>105.33</ele>
        <time>2025-06-04T06:31:58.595Z</time>
      </trkpt>
      <trkpt lat="48.46017" lon="-2.10337">
        <ele>105.3</ele>
        <time>2025-06-04T06:31:56.849Z</time>
      </trkpt>
      <trkpt lat="48.46014" lon="-2.10338">
        <ele>105.28</ele>
        <time>2025-06-04T06:31:55.849Z</time>
      </trkpt>
      <trkpt lat="48.4601" lon="-2.10342">
        <ele>105.26</ele>
        <time>2025-06-04T06:31:54.847Z</time>
      </trkpt>
      <trkpt lat="48.46008" lon="-2.10344">
        <ele>105.25</ele>
        <time>2025-06-04T06:31:54.835Z</time>
      </trkpt>
      <trkpt lat="48.46006" lon="-2.10349">
        <ele>105.229996</ele>
        <time>2025-06-04T06:31:53.686Z</time>
      </trkpt>
      <trkpt lat="48.46004" lon="-2.10357">
        <ele>105.19</ele>
        <time>2025-06-04T06:31:52.494Z</time>
      </trkpt>
      <trkpt lat="48.46003" lon="-2.10362">
        <ele>105.16</ele>
        <time>2025-06-04T06:31:51.788Z</time>
      </trkpt>
      <trkpt lat="48.46001" lon="-2.10366">
        <ele>105.12</ele>
        <time>2025-06-04T06:31:50.485Z</time>
      </trkpt>
      <trkpt lat="48.46001" lon="-2.10368">
        <ele>105.08</ele>
        <time>2025-06-04T06:31:49.475Z</time>
      </trkpt>
      <trkpt lat="48.46" lon="-2.10369">
        <ele>105.03</ele>
        <time>2025-06-04T06:31:48.813Z</time>
      </trkpt>
      <trkpt lat="48.45999" lon="-2.10371">
        <ele>104.99</ele>
        <time>2025-06-04T06:31:47.763Z</time>
      </trkpt>
      <trkpt lat="48.45997" lon="-2.10372">
        <ele>104.95</ele>
        <time>2025-06-04T06:31:45.856Z</time>
      </trkpt>
      <trkpt lat="48.45994" lon="-2.10372">
        <ele>104.9</ele>
        <time>2025-06-04T06:31:44.859Z</time>
      </trkpt>
      <trkpt lat="48.4599" lon="-2.1037">
        <ele>104.87</ele>
        <time>2025-06-04T06:31:44.375Z</time>
      </trkpt>
      <trkpt lat="48.45986" lon="-2.10367">
        <ele>104.84</ele>
        <time>2025-06-04T06:31:43.829Z</time>
      </trkpt>
      <trkpt lat="48.45982" lon="-2.10365">
        <ele>104.81</ele>
        <time>2025-06-04T06:31:42.355Z</time>
      </trkpt>
      <trkpt lat="48.45978" lon="-2.10362">
        <ele>104.79</ele>
        <time>2025-06-04T06:31:41.352Z</time>
      </trkpt>
      <trkpt lat="48.45973" lon="-2.1036">
        <ele>104.78</ele>
        <time>2025-06-04T06:31:39.841Z</time>
      </trkpt>
      <trkpt lat="48.45969" lon="-2.10358">
        <ele>104.78</ele>
        <time>2025-06-04T06:31:39.822Z</time>
      </trkpt>
      <trkpt lat="48.45964" lon="-2.10356">
        <ele>104.770004</ele>
        <time>2025-06-04T06:31:38.274Z</time>
      </trkpt>
      <trkpt lat="48.45959" lon="-2.10353">
        <ele>104.78</ele>
        <time>2025-06-04T06:31:37.330Z</time>
      </trkpt>
      <trkpt lat="48.45955" lon="-2.10351">
        <ele>104.8</ele>
        <time>2025-06-04T06:31:36.818Z</time>
      </trkpt>
      <trkpt lat="48.4595" lon="-2.10348">
        <ele>104.83</ele>
        <time>2025-06-04T06:31:35.340Z</time>
      </trkpt>
      <trkpt lat="48.45945" lon="-2.10345">
        <ele>104.85</ele>
        <time>2025-06-04T06:31:34.640Z</time>
      </trkpt>
      <trkpt lat="48.4594" lon="-2.10341">
        <ele>104.89</ele>
        <time>2025-06-04T06:31:32.841Z</time>
      </trkpt>
      <trkpt lat="48.45934" lon="-2.10338">
        <ele>104.95</ele>
        <time>2025-06-04T06:31:32.796Z</time>
      </trkpt>
      <trkpt lat="48.45929" lon="-2.10336">
        <ele>105.03</ele>
        <time>2025-06-04T06:31:31.363Z</time>
      </trkpt>
      <trkpt lat="48.45922" lon="-2.10334">
        <ele>105.12</ele>
        <time>2025-06-04T06:31:29.823Z</time>
      </trkpt>
      <trkpt lat="48.45916" lon="-2.10335">
        <ele>105.22</ele>
        <time>2025-06-04T06:31:29.770Z</time>
      </trkpt>
      <trkpt lat="48.45911" lon="-2.10338">
        <ele>105.32</ele>
        <time>2025-06-04T06:31:28.330Z</time>
      </trkpt>
      <trkpt lat="48.45906" lon="-2.10343">
        <ele>105.44</ele>
        <time>2025-06-04T06:31:26.826Z</time>
      </trkpt>
      <trkpt lat="48.45902" lon="-2.10349">
        <ele>105.56</ele>
        <time>2025-06-04T06:31:26.794Z</time>
      </trkpt>
      <trkpt lat="48.45898" lon="-2.10355">
        <ele>105.7</ele>
        <time>2025-06-04T06:31:25.296Z</time>
      </trkpt>
      <trkpt lat="48.45894" lon="-2.10361">
        <ele>105.85</ele>
        <time>2025-06-04T06:31:24.372Z</time>
      </trkpt>
      <trkpt lat="48.4589" lon="-2.10367">
        <ele>105.99</ele>
        <time>2025-06-04T06:31:23.793Z</time>
      </trkpt>
      <trkpt lat="48.45885" lon="-2.10373">
        <ele>106.13</ele>
        <time>2025-06-04T06:31:22.328Z</time>
      </trkpt>
      <trkpt lat="48.45881" lon="-2.10379">
        <ele>106.28</ele>
        <time>2025-06-04T06:31:20.834Z</time>
      </trkpt>
      <trkpt lat="48.45876" lon="-2.10384">
        <ele>106.42</ele>
        <time>2025-06-04T06:31:19.798Z</time>
      </trkpt>
      <trkpt lat="48.45872" lon="-2.1039">
        <ele>106.57</ele>
        <time>2025-06-04T06:31:19.787Z</time>
      </trkpt>
      <trkpt lat="48.45867" lon="-2.10396">
        <ele>106.729996</ele>
        <time>2025-06-04T06:31:17.841Z</time>
      </trkpt>
      <trkpt lat="48.45863" lon="-2.10401">
        <ele>106.91</ele>
        <time>2025-06-04T06:31:16.887Z</time>
      </trkpt>
      <trkpt lat="48.45858" lon="-2.10406">
        <ele>107.08</ele>
        <time>2025-06-04T06:31:15.842Z</time>
      </trkpt>
      <trkpt lat="48.45853" lon="-2.10411">
        <ele>107.24</ele>
        <time>2025-06-04T06:31:14.835Z</time>
      </trkpt>
      <trkpt lat="48.45848" lon="-2.10415">
        <ele>107.41</ele>
        <time>2025-06-04T06:31:13.799Z</time>
      </trkpt>
      <trkpt lat="48.45844" lon="-2.10418">
        <ele>107.58</ele>
        <time>2025-06-04T06:31:12.790Z</time>
      </trkpt>
      <trkpt lat="48.45838" lon="-2.10421">
        <ele>107.72</ele>
        <time>2025-06-04T06:31:12.780Z</time>
      </trkpt>
      <trkpt lat="48.45832" lon="-2.10425">
        <ele>107.85</ele>
        <time>2025-06-04T06:31:10.889Z</time>
      </trkpt>
      <trkpt lat="48.45827" lon="-2.10428">
        <ele>107.97</ele>
        <time>2025-06-04T06:31:09.781Z</time>
      </trkpt>
      <trkpt lat="48.45823" lon="-2.10431">
        <ele>108.08</ele>
        <time>2025-06-04T06:31:08.843Z</time>
      </trkpt>
      <trkpt lat="48.45818" lon="-2.10435">
        <ele>108.21</ele>
        <time>2025-06-04T06:31:07.793Z</time>
      </trkpt>
      <trkpt lat="48.45814" lon="-2.10438">
        <ele>108.33</ele>
        <time>2025-06-04T06:31:06.810Z</time>
      </trkpt>
      <trkpt lat="48.45809" lon="-2.10443">
        <ele>108.44</ele>
        <time>2025-06-04T06:31:05.794Z</time>
      </trkpt>
      <trkpt lat="48.45806" lon="-2.10446">
        <ele>108.54</ele>
        <time>2025-06-04T06:31:04.774Z</time>
      </trkpt>
      <trkpt lat="48.45802" lon="-2.10449">
        <ele>108.65</ele>
        <time>2025-06-04T06:31:03.893Z</time>
      </trkpt>
      <trkpt lat="48.45798" lon="-2.10454">
        <ele>108.74</ele>
        <time>2025-06-04T06:31:02.902Z</time>
      </trkpt>
      <trkpt lat="48.45795" lon="-2.10458">
        <ele>108.81</ele>
        <time>2025-06-04T06:31:01.830Z</time>
      </trkpt>
      <trkpt lat="48.45792" lon="-2.10462">
        <ele>108.88</ele>
        <time>2025-06-04T06:31:00.876Z</time>
      </trkpt>
      <trkpt lat="48.45789" lon="-2.10467">
        <ele>108.94</ele>
        <time>2025-06-04T06:30:59.864Z</time>
      </trkpt>
      <trkpt lat="48.45785" lon="-2.10471">
        <ele>108.99</ele>
        <time>2025-06-04T06:30:58.885Z</time>
      </trkpt>
      <trkpt lat="48.45782" lon="-2.10476">
        <ele>109.03</ele>
        <time>2025-06-04T06:30:57.834Z</time>
      </trkpt>
      <trkpt lat="48.45779" lon="-2.10479">
        <ele>109.07</ele>
        <time>2025-06-04T06:30:56.823Z</time>
      </trkpt>
      <trkpt lat="48.45776" lon="-2.10484">
        <ele>109.1</ele>
        <time>2025-06-04T06:30:55.811Z</time>
      </trkpt>
      <trkpt lat="48.45773" lon="-2.10488">
        <ele>109.14</ele>
        <time>2025-06-04T06:30:54.874Z</time>
      </trkpt>
      <trkpt lat="48.45771" lon="-2.10493">
        <ele>109.17</ele>
        <time>2025-06-04T06:30:53.827Z</time>
      </trkpt>
      <trkpt lat="48.45769" lon="-2.105">
        <ele>109.21</ele>
        <time>2025-06-04T06:30:52.790Z</time>
      </trkpt>
      <trkpt lat="48.45768" lon="-2.10504">
        <ele>109.25</ele>
        <time>2025-06-04T06:30:52.459Z</time>
      </trkpt>
      <trkpt lat="48.45766" lon="-2.10509">
        <ele>109.31</ele>
        <time>2025-06-04T06:30:51.323Z</time>
      </trkpt>
      <trkpt lat="48.45763" lon="-2.10513">
        <ele>109.36</ele>
        <time>2025-06-04T06:30:49.851Z</time>
      </trkpt>
      <trkpt lat="48.4576" lon="-2.10517">
        <ele>109.42</ele>
        <time>2025-06-04T06:30:48.837Z</time>
      </trkpt>
      <trkpt lat="48.45758" lon="-2.10517">
        <ele>109.46</ele>
        <time>2025-06-04T06:30:47.765Z</time>
      </trkpt>
      <trkpt lat="48.45755" lon="-2.10515">
        <ele>109.5</ele>
        <time>2025-06-04T06:30:46.852Z</time>
      </trkpt>
      <trkpt lat="48.45753" lon="-2.1051">
        <ele>109.55</ele>
        <time>2025-06-04T06:30:45.840Z</time>
      </trkpt>
      <trkpt lat="48.4575" lon="-2.10505">
        <ele>109.59</ele>
        <time>2025-06-04T06:30:44.864Z</time>
      </trkpt>
      <trkpt lat="48.45747" lon="-2.10498">
        <ele>109.64</ele>
        <time>2025-06-04T06:30:44.404Z</time>
      </trkpt>
      <trkpt lat="48.45745" lon="-2.10492">
        <ele>109.68</ele>
        <time>2025-06-04T06:30:42.901Z</time>
      </trkpt>
      <trkpt lat="48.45739" lon="-2.10487">
        <ele>109.729996</ele>
        <time>2025-06-04T06:30:42.722Z</time>
      </trkpt>
      <trkpt lat="48.4573" lon="-2.10468">
        <ele>109.87</ele>
        <time>2025-06-04T06:30:39.796Z</time>
      </trkpt>
      <trkpt lat="48.4573" lon="-2.10466">
        <ele>109.95</ele>
        <time>2025-06-04T06:30:38.879Z</time>
      </trkpt>
      <trkpt lat="48.45732" lon="-2.10466">
        <ele>110.13</ele>
        <time>2025-06-04T06:30:37.276Z</time>
      </trkpt>
      <trkpt lat="48.45733" lon="-2.10463">
        <ele>110.229996</ele>
        <time>2025-06-04T06:30:35.726Z</time>
      </trkpt>
      <trkpt lat="48.45733" lon="-2.10464">
        <ele>110.33</ele>
        <time>2025-06-04T06:30:35.291Z</time>
      </trkpt>
      <trkpt lat="48.45731" lon="-2.10461">
        <ele>110.45</ele>
        <time>2025-06-04T06:30:34.319Z</time>
      </trkpt>
      <trkpt lat="48.4573" lon="-2.10457">
        <ele>110.57</ele>
        <time>2025-06-04T06:30:33.326Z</time>
      </trkpt>
      <trkpt lat="48.45727" lon="-2.10451">
        <ele>110.71</ele>
        <time>2025-06-04T06:30:32.691Z</time>
      </trkpt>
      <trkpt lat="48.45724" lon="-2.10442">
        <ele>110.83</ele>
        <time>2025-06-04T06:30:31.290Z</time>
      </trkpt>
      <trkpt lat="48.45723" lon="-2.10438">
        <ele>110.96</ele>
        <time>2025-06-04T06:30:30.399Z</time>
      </trkpt>
      <trkpt lat="48.45721" lon="-2.10431">
        <ele>111.08</ele>
        <time>2025-06-04T06:30:29.694Z</time>
      </trkpt>
      <trkpt lat="48.45719" lon="-2.10424">
        <ele>111.2</ele>
        <time>2025-06-04T06:30:28.283Z</time>
      </trkpt>
      <trkpt lat="48.45715" lon="-2.10414">
        <ele>111.32</ele>
        <time>2025-06-04T06:30:27.276Z</time>
      </trkpt>
      <trkpt lat="48.45714" lon="-2.10411">
        <ele>111.42</ele>
        <time>2025-06-04T06:30:26.170Z</time>
      </trkpt>
      <trkpt lat="48.45711" lon="-2.10404">
        <ele>111.51</ele>
        <time>2025-06-04T06:30:24.728Z</time>
      </trkpt>
      <trkpt lat="48.45705" lon="-2.10396">
        <ele>111.59</ele>
        <time>2025-06-04T06:30:24.270Z</time>
      </trkpt>
      <trkpt lat="48.45703" lon="-2.10393">
        <ele>111.64</ele>
        <time>2025-06-04T06:30:23.263Z</time>
      </trkpt>
      <trkpt lat="48.45699" lon="-2.10388">
        <ele>111.7</ele>
        <time>2025-06-04T06:30:22.179Z</time>
      </trkpt>
      <trkpt lat="48.45693" lon="-2.10381">
        <ele>111.79</ele>
        <time>2025-06-04T06:30:21.315Z</time>
      </trkpt>
      <trkpt lat="48.45686" lon="-2.10377">
        <ele>111.87</ele>
        <time>2025-06-04T06:30:19.882Z</time>
      </trkpt>
      <trkpt lat="48.45679" lon="-2.10375">
        <ele>111.96</ele>
        <time>2025-06-04T06:30:18.884Z</time>
      </trkpt>
      <trkpt lat="48.45675" lon="-2.10376">
        <ele>112.03</ele>
        <time>2025-06-04T06:30:18.666Z</time>
      </trkpt>
      <trkpt lat="48.45668" lon="-2.10374">
        <ele>112.1</ele>
        <time>2025-06-04T06:30:17.296Z</time>
      </trkpt>
      <trkpt lat="48.45652" lon="-2.10376">
        <ele>112.13</ele>
        <time>2025-06-04T06:30:16.296Z</time>
      </trkpt>
      <trkpt lat="48.4565" lon="-2.10373">
        <ele>112.17</ele>
        <time>2025-06-04T06:30:14.845Z</time>
      </trkpt>
      <trkpt lat="48.45649" lon="-2.10371">
        <ele>112.2</ele>
        <time>2025-06-04T06:30:14.655Z</time>
      </trkpt>
      <trkpt lat="48.4565" lon="-2.10369">
        <ele>112.229996</ele>
        <time>2025-06-04T06:30:13.188Z</time>
      </trkpt>
      <trkpt lat="48.45652" lon="-2.10371">
        <ele>112.24</ele>
        <time>2025-06-04T06:30:11.724Z</time>
      </trkpt>
      <trkpt lat="48.4565" lon="-2.1037">
        <ele>112.26</ele>
        <time>2025-06-04T06:30:10.829Z</time>
      </trkpt>
      <trkpt lat="48.45646" lon="-2.10367">
        <ele>112.26</ele>
        <time>2025-06-04T06:30:10.643Z</time>
      </trkpt>
      <trkpt lat="48.45641" lon="-2.10365">
        <ele>112.270004</ele>
        <time>2025-06-04T06:30:09.177Z</time>
      </trkpt>
      <trkpt lat="48.45637" lon="-2.10363">
        <ele>112.28</ele>
        <time>2025-06-04T06:30:08.168Z</time>
      </trkpt>
      <trkpt lat="48.45632" lon="-2.10361">
        <ele>112.28</ele>
        <time>2025-06-04T06:30:06.856Z</time>
      </trkpt>
      <trkpt lat="48.45628" lon="-2.10358">
        <ele>112.270004</ele>
        <time>2025-06-04T06:30:06.682Z</time>
      </trkpt>
      <trkpt lat="48.45623" lon="-2.10357">
        <ele>112.270004</ele>
        <time>2025-06-04T06:30:04.895Z</time>
      </trkpt>
      <trkpt lat="48.45616" lon="-2.10355">
        <ele>112.25</ele>
        <time>2025-06-04T06:30:04.677Z</time>
      </trkpt>
      <trkpt lat="48.45613" lon="-2.10353">
        <ele>112.24</ele>
        <time>2025-06-04T06:30:03.141Z</time>
      </trkpt>
      <trkpt lat="48.45609" lon="-2.10352">
        <ele>112.22</ele>
        <time>2025-06-04T06:30:02.260Z</time>
      </trkpt>
      <trkpt lat="48.45604" lon="-2.1035">
        <ele>112.2</ele>
        <time>2025-06-04T06:30:00.884Z</time>
      </trkpt>
      <trkpt lat="48.45599" lon="-2.10349">
        <ele>112.19</ele>
        <time>2025-06-04T06:30:00.668Z</time>
      </trkpt>
      <trkpt lat="48.45596" lon="-2.10347">
        <ele>112.17</ele>
        <time>2025-06-04T06:29:59.183Z</time>
      </trkpt>
      <trkpt lat="48.45591" lon="-2.10346">
        <ele>112.16</ele>
        <time>2025-06-04T06:29:58.252Z</time>
      </trkpt>
      <trkpt lat="48.45587" lon="-2.10346">
        <ele>112.14</ele>
        <time>2025-06-04T06:29:56.853Z</time>
      </trkpt>
      <trkpt lat="48.45583" lon="-2.10345">
        <ele>112.13</ele>
        <time>2025-06-04T06:29:56.655Z</time>
      </trkpt>
      <trkpt lat="48.45579" lon="-2.10345">
        <ele>112.12</ele>
        <time>2025-06-04T06:29:55.280Z</time>
      </trkpt>
      <trkpt lat="48.45576" lon="-2.10344">
        <ele>112.11</ele>
        <time>2025-06-04T06:29:54.254Z</time>
      </trkpt>
      <trkpt lat="48.45572" lon="-2.10343">
        <ele>112.1</ele>
        <time>2025-06-04T06:29:53.663Z</time>
      </trkpt>
      <trkpt lat="48.45569" lon="-2.10341">
        <ele>112.08</ele>
        <time>2025-06-04T06:29:51.876Z</time>
      </trkpt>
      <trkpt lat="48.45565" lon="-2.10339">
        <ele>112.08</ele>
        <time>2025-06-04T06:29:51.662Z</time>
      </trkpt>
      <trkpt lat="48.45561" lon="-2.10337">
        <ele>112.1</ele>
        <time>2025-06-04T06:29:49.827Z</time>
      </trkpt>
      <trkpt lat="48.45557" lon="-2.10335">
        <ele>112.12</ele>
        <time>2025-06-04T06:29:48.882Z</time>
      </trkpt>
      <trkpt lat="48.45553" lon="-2.10333">
        <ele>112.14</ele>
        <time>2025-06-04T06:29:48.663Z</time>
      </trkpt>
      <trkpt lat="48.45549" lon="-2.10332">
        <ele>112.19</ele>
        <time>2025-06-04T06:29:47.624Z</time>
      </trkpt>
      <trkpt lat="48.45545" lon="-2.10333">
        <ele>112.229996</ele>
        <time>2025-06-04T06:29:46.650Z</time>
      </trkpt>
      <trkpt lat="48.45542" lon="-2.10335">
        <ele>112.29</ele>
        <time>2025-06-04T06:29:45.203Z</time>
      </trkpt>
      <trkpt lat="48.45539" lon="-2.10341">
        <ele>112.3</ele>
        <time>2025-06-04T06:29:44.160Z</time>
      </trkpt>
      <trkpt lat="48.45538" lon="-2.10346">
        <ele>112.31</ele>
        <time>2025-06-04T06:29:43.152Z</time>
      </trkpt>
      <trkpt lat="48.45536" lon="-2.10351">
        <ele>112.31</ele>
        <time>2025-06-04T06:29:41.804Z</time>
      </trkpt>
      <trkpt lat="48.45533" lon="-2.10355">
        <ele>112.3</ele>
        <time>2025-06-04T06:29:40.895Z</time>
      </trkpt>
      <trkpt lat="48.4553" lon="-2.10359">
        <ele>112.28</ele>
        <time>2025-06-04T06:29:40.617Z</time>
      </trkpt>
      <trkpt lat="48.45527" lon="-2.10362">
        <ele>112.26</ele>
        <time>2025-06-04T06:29:38.788Z</time>
      </trkpt>
      <trkpt lat="48.45524" lon="-2.10364">
        <ele>112.24</ele>
        <time>2025-06-04T06:29:38.597Z</time>
      </trkpt>
      <trkpt lat="48.4552" lon="-2.10366">
        <ele>112.229996</ele>
        <time>2025-06-04T06:29:36.902Z</time>
      </trkpt>
      <trkpt lat="48.45517" lon="-2.10368">
        <ele>112.22</ele>
        <time>2025-06-04T06:29:35.872Z</time>
      </trkpt>
      <trkpt lat="48.45514" lon="-2.1037">
        <ele>112.21</ele>
        <time>2025-06-04T06:29:34.826Z</time>
      </trkpt>
      <trkpt lat="48.4551" lon="-2.10373">
        <ele>112.2</ele>
        <time>2025-06-04T06:29:33.744Z</time>
      </trkpt>
      <trkpt lat="48.45507" lon="-2.10375">
        <ele>112.19</ele>
        <time>2025-06-04T06:29:33.192Z</time>
      </trkpt>
      <trkpt lat="48.45504" lon="-2.10377">
        <ele>112.17</ele>
        <time>2025-06-04T06:29:32.553Z</time>
      </trkpt>
      <trkpt lat="48.455" lon="-2.10378">
        <ele>112.15</ele>
        <time>2025-06-04T06:29:31.283Z</time>
      </trkpt>
      <trkpt lat="48.45497" lon="-2.10375">
        <ele>112.14</ele>
        <time>2025-06-04T06:29:30.090Z</time>
      </trkpt>
      <trkpt lat="48.45495" lon="-2.10371">
        <ele>112.13</ele>
        <time>2025-06-04T06:29:29.071Z</time>
      </trkpt>
      <trkpt lat="48.45497" lon="-2.10367">
        <ele>112.12</ele>
        <time>2025-06-04T06:29:28.205Z</time>
      </trkpt>
      <trkpt lat="48.45499" lon="-2.10363">
        <ele>112.1</ele>
        <time>2025-06-04T06:29:27.065Z</time>
      </trkpt>
      <trkpt lat="48.45502" lon="-2.10359">
        <ele>112.1</ele>
        <time>2025-06-04T06:29:26.615Z</time>
      </trkpt>
      <trkpt lat="48.45504" lon="-2.10355">
        <ele>112.1</ele>
        <time>2025-06-04T06:29:24.779Z</time>
      </trkpt>
      <trkpt lat="48.45506" lon="-2.1035">
        <ele>112.12</ele>
        <time>2025-06-04T06:29:24.350Z</time>
      </trkpt>
      <trkpt lat="48.45507" lon="-2.10344">
        <ele>112.15</ele>
        <time>2025-06-04T06:29:22.806Z</time>
      </trkpt>
      <trkpt lat="48.45507" lon="-2.10339">
        <ele>112.19</ele>
        <time>2025-06-04T06:29:22.609Z</time>
      </trkpt>
      <trkpt lat="48.45507" lon="-2.10333">
        <ele>112.26</ele>
        <time>2025-06-04T06:29:20.762Z</time>
      </trkpt>
      <trkpt lat="48.45506" lon="-2.10327">
        <ele>112.34</ele>
        <time>2025-06-04T06:29:19.832Z</time>
      </trkpt>
      <trkpt lat="48.45505" lon="-2.10322">
        <ele>112.44</ele>
        <time>2025-06-04T06:29:18.822Z</time>
      </trkpt>
      <trkpt lat="48.45504" lon="-2.10317">
        <ele>112.53</ele>
        <time>2025-06-04T06:29:17.775Z</time>
      </trkpt>
      <trkpt lat="48.45502" lon="-2.10313">
        <ele>112.64</ele>
        <time>2025-06-04T06:29:17.350Z</time>
      </trkpt>
      <trkpt lat="48.45501" lon="-2.10308">
        <ele>112.74</ele>
        <time>2025-06-04T06:29:16.338Z</time>
      </trkpt>
      <trkpt lat="48.45498" lon="-2.10304">
        <ele>112.84</ele>
        <time>2025-06-04T06:29:15.333Z</time>
      </trkpt>
      <trkpt lat="48.45496" lon="-2.10299">
        <ele>112.91</ele>
        <time>2025-06-04T06:29:13.951Z</time>
      </trkpt>
      <trkpt lat="48.45493" lon="-2.10295">
        <ele>112.99</ele>
        <time>2025-06-04T06:29:13.319Z</time>
      </trkpt>
      <trkpt lat="48.4549" lon="-2.1029">
        <ele>113.06</ele>
        <time>2025-06-04T06:29:12.379Z</time>
      </trkpt>
      <trkpt lat="48.45488" lon="-2.10286">
        <ele>113.11</ele>
        <time>2025-06-04T06:29:10.694Z</time>
      </trkpt>
      <trkpt lat="48.45486" lon="-2.10283">
        <ele>113.15</ele>
        <time>2025-06-04T06:29:10.391Z</time>
      </trkpt>
      <trkpt lat="48.45484" lon="-2.10278">
        <ele>113.18</ele>
        <time>2025-06-04T06:29:09.389Z</time>
      </trkpt>
      <trkpt lat="48.45483" lon="-2.10275">
        <ele>113.2</ele>
        <time>2025-06-04T06:29:08.294Z</time>
      </trkpt>
      <trkpt lat="48.45481" lon="-2.10269">
        <ele>113.2</ele>
        <time>2025-06-04T06:29:07.286Z</time>
      </trkpt>
      <trkpt lat="48.45479" lon="-2.10262">
        <ele>113.18</ele>
        <time>2025-06-04T06:29:06.244Z</time>
      </trkpt>
      <trkpt lat="48.45478" lon="-2.10257">
        <ele>113.17</ele>
        <time>2025-06-04T06:29:05.107Z</time>
      </trkpt>
      <trkpt lat="48.45477" lon="-2.10251">
        <ele>113.14</ele>
        <time>2025-06-04T06:29:03.849Z</time>
      </trkpt>
      <trkpt lat="48.45477" lon="-2.10246">
        <ele>113.1</ele>
        <time>2025-06-04T06:29:02.817Z</time>
      </trkpt>
      <trkpt lat="48.45476" lon="-2.1024">
        <ele>113.07</ele>
        <time>2025-06-04T06:29:01.712Z</time>
      </trkpt>
      <trkpt lat="48.45475" lon="-2.10234">
        <ele>113.03</ele>
        <time>2025-06-04T06:29:00.785Z</time>
      </trkpt>
      <trkpt lat="48.45475" lon="-2.10228">
        <ele>112.979996</ele>
        <time>2025-06-04T06:28:59.761Z</time>
      </trkpt>
      <trkpt lat="48.45476" lon="-2.10223">
        <ele>112.94</ele>
        <time>2025-06-04T06:28:59.236Z</time>
      </trkpt>
      <trkpt lat="48.45477" lon="-2.10215">
        <ele>112.9</ele>
        <time>2025-06-04T06:28:58.209Z</time>
      </trkpt>
      <trkpt lat="48.45478" lon="-2.10211">
        <ele>112.87</ele>
        <time>2025-06-04T06:28:57.119Z</time>
      </trkpt>
      <trkpt lat="48.45479" lon="-2.10206">
        <ele>112.84</ele>
        <time>2025-06-04T06:28:55.777Z</time>
      </trkpt>
      <trkpt lat="48.45481" lon="-2.10202">
        <ele>112.82</ele>
        <time>2025-06-04T06:28:54.809Z</time>
      </trkpt>
      <trkpt lat="48.45482" lon="-2.10197">
        <ele>112.8</ele>
        <time>2025-06-04T06:28:53.747Z</time>
      </trkpt>
      <trkpt lat="48.45483" lon="-2.10192">
        <ele>112.770004</ele>
        <time>2025-06-04T06:28:53.223Z</time>
      </trkpt>
      <trkpt lat="48.45485" lon="-2.10188">
        <ele>112.729996</ele>
        <time>2025-06-04T06:28:51.683Z</time>
      </trkpt>
      <trkpt lat="48.45485" lon="-2.10184">
        <ele>112.7</ele>
        <time>2025-06-04T06:28:50.871Z</time>
      </trkpt>
      <trkpt lat="48.45486" lon="-2.10179">
        <ele>112.65</ele>
        <time>2025-06-04T06:28:49.671Z</time>
      </trkpt>
      <trkpt lat="48.45488" lon="-2.10175">
        <ele>112.61</ele>
        <time>2025-06-04T06:28:49.365Z</time>
      </trkpt>
      <trkpt lat="48.45489" lon="-2.10169">
        <ele>112.56</ele>
        <time>2025-06-04T06:28:47.651Z</time>
      </trkpt>
      <trkpt lat="48.45491" lon="-2.10164">
        <ele>112.520004</ele>
        <time>2025-06-04T06:28:47.213Z</time>
      </trkpt>
      <trkpt lat="48.45491" lon="-2.10159">
        <ele>112.47</ele>
        <time>2025-06-04T06:28:45.846Z</time>
      </trkpt>
      <trkpt lat="48.45492" lon="-2.10155">
        <ele>112.42</ele>
        <time>2025-06-04T06:28:45.273Z</time>
      </trkpt>
      <trkpt lat="48.45493" lon="-2.1015">
        <ele>112.38</ele>
        <time>2025-06-04T06:28:43.600Z</time>
      </trkpt>
      <trkpt lat="48.45494" lon="-2.10144">
        <ele>112.32</ele>
        <time>2025-06-04T06:28:43.233Z</time>
      </trkpt>
      <trkpt lat="48.45495" lon="-2.10139">
        <ele>112.28</ele>
        <time>2025-06-04T06:28:42.284Z</time>
      </trkpt>
      <trkpt lat="48.45496" lon="-2.10134">
        <ele>112.21</ele>
        <time>2025-06-04T06:28:40.637Z</time>
      </trkpt>
      <trkpt lat="48.45496" lon="-2.10129">
        <ele>112.14</ele>
        <time>2025-06-04T06:28:40.167Z</time>
      </trkpt>
      <trkpt lat="48.45497" lon="-2.10124">
        <ele>112.020004</ele>
        <time>2025-06-04T06:28:39.254Z</time>
      </trkpt>
      <trkpt lat="48.45498" lon="-2.10119">
        <ele>111.89</ele>
        <time>2025-06-04T06:28:37.585Z</time>
      </trkpt>
      <trkpt lat="48.45499" lon="-2.10111">
        <ele>111.729996</ele>
        <time>2025-06-04T06:28:37.234Z</time>
      </trkpt>
      <trkpt lat="48.455" lon="-2.10101">
        <ele>111.58</ele>
        <time>2025-06-04T06:28:36.251Z</time>
      </trkpt>
      <trkpt lat="48.45502" lon="-2.10094">
        <ele>111.42</ele>
        <time>2025-06-04T06:28:35.228Z</time>
      </trkpt>
      <trkpt lat="48.45504" lon="-2.10086">
        <ele>111.229996</ele>
        <time>2025-06-04T06:28:34.231Z</time>
      </trkpt>
      <trkpt lat="48.45506" lon="-2.10077">
        <ele>111.05</ele>
        <time>2025-06-04T06:28:33.232Z</time>
      </trkpt>
      <trkpt lat="48.45508" lon="-2.1007">
        <ele>110.85</ele>
        <time>2025-06-04T06:28:31.811Z</time>
      </trkpt>
      <trkpt lat="48.45511" lon="-2.10057">
        <ele>110.71</ele>
        <time>2025-06-04T06:28:31.088Z</time>
      </trkpt>
      <trkpt lat="48.45511" lon="-2.10055">
        <ele>110.55</ele>
        <time>2025-06-04T06:28:30.074Z</time>
      </trkpt>
      <trkpt lat="48.45512" lon="-2.10052">
        <ele>110.42</ele>
        <time>2025-06-04T06:28:29.109Z</time>
      </trkpt>
      <trkpt lat="48.45512" lon="-2.10048">
        <ele>110.270004</ele>
        <time>2025-06-04T06:28:28.091Z</time>
      </trkpt>
      <trkpt lat="48.45514" lon="-2.10032">
        <ele>110.18</ele>
        <time>2025-06-04T06:28:27.079Z</time>
      </trkpt>
      <trkpt lat="48.45515" lon="-2.10028">
        <ele>110.09</ele>
        <time>2025-06-04T06:28:26.389Z</time>
      </trkpt>
      <trkpt lat="48.45515" lon="-2.1002">
        <ele>110.020004</ele>
        <time>2025-06-04T06:28:24.745Z</time>
      </trkpt>
      <trkpt lat="48.45515" lon="-2.10015">
        <ele>109.95</ele>
        <time>2025-06-04T06:28:23.656Z</time>
      </trkpt>
      <trkpt lat="48.45515" lon="-2.10011">
        <ele>109.89</ele>
        <time>2025-06-04T06:28:22.754Z</time>
      </trkpt>
      <trkpt lat="48.45515" lon="-2.1001">
        <ele>109.83</ele>
        <time>2025-06-04T06:28:21.708Z</time>
      </trkpt>
      <trkpt lat="48.45515" lon="-2.10005">
        <ele>109.770004</ele>
        <time>2025-06-04T06:28:20.729Z</time>
      </trkpt>
      <trkpt lat="48.45515" lon="-2.10007">
        <ele>109.71</ele>
        <time>2025-06-04T06:28:19.685Z</time>
      </trkpt>
      <trkpt lat="48.45515" lon="-2.1">
        <ele>109.64</ele>
        <time>2025-06-04T06:28:18.790Z</time>
      </trkpt>
      <trkpt lat="48.45515" lon="-2.09996">
        <ele>109.55</ele>
        <time>2025-06-04T06:28:18.526Z</time>
      </trkpt>
      <trkpt lat="48.45515" lon="-2.09989">
        <ele>109.44</ele>
        <time>2025-06-04T06:28:17.357Z</time>
      </trkpt>
      <trkpt lat="48.45515" lon="-2.09984">
        <ele>109.31</ele>
        <time>2025-06-04T06:28:16.492Z</time>
      </trkpt>
      <trkpt lat="48.45515" lon="-2.0998">
        <ele>109.14</ele>
        <time>2025-06-04T06:28:14.746Z</time>
      </trkpt>
      <trkpt lat="48.45516" lon="-2.09974">
        <ele>108.94</ele>
        <time>2025-06-04T06:28:13.685Z</time>
      </trkpt>
      <trkpt lat="48.45518" lon="-2.09969">
        <ele>108.69</ele>
        <time>2025-06-04T06:28:12.723Z</time>
      </trkpt>
      <trkpt lat="48.45523" lon="-2.09964">
        <ele>108.37</ele>
        <time>2025-06-04T06:28:12.489Z</time>
      </trkpt>
      <trkpt lat="48.45527" lon="-2.09961">
        <ele>108.020004</ele>
        <time>2025-06-04T06:28:10.722Z</time>
      </trkpt>
      <trkpt lat="48.45532" lon="-2.09958">
        <ele>107.6</ele>
        <time>2025-06-04T06:28:10.508Z</time>
      </trkpt>
      <trkpt lat="48.45538" lon="-2.09956">
        <ele>107.12</ele>
        <time>2025-06-04T06:28:08.977Z</time>
      </trkpt>
      <trkpt lat="48.45544" lon="-2.09954">
        <ele>106.69</ele>
        <time>2025-06-04T06:28:07.734Z</time>
      </trkpt>
      <trkpt lat="48.45552" lon="-2.09953">
        <ele>106.47</ele>
        <time>2025-06-04T06:28:07.263Z</time>
      </trkpt>
      <trkpt lat="48.45559" lon="-2.0995">
        <ele>106.229996</ele>
        <time>2025-06-04T06:28:06.285Z</time>
      </trkpt>
      <trkpt lat="48.45564" lon="-2.09947">
        <ele>106.06</ele>
        <time>2025-06-04T06:28:04.696Z</time>
      </trkpt>
      <trkpt lat="48.45567" lon="-2.09945">
        <ele>105.92</ele>
        <time>2025-06-04T06:28:03.691Z</time>
      </trkpt>
      <trkpt lat="48.45568" lon="-2.09945">
        <ele>105.78</ele>
        <time>2025-06-04T06:28:03.206Z</time>
      </trkpt>
      <trkpt lat="48.45571" lon="-2.09944">
        <ele>105.65</ele>
        <time>2025-06-04T06:28:01.737Z</time>
      </trkpt>
      <trkpt lat="48.45576" lon="-2.09943">
        <ele>105.61</ele>
        <time>2025-06-04T06:28:01.334Z</time>
      </trkpt>
      <trkpt lat="48.4558" lon="-2.0994">
        <ele>105.57</ele>
        <time>2025-06-04T06:27:59.686Z</time>
      </trkpt>
      <trkpt lat="48.45584" lon="-2.09939">
        <ele>105.55</ele>
        <time>2025-06-04T06:27:59.259Z</time>
      </trkpt>
      <trkpt lat="48.45586" lon="-2.09935">
        <ele>105.53</ele>
        <time>2025-06-04T06:27:58.287Z</time>
      </trkpt>
      <trkpt lat="48.45588" lon="-2.09927">
        <ele>105.520004</ele>
        <time>2025-06-04T06:27:57.212Z</time>
      </trkpt>
      <trkpt lat="48.45588" lon="-2.09921">
        <ele>105.51</ele>
        <time>2025-06-04T06:27:56.202Z</time>
      </trkpt>
      <trkpt lat="48.45587" lon="-2.09913">
        <ele>105.5</ele>
        <time>2025-06-04T06:27:54.734Z</time>
      </trkpt>
      <trkpt lat="48.45585" lon="-2.09905">
        <ele>105.47</ele>
        <time>2025-06-04T06:27:54.217Z</time>
      </trkpt>
      <trkpt lat="48.45584" lon="-2.09896">
        <ele>105.42</ele>
        <time>2025-06-04T06:27:53.426Z</time>
      </trkpt>
      <trkpt lat="48.45583" lon="-2.09888">
        <ele>105.35</ele>
        <time>2025-06-04T06:27:52.228Z</time>
      </trkpt>
      <trkpt lat="48.4558" lon="-2.0987">
        <ele>105.29</ele>
        <time>2025-06-04T06:27:51.254Z</time>
      </trkpt>
      <trkpt lat="48.4558" lon="-2.09866">
        <ele>105.29</ele>
        <time>2025-06-04T06:27:49.751Z</time>
      </trkpt>
      <trkpt lat="48.4558" lon="-2.09858">
        <ele>105.29</ele>
        <time>2025-06-04T06:27:49.218Z</time>
      </trkpt>
      <trkpt lat="48.4558" lon="-2.09849">
        <ele>105.32</ele>
        <time>2025-06-04T06:27:48.246Z</time>
      </trkpt>
      <trkpt lat="48.45579" lon="-2.09836">
        <ele>105.35</ele>
        <time>2025-06-04T06:27:47.416Z</time>
      </trkpt>
      <trkpt lat="48.45579" lon="-2.0983">
        <ele>105.39</ele>
        <time>2025-06-04T06:27:46.148Z</time>
      </trkpt>
      <trkpt lat="48.45578" lon="-2.09823">
        <ele>105.43</ele>
        <time>2025-06-04T06:27:44.957Z</time>
      </trkpt>
      <trkpt lat="48.45578" lon="-2.09815">
        <ele>105.49</ele>
        <time>2025-06-04T06:27:44.256Z</time>
      </trkpt>
      <trkpt lat="48.45577" lon="-2.0981">
        <ele>105.55</ele>
        <time>2025-06-04T06:27:42.693Z</time>
      </trkpt>
      <trkpt lat="48.45577" lon="-2.09805">
        <ele>105.6</ele>
        <time>2025-06-04T06:27:42.363Z</time>
      </trkpt>
      <trkpt lat="48.45577" lon="-2.09798">
        <ele>105.66</ele>
        <time>2025-06-04T06:27:40.675Z</time>
      </trkpt>
      <trkpt lat="48.45577" lon="-2.0979">
        <ele>105.72</ele>
        <time>2025-06-04T06:27:40.213Z</time>
      </trkpt>
      <trkpt lat="48.45577" lon="-2.09777">
        <ele>105.76</ele>
        <time>2025-06-04T06:27:38.670Z</time>
      </trkpt>
      <trkpt lat="48.45577" lon="-2.09772">
        <ele>105.81</ele>
        <time>2025-06-04T06:27:38.357Z</time>
      </trkpt>
      <trkpt lat="48.45576" lon="-2.09764">
        <ele>105.85</ele>
        <time>2025-06-04T06:27:36.636Z</time>
      </trkpt>
      <trkpt lat="48.45575" lon="-2.09754">
        <ele>105.88</ele>
        <time>2025-06-04T06:27:36.202Z</time>
      </trkpt>
      <trkpt lat="48.45575" lon="-2.09746">
        <ele>105.92</ele>
        <time>2025-06-04T06:27:35.467Z</time>
      </trkpt>
      <trkpt lat="48.45575" lon="-2.09738">
        <ele>105.96</ele>
        <time>2025-06-04T06:27:33.965Z</time>
      </trkpt>
      <trkpt lat="48.45575" lon="-2.09729">
        <ele>105.99</ele>
        <time>2025-06-04T06:27:33.288Z</time>
      </trkpt>
      <trkpt lat="48.45575" lon="-2.09721">
        <ele>106.03</ele>
        <time>2025-06-04T06:27:32.064Z</time>
      </trkpt>
      <trkpt lat="48.45575" lon="-2.09713">
        <ele>106.06</ele>
        <time>2025-06-04T06:27:30.482Z</time>
      </trkpt>
      <trkpt lat="48.45575" lon="-2.097">
        <ele>106.1</ele>
        <time>2025-06-04T06:27:30.177Z</time>
      </trkpt>
      <trkpt lat="48.45575" lon="-2.09698">
        <ele>106.14</ele>
        <time>2025-06-04T06:27:29.282Z</time>
      </trkpt>
      <trkpt lat="48.45575" lon="-2.09686">
        <ele>106.17</ele>
        <time>2025-06-04T06:27:28.452Z</time>
      </trkpt>
      <trkpt lat="48.45575" lon="-2.09682">
        <ele>106.2</ele>
        <time>2025-06-04T06:27:27.383Z</time>
      </trkpt>
      <trkpt lat="48.45575" lon="-2.09675">
        <ele>106.22</ele>
        <time>2025-06-04T06:27:25.902Z</time>
      </trkpt>
      <trkpt lat="48.45576" lon="-2.09666">
        <ele>106.24</ele>
        <time>2025-06-04T06:27:24.473Z</time>
      </trkpt>
      <trkpt lat="48.45575" lon="-2.09658">
        <ele>106.26</ele>
        <time>2025-06-04T06:27:24.276Z</time>
      </trkpt>
      <trkpt lat="48.45575" lon="-2.09651">
        <ele>106.26</ele>
        <time>2025-06-04T06:27:22.456Z</time>
      </trkpt>
      <trkpt lat="48.45573" lon="-2.09644">
        <ele>106.25</ele>
        <time>2025-06-04T06:27:22.388Z</time>
      </trkpt>
      <trkpt lat="48.45572" lon="-2.09636">
        <ele>106.229996</ele>
        <time>2025-06-04T06:27:21.274Z</time>
      </trkpt>
      <trkpt lat="48.4557" lon="-2.09623">
        <ele>106.21</ele>
        <time>2025-06-04T06:27:19.748Z</time>
      </trkpt>
      <trkpt lat="48.4557" lon="-2.0962">
        <ele>106.18</ele>
        <time>2025-06-04T06:27:19.402Z</time>
      </trkpt>
      <trkpt lat="48.45568" lon="-2.09613">
        <ele>106.15</ele>
        <time>2025-06-04T06:27:18.125Z</time>
      </trkpt>
      <trkpt lat="48.45568" lon="-2.09605">
        <ele>106.12</ele>
        <time>2025-06-04T06:27:17.210Z</time>
      </trkpt>
      <trkpt lat="48.45567" lon="-2.09597">
        <ele>106.09</ele>
        <time>2025-06-04T06:27:16.240Z</time>
      </trkpt>
      <trkpt lat="48.45565" lon="-2.09588">
        <ele>106.06</ele>
        <time>2025-06-04T06:27:15.356Z</time>
      </trkpt>
      <trkpt lat="48.45565" lon="-2.09581">
        <ele>106.04</ele>
        <time>2025-06-04T06:27:14.076Z</time>
      </trkpt>
      <trkpt lat="48.45564" lon="-2.09574">
        <ele>106.020004</ele>
        <time>2025-06-04T06:27:13.045Z</time>
      </trkpt>
      <trkpt lat="48.45565" lon="-2.09568">
        <ele>106.020004</ele>
        <time>2025-06-04T06:27:12.149Z</time>
      </trkpt>
      <trkpt lat="48.45568" lon="-2.09563">
        <ele>106.01</ele>
        <time>2025-06-04T06:27:11.150Z</time>
      </trkpt>
      <trkpt lat="48.45571" lon="-2.09559">
        <ele>106.01</ele>
        <time>2025-06-04T06:27:10.425Z</time>
      </trkpt>
      <trkpt lat="48.45575" lon="-2.09556">
        <ele>106.020004</ele>
        <time>2025-06-04T06:27:09.323Z</time>
      </trkpt>
      <trkpt lat="48.45578" lon="-2.09554">
        <ele>106.020004</ele>
        <time>2025-06-04T06:27:08.072Z</time>
      </trkpt>
      <trkpt lat="48.45583" lon="-2.09552">
        <ele>106.03</ele>
        <time>2025-06-04T06:27:07.379Z</time>
      </trkpt>
      <trkpt lat="48.45586" lon="-2.0955">
        <ele>106.04</ele>
        <time>2025-06-04T06:27:06.308Z</time>
      </trkpt>
      <trkpt lat="48.45591" lon="-2.09549">
        <ele>106.04</ele>
        <time>2025-06-04T06:27:05.081Z</time>
      </trkpt>
      <trkpt lat="48.45595" lon="-2.09547">
        <ele>106.03</ele>
        <time>2025-06-04T06:27:04.058Z</time>
      </trkpt>
      <trkpt lat="48.45599" lon="-2.09546">
        <ele>106.03</ele>
        <time>2025-06-04T06:27:03.177Z</time>
      </trkpt>
      <trkpt lat="48.45603" lon="-2.09545">
        <ele>106.03</ele>
        <time>2025-06-04T06:27:02.272Z</time>
      </trkpt>
      <trkpt lat="48.45607" lon="-2.09545">
        <ele>106.020004</ele>
        <time>2025-06-04T06:27:01.376Z</time>
      </trkpt>
      <trkpt lat="48.45612" lon="-2.09545">
        <ele>106</ele>
        <time>2025-06-04T06:26:59.885Z</time>
      </trkpt>
      <trkpt lat="48.45615" lon="-2.09545">
        <ele>105.97</ele>
        <time>2025-06-04T06:26:59.261Z</time>
      </trkpt>
      <trkpt lat="48.4562" lon="-2.09545">
        <ele>105.94</ele>
        <time>2025-06-04T06:26:57.741Z</time>
      </trkpt>
      <trkpt lat="48.45623" lon="-2.09545">
        <ele>105.89</ele>
        <time>2025-06-04T06:26:57.362Z</time>
      </trkpt>
      <trkpt lat="48.45627" lon="-2.09546">
        <ele>105.84</ele>
        <time>2025-06-04T06:26:56.081Z</time>
      </trkpt>
      <trkpt lat="48.4563" lon="-2.09547">
        <ele>105.770004</ele>
        <time>2025-06-04T06:26:55.221Z</time>
      </trkpt>
      <trkpt lat="48.45633" lon="-2.09547">
        <ele>105.69</ele>
        <time>2025-06-04T06:26:53.873Z</time>
      </trkpt>
      <trkpt lat="48.45635" lon="-2.09547">
        <ele>105.6</ele>
        <time>2025-06-04T06:26:52.868Z</time>
      </trkpt>
      <trkpt lat="48.45637" lon="-2.09545">
        <ele>105.49</ele>
        <time>2025-06-04T06:26:52.400Z</time>
      </trkpt>
      <trkpt lat="48.45638" lon="-2.09542">
        <ele>105.38</ele>
        <time>2025-06-04T06:26:51.159Z</time>
      </trkpt>
      <trkpt lat="48.45638" lon="-2.09539">
        <ele>105.229996</ele>
        <time>2025-06-04T06:26:50.329Z</time>
      </trkpt>
      <trkpt lat="48.45638" lon="-2.09536">
        <ele>105.1</ele>
        <time>2025-06-04T06:26:48.534Z</time>
      </trkpt>
      <trkpt lat="48.45639" lon="-2.09532">
        <ele>104.979996</ele>
        <time>2025-06-04T06:26:48.329Z</time>
      </trkpt>
      <trkpt lat="48.45639" lon="-2.09527">
        <ele>104.84</ele>
        <time>2025-06-04T06:26:47.140Z</time>
      </trkpt>
      <trkpt lat="48.4564" lon="-2.09521">
        <ele>104.72</ele>
        <time>2025-06-04T06:26:46.385Z</time>
      </trkpt>
      <trkpt lat="48.4564" lon="-2.09515">
        <ele>104.6</ele>
        <time>2025-06-04T06:26:45.391Z</time>
      </trkpt>
      <trkpt lat="48.4564" lon="-2.09509">
        <ele>104.49</ele>
        <time>2025-06-04T06:26:43.976Z</time>
      </trkpt>
      <trkpt lat="48.45641" lon="-2.09502">
        <ele>104.39</ele>
        <time>2025-06-04T06:26:42.986Z</time>
      </trkpt>
      <trkpt lat="48.45641" lon="-2.09493">
        <ele>104.29</ele>
        <time>2025-06-04T06:26:42.104Z</time>
      </trkpt>
      <trkpt lat="48.45641" lon="-2.09485">
        <ele>104.22</ele>
        <time>2025-06-04T06:26:40.926Z</time>
      </trkpt>
      <trkpt lat="48.45641" lon="-2.09467">
        <ele>104.15</ele>
        <time>2025-06-04T06:26:39.910Z</time>
      </trkpt>
      <trkpt lat="48.45641" lon="-2.09458">
        <ele>104.12</ele>
        <time>2025-06-04T06:26:38.970Z</time>
      </trkpt>
      <trkpt lat="48.4564" lon="-2.09457">
        <ele>104.1</ele>
        <time>2025-06-04T06:26:38.352Z</time>
      </trkpt>
      <trkpt lat="48.4564" lon="-2.09456">
        <ele>104.1</ele>
        <time>2025-06-04T06:26:36.849Z</time>
      </trkpt>
      <trkpt lat="48.45641" lon="-2.09445">
        <ele>104.11</ele>
        <time>2025-06-04T06:26:36.103Z</time>
      </trkpt>
      <trkpt lat="48.4564" lon="-2.09442">
        <ele>104.11</ele>
        <time>2025-06-04T06:26:35.371Z</time>
      </trkpt>
      <trkpt lat="48.4564" lon="-2.09433">
        <ele>104.13</ele>
        <time>2025-06-04T06:26:33.884Z</time>
      </trkpt>
      <trkpt lat="48.4564" lon="-2.09423">
        <ele>104.16</ele>
        <time>2025-06-04T06:26:33.235Z</time>
      </trkpt>
      <trkpt lat="48.4564" lon="-2.09414">
        <ele>104.17</ele>
        <time>2025-06-04T06:26:31.868Z</time>
      </trkpt>
      <trkpt lat="48.4564" lon="-2.09406">
        <ele>104.19</ele>
        <time>2025-06-04T06:26:30.843Z</time>
      </trkpt>
      <trkpt lat="48.4564" lon="-2.09398">
        <ele>104.21</ele>
        <time>2025-06-04T06:26:29.880Z</time>
      </trkpt>
      <trkpt lat="48.4564" lon="-2.09391">
        <ele>104.229996</ele>
        <time>2025-06-04T06:26:28.909Z</time>
      </trkpt>
      <trkpt lat="48.45639" lon="-2.09384">
        <ele>104.25</ele>
        <time>2025-06-04T06:26:28.373Z</time>
      </trkpt>
      <trkpt lat="48.45637" lon="-2.09377">
        <ele>104.26</ele>
        <time>2025-06-04T06:26:26.893Z</time>
      </trkpt>
      <trkpt lat="48.45634" lon="-2.09372">
        <ele>104.270004</ele>
        <time>2025-06-04T06:26:25.883Z</time>
      </trkpt>
      <trkpt lat="48.45631" lon="-2.09367">
        <ele>104.270004</ele>
        <time>2025-06-04T06:26:24.881Z</time>
      </trkpt>
      <trkpt lat="48.45626" lon="-2.09364">
        <ele>104.25</ele>
        <time>2025-06-04T06:26:23.891Z</time>
      </trkpt>
      <trkpt lat="48.45623" lon="-2.09362">
        <ele>104.229996</ele>
        <time>2025-06-04T06:26:23.348Z</time>
      </trkpt>
      <trkpt lat="48.45619" lon="-2.09361">
        <ele>104.2</ele>
        <time>2025-06-04T06:26:21.872Z</time>
      </trkpt>
      <trkpt lat="48.45615" lon="-2.09359">
        <ele>104.17</ele>
        <time>2025-06-04T06:26:20.913Z</time>
      </trkpt>
      <trkpt lat="48.45612" lon="-2.09357">
        <ele>104.14</ele>
        <time>2025-06-04T06:26:20.353Z</time>
      </trkpt>
      <trkpt lat="48.45608" lon="-2.09356">
        <ele>104.11</ele>
        <time>2025-06-04T06:26:18.936Z</time>
      </trkpt>
      <trkpt lat="48.45603" lon="-2.09353">
        <ele>104.08</ele>
        <time>2025-06-04T06:26:17.934Z</time>
      </trkpt>
      <trkpt lat="48.45597" lon="-2.09348">
        <ele>104.08</ele>
        <time>2025-06-04T06:26:16.923Z</time>
      </trkpt>
      <trkpt lat="48.45594" lon="-2.09345">
        <ele>104.07</ele>
        <time>2025-06-04T06:26:16.338Z</time>
      </trkpt>
      <trkpt lat="48.45589" lon="-2.09344">
        <ele>104.08</ele>
        <time>2025-06-04T06:26:14.855Z</time>
      </trkpt>
      <trkpt lat="48.45584" lon="-2.09343">
        <ele>104.1</ele>
        <time>2025-06-04T06:26:13.925Z</time>
      </trkpt>
      <trkpt lat="48.45584" lon="-2.09344">
        <ele>104.14</ele>
        <time>2025-06-04T06:26:12.895Z</time>
      </trkpt>
      <trkpt lat="48.45576" lon="-2.09344">
        <ele>104.21</ele>
        <time>2025-06-04T06:26:11.886Z</time>
      </trkpt>
      <trkpt lat="48.45569" lon="-2.09345">
        <ele>104.34</ele>
        <time>2025-06-04T06:26:11.003Z</time>
      </trkpt>
      <trkpt lat="48.45561" lon="-2.09346">
        <ele>104.520004</ele>
        <time>2025-06-04T06:26:10.243Z</time>
      </trkpt>
      <trkpt lat="48.45554" lon="-2.09346">
        <ele>104.770004</ele>
        <time>2025-06-04T06:26:09.340Z</time>
      </trkpt>
      <trkpt lat="48.45547" lon="-2.09346">
        <ele>105.08</ele>
        <time>2025-06-04T06:26:07.885Z</time>
      </trkpt>
      <trkpt lat="48.4554" lon="-2.09346">
        <ele>105.43</ele>
        <time>2025-06-04T06:26:06.973Z</time>
      </trkpt>
      <trkpt lat="48.45533" lon="-2.09347">
        <ele>105.84</ele>
        <time>2025-06-04T06:26:05.876Z</time>
      </trkpt>
      <trkpt lat="48.45526" lon="-2.09348">
        <ele>106.3</ele>
        <time>2025-06-04T06:26:05.337Z</time>
      </trkpt>
      <trkpt lat="48.45518" lon="-2.09347">
        <ele>106.74</ele>
        <time>2025-06-04T06:26:03.884Z</time>
      </trkpt>
      <trkpt lat="48.45511" lon="-2.09347">
        <ele>107.24</ele>
        <time>2025-06-04T06:26:02.914Z</time>
      </trkpt>
      <trkpt lat="48.45501" lon="-2.09345">
        <ele>107.78</ele>
        <time>2025-06-04T06:26:01.910Z</time>
      </trkpt>
      <trkpt lat="48.45494" lon="-2.09342">
        <ele>108.19</ele>
        <time>2025-06-04T06:26:00.965Z</time>
      </trkpt>
      <trkpt lat="48.45483" lon="-2.09337">
        <ele>108.57</ele>
        <time>2025-06-04T06:25:59.861Z</time>
      </trkpt>
      <trkpt lat="48.45466" lon="-2.09328">
        <ele>109.01</ele>
        <time>2025-06-04T06:25:58.886Z</time>
      </trkpt>
      <trkpt lat="48.45458" lon="-2.09324">
        <ele>109.270004</ele>
        <time>2025-06-04T06:25:57.959Z</time>
      </trkpt>
      <trkpt lat="48.45451" lon="-2.09319">
        <ele>109.54</ele>
        <time>2025-06-04T06:25:56.911Z</time>
      </trkpt>
      <trkpt lat="48.45441" lon="-2.09314">
        <ele>109.79</ele>
        <time>2025-06-04T06:25:55.928Z</time>
      </trkpt>
      <trkpt lat="48.45434" lon="-2.09307">
        <ele>109.96</ele>
        <time>2025-06-04T06:25:54.893Z</time>
      </trkpt>
      <trkpt lat="48.45421" lon="-2.093">
        <ele>110.11</ele>
        <time>2025-06-04T06:25:53.906Z</time>
      </trkpt>
      <trkpt lat="48.45424" lon="-2.09301">
        <ele>110.25</ele>
        <time>2025-06-04T06:25:52.929Z</time>
      </trkpt>
      <trkpt lat="48.4542" lon="-2.09297">
        <ele>110.41</ele>
        <time>2025-06-04T06:25:51.939Z</time>
      </trkpt>
      <trkpt lat="48.45415" lon="-2.09294">
        <ele>110.57</ele>
        <time>2025-06-04T06:25:50.916Z</time>
      </trkpt>
      <trkpt lat="48.45412" lon="-2.09291">
        <ele>110.72</ele>
        <time>2025-06-04T06:25:49.940Z</time>
      </trkpt>
      <trkpt lat="48.45412" lon="-2.09288">
        <ele>110.86</ele>
        <time>2025-06-04T06:25:48.922Z</time>
      </trkpt>
      <trkpt lat="48.45413" lon="-2.09289">
        <ele>111.01</ele>
        <time>2025-06-04T06:25:47.962Z</time>
      </trkpt>
      <trkpt lat="48.45411" lon="-2.09284">
        <ele>111.17</ele>
        <time>2025-06-04T06:25:46.874Z</time>
      </trkpt>
      <trkpt lat="48.45408" lon="-2.0928">
        <ele>111.35</ele>
        <time>2025-06-04T06:25:45.911Z</time>
      </trkpt>
      <trkpt lat="48.45406" lon="-2.09273">
        <ele>111.55</ele>
        <time>2025-06-04T06:25:44.884Z</time>
      </trkpt>
      <trkpt lat="48.45404" lon="-2.09269">
        <ele>111.770004</ele>
        <time>2025-06-04T06:25:43.944Z</time>
      </trkpt>
      <trkpt lat="48.45402" lon="-2.09266">
        <ele>111.979996</ele>
        <time>2025-06-04T06:25:42.948Z</time>
      </trkpt>
      <trkpt lat="48.45401" lon="-2.09263">
        <ele>112.21</ele>
        <time>2025-06-04T06:25:41.946Z</time>
      </trkpt>
      <trkpt lat="48.45399" lon="-2.09259">
        <ele>112.47</ele>
        <time>2025-06-04T06:25:40.876Z</time>
      </trkpt>
      <trkpt lat="48.45395" lon="-2.09253">
        <ele>112.69</ele>
        <time>2025-06-04T06:25:39.903Z</time>
      </trkpt>
      <trkpt lat="48.45392" lon="-2.09246">
        <ele>112.88</ele>
        <time>2025-06-04T06:25:39.314Z</time>
      </trkpt>
      <trkpt lat="48.45388" lon="-2.09238">
        <ele>113.08</ele>
        <time>2025-06-04T06:25:37.901Z</time>
      </trkpt>
      <trkpt lat="48.45386" lon="-2.09231">
        <ele>113.259995</ele>
        <time>2025-06-04T06:25:36.436Z</time>
      </trkpt>
      <trkpt lat="48.45383" lon="-2.09223">
        <ele>113.380005</ele>
        <time>2025-06-04T06:25:35.943Z</time>
      </trkpt>
      <trkpt lat="48.45379" lon="-2.09215">
        <ele>113.45</ele>
        <time>2025-06-04T06:25:34.904Z</time>
      </trkpt>
      <trkpt lat="48.45372" lon="-2.09203">
        <ele>113.54</ele>
        <time>2025-06-04T06:25:33.946Z</time>
      </trkpt>
      <trkpt lat="48.45369" lon="-2.09195">
        <ele>113.6</ele>
        <time>2025-06-04T06:25:32.311Z</time>
      </trkpt>
      <trkpt lat="48.45366" lon="-2.0919">
        <ele>113.67</ele>
        <time>2025-06-04T06:25:32.237Z</time>
      </trkpt>
      <trkpt lat="48.45363" lon="-2.09184">
        <ele>113.729996</ele>
        <time>2025-06-04T06:25:30.871Z</time>
      </trkpt>
      <trkpt lat="48.4536" lon="-2.09177">
        <ele>113.79</ele>
        <time>2025-06-04T06:25:29.924Z</time>
      </trkpt>
      <trkpt lat="48.45357" lon="-2.09167">
        <ele>113.86</ele>
        <time>2025-06-04T06:25:28.924Z</time>
      </trkpt>
      <trkpt lat="48.45354" lon="-2.09154">
        <ele>113.94</ele>
        <time>2025-06-04T06:25:27.941Z</time>
      </trkpt>
      <trkpt lat="48.45354" lon="-2.0915">
        <ele>114.17</ele>
        <time>2025-06-04T06:25:27.288Z</time>
      </trkpt>
      <trkpt lat="48.45349" lon="-2.09135">
        <ele>114.31</ele>
        <time>2025-06-04T06:25:24.944Z</time>
      </trkpt>
      <trkpt lat="48.45348" lon="-2.0913">
        <ele>114.46</ele>
        <time>2025-06-04T06:25:23.852Z</time>
      </trkpt>
      <trkpt lat="48.45346" lon="-2.09125">
        <ele>114.61</ele>
        <time>2025-06-04T06:25:22.886Z</time>
      </trkpt>
      <trkpt lat="48.45344" lon="-2.09121">
        <ele>114.75</ele>
        <time>2025-06-04T06:25:21.856Z</time>
      </trkpt>
      <trkpt lat="48.45342" lon="-2.09117">
        <ele>114.89</ele>
        <time>2025-06-04T06:25:20.849Z</time>
      </trkpt>
      <trkpt lat="48.45341" lon="-2.09113">
        <ele>115.009995</ele>
        <time>2025-06-04T06:25:19.874Z</time>
      </trkpt>
      <trkpt lat="48.45339" lon="-2.09109">
        <ele>115.11</ele>
        <time>2025-06-04T06:25:18.916Z</time>
      </trkpt>
      <trkpt lat="48.45337" lon="-2.09106">
        <ele>115.21</ele>
        <time>2025-06-04T06:25:17.963Z</time>
      </trkpt>
      <trkpt lat="48.45337" lon="-2.09105">
        <ele>115.33</ele>
        <time>2025-06-04T06:25:16.924Z</time>
      </trkpt>
      <trkpt lat="48.45337" lon="-2.09102">
        <ele>115.44</ele>
        <time>2025-06-04T06:25:15.915Z</time>
      </trkpt>
      <trkpt lat="48.45337" lon="-2.09101">
        <ele>115.56</ele>
        <time>2025-06-04T06:25:14.931Z</time>
      </trkpt>
      <trkpt lat="48.45338" lon="-2.09095">
        <ele>115.75</ele>
        <time>2025-06-04T06:25:14.274Z</time>
      </trkpt>
      <trkpt lat="48.45341" lon="-2.09084">
        <ele>115.85</ele>
        <time>2025-06-04T06:25:11.913Z</time>
      </trkpt>
      <trkpt lat="48.45345" lon="-2.09079">
        <ele>116</ele>
        <time>2025-06-04T06:25:11.275Z</time>
      </trkpt>
      <trkpt lat="48.45348" lon="-2.09074">
        <ele>116.16</ele>
        <time>2025-06-04T06:25:09.296Z</time>
      </trkpt>
      <trkpt lat="48.45352" lon="-2.09069">
        <ele>116.33</ele>
        <time>2025-06-04T06:25:08.289Z</time>
      </trkpt>
      <trkpt lat="48.45355" lon="-2.09062">
        <ele>116.5</ele>
        <time>2025-06-04T06:25:07.875Z</time>
      </trkpt>
      <trkpt lat="48.45359" lon="-2.09055">
        <ele>116.68</ele>
        <time>2025-06-04T06:25:06.887Z</time>
      </trkpt>
      <trkpt lat="48.45362" lon="-2.09048">
        <ele>116.880005</ele>
        <time>2025-06-04T06:25:05.881Z</time>
      </trkpt>
      <trkpt lat="48.45365" lon="-2.09041">
        <ele>117.06</ele>
        <time>2025-06-04T06:25:04.969Z</time>
      </trkpt>
      <trkpt lat="48.45368" lon="-2.09034">
        <ele>117.22</ele>
        <time>2025-06-04T06:25:04.165Z</time>
      </trkpt>
      <trkpt lat="48.45371" lon="-2.09027">
        <ele>117.380005</ele>
        <time>2025-06-04T06:25:02.861Z</time>
      </trkpt>
      <trkpt lat="48.45374" lon="-2.09019">
        <ele>117.53</ele>
        <time>2025-06-04T06:25:01.964Z</time>
      </trkpt>
      <trkpt lat="48.45376" lon="-2.09012">
        <ele>117.86</ele>
        <time>2025-06-04T06:25:01.265Z</time>
      </trkpt>
      <trkpt lat="48.4538" lon="-2.08995">
        <ele>118.009995</ele>
        <time>2025-06-04T06:24:59.978Z</time>
      </trkpt>
      <trkpt lat="48.45381" lon="-2.08988">
        <ele>118.28</ele>
        <time>2025-06-04T06:24:58.260Z</time>
      </trkpt>
      <trkpt lat="48.4538" lon="-2.08972">
        <ele>118.34</ele>
        <time>2025-06-04T06:24:55.875Z</time>
      </trkpt>
      <trkpt lat="48.45379" lon="-2.08964">
        <ele>118.44</ele>
        <time>2025-06-04T06:24:55.253Z</time>
      </trkpt>
      <trkpt lat="48.45375" lon="-2.08948">
        <ele>118.479996</ele>
        <time>2025-06-04T06:24:53.278Z</time>
      </trkpt>
      <trkpt lat="48.45372" lon="-2.0894">
        <ele>118.46</ele>
        <time>2025-06-04T06:24:52.277Z</time>
      </trkpt>
      <trkpt lat="48.4537" lon="-2.08932">
        <ele>118.44</ele>
        <time>2025-06-04T06:24:51.266Z</time>
      </trkpt>
      <trkpt lat="48.45368" lon="-2.08926">
        <ele>118.41</ele>
        <time>2025-06-04T06:24:50.294Z</time>
      </trkpt>
      <trkpt lat="48.45366" lon="-2.08919">
        <ele>118.36</ele>
        <time>2025-06-04T06:24:49.288Z</time>
      </trkpt>
      <trkpt lat="48.45364" lon="-2.08912">
        <ele>118.31</ele>
        <time>2025-06-04T06:24:48.868Z</time>
      </trkpt>
      <trkpt lat="48.45362" lon="-2.08904">
        <ele>118.25</ele>
        <time>2025-06-04T06:24:47.292Z</time>
      </trkpt>
      <trkpt lat="48.45361" lon="-2.08897">
        <ele>118.2</ele>
        <time>2025-06-04T06:24:46.289Z</time>
      </trkpt>
      <trkpt lat="48.45359" lon="-2.0889">
        <ele>118.15</ele>
        <time>2025-06-04T06:24:45.267Z</time>
      </trkpt>
      <trkpt lat="48.45356" lon="-2.08882">
        <ele>118.09</ele>
        <time>2025-06-04T06:24:44.283Z</time>
      </trkpt>
      <trkpt lat="48.45354" lon="-2.08876">
        <ele>118.03</ele>
        <time>2025-06-04T06:24:43.286Z</time>
      </trkpt>
      <trkpt lat="48.45352" lon="-2.08868">
        <ele>117.96</ele>
        <time>2025-06-04T06:24:42.280Z</time>
      </trkpt>
      <trkpt lat="48.4535" lon="-2.08861">
        <ele>117.89</ele>
        <time>2025-06-04T06:24:41.281Z</time>
      </trkpt>
      <trkpt lat="48.45347" lon="-2.08855">
        <ele>117.85</ele>
        <time>2025-06-04T06:24:40.279Z</time>
      </trkpt>
      <trkpt lat="48.45345" lon="-2.08848">
        <ele>117.8</ele>
        <time>2025-06-04T06:24:39.268Z</time>
      </trkpt>
      <trkpt lat="48.45342" lon="-2.0884">
        <ele>117.759995</ele>
        <time>2025-06-04T06:24:38.284Z</time>
      </trkpt>
      <trkpt lat="48.4534" lon="-2.08834">
        <ele>117.729996</ele>
        <time>2025-06-04T06:24:37.262Z</time>
      </trkpt>
      <trkpt lat="48.45338" lon="-2.08827">
        <ele>117.69</ele>
        <time>2025-06-04T06:24:36.284Z</time>
      </trkpt>
      <trkpt lat="48.45336" lon="-2.0882">
        <ele>117.66</ele>
        <time>2025-06-04T06:24:35.285Z</time>
      </trkpt>
      <trkpt lat="48.45333" lon="-2.08814">
        <ele>117.61</ele>
        <time>2025-06-04T06:24:34.279Z</time>
      </trkpt>
      <trkpt lat="48.45331" lon="-2.08807">
        <ele>117.58</ele>
        <time>2025-06-04T06:24:34.078Z</time>
      </trkpt>
      <trkpt lat="48.45329" lon="-2.08801">
        <ele>117.53</ele>
        <time>2025-06-04T06:24:32.278Z</time>
      </trkpt>
      <trkpt lat="48.45327" lon="-2.08795">
        <ele>117.42</ele>
        <time>2025-06-04T06:24:31.129Z</time>
      </trkpt>
      <trkpt lat="48.45324" lon="-2.08784">
        <ele>117.36</ele>
        <time>2025-06-04T06:24:29.253Z</time>
      </trkpt>
      <trkpt lat="48.45324" lon="-2.08778">
        <ele>117.3</ele>
        <time>2025-06-04T06:24:28.253Z</time>
      </trkpt>
      <trkpt lat="48.45324" lon="-2.08773">
        <ele>117.240005</ele>
        <time>2025-06-04T06:24:27.264Z</time>
      </trkpt>
      <trkpt lat="48.45325" lon="-2.08769">
        <ele>117.18</ele>
        <time>2025-06-04T06:24:26.273Z</time>
      </trkpt>
      <trkpt lat="48.45327" lon="-2.08765">
        <ele>117.11</ele>
        <time>2025-06-04T06:24:25.268Z</time>
      </trkpt>
      <trkpt lat="48.4533" lon="-2.08762">
        <ele>117.04</ele>
        <time>2025-06-04T06:24:23.771Z</time>
      </trkpt>
      <trkpt lat="48.45337" lon="-2.08754">
        <ele>117.009995</ele>
        <time>2025-06-04T06:24:22.685Z</time>
      </trkpt>
      <trkpt lat="48.4534" lon="-2.08751">
        <ele>116.990005</ele>
        <time>2025-06-04T06:24:21.237Z</time>
      </trkpt>
      <trkpt lat="48.45343" lon="-2.08747">
        <ele>116.990005</ele>
        <time>2025-06-04T06:24:21.080Z</time>
      </trkpt>
      <trkpt lat="48.45345" lon="-2.08743">
        <ele>117</ele>
        <time>2025-06-04T06:24:19.262Z</time>
      </trkpt>
      <trkpt lat="48.45348" lon="-2.08739">
        <ele>117</ele>
        <time>2025-06-04T06:24:18.243Z</time>
      </trkpt>
      <trkpt lat="48.4535" lon="-2.08734">
        <ele>117.009995</ele>
        <time>2025-06-04T06:24:17.258Z</time>
      </trkpt>
      <trkpt lat="48.45352" lon="-2.08729">
        <ele>117.020004</ele>
        <time>2025-06-04T06:24:16.246Z</time>
      </trkpt>
      <trkpt lat="48.45353" lon="-2.08723">
        <ele>117.03</ele>
        <time>2025-06-04T06:24:15.254Z</time>
      </trkpt>
      <trkpt lat="48.45354" lon="-2.08718">
        <ele>117.03</ele>
        <time>2025-06-04T06:24:15.126Z</time>
      </trkpt>
      <trkpt lat="48.45354" lon="-2.08712">
        <ele>117.020004</ele>
        <time>2025-06-04T06:24:13.255Z</time>
      </trkpt>
      <trkpt lat="48.45353" lon="-2.08706">
        <ele>117.009995</ele>
        <time>2025-06-04T06:24:12.251Z</time>
      </trkpt>
      <trkpt lat="48.45353" lon="-2.08701">
        <ele>116.990005</ele>
        <time>2025-06-04T06:24:11.252Z</time>
      </trkpt>
      <trkpt lat="48.45353" lon="-2.08696">
        <ele>116.96</ele>
        <time>2025-06-04T06:24:11.188Z</time>
      </trkpt>
      <trkpt lat="48.45353" lon="-2.08691">
        <ele>116.92</ele>
        <time>2025-06-04T06:24:09.791Z</time>
      </trkpt>
      <trkpt lat="48.45353" lon="-2.08685">
        <ele>116.89</ele>
        <time>2025-06-04T06:24:08.831Z</time>
      </trkpt>
      <trkpt lat="48.45354" lon="-2.0868">
        <ele>116.85</ele>
        <time>2025-06-04T06:24:07.258Z</time>
      </trkpt>
      <trkpt lat="48.45354" lon="-2.08674">
        <ele>116.81</ele>
        <time>2025-06-04T06:24:06.188Z</time>
      </trkpt>
      <trkpt lat="48.45354" lon="-2.08669">
        <ele>116.78</ele>
        <time>2025-06-04T06:24:06.182Z</time>
      </trkpt>
      <trkpt lat="48.45354" lon="-2.08664">
        <ele>116.7</ele>
        <time>2025-06-04T06:24:04.129Z</time>
      </trkpt>
      <trkpt lat="48.45354" lon="-2.08654">
        <ele>116.66</ele>
        <time>2025-06-04T06:24:02.244Z</time>
      </trkpt>
      <trkpt lat="48.45354" lon="-2.08649">
        <ele>116.630005</ele>
        <time>2025-06-04T06:24:02.171Z</time>
      </trkpt>
      <trkpt lat="48.45353" lon="-2.08644">
        <ele>116.59</ele>
        <time>2025-06-04T06:24:00.682Z</time>
      </trkpt>
      <trkpt lat="48.45353" lon="-2.0864">
        <ele>116.56</ele>
        <time>2025-06-04T06:23:59.274Z</time>
      </trkpt>
      <trkpt lat="48.45353" lon="-2.08636">
        <ele>116.520004</ele>
        <time>2025-06-04T06:23:58.272Z</time>
      </trkpt>
      <trkpt lat="48.45353" lon="-2.08631">
        <ele>116.5</ele>
        <time>2025-06-04T06:23:58.038Z</time>
      </trkpt>
      <trkpt lat="48.45352" lon="-2.08628">
        <ele>116.47</ele>
        <time>2025-06-04T06:23:56.901Z</time>
      </trkpt>
      <trkpt lat="48.45351" lon="-2.08625">
        <ele>116.44</ele>
        <time>2025-06-04T06:23:55.405Z</time>
      </trkpt>
      <trkpt lat="48.4535" lon="-2.08621">
        <ele>116.41</ele>
        <time>2025-06-04T06:23:54.619Z</time>
      </trkpt>
      <trkpt lat="48.45349" lon="-2.08618">
        <ele>116.39</ele>
        <time>2025-06-04T06:23:53.260Z</time>
      </trkpt>
      <trkpt lat="48.45346" lon="-2.08615">
        <ele>116.369995</ele>
        <time>2025-06-04T06:23:52.886Z</time>
      </trkpt>
      <trkpt lat="48.45346" lon="-2.08609">
        <ele>116.36</ele>
        <time>2025-06-04T06:23:51.278Z</time>
      </trkpt>
      <trkpt lat="48.45348" lon="-2.08604">
        <ele>116.34</ele>
        <time>2025-06-04T06:23:50.273Z</time>
      </trkpt>
      <trkpt lat="48.45351" lon="-2.08599">
        <ele>116.33</ele>
        <time>2025-06-04T06:23:49.173Z</time>
      </trkpt>
      <trkpt lat="48.45354" lon="-2.08596">
        <ele>116.31</ele>
        <time>2025-06-04T06:23:48.939Z</time>
      </trkpt>
      <trkpt lat="48.45357" lon="-2.08593">
        <ele>116.29</ele>
        <time>2025-06-04T06:23:47.964Z</time>
      </trkpt>
      <trkpt lat="48.45361" lon="-2.0859">
        <ele>116.270004</ele>
        <time>2025-06-04T06:23:46.276Z</time>
      </trkpt>
      <trkpt lat="48.45365" lon="-2.08587">
        <ele>116.240005</ele>
        <time>2025-06-04T06:23:45.279Z</time>
      </trkpt>
      <trkpt lat="48.45369" lon="-2.08584">
        <ele>116.22</ele>
        <time>2025-06-04T06:23:44.276Z</time>
      </trkpt>
      <trkpt lat="48.45373" lon="-2.08581">
        <ele>116.21</ele>
        <time>2025-06-04T06:23:43.889Z</time>
      </trkpt>
      <trkpt lat="48.45378" lon="-2.08578">
        <ele>116.19</ele>
        <time>2025-06-04T06:23:42.256Z</time>
      </trkpt>
      <trkpt lat="48.45382" lon="-2.08576">
        <ele>116.19</ele>
        <time>2025-06-04T06:23:41.275Z</time>
      </trkpt>
      <trkpt lat="48.45387" lon="-2.08573">
        <ele>116.2</ele>
        <time>2025-06-04T06:23:40.276Z</time>
      </trkpt>
      <trkpt lat="48.45391" lon="-2.0857">
        <ele>116.21</ele>
        <time>2025-06-04T06:23:39.271Z</time>
      </trkpt>
      <trkpt lat="48.45395" lon="-2.08566">
        <ele>116.22</ele>
        <time>2025-06-04T06:23:38.276Z</time>
      </trkpt>
      <trkpt lat="48.45398" lon="-2.08563">
        <ele>116.22</ele>
        <time>2025-06-04T06:23:37.248Z</time>
      </trkpt>
      <trkpt lat="48.45402" lon="-2.0856">
        <ele>116.22</ele>
        <time>2025-06-04T06:23:36.255Z</time>
      </trkpt>
      <trkpt lat="48.45406" lon="-2.08557">
        <ele>116.21</ele>
        <time>2025-06-04T06:23:35.800Z</time>
      </trkpt>
      <trkpt lat="48.4541" lon="-2.08554">
        <ele>116.19</ele>
        <time>2025-06-04T06:23:34.272Z</time>
      </trkpt>
      <trkpt lat="48.45414" lon="-2.0855">
        <ele>116.15</ele>
        <time>2025-06-04T06:23:33.156Z</time>
      </trkpt>
      <trkpt lat="48.45417" lon="-2.08547">
        <ele>116.1</ele>
        <time>2025-06-04T06:23:33.023Z</time>
      </trkpt>
      <trkpt lat="48.45421" lon="-2.08544">
        <ele>116.020004</ele>
        <time>2025-06-04T06:23:31.262Z</time>
      </trkpt>
      <trkpt lat="48.45424" lon="-2.08541">
        <ele>115.9</ele>
        <time>2025-06-04T06:23:30.854Z</time>
      </trkpt>
      <trkpt lat="48.45427" lon="-2.08537">
        <ele>115.75</ele>
        <time>2025-06-04T06:23:29.750Z</time>
      </trkpt>
      <trkpt lat="48.4543" lon="-2.08534">
        <ele>115.57</ele>
        <time>2025-06-04T06:23:29.042Z</time>
      </trkpt>
      <trkpt lat="48.45433" lon="-2.08531">
        <ele>115.39</ele>
        <time>2025-06-04T06:23:27.650Z</time>
      </trkpt>
      <trkpt lat="48.45437" lon="-2.08527">
        <ele>115.17</ele>
        <time>2025-06-04T06:23:26.814Z</time>
      </trkpt>
      <trkpt lat="48.45442" lon="-2.08523">
        <ele>114.83</ele>
        <time>2025-06-04T06:23:24.708Z</time>
      </trkpt>
      <trkpt lat="48.45451" lon="-2.08515">
        <ele>114.64</ele>
        <time>2025-06-04T06:23:23.643Z</time>
      </trkpt>
      <trkpt lat="48.45455" lon="-2.08511">
        <ele>114.47</ele>
        <time>2025-06-04T06:23:22.169Z</time>
      </trkpt>
      <trkpt lat="48.45458" lon="-2.08507">
        <ele>114.31</ele>
        <time>2025-06-04T06:23:21.236Z</time>
      </trkpt>
      <trkpt lat="48.45462" lon="-2.08503">
        <ele>114.14</ele>
        <time>2025-06-04T06:23:21.010Z</time>
      </trkpt>
      <trkpt lat="48.45464" lon="-2.08501">
        <ele>113.94</ele>
        <time>2025-06-04T06:23:19.186Z</time>
      </trkpt>
      <trkpt lat="48.45469" lon="-2.08495">
        <ele>113.6</ele>
        <time>2025-06-04T06:23:18.155Z</time>
      </trkpt>
      <trkpt lat="48.45477" lon="-2.08485">
        <ele>113.43</ele>
        <time>2025-06-04T06:23:16.624Z</time>
      </trkpt>
      <trkpt lat="48.4548" lon="-2.08481">
        <ele>113.270004</ele>
        <time>2025-06-04T06:23:15.138Z</time>
      </trkpt>
      <trkpt lat="48.45482" lon="-2.08478">
        <ele>113.09</ele>
        <time>2025-06-04T06:23:15.106Z</time>
      </trkpt>
      <trkpt lat="48.45486" lon="-2.08475">
        <ele>112.9</ele>
        <time>2025-06-04T06:23:13.145Z</time>
      </trkpt>
      <trkpt lat="48.45491" lon="-2.0847">
        <ele>112.71</ele>
        <time>2025-06-04T06:23:13.090Z</time>
      </trkpt>
      <trkpt lat="48.45495" lon="-2.08466">
        <ele>112.5</ele>
        <time>2025-06-04T06:23:11.888Z</time>
      </trkpt>
      <trkpt lat="48.45499" lon="-2.08463">
        <ele>112.31</ele>
        <time>2025-06-04T06:23:10.697Z</time>
      </trkpt>
      <trkpt lat="48.45503" lon="-2.0846">
        <ele>112.09</ele>
        <time>2025-06-04T06:23:09.123Z</time>
      </trkpt>
      <trkpt lat="48.45507" lon="-2.08458">
        <ele>111.87</ele>
        <time>2025-06-04T06:23:09.065Z</time>
      </trkpt>
      <trkpt lat="48.45511" lon="-2.08454">
        <ele>111.63</ele>
        <time>2025-06-04T06:23:07.265Z</time>
      </trkpt>
      <trkpt lat="48.45515" lon="-2.08451">
        <ele>111.36</ele>
        <time>2025-06-04T06:23:06.925Z</time>
      </trkpt>
      <trkpt lat="48.45519" lon="-2.08448">
        <ele>111.11</ele>
        <time>2025-06-04T06:23:06.038Z</time>
      </trkpt>
      <trkpt lat="48.45523" lon="-2.08445">
        <ele>110.85</ele>
        <time>2025-06-04T06:23:04.953Z</time>
      </trkpt>
      <trkpt lat="48.45527" lon="-2.08442">
        <ele>110.63</ele>
        <time>2025-06-04T06:23:03.137Z</time>
      </trkpt>
      <trkpt lat="48.45531" lon="-2.08439">
        <ele>110.4</ele>
        <time>2025-06-04T06:23:03.096Z</time>
      </trkpt>
      <trkpt lat="48.45535" lon="-2.08436">
        <ele>110.15</ele>
        <time>2025-06-04T06:23:01.841Z</time>
      </trkpt>
      <trkpt lat="48.45539" lon="-2.08433">
        <ele>109.9</ele>
        <time>2025-06-04T06:23:00.275Z</time>
      </trkpt>
      <trkpt lat="48.45544" lon="-2.08429">
        <ele>109.72</ele>
        <time>2025-06-04T06:23:00.084Z</time>
      </trkpt>
      <trkpt lat="48.45547" lon="-2.08426">
        <ele>109.51</ele>
        <time>2025-06-04T06:22:58.274Z</time>
      </trkpt>
      <trkpt lat="48.45551" lon="-2.08423">
        <ele>109.32</ele>
        <time>2025-06-04T06:22:57.114Z</time>
      </trkpt>
      <trkpt lat="48.45555" lon="-2.0842">
        <ele>109.13</ele>
        <time>2025-06-04T06:22:56.283Z</time>
      </trkpt>
      <trkpt lat="48.45559" lon="-2.08417">
        <ele>108.979996</ele>
        <time>2025-06-04T06:22:55.785Z</time>
      </trkpt>
      <trkpt lat="48.45563" lon="-2.08413">
        <ele>108.82</ele>
        <time>2025-06-04T06:22:55.035Z</time>
      </trkpt>
      <trkpt lat="48.45567" lon="-2.08409">
        <ele>108.65</ele>
        <time>2025-06-04T06:22:53.915Z</time>
      </trkpt>
      <trkpt lat="48.45572" lon="-2.08406">
        <ele>108.54</ele>
        <time>2025-06-04T06:22:52.128Z</time>
      </trkpt>
      <trkpt lat="48.45574" lon="-2.08404">
        <ele>108.43</ele>
        <time>2025-06-04T06:22:51.791Z</time>
      </trkpt>
      <trkpt lat="48.4558" lon="-2.08401">
        <ele>108.33</ele>
        <time>2025-06-04T06:22:50.151Z</time>
      </trkpt>
      <trkpt lat="48.45583" lon="-2.08399">
        <ele>108.26</ele>
        <time>2025-06-04T06:22:50.071Z</time>
      </trkpt>
      <trkpt lat="48.45588" lon="-2.08397">
        <ele>108.19</ele>
        <time>2025-06-04T06:22:48.132Z</time>
      </trkpt>
      <trkpt lat="48.45591" lon="-2.08396">
        <ele>108.14</ele>
        <time>2025-06-04T06:22:48.031Z</time>
      </trkpt>
      <trkpt lat="48.45595" lon="-2.08395">
        <ele>108.09</ele>
        <time>2025-06-04T06:22:46.276Z</time>
      </trkpt>
      <trkpt lat="48.45599" lon="-2.08394">
        <ele>108.05</ele>
        <time>2025-06-04T06:22:45.263Z</time>
      </trkpt>
      <trkpt lat="48.45602" lon="-2.08394">
        <ele>107.99</ele>
        <time>2025-06-04T06:22:45.025Z</time>
      </trkpt>
      <trkpt lat="48.45606" lon="-2.08392">
        <ele>107.93</ele>
        <time>2025-06-04T06:22:43.602Z</time>
      </trkpt>
      <trkpt lat="48.4561" lon="-2.08391">
        <ele>107.87</ele>
        <time>2025-06-04T06:22:42.622Z</time>
      </trkpt>
      <trkpt lat="48.45614" lon="-2.0839">
        <ele>107.79</ele>
        <time>2025-06-04T06:22:41.995Z</time>
      </trkpt>
      <trkpt lat="48.45618" lon="-2.08389">
        <ele>107.7</ele>
        <time>2025-06-04T06:22:40.976Z</time>
      </trkpt>
      <trkpt lat="48.45623" lon="-2.08387">
        <ele>107.59</ele>
        <time>2025-06-04T06:22:39.282Z</time>
      </trkpt>
      <trkpt lat="48.45627" lon="-2.08386">
        <ele>107.51</ele>
        <time>2025-06-04T06:22:39.069Z</time>
      </trkpt>
      <trkpt lat="48.45631" lon="-2.08385">
        <ele>107.41</ele>
        <time>2025-06-04T06:22:38.054Z</time>
      </trkpt>
      <trkpt lat="48.45636" lon="-2.08384">
        <ele>107.3</ele>
        <time>2025-06-04T06:22:36.957Z</time>
      </trkpt>
      <trkpt lat="48.4564" lon="-2.08383">
        <ele>107.21</ele>
        <time>2025-06-04T06:22:36.026Z</time>
      </trkpt>
      <trkpt lat="48.45644" lon="-2.08381">
        <ele>107.12</ele>
        <time>2025-06-04T06:22:34.818Z</time>
      </trkpt>
      <trkpt lat="48.45648" lon="-2.0838">
        <ele>107.020004</ele>
        <time>2025-06-04T06:22:34.040Z</time>
      </trkpt>
      <trkpt lat="48.45652" lon="-2.08378">
        <ele>106.93</ele>
        <time>2025-06-04T06:22:32.543Z</time>
      </trkpt>
      <trkpt lat="48.45655" lon="-2.08376">
        <ele>106.85</ele>
        <time>2025-06-04T06:22:31.523Z</time>
      </trkpt>
      <trkpt lat="48.4566" lon="-2.08375">
        <ele>106.78</ele>
        <time>2025-06-04T06:22:30.509Z</time>
      </trkpt>
      <trkpt lat="48.45665" lon="-2.08373">
        <ele>106.72</ele>
        <time>2025-06-04T06:22:29.538Z</time>
      </trkpt>
      <trkpt lat="48.45669" lon="-2.08372">
        <ele>106.68</ele>
        <time>2025-06-04T06:22:28.819Z</time>
      </trkpt>
      <trkpt lat="48.45674" lon="-2.08371">
        <ele>106.66</ele>
        <time>2025-06-04T06:22:27.895Z</time>
      </trkpt>
      <trkpt lat="48.45678" lon="-2.0837">
        <ele>106.65</ele>
        <time>2025-06-04T06:22:26.281Z</time>
      </trkpt>
      <trkpt lat="48.45683" lon="-2.0837">
        <ele>106.64</ele>
        <time>2025-06-04T06:22:25.276Z</time>
      </trkpt>
      <trkpt lat="48.45686" lon="-2.08369">
        <ele>106.66</ele>
        <time>2025-06-04T06:22:25.032Z</time>
      </trkpt>
      <trkpt lat="48.4569" lon="-2.08369">
        <ele>106.68</ele>
        <time>2025-06-04T06:22:23.214Z</time>
      </trkpt>
      <trkpt lat="48.45694" lon="-2.08369">
        <ele>106.729996</ele>
        <time>2025-06-04T06:22:22.279Z</time>
      </trkpt>
      <trkpt lat="48.45699" lon="-2.08368">
        <ele>106.78</ele>
        <time>2025-06-04T06:22:21.283Z</time>
      </trkpt>
      <trkpt lat="48.45702" lon="-2.08368">
        <ele>106.84</ele>
        <time>2025-06-04T06:22:21.026Z</time>
      </trkpt>
      <trkpt lat="48.45707" lon="-2.08368">
        <ele>106.89</ele>
        <time>2025-06-04T06:22:20.010Z</time>
      </trkpt>
      <trkpt lat="48.45711" lon="-2.08368">
        <ele>106.95</ele>
        <time>2025-06-04T06:22:18.200Z</time>
      </trkpt>
      <trkpt lat="48.45716" lon="-2.08367">
        <ele>107</ele>
        <time>2025-06-04T06:22:17.201Z</time>
      </trkpt>
      <trkpt lat="48.4572" lon="-2.08366">
        <ele>107.020004</ele>
        <time>2025-06-04T06:22:16.256Z</time>
      </trkpt>
      <trkpt lat="48.45724" lon="-2.08366">
        <ele>107.05</ele>
        <time>2025-06-04T06:22:16.031Z</time>
      </trkpt>
      <trkpt lat="48.45728" lon="-2.08365">
        <ele>107.06</ele>
        <time>2025-06-04T06:22:14.545Z</time>
      </trkpt>
      <trkpt lat="48.45733" lon="-2.08364">
        <ele>107.06</ele>
        <time>2025-06-04T06:22:13.265Z</time>
      </trkpt>
      <trkpt lat="48.45737" lon="-2.08364">
        <ele>107.04</ele>
        <time>2025-06-04T06:22:12.996Z</time>
      </trkpt>
      <trkpt lat="48.45741" lon="-2.08363">
        <ele>107.020004</ele>
        <time>2025-06-04T06:22:11.519Z</time>
      </trkpt>
      <trkpt lat="48.45745" lon="-2.08362">
        <ele>106.99</ele>
        <time>2025-06-04T06:22:10.274Z</time>
      </trkpt>
      <trkpt lat="48.45749" lon="-2.08361">
        <ele>106.95</ele>
        <time>2025-06-04T06:22:10.001Z</time>
      </trkpt>
      <trkpt lat="48.45752" lon="-2.0836">
        <ele>106.88</ele>
        <time>2025-06-04T06:22:08.253Z</time>
      </trkpt>
      <trkpt lat="48.45757" lon="-2.08359">
        <ele>106.8</ele>
        <time>2025-06-04T06:22:07.283Z</time>
      </trkpt>
      <trkpt lat="48.45762" lon="-2.08358">
        <ele>106.729996</ele>
        <time>2025-06-04T06:22:06.115Z</time>
      </trkpt>
      <trkpt lat="48.45765" lon="-2.08357">
        <ele>106.62</ele>
        <time>2025-06-04T06:22:05.279Z</time>
      </trkpt>
      <trkpt lat="48.45769" lon="-2.08355">
        <ele>106.51</ele>
        <time>2025-06-04T06:22:04.732Z</time>
      </trkpt>
      <trkpt lat="48.45774" lon="-2.08353">
        <ele>106.39</ele>
        <time>2025-06-04T06:22:03.144Z</time>
      </trkpt>
      <trkpt lat="48.45777" lon="-2.08352">
        <ele>106.26</ele>
        <time>2025-06-04T06:22:03.009Z</time>
      </trkpt>
      <trkpt lat="48.45781" lon="-2.0835">
        <ele>106.1</ele>
        <time>2025-06-04T06:22:01.654Z</time>
      </trkpt>
      <trkpt lat="48.45786" lon="-2.08348">
        <ele>105.93</ele>
        <time>2025-06-04T06:22:00.520Z</time>
      </trkpt>
      <trkpt lat="48.45789" lon="-2.08347">
        <ele>105.78</ele>
        <time>2025-06-04T06:21:59.599Z</time>
      </trkpt>
      <trkpt lat="48.45794" lon="-2.08345">
        <ele>105.66</ele>
        <time>2025-06-04T06:21:58.561Z</time>
      </trkpt>
      <trkpt lat="48.45797" lon="-2.08344">
        <ele>105.53</ele>
        <time>2025-06-04T06:21:57.639Z</time>
      </trkpt>
      <trkpt lat="48.45801" lon="-2.08342">
        <ele>105.4</ele>
        <time>2025-06-04T06:21:56.609Z</time>
      </trkpt>
      <trkpt lat="48.45804" lon="-2.08341">
        <ele>105.32</ele>
        <time>2025-06-04T06:21:55.272Z</time>
      </trkpt>
      <trkpt lat="48.45808" lon="-2.08339">
        <ele>105.24</ele>
        <time>2025-06-04T06:21:54.997Z</time>
      </trkpt>
      <trkpt lat="48.45811" lon="-2.08337">
        <ele>105.15</ele>
        <time>2025-06-04T06:21:53.691Z</time>
      </trkpt>
      <trkpt lat="48.45815" lon="-2.08335">
        <ele>105.08</ele>
        <time>2025-06-04T06:21:52.934Z</time>
      </trkpt>
      <trkpt lat="48.45818" lon="-2.08334">
        <ele>105.01</ele>
        <time>2025-06-04T06:21:51.693Z</time>
      </trkpt>
      <trkpt lat="48.45821" lon="-2.08332">
        <ele>104.96</ele>
        <time>2025-06-04T06:21:50.791Z</time>
      </trkpt>
      <trkpt lat="48.45825" lon="-2.08331">
        <ele>104.91</ele>
        <time>2025-06-04T06:21:49.753Z</time>
      </trkpt>
      <trkpt lat="48.4583" lon="-2.08329">
        <ele>104.88</ele>
        <time>2025-06-04T06:21:49Z</time>
      </trkpt>
      <trkpt lat="48.45834" lon="-2.08327">
        <ele>104.86</ele>
        <time>2025-06-04T06:21:47.757Z</time>
      </trkpt>
      <trkpt lat="48.45835" lon="-2.08327">
        <ele>104.83</ele>
        <time>2025-06-04T06:21:46.221Z</time>
      </trkpt>
      <trkpt lat="48.45838" lon="-2.08325">
        <ele>104.81</ele>
        <time>2025-06-04T06:21:45.264Z</time>
      </trkpt>
      <trkpt lat="48.4584" lon="-2.08323">
        <ele>104.8</ele>
        <time>2025-06-04T06:21:44.719Z</time>
      </trkpt>
      <trkpt lat="48.45842" lon="-2.08322">
        <ele>101.6</ele>
        <time>2025-06-04T06:21:43.859Z</time>
      </trkpt>
      <trkpt lat="48.45842" lon="-2.08322">
        <ele>101.6</ele>
        <time>2025-06-04T06:21:43.859Z</time>
      </trkpt>
      <trkpt lat="48.45888" lon="-2.08307">
        <ele>97.1</ele>
      </trkpt>
      <trkpt lat="48.45868" lon="-2.08286">
        <ele>100</ele>
      </trkpt>
      <trkpt lat="48.45586" lon="-2.08001">
        <ele>113</ele>
      </trkpt>
      <trkpt lat="48.45207" lon="-2.07734">
        <ele>125</ele>
      </trkpt>
      <trkpt lat="48.4516" lon="-2.0805">
        <ele>125</ele>
      </trkpt>
      <trkpt lat="48.45148" lon="-2.08172">
        <ele>125.7</ele>
      </trkpt>
      <trkpt lat="48.45151" lon="-2.0823">
        <ele>125.6</ele>
      </trkpt>
      <trkpt lat="48.45095" lon="-2.08395">
        <ele>124.9</ele>
      </trkpt>
      <trkpt lat="48.45069" lon="-2.08393">
        <ele>125.5</ele>
      </trkpt>
      <trkpt lat="48.45013" lon="-2.08392">
        <ele>126</ele>
      </trkpt>
      <trkpt lat="48.44954" lon="-2.08408">
        <ele>126.2</ele>
      </trkpt>
      <trkpt lat="48.44886" lon="-2.08406">
        <ele>125.68</ele>
        <time>2025-06-04T08:41:49.195Z</time>
      </trkpt>
      <trkpt lat="48.44884" lon="-2.08401">
        <ele>125.8</ele>
        <time>2025-06-04T08:41:47.270Z</time>
      </trkpt>
      <trkpt lat="48.44883" lon="-2.08399">
        <ele>125.8</ele>
        <time>2025-06-04T08:39:27.502Z</time>
      </trkpt>
      <trkpt lat="48.44884" lon="-2.08397">
        <ele>125.8</ele>
        <time>2025-06-04T08:39:26.208Z</time>
      </trkpt>
      <trkpt lat="48.44886" lon="-2.08396">
        <ele>125.8</ele>
        <time>2025-06-04T08:39:23.918Z</time>
      </trkpt>
      <trkpt lat="48.44888" lon="-2.08396">
        <ele>125.84</ele>
        <time>2025-06-04T08:39:22.263Z</time>
      </trkpt>
      <trkpt lat="48.44889" lon="-2.08393">
        <ele>125.880005</ele>
        <time>2025-06-04T08:39:17.976Z</time>
      </trkpt>
      <trkpt lat="48.44888" lon="-2.08393">
        <ele>126.07</ele>
        <time>2025-06-04T08:39:16.271Z</time>
      </trkpt>
      <trkpt lat="48.44889" lon="-2.08389">
        <ele>126.15</ele>
        <time>2025-06-04T08:39:01.525Z</time>
      </trkpt>
      <trkpt lat="48.4489" lon="-2.08385">
        <ele>126.17</ele>
        <time>2025-06-04T08:39:00.322Z</time>
      </trkpt>
      <trkpt lat="48.44889" lon="-2.08381">
        <ele>126.21</ele>
        <time>2025-06-04T08:38:59.725Z</time>
      </trkpt>
      <trkpt lat="48.44887" lon="-2.08377">
        <ele>126.22</ele>
        <time>2025-06-04T08:38:58.292Z</time>
      </trkpt>
      <trkpt lat="48.44884" lon="-2.08372">
        <ele>126.240005</ele>
        <time>2025-06-04T08:38:57.756Z</time>
      </trkpt>
      <trkpt lat="48.44881" lon="-2.08368">
        <ele>126.25</ele>
        <time>2025-06-04T08:38:55.799Z</time>
      </trkpt>
      <trkpt lat="48.44879" lon="-2.08363">
        <ele>126.259995</ele>
        <time>2025-06-04T08:38:55.322Z</time>
      </trkpt>
      <trkpt lat="48.44876" lon="-2.0836">
        <ele>126.270004</ele>
        <time>2025-06-04T08:38:53.892Z</time>
      </trkpt>
      <trkpt lat="48.44873" lon="-2.08355">
        <ele>126.28</ele>
        <time>2025-06-04T08:38:53.424Z</time>
      </trkpt>
      <trkpt lat="48.44872" lon="-2.08356">
        <ele>126.29</ele>
        <time>2025-06-04T08:38:52.448Z</time>
      </trkpt>
      <trkpt lat="48.44869" lon="-2.08355">
        <ele>126.3</ele>
        <time>2025-06-04T08:38:51.668Z</time>
      </trkpt>
      <trkpt lat="48.44867" lon="-2.08355">
        <ele>126.3</ele>
        <time>2025-06-04T08:38:50.742Z</time>
      </trkpt>
      <trkpt lat="48.44864" lon="-2.08357">
        <ele>126.3</ele>
        <time>2025-06-04T08:38:48.786Z</time>
      </trkpt>
      <trkpt lat="48.44862" lon="-2.08359">
        <ele>126.3</ele>
        <time>2025-06-04T08:38:48.325Z</time>
      </trkpt>
      <trkpt lat="48.4486" lon="-2.08363">
        <ele>126.3</ele>
        <time>2025-06-04T08:38:47.414Z</time>
      </trkpt>
      <trkpt lat="48.44859" lon="-2.08367">
        <ele>126.3</ele>
        <time>2025-06-04T08:38:46.403Z</time>
      </trkpt>
      <trkpt lat="48.44857" lon="-2.08373">
        <ele>126.3</ele>
        <time>2025-06-04T08:38:45.386Z</time>
      </trkpt>
      <trkpt lat="48.44855" lon="-2.08378">
        <ele>126.31</ele>
        <time>2025-06-04T08:38:44.416Z</time>
      </trkpt>
      <trkpt lat="48.44852" lon="-2.08385">
        <ele>126.32</ele>
        <time>2025-06-04T08:38:43.710Z</time>
      </trkpt>
      <trkpt lat="48.4485" lon="-2.08391">
        <ele>126.35</ele>
        <time>2025-06-04T08:38:42.388Z</time>
      </trkpt>
      <trkpt lat="48.44847" lon="-2.08398">
        <ele>126.380005</ele>
        <time>2025-06-04T08:38:40.765Z</time>
      </trkpt>
      <trkpt lat="48.44845" lon="-2.08404">
        <ele>126.43</ele>
        <time>2025-06-04T08:38:40.728Z</time>
      </trkpt>
      <trkpt lat="48.44842" lon="-2.08411">
        <ele>126.490005</ele>
        <time>2025-06-04T08:38:39.323Z</time>
      </trkpt>
      <trkpt lat="48.44839" lon="-2.08416">
        <ele>126.54</ele>
        <time>2025-06-04T08:38:38.396Z</time>
      </trkpt>
      <trkpt lat="48.44835" lon="-2.08419">
        <ele>126.59</ele>
        <time>2025-06-04T08:38:37.726Z</time>
      </trkpt>
      <trkpt lat="48.4483" lon="-2.08421">
        <ele>126.630005</ele>
        <time>2025-06-04T08:38:36.701Z</time>
      </trkpt>
      <trkpt lat="48.44826" lon="-2.08423">
        <ele>126.66</ele>
        <time>2025-06-04T08:38:34.865Z</time>
      </trkpt>
      <trkpt lat="48.44822" lon="-2.08424">
        <ele>126.67</ele>
        <time>2025-06-04T08:38:34.347Z</time>
      </trkpt>
      <trkpt lat="48.44817" lon="-2.08424">
        <ele>126.69</ele>
        <time>2025-06-04T08:38:33.409Z</time>
      </trkpt>
      <trkpt lat="48.44814" lon="-2.08421">
        <ele>126.69</ele>
        <time>2025-06-04T08:38:32.396Z</time>
      </trkpt>
      <trkpt lat="48.4481" lon="-2.08417">
        <ele>126.69</ele>
        <time>2025-06-04T08:38:31.289Z</time>
      </trkpt>
      <trkpt lat="48.44806" lon="-2.08413">
        <ele>126.69</ele>
        <time>2025-06-04T08:38:29.743Z</time>
      </trkpt>
      <trkpt lat="48.44802" lon="-2.08408">
        <ele>126.71</ele>
        <time>2025-06-04T08:38:28.886Z</time>
      </trkpt>
      <trkpt lat="48.44798" lon="-2.08404">
        <ele>126.729996</ele>
        <time>2025-06-04T08:38:28.369Z</time>
      </trkpt>
      <trkpt lat="48.44794" lon="-2.08399">
        <ele>126.759995</ele>
        <time>2025-06-04T08:38:27.683Z</time>
      </trkpt>
      <trkpt lat="48.4479" lon="-2.08395">
        <ele>126.8</ele>
        <time>2025-06-04T08:38:26.159Z</time>
      </trkpt>
      <trkpt lat="48.44786" lon="-2.0839">
        <ele>126.83</ele>
        <time>2025-06-04T08:38:25.479Z</time>
      </trkpt>
      <trkpt lat="48.44783" lon="-2.08386">
        <ele>126.880005</ele>
        <time>2025-06-04T08:38:24.708Z</time>
      </trkpt>
      <trkpt lat="48.44778" lon="-2.08382">
        <ele>126.92</ele>
        <time>2025-06-04T08:38:23.399Z</time>
      </trkpt>
      <trkpt lat="48.44774" lon="-2.08378">
        <ele>126.97</ele>
        <time>2025-06-04T08:38:22.660Z</time>
      </trkpt>
      <trkpt lat="48.44769" lon="-2.08373">
        <ele>127.009995</ele>
        <time>2025-06-04T08:38:20.762Z</time>
      </trkpt>
      <trkpt lat="48.44764" lon="-2.08368">
        <ele>127.04</ele>
        <time>2025-06-04T08:38:19.749Z</time>
      </trkpt>
      <trkpt lat="48.44759" lon="-2.0836">
        <ele>127.07</ele>
        <time>2025-06-04T08:38:18.802Z</time>
      </trkpt>
      <trkpt lat="48.44756" lon="-2.08355">
        <ele>127.09</ele>
        <time>2025-06-04T08:38:17.736Z</time>
      </trkpt>
      <trkpt lat="48.44757" lon="-2.08349">
        <ele>127.11</ele>
        <time>2025-06-04T08:38:16.769Z</time>
      </trkpt>
      <trkpt lat="48.44757" lon="-2.08345">
        <ele>127.14</ele>
        <time>2025-06-04T08:38:15.778Z</time>
      </trkpt>
      <trkpt lat="48.44759" lon="-2.08339">
        <ele>127.18</ele>
        <time>2025-06-04T08:38:14.734Z</time>
      </trkpt>
      <trkpt lat="48.44759" lon="-2.08334">
        <ele>127.229996</ele>
        <time>2025-06-04T08:38:13.753Z</time>
      </trkpt>
      <trkpt lat="48.44758" lon="-2.0833">
        <ele>127.29</ele>
        <time>2025-06-04T08:38:12.723Z</time>
      </trkpt>
      <trkpt lat="48.44757" lon="-2.08326">
        <ele>127.34</ele>
        <time>2025-06-04T08:38:12.690Z</time>
      </trkpt>
      <trkpt lat="48.44752" lon="-2.08327">
        <ele>127.380005</ele>
        <time>2025-06-04T08:38:11.691Z</time>
      </trkpt>
      <trkpt lat="48.4475" lon="-2.08326">
        <ele>127.41</ele>
        <time>2025-06-04T08:38:10.692Z</time>
      </trkpt>
      <trkpt lat="48.44748" lon="-2.08326">
        <ele>127.44</ele>
        <time>2025-06-04T08:38:09.299Z</time>
      </trkpt>
      <trkpt lat="48.44746" lon="-2.08325">
        <ele>127.46</ele>
        <time>2025-06-04T08:38:08.674Z</time>
      </trkpt>
      <trkpt lat="48.44744" lon="-2.08326">
        <ele>127.66</ele>
        <time>2025-06-04T08:38:01.572Z</time>
      </trkpt>
      <trkpt lat="48.44743" lon="-2.08325">
        <ele>127.7</ele>
        <time>2025-06-04T08:38:00.588Z</time>
      </trkpt>
      <trkpt lat="48.44741" lon="-2.08325">
        <ele>127.75</ele>
        <time>2025-06-04T08:37:59.646Z</time>
      </trkpt>
      <trkpt lat="48.44734" lon="-2.0832">
        <ele>127.8</ele>
        <time>2025-06-04T08:37:58.570Z</time>
      </trkpt>
      <trkpt lat="48.4473" lon="-2.08318">
        <ele>127.82</ele>
        <time>2025-06-04T08:37:57.586Z</time>
      </trkpt>
      <trkpt lat="48.44727" lon="-2.08315">
        <ele>127.85</ele>
        <time>2025-06-04T08:37:56.697Z</time>
      </trkpt>
      <trkpt lat="48.44724" lon="-2.08311">
        <ele>127.86</ele>
        <time>2025-06-04T08:37:55.063Z</time>
      </trkpt>
      <trkpt lat="48.4472" lon="-2.08308">
        <ele>127.86</ele>
        <time>2025-06-04T08:37:54.266Z</time>
      </trkpt>
      <trkpt lat="48.44717" lon="-2.08306">
        <ele>127.85</ele>
        <time>2025-06-04T08:37:52.982Z</time>
      </trkpt>
      <trkpt lat="48.44713" lon="-2.08302">
        <ele>127.85</ele>
        <time>2025-06-04T08:37:51.837Z</time>
      </trkpt>
      <trkpt lat="48.44709" lon="-2.08298">
        <ele>127.84</ele>
        <time>2025-06-04T08:37:50.589Z</time>
      </trkpt>
      <trkpt lat="48.44706" lon="-2.08295">
        <ele>127.83</ele>
        <time>2025-06-04T08:37:49.595Z</time>
      </trkpt>
      <trkpt lat="48.44702" lon="-2.08291">
        <ele>127.83</ele>
        <time>2025-06-04T08:37:48.661Z</time>
      </trkpt>
      <trkpt lat="48.44698" lon="-2.08288">
        <ele>127.82</ele>
        <time>2025-06-04T08:37:47.688Z</time>
      </trkpt>
      <trkpt lat="48.44695" lon="-2.08284">
        <ele>127.81</ele>
        <time>2025-06-04T08:37:46.137Z</time>
      </trkpt>
      <trkpt lat="48.4469" lon="-2.0828">
        <ele>127.8</ele>
        <time>2025-06-04T08:37:45.628Z</time>
      </trkpt>
      <trkpt lat="48.44684" lon="-2.08275">
        <ele>127.770004</ele>
        <time>2025-06-04T08:37:44.630Z</time>
      </trkpt>
      <trkpt lat="48.44678" lon="-2.08272">
        <ele>127.75</ele>
        <time>2025-06-04T08:37:43.222Z</time>
      </trkpt>
      <trkpt lat="48.44675" lon="-2.08268">
        <ele>127.72</ele>
        <time>2025-06-04T08:37:42.918Z</time>
      </trkpt>
      <trkpt lat="48.44672" lon="-2.08264">
        <ele>127.7</ele>
        <time>2025-06-04T08:37:41.188Z</time>
      </trkpt>
      <trkpt lat="48.44669" lon="-2.08261">
        <ele>127.67</ele>
        <time>2025-06-04T08:37:40.278Z</time>
      </trkpt>
      <trkpt lat="48.44666" lon="-2.08257">
        <ele>127.64</ele>
        <time>2025-06-04T08:37:39.240Z</time>
      </trkpt>
      <trkpt lat="48.44664" lon="-2.08255">
        <ele>127.61</ele>
        <time>2025-06-04T08:37:38.278Z</time>
      </trkpt>
      <trkpt lat="48.44661" lon="-2.08252">
        <ele>127.58</ele>
        <time>2025-06-04T08:37:37.916Z</time>
      </trkpt>
      <trkpt lat="48.44659" lon="-2.0825">
        <ele>127.54</ele>
        <time>2025-06-04T08:37:36.895Z</time>
      </trkpt>
      <trkpt lat="48.44657" lon="-2.08248">
        <ele>127.490005</ele>
        <time>2025-06-04T08:37:35.717Z</time>
      </trkpt>
      <trkpt lat="48.44656" lon="-2.08246">
        <ele>127.45</ele>
        <time>2025-06-04T08:37:34.315Z</time>
      </trkpt>
      <trkpt lat="48.44656" lon="-2.08245">
        <ele>127.41</ele>
        <time>2025-06-04T08:37:33.797Z</time>
      </trkpt>
      <trkpt lat="48.44654" lon="-2.08241">
        <ele>127.22</ele>
        <time>2025-06-04T08:37:29.276Z</time>
      </trkpt>
      <trkpt lat="48.44651" lon="-2.08236">
        <ele>127.1</ele>
        <time>2025-06-04T08:37:27.807Z</time>
      </trkpt>
      <trkpt lat="48.44649" lon="-2.08231">
        <ele>127.07</ele>
        <time>2025-06-04T08:37:26.547Z</time>
      </trkpt>
      <trkpt lat="48.44648" lon="-2.08228">
        <ele>127.06</ele>
        <time>2025-06-04T08:37:25.122Z</time>
      </trkpt>
      <trkpt lat="48.44647" lon="-2.08224">
        <ele>127.04</ele>
        <time>2025-06-04T08:37:24.776Z</time>
      </trkpt>
      <trkpt lat="48.44646" lon="-2.08221">
        <ele>127.04</ele>
        <time>2025-06-04T08:37:23.577Z</time>
      </trkpt>
      <trkpt lat="48.44644" lon="-2.08217">
        <ele>127.04</ele>
        <time>2025-06-04T08:37:22.100Z</time>
      </trkpt>
      <trkpt lat="48.44643" lon="-2.08214">
        <ele>127.04</ele>
        <time>2025-06-04T08:37:21.273Z</time>
      </trkpt>
      <trkpt lat="48.44641" lon="-2.08212">
        <ele>127.06</ele>
        <time>2025-06-04T08:37:20.836Z</time>
      </trkpt>
      <trkpt lat="48.4464" lon="-2.0821">
        <ele>127.08</ele>
        <time>2025-06-04T08:37:19.330Z</time>
      </trkpt>
      <trkpt lat="48.4464" lon="-2.08209">
        <ele>127.11</ele>
        <time>2025-06-04T08:37:18.267Z</time>
      </trkpt>
      <trkpt lat="48.44639" lon="-2.08206">
        <ele>127.15</ele>
        <time>2025-06-04T08:37:16.066Z</time>
      </trkpt>
      <trkpt lat="48.44638" lon="-2.08199">
        <ele>127.240005</ele>
        <time>2025-06-04T08:37:13.582Z</time>
      </trkpt>
      <trkpt lat="48.44637" lon="-2.08198">
        <ele>127.28</ele>
        <time>2025-06-04T08:37:12.679Z</time>
      </trkpt>
      <trkpt lat="48.44635" lon="-2.08194">
        <ele>127.33</ele>
        <time>2025-06-04T08:37:11.931Z</time>
      </trkpt>
      <trkpt lat="48.44634" lon="-2.08188">
        <ele>127.369995</ele>
        <time>2025-06-04T08:37:10.442Z</time>
      </trkpt>
      <trkpt lat="48.44632" lon="-2.08183">
        <ele>127.4</ele>
        <time>2025-06-04T08:37:09.567Z</time>
      </trkpt>
      <trkpt lat="48.4463" lon="-2.08178">
        <ele>127.44</ele>
        <time>2025-06-04T08:37:08.469Z</time>
      </trkpt>
      <trkpt lat="48.44627" lon="-2.08174">
        <ele>127.47</ele>
        <time>2025-06-04T08:37:07.935Z</time>
      </trkpt>
      <trkpt lat="48.44624" lon="-2.0817">
        <ele>127.490005</ele>
        <time>2025-06-04T08:37:06.487Z</time>
      </trkpt>
      <trkpt lat="48.44621" lon="-2.08167">
        <ele>127.509995</ele>
        <time>2025-06-04T08:37:05.555Z</time>
      </trkpt>
      <trkpt lat="48.44617" lon="-2.08163">
        <ele>127.53</ele>
        <time>2025-06-04T08:37:04.467Z</time>
      </trkpt>
      <trkpt lat="48.44613" lon="-2.0816">
        <ele>127.55</ele>
        <time>2025-06-04T08:37:03.925Z</time>
      </trkpt>
      <trkpt lat="48.44608" lon="-2.08157">
        <ele>127.56</ele>
        <time>2025-06-04T08:37:02.890Z</time>
      </trkpt>
      <trkpt lat="48.44604" lon="-2.08153">
        <ele>127.55</ele>
        <time>2025-06-04T08:37:01.425Z</time>
      </trkpt>
      <trkpt lat="48.446" lon="-2.0815">
        <ele>127.55</ele>
        <time>2025-06-04T08:37:00.466Z</time>
      </trkpt>
      <trkpt lat="48.44596" lon="-2.08146">
        <ele>127.520004</ele>
        <time>2025-06-04T08:36:59.606Z</time>
      </trkpt>
      <trkpt lat="48.44591" lon="-2.08142">
        <ele>127.479996</ele>
        <time>2025-06-04T08:36:58.899Z</time>
      </trkpt>
      <trkpt lat="48.44587" lon="-2.08139">
        <ele>127.42</ele>
        <time>2025-06-04T08:36:57.923Z</time>
      </trkpt>
      <trkpt lat="48.44583" lon="-2.08135">
        <ele>127.33</ele>
        <time>2025-06-04T08:36:56.184Z</time>
      </trkpt>
      <trkpt lat="48.44579" lon="-2.08131">
        <ele>127.21</ele>
        <time>2025-06-04T08:36:55.922Z</time>
      </trkpt>
      <trkpt lat="48.44574" lon="-2.08128">
        <ele>127.06</ele>
        <time>2025-06-04T08:36:54.849Z</time>
      </trkpt>
      <trkpt lat="48.4457" lon="-2.08123">
        <ele>126.9</ele>
        <time>2025-06-04T08:36:53.902Z</time>
      </trkpt>
      <trkpt lat="48.44566" lon="-2.0812">
        <ele>126.75</ele>
        <time>2025-06-04T08:36:52.428Z</time>
      </trkpt>
      <trkpt lat="48.44561" lon="-2.08116">
        <ele>126.58</ele>
        <time>2025-06-04T08:36:50.969Z</time>
      </trkpt>
      <trkpt lat="48.44557" lon="-2.08113">
        <ele>126.41</ele>
        <time>2025-06-04T08:36:50.914Z</time>
      </trkpt>
      <trkpt lat="48.44553" lon="-2.08109">
        <ele>126.259995</ele>
        <time>2025-06-04T08:36:49.405Z</time>
      </trkpt>
      <trkpt lat="48.44549" lon="-2.08106">
        <ele>126.119995</ele>
        <time>2025-06-04T08:36:48.418Z</time>
      </trkpt>
      <trkpt lat="48.44545" lon="-2.08102">
        <ele>126.009995</ele>
        <time>2025-06-04T08:36:47.414Z</time>
      </trkpt>
      <trkpt lat="48.4454" lon="-2.08098">
        <ele>125.95</ele>
        <time>2025-06-04T08:36:46.458Z</time>
      </trkpt>
      <trkpt lat="48.44537" lon="-2.08095">
        <ele>125.89</ele>
        <time>2025-06-04T08:36:45.455Z</time>
      </trkpt>
      <trkpt lat="48.44533" lon="-2.0809">
        <ele>125.83</ele>
        <time>2025-06-04T08:36:44.422Z</time>
      </trkpt>
      <trkpt lat="48.4453" lon="-2.08085">
        <ele>125.78</ele>
        <time>2025-06-04T08:36:43.420Z</time>
      </trkpt>
      <trkpt lat="48.44528" lon="-2.08079">
        <ele>125.78</ele>
        <time>2025-06-04T08:36:42.494Z</time>
      </trkpt>
      <trkpt lat="48.44528" lon="-2.08072">
        <ele>125.83</ele>
        <time>2025-06-04T08:36:41.375Z</time>
      </trkpt>
      <trkpt lat="48.44529" lon="-2.08066">
        <ele>125.92</ele>
        <time>2025-06-04T08:36:40.438Z</time>
      </trkpt>
      <trkpt lat="48.4453" lon="-2.08059">
        <ele>126.06</ele>
        <time>2025-06-04T08:36:39.467Z</time>
      </trkpt>
      <trkpt lat="48.44532" lon="-2.08053">
        <ele>126.229996</ele>
        <time>2025-06-04T08:36:38.496Z</time>
      </trkpt>
      <trkpt lat="48.44534" lon="-2.08046">
        <ele>126.46</ele>
        <time>2025-06-04T08:36:37.815Z</time>
      </trkpt>
      <trkpt lat="48.44535" lon="-2.08039">
        <ele>126.79</ele>
        <time>2025-06-04T08:36:36.439Z</time>
      </trkpt>
      <trkpt lat="48.44537" lon="-2.08032">
        <ele>127.18</ele>
        <time>2025-06-04T08:36:35.391Z</time>
      </trkpt>
      <trkpt lat="48.44539" lon="-2.08025">
        <ele>127.630005</ele>
        <time>2025-06-04T08:36:34.495Z</time>
      </trkpt>
      <trkpt lat="48.4454" lon="-2.08018">
        <ele>128.05</ele>
        <time>2025-06-04T08:36:33.443Z</time>
      </trkpt>
      <trkpt lat="48.44542" lon="-2.0801">
        <ele>128.45999</ele>
        <time>2025-06-04T08:36:32.466Z</time>
      </trkpt>
      <trkpt lat="48.44544" lon="-2.08003">
        <ele>128.76</ele>
        <time>2025-06-04T08:36:31.453Z</time>
      </trkpt>
      <trkpt lat="48.44546" lon="-2.07996">
        <ele>129.03</ele>
        <time>2025-06-04T08:36:30.883Z</time>
      </trkpt>
      <trkpt lat="48.44548" lon="-2.07989">
        <ele>129.32</ele>
        <time>2025-06-04T08:36:29.428Z</time>
      </trkpt>
      <trkpt lat="48.4455" lon="-2.07982">
        <ele>129.53</ele>
        <time>2025-06-04T08:36:28.811Z</time>
      </trkpt>
      <trkpt lat="48.44551" lon="-2.07975">
        <ele>129.66</ele>
        <time>2025-06-04T08:36:27.358Z</time>
      </trkpt>
      <trkpt lat="48.44553" lon="-2.07967">
        <ele>129.75</ele>
        <time>2025-06-04T08:36:26.400Z</time>
      </trkpt>
      <trkpt lat="48.44554" lon="-2.07959">
        <ele>129.83</ele>
        <time>2025-06-04T08:36:25.345Z</time>
      </trkpt>
      <trkpt lat="48.44556" lon="-2.07951">
        <ele>129.91</ele>
        <time>2025-06-04T08:36:24.389Z</time>
      </trkpt>
      <trkpt lat="48.44557" lon="-2.07944">
        <ele>129.95</ele>
        <time>2025-06-04T08:36:23.510Z</time>
      </trkpt>
      <trkpt lat="48.44559" lon="-2.07936">
        <ele>129.97</ele>
        <time>2025-06-04T08:36:22.499Z</time>
      </trkpt>
      <trkpt lat="48.44559" lon="-2.07929">
        <ele>129.92</ele>
        <time>2025-06-04T08:36:21.753Z</time>
      </trkpt>
      <trkpt lat="48.44561" lon="-2.07919">
        <ele>129.86</ele>
        <time>2025-06-04T08:36:20.865Z</time>
      </trkpt>
      <trkpt lat="48.44561" lon="-2.07913">
        <ele>129.78</ele>
        <time>2025-06-04T08:36:19.401Z</time>
      </trkpt>
      <trkpt lat="48.44562" lon="-2.07905">
        <ele>129.67</ele>
        <time>2025-06-04T08:36:18.444Z</time>
      </trkpt>
      <trkpt lat="48.44562" lon="-2.07897">
        <ele>129.55</ele>
        <time>2025-06-04T08:36:17.428Z</time>
      </trkpt>
      <trkpt lat="48.44562" lon="-2.07886">
        <ele>129.42</ele>
        <time>2025-06-04T08:36:16.665Z</time>
      </trkpt>
      <trkpt lat="48.44561" lon="-2.0788">
        <ele>129.3</ele>
        <time>2025-06-04T08:36:15.658Z</time>
      </trkpt>
      <trkpt lat="48.4456" lon="-2.07873">
        <ele>129.2</ele>
        <time>2025-06-04T08:36:14.387Z</time>
      </trkpt>
      <trkpt lat="48.44558" lon="-2.07865">
        <ele>129.14</ele>
        <time>2025-06-04T08:36:13.387Z</time>
      </trkpt>
      <trkpt lat="48.44555" lon="-2.07858">
        <ele>129.07</ele>
        <time>2025-06-04T08:36:12.807Z</time>
      </trkpt>
      <trkpt lat="48.44552" lon="-2.07851">
        <ele>129.03</ele>
        <time>2025-06-04T08:36:11.863Z</time>
      </trkpt>
      <trkpt lat="48.44549" lon="-2.07845">
        <ele>129</ele>
        <time>2025-06-04T08:36:10.404Z</time>
      </trkpt>
      <trkpt lat="48.44547" lon="-2.07839">
        <ele>129.01</ele>
        <time>2025-06-04T08:36:09.406Z</time>
      </trkpt>
      <trkpt lat="48.44543" lon="-2.07832">
        <ele>129.01</ele>
        <time>2025-06-04T08:36:08.535Z</time>
      </trkpt>
      <trkpt lat="48.4454" lon="-2.07826">
        <ele>129.02</ele>
        <time>2025-06-04T08:36:07.828Z</time>
      </trkpt>
      <trkpt lat="48.44538" lon="-2.07819">
        <ele>129.03</ele>
        <time>2025-06-04T08:36:06.382Z</time>
      </trkpt>
      <trkpt lat="48.44535" lon="-2.07813">
        <ele>129.05</ele>
        <time>2025-06-04T08:36:05.353Z</time>
      </trkpt>
      <trkpt lat="48.44533" lon="-2.07807">
        <ele>129.07</ele>
        <time>2025-06-04T08:36:04.746Z</time>
      </trkpt>
      <trkpt lat="48.44531" lon="-2.07801">
        <ele>129.06</ele>
        <time>2025-06-04T08:36:03.723Z</time>
      </trkpt>
      <trkpt lat="48.44529" lon="-2.07794">
        <ele>129.05</ele>
        <time>2025-06-04T08:36:02.449Z</time>
      </trkpt>
      <trkpt lat="48.44526" lon="-2.07788">
        <ele>129.03</ele>
        <time>2025-06-04T08:36:01.367Z</time>
      </trkpt>
      <trkpt lat="48.44524" lon="-2.07781">
        <ele>129.01</ele>
        <time>2025-06-04T08:36:00.396Z</time>
      </trkpt>
      <trkpt lat="48.44522" lon="-2.07774">
        <ele>128.95</ele>
        <time>2025-06-04T08:35:59.540Z</time>
      </trkpt>
      <trkpt lat="48.44519" lon="-2.07767">
        <ele>128.88</ele>
        <time>2025-06-04T08:35:58.471Z</time>
      </trkpt>
      <trkpt lat="48.44517" lon="-2.07761">
        <ele>128.79001</ele>
        <time>2025-06-04T08:35:57.696Z</time>
      </trkpt>
      <trkpt lat="48.44516" lon="-2.07758">
        <ele>128.69</ele>
        <time>2025-06-04T08:35:56.377Z</time>
      </trkpt>
      <trkpt lat="48.44514" lon="-2.07751">
        <ele>128.57</ele>
        <time>2025-06-04T08:35:55.817Z</time>
      </trkpt>
      <trkpt lat="48.44513" lon="-2.07745">
        <ele>128.44</ele>
        <time>2025-06-04T08:35:54.403Z</time>
      </trkpt>
      <trkpt lat="48.44511" lon="-2.07738">
        <ele>128.29001</ele>
        <time>2025-06-04T08:35:53.823Z</time>
      </trkpt>
      <trkpt lat="48.4451" lon="-2.07733">
        <ele>128.17</ele>
        <time>2025-06-04T08:35:52.716Z</time>
      </trkpt>
      <trkpt lat="48.44508" lon="-2.07727">
        <ele>128.06</ele>
        <time>2025-06-04T08:35:51.355Z</time>
      </trkpt>
      <trkpt lat="48.44506" lon="-2.07721">
        <ele>127.97</ele>
        <time>2025-06-04T08:35:50.836Z</time>
      </trkpt>
      <trkpt lat="48.44503" lon="-2.07712">
        <ele>127.91</ele>
        <time>2025-06-04T08:35:49.359Z</time>
      </trkpt>
      <trkpt lat="48.44501" lon="-2.07706">
        <ele>127.869995</ele>
        <time>2025-06-04T08:35:48.423Z</time>
      </trkpt>
      <trkpt lat="48.44499" lon="-2.07702">
        <ele>127.82</ele>
        <time>2025-06-04T08:35:47.359Z</time>
      </trkpt>
      <trkpt lat="48.44497" lon="-2.07695">
        <ele>127.759995</ele>
        <time>2025-06-04T08:35:46.438Z</time>
      </trkpt>
      <trkpt lat="48.44494" lon="-2.07686">
        <ele>127.770004</ele>
        <time>2025-06-04T08:35:45.364Z</time>
      </trkpt>
      <trkpt lat="48.44494" lon="-2.07684">
        <ele>127.78</ele>
        <time>2025-06-04T08:35:43.875Z</time>
      </trkpt>
      <trkpt lat="48.44493" lon="-2.07681">
        <ele>127.79</ele>
        <time>2025-06-04T08:35:43.385Z</time>
      </trkpt>
      <trkpt lat="48.44491" lon="-2.07675">
        <ele>127.81</ele>
        <time>2025-06-04T08:35:42.479Z</time>
      </trkpt>
      <trkpt lat="48.44489" lon="-2.07669">
        <ele>127.84</ele>
        <time>2025-06-04T08:35:41.319Z</time>
      </trkpt>
      <trkpt lat="48.44487" lon="-2.07664">
        <ele>127.85</ele>
        <time>2025-06-04T08:35:40.483Z</time>
      </trkpt>
      <trkpt lat="48.44485" lon="-2.07658">
        <ele>127.869995</ele>
        <time>2025-06-04T08:35:39.381Z</time>
      </trkpt>
      <trkpt lat="48.44483" lon="-2.07652">
        <ele>127.89</ele>
        <time>2025-06-04T08:35:38.362Z</time>
      </trkpt>
      <trkpt lat="48.44481" lon="-2.07645">
        <ele>127.9</ele>
        <time>2025-06-04T08:35:37.819Z</time>
      </trkpt>
      <trkpt lat="48.44479" lon="-2.0764">
        <ele>127.91</ele>
        <time>2025-06-04T08:35:35.859Z</time>
      </trkpt>
      <trkpt lat="48.44477" lon="-2.07635">
        <ele>127.93</ele>
        <time>2025-06-04T08:35:35.371Z</time>
      </trkpt>
      <trkpt lat="48.44475" lon="-2.07629">
        <ele>127.93</ele>
        <time>2025-06-04T08:35:34.607Z</time>
      </trkpt>
      <trkpt lat="48.44473" lon="-2.07622">
        <ele>127.94</ele>
        <time>2025-06-04T08:35:33.338Z</time>
      </trkpt>
      <trkpt lat="48.44472" lon="-2.07617">
        <ele>127.94</ele>
        <time>2025-06-04T08:35:32.484Z</time>
      </trkpt>
      <trkpt lat="48.4447" lon="-2.07611">
        <ele>127.92</ele>
        <time>2025-06-04T08:35:31.421Z</time>
      </trkpt>
      <trkpt lat="48.44468" lon="-2.07606">
        <ele>127.89</ele>
        <time>2025-06-04T08:35:30.733Z</time>
      </trkpt>
      <trkpt lat="48.44466" lon="-2.07599">
        <ele>127.83</ele>
        <time>2025-06-04T08:35:29.445Z</time>
      </trkpt>
      <trkpt lat="48.44464" lon="-2.07593">
        <ele>127.78</ele>
        <time>2025-06-04T08:35:28.390Z</time>
      </trkpt>
      <trkpt lat="48.44463" lon="-2.07588">
        <ele>127.72</ele>
        <time>2025-06-04T08:35:27.406Z</time>
      </trkpt>
      <trkpt lat="48.44461" lon="-2.07581">
        <ele>127.66</ele>
        <time>2025-06-04T08:35:26.799Z</time>
      </trkpt>
      <trkpt lat="48.44459" lon="-2.07576">
        <ele>127.6</ele>
        <time>2025-06-04T08:35:25.736Z</time>
      </trkpt>
      <trkpt lat="48.44457" lon="-2.0757">
        <ele>127.55</ele>
        <time>2025-06-04T08:35:24.773Z</time>
      </trkpt>
      <trkpt lat="48.44455" lon="-2.07564">
        <ele>127.509995</ele>
        <time>2025-06-04T08:35:22.832Z</time>
      </trkpt>
      <trkpt lat="48.44453" lon="-2.07559">
        <ele>127.47</ele>
        <time>2025-06-04T08:35:22.331Z</time>
      </trkpt>
      <trkpt lat="48.44451" lon="-2.07553">
        <ele>127.45</ele>
        <time>2025-06-04T08:35:21.290Z</time>
      </trkpt>
      <trkpt lat="48.44449" lon="-2.07546">
        <ele>127.44</ele>
        <time>2025-06-04T08:35:20.386Z</time>
      </trkpt>
      <trkpt lat="48.44447" lon="-2.07541">
        <ele>127.43</ele>
        <time>2025-06-04T08:35:19.790Z</time>
      </trkpt>
      <trkpt lat="48.44445" lon="-2.07534">
        <ele>127.47</ele>
        <time>2025-06-04T08:35:18.377Z</time>
      </trkpt>
      <trkpt lat="48.44443" lon="-2.07528">
        <ele>127.520004</ele>
        <time>2025-06-04T08:35:17.732Z</time>
      </trkpt>
      <trkpt lat="48.44441" lon="-2.07523">
        <ele>127.6</ele>
        <time>2025-06-04T08:35:16.636Z</time>
      </trkpt>
      <trkpt lat="48.44438" lon="-2.07518">
        <ele>127.66</ele>
        <time>2025-06-04T08:35:14.849Z</time>
      </trkpt>
      <trkpt lat="48.44434" lon="-2.07514">
        <ele>127.740005</ele>
        <time>2025-06-04T08:35:14.241Z</time>
      </trkpt>
      <trkpt lat="48.44431" lon="-2.0751">
        <ele>127.83</ele>
        <time>2025-06-04T08:35:13.334Z</time>
      </trkpt>
      <trkpt lat="48.44428" lon="-2.07506">
        <ele>127.94</ele>
        <time>2025-06-04T08:35:12.306Z</time>
      </trkpt>
      <trkpt lat="48.44426" lon="-2.07501">
        <ele>128.06</ele>
        <time>2025-06-04T08:35:11.305Z</time>
      </trkpt>
      <trkpt lat="48.44424" lon="-2.07495">
        <ele>128.18</ele>
        <time>2025-06-04T08:35:10.752Z</time>
      </trkpt>
      <trkpt lat="48.44422" lon="-2.07489">
        <ele>128.3</ele>
        <time>2025-06-04T08:35:09.245Z</time>
      </trkpt>
      <trkpt lat="48.4442" lon="-2.07484">
        <ele>128.42</ele>
        <time>2025-06-04T08:35:07.797Z</time>
      </trkpt>
      <trkpt lat="48.44419" lon="-2.07479">
        <ele>128.51</ele>
        <time>2025-06-04T08:35:07.299Z</time>
      </trkpt>
      <trkpt lat="48.44418" lon="-2.07474">
        <ele>128.59</ele>
        <time>2025-06-04T08:35:05.808Z</time>
      </trkpt>
      <trkpt lat="48.44416" lon="-2.07469">
        <ele>128.64</ele>
        <time>2025-06-04T08:35:05.539Z</time>
      </trkpt>
      <trkpt lat="48.44416" lon="-2.07464">
        <ele>128.66</ele>
        <time>2025-06-04T08:35:03.922Z</time>
      </trkpt>
      <trkpt lat="48.44415" lon="-2.07459">
        <ele>128.68</ele>
        <time>2025-06-04T08:35:03.762Z</time>
      </trkpt>
      <trkpt lat="48.44415" lon="-2.07455">
        <ele>128.68</ele>
        <time>2025-06-04T08:35:01.808Z</time>
      </trkpt>
      <trkpt lat="48.44413" lon="-2.07452">
        <ele>128.68</ele>
        <time>2025-06-04T08:35:01.537Z</time>
      </trkpt>
      <trkpt lat="48.44413" lon="-2.07449">
        <ele>128.67</ele>
        <time>2025-06-04T08:35:00.390Z</time>
      </trkpt>
      <trkpt lat="48.4441" lon="-2.07448">
        <ele>128.63</ele>
        <time>2025-06-04T08:34:59.276Z</time>
      </trkpt>
      <trkpt lat="48.44407" lon="-2.07449">
        <ele>128.59</ele>
        <time>2025-06-04T08:34:58.766Z</time>
      </trkpt>
      <trkpt lat="48.44405" lon="-2.07451">
        <ele>128.55</ele>
        <time>2025-06-04T08:34:57.266Z</time>
      </trkpt>
      <trkpt lat="48.44402" lon="-2.07454">
        <ele>128.49</ele>
        <time>2025-06-04T08:34:56.239Z</time>
      </trkpt>
      <trkpt lat="48.44398" lon="-2.07458">
        <ele>128.45999</ele>
        <time>2025-06-04T08:34:55.355Z</time>
      </trkpt>
      <trkpt lat="48.44395" lon="-2.07461">
        <ele>128.42</ele>
        <time>2025-06-04T08:34:53.782Z</time>
      </trkpt>
      <trkpt lat="48.44392" lon="-2.07464">
        <ele>128.39</ele>
        <time>2025-06-04T08:34:53.720Z</time>
      </trkpt>
      <trkpt lat="48.44389" lon="-2.07468">
        <ele>128.36</ele>
        <time>2025-06-04T08:34:52.358Z</time>
      </trkpt>
      <trkpt lat="48.44386" lon="-2.07471">
        <ele>128.33</ele>
        <time>2025-06-04T08:34:51.427Z</time>
      </trkpt>
      <trkpt lat="48.44383" lon="-2.07475">
        <ele>128.33</ele>
        <time>2025-06-04T08:34:50.694Z</time>
      </trkpt>
      <trkpt lat="48.44381" lon="-2.07478">
        <ele>128.33</ele>
        <time>2025-06-04T08:34:49.281Z</time>
      </trkpt>
      <trkpt lat="48.44378" lon="-2.07482">
        <ele>128.36</ele>
        <time>2025-06-04T08:34:47.765Z</time>
      </trkpt>
      <trkpt lat="48.44375" lon="-2.07486">
        <ele>128.4</ele>
        <time>2025-06-04T08:34:47.232Z</time>
      </trkpt>
      <trkpt lat="48.44371" lon="-2.07489">
        <ele>128.45</ele>
        <time>2025-06-04T08:34:46.222Z</time>
      </trkpt>
      <trkpt lat="48.44368" lon="-2.07493">
        <ele>128.49</ele>
        <time>2025-06-04T08:34:45.284Z</time>
      </trkpt>
      <trkpt lat="48.44365" lon="-2.07496">
        <ele>128.54001</ele>
        <time>2025-06-04T08:34:44.329Z</time>
      </trkpt>
      <trkpt lat="48.44362" lon="-2.07499">
        <ele>128.6</ele>
        <time>2025-06-04T08:34:42.777Z</time>
      </trkpt>
      <trkpt lat="48.44358" lon="-2.07504">
        <ele>128.66</ele>
        <time>2025-06-04T08:34:42.283Z</time>
      </trkpt>
      <trkpt lat="48.44356" lon="-2.07506">
        <ele>128.70999</ele>
        <time>2025-06-04T08:34:41.332Z</time>
      </trkpt>
      <trkpt lat="48.44352" lon="-2.0751">
        <ele>128.76</ele>
        <time>2025-06-04T08:34:40.374Z</time>
      </trkpt>
      <trkpt lat="48.4435" lon="-2.07513">
        <ele>128.8</ele>
        <time>2025-06-04T08:34:39.346Z</time>
      </trkpt>
      <trkpt lat="48.44347" lon="-2.07517">
        <ele>128.84</ele>
        <time>2025-06-04T08:34:37.816Z</time>
      </trkpt>
      <trkpt lat="48.44344" lon="-2.07521">
        <ele>128.85</ele>
        <time>2025-06-04T08:34:37.304Z</time>
      </trkpt>
      <trkpt lat="48.44341" lon="-2.07525">
        <ele>128.87</ele>
        <time>2025-06-04T08:34:36.245Z</time>
      </trkpt>
      <trkpt lat="48.44338" lon="-2.07528">
        <ele>128.88</ele>
        <time>2025-06-04T08:34:35.269Z</time>
      </trkpt>
      <trkpt lat="48.44335" lon="-2.07531">
        <ele>128.87</ele>
        <time>2025-06-04T08:34:34.538Z</time>
      </trkpt>
      <trkpt lat="48.44332" lon="-2.07534">
        <ele>128.85</ele>
        <time>2025-06-04T08:34:33.343Z</time>
      </trkpt>
      <trkpt lat="48.44329" lon="-2.07537">
        <ele>128.81</ele>
        <time>2025-06-04T08:34:32.329Z</time>
      </trkpt>
      <trkpt lat="48.44326" lon="-2.0754">
        <ele>128.75</ele>
        <time>2025-06-04T08:34:31.281Z</time>
      </trkpt>
      <trkpt lat="48.44323" lon="-2.07543">
        <ele>128.68</ele>
        <time>2025-06-04T08:34:29.770Z</time>
      </trkpt>
      <trkpt lat="48.4432" lon="-2.07545">
        <ele>128.61</ele>
        <time>2025-06-04T08:34:29.306Z</time>
      </trkpt>
      <trkpt lat="48.44317" lon="-2.07548">
        <ele>128.53</ele>
        <time>2025-06-04T08:34:28.221Z</time>
      </trkpt>
      <trkpt lat="48.44314" lon="-2.0755">
        <ele>128.45999</ele>
        <time>2025-06-04T08:34:27.265Z</time>
      </trkpt>
      <trkpt lat="48.44312" lon="-2.07553">
        <ele>128.37</ele>
        <time>2025-06-04T08:34:26.268Z</time>
      </trkpt>
      <trkpt lat="48.44308" lon="-2.07556">
        <ele>128.3</ele>
        <time>2025-06-04T08:34:24.818Z</time>
      </trkpt>
      <trkpt lat="48.44305" lon="-2.07558">
        <ele>128.20999</ele>
        <time>2025-06-04T08:34:24.209Z</time>
      </trkpt>
      <trkpt lat="48.44303" lon="-2.07561">
        <ele>128.14</ele>
        <time>2025-06-04T08:34:23.258Z</time>
      </trkpt>
      <trkpt lat="48.443" lon="-2.07563">
        <ele>128.05</ele>
        <time>2025-06-04T08:34:22.374Z</time>
      </trkpt>
      <trkpt lat="48.44297" lon="-2.07566">
        <ele>127.97</ele>
        <time>2025-06-04T08:34:21.490Z</time>
      </trkpt>
      <trkpt lat="48.44294" lon="-2.07569">
        <ele>127.89</ele>
        <time>2025-06-04T08:34:19.808Z</time>
      </trkpt>
      <trkpt lat="48.44292" lon="-2.07572">
        <ele>127.81</ele>
        <time>2025-06-04T08:34:19.699Z</time>
      </trkpt>
      <trkpt lat="48.44289" lon="-2.07575">
        <ele>127.75</ele>
        <time>2025-06-04T08:34:18.301Z</time>
      </trkpt>
      <trkpt lat="48.44287" lon="-2.07578">
        <ele>127.68</ele>
        <time>2025-06-04T08:34:17.586Z</time>
      </trkpt>
      <trkpt lat="48.44284" lon="-2.07581">
        <ele>127.61</ele>
        <time>2025-06-04T08:34:15.750Z</time>
      </trkpt>
      <trkpt lat="48.44282" lon="-2.07583">
        <ele>127.56</ele>
        <time>2025-06-04T08:34:15.210Z</time>
      </trkpt>
      <trkpt lat="48.44279" lon="-2.07585">
        <ele>127.520004</ele>
        <time>2025-06-04T08:34:14.273Z</time>
      </trkpt>
      <trkpt lat="48.44276" lon="-2.07587">
        <ele>127.47</ele>
        <time>2025-06-04T08:34:13.257Z</time>
      </trkpt>
      <trkpt lat="48.44273" lon="-2.0759">
        <ele>127.43</ele>
        <time>2025-06-04T08:34:12.267Z</time>
      </trkpt>
      <trkpt lat="48.44271" lon="-2.07593">
        <ele>127.380005</ele>
        <time>2025-06-04T08:34:10.738Z</time>
      </trkpt>
      <trkpt lat="48.44268" lon="-2.07596">
        <ele>127.34</ele>
        <time>2025-06-04T08:34:10.296Z</time>
      </trkpt>
      <trkpt lat="48.44266" lon="-2.07599">
        <ele>127.29</ele>
        <time>2025-06-04T08:34:09.321Z</time>
      </trkpt>
      <trkpt lat="48.44264" lon="-2.07601">
        <ele>127.21</ele>
        <time>2025-06-04T08:34:08.282Z</time>
      </trkpt>
      <trkpt lat="48.44261" lon="-2.07605">
        <ele>127.130005</ele>
        <time>2025-06-04T08:34:07.551Z</time>
      </trkpt>
      <trkpt lat="48.44259" lon="-2.07608">
        <ele>127.06</ele>
        <time>2025-06-04T08:34:06.410Z</time>
      </trkpt>
      <trkpt lat="48.44257" lon="-2.07611">
        <ele>126.96</ele>
        <time>2025-06-04T08:34:05.270Z</time>
      </trkpt>
      <trkpt lat="48.44254" lon="-2.07614">
        <ele>126.869995</ele>
        <time>2025-06-04T08:34:04.299Z</time>
      </trkpt>
      <trkpt lat="48.44252" lon="-2.07616">
        <ele>126.759995</ele>
        <time>2025-06-04T08:34:03.304Z</time>
      </trkpt>
      <trkpt lat="48.4425" lon="-2.0762">
        <ele>126.630005</ele>
        <time>2025-06-04T08:34:02.645Z</time>
      </trkpt>
      <trkpt lat="48.44247" lon="-2.07624">
        <ele>126.5</ele>
        <time>2025-06-04T08:34:01.196Z</time>
      </trkpt>
      <trkpt lat="48.44245" lon="-2.07628">
        <ele>126.380005</ele>
        <time>2025-06-04T08:34:00.175Z</time>
      </trkpt>
      <trkpt lat="48.44243" lon="-2.07632">
        <ele>126.28</ele>
        <time>2025-06-04T08:33:58.684Z</time>
      </trkpt>
      <trkpt lat="48.44241" lon="-2.07635">
        <ele>126.17</ele>
        <time>2025-06-04T08:33:58.565Z</time>
      </trkpt>
      <trkpt lat="48.44238" lon="-2.07639">
        <ele>126.05</ele>
        <time>2025-06-04T08:33:57.268Z</time>
      </trkpt>
      <trkpt lat="48.44235" lon="-2.07642">
        <ele>125.93</ele>
        <time>2025-06-04T08:33:56.328Z</time>
      </trkpt>
      <trkpt lat="48.44233" lon="-2.07645">
        <ele>125.82</ele>
        <time>2025-06-04T08:33:55.345Z</time>
      </trkpt>
      <trkpt lat="48.4423" lon="-2.07648">
        <ele>125.71</ele>
        <time>2025-06-04T08:33:53.786Z</time>
      </trkpt>
      <trkpt lat="48.44228" lon="-2.07652">
        <ele>125.59</ele>
        <time>2025-06-04T08:33:53.363Z</time>
      </trkpt>
      <trkpt lat="48.44225" lon="-2.07656">
        <ele>125.490005</ele>
        <time>2025-06-04T08:33:52.222Z</time>
      </trkpt>
      <trkpt lat="48.44223" lon="-2.07659">
        <ele>125.380005</ele>
        <time>2025-06-04T08:33:51.218Z</time>
      </trkpt>
      <trkpt lat="48.4422" lon="-2.07662">
        <ele>125.270004</ele>
        <time>2025-06-04T08:33:49.809Z</time>
      </trkpt>
      <trkpt lat="48.44218" lon="-2.07666">
        <ele>125.17</ele>
        <time>2025-06-04T08:33:49.437Z</time>
      </trkpt>
      <trkpt lat="48.44216" lon="-2.0767">
        <ele>125.04</ele>
        <time>2025-06-04T08:33:47.808Z</time>
      </trkpt>
      <trkpt lat="48.44214" lon="-2.07674">
        <ele>124.92</ele>
        <time>2025-06-04T08:33:47.235Z</time>
      </trkpt>
      <trkpt lat="48.44212" lon="-2.07678">
        <ele>124.83</ele>
        <time>2025-06-04T08:33:45.746Z</time>
      </trkpt>
      <trkpt lat="48.4421" lon="-2.07682">
        <ele>124.729996</ele>
        <time>2025-06-04T08:33:45.259Z</time>
      </trkpt>
      <trkpt lat="48.44208" lon="-2.07686">
        <ele>124.630005</ele>
        <time>2025-06-04T08:33:43.671Z</time>
      </trkpt>
      <trkpt lat="48.44206" lon="-2.0769">
        <ele>124.520004</ele>
        <time>2025-06-04T08:33:42.757Z</time>
      </trkpt>
      <trkpt lat="48.44204" lon="-2.07694">
        <ele>124.42</ele>
        <time>2025-06-04T08:33:41.723Z</time>
      </trkpt>
      <trkpt lat="48.44202" lon="-2.07697">
        <ele>124.31</ele>
        <time>2025-06-04T08:33:41.331Z</time>
      </trkpt>
      <trkpt lat="48.442" lon="-2.07701">
        <ele>124.2</ele>
        <time>2025-06-04T08:33:39.744Z</time>
      </trkpt>
      <trkpt lat="48.44198" lon="-2.07704">
        <ele>124.09</ele>
        <time>2025-06-04T08:33:39.203Z</time>
      </trkpt>
      <trkpt lat="48.44195" lon="-2.07708">
        <ele>123.97</ele>
        <time>2025-06-04T08:33:38.482Z</time>
      </trkpt>
      <trkpt lat="48.44193" lon="-2.07712">
        <ele>123.86</ele>
        <time>2025-06-04T08:33:37.616Z</time>
      </trkpt>
      <trkpt lat="48.44191" lon="-2.07716">
        <ele>123.740005</ele>
        <time>2025-06-04T08:33:35.666Z</time>
      </trkpt>
      <trkpt lat="48.44188" lon="-2.07719">
        <ele>123.619995</ele>
        <time>2025-06-04T08:33:35.494Z</time>
      </trkpt>
      <trkpt lat="48.44186" lon="-2.07723">
        <ele>123.509995</ele>
        <time>2025-06-04T08:33:33.665Z</time>
      </trkpt>
      <trkpt lat="48.44184" lon="-2.07727">
        <ele>123.4</ele>
        <time>2025-06-04T08:33:33.207Z</time>
      </trkpt>
      <trkpt lat="48.44181" lon="-2.07731">
        <ele>123.28</ele>
        <time>2025-06-04T08:33:32.460Z</time>
      </trkpt>
      <trkpt lat="48.44179" lon="-2.07734">
        <ele>123.18</ele>
        <time>2025-06-04T08:33:31.214Z</time>
      </trkpt>
      <trkpt lat="48.44178" lon="-2.07738">
        <ele>123.05</ele>
        <time>2025-06-04T08:33:30.468Z</time>
      </trkpt>
      <trkpt lat="48.44175" lon="-2.07742">
        <ele>122.94</ele>
        <time>2025-06-04T08:33:28.754Z</time>
      </trkpt>
      <trkpt lat="48.44173" lon="-2.07745">
        <ele>122.84</ele>
        <time>2025-06-04T08:33:27.632Z</time>
      </trkpt>
      <trkpt lat="48.44172" lon="-2.07749">
        <ele>122.729996</ele>
        <time>2025-06-04T08:33:27.268Z</time>
      </trkpt>
      <trkpt lat="48.4417" lon="-2.07754">
        <ele>122.630005</ele>
        <time>2025-06-04T08:33:26.415Z</time>
      </trkpt>
      <trkpt lat="48.4417" lon="-2.07757">
        <ele>122.54</ele>
        <time>2025-06-04T08:33:24.716Z</time>
      </trkpt>
      <trkpt lat="48.44169" lon="-2.07761">
        <ele>122.46</ele>
        <time>2025-06-04T08:33:24.390Z</time>
      </trkpt>
      <trkpt lat="48.44168" lon="-2.07767">
        <ele>122.39</ele>
        <time>2025-06-04T08:33:23.250Z</time>
      </trkpt>
      <trkpt lat="48.44167" lon="-2.07771">
        <ele>122.33</ele>
        <time>2025-06-04T08:33:22.249Z</time>
      </trkpt>
      <trkpt lat="48.44166" lon="-2.07776">
        <ele>122.270004</ele>
        <time>2025-06-04T08:33:20.813Z</time>
      </trkpt>
      <trkpt lat="48.44165" lon="-2.0778">
        <ele>122.21</ele>
        <time>2025-06-04T08:33:20.273Z</time>
      </trkpt>
      <trkpt lat="48.44165" lon="-2.07785">
        <ele>122.17</ele>
        <time>2025-06-04T08:33:19.316Z</time>
      </trkpt>
      <trkpt lat="48.44165" lon="-2.07789">
        <ele>122.130005</ele>
        <time>2025-06-04T08:33:17.717Z</time>
      </trkpt>
      <trkpt lat="48.44164" lon="-2.07793">
        <ele>122.09</ele>
        <time>2025-06-04T08:33:17.566Z</time>
      </trkpt>
      <trkpt lat="48.44164" lon="-2.07798">
        <ele>122.08</ele>
        <time>2025-06-04T08:33:16.267Z</time>
      </trkpt>
      <trkpt lat="48.44165" lon="-2.07802">
        <ele>122.07</ele>
        <time>2025-06-04T08:33:15.193Z</time>
      </trkpt>
      <trkpt lat="48.44165" lon="-2.07807">
        <ele>122.06</ele>
        <time>2025-06-04T08:33:14.316Z</time>
      </trkpt>
      <trkpt lat="48.44164" lon="-2.07811">
        <ele>122.06</ele>
        <time>2025-06-04T08:33:13.219Z</time>
      </trkpt>
      <trkpt lat="48.44164" lon="-2.07816">
        <ele>122.07</ele>
        <time>2025-06-04T08:33:12.287Z</time>
      </trkpt>
      <trkpt lat="48.44164" lon="-2.07821">
        <ele>122.07</ele>
        <time>2025-06-04T08:33:10.788Z</time>
      </trkpt>
      <trkpt lat="48.44163" lon="-2.07825">
        <ele>122.08</ele>
        <time>2025-06-04T08:33:10.221Z</time>
      </trkpt>
      <trkpt lat="48.44162" lon="-2.0783">
        <ele>122.08</ele>
        <time>2025-06-04T08:33:09.259Z</time>
      </trkpt>
      <trkpt lat="48.44162" lon="-2.07834">
        <ele>122.09</ele>
        <time>2025-06-04T08:33:08.445Z</time>
      </trkpt>
      <trkpt lat="48.44162" lon="-2.07839">
        <ele>122.09</ele>
        <time>2025-06-04T08:33:07.598Z</time>
      </trkpt>
      <trkpt lat="48.44161" lon="-2.07843">
        <ele>122.1</ele>
        <time>2025-06-04T08:33:06.234Z</time>
      </trkpt>
      <trkpt lat="48.44161" lon="-2.07849">
        <ele>122.11</ele>
        <time>2025-06-04T08:33:05.508Z</time>
      </trkpt>
      <trkpt lat="48.44161" lon="-2.07853">
        <ele>122.11</ele>
        <time>2025-06-04T08:33:04.452Z</time>
      </trkpt>
      <trkpt lat="48.4416" lon="-2.07858">
        <ele>122.119995</ele>
        <time>2025-06-04T08:33:02.827Z</time>
      </trkpt>
      <trkpt lat="48.4416" lon="-2.07862">
        <ele>122.130005</ele>
        <time>2025-06-04T08:33:02.200Z</time>
      </trkpt>
      <trkpt lat="48.4416" lon="-2.07867">
        <ele>122.14</ele>
        <time>2025-06-04T08:33:01.279Z</time>
      </trkpt>
      <trkpt lat="48.44159" lon="-2.07871">
        <ele>122.15</ele>
        <time>2025-06-04T08:33:00.367Z</time>
      </trkpt>
      <trkpt lat="48.44159" lon="-2.07875">
        <ele>122.16</ele>
        <time>2025-06-04T08:32:59.587Z</time>
      </trkpt>
      <trkpt lat="48.44159" lon="-2.0788">
        <ele>122.17</ele>
        <time>2025-06-04T08:32:58.224Z</time>
      </trkpt>
      <trkpt lat="48.44158" lon="-2.07884">
        <ele>122.18</ele>
        <time>2025-06-04T08:32:57.316Z</time>
      </trkpt>
      <trkpt lat="48.44157" lon="-2.07889">
        <ele>122.2</ele>
        <time>2025-06-04T08:32:56.400Z</time>
      </trkpt>
      <trkpt lat="48.44157" lon="-2.07893">
        <ele>122.21</ele>
        <time>2025-06-04T08:32:55.206Z</time>
      </trkpt>
      <trkpt lat="48.44157" lon="-2.07898">
        <ele>122.22</ele>
        <time>2025-06-04T08:32:54.141Z</time>
      </trkpt>
      <trkpt lat="48.44156" lon="-2.07903">
        <ele>122.240005</ele>
        <time>2025-06-04T08:32:53.269Z</time>
      </trkpt>
      <trkpt lat="48.44156" lon="-2.07907">
        <ele>122.259995</ele>
        <time>2025-06-04T08:32:52.311Z</time>
      </trkpt>
      <trkpt lat="48.44155" lon="-2.07912">
        <ele>122.270004</ele>
        <time>2025-06-04T08:32:51.212Z</time>
      </trkpt>
      <trkpt lat="48.44154" lon="-2.07916">
        <ele>122.29</ele>
        <time>2025-06-04T08:32:50.259Z</time>
      </trkpt>
      <trkpt lat="48.44154" lon="-2.0792">
        <ele>122.31</ele>
        <time>2025-06-04T08:32:49.317Z</time>
      </trkpt>
      <trkpt lat="48.44154" lon="-2.07924">
        <ele>122.32</ele>
        <time>2025-06-04T08:32:48.267Z</time>
      </trkpt>
      <trkpt lat="48.44154" lon="-2.07929">
        <ele>122.33</ele>
        <time>2025-06-04T08:32:47.263Z</time>
      </trkpt>
      <trkpt lat="48.44153" lon="-2.07933">
        <ele>122.35</ele>
        <time>2025-06-04T08:32:46.279Z</time>
      </trkpt>
      <trkpt lat="48.44153" lon="-2.07939">
        <ele>122.369995</ele>
        <time>2025-06-04T08:32:45.328Z</time>
      </trkpt>
      <trkpt lat="48.44152" lon="-2.07943">
        <ele>122.39</ele>
        <time>2025-06-04T08:32:44.220Z</time>
      </trkpt>
      <trkpt lat="48.44152" lon="-2.07948">
        <ele>122.4</ele>
        <time>2025-06-04T08:32:43.333Z</time>
      </trkpt>
      <trkpt lat="48.44152" lon="-2.07952">
        <ele>122.41</ele>
        <time>2025-06-04T08:32:42.245Z</time>
      </trkpt>
      <trkpt lat="48.44152" lon="-2.07956">
        <ele>122.42</ele>
        <time>2025-06-04T08:32:41.237Z</time>
      </trkpt>
      <trkpt lat="48.44151" lon="-2.07961">
        <ele>122.44</ele>
        <time>2025-06-04T08:32:40.208Z</time>
      </trkpt>
      <trkpt lat="48.44151" lon="-2.07967">
        <ele>122.46</ele>
        <time>2025-06-04T08:32:39.209Z</time>
      </trkpt>
      <trkpt lat="48.4415" lon="-2.07971">
        <ele>122.47</ele>
        <time>2025-06-04T08:32:38.225Z</time>
      </trkpt>
      <trkpt lat="48.44149" lon="-2.07976">
        <ele>122.47</ele>
        <time>2025-06-04T08:32:37.242Z</time>
      </trkpt>
      <trkpt lat="48.44149" lon="-2.07981">
        <ele>122.479996</ele>
        <time>2025-06-04T08:32:36.251Z</time>
      </trkpt>
      <trkpt lat="48.44147" lon="-2.07986">
        <ele>122.479996</ele>
        <time>2025-06-04T08:32:35.134Z</time>
      </trkpt>
      <trkpt lat="48.44146" lon="-2.07992">
        <ele>122.479996</ele>
        <time>2025-06-04T08:32:34.187Z</time>
      </trkpt>
      <trkpt lat="48.44145" lon="-2.07998">
        <ele>122.47</ele>
        <time>2025-06-04T08:32:33.304Z</time>
      </trkpt>
      <trkpt lat="48.44144" lon="-2.08005">
        <ele>122.46</ele>
        <time>2025-06-04T08:32:32.218Z</time>
      </trkpt>
      <trkpt lat="48.44143" lon="-2.08011">
        <ele>122.44</ele>
        <time>2025-06-04T08:32:31.450Z</time>
      </trkpt>
      <trkpt lat="48.4414" lon="-2.08017">
        <ele>122.43</ele>
        <time>2025-06-04T08:32:30.006Z</time>
      </trkpt>
      <trkpt lat="48.44137" lon="-2.08021">
        <ele>122.4</ele>
        <time>2025-06-04T08:32:29.126Z</time>
      </trkpt>
      <trkpt lat="48.44135" lon="-2.08026">
        <ele>122.369995</ele>
        <time>2025-06-04T08:32:28.050Z</time>
      </trkpt>
      <trkpt lat="48.44133" lon="-2.0803">
        <ele>122.32</ele>
        <time>2025-06-04T08:32:27.305Z</time>
      </trkpt>
      <trkpt lat="48.4413" lon="-2.08033">
        <ele>122.270004</ele>
        <time>2025-06-04T08:32:26.291Z</time>
      </trkpt>
      <trkpt lat="48.44127" lon="-2.08034">
        <ele>122.21</ele>
        <time>2025-06-04T08:32:25.520Z</time>
      </trkpt>
      <trkpt lat="48.44124" lon="-2.08035">
        <ele>122.14</ele>
        <time>2025-06-04T08:32:24.200Z</time>
      </trkpt>
      <trkpt lat="48.44121" lon="-2.08034">
        <ele>122.07</ele>
        <time>2025-06-04T08:32:23.209Z</time>
      </trkpt>
      <trkpt lat="48.44118" lon="-2.08034">
        <ele>122</ele>
        <time>2025-06-04T08:32:22.223Z</time>
      </trkpt>
      <trkpt lat="48.44115" lon="-2.08033">
        <ele>121.92</ele>
        <time>2025-06-04T08:32:20.668Z</time>
      </trkpt>
      <trkpt lat="48.44113" lon="-2.08032">
        <ele>121.85</ele>
        <time>2025-06-04T08:32:20.260Z</time>
      </trkpt>
      <trkpt lat="48.4411" lon="-2.08031">
        <ele>121.78</ele>
        <time>2025-06-04T08:32:19.338Z</time>
      </trkpt>
      <trkpt lat="48.44107" lon="-2.08031">
        <ele>121.72</ele>
        <time>2025-06-04T08:32:18.248Z</time>
      </trkpt>
      <trkpt lat="48.44105" lon="-2.08031">
        <ele>121.67</ele>
        <time>2025-06-04T08:32:17.420Z</time>
      </trkpt>
      <trkpt lat="48.44102" lon="-2.08032">
        <ele>121.619995</ele>
        <time>2025-06-04T08:32:16.495Z</time>
      </trkpt>
      <trkpt lat="48.44099" lon="-2.08034">
        <ele>121.56</ele>
        <time>2025-06-04T08:32:15.219Z</time>
      </trkpt>
      <trkpt lat="48.44096" lon="-2.08035">
        <ele>121.479996</ele>
        <time>2025-06-04T08:32:14.223Z</time>
      </trkpt>
      <trkpt lat="48.44092" lon="-2.08038">
        <ele>121.41</ele>
        <time>2025-06-04T08:32:13.221Z</time>
      </trkpt>
      <trkpt lat="48.44089" lon="-2.0804">
        <ele>121.33</ele>
        <time>2025-06-04T08:32:12.473Z</time>
      </trkpt>
      <trkpt lat="48.44086" lon="-2.08042">
        <ele>121.270004</ele>
        <time>2025-06-04T08:32:11.271Z</time>
      </trkpt>
      <trkpt lat="48.44083" lon="-2.08044">
        <ele>121.2</ele>
        <time>2025-06-04T08:32:10.518Z</time>
      </trkpt>
      <trkpt lat="48.44081" lon="-2.08046">
        <ele>121.119995</ele>
        <time>2025-06-04T08:32:09.497Z</time>
      </trkpt>
      <trkpt lat="48.44078" lon="-2.08048">
        <ele>121.06</ele>
        <time>2025-06-04T08:32:08.292Z</time>
      </trkpt>
      <trkpt lat="48.44076" lon="-2.08051">
        <ele>120.990005</ele>
        <time>2025-06-04T08:32:07.465Z</time>
      </trkpt>
      <trkpt lat="48.44074" lon="-2.08053">
        <ele>120.91</ele>
        <time>2025-06-04T08:32:06.438Z</time>
      </trkpt>
      <trkpt lat="48.44071" lon="-2.08056">
        <ele>120.83</ele>
        <time>2025-06-04T08:32:05.499Z</time>
      </trkpt>
      <trkpt lat="48.44069" lon="-2.08059">
        <ele>120.770004</ele>
        <time>2025-06-04T08:32:04.279Z</time>
      </trkpt>
      <trkpt lat="48.44067" lon="-2.08061">
        <ele>120.7</ele>
        <time>2025-06-04T08:32:03.317Z</time>
      </trkpt>
      <trkpt lat="48.44066" lon="-2.08065">
        <ele>120.630005</ele>
        <time>2025-06-04T08:32:01.702Z</time>
      </trkpt>
      <trkpt lat="48.44064" lon="-2.0807">
        <ele>120.57</ele>
        <time>2025-06-04T08:32:01.220Z</time>
      </trkpt>
      <trkpt lat="48.44063" lon="-2.08075">
        <ele>120.5</ele>
        <time>2025-06-04T08:31:59.743Z</time>
      </trkpt>
      <trkpt lat="48.44062" lon="-2.08079">
        <ele>120.43</ele>
        <time>2025-06-04T08:31:59.189Z</time>
      </trkpt>
      <trkpt lat="48.44061" lon="-2.08084">
        <ele>120.35</ele>
        <time>2025-06-04T08:31:58.189Z</time>
      </trkpt>
      <trkpt lat="48.4406" lon="-2.08089">
        <ele>120.229996</ele>
        <time>2025-06-04T08:31:57.406Z</time>
      </trkpt>
      <trkpt lat="48.44059" lon="-2.08095">
        <ele>120.11</ele>
        <time>2025-06-04T08:31:55.694Z</time>
      </trkpt>
      <trkpt lat="48.44058" lon="-2.08098">
        <ele>120</ele>
        <time>2025-06-04T08:31:55.201Z</time>
      </trkpt>
      <trkpt lat="48.44057" lon="-2.08103">
        <ele>119.869995</ele>
        <time>2025-06-04T08:31:54.135Z</time>
      </trkpt>
      <trkpt lat="48.44055" lon="-2.08108">
        <ele>119.75</ele>
        <time>2025-06-04T08:31:53.458Z</time>
      </trkpt>
      <trkpt lat="48.44053" lon="-2.08113">
        <ele>119.61</ele>
        <time>2025-06-04T08:31:51.566Z</time>
      </trkpt>
      <trkpt lat="48.44051" lon="-2.08119">
        <ele>119.46</ele>
        <time>2025-06-04T08:31:50.548Z</time>
      </trkpt>
      <trkpt lat="48.44049" lon="-2.08125">
        <ele>119.28</ele>
        <time>2025-06-04T08:31:50.392Z</time>
      </trkpt>
      <trkpt lat="48.44048" lon="-2.0813">
        <ele>119.09</ele>
        <time>2025-06-04T08:31:48.512Z</time>
      </trkpt>
      <trkpt lat="48.44046" lon="-2.08136">
        <ele>118.880005</ele>
        <time>2025-06-04T08:31:48.495Z</time>
      </trkpt>
      <trkpt lat="48.44044" lon="-2.08144">
        <ele>118.69</ele>
        <time>2025-06-04T08:31:47.502Z</time>
      </trkpt>
      <trkpt lat="48.44043" lon="-2.08152">
        <ele>118.47</ele>
        <time>2025-06-04T08:31:45.517Z</time>
      </trkpt>
      <trkpt lat="48.44044" lon="-2.08169">
        <ele>118.259995</ele>
        <time>2025-06-04T08:31:44.502Z</time>
      </trkpt>
      <trkpt lat="48.44044" lon="-2.08175">
        <ele>118.07</ele>
        <time>2025-06-04T08:31:44.048Z</time>
      </trkpt>
      <trkpt lat="48.44044" lon="-2.08191">
        <ele>117.94</ele>
        <time>2025-06-04T08:31:43.446Z</time>
      </trkpt>
      <trkpt lat="48.44046" lon="-2.08192">
        <ele>117.82</ele>
        <time>2025-06-04T08:31:42.237Z</time>
      </trkpt>
      <trkpt lat="48.44044" lon="-2.08195">
        <ele>117.7</ele>
        <time>2025-06-04T08:31:41.250Z</time>
      </trkpt>
      <trkpt lat="48.4404" lon="-2.08202">
        <ele>117.61</ele>
        <time>2025-06-04T08:31:40.387Z</time>
      </trkpt>
      <trkpt lat="48.44037" lon="-2.08206">
        <ele>117.5</ele>
        <time>2025-06-04T08:31:39.109Z</time>
      </trkpt>
      <trkpt lat="48.44035" lon="-2.08209">
        <ele>117.42</ele>
        <time>2025-06-04T08:31:38.460Z</time>
      </trkpt>
      <trkpt lat="48.44033" lon="-2.08212">
        <ele>117.32</ele>
        <time>2025-06-04T08:31:37.478Z</time>
      </trkpt>
      <trkpt lat="48.44032" lon="-2.08213">
        <ele>117.240005</ele>
        <time>2025-06-04T08:31:35.504Z</time>
      </trkpt>
      <trkpt lat="48.44031" lon="-2.08214">
        <ele>117.16</ele>
        <time>2025-06-04T08:31:34.594Z</time>
      </trkpt>
      <trkpt lat="48.44032" lon="-2.08218">
        <ele>117.08</ele>
        <time>2025-06-04T08:31:33.500Z</time>
      </trkpt>
      <trkpt lat="48.44029" lon="-2.08232">
        <ele>116.990005</ele>
        <time>2025-06-04T08:31:33.419Z</time>
      </trkpt>
      <trkpt lat="48.4403" lon="-2.08231">
        <ele>116.9</ele>
        <time>2025-06-04T08:31:32.258Z</time>
      </trkpt>
      <trkpt lat="48.4403" lon="-2.08233">
        <ele>116.8</ele>
        <time>2025-06-04T08:31:31.468Z</time>
      </trkpt>
      <trkpt lat="48.4403" lon="-2.08231">
        <ele>116.7</ele>
        <time>2025-06-04T08:31:30.269Z</time>
      </trkpt>
      <trkpt lat="48.4403" lon="-2.08229">
        <ele>116.61</ele>
        <time>2025-06-04T08:31:29.473Z</time>
      </trkpt>
      <trkpt lat="48.44031" lon="-2.08225">
        <ele>116.54</ele>
        <time>2025-06-04T08:31:27.734Z</time>
      </trkpt>
      <trkpt lat="48.44031" lon="-2.08239">
        <ele>116.46</ele>
        <time>2025-06-04T08:31:27.272Z</time>
      </trkpt>
      <trkpt lat="48.44031" lon="-2.08247">
        <ele>116.39</ele>
        <time>2025-06-04T08:31:26.417Z</time>
      </trkpt>
      <trkpt lat="48.44031" lon="-2.08251">
        <ele>116.35</ele>
        <time>2025-06-04T08:31:25.438Z</time>
      </trkpt>
      <trkpt lat="48.44032" lon="-2.08257">
        <ele>116.31</ele>
        <time>2025-06-04T08:31:24.345Z</time>
      </trkpt>
      <trkpt lat="48.44033" lon="-2.0826">
        <ele>116.270004</ele>
        <time>2025-06-04T08:31:22.491Z</time>
      </trkpt>
      <trkpt lat="48.44034" lon="-2.08263">
        <ele>116.229996</ele>
        <time>2025-06-04T08:31:22.314Z</time>
      </trkpt>
      <trkpt lat="48.44036" lon="-2.08269">
        <ele>116.19</ele>
        <time>2025-06-04T08:31:21.350Z</time>
      </trkpt>
      <trkpt lat="48.44038" lon="-2.08276">
        <ele>116.15</ele>
        <time>2025-06-04T08:31:20.463Z</time>
      </trkpt>
      <trkpt lat="48.4404" lon="-2.08283">
        <ele>116.11</ele>
        <time>2025-06-04T08:31:18.934Z</time>
      </trkpt>
      <trkpt lat="48.44042" lon="-2.0829">
        <ele>116.07</ele>
        <time>2025-06-04T08:31:17.944Z</time>
      </trkpt>
      <trkpt lat="48.44044" lon="-2.08298">
        <ele>116.05</ele>
        <time>2025-06-04T08:31:16.526Z</time>
      </trkpt>
      <trkpt lat="48.44046" lon="-2.08306">
        <ele>116.03</ele>
        <time>2025-06-04T08:31:16.299Z</time>
      </trkpt>
      <trkpt lat="48.44048" lon="-2.08315">
        <ele>116.020004</ele>
        <time>2025-06-04T08:31:15.040Z</time>
      </trkpt>
      <trkpt lat="48.4405" lon="-2.08324">
        <ele>116.020004</ele>
        <time>2025-06-04T08:31:14.095Z</time>
      </trkpt>
      <trkpt lat="48.44054" lon="-2.08343">
        <ele>116.05</ele>
        <time>2025-06-04T08:31:12.422Z</time>
      </trkpt>
      <trkpt lat="48.44056" lon="-2.08351">
        <ele>116.11</ele>
        <time>2025-06-04T08:31:11.107Z</time>
      </trkpt>
      <trkpt lat="48.44057" lon="-2.08359">
        <ele>116.19</ele>
        <time>2025-06-04T08:31:10.101Z</time>
      </trkpt>
      <trkpt lat="48.44057" lon="-2.08364">
        <ele>116.28</ele>
        <time>2025-06-04T08:31:09.429Z</time>
      </trkpt>
      <trkpt lat="48.44057" lon="-2.08367">
        <ele>116.39</ele>
        <time>2025-06-04T08:31:08.200Z</time>
      </trkpt>
      <trkpt lat="48.44058" lon="-2.08373">
        <ele>116.53</ele>
        <time>2025-06-04T08:31:06.491Z</time>
      </trkpt>
      <trkpt lat="48.44058" lon="-2.0838">
        <ele>116.69</ele>
        <time>2025-06-04T08:31:06.190Z</time>
      </trkpt>
      <trkpt lat="48.44057" lon="-2.08389">
        <ele>116.869995</ele>
        <time>2025-06-04T08:31:05.463Z</time>
      </trkpt>
      <trkpt lat="48.44056" lon="-2.084">
        <ele>117.05</ele>
        <time>2025-06-04T08:31:04.443Z</time>
      </trkpt>
      <trkpt lat="48.44052" lon="-2.08427">
        <ele>117.25</ele>
        <time>2025-06-04T08:31:03.361Z</time>
      </trkpt>
      <trkpt lat="48.44051" lon="-2.08435">
        <ele>117.45</ele>
        <time>2025-06-04T08:31:02.456Z</time>
      </trkpt>
      <trkpt lat="48.44051" lon="-2.08434">
        <ele>117.630005</ele>
        <time>2025-06-04T08:31:01.455Z</time>
      </trkpt>
      <trkpt lat="48.44049" lon="-2.0844">
        <ele>117.84</ele>
        <time>2025-06-04T08:30:59.460Z</time>
      </trkpt>
      <trkpt lat="48.44049" lon="-2.08443">
        <ele>118.03</ele>
        <time>2025-06-04T08:30:59.203Z</time>
      </trkpt>
      <trkpt lat="48.44048" lon="-2.08446">
        <ele>118.25</ele>
        <time>2025-06-04T08:30:58.413Z</time>
      </trkpt>
      <trkpt lat="48.44048" lon="-2.08451">
        <ele>118.47</ele>
        <time>2025-06-04T08:30:57.426Z</time>
      </trkpt>
      <trkpt lat="48.44046" lon="-2.08459">
        <ele>118.69</ele>
        <time>2025-06-04T08:30:55.470Z</time>
      </trkpt>
      <trkpt lat="48.44045" lon="-2.08465">
        <ele>118.89</ele>
        <time>2025-06-04T08:30:54.935Z</time>
      </trkpt>
      <trkpt lat="48.44044" lon="-2.08474">
        <ele>119.05</ele>
        <time>2025-06-04T08:30:54.442Z</time>
      </trkpt>
      <trkpt lat="48.44043" lon="-2.08483">
        <ele>119.21</ele>
        <time>2025-06-04T08:30:53.207Z</time>
      </trkpt>
      <trkpt lat="48.44041" lon="-2.08495">
        <ele>119.380005</ele>
        <time>2025-06-04T08:30:52.157Z</time>
      </trkpt>
      <trkpt lat="48.44041" lon="-2.085">
        <ele>119.55</ele>
        <time>2025-06-04T08:30:51.368Z</time>
      </trkpt>
      <trkpt lat="48.4404" lon="-2.08509">
        <ele>119.67</ele>
        <time>2025-06-04T08:30:50.400Z</time>
      </trkpt>
      <trkpt lat="48.44039" lon="-2.08521">
        <ele>119.8</ele>
        <time>2025-06-04T08:30:48.599Z</time>
      </trkpt>
      <trkpt lat="48.44036" lon="-2.08544">
        <ele>119.89</ele>
        <time>2025-06-04T08:30:48.105Z</time>
      </trkpt>
      <trkpt lat="48.44036" lon="-2.08551">
        <ele>119.93</ele>
        <time>2025-06-04T08:30:47.430Z</time>
      </trkpt>
      <trkpt lat="48.44036" lon="-2.08553">
        <ele>119.94</ele>
        <time>2025-06-04T08:30:45.995Z</time>
      </trkpt>
      <trkpt lat="48.44035" lon="-2.08558">
        <ele>119.94</ele>
        <time>2025-06-04T08:30:44.445Z</time>
      </trkpt>
      <trkpt lat="48.44035" lon="-2.08561">
        <ele>119.93</ele>
        <time>2025-06-04T08:30:43.945Z</time>
      </trkpt>
      <trkpt lat="48.44035" lon="-2.08564">
        <ele>119.91</ele>
        <time>2025-06-04T08:30:42.448Z</time>
      </trkpt>
      <trkpt lat="48.44035" lon="-2.0857">
        <ele>119.89</ele>
        <time>2025-06-04T08:30:42.101Z</time>
      </trkpt>
      <trkpt lat="48.44035" lon="-2.08578">
        <ele>119.83</ele>
        <time>2025-06-04T08:30:41.390Z</time>
      </trkpt>
      <trkpt lat="48.44035" lon="-2.08589">
        <ele>119.759995</ele>
        <time>2025-06-04T08:30:40.413Z</time>
      </trkpt>
      <trkpt lat="48.44036" lon="-2.08595">
        <ele>119.66</ele>
        <time>2025-06-04T08:30:39.033Z</time>
      </trkpt>
      <trkpt lat="48.44036" lon="-2.08602">
        <ele>119.520004</ele>
        <time>2025-06-04T08:30:38.189Z</time>
      </trkpt>
      <trkpt lat="48.44038" lon="-2.08612">
        <ele>119.39</ele>
        <time>2025-06-04T08:30:37.430Z</time>
      </trkpt>
      <trkpt lat="48.44039" lon="-2.08623">
        <ele>119.22</ele>
        <time>2025-06-04T08:30:36.404Z</time>
      </trkpt>
      <trkpt lat="48.44038" lon="-2.08634">
        <ele>119.05</ele>
        <time>2025-06-04T08:30:34.435Z</time>
      </trkpt>
      <trkpt lat="48.44038" lon="-2.08649">
        <ele>118.84</ele>
        <time>2025-06-04T08:30:34.029Z</time>
      </trkpt>
      <trkpt lat="48.44036" lon="-2.08679">
        <ele>118.5</ele>
        <time>2025-06-04T08:30:32.397Z</time>
      </trkpt>
      <trkpt lat="48.44035" lon="-2.08694">
        <ele>118.33</ele>
        <time>2025-06-04T08:30:30.451Z</time>
      </trkpt>
      <trkpt lat="48.44035" lon="-2.087">
        <ele>118.21</ele>
        <time>2025-06-04T08:30:30.397Z</time>
      </trkpt>
      <trkpt lat="48.44035" lon="-2.08719">
        <ele>118.08</ele>
        <time>2025-06-04T08:30:28.442Z</time>
      </trkpt>
      <trkpt lat="48.44035" lon="-2.08717">
        <ele>117.97</ele>
        <time>2025-06-04T08:30:28.223Z</time>
      </trkpt>
      <trkpt lat="48.44035" lon="-2.08712">
        <ele>117.84</ele>
        <time>2025-06-04T08:30:27.335Z</time>
      </trkpt>
      <trkpt lat="48.44035" lon="-2.08707">
        <ele>117.7</ele>
        <time>2025-06-04T08:30:25.436Z</time>
      </trkpt>
      <trkpt lat="48.44035" lon="-2.0871">
        <ele>117.55</ele>
        <time>2025-06-04T08:30:24.435Z</time>
      </trkpt>
      <trkpt lat="48.44035" lon="-2.08718">
        <ele>117.39</ele>
        <time>2025-06-04T08:30:23.431Z</time>
      </trkpt>
      <trkpt lat="48.44034" lon="-2.08728">
        <ele>117.25</ele>
        <time>2025-06-04T08:30:22.535Z</time>
      </trkpt>
      <trkpt lat="48.44034" lon="-2.08735">
        <ele>117.119995</ele>
        <time>2025-06-04T08:30:21.577Z</time>
      </trkpt>
      <trkpt lat="48.44035" lon="-2.08741">
        <ele>116.990005</ele>
        <time>2025-06-04T08:30:21.357Z</time>
      </trkpt>
      <trkpt lat="48.44035" lon="-2.08749">
        <ele>116.86</ele>
        <time>2025-06-04T08:30:19.446Z</time>
      </trkpt>
      <trkpt lat="48.44035" lon="-2.08756">
        <ele>116.740005</ele>
        <time>2025-06-04T08:30:19.161Z</time>
      </trkpt>
      <trkpt lat="48.44034" lon="-2.08762">
        <ele>116.630005</ele>
        <time>2025-06-04T08:30:18.389Z</time>
      </trkpt>
      <trkpt lat="48.44033" lon="-2.08768">
        <ele>116.58</ele>
        <time>2025-06-04T08:30:17.394Z</time>
      </trkpt>
      <trkpt lat="48.44033" lon="-2.08774">
        <ele>116.53</ele>
        <time>2025-06-04T08:30:15.461Z</time>
      </trkpt>
      <trkpt lat="48.44033" lon="-2.08777">
        <ele>116.479996</ele>
        <time>2025-06-04T08:30:14.959Z</time>
      </trkpt>
      <trkpt lat="48.44032" lon="-2.08782">
        <ele>116.44</ele>
        <time>2025-06-04T08:30:14.386Z</time>
      </trkpt>
      <trkpt lat="48.44032" lon="-2.08788">
        <ele>116.41</ele>
        <time>2025-06-04T08:30:12.475Z</time>
      </trkpt>
      <trkpt lat="48.4403" lon="-2.08794">
        <ele>116.41</ele>
        <time>2025-06-04T08:30:11.430Z</time>
      </trkpt>
      <trkpt lat="48.44028" lon="-2.088">
        <ele>116.4</ele>
        <time>2025-06-04T08:30:11.408Z</time>
      </trkpt>
      <trkpt lat="48.44027" lon="-2.08808">
        <ele>116.41</ele>
        <time>2025-06-04T08:30:09.443Z</time>
      </trkpt>
      <trkpt lat="48.44025" lon="-2.08813">
        <ele>116.43</ele>
        <time>2025-06-04T08:30:08.430Z</time>
      </trkpt>
      <trkpt lat="48.44025" lon="-2.08816">
        <ele>116.44</ele>
        <time>2025-06-04T08:30:08.406Z</time>
      </trkpt>
      <trkpt lat="48.44026" lon="-2.08821">
        <ele>116.46</ele>
        <time>2025-06-04T08:30:06.484Z</time>
      </trkpt>
      <trkpt lat="48.44025" lon="-2.08828">
        <ele>116.46</ele>
        <time>2025-06-04T08:30:06.362Z</time>
      </trkpt>
      <trkpt lat="48.44025" lon="-2.08832">
        <ele>116.47</ele>
        <time>2025-06-04T08:30:04.507Z</time>
      </trkpt>
      <trkpt lat="48.44025" lon="-2.08834">
        <ele>116.47</ele>
        <time>2025-06-04T08:30:03.444Z</time>
      </trkpt>
      <trkpt lat="48.44024" lon="-2.08835">
        <ele>116.479996</ele>
        <time>2025-06-04T08:30:02.471Z</time>
      </trkpt>
      <trkpt lat="48.44024" lon="-2.08843">
        <ele>116.5</ele>
        <time>2025-06-04T08:29:57.980Z</time>
      </trkpt>
      <trkpt lat="48.44024" lon="-2.08847">
        <ele>116.5</ele>
        <time>2025-06-04T08:29:56.646Z</time>
      </trkpt>
      <trkpt lat="48.44023" lon="-2.08851">
        <ele>116.5</ele>
        <time>2025-06-04T08:29:55.776Z</time>
      </trkpt>
      <trkpt lat="48.44022" lon="-2.08857">
        <ele>116.5</ele>
        <time>2025-06-04T08:29:54.998Z</time>
      </trkpt>
      <trkpt lat="48.44022" lon="-2.08862">
        <ele>116.490005</ele>
        <time>2025-06-04T08:29:54.005Z</time>
      </trkpt>
      <trkpt lat="48.44022" lon="-2.08868">
        <ele>116.479996</ele>
        <time>2025-06-04T08:29:53.003Z</time>
      </trkpt>
      <trkpt lat="48.44022" lon="-2.08873">
        <ele>116.47</ele>
        <time>2025-06-04T08:29:52.023Z</time>
      </trkpt>
      <trkpt lat="48.44023" lon="-2.08878">
        <ele>116.44</ele>
        <time>2025-06-04T08:29:50.999Z</time>
      </trkpt>
      <trkpt lat="48.44024" lon="-2.08884">
        <ele>116.42</ele>
        <time>2025-06-04T08:29:49.997Z</time>
      </trkpt>
      <trkpt lat="48.44023" lon="-2.08888">
        <ele>116.380005</ele>
        <time>2025-06-04T08:29:48.089Z</time>
      </trkpt>
      <trkpt lat="48.44023" lon="-2.08893">
        <ele>116.34</ele>
        <time>2025-06-04T08:29:47.675Z</time>
      </trkpt>
      <trkpt lat="48.44023" lon="-2.08898">
        <ele>116.3</ele>
        <time>2025-06-04T08:29:46.978Z</time>
      </trkpt>
      <trkpt lat="48.44023" lon="-2.08901">
        <ele>116.259995</ele>
        <time>2025-06-04T08:29:45.057Z</time>
      </trkpt>
      <trkpt lat="48.44023" lon="-2.08905">
        <ele>116.21</ele>
        <time>2025-06-04T08:29:45.015Z</time>
      </trkpt>
      <trkpt lat="48.44023" lon="-2.0891">
        <ele>116.16</ele>
        <time>2025-06-04T08:29:43.039Z</time>
      </trkpt>
      <trkpt lat="48.44023" lon="-2.08915">
        <ele>116.11</ele>
        <time>2025-06-04T08:29:42.085Z</time>
      </trkpt>
      <trkpt lat="48.44024" lon="-2.0892">
        <ele>116.06</ele>
        <time>2025-06-04T08:29:41.052Z</time>
      </trkpt>
      <trkpt lat="48.44024" lon="-2.08924">
        <ele>116.03</ele>
        <time>2025-06-04T08:29:40.786Z</time>
      </trkpt>
      <trkpt lat="48.44025" lon="-2.08929">
        <ele>116</ele>
        <time>2025-06-04T08:29:39.102Z</time>
      </trkpt>
      <trkpt lat="48.44025" lon="-2.08934">
        <ele>115.979996</ele>
        <time>2025-06-04T08:29:38.066Z</time>
      </trkpt>
      <trkpt lat="48.44025" lon="-2.08937">
        <ele>115.97</ele>
        <time>2025-06-04T08:29:37.031Z</time>
      </trkpt>
      <trkpt lat="48.44026" lon="-2.08941">
        <ele>115.96</ele>
        <time>2025-06-04T08:29:36.569Z</time>
      </trkpt>
      <trkpt lat="48.44026" lon="-2.08944">
        <ele>115.95</ele>
        <time>2025-06-04T08:29:35.083Z</time>
      </trkpt>
      <trkpt lat="48.44026" lon="-2.08946">
        <ele>115.94</ele>
        <time>2025-06-04T08:29:34.050Z</time>
      </trkpt>
      <trkpt lat="48.44025" lon="-2.08947">
        <ele>115.93</ele>
        <time>2025-06-04T08:29:33.023Z</time>
      </trkpt>
      <trkpt lat="48.44026" lon="-2.08949">
        <ele>115.92</ele>
        <time>2025-06-04T08:29:32.039Z</time>
      </trkpt>
      <trkpt lat="48.44026" lon="-2.08955">
        <ele>115.9</ele>
        <time>2025-06-04T08:29:30.036Z</time>
      </trkpt>
      <trkpt lat="48.44026" lon="-2.08956">
        <ele>115.89</ele>
        <time>2025-06-04T08:29:29.037Z</time>
      </trkpt>
      <trkpt lat="48.44026" lon="-2.08957">
        <ele>115.89</ele>
        <time>2025-06-04T08:29:28.781Z</time>
      </trkpt>
      <trkpt lat="48.44027" lon="-2.08957">
        <ele>115.72</ele>
        <time>2025-06-04T08:29:12.981Z</time>
      </trkpt>
      <trkpt lat="48.44024" lon="-2.08958">
        <ele>115.68</ele>
        <time>2025-06-04T08:29:09.326Z</time>
      </trkpt>
      <trkpt lat="48.44024" lon="-2.08961">
        <ele>115.66</ele>
        <time>2025-06-04T08:29:08.748Z</time>
      </trkpt>
      <trkpt lat="48.44024" lon="-2.08966">
        <ele>115.64</ele>
        <time>2025-06-04T08:29:07.598Z</time>
      </trkpt>
      <trkpt lat="48.44025" lon="-2.08969">
        <ele>115.61</ele>
        <time>2025-06-04T08:29:06.512Z</time>
      </trkpt>
      <trkpt lat="48.44025" lon="-2.08973">
        <ele>115.6</ele>
        <time>2025-06-04T08:29:05.405Z</time>
      </trkpt>
      <trkpt lat="48.44026" lon="-2.08978">
        <ele>115.58</ele>
        <time>2025-06-04T08:29:04.355Z</time>
      </trkpt>
      <trkpt lat="48.44027" lon="-2.08982">
        <ele>115.56</ele>
        <time>2025-06-04T08:29:03.707Z</time>
      </trkpt>
      <trkpt lat="48.44027" lon="-2.08987">
        <ele>115.56</ele>
        <time>2025-06-04T08:29:02.556Z</time>
      </trkpt>
      <trkpt lat="48.44028" lon="-2.08992">
        <ele>115.55</ele>
        <time>2025-06-04T08:29:01.781Z</time>
      </trkpt>
      <trkpt lat="48.44028" lon="-2.08997">
        <ele>115.54</ele>
        <time>2025-06-04T08:29:00.777Z</time>
      </trkpt>
      <trkpt lat="48.44028" lon="-2.09002">
        <ele>115.53</ele>
        <time>2025-06-04T08:28:58.846Z</time>
      </trkpt>
      <trkpt lat="48.44028" lon="-2.09007">
        <ele>115.54</ele>
        <time>2025-06-04T08:28:58.779Z</time>
      </trkpt>
      <trkpt lat="48.44028" lon="-2.09013">
        <ele>115.55</ele>
        <time>2025-06-04T08:28:57.453Z</time>
      </trkpt>
      <trkpt lat="48.44028" lon="-2.09019">
        <ele>115.58</ele>
        <time>2025-06-04T08:28:56.808Z</time>
      </trkpt>
      <trkpt lat="48.44028" lon="-2.09024">
        <ele>115.619995</ele>
        <time>2025-06-04T08:28:54.871Z</time>
      </trkpt>
      <trkpt lat="48.44028" lon="-2.0903">
        <ele>115.66</ele>
        <time>2025-06-04T08:28:54.028Z</time>
      </trkpt>
      <trkpt lat="48.44028" lon="-2.09036">
        <ele>115.71</ele>
        <time>2025-06-04T08:28:53.404Z</time>
      </trkpt>
      <trkpt lat="48.44028" lon="-2.09046">
        <ele>115.78</ele>
        <time>2025-06-04T08:28:52.625Z</time>
      </trkpt>
      <trkpt lat="48.44028" lon="-2.09073">
        <ele>115.85</ele>
        <time>2025-06-04T08:28:50.985Z</time>
      </trkpt>
      <trkpt lat="48.44027" lon="-2.09075">
        <ele>115.92</ele>
        <time>2025-06-04T08:28:50.493Z</time>
      </trkpt>
      <trkpt lat="48.44027" lon="-2.09077">
        <ele>116</ele>
        <time>2025-06-04T08:28:49.491Z</time>
      </trkpt>
      <trkpt lat="48.44027" lon="-2.09078">
        <ele>116.07</ele>
        <time>2025-06-04T08:28:48.517Z</time>
      </trkpt>
      <trkpt lat="48.44027" lon="-2.09079">
        <ele>116.14</ele>
        <time>2025-06-04T08:28:47.700Z</time>
      </trkpt>
      <trkpt lat="48.44027" lon="-2.0908">
        <ele>116.270004</ele>
        <time>2025-06-04T08:28:45.270Z</time>
      </trkpt>
      <trkpt lat="48.44027" lon="-2.09079">
        <ele>116.33</ele>
        <time>2025-06-04T08:28:44.287Z</time>
      </trkpt>
      <trkpt lat="48.44027" lon="-2.09078">
        <ele>116.369995</ele>
        <time>2025-06-04T08:28:43.653Z</time>
      </trkpt>
      <trkpt lat="48.44026" lon="-2.09084">
        <ele>116.4</ele>
        <time>2025-06-04T08:28:41.991Z</time>
      </trkpt>
      <trkpt lat="48.44026" lon="-2.09091">
        <ele>116.42</ele>
        <time>2025-06-04T08:28:41.429Z</time>
      </trkpt>
      <trkpt lat="48.44025" lon="-2.09098">
        <ele>116.45</ele>
        <time>2025-06-04T08:28:40.358Z</time>
      </trkpt>
      <trkpt lat="48.44025" lon="-2.09103">
        <ele>116.45</ele>
        <time>2025-06-04T08:28:39.207Z</time>
      </trkpt>
      <trkpt lat="48.44025" lon="-2.09109">
        <ele>116.45</ele>
        <time>2025-06-04T08:28:38.649Z</time>
      </trkpt>
      <trkpt lat="48.44025" lon="-2.09114">
        <ele>116.45</ele>
        <time>2025-06-04T08:28:37.682Z</time>
      </trkpt>
      <trkpt lat="48.44026" lon="-2.09117">
        <ele>116.45</ele>
        <time>2025-06-04T08:28:35.869Z</time>
      </trkpt>
      <trkpt lat="48.44027" lon="-2.09122">
        <ele>116.43</ele>
        <time>2025-06-04T08:28:35.588Z</time>
      </trkpt>
      <trkpt lat="48.44027" lon="-2.09127">
        <ele>116.41</ele>
        <time>2025-06-04T08:28:33.891Z</time>
      </trkpt>
      <trkpt lat="48.44029" lon="-2.09131">
        <ele>116.369995</ele>
        <time>2025-06-04T08:28:33.787Z</time>
      </trkpt>
      <trkpt lat="48.44031" lon="-2.09136">
        <ele>116.32</ele>
        <time>2025-06-04T08:28:31.879Z</time>
      </trkpt>
      <trkpt lat="48.44033" lon="-2.09141">
        <ele>116.270004</ele>
        <time>2025-06-04T08:28:31.719Z</time>
      </trkpt>
      <trkpt lat="48.44035" lon="-2.09146">
        <ele>116.22</ele>
        <time>2025-06-04T08:28:29.841Z</time>
      </trkpt>
      <trkpt lat="48.44036" lon="-2.09152">
        <ele>116.15</ele>
        <time>2025-06-04T08:28:29.575Z</time>
      </trkpt>
      <trkpt lat="48.44039" lon="-2.09157">
        <ele>116.06</ele>
        <time>2025-06-04T08:28:28.498Z</time>
      </trkpt>
      <trkpt lat="48.44041" lon="-2.09162">
        <ele>115.96</ele>
        <time>2025-06-04T08:28:27.477Z</time>
      </trkpt>
      <trkpt lat="48.44043" lon="-2.09168">
        <ele>115.85</ele>
        <time>2025-06-04T08:28:26.716Z</time>
      </trkpt>
      <trkpt lat="48.44045" lon="-2.09173">
        <ele>115.740005</ele>
        <time>2025-06-04T08:28:25.397Z</time>
      </trkpt>
      <trkpt lat="48.44047" lon="-2.09177">
        <ele>115.619995</ele>
        <time>2025-06-04T08:28:23.802Z</time>
      </trkpt>
      <trkpt lat="48.44049" lon="-2.09182">
        <ele>115.5</ele>
        <time>2025-06-04T08:28:23.404Z</time>
      </trkpt>
      <trkpt lat="48.44051" lon="-2.09186">
        <ele>115.36</ele>
        <time>2025-06-04T08:28:22.710Z</time>
      </trkpt>
      <trkpt lat="48.44053" lon="-2.09191">
        <ele>115.21</ele>
        <time>2025-06-04T08:28:21.775Z</time>
      </trkpt>
      <trkpt lat="48.44055" lon="-2.09195">
        <ele>115.04</ele>
        <time>2025-06-04T08:28:20.428Z</time>
      </trkpt>
      <trkpt lat="48.44056" lon="-2.09198">
        <ele>114.880005</ele>
        <time>2025-06-04T08:28:19.457Z</time>
      </trkpt>
      <trkpt lat="48.44057" lon="-2.09201">
        <ele>114.71</ele>
        <time>2025-06-04T08:28:18.665Z</time>
      </trkpt>
      <trkpt lat="48.44058" lon="-2.09207">
        <ele>114.54</ele>
        <time>2025-06-04T08:28:16.792Z</time>
      </trkpt>
      <trkpt lat="48.44058" lon="-2.09212">
        <ele>114.380005</ele>
        <time>2025-06-04T08:28:15.780Z</time>
      </trkpt>
      <trkpt lat="48.44057" lon="-2.09217">
        <ele>114.22</ele>
        <time>2025-06-04T08:28:15.297Z</time>
      </trkpt>
      <trkpt lat="48.44056" lon="-2.09221">
        <ele>114.07</ele>
        <time>2025-06-04T08:28:14.350Z</time>
      </trkpt>
      <trkpt lat="48.44054" lon="-2.09227">
        <ele>113.92</ele>
        <time>2025-06-04T08:28:13.681Z</time>
      </trkpt>
      <trkpt lat="48.44052" lon="-2.09232">
        <ele>113.82</ele>
        <time>2025-06-04T08:28:12.693Z</time>
      </trkpt>
      <trkpt lat="48.4405" lon="-2.09236">
        <ele>113.729996</ele>
        <time>2025-06-04T08:28:11.251Z</time>
      </trkpt>
      <trkpt lat="48.44048" lon="-2.09241">
        <ele>113.66</ele>
        <time>2025-06-04T08:28:10.243Z</time>
      </trkpt>
      <trkpt lat="48.44045" lon="-2.09246">
        <ele>113.6</ele>
        <time>2025-06-04T08:28:09.761Z</time>
      </trkpt>
      <trkpt lat="48.44043" lon="-2.09251">
        <ele>113.56</ele>
        <time>2025-06-04T08:28:08.739Z</time>
      </trkpt>
      <trkpt lat="48.44041" lon="-2.09255">
        <ele>113.520004</ele>
        <time>2025-06-04T08:28:07.713Z</time>
      </trkpt>
      <trkpt lat="48.44038" lon="-2.09259">
        <ele>113.490005</ele>
        <time>2025-06-04T08:28:05.928Z</time>
      </trkpt>
      <trkpt lat="48.44036" lon="-2.09263">
        <ele>113.46</ele>
        <time>2025-06-04T08:28:05.414Z</time>
      </trkpt>
      <trkpt lat="48.44033" lon="-2.09267">
        <ele>113.44</ele>
        <time>2025-06-04T08:28:04.653Z</time>
      </trkpt>
      <trkpt lat="48.44031" lon="-2.09272">
        <ele>113.41</ele>
        <time>2025-06-04T08:28:03.663Z</time>
      </trkpt>
      <trkpt lat="48.44028" lon="-2.09275">
        <ele>113.380005</ele>
        <time>2025-06-04T08:28:02.632Z</time>
      </trkpt>
      <trkpt lat="48.44026" lon="-2.09278">
        <ele>113.35</ele>
        <time>2025-06-04T08:28:01.476Z</time>
      </trkpt>
      <trkpt lat="48.44024" lon="-2.09281">
        <ele>113.32</ele>
        <time>2025-06-04T08:28:00.549Z</time>
      </trkpt>
      <trkpt lat="48.44022" lon="-2.09284">
        <ele>113.29</ele>
        <time>2025-06-04T08:27:59.594Z</time>
      </trkpt>
      <trkpt lat="48.44019" lon="-2.09287">
        <ele>113.25</ele>
        <time>2025-06-04T08:27:58.641Z</time>
      </trkpt>
      <trkpt lat="48.44016" lon="-2.0929">
        <ele>113.21</ele>
        <time>2025-06-04T08:27:57.405Z</time>
      </trkpt>
      <trkpt lat="48.44013" lon="-2.09294">
        <ele>113.16</ele>
        <time>2025-06-04T08:27:56.495Z</time>
      </trkpt>
      <trkpt lat="48.4401" lon="-2.09297">
        <ele>113.119995</ele>
        <time>2025-06-04T08:27:55.705Z</time>
      </trkpt>
      <trkpt lat="48.44008" lon="-2.093">
        <ele>113.07</ele>
        <time>2025-06-04T08:27:54.485Z</time>
      </trkpt>
      <trkpt lat="48.44005" lon="-2.09303">
        <ele>113.03</ele>
        <time>2025-06-04T08:27:53.586Z</time>
      </trkpt>
      <trkpt lat="48.44003" lon="-2.09305">
        <ele>113</ele>
        <time>2025-06-04T08:27:52.678Z</time>
      </trkpt>
      <trkpt lat="48.44001" lon="-2.09307">
        <ele>112.96</ele>
        <time>2025-06-04T08:27:51.734Z</time>
      </trkpt>
      <trkpt lat="48.43999" lon="-2.0931">
        <ele>112.92</ele>
        <time>2025-06-04T08:27:50.366Z</time>
      </trkpt>
      <trkpt lat="48.43996" lon="-2.09312">
        <ele>112.89</ele>
        <time>2025-06-04T08:27:48.782Z</time>
      </trkpt>
      <trkpt lat="48.43994" lon="-2.09314">
        <ele>112.86</ele>
        <time>2025-06-04T08:27:48.603Z</time>
      </trkpt>
      <trkpt lat="48.43991" lon="-2.09317">
        <ele>112.84</ele>
        <time>2025-06-04T08:27:47.514Z</time>
      </trkpt>
      <trkpt lat="48.43988" lon="-2.0932">
        <ele>112.82</ele>
        <time>2025-06-04T08:27:46.434Z</time>
      </trkpt>
      <trkpt lat="48.43985" lon="-2.09323">
        <ele>112.8</ele>
        <time>2025-06-04T08:27:44.836Z</time>
      </trkpt>
      <trkpt lat="48.43982" lon="-2.09327">
        <ele>112.78</ele>
        <time>2025-06-04T08:27:44.511Z</time>
      </trkpt>
      <trkpt lat="48.43979" lon="-2.0933">
        <ele>112.78</ele>
        <time>2025-06-04T08:27:43.688Z</time>
      </trkpt>
      <trkpt lat="48.43976" lon="-2.09333">
        <ele>112.770004</ele>
        <time>2025-06-04T08:27:41.755Z</time>
      </trkpt>
      <trkpt lat="48.43972" lon="-2.09336">
        <ele>112.770004</ele>
        <time>2025-06-04T08:27:41.469Z</time>
      </trkpt>
      <trkpt lat="48.43969" lon="-2.0934">
        <ele>112.770004</ele>
        <time>2025-06-04T08:27:40.437Z</time>
      </trkpt>
      <trkpt lat="48.43966" lon="-2.09344">
        <ele>112.78</ele>
        <time>2025-06-04T08:27:38.774Z</time>
      </trkpt>
      <trkpt lat="48.43963" lon="-2.09346">
        <ele>112.78</ele>
        <time>2025-06-04T08:27:38.296Z</time>
      </trkpt>
      <trkpt lat="48.43961" lon="-2.0935">
        <ele>112.78</ele>
        <time>2025-06-04T08:27:37.715Z</time>
      </trkpt>
      <trkpt lat="48.43958" lon="-2.09354">
        <ele>112.78</ele>
        <time>2025-06-04T08:27:35.778Z</time>
      </trkpt>
      <trkpt lat="48.43955" lon="-2.09358">
        <ele>112.770004</ele>
        <time>2025-06-04T08:27:35.195Z</time>
      </trkpt>
      <trkpt lat="48.43953" lon="-2.0936">
        <ele>112.76</ele>
        <time>2025-06-04T08:27:34.709Z</time>
      </trkpt>
      <trkpt lat="48.4395" lon="-2.09363">
        <ele>112.76</ele>
        <time>2025-06-04T08:27:33.681Z</time>
      </trkpt>
      <trkpt lat="48.43949" lon="-2.09365">
        <ele>112.74</ele>
        <time>2025-06-04T08:27:32.666Z</time>
      </trkpt>
      <trkpt lat="48.43948" lon="-2.09367">
        <ele>112.729996</ele>
        <time>2025-06-04T08:27:30.765Z</time>
      </trkpt>
      <trkpt lat="48.43946" lon="-2.09368">
        <ele>112.71</ele>
        <time>2025-06-04T08:27:30.589Z</time>
      </trkpt>
      <trkpt lat="48.43944" lon="-2.09371">
        <ele>112.69</ele>
        <time>2025-06-04T08:27:29.439Z</time>
      </trkpt>
      <trkpt lat="48.43941" lon="-2.09373">
        <ele>112.65</ele>
        <time>2025-06-04T08:27:28.462Z</time>
      </trkpt>
      <trkpt lat="48.43938" lon="-2.09375">
        <ele>112.61</ele>
        <time>2025-06-04T08:27:27.458Z</time>
      </trkpt>
      <trkpt lat="48.43934" lon="-2.09377">
        <ele>112.55</ele>
        <time>2025-06-04T08:27:26.693Z</time>
      </trkpt>
      <trkpt lat="48.4393" lon="-2.09379">
        <ele>112.47</ele>
        <time>2025-06-04T08:27:24.888Z</time>
      </trkpt>
      <trkpt lat="48.43927" lon="-2.09381">
        <ele>112.38</ele>
        <time>2025-06-04T08:27:24.652Z</time>
      </trkpt>
      <trkpt lat="48.43923" lon="-2.09382">
        <ele>112.29</ele>
        <time>2025-06-04T08:27:23.607Z</time>
      </trkpt>
      <trkpt lat="48.43919" lon="-2.09385">
        <ele>112.2</ele>
        <time>2025-06-04T08:27:22.660Z</time>
      </trkpt>
      <trkpt lat="48.43915" lon="-2.09388">
        <ele>112.12</ele>
        <time>2025-06-04T08:27:21.725Z</time>
      </trkpt>
      <trkpt lat="48.43912" lon="-2.09391">
        <ele>112.04</ele>
        <time>2025-06-04T08:27:20.457Z</time>
      </trkpt>
      <trkpt lat="48.43908" lon="-2.09394">
        <ele>111.97</ele>
        <time>2025-06-04T08:27:19.096Z</time>
      </trkpt>
      <trkpt lat="48.43905" lon="-2.09398">
        <ele>111.89</ele>
        <time>2025-06-04T08:27:18.363Z</time>
      </trkpt>
      <trkpt lat="48.43901" lon="-2.09404">
        <ele>111.83</ele>
        <time>2025-06-04T08:27:17.075Z</time>
      </trkpt>
      <trkpt lat="48.43898" lon="-2.09407">
        <ele>111.770004</ele>
        <time>2025-06-04T08:27:16.654Z</time>
      </trkpt>
      <trkpt lat="48.43895" lon="-2.09411">
        <ele>111.71</ele>
        <time>2025-06-04T08:27:14.739Z</time>
      </trkpt>
      <trkpt lat="48.43892" lon="-2.09414">
        <ele>111.65</ele>
        <time>2025-06-04T08:27:14.699Z</time>
      </trkpt>
      <trkpt lat="48.4389" lon="-2.09416">
        <ele>111.6</ele>
        <time>2025-06-04T08:27:13.495Z</time>
      </trkpt>
      <trkpt lat="48.43888" lon="-2.09419">
        <ele>111.54</ele>
        <time>2025-06-04T08:27:12.608Z</time>
      </trkpt>
      <trkpt lat="48.43887" lon="-2.09421">
        <ele>111.49</ele>
        <time>2025-06-04T08:27:11.676Z</time>
      </trkpt>
      <trkpt lat="48.43886" lon="-2.09422">
        <ele>111.43</ele>
        <time>2025-06-04T08:27:10.513Z</time>
      </trkpt>
      <trkpt lat="48.43885" lon="-2.09424">
        <ele>111.38</ele>
        <time>2025-06-04T08:27:08.981Z</time>
      </trkpt>
      <trkpt lat="48.43884" lon="-2.09425">
        <ele>111.32</ele>
        <time>2025-06-04T08:27:08.564Z</time>
      </trkpt>
      <trkpt lat="48.43882" lon="-2.09426">
        <ele>111.26</ele>
        <time>2025-06-04T08:27:06.721Z</time>
      </trkpt>
      <trkpt lat="48.43881" lon="-2.09428">
        <ele>111.21</ele>
        <time>2025-06-04T08:27:06.062Z</time>
      </trkpt>
      <trkpt lat="48.43879" lon="-2.09431">
        <ele>111.16</ele>
        <time>2025-06-04T08:27:04.966Z</time>
      </trkpt>
      <trkpt lat="48.43877" lon="-2.09434">
        <ele>111.11</ele>
        <time>2025-06-04T08:27:03.729Z</time>
      </trkpt>
      <trkpt lat="48.43874" lon="-2.09437">
        <ele>111.05</ele>
        <time>2025-06-04T08:27:02.952Z</time>
      </trkpt>
      <trkpt lat="48.43872" lon="-2.0944">
        <ele>111</ele>
        <time>2025-06-04T08:27:02.666Z</time>
      </trkpt>
      <trkpt lat="48.43869" lon="-2.09443">
        <ele>110.94</ele>
        <time>2025-06-04T08:27:00.726Z</time>
      </trkpt>
      <trkpt lat="48.43866" lon="-2.09446">
        <ele>110.88</ele>
        <time>2025-06-04T08:27:00.537Z</time>
      </trkpt>
      <trkpt lat="48.43864" lon="-2.09449">
        <ele>110.82</ele>
        <time>2025-06-04T08:26:58.928Z</time>
      </trkpt>
      <trkpt lat="48.43861" lon="-2.09453">
        <ele>110.76</ele>
        <time>2025-06-04T08:26:57.723Z</time>
      </trkpt>
      <trkpt lat="48.43857" lon="-2.09456">
        <ele>110.69</ele>
        <time>2025-06-04T08:26:57.337Z</time>
      </trkpt>
      <trkpt lat="48.43855" lon="-2.09458">
        <ele>110.62</ele>
        <time>2025-06-04T08:26:56.697Z</time>
      </trkpt>
      <trkpt lat="48.43851" lon="-2.09461">
        <ele>110.56</ele>
        <time>2025-06-04T08:26:55.663Z</time>
      </trkpt>
      <trkpt lat="48.43848" lon="-2.09464">
        <ele>110.49</ele>
        <time>2025-06-04T08:26:54.174Z</time>
      </trkpt>
      <trkpt lat="48.43844" lon="-2.09469">
        <ele>110.44</ele>
        <time>2025-06-04T08:26:52.746Z</time>
      </trkpt>
      <trkpt lat="48.43842" lon="-2.09471">
        <ele>110.4</ele>
        <time>2025-06-04T08:26:52.642Z</time>
      </trkpt>
      <trkpt lat="48.4384" lon="-2.09475">
        <ele>110.36</ele>
        <time>2025-06-04T08:26:51.689Z</time>
      </trkpt>
      <trkpt lat="48.43837" lon="-2.09478">
        <ele>110.32</ele>
        <time>2025-06-04T08:26:49.698Z</time>
      </trkpt>
      <trkpt lat="48.43835" lon="-2.09482">
        <ele>110.29</ele>
        <time>2025-06-04T08:26:49.675Z</time>
      </trkpt>
      <trkpt lat="48.43834" lon="-2.09485">
        <ele>110.229996</ele>
        <time>2025-06-04T08:26:47.989Z</time>
      </trkpt>
      <trkpt lat="48.43833" lon="-2.09489">
        <ele>110.18</ele>
        <time>2025-06-04T08:26:46.834Z</time>
      </trkpt>
      <trkpt lat="48.43832" lon="-2.09492">
        <ele>110.12</ele>
        <time>2025-06-04T08:26:45.718Z</time>
      </trkpt>
      <trkpt lat="48.43831" lon="-2.09497">
        <ele>110.06</ele>
        <time>2025-06-04T08:26:45.221Z</time>
      </trkpt>
      <trkpt lat="48.43829" lon="-2.09502">
        <ele>110</ele>
        <time>2025-06-04T08:26:43.835Z</time>
      </trkpt>
      <trkpt lat="48.43827" lon="-2.09507">
        <ele>109.94</ele>
        <time>2025-06-04T08:26:42.708Z</time>
      </trkpt>
      <trkpt lat="48.43825" lon="-2.09511">
        <ele>109.88</ele>
        <time>2025-06-04T08:26:42.666Z</time>
      </trkpt>
      <trkpt lat="48.43823" lon="-2.09515">
        <ele>109.82</ele>
        <time>2025-06-04T08:26:41.672Z</time>
      </trkpt>
      <trkpt lat="48.43821" lon="-2.09517">
        <ele>109.78</ele>
        <time>2025-06-04T08:26:40.645Z</time>
      </trkpt>
      <trkpt lat="48.43819" lon="-2.09519">
        <ele>109.75</ele>
        <time>2025-06-04T08:26:38.703Z</time>
      </trkpt>
      <trkpt lat="48.43817" lon="-2.09521">
        <ele>109.72</ele>
        <time>2025-06-04T08:26:38.652Z</time>
      </trkpt>
      <trkpt lat="48.43816" lon="-2.09523">
        <ele>109.71</ele>
        <time>2025-06-04T08:26:36.705Z</time>
      </trkpt>
      <trkpt lat="48.43815" lon="-2.09524">
        <ele>109.67</ele>
        <time>2025-06-04T08:26:35.673Z</time>
      </trkpt>
      <trkpt lat="48.43814" lon="-2.09529">
        <ele>109.55</ele>
        <time>2025-06-04T08:26:29.308Z</time>
      </trkpt>
      <trkpt lat="48.43814" lon="-2.09528">
        <ele>109.47</ele>
        <time>2025-06-04T08:26:20.259Z</time>
      </trkpt>
      <trkpt lat="48.43814" lon="-2.09526">
        <ele>109.18</ele>
        <time>2025-06-04T08:26:16.249Z</time>
      </trkpt>
      <trkpt lat="48.43811" lon="-2.09526">
        <ele>109.09</ele>
        <time>2025-06-04T08:26:07.248Z</time>
      </trkpt>
      <trkpt lat="48.4381" lon="-2.09527">
        <ele>109.06</ele>
        <time>2025-06-04T08:26:06.246Z</time>
      </trkpt>
      <trkpt lat="48.4381" lon="-2.09526">
        <ele>109.020004</ele>
        <time>2025-06-04T08:26:05.257Z</time>
      </trkpt>
      <trkpt lat="48.43808" lon="-2.09527">
        <ele>109</ele>
        <time>2025-06-04T08:26:04.254Z</time>
      </trkpt>
      <trkpt lat="48.43809" lon="-2.09531">
        <ele>108.94</ele>
        <time>2025-06-04T08:26:03.136Z</time>
      </trkpt>
      <trkpt lat="48.4381" lon="-2.09533">
        <ele>108.88</ele>
        <time>2025-06-04T08:26:01.248Z</time>
      </trkpt>
      <trkpt lat="48.43811" lon="-2.09534">
        <ele>108.82</ele>
        <time>2025-06-04T08:26:00.243Z</time>
      </trkpt>
      <trkpt lat="48.43812" lon="-2.09538">
        <ele>108.59</ele>
        <time>2025-06-04T08:25:58.255Z</time>
      </trkpt>
      <trkpt lat="48.4381" lon="-2.09544">
        <ele>108.33</ele>
        <time>2025-06-04T08:25:56.241Z</time>
      </trkpt>
      <trkpt lat="48.43808" lon="-2.09546">
        <ele>108.21</ele>
        <time>2025-06-04T08:25:55.237Z</time>
      </trkpt>
      <trkpt lat="48.43806" lon="-2.09549">
        <ele>108.1</ele>
        <time>2025-06-04T08:25:54.251Z</time>
      </trkpt>
      <trkpt lat="48.43803" lon="-2.09552">
        <ele>108</ele>
        <time>2025-06-04T08:25:53.248Z</time>
      </trkpt>
      <trkpt lat="48.438" lon="-2.09555">
        <ele>107.92</ele>
        <time>2025-06-04T08:25:52.284Z</time>
      </trkpt>
      <trkpt lat="48.43797" lon="-2.09558">
        <ele>107.84</ele>
        <time>2025-06-04T08:25:51.790Z</time>
      </trkpt>
      <trkpt lat="48.43793" lon="-2.09562">
        <ele>107.770004</ele>
        <time>2025-06-04T08:25:50.691Z</time>
      </trkpt>
      <trkpt lat="48.4379" lon="-2.09565">
        <ele>107.71</ele>
        <time>2025-06-04T08:25:49.274Z</time>
      </trkpt>
      <trkpt lat="48.43786" lon="-2.09568">
        <ele>107.69</ele>
        <time>2025-06-04T08:25:48.180Z</time>
      </trkpt>
      <trkpt lat="48.43784" lon="-2.09571">
        <ele>107.66</ele>
        <time>2025-06-04T08:25:47.271Z</time>
      </trkpt>
      <trkpt lat="48.43781" lon="-2.09575">
        <ele>107.64</ele>
        <time>2025-06-04T08:25:46.274Z</time>
      </trkpt>
      <trkpt lat="48.43778" lon="-2.09577">
        <ele>107.63</ele>
        <time>2025-06-04T08:25:45.793Z</time>
      </trkpt>
      <trkpt lat="48.43774" lon="-2.09581">
        <ele>107.61</ele>
        <time>2025-06-04T08:25:43.759Z</time>
      </trkpt>
      <trkpt lat="48.43767" lon="-2.09588">
        <ele>107.59</ele>
        <time>2025-06-04T08:25:42.209Z</time>
      </trkpt>
      <trkpt lat="48.43763" lon="-2.09591">
        <ele>107.58</ele>
        <time>2025-06-04T08:25:41.191Z</time>
      </trkpt>
      <trkpt lat="48.4376" lon="-2.09595">
        <ele>107.56</ele>
        <time>2025-06-04T08:25:40.805Z</time>
      </trkpt>
      <trkpt lat="48.43756" lon="-2.09598">
        <ele>107.55</ele>
        <time>2025-06-04T08:25:40.082Z</time>
      </trkpt>
      <trkpt lat="48.4375" lon="-2.09606">
        <ele>107.520004</ele>
        <time>2025-06-04T08:25:38.263Z</time>
      </trkpt>
      <trkpt lat="48.43729" lon="-2.09633">
        <ele>107.47</ele>
        <time>2025-06-04T08:25:37.122Z</time>
      </trkpt>
      <trkpt lat="48.43728" lon="-2.09632">
        <ele>107.43</ele>
        <time>2025-06-04T08:25:35.196Z</time>
      </trkpt>
      <trkpt lat="48.43728" lon="-2.09631">
        <ele>107.39</ele>
        <time>2025-06-04T08:25:34.255Z</time>
      </trkpt>
      <trkpt lat="48.43729" lon="-2.09629">
        <ele>107.33</ele>
        <time>2025-06-04T08:25:33.272Z</time>
      </trkpt>
      <trkpt lat="48.43731" lon="-2.09627">
        <ele>107.26</ele>
        <time>2025-06-04T08:25:32.221Z</time>
      </trkpt>
      <trkpt lat="48.43734" lon="-2.09624">
        <ele>107.19</ele>
        <time>2025-06-04T08:25:31.249Z</time>
      </trkpt>
      <trkpt lat="48.43731" lon="-2.09628">
        <ele>107.12</ele>
        <time>2025-06-04T08:25:31.071Z</time>
      </trkpt>
      <trkpt lat="48.43727" lon="-2.09631">
        <ele>107.04</ele>
        <time>2025-06-04T08:25:29.267Z</time>
      </trkpt>
      <trkpt lat="48.43724" lon="-2.09634">
        <ele>106.97</ele>
        <time>2025-06-04T08:25:28.258Z</time>
      </trkpt>
      <trkpt lat="48.43721" lon="-2.09638">
        <ele>106.9</ele>
        <time>2025-06-04T08:25:27.265Z</time>
      </trkpt>
      <trkpt lat="48.43718" lon="-2.09641">
        <ele>106.83</ele>
        <time>2025-06-04T08:25:26.271Z</time>
      </trkpt>
      <trkpt lat="48.43715" lon="-2.09644">
        <ele>106.74</ele>
        <time>2025-06-04T08:25:26.083Z</time>
      </trkpt>
      <trkpt lat="48.43711" lon="-2.09646">
        <ele>106.66</ele>
        <time>2025-06-04T08:25:24.269Z</time>
      </trkpt>
      <trkpt lat="48.43706" lon="-2.09648">
        <ele>106.58</ele>
        <time>2025-06-04T08:25:23.265Z</time>
      </trkpt>
      <trkpt lat="48.43701" lon="-2.0965">
        <ele>106.520004</ele>
        <time>2025-06-04T08:25:22.239Z</time>
      </trkpt>
      <trkpt lat="48.43697" lon="-2.09652">
        <ele>106.46</ele>
        <time>2025-06-04T08:25:22.072Z</time>
      </trkpt>
      <trkpt lat="48.43691" lon="-2.09655">
        <ele>106.4</ele>
        <time>2025-06-04T08:25:20.278Z</time>
      </trkpt>
      <trkpt lat="48.43687" lon="-2.09657">
        <ele>106.33</ele>
        <time>2025-06-04T08:25:19.259Z</time>
      </trkpt>
      <trkpt lat="48.43684" lon="-2.09658">
        <ele>106.24</ele>
        <time>2025-06-04T08:25:18.258Z</time>
      </trkpt>
      <trkpt lat="48.43681" lon="-2.09659">
        <ele>106.13</ele>
        <time>2025-06-04T08:25:17.288Z</time>
      </trkpt>
      <trkpt lat="48.43677" lon="-2.0966">
        <ele>105.99</ele>
        <time>2025-06-04T08:25:16.261Z</time>
      </trkpt>
      <trkpt lat="48.43673" lon="-2.09662">
        <ele>105.729996</ele>
        <time>2025-06-04T08:25:15.117Z</time>
      </trkpt>
      <trkpt lat="48.43664" lon="-2.09662">
        <ele>105.6</ele>
        <time>2025-06-04T08:25:13.156Z</time>
      </trkpt>
      <trkpt lat="48.4366" lon="-2.09662">
        <ele>105.479996</ele>
        <time>2025-06-04T08:25:12.588Z</time>
      </trkpt>
      <trkpt lat="48.43655" lon="-2.09662">
        <ele>105.37</ele>
        <time>2025-06-04T08:25:11.676Z</time>
      </trkpt>
      <trkpt lat="48.43651" lon="-2.09662">
        <ele>105.3</ele>
        <time>2025-06-04T08:25:10.278Z</time>
      </trkpt>
      <trkpt lat="48.43646" lon="-2.09663">
        <ele>105.24</ele>
        <time>2025-06-04T08:25:10.091Z</time>
      </trkpt>
      <trkpt lat="48.43639" lon="-2.09667">
        <ele>105.18</ele>
        <time>2025-06-04T08:25:08.169Z</time>
      </trkpt>
      <trkpt lat="48.43625" lon="-2.09676">
        <ele>105.13</ele>
        <time>2025-06-04T08:25:08.101Z</time>
      </trkpt>
      <trkpt lat="48.43627" lon="-2.09674">
        <ele>105.08</ele>
        <time>2025-06-04T08:25:06.136Z</time>
      </trkpt>
      <trkpt lat="48.43631" lon="-2.09672">
        <ele>105.05</ele>
        <time>2025-06-04T08:25:06.068Z</time>
      </trkpt>
      <trkpt lat="48.43626" lon="-2.09674">
        <ele>105.020004</ele>
        <time>2025-06-04T08:25:04.586Z</time>
      </trkpt>
      <trkpt lat="48.43621" lon="-2.09676">
        <ele>105</ele>
        <time>2025-06-04T08:25:04.006Z</time>
      </trkpt>
      <trkpt lat="48.43616" lon="-2.09678">
        <ele>105.020004</ele>
        <time>2025-06-04T08:25:03.088Z</time>
      </trkpt>
      <trkpt lat="48.4361" lon="-2.0968">
        <ele>105.03</ele>
        <time>2025-06-04T08:25:01.593Z</time>
      </trkpt>
      <trkpt lat="48.43606" lon="-2.09681">
        <ele>105.05</ele>
        <time>2025-06-04T08:25:00.124Z</time>
      </trkpt>
      <trkpt lat="48.43602" lon="-2.09683">
        <ele>105.08</ele>
        <time>2025-06-04T08:24:59.452Z</time>
      </trkpt>
      <trkpt lat="48.43599" lon="-2.09684">
        <ele>105.1</ele>
        <time>2025-06-04T08:24:59.113Z</time>
      </trkpt>
      <trkpt lat="48.43594" lon="-2.09686">
        <ele>105.13</ele>
        <time>2025-06-04T08:24:57.589Z</time>
      </trkpt>
      <trkpt lat="48.4359" lon="-2.09688">
        <ele>105.16</ele>
        <time>2025-06-04T08:24:56.135Z</time>
      </trkpt>
      <trkpt lat="48.43585" lon="-2.09691">
        <ele>105.19</ele>
        <time>2025-06-04T08:24:55.665Z</time>
      </trkpt>
      <trkpt lat="48.43574" lon="-2.09694">
        <ele>105.22</ele>
        <time>2025-06-04T08:24:54.966Z</time>
      </trkpt>
      <trkpt lat="48.43571" lon="-2.09695">
        <ele>105.25</ele>
        <time>2025-06-04T08:24:53.281Z</time>
      </trkpt>
      <trkpt lat="48.43566" lon="-2.09697">
        <ele>105.28</ele>
        <time>2025-06-04T08:24:53.074Z</time>
      </trkpt>
      <trkpt lat="48.43562" lon="-2.09699">
        <ele>105.31</ele>
        <time>2025-06-04T08:24:51.650Z</time>
      </trkpt>
      <trkpt lat="48.43559" lon="-2.09701">
        <ele>105.34</ele>
        <time>2025-06-04T08:24:50.895Z</time>
      </trkpt>
      <trkpt lat="48.43559" lon="-2.09702">
        <ele>105.38</ele>
        <time>2025-06-04T08:24:49.585Z</time>
      </trkpt>
      <trkpt lat="48.43555" lon="-2.09704">
        <ele>105.41</ele>
        <time>2025-06-04T08:24:48.583Z</time>
      </trkpt>
      <trkpt lat="48.43552" lon="-2.09708">
        <ele>105.45</ele>
        <time>2025-06-04T08:24:47.632Z</time>
      </trkpt>
      <trkpt lat="48.43549" lon="-2.09712">
        <ele>105.49</ele>
        <time>2025-06-04T08:24:47.087Z</time>
      </trkpt>
      <trkpt lat="48.43545" lon="-2.09716">
        <ele>105.520004</ele>
        <time>2025-06-04T08:24:46.033Z</time>
      </trkpt>
      <trkpt lat="48.43541" lon="-2.0972">
        <ele>105.53</ele>
        <time>2025-06-04T08:24:44.290Z</time>
      </trkpt>
      <trkpt lat="48.43538" lon="-2.09724">
        <ele>105.54</ele>
        <time>2025-06-04T08:24:43.610Z</time>
      </trkpt>
      <trkpt lat="48.43534" lon="-2.09728">
        <ele>105.53</ele>
        <time>2025-06-04T08:24:43.038Z</time>
      </trkpt>
      <trkpt lat="48.4353" lon="-2.09731">
        <ele>105.51</ele>
        <time>2025-06-04T08:24:41.579Z</time>
      </trkpt>
      <trkpt lat="48.43525" lon="-2.09735">
        <ele>105.46</ele>
        <time>2025-06-04T08:24:40.975Z</time>
      </trkpt>
      <trkpt lat="48.4352" lon="-2.0974">
        <ele>105.41</ele>
        <time>2025-06-04T08:24:40.073Z</time>
      </trkpt>
      <trkpt lat="48.43516" lon="-2.09743">
        <ele>105.35</ele>
        <time>2025-06-04T08:24:38.601Z</time>
      </trkpt>
      <trkpt lat="48.43512" lon="-2.09744">
        <ele>105.3</ele>
        <time>2025-06-04T08:24:37.253Z</time>
      </trkpt>
      <trkpt lat="48.43507" lon="-2.09745">
        <ele>105.229996</ele>
        <time>2025-06-04T08:24:36.883Z</time>
      </trkpt>
      <trkpt lat="48.43502" lon="-2.09745">
        <ele>105.2</ele>
        <time>2025-06-04T08:24:35.574Z</time>
      </trkpt>
      <trkpt lat="48.43499" lon="-2.09745">
        <ele>105.17</ele>
        <time>2025-06-04T08:24:34.244Z</time>
      </trkpt>
      <trkpt lat="48.43495" lon="-2.09747">
        <ele>105.14</ele>
        <time>2025-06-04T08:24:34.075Z</time>
      </trkpt>
      <trkpt lat="48.43491" lon="-2.0975">
        <ele>105.11</ele>
        <time>2025-06-04T08:24:32.274Z</time>
      </trkpt>
      <trkpt lat="48.43488" lon="-2.09755">
        <ele>105.06</ele>
        <time>2025-06-04T08:24:32.062Z</time>
      </trkpt>
      <trkpt lat="48.43484" lon="-2.09758">
        <ele>105.020004</ele>
        <time>2025-06-04T08:24:30.550Z</time>
      </trkpt>
      <trkpt lat="48.43481" lon="-2.09762">
        <ele>104.97</ele>
        <time>2025-06-04T08:24:29.571Z</time>
      </trkpt>
      <trkpt lat="48.43478" lon="-2.09766">
        <ele>104.89</ele>
        <time>2025-06-04T08:24:28.583Z</time>
      </trkpt>
      <trkpt lat="48.43474" lon="-2.09771">
        <ele>104.79</ele>
        <time>2025-06-04T08:24:27.269Z</time>
      </trkpt>
      <trkpt lat="48.4347" lon="-2.09777">
        <ele>104.68</ele>
        <time>2025-06-04T08:24:27.064Z</time>
      </trkpt>
      <trkpt lat="48.43467" lon="-2.09781">
        <ele>104.53</ele>
        <time>2025-06-04T08:24:25.274Z</time>
      </trkpt>
      <trkpt lat="48.43464" lon="-2.09785">
        <ele>104.37</ele>
        <time>2025-06-04T08:24:25.039Z</time>
      </trkpt>
      <trkpt lat="48.4346" lon="-2.09788">
        <ele>104.17</ele>
        <time>2025-06-04T08:24:23.572Z</time>
      </trkpt>
      <trkpt lat="48.43457" lon="-2.09792">
        <ele>103.95</ele>
        <time>2025-06-04T08:24:22.626Z</time>
      </trkpt>
      <trkpt lat="48.43454" lon="-2.09795">
        <ele>103.71</ele>
        <time>2025-06-04T08:24:21.543Z</time>
      </trkpt>
      <trkpt lat="48.43451" lon="-2.09799">
        <ele>103.46</ele>
        <time>2025-06-04T08:24:20.277Z</time>
      </trkpt>
      <trkpt lat="48.43448" lon="-2.09802">
        <ele>103.18</ele>
        <time>2025-06-04T08:24:20.050Z</time>
      </trkpt>
      <trkpt lat="48.43445" lon="-2.09805">
        <ele>102.89</ele>
        <time>2025-06-04T08:24:18.961Z</time>
      </trkpt>
      <trkpt lat="48.43443" lon="-2.09808">
        <ele>102.6</ele>
        <time>2025-06-04T08:24:17.672Z</time>
      </trkpt>
      <trkpt lat="48.4344" lon="-2.0981">
        <ele>102.32</ele>
        <time>2025-06-04T08:24:16.583Z</time>
      </trkpt>
      <trkpt lat="48.43437" lon="-2.09813">
        <ele>102.04</ele>
        <time>2025-06-04T08:24:15.271Z</time>
      </trkpt>
      <trkpt lat="48.43434" lon="-2.09815">
        <ele>101.8</ele>
        <time>2025-06-04T08:24:14.891Z</time>
      </trkpt>
      <trkpt lat="48.43431" lon="-2.09817">
        <ele>101.58</ele>
        <time>2025-06-04T08:24:13.878Z</time>
      </trkpt>
      <trkpt lat="48.43428" lon="-2.09819">
        <ele>101.32</ele>
        <time>2025-06-04T08:24:12.245Z</time>
      </trkpt>
      <trkpt lat="48.43424" lon="-2.09823">
        <ele>101.07</ele>
        <time>2025-06-04T08:24:12.047Z</time>
      </trkpt>
      <trkpt lat="48.43422" lon="-2.09825">
        <ele>100.89</ele>
        <time>2025-06-04T08:24:10.454Z</time>
      </trkpt>
      <trkpt lat="48.4342" lon="-2.09827">
        <ele>100.68</ele>
        <time>2025-06-04T08:24:09.583Z</time>
      </trkpt>
      <trkpt lat="48.43419" lon="-2.09828">
        <ele>100.49</ele>
        <time>2025-06-04T08:24:08.636Z</time>
      </trkpt>
      <trkpt lat="48.43417" lon="-2.0983">
        <ele>100.29</ele>
        <time>2025-06-04T08:24:07.583Z</time>
      </trkpt>
      <trkpt lat="48.43414" lon="-2.09833">
        <ele>100.11</ele>
        <time>2025-06-04T08:24:06.591Z</time>
      </trkpt>
      <trkpt lat="48.43412" lon="-2.09836">
        <ele>99.95</ele>
        <time>2025-06-04T08:24:05.613Z</time>
      </trkpt>
      <trkpt lat="48.4341" lon="-2.09839">
        <ele>99.8</ele>
        <time>2025-06-04T08:24:04.645Z</time>
      </trkpt>
      <trkpt lat="48.43406" lon="-2.09843">
        <ele>99.71</ele>
        <time>2025-06-04T08:24:03.572Z</time>
      </trkpt>
      <trkpt lat="48.43403" lon="-2.09846">
        <ele>99.6</ele>
        <time>2025-06-04T08:24:02.599Z</time>
      </trkpt>
      <trkpt lat="48.43399" lon="-2.09851">
        <ele>99.520004</ele>
        <time>2025-06-04T08:24:01.582Z</time>
      </trkpt>
      <trkpt lat="48.43396" lon="-2.09855">
        <ele>99.46</ele>
        <time>2025-06-04T08:24:00.923Z</time>
      </trkpt>
      <trkpt lat="48.43392" lon="-2.09859">
        <ele>99.41</ele>
        <time>2025-06-04T08:23:59.636Z</time>
      </trkpt>
      <trkpt lat="48.43389" lon="-2.09864">
        <ele>99.38</ele>
        <time>2025-06-04T08:23:58.594Z</time>
      </trkpt>
      <trkpt lat="48.43385" lon="-2.09868">
        <ele>99.35</ele>
        <time>2025-06-04T08:23:57.571Z</time>
      </trkpt>
      <trkpt lat="48.43382" lon="-2.09873">
        <ele>99.38</ele>
        <time>2025-06-04T08:23:56.637Z</time>
      </trkpt>
      <trkpt lat="48.43378" lon="-2.09877">
        <ele>99.41</ele>
        <time>2025-06-04T08:23:55.601Z</time>
      </trkpt>
      <trkpt lat="48.43374" lon="-2.09882">
        <ele>99.47</ele>
        <time>2025-06-04T08:23:54.531Z</time>
      </trkpt>
      <trkpt lat="48.4337" lon="-2.09887">
        <ele>99.56</ele>
        <time>2025-06-04T08:23:53.607Z</time>
      </trkpt>
      <trkpt lat="48.43367" lon="-2.09891">
        <ele>99.66</ele>
        <time>2025-06-04T08:23:52.637Z</time>
      </trkpt>
      <trkpt lat="48.43363" lon="-2.09895">
        <ele>99.79</ele>
        <time>2025-06-04T08:23:51.928Z</time>
      </trkpt>
      <trkpt lat="48.43358" lon="-2.09899">
        <ele>99.93</ele>
        <time>2025-06-04T08:23:50.982Z</time>
      </trkpt>
      <trkpt lat="48.43354" lon="-2.09902">
        <ele>100.08</ele>
        <time>2025-06-04T08:23:49.448Z</time>
      </trkpt>
      <trkpt lat="48.43349" lon="-2.09905">
        <ele>100.229996</ele>
        <time>2025-06-04T08:23:48.456Z</time>
      </trkpt>
      <trkpt lat="48.43344" lon="-2.09909">
        <ele>100.39</ele>
        <time>2025-06-04T08:23:47.634Z</time>
      </trkpt>
      <trkpt lat="48.43341" lon="-2.09912">
        <ele>100.53</ele>
        <time>2025-06-04T08:23:46.586Z</time>
      </trkpt>
      <trkpt lat="48.43336" lon="-2.09915">
        <ele>100.68</ele>
        <time>2025-06-04T08:23:45.569Z</time>
      </trkpt>
      <trkpt lat="48.43333" lon="-2.09918">
        <ele>100.82</ele>
        <time>2025-06-04T08:23:44.662Z</time>
      </trkpt>
      <trkpt lat="48.43328" lon="-2.09922">
        <ele>100.94</ele>
        <time>2025-06-04T08:23:44.012Z</time>
      </trkpt>
      <trkpt lat="48.43324" lon="-2.09925">
        <ele>101.01</ele>
        <time>2025-06-04T08:23:42.874Z</time>
      </trkpt>
      <trkpt lat="48.4332" lon="-2.09928">
        <ele>101.05</ele>
        <time>2025-06-04T08:23:41.453Z</time>
      </trkpt>
      <trkpt lat="48.43315" lon="-2.09932">
        <ele>101.1</ele>
        <time>2025-06-04T08:23:40.599Z</time>
      </trkpt>
      <trkpt lat="48.43311" lon="-2.09935">
        <ele>101.14</ele>
        <time>2025-06-04T08:23:39.534Z</time>
      </trkpt>
      <trkpt lat="48.43306" lon="-2.09938">
        <ele>101.14</ele>
        <time>2025-06-04T08:23:38.576Z</time>
      </trkpt>
      <trkpt lat="48.43302" lon="-2.09942">
        <ele>101.13</ele>
        <time>2025-06-04T08:23:37.527Z</time>
      </trkpt>
      <trkpt lat="48.43298" lon="-2.09945">
        <ele>101.1</ele>
        <time>2025-06-04T08:23:36.630Z</time>
      </trkpt>
      <trkpt lat="48.43293" lon="-2.09948">
        <ele>101.05</ele>
        <time>2025-06-04T08:23:35.955Z</time>
      </trkpt>
      <trkpt lat="48.43289" lon="-2.09951">
        <ele>101</ele>
        <time>2025-06-04T08:23:34.558Z</time>
      </trkpt>
      <trkpt lat="48.43285" lon="-2.09954">
        <ele>100.94</ele>
        <time>2025-06-04T08:23:33.510Z</time>
      </trkpt>
      <trkpt lat="48.43281" lon="-2.09958">
        <ele>100.88</ele>
        <time>2025-06-04T08:23:32.980Z</time>
      </trkpt>
      <trkpt lat="48.43277" lon="-2.09961">
        <ele>100.82</ele>
        <time>2025-06-04T08:23:31.551Z</time>
      </trkpt>
      <trkpt lat="48.43273" lon="-2.09965">
        <ele>100.76</ele>
        <time>2025-06-04T08:23:30.617Z</time>
      </trkpt>
      <trkpt lat="48.43269" lon="-2.09969">
        <ele>100.71</ele>
        <time>2025-06-04T08:23:29.574Z</time>
      </trkpt>
      <trkpt lat="48.43264" lon="-2.09975">
        <ele>100.68</ele>
        <time>2025-06-04T08:23:28.639Z</time>
      </trkpt>
      <trkpt lat="48.4326" lon="-2.0998">
        <ele>100.64</ele>
        <time>2025-06-04T08:23:27.585Z</time>
      </trkpt>
      <trkpt lat="48.43256" lon="-2.09986">
        <ele>100.63</ele>
        <time>2025-06-04T08:23:26.624Z</time>
      </trkpt>
      <trkpt lat="48.4325" lon="-2.09995">
        <ele>100.62</ele>
        <time>2025-06-04T08:23:25.463Z</time>
      </trkpt>
      <trkpt lat="48.43243" lon="-2.10009">
        <ele>100.64</ele>
        <time>2025-06-04T08:23:24.777Z</time>
      </trkpt>
      <trkpt lat="48.43235" lon="-2.10022">
        <ele>100.66</ele>
        <time>2025-06-04T08:23:23.572Z</time>
      </trkpt>
      <trkpt lat="48.43221" lon="-2.10041">
        <ele>100.68</ele>
        <time>2025-06-04T08:23:22.581Z</time>
      </trkpt>
      <trkpt lat="48.43201" lon="-2.10069">
        <ele>100.74</ele>
        <time>2025-06-04T08:23:21.514Z</time>
      </trkpt>
      <trkpt lat="48.43201" lon="-2.1007">
        <ele>100.79</ele>
        <time>2025-06-04T08:23:20.520Z</time>
      </trkpt>
      <trkpt lat="48.43203" lon="-2.10066">
        <ele>100.84</ele>
        <time>2025-06-04T08:23:19.582Z</time>
      </trkpt>
      <trkpt lat="48.43202" lon="-2.10067">
        <ele>100.89</ele>
        <time>2025-06-04T08:23:18.583Z</time>
      </trkpt>
      <trkpt lat="48.43202" lon="-2.10066">
        <ele>100.93</ele>
        <time>2025-06-04T08:23:17.612Z</time>
      </trkpt>
      <trkpt lat="48.43201" lon="-2.10068">
        <ele>100.979996</ele>
        <time>2025-06-04T08:23:16.621Z</time>
      </trkpt>
      <trkpt lat="48.432" lon="-2.10069">
        <ele>101.020004</ele>
        <time>2025-06-04T08:23:15.833Z</time>
      </trkpt>
      <trkpt lat="48.43198" lon="-2.10071">
        <ele>101.07</ele>
        <time>2025-06-04T08:23:14.574Z</time>
      </trkpt>
      <trkpt lat="48.43197" lon="-2.10072">
        <ele>101.12</ele>
        <time>2025-06-04T08:23:13.559Z</time>
      </trkpt>
      <trkpt lat="48.43195" lon="-2.10075">
        <ele>101.16</ele>
        <time>2025-06-04T08:23:12.548Z</time>
      </trkpt>
      <trkpt lat="48.43194" lon="-2.10076">
        <ele>101.19</ele>
        <time>2025-06-04T08:23:11.795Z</time>
      </trkpt>
      <trkpt lat="48.43192" lon="-2.1008">
        <ele>101.24</ele>
        <time>2025-06-04T08:23:10.523Z</time>
      </trkpt>
      <trkpt lat="48.43189" lon="-2.10085">
        <ele>101.26</ele>
        <time>2025-06-04T08:23:09.797Z</time>
      </trkpt>
      <trkpt lat="48.43187" lon="-2.1009">
        <ele>101.28</ele>
        <time>2025-06-04T08:23:08.536Z</time>
      </trkpt>
      <trkpt lat="48.43184" lon="-2.10096">
        <ele>101.3</ele>
        <time>2025-06-04T08:23:07.525Z</time>
      </trkpt>
      <trkpt lat="48.43181" lon="-2.10102">
        <ele>101.31</ele>
        <time>2025-06-04T08:23:06.479Z</time>
      </trkpt>
      <trkpt lat="48.43175" lon="-2.10113">
        <ele>101.32</ele>
        <time>2025-06-04T08:23:05.632Z</time>
      </trkpt>
      <trkpt lat="48.43174" lon="-2.10115">
        <ele>101.32</ele>
        <time>2025-06-04T08:23:04.710Z</time>
      </trkpt>
      <trkpt lat="48.4317" lon="-2.10119">
        <ele>101.33</ele>
        <time>2025-06-04T08:23:03.532Z</time>
      </trkpt>
      <trkpt lat="48.43165" lon="-2.10124">
        <ele>101.33</ele>
        <time>2025-06-04T08:23:02.509Z</time>
      </trkpt>
      <trkpt lat="48.43161" lon="-2.10129">
        <ele>101.35</ele>
        <time>2025-06-04T08:23:01.583Z</time>
      </trkpt>
      <trkpt lat="48.43157" lon="-2.10134">
        <ele>101.35</ele>
        <time>2025-06-04T08:23:00.121Z</time>
      </trkpt>
      <trkpt lat="48.43153" lon="-2.10139">
        <ele>101.36</ele>
        <time>2025-06-04T08:22:59.541Z</time>
      </trkpt>
      <trkpt lat="48.4315" lon="-2.10144">
        <ele>101.37</ele>
        <time>2025-06-04T08:22:58.098Z</time>
      </trkpt>
      <trkpt lat="48.43145" lon="-2.1015">
        <ele>101.37</ele>
        <time>2025-06-04T08:22:57.793Z</time>
      </trkpt>
      <trkpt lat="48.43141" lon="-2.10154">
        <ele>101.37</ele>
        <time>2025-06-04T08:22:56.107Z</time>
      </trkpt>
      <trkpt lat="48.43137" lon="-2.1016">
        <ele>101.36</ele>
        <time>2025-06-04T08:22:55.594Z</time>
      </trkpt>
      <trkpt lat="48.43133" lon="-2.10163">
        <ele>101.33</ele>
        <time>2025-06-04T08:22:53.999Z</time>
      </trkpt>
      <trkpt lat="48.43129" lon="-2.10168">
        <ele>101.29</ele>
        <time>2025-06-04T08:22:53.648Z</time>
      </trkpt>
      <trkpt lat="48.43125" lon="-2.10171">
        <ele>101.26</ele>
        <time>2025-06-04T08:22:52.053Z</time>
      </trkpt>
      <trkpt lat="48.43122" lon="-2.10173">
        <ele>101.21</ele>
        <time>2025-06-04T08:22:51.571Z</time>
      </trkpt>
      <trkpt lat="48.43119" lon="-2.10176">
        <ele>101.16</ele>
        <time>2025-06-04T08:22:50.029Z</time>
      </trkpt>
      <trkpt lat="48.43115" lon="-2.10177">
        <ele>101.11</ele>
        <time>2025-06-04T08:22:49.584Z</time>
      </trkpt>
      <trkpt lat="48.4311" lon="-2.1018">
        <ele>101.06</ele>
        <time>2025-06-04T08:22:48.427Z</time>
      </trkpt>
      <trkpt lat="48.43103" lon="-2.10183">
        <ele>101</ele>
        <time>2025-06-04T08:22:47.535Z</time>
      </trkpt>
      <trkpt lat="48.43087" lon="-2.10191">
        <ele>100.97</ele>
        <time>2025-06-04T08:22:45.982Z</time>
      </trkpt>
      <trkpt lat="48.43079" lon="-2.10193">
        <ele>100.94</ele>
        <time>2025-06-04T08:22:45.522Z</time>
      </trkpt>
      <trkpt lat="48.43078" lon="-2.10193">
        <ele>100.91</ele>
        <time>2025-06-04T08:22:43.956Z</time>
      </trkpt>
      <trkpt lat="48.43078" lon="-2.10191">
        <ele>100.86</ele>
        <time>2025-06-04T08:22:43.896Z</time>
      </trkpt>
      <trkpt lat="48.43079" lon="-2.1019">
        <ele>100.75</ele>
        <time>2025-06-04T08:22:41.574Z</time>
      </trkpt>
      <trkpt lat="48.43081" lon="-2.1019">
        <ele>100.7</ele>
        <time>2025-06-04T08:22:40.474Z</time>
      </trkpt>
      <trkpt lat="48.43077" lon="-2.10189">
        <ele>100.66</ele>
        <time>2025-06-04T08:22:39.733Z</time>
      </trkpt>
      <trkpt lat="48.43073" lon="-2.10189">
        <ele>100.61</ele>
        <time>2025-06-04T08:22:38.502Z</time>
      </trkpt>
      <trkpt lat="48.43069" lon="-2.10188">
        <ele>100.56</ele>
        <time>2025-06-04T08:22:37.580Z</time>
      </trkpt>
      <trkpt lat="48.43065" lon="-2.10187">
        <ele>100.520004</ele>
        <time>2025-06-04T08:22:36.626Z</time>
      </trkpt>
      <trkpt lat="48.4306" lon="-2.10186">
        <ele>100.49</ele>
        <time>2025-06-04T08:22:35.681Z</time>
      </trkpt>
      <trkpt lat="48.43056" lon="-2.10185">
        <ele>100.45</ele>
        <time>2025-06-04T08:22:34.480Z</time>
      </trkpt>
      <trkpt lat="48.43052" lon="-2.10184">
        <ele>100.4</ele>
        <time>2025-06-04T08:22:33.586Z</time>
      </trkpt>
      <trkpt lat="48.43047" lon="-2.10185">
        <ele>100.36</ele>
        <time>2025-06-04T08:22:32.609Z</time>
      </trkpt>
      <trkpt lat="48.43043" lon="-2.10186">
        <ele>100.32</ele>
        <time>2025-06-04T08:22:31.595Z</time>
      </trkpt>
      <trkpt lat="48.43039" lon="-2.10188">
        <ele>100.28</ele>
        <time>2025-06-04T08:22:30.839Z</time>
      </trkpt>
      <trkpt lat="48.43036" lon="-2.10192">
        <ele>100.24</ele>
        <time>2025-06-04T08:22:29.906Z</time>
      </trkpt>
      <trkpt lat="48.43034" lon="-2.10197">
        <ele>100.19</ele>
        <time>2025-06-04T08:22:28.486Z</time>
      </trkpt>
      <trkpt lat="48.43031" lon="-2.10202">
        <ele>100.15</ele>
        <time>2025-06-04T08:22:27.531Z</time>
      </trkpt>
      <trkpt lat="48.43029" lon="-2.10207">
        <ele>100.09</ele>
        <time>2025-06-04T08:22:26.535Z</time>
      </trkpt>
      <trkpt lat="48.43026" lon="-2.10212">
        <ele>100.03</ele>
        <time>2025-06-04T08:22:25.818Z</time>
      </trkpt>
      <trkpt lat="48.43023" lon="-2.10217">
        <ele>99.97</ele>
        <time>2025-06-04T08:22:24.549Z</time>
      </trkpt>
      <trkpt lat="48.43021" lon="-2.10221">
        <ele>99.91</ele>
        <time>2025-06-04T08:22:23.884Z</time>
      </trkpt>
      <trkpt lat="48.43018" lon="-2.10227">
        <ele>99.85</ele>
        <time>2025-06-04T08:22:22.565Z</time>
      </trkpt>
      <trkpt lat="48.43016" lon="-2.10233">
        <ele>99.79</ele>
        <time>2025-06-04T08:22:21.457Z</time>
      </trkpt>
      <trkpt lat="48.43015" lon="-2.10239">
        <ele>99.72</ele>
        <time>2025-06-04T08:22:20.574Z</time>
      </trkpt>
      <trkpt lat="48.43014" lon="-2.10245">
        <ele>99.64</ele>
        <time>2025-06-04T08:22:19.523Z</time>
      </trkpt>
      <trkpt lat="48.43013" lon="-2.10251">
        <ele>99.53</ele>
        <time>2025-06-04T08:22:18.580Z</time>
      </trkpt>
      <trkpt lat="48.43013" lon="-2.10258">
        <ele>99.4</ele>
        <time>2025-06-04T08:22:17.696Z</time>
      </trkpt>
      <trkpt lat="48.43013" lon="-2.10264">
        <ele>99.24</ele>
        <time>2025-06-04T08:22:16.898Z</time>
      </trkpt>
      <trkpt lat="48.43014" lon="-2.1027">
        <ele>99.08</ele>
        <time>2025-06-04T08:22:15.615Z</time>
      </trkpt>
      <trkpt lat="48.43014" lon="-2.10276">
        <ele>98.89</ele>
        <time>2025-06-04T08:22:14.592Z</time>
      </trkpt>
      <trkpt lat="48.43014" lon="-2.10283">
        <ele>98.71</ele>
        <time>2025-06-04T08:22:13.621Z</time>
      </trkpt>
      <trkpt lat="48.43014" lon="-2.10289">
        <ele>98.51</ele>
        <time>2025-06-04T08:22:12.519Z</time>
      </trkpt>
      <trkpt lat="48.43015" lon="-2.10296">
        <ele>98.31</ele>
        <time>2025-06-04T08:22:11.546Z</time>
      </trkpt>
      <trkpt lat="48.43015" lon="-2.10302">
        <ele>98.11</ele>
        <time>2025-06-04T08:22:10.508Z</time>
      </trkpt>
      <trkpt lat="48.43015" lon="-2.10308">
        <ele>97.93</ele>
        <time>2025-06-04T08:22:09.476Z</time>
      </trkpt>
      <trkpt lat="48.43015" lon="-2.10314">
        <ele>97.76</ele>
        <time>2025-06-04T08:22:08.553Z</time>
      </trkpt>
      <trkpt lat="48.43014" lon="-2.1032">
        <ele>97.62</ele>
        <time>2025-06-04T08:22:07.818Z</time>
      </trkpt>
      <trkpt lat="48.43014" lon="-2.10327">
        <ele>97.53</ele>
        <time>2025-06-04T08:22:06.584Z</time>
      </trkpt>
      <trkpt lat="48.43013" lon="-2.10333">
        <ele>97.43</ele>
        <time>2025-06-04T08:22:05.672Z</time>
      </trkpt>
      <trkpt lat="48.43012" lon="-2.10339">
        <ele>97.32</ele>
        <time>2025-06-04T08:22:04.552Z</time>
      </trkpt>
      <trkpt lat="48.43011" lon="-2.10345">
        <ele>97.21</ele>
        <time>2025-06-04T08:22:03.657Z</time>
      </trkpt>
      <trkpt lat="48.43009" lon="-2.10352">
        <ele>97.12</ele>
        <time>2025-06-04T08:22:02.798Z</time>
      </trkpt>
      <trkpt lat="48.43008" lon="-2.10358">
        <ele>97.04</ele>
        <time>2025-06-04T08:22:01.603Z</time>
      </trkpt>
      <trkpt lat="48.43007" lon="-2.10365">
        <ele>96.95</ele>
        <time>2025-06-04T08:22:00.549Z</time>
      </trkpt>
      <trkpt lat="48.43004" lon="-2.10372">
        <ele>96.87</ele>
        <time>2025-06-04T08:21:59.822Z</time>
      </trkpt>
      <trkpt lat="48.43002" lon="-2.10379">
        <ele>96.78</ele>
        <time>2025-06-04T08:21:58.785Z</time>
      </trkpt>
      <trkpt lat="48.42999" lon="-2.10385">
        <ele>96.68</ele>
        <time>2025-06-04T08:21:57.532Z</time>
      </trkpt>
      <trkpt lat="48.42994" lon="-2.10394">
        <ele>96.59</ele>
        <time>2025-06-04T08:21:56.555Z</time>
      </trkpt>
      <trkpt lat="48.42987" lon="-2.10408">
        <ele>96.51</ele>
        <time>2025-06-04T08:21:55.552Z</time>
      </trkpt>
      <trkpt lat="48.42981" lon="-2.10422">
        <ele>96.47</ele>
        <time>2025-06-04T08:21:54.613Z</time>
      </trkpt>
      <trkpt lat="48.42978" lon="-2.10425">
        <ele>96.37</ele>
        <time>2025-06-04T08:21:53.549Z</time>
      </trkpt>
      <trkpt lat="48.42979" lon="-2.10423">
        <ele>96.270004</ele>
        <time>2025-06-04T08:21:52.585Z</time>
      </trkpt>
      <trkpt lat="48.42979" lon="-2.10422">
        <ele>96.16</ele>
        <time>2025-06-04T08:21:51.599Z</time>
      </trkpt>
      <trkpt lat="48.4298" lon="-2.10421">
        <ele>96.04</ele>
        <time>2025-06-04T08:21:50.583Z</time>
      </trkpt>
      <trkpt lat="48.42978" lon="-2.10425">
        <ele>95.94</ele>
        <time>2025-06-04T08:21:49.582Z</time>
      </trkpt>
      <trkpt lat="48.42974" lon="-2.1043">
        <ele>95.82</ele>
        <time>2025-06-04T08:21:48.611Z</time>
      </trkpt>
      <trkpt lat="48.42971" lon="-2.10435">
        <ele>95.68</ele>
        <time>2025-06-04T08:21:47.447Z</time>
      </trkpt>
      <trkpt lat="48.42968" lon="-2.10439">
        <ele>95.56</ele>
        <time>2025-06-04T08:21:46.580Z</time>
      </trkpt>
      <trkpt lat="48.42966" lon="-2.10442">
        <ele>95.44</ele>
        <time>2025-06-04T08:21:45.719Z</time>
      </trkpt>
      <trkpt lat="48.42964" lon="-2.10444">
        <ele>95.32</ele>
        <time>2025-06-04T08:21:44.591Z</time>
      </trkpt>
      <trkpt lat="48.42963" lon="-2.10446">
        <ele>95.19</ele>
        <time>2025-06-04T08:21:42.880Z</time>
      </trkpt>
      <trkpt lat="48.42961" lon="-2.10448">
        <ele>95.03</ele>
        <time>2025-06-04T08:21:42.469Z</time>
      </trkpt>
      <trkpt lat="48.42958" lon="-2.10451">
        <ele>94.89</ele>
        <time>2025-06-04T08:21:41.637Z</time>
      </trkpt>
      <trkpt lat="48.42956" lon="-2.10455">
        <ele>94.729996</ele>
        <time>2025-06-04T08:21:40.821Z</time>
      </trkpt>
      <trkpt lat="48.42953" lon="-2.10458">
        <ele>94.6</ele>
        <time>2025-06-04T08:21:39.568Z</time>
      </trkpt>
      <trkpt lat="48.4295" lon="-2.10461">
        <ele>94.46</ele>
        <time>2025-06-04T08:21:38.535Z</time>
      </trkpt>
      <trkpt lat="48.42948" lon="-2.10464">
        <ele>94.32</ele>
        <time>2025-06-04T08:21:37.580Z</time>
      </trkpt>
      <trkpt lat="48.42945" lon="-2.10468">
        <ele>94.22</ele>
        <time>2025-06-04T08:21:36.669Z</time>
      </trkpt>
      <trkpt lat="48.42942" lon="-2.10472">
        <ele>94.12</ele>
        <time>2025-06-04T08:21:35.534Z</time>
      </trkpt>
      <trkpt lat="48.42939" lon="-2.10476">
        <ele>94.01</ele>
        <time>2025-06-04T08:21:34.579Z</time>
      </trkpt>
      <trkpt lat="48.42936" lon="-2.1048">
        <ele>93.89</ele>
        <time>2025-06-04T08:21:33.421Z</time>
      </trkpt>
      <trkpt lat="48.42933" lon="-2.10485">
        <ele>93.82</ele>
        <time>2025-06-04T08:21:32.699Z</time>
      </trkpt>
      <trkpt lat="48.4293" lon="-2.10489">
        <ele>93.72</ele>
        <time>2025-06-04T08:21:31.818Z</time>
      </trkpt>
      <trkpt lat="48.42927" lon="-2.10493">
        <ele>93.63</ele>
        <time>2025-06-04T08:21:30.576Z</time>
      </trkpt>
      <trkpt lat="48.42924" lon="-2.10497">
        <ele>93.53</ele>
        <time>2025-06-04T08:21:29.501Z</time>
      </trkpt>
      <trkpt lat="48.4292" lon="-2.10503">
        <ele>93.46</ele>
        <time>2025-06-04T08:21:28.561Z</time>
      </trkpt>
      <trkpt lat="48.42918" lon="-2.10507">
        <ele>93.39</ele>
        <time>2025-06-04T08:21:27.733Z</time>
      </trkpt>
      <trkpt lat="48.42915" lon="-2.1051">
        <ele>93.31</ele>
        <time>2025-06-04T08:21:26.626Z</time>
      </trkpt>
      <trkpt lat="48.42913" lon="-2.10513">
        <ele>93.229996</ele>
        <time>2025-06-04T08:21:25.522Z</time>
      </trkpt>
      <trkpt lat="48.4291" lon="-2.10517">
        <ele>93.15</ele>
        <time>2025-06-04T08:21:24.560Z</time>
      </trkpt>
      <trkpt lat="48.42907" lon="-2.10522">
        <ele>93.07</ele>
        <time>2025-06-04T08:21:23.651Z</time>
      </trkpt>
      <trkpt lat="48.42905" lon="-2.10526">
        <ele>93</ele>
        <time>2025-06-04T08:21:22.834Z</time>
      </trkpt>
      <trkpt lat="48.42902" lon="-2.1053">
        <ele>92.93</ele>
        <time>2025-06-04T08:21:21.472Z</time>
      </trkpt>
      <trkpt lat="48.42899" lon="-2.10534">
        <ele>92.86</ele>
        <time>2025-06-04T08:21:20.524Z</time>
      </trkpt>
      <trkpt lat="48.42897" lon="-2.10538">
        <ele>92.79</ele>
        <time>2025-06-04T08:21:19.486Z</time>
      </trkpt>
      <trkpt lat="48.42894" lon="-2.10543">
        <ele>92.72</ele>
        <time>2025-06-04T08:21:18.687Z</time>
      </trkpt>
      <trkpt lat="48.42892" lon="-2.10547">
        <ele>92.64</ele>
        <time>2025-06-04T08:21:17.572Z</time>
      </trkpt>
      <trkpt lat="48.42889" lon="-2.10551">
        <ele>92.58</ele>
        <time>2025-06-04T08:21:16.517Z</time>
      </trkpt>
      <trkpt lat="48.42887" lon="-2.10556">
        <ele>92.5</ele>
        <time>2025-06-04T08:21:15.596Z</time>
      </trkpt>
      <trkpt lat="48.42884" lon="-2.10559">
        <ele>92.44</ele>
        <time>2025-06-04T08:21:14.542Z</time>
      </trkpt>
      <trkpt lat="48.42882" lon="-2.10563">
        <ele>92.38</ele>
        <time>2025-06-04T08:21:13.402Z</time>
      </trkpt>
      <trkpt lat="48.42879" lon="-2.10567">
        <ele>92.33</ele>
        <time>2025-06-04T08:21:12.497Z</time>
      </trkpt>
      <trkpt lat="48.42877" lon="-2.10571">
        <ele>92.270004</ele>
        <time>2025-06-04T08:21:11.476Z</time>
      </trkpt>
      <trkpt lat="48.42874" lon="-2.10575">
        <ele>92.2</ele>
        <time>2025-06-04T08:21:10.226Z</time>
      </trkpt>
      <trkpt lat="48.42871" lon="-2.10579">
        <ele>92.15</ele>
        <time>2025-06-04T08:21:09.831Z</time>
      </trkpt>
      <trkpt lat="48.42868" lon="-2.10583">
        <ele>92.09</ele>
        <time>2025-06-04T08:21:07.969Z</time>
      </trkpt>
      <trkpt lat="48.42865" lon="-2.10586">
        <ele>92.04</ele>
        <time>2025-06-04T08:21:07.581Z</time>
      </trkpt>
      <trkpt lat="48.42863" lon="-2.1059">
        <ele>92.020004</ele>
        <time>2025-06-04T08:21:06.566Z</time>
      </trkpt>
      <trkpt lat="48.4286" lon="-2.10593">
        <ele>91.99</ele>
        <time>2025-06-04T08:21:05.497Z</time>
      </trkpt>
      <trkpt lat="48.42856" lon="-2.10597">
        <ele>91.96</ele>
        <time>2025-06-04T08:21:04.706Z</time>
      </trkpt>
      <trkpt lat="48.42854" lon="-2.106">
        <ele>91.94</ele>
        <time>2025-06-04T08:21:03.571Z</time>
      </trkpt>
      <trkpt lat="48.4285" lon="-2.10603">
        <ele>91.91</ele>
        <time>2025-06-04T08:21:01.863Z</time>
      </trkpt>
      <trkpt lat="48.42847" lon="-2.10607">
        <ele>91.91</ele>
        <time>2025-06-04T08:21:01.342Z</time>
      </trkpt>
      <trkpt lat="48.42844" lon="-2.1061">
        <ele>91.9</ele>
        <time>2025-06-04T08:21:00.449Z</time>
      </trkpt>
      <trkpt lat="48.42841" lon="-2.10613">
        <ele>91.9</ele>
        <time>2025-06-04T08:20:58.840Z</time>
      </trkpt>
      <trkpt lat="48.42838" lon="-2.10616">
        <ele>91.91</ele>
        <time>2025-06-04T08:20:58.383Z</time>
      </trkpt>
      <trkpt lat="48.42836" lon="-2.10619">
        <ele>91.91</ele>
        <time>2025-06-04T08:20:57.465Z</time>
      </trkpt>
      <trkpt lat="48.42833" lon="-2.10621">
        <ele>91.91</ele>
        <time>2025-06-04T08:20:56.575Z</time>
      </trkpt>
      <trkpt lat="48.4283" lon="-2.10625">
        <ele>91.9</ele>
        <time>2025-06-04T08:20:55.728Z</time>
      </trkpt>
      <trkpt lat="48.42827" lon="-2.10628">
        <ele>91.89</ele>
        <time>2025-06-04T08:20:54.548Z</time>
      </trkpt>
      <trkpt lat="48.42825" lon="-2.10631">
        <ele>91.88</ele>
        <time>2025-06-04T08:20:53.497Z</time>
      </trkpt>
      <trkpt lat="48.42822" lon="-2.10633">
        <ele>91.84</ele>
        <time>2025-06-04T08:20:52.486Z</time>
      </trkpt>
      <trkpt lat="48.42819" lon="-2.10637">
        <ele>91.78</ele>
        <time>2025-06-04T08:20:51.687Z</time>
      </trkpt>
      <trkpt lat="48.42817" lon="-2.1064">
        <ele>91.72</ele>
        <time>2025-06-04T08:20:50.817Z</time>
      </trkpt>
      <trkpt lat="48.42814" lon="-2.10643">
        <ele>91.65</ele>
        <time>2025-06-04T08:20:48.837Z</time>
      </trkpt>
      <trkpt lat="48.42812" lon="-2.10647">
        <ele>91.57</ele>
        <time>2025-06-04T08:20:48.547Z</time>
      </trkpt>
      <trkpt lat="48.4281" lon="-2.10649">
        <ele>91.47</ele>
        <time>2025-06-04T08:20:47.612Z</time>
      </trkpt>
      <trkpt lat="48.42808" lon="-2.10651">
        <ele>91.37</ele>
        <time>2025-06-04T08:20:46.670Z</time>
      </trkpt>
      <trkpt lat="48.42806" lon="-2.10653">
        <ele>91.26</ele>
        <time>2025-06-04T08:20:45.481Z</time>
      </trkpt>
      <trkpt lat="48.42804" lon="-2.10655">
        <ele>91.15</ele>
        <time>2025-06-04T08:20:44.780Z</time>
      </trkpt>
      <trkpt lat="48.42802" lon="-2.10657">
        <ele>91.04</ele>
        <time>2025-06-04T08:20:43.520Z</time>
      </trkpt>
      <trkpt lat="48.42799" lon="-2.1066">
        <ele>90.92</ele>
        <time>2025-06-04T08:20:42.435Z</time>
      </trkpt>
      <trkpt lat="48.42797" lon="-2.10661">
        <ele>90.8</ele>
        <time>2025-06-04T08:20:41.311Z</time>
      </trkpt>
      <trkpt lat="48.42794" lon="-2.10664">
        <ele>90.68</ele>
        <time>2025-06-04T08:20:40.333Z</time>
      </trkpt>
      <trkpt lat="48.42791" lon="-2.10666">
        <ele>90.56</ele>
        <time>2025-06-04T08:20:39.792Z</time>
      </trkpt>
      <trkpt lat="48.42789" lon="-2.10668">
        <ele>90.43</ele>
        <time>2025-06-04T08:20:37.850Z</time>
      </trkpt>
      <trkpt lat="48.42786" lon="-2.1067">
        <ele>90.3</ele>
        <time>2025-06-04T08:20:37.501Z</time>
      </trkpt>
      <trkpt lat="48.42784" lon="-2.10672">
        <ele>90.15</ele>
        <time>2025-06-04T08:20:36.552Z</time>
      </trkpt>
      <trkpt lat="48.42781" lon="-2.10676">
        <ele>89.99</ele>
        <time>2025-06-04T08:20:35.423Z</time>
      </trkpt>
      <trkpt lat="48.42779" lon="-2.1068">
        <ele>89.81</ele>
        <time>2025-06-04T08:20:34.752Z</time>
      </trkpt>
      <trkpt lat="48.42777" lon="-2.10684">
        <ele>89.63</ele>
        <time>2025-06-04T08:20:32.817Z</time>
      </trkpt>
      <trkpt lat="48.42775" lon="-2.10687">
        <ele>89.41</ele>
        <time>2025-06-04T08:20:32.503Z</time>
      </trkpt>
      <trkpt lat="48.42772" lon="-2.10691">
        <ele>89.19</ele>
        <time>2025-06-04T08:20:31.570Z</time>
      </trkpt>
      <trkpt lat="48.4277" lon="-2.10694">
        <ele>88.98</ele>
        <time>2025-06-04T08:20:30.624Z</time>
      </trkpt>
      <trkpt lat="48.42767" lon="-2.10698">
        <ele>88.77</ele>
        <time>2025-06-04T08:20:29.446Z</time>
      </trkpt>
      <trkpt lat="48.42764" lon="-2.10701">
        <ele>88.53</ele>
        <time>2025-06-04T08:20:28.581Z</time>
      </trkpt>
      <trkpt lat="48.42762" lon="-2.10704">
        <ele>88.32</ele>
        <time>2025-06-04T08:20:27.507Z</time>
      </trkpt>
      <trkpt lat="48.42759" lon="-2.10706">
        <ele>88.07</ele>
        <time>2025-06-04T08:20:26.536Z</time>
      </trkpt>
      <trkpt lat="48.42755" lon="-2.10709">
        <ele>87.84</ele>
        <time>2025-06-04T08:20:25.670Z</time>
      </trkpt>
      <trkpt lat="48.42752" lon="-2.10711">
        <ele>87.59</ele>
        <time>2025-06-04T08:20:24.781Z</time>
      </trkpt>
      <trkpt lat="48.42748" lon="-2.10714">
        <ele>87.38</ele>
        <time>2025-06-04T08:20:23.509Z</time>
      </trkpt>
      <trkpt lat="48.42745" lon="-2.10718">
        <ele>87.21</ele>
        <time>2025-06-04T08:20:22.647Z</time>
      </trkpt>
      <trkpt lat="48.42741" lon="-2.10722">
        <ele>87.04</ele>
        <time>2025-06-04T08:20:21.584Z</time>
      </trkpt>
      <trkpt lat="48.42738" lon="-2.10726">
        <ele>86.86</ele>
        <time>2025-06-04T08:20:19.952Z</time>
      </trkpt>
      <trkpt lat="48.42735" lon="-2.10729">
        <ele>86.67</ele>
        <time>2025-06-04T08:20:19.528Z</time>
      </trkpt>
      <trkpt lat="48.42733" lon="-2.10733">
        <ele>86.49</ele>
        <time>2025-06-04T08:20:18.487Z</time>
      </trkpt>
      <trkpt lat="48.4273" lon="-2.10736">
        <ele>86.34</ele>
        <time>2025-06-04T08:20:17.613Z</time>
      </trkpt>
      <trkpt lat="48.42729" lon="-2.10738">
        <ele>86.17</ele>
        <time>2025-06-04T08:20:16.366Z</time>
      </trkpt>
      <trkpt lat="48.42727" lon="-2.1074">
        <ele>86</ele>
        <time>2025-06-04T08:20:15.475Z</time>
      </trkpt>
      <trkpt lat="48.42726" lon="-2.10742">
        <ele>85.83</ele>
        <time>2025-06-04T08:20:14.741Z</time>
      </trkpt>
      <trkpt lat="48.42724" lon="-2.10744">
        <ele>85.65</ele>
        <time>2025-06-04T08:20:13.150Z</time>
      </trkpt>
      <trkpt lat="48.42722" lon="-2.10746">
        <ele>85.47</ele>
        <time>2025-06-04T08:20:12.606Z</time>
      </trkpt>
      <trkpt lat="48.4272" lon="-2.10749">
        <ele>85.3</ele>
        <time>2025-06-04T08:20:10.835Z</time>
      </trkpt>
      <trkpt lat="48.42717" lon="-2.10751">
        <ele>85.15</ele>
        <time>2025-06-04T08:20:10.560Z</time>
      </trkpt>
      <trkpt lat="48.42714" lon="-2.10754">
        <ele>85.02</ele>
        <time>2025-06-04T08:20:08.804Z</time>
      </trkpt>
      <trkpt lat="48.42712" lon="-2.10757">
        <ele>84.88</ele>
        <time>2025-06-04T08:20:08.503Z</time>
      </trkpt>
      <trkpt lat="48.42709" lon="-2.1076">
        <ele>84.74</ele>
        <time>2025-06-04T08:20:07.635Z</time>
      </trkpt>
      <trkpt lat="48.42706" lon="-2.10763">
        <ele>84.64</ele>
        <time>2025-06-04T08:20:06.490Z</time>
      </trkpt>
      <trkpt lat="48.42703" lon="-2.10766">
        <ele>84.54</ele>
        <time>2025-06-04T08:20:05.500Z</time>
      </trkpt>
      <trkpt lat="48.42701" lon="-2.10769">
        <ele>84.43</ele>
        <time>2025-06-04T08:20:04.556Z</time>
      </trkpt>
      <trkpt lat="48.42697" lon="-2.10772">
        <ele>84.37</ele>
        <time>2025-06-04T08:20:03.615Z</time>
      </trkpt>
      <trkpt lat="48.42694" lon="-2.10775">
        <ele>84.3</ele>
        <time>2025-06-04T08:20:02.272Z</time>
      </trkpt>
      <trkpt lat="48.42691" lon="-2.10778">
        <ele>84.24</ele>
        <time>2025-06-04T08:20:01.335Z</time>
      </trkpt>
      <trkpt lat="48.42688" lon="-2.1078">
        <ele>84.19</ele>
        <time>2025-06-04T08:19:59.775Z</time>
      </trkpt>
      <trkpt lat="48.42685" lon="-2.10782">
        <ele>84.12</ele>
        <time>2025-06-04T08:19:59.497Z</time>
      </trkpt>
      <trkpt lat="48.42682" lon="-2.10785">
        <ele>84.06</ele>
        <time>2025-06-04T08:19:58.632Z</time>
      </trkpt>
      <trkpt lat="48.4268" lon="-2.10786">
        <ele>83.98</ele>
        <time>2025-06-04T08:19:57.520Z</time>
      </trkpt>
      <trkpt lat="48.42677" lon="-2.10789">
        <ele>83.91</ele>
        <time>2025-06-04T08:19:56.049Z</time>
      </trkpt>
      <trkpt lat="48.42675" lon="-2.1079">
        <ele>83.83</ele>
        <time>2025-06-04T08:19:54.803Z</time>
      </trkpt>
      <trkpt lat="48.42673" lon="-2.10792">
        <ele>83.75</ele>
        <time>2025-06-04T08:19:54.529Z</time>
      </trkpt>
      <trkpt lat="48.4267" lon="-2.10793">
        <ele>83.65</ele>
        <time>2025-06-04T08:19:53.755Z</time>
      </trkpt>
      <trkpt lat="48.42666" lon="-2.10794">
        <ele>83.54</ele>
        <time>2025-06-04T08:19:51.775Z</time>
      </trkpt>
      <trkpt lat="48.42663" lon="-2.10795">
        <ele>83.43</ele>
        <time>2025-06-04T08:19:51.567Z</time>
      </trkpt>
      <trkpt lat="48.4266" lon="-2.10796">
        <ele>83.3</ele>
        <time>2025-06-04T08:19:50.737Z</time>
      </trkpt>
      <trkpt lat="48.42656" lon="-2.10797">
        <ele>83.17</ele>
        <time>2025-06-04T08:19:48.830Z</time>
      </trkpt>
      <trkpt lat="48.42652" lon="-2.10798">
        <ele>83.04</ele>
        <time>2025-06-04T08:19:47.783Z</time>
      </trkpt>
      <trkpt lat="48.42649" lon="-2.10798">
        <ele>82.87</ele>
        <time>2025-06-04T08:19:47.328Z</time>
      </trkpt>
      <trkpt lat="48.42645" lon="-2.10798">
        <ele>82.71</ele>
        <time>2025-06-04T08:19:46.722Z</time>
      </trkpt>
      <trkpt lat="48.42642" lon="-2.10798">
        <ele>82.56</ele>
        <time>2025-06-04T08:19:44.796Z</time>
      </trkpt>
      <trkpt lat="48.42639" lon="-2.10797">
        <ele>82.4</ele>
        <time>2025-06-04T08:19:44.739Z</time>
      </trkpt>
      <trkpt lat="48.42636" lon="-2.10796">
        <ele>82.21</ele>
        <time>2025-06-04T08:19:43.523Z</time>
      </trkpt>
      <trkpt lat="48.42634" lon="-2.10795">
        <ele>82.03</ele>
        <time>2025-06-04T08:19:41.796Z</time>
      </trkpt>
      <trkpt lat="48.42632" lon="-2.10794">
        <ele>81.84</ele>
        <time>2025-06-04T08:19:41.513Z</time>
      </trkpt>
      <trkpt lat="48.42628" lon="-2.10792">
        <ele>81.64</ele>
        <time>2025-06-04T08:19:39.763Z</time>
      </trkpt>
      <trkpt lat="48.42625" lon="-2.1079">
        <ele>81.42</ele>
        <time>2025-06-04T08:19:39.004Z</time>
      </trkpt>
      <trkpt lat="48.42622" lon="-2.10789">
        <ele>81.25</ele>
        <time>2025-06-04T08:19:38.497Z</time>
      </trkpt>
      <trkpt lat="48.42619" lon="-2.10786">
        <ele>81.07</ele>
        <time>2025-06-04T08:19:36.794Z</time>
      </trkpt>
      <trkpt lat="48.42616" lon="-2.10784">
        <ele>80.9</ele>
        <time>2025-06-04T08:19:36.592Z</time>
      </trkpt>
      <trkpt lat="48.42613" lon="-2.10781">
        <ele>80.72</ele>
        <time>2025-06-04T08:19:35.685Z</time>
      </trkpt>
      <trkpt lat="48.4261" lon="-2.10778">
        <ele>80.6</ele>
        <time>2025-06-04T08:19:34.487Z</time>
      </trkpt>
      <trkpt lat="48.42607" lon="-2.10776">
        <ele>80.46</ele>
        <time>2025-06-04T08:19:32.782Z</time>
      </trkpt>
      <trkpt lat="48.42604" lon="-2.10773">
        <ele>80.31</ele>
        <time>2025-06-04T08:19:32.469Z</time>
      </trkpt>
      <trkpt lat="48.42601" lon="-2.1077">
        <ele>80.18</ele>
        <time>2025-06-04T08:19:31.655Z</time>
      </trkpt>
      <trkpt lat="48.42599" lon="-2.10768">
        <ele>80.05</ele>
        <time>2025-06-04T08:19:30.693Z</time>
      </trkpt>
      <trkpt lat="48.42596" lon="-2.10766">
        <ele>79.9</ele>
        <time>2025-06-04T08:19:29.472Z</time>
      </trkpt>
      <trkpt lat="48.42592" lon="-2.10764">
        <ele>79.74</ele>
        <time>2025-06-04T08:19:28.416Z</time>
      </trkpt>
      <trkpt lat="48.42589" lon="-2.10762">
        <ele>79.57</ele>
        <time>2025-06-04T08:19:26.759Z</time>
      </trkpt>
      <trkpt lat="48.42585" lon="-2.1076">
        <ele>79.39</ele>
        <time>2025-06-04T08:19:26.630Z</time>
      </trkpt>
      <trkpt lat="48.42582" lon="-2.10759">
        <ele>79.2</ele>
        <time>2025-06-04T08:19:24.751Z</time>
      </trkpt>
      <trkpt lat="48.4258" lon="-2.10758">
        <ele>79</ele>
        <time>2025-06-04T08:19:24.506Z</time>
      </trkpt>
      <trkpt lat="48.42576" lon="-2.10756">
        <ele>78.82</ele>
        <time>2025-06-04T08:19:23.286Z</time>
      </trkpt>
      <trkpt lat="48.42574" lon="-2.10755">
        <ele>78.64</ele>
        <time>2025-06-04T08:19:21.757Z</time>
      </trkpt>
      <trkpt lat="48.4257" lon="-2.10754">
        <ele>78.44</ele>
        <time>2025-06-04T08:19:20.820Z</time>
      </trkpt>
      <trkpt lat="48.42569" lon="-2.10753">
        <ele>78.25</ele>
        <time>2025-06-04T08:19:20.485Z</time>
      </trkpt>
      <trkpt lat="48.42566" lon="-2.10751">
        <ele>78.04</ele>
        <time>2025-06-04T08:19:18.823Z</time>
      </trkpt>
      <trkpt lat="48.42562" lon="-2.1075">
        <ele>77.88</ele>
        <time>2025-06-04T08:19:18.604Z</time>
      </trkpt>
      <trkpt lat="48.42561" lon="-2.10748">
        <ele>77.7</ele>
        <time>2025-06-04T08:19:17.700Z</time>
      </trkpt>
      <trkpt lat="48.42558" lon="-2.10746">
        <ele>77.52</ele>
        <time>2025-06-04T08:19:15.806Z</time>
      </trkpt>
      <trkpt lat="48.42555" lon="-2.10744">
        <ele>77.37</ele>
        <time>2025-06-04T08:19:14.765Z</time>
      </trkpt>
      <trkpt lat="48.42552" lon="-2.10742">
        <ele>77.25</ele>
        <time>2025-06-04T08:19:13.790Z</time>
      </trkpt>
      <trkpt lat="48.4255" lon="-2.1074">
        <ele>77.13</ele>
        <time>2025-06-04T08:19:12.750Z</time>
      </trkpt>
      <trkpt lat="48.42547" lon="-2.10739">
        <ele>77.04</ele>
        <time>2025-06-04T08:19:11.832Z</time>
      </trkpt>
      <trkpt lat="48.42545" lon="-2.10738">
        <ele>76.97</ele>
        <time>2025-06-04T08:19:10.746Z</time>
      </trkpt>
      <trkpt lat="48.42543" lon="-2.10737">
        <ele>76.91</ele>
        <time>2025-06-04T08:19:10.634Z</time>
      </trkpt>
      <trkpt lat="48.4254" lon="-2.10736">
        <ele>76.86</ele>
        <time>2025-06-04T08:19:08.736Z</time>
      </trkpt>
      <trkpt lat="48.42538" lon="-2.10735">
        <ele>76.83</ele>
        <time>2025-06-04T08:19:08.332Z</time>
      </trkpt>
      <trkpt lat="48.42535" lon="-2.10734">
        <ele>76.79</ele>
        <time>2025-06-04T08:19:07.289Z</time>
      </trkpt>
      <trkpt lat="48.42532" lon="-2.10735">
        <ele>76.76</ele>
        <time>2025-06-04T08:19:06.691Z</time>
      </trkpt>
      <trkpt lat="48.42528" lon="-2.10735">
        <ele>76.74</ele>
        <time>2025-06-04T08:19:05.423Z</time>
      </trkpt>
      <trkpt lat="48.42526" lon="-2.10736">
        <ele>76.75</ele>
        <time>2025-06-04T08:19:04.448Z</time>
      </trkpt>
      <trkpt lat="48.42523" lon="-2.10737">
        <ele>76.76</ele>
        <time>2025-06-04T08:19:03.394Z</time>
      </trkpt>
      <trkpt lat="48.4252" lon="-2.1074">
        <ele>76.77</ele>
        <time>2025-06-04T08:19:01.733Z</time>
      </trkpt>
      <trkpt lat="48.42518" lon="-2.10742">
        <ele>76.77</ele>
        <time>2025-06-04T08:19:01.559Z</time>
      </trkpt>
      <trkpt lat="48.42516" lon="-2.10745">
        <ele>76.76</ele>
        <time>2025-06-04T08:19:00.547Z</time>
      </trkpt>
      <trkpt lat="48.42513" lon="-2.10747">
        <ele>76.75</ele>
        <time>2025-06-04T08:18:58.838Z</time>
      </trkpt>
      <trkpt lat="48.42511" lon="-2.1075">
        <ele>76.73</ele>
        <time>2025-06-04T08:18:58.371Z</time>
      </trkpt>
      <trkpt lat="48.42507" lon="-2.10752">
        <ele>76.7</ele>
        <time>2025-06-04T08:18:57.302Z</time>
      </trkpt>
      <trkpt lat="48.42503" lon="-2.10755">
        <ele>76.68</ele>
        <time>2025-06-04T08:18:56.355Z</time>
      </trkpt>
      <trkpt lat="48.425" lon="-2.1076">
        <ele>76.65</ele>
        <time>2025-06-04T08:18:55.295Z</time>
      </trkpt>
      <trkpt lat="48.42497" lon="-2.10764">
        <ele>76.62</ele>
        <time>2025-06-04T08:18:54.321Z</time>
      </trkpt>
      <trkpt lat="48.42493" lon="-2.1077">
        <ele>76.59</ele>
        <time>2025-06-04T08:18:53.329Z</time>
      </trkpt>
      <trkpt lat="48.42491" lon="-2.10775">
        <ele>76.59</ele>
        <time>2025-06-04T08:18:51.789Z</time>
      </trkpt>
      <trkpt lat="48.42488" lon="-2.10779">
        <ele>76.58</ele>
        <time>2025-06-04T08:18:51.133Z</time>
      </trkpt>
      <trkpt lat="48.42486" lon="-2.10781">
        <ele>76.57</ele>
        <time>2025-06-04T08:18:50.254Z</time>
      </trkpt>
      <trkpt lat="48.42483" lon="-2.10786">
        <ele>76.57</ele>
        <time>2025-06-04T08:18:48.739Z</time>
      </trkpt>
      <trkpt lat="48.42479" lon="-2.10792">
        <ele>76.6</ele>
        <time>2025-06-04T08:18:48.341Z</time>
      </trkpt>
      <trkpt lat="48.42477" lon="-2.10795">
        <ele>76.63</ele>
        <time>2025-06-04T08:18:47.456Z</time>
      </trkpt>
      <trkpt lat="48.42474" lon="-2.10798">
        <ele>76.68</ele>
        <time>2025-06-04T08:18:46.242Z</time>
      </trkpt>
      <trkpt lat="48.4247" lon="-2.10802">
        <ele>76.77</ele>
        <time>2025-06-04T08:18:44.794Z</time>
      </trkpt>
      <trkpt lat="48.42466" lon="-2.10806">
        <ele>76.86</ele>
        <time>2025-06-04T08:18:44.291Z</time>
      </trkpt>
      <trkpt lat="48.42463" lon="-2.1081">
        <ele>76.99</ele>
        <time>2025-06-04T08:18:43.296Z</time>
      </trkpt>
      <trkpt lat="48.42458" lon="-2.10815">
        <ele>77.13</ele>
        <time>2025-06-04T08:18:42.532Z</time>
      </trkpt>
      <trkpt lat="48.42454" lon="-2.10821">
        <ele>77.26</ele>
        <time>2025-06-04T08:18:41.501Z</time>
      </trkpt>
      <trkpt lat="48.4245" lon="-2.10828">
        <ele>77.4</ele>
        <time>2025-06-04T08:18:40.219Z</time>
      </trkpt>
      <trkpt lat="48.42446" lon="-2.10836">
        <ele>77.55</ele>
        <time>2025-06-04T08:18:38.830Z</time>
      </trkpt>
      <trkpt lat="48.42442" lon="-2.10842">
        <ele>77.71</ele>
        <time>2025-06-04T08:18:38.234Z</time>
      </trkpt>
      <trkpt lat="48.42439" lon="-2.10847">
        <ele>77.88</ele>
        <time>2025-06-04T08:18:36.830Z</time>
      </trkpt>
      <trkpt lat="48.42438" lon="-2.10851">
        <ele>78.02</ele>
        <time>2025-06-04T08:18:36.268Z</time>
      </trkpt>
      <trkpt lat="48.42437" lon="-2.10854">
        <ele>78.16</ele>
        <time>2025-06-04T08:18:34.727Z</time>
      </trkpt>
      <trkpt lat="48.42435" lon="-2.10856">
        <ele>78.28</ele>
        <time>2025-06-04T08:18:34.314Z</time>
      </trkpt>
      <trkpt lat="48.42435" lon="-2.10857">
        <ele>78.38</ele>
        <time>2025-06-04T08:18:32.762Z</time>
      </trkpt>
      <trkpt lat="48.42433" lon="-2.1086">
        <ele>78.5</ele>
        <time>2025-06-04T08:18:32.280Z</time>
      </trkpt>
      <trkpt lat="48.4243" lon="-2.10865">
        <ele>78.61</ele>
        <time>2025-06-04T08:18:30.726Z</time>
      </trkpt>
      <trkpt lat="48.42429" lon="-2.10869">
        <ele>78.71</ele>
        <time>2025-06-04T08:18:30.208Z</time>
      </trkpt>
      <trkpt lat="48.42427" lon="-2.10874">
        <ele>78.8</ele>
        <time>2025-06-04T08:18:28.763Z</time>
      </trkpt>
      <trkpt lat="48.42423" lon="-2.10882">
        <ele>78.87</ele>
        <time>2025-06-04T08:18:28.314Z</time>
      </trkpt>
      <trkpt lat="48.4242" lon="-2.10889">
        <ele>78.95</ele>
        <time>2025-06-04T08:18:26.685Z</time>
      </trkpt>
      <trkpt lat="48.42416" lon="-2.10899">
        <ele>79.1</ele>
        <time>2025-06-04T08:18:25.843Z</time>
      </trkpt>
      <trkpt lat="48.42408" lon="-2.10915">
        <ele>79.1</ele>
        <time>2025-06-04T08:18:25.222Z</time>
      </trkpt>
      <trkpt lat="48.42408" lon="-2.10916">
        <ele>79.13</ele>
        <time>2025-06-04T08:18:24.419Z</time>
      </trkpt>
      <trkpt lat="48.42397" lon="-2.10941">
        <ele>79.17</ele>
        <time>2025-06-04T08:18:23.275Z</time>
      </trkpt>
      <trkpt lat="48.42399" lon="-2.10939">
        <ele>79.19</ele>
        <time>2025-06-04T08:18:22.656Z</time>
      </trkpt>
      <trkpt lat="48.42397" lon="-2.10946">
        <ele>79.21</ele>
        <time>2025-06-04T08:18:21.319Z</time>
      </trkpt>
      <trkpt lat="48.42396" lon="-2.10947">
        <ele>79.22</ele>
        <time>2025-06-04T08:18:20.269Z</time>
      </trkpt>
      <trkpt lat="48.42395" lon="-2.10954">
        <ele>79.22</ele>
        <time>2025-06-04T08:18:19.640Z</time>
      </trkpt>
      <trkpt lat="48.42394" lon="-2.10958">
        <ele>79.23</ele>
        <time>2025-06-04T08:18:18.284Z</time>
      </trkpt>
      <trkpt lat="48.42392" lon="-2.10964">
        <ele>79.25</ele>
        <time>2025-06-04T08:18:16.715Z</time>
      </trkpt>
      <trkpt lat="48.4239" lon="-2.10973">
        <ele>79.26</ele>
        <time>2025-06-04T08:18:16.241Z</time>
      </trkpt>
      <trkpt lat="48.42388" lon="-2.1098">
        <ele>79.28</ele>
        <time>2025-06-04T08:18:14.748Z</time>
      </trkpt>
      <trkpt lat="48.42386" lon="-2.10986">
        <ele>79.32</ele>
        <time>2025-06-04T08:18:14.290Z</time>
      </trkpt>
      <trkpt lat="48.42384" lon="-2.10991">
        <ele>79.37</ele>
        <time>2025-06-04T08:18:13.294Z</time>
      </trkpt>
      <trkpt lat="48.42381" lon="-2.10998">
        <ele>79.41</ele>
        <time>2025-06-04T08:18:11.730Z</time>
      </trkpt>
      <trkpt lat="48.42377" lon="-2.11006">
        <ele>79.45</ele>
        <time>2025-06-04T08:18:11.290Z</time>
      </trkpt>
      <trkpt lat="48.42375" lon="-2.11013">
        <ele>79.49</ele>
        <time>2025-06-04T08:18:10.221Z</time>
      </trkpt>
      <trkpt lat="48.42372" lon="-2.1102">
        <ele>79.52</ele>
        <time>2025-06-04T08:18:09.213Z</time>
      </trkpt>
      <trkpt lat="48.42369" lon="-2.11031">
        <ele>79.56</ele>
        <time>2025-06-04T08:18:07.737Z</time>
      </trkpt>
      <trkpt lat="48.42368" lon="-2.11036">
        <ele>79.59</ele>
        <time>2025-06-04T08:18:07.280Z</time>
      </trkpt>
      <trkpt lat="48.42366" lon="-2.11042">
        <ele>79.62</ele>
        <time>2025-06-04T08:18:06.482Z</time>
      </trkpt>
      <trkpt lat="48.42365" lon="-2.11047">
        <ele>79.64</ele>
        <time>2025-06-04T08:18:05.235Z</time>
      </trkpt>
      <trkpt lat="48.42362" lon="-2.11054">
        <ele>79.67</ele>
        <time>2025-06-04T08:18:03.717Z</time>
      </trkpt>
      <trkpt lat="48.42361" lon="-2.11059">
        <ele>79.69</ele>
        <time>2025-06-04T08:18:03.265Z</time>
      </trkpt>
      <trkpt lat="48.42359" lon="-2.11065">
        <ele>79.7</ele>
        <time>2025-06-04T08:18:02.254Z</time>
      </trkpt>
      <trkpt lat="48.42358" lon="-2.11069">
        <ele>79.72</ele>
        <time>2025-06-04T08:18:01.257Z</time>
      </trkpt>
      <trkpt lat="48.42357" lon="-2.11074">
        <ele>79.72</ele>
        <time>2025-06-04T08:17:59.787Z</time>
      </trkpt>
      <trkpt lat="48.42356" lon="-2.11078">
        <ele>79.72</ele>
        <time>2025-06-04T08:17:58.733Z</time>
      </trkpt>
      <trkpt lat="48.42355" lon="-2.11083">
        <ele>79.7</ele>
        <time>2025-06-04T08:17:57.720Z</time>
      </trkpt>
      <trkpt lat="48.42355" lon="-2.11086">
        <ele>79.69</ele>
        <time>2025-06-04T08:17:56.654Z</time>
      </trkpt>
      <trkpt lat="48.42354" lon="-2.11089">
        <ele>79.67</ele>
        <time>2025-06-04T08:17:55.829Z</time>
      </trkpt>
      <trkpt lat="48.42354" lon="-2.11091">
        <ele>79.64</ele>
        <time>2025-06-04T08:17:54.657Z</time>
      </trkpt>
      <trkpt lat="48.42352" lon="-2.11094">
        <ele>79.61</ele>
        <time>2025-06-04T08:17:54.463Z</time>
      </trkpt>
      <trkpt lat="48.42352" lon="-2.11096">
        <ele>79.57</ele>
        <time>2025-06-04T08:17:52.666Z</time>
      </trkpt>
      <trkpt lat="48.4235" lon="-2.11099">
        <ele>79.52</ele>
        <time>2025-06-04T08:17:51.828Z</time>
      </trkpt>
      <trkpt lat="48.42348" lon="-2.11102">
        <ele>79.46</ele>
        <time>2025-06-04T08:17:50.642Z</time>
      </trkpt>
      <trkpt lat="48.42346" lon="-2.11106">
        <ele>79.39</ele>
        <time>2025-06-04T08:17:50.252Z</time>
      </trkpt>
      <trkpt lat="48.42344" lon="-2.1111">
        <ele>79.32</ele>
        <time>2025-06-04T08:17:48.682Z</time>
      </trkpt>
      <trkpt lat="48.42342" lon="-2.11115">
        <ele>79.25</ele>
        <time>2025-06-04T08:17:48.316Z</time>
      </trkpt>
      <trkpt lat="48.4234" lon="-2.1112">
        <ele>79.18</ele>
        <time>2025-06-04T08:17:46.788Z</time>
      </trkpt>
      <trkpt lat="48.42339" lon="-2.11125">
        <ele>79.07</ele>
        <time>2025-06-04T08:17:46.479Z</time>
      </trkpt>
      <trkpt lat="48.42337" lon="-2.1113">
        <ele>78.93</ele>
        <time>2025-06-04T08:17:45.228Z</time>
      </trkpt>
      <trkpt lat="48.42336" lon="-2.11136">
        <ele>78.77</ele>
        <time>2025-06-04T08:17:43.635Z</time>
      </trkpt>
      <trkpt lat="48.42335" lon="-2.11142">
        <ele>78.58</ele>
        <time>2025-06-04T08:17:43.165Z</time>
      </trkpt>
      <trkpt lat="48.42334" lon="-2.11148">
        <ele>78.38</ele>
        <time>2025-06-04T08:17:42.099Z</time>
      </trkpt>
      <trkpt lat="48.42333" lon="-2.11154">
        <ele>78.15</ele>
        <time>2025-06-04T08:17:41.159Z</time>
      </trkpt>
      <trkpt lat="48.42331" lon="-2.11159">
        <ele>77.91</ele>
        <time>2025-06-04T08:17:40.179Z</time>
      </trkpt>
      <trkpt lat="48.42329" lon="-2.11166">
        <ele>77.7</ele>
        <time>2025-06-04T08:17:39.070Z</time>
      </trkpt>
      <trkpt lat="48.42327" lon="-2.11171">
        <ele>77.49</ele>
        <time>2025-06-04T08:17:38.613Z</time>
      </trkpt>
      <trkpt lat="48.42325" lon="-2.11176">
        <ele>77.29</ele>
        <time>2025-06-04T08:17:37.147Z</time>
      </trkpt>
      <trkpt lat="48.42324" lon="-2.1118">
        <ele>77.05</ele>
        <time>2025-06-04T08:17:36.068Z</time>
      </trkpt>
      <trkpt lat="48.42322" lon="-2.11185">
        <ele>76.83</ele>
        <time>2025-06-04T08:17:35.122Z</time>
      </trkpt>
      <trkpt lat="48.4232" lon="-2.1119">
        <ele>76.61</ele>
        <time>2025-06-04T08:17:34.142Z</time>
      </trkpt>
      <trkpt lat="48.42319" lon="-2.11196">
        <ele>76.37</ele>
        <time>2025-06-04T08:17:33.066Z</time>
      </trkpt>
      <trkpt lat="48.42317" lon="-2.11202">
        <ele>76.17</ele>
        <time>2025-06-04T08:17:31.703Z</time>
      </trkpt>
      <trkpt lat="48.42316" lon="-2.11207">
        <ele>75.96</ele>
        <time>2025-06-04T08:17:31.609Z</time>
      </trkpt>
      <trkpt lat="48.42315" lon="-2.11212">
        <ele>75.75</ele>
        <time>2025-06-04T08:17:30.478Z</time>
      </trkpt>
      <trkpt lat="48.42314" lon="-2.11218">
        <ele>75.56</ele>
        <time>2025-06-04T08:17:28.689Z</time>
      </trkpt>
      <trkpt lat="48.42313" lon="-2.11224">
        <ele>75.4</ele>
        <time>2025-06-04T08:17:28.221Z</time>
      </trkpt>
      <trkpt lat="48.42311" lon="-2.11228">
        <ele>75.23</ele>
        <time>2025-06-04T08:17:27.599Z</time>
      </trkpt>
      <trkpt lat="48.4231" lon="-2.11234">
        <ele>75.04</ele>
        <time>2025-06-04T08:17:26.384Z</time>
      </trkpt>
      <trkpt lat="48.42308" lon="-2.1124">
        <ele>74.88</ele>
        <time>2025-06-04T08:17:24.689Z</time>
      </trkpt>
      <trkpt lat="48.42305" lon="-2.11246">
        <ele>74.75</ele>
        <time>2025-06-04T08:17:24.283Z</time>
      </trkpt>
      <trkpt lat="48.42303" lon="-2.11252">
        <ele>74.62</ele>
        <time>2025-06-04T08:17:23.593Z</time>
      </trkpt>
      <trkpt lat="48.42301" lon="-2.11258">
        <ele>74.5</ele>
        <time>2025-06-04T08:17:21.658Z</time>
      </trkpt>
      <trkpt lat="48.42299" lon="-2.11263">
        <ele>74.41</ele>
        <time>2025-06-04T08:17:21.321Z</time>
      </trkpt>
      <trkpt lat="48.42297" lon="-2.11268">
        <ele>74.35</ele>
        <time>2025-06-04T08:17:20.308Z</time>
      </trkpt>
      <trkpt lat="48.42295" lon="-2.11273">
        <ele>74.3</ele>
        <time>2025-06-04T08:17:19.557Z</time>
      </trkpt>
      <trkpt lat="48.42293" lon="-2.11277">
        <ele>74.26</ele>
        <time>2025-06-04T08:17:18.149Z</time>
      </trkpt>
      <trkpt lat="48.4229" lon="-2.1128">
        <ele>74.22</ele>
        <time>2025-06-04T08:17:16.797Z</time>
      </trkpt>
      <trkpt lat="48.42287" lon="-2.11282">
        <ele>74.17</ele>
        <time>2025-06-04T08:17:15.756Z</time>
      </trkpt>
      <trkpt lat="48.42283" lon="-2.11286">
        <ele>74.12</ele>
        <time>2025-06-04T08:17:14.727Z</time>
      </trkpt>
      <trkpt lat="48.42279" lon="-2.11289">
        <ele>74.07</ele>
        <time>2025-06-04T08:17:14.493Z</time>
      </trkpt>
      <trkpt lat="48.42275" lon="-2.11292">
        <ele>74.04</ele>
        <time>2025-06-04T08:17:13.152Z</time>
      </trkpt>
      <trkpt lat="48.42272" lon="-2.11296">
        <ele>74</ele>
        <time>2025-06-04T08:17:12.452Z</time>
      </trkpt>
      <trkpt lat="48.42268" lon="-2.11298">
        <ele>73.93</ele>
        <time>2025-06-04T08:17:10.701Z</time>
      </trkpt>
      <trkpt lat="48.42263" lon="-2.11301">
        <ele>73.87</ele>
        <time>2025-06-04T08:17:09.678Z</time>
      </trkpt>
      <trkpt lat="48.42261" lon="-2.11304">
        <ele>73.79</ele>
        <time>2025-06-04T08:17:09.282Z</time>
      </trkpt>
      <trkpt lat="48.42257" lon="-2.11308">
        <ele>73.68</ele>
        <time>2025-06-04T08:17:07.711Z</time>
      </trkpt>
      <trkpt lat="48.4225" lon="-2.11316">
        <ele>73.56</ele>
        <time>2025-06-04T08:17:07.486Z</time>
      </trkpt>
      <trkpt lat="48.42243" lon="-2.11324">
        <ele>73.43</ele>
        <time>2025-06-04T08:17:06.446Z</time>
      </trkpt>
      <trkpt lat="48.42237" lon="-2.11333">
        <ele>73.32</ele>
        <time>2025-06-04T08:17:05.195Z</time>
      </trkpt>
      <trkpt lat="48.4223" lon="-2.11344">
        <ele>73.22</ele>
        <time>2025-06-04T08:17:04.505Z</time>
      </trkpt>
      <trkpt lat="48.42219" lon="-2.11359">
        <ele>73.13</ele>
        <time>2025-06-04T08:17:02.747Z</time>
      </trkpt>
      <trkpt lat="48.4222" lon="-2.11357">
        <ele>73.07</ele>
        <time>2025-06-04T08:17:01.716Z</time>
      </trkpt>
      <trkpt lat="48.42219" lon="-2.11359">
        <ele>73.03</ele>
        <time>2025-06-04T08:17:01.447Z</time>
      </trkpt>
      <trkpt lat="48.42218" lon="-2.1136">
        <ele>72.979996</ele>
        <time>2025-06-04T08:17:00.049Z</time>
      </trkpt>
      <trkpt lat="48.42217" lon="-2.11363">
        <ele>72.94</ele>
        <time>2025-06-04T08:16:58.711Z</time>
      </trkpt>
      <trkpt lat="48.42215" lon="-2.11365">
        <ele>72.9</ele>
        <time>2025-06-04T08:16:58.371Z</time>
      </trkpt>
      <trkpt lat="48.42214" lon="-2.11367">
        <ele>72.86</ele>
        <time>2025-06-04T08:16:57.170Z</time>
      </trkpt>
      <trkpt lat="48.42212" lon="-2.11371">
        <ele>72.82</ele>
        <time>2025-06-04T08:16:56.158Z</time>
      </trkpt>
      <trkpt lat="48.4221" lon="-2.11374">
        <ele>72.770004</ele>
        <time>2025-06-04T08:16:55.168Z</time>
      </trkpt>
      <trkpt lat="48.42208" lon="-2.11377">
        <ele>72.729996</ele>
        <time>2025-06-04T08:16:53.580Z</time>
      </trkpt>
      <trkpt lat="48.42206" lon="-2.1138">
        <ele>72.69</ele>
        <time>2025-06-04T08:16:53.435Z</time>
      </trkpt>
      <trkpt lat="48.42204" lon="-2.11382">
        <ele>72.63</ele>
        <time>2025-06-04T08:16:52.166Z</time>
      </trkpt>
      <trkpt lat="48.42201" lon="-2.11385">
        <ele>72.58</ele>
        <time>2025-06-04T08:16:51.170Z</time>
      </trkpt>
      <trkpt lat="48.42199" lon="-2.11388">
        <ele>72.520004</ele>
        <time>2025-06-04T08:16:50.157Z</time>
      </trkpt>
      <trkpt lat="48.42197" lon="-2.1139">
        <ele>72.46</ele>
        <time>2025-06-04T08:16:49.146Z</time>
      </trkpt>
      <trkpt lat="48.42195" lon="-2.11393">
        <ele>72.41</ele>
        <time>2025-06-04T08:16:48.132Z</time>
      </trkpt>
      <trkpt lat="48.42193" lon="-2.11396">
        <ele>72.35</ele>
        <time>2025-06-04T08:16:47.160Z</time>
      </trkpt>
      <trkpt lat="48.42191" lon="-2.11399">
        <ele>72.3</ele>
        <time>2025-06-04T08:16:46.090Z</time>
      </trkpt>
      <trkpt lat="48.42189" lon="-2.11401">
        <ele>72.26</ele>
        <time>2025-06-04T08:16:45.133Z</time>
      </trkpt>
      <trkpt lat="48.42187" lon="-2.11403">
        <ele>72.22</ele>
        <time>2025-06-04T08:16:44.121Z</time>
      </trkpt>
      <trkpt lat="48.42186" lon="-2.11405">
        <ele>72.19</ele>
        <time>2025-06-04T08:16:43.432Z</time>
      </trkpt>
      <trkpt lat="48.42183" lon="-2.11408">
        <ele>72.15</ele>
        <time>2025-06-04T08:16:42.544Z</time>
      </trkpt>
      <trkpt lat="48.42181" lon="-2.1141">
        <ele>72.11</ele>
        <time>2025-06-04T08:16:41.123Z</time>
      </trkpt>
      <trkpt lat="48.42178" lon="-2.11412">
        <ele>72.08</ele>
        <time>2025-06-04T08:16:39.865Z</time>
      </trkpt>
      <trkpt lat="48.42176" lon="-2.11414">
        <ele>72.05</ele>
        <time>2025-06-04T08:16:39.544Z</time>
      </trkpt>
      <trkpt lat="48.42174" lon="-2.11416">
        <ele>72.01</ele>
        <time>2025-06-04T08:16:38.120Z</time>
      </trkpt>
      <trkpt lat="48.42172" lon="-2.11419">
        <ele>71.99</ele>
        <time>2025-06-04T08:16:37.068Z</time>
      </trkpt>
      <trkpt lat="48.4217" lon="-2.11421">
        <ele>71.96</ele>
        <time>2025-06-04T08:16:36.133Z</time>
      </trkpt>
      <trkpt lat="48.42168" lon="-2.11424">
        <ele>71.95</ele>
        <time>2025-06-04T08:16:35.084Z</time>
      </trkpt>
      <trkpt lat="48.42167" lon="-2.11427">
        <ele>71.95</ele>
        <time>2025-06-04T08:16:34.436Z</time>
      </trkpt>
      <trkpt lat="48.42165" lon="-2.11429">
        <ele>71.96</ele>
        <time>2025-06-04T08:16:33.518Z</time>
      </trkpt>
      <trkpt lat="48.42164" lon="-2.11432">
        <ele>71.979996</ele>
        <time>2025-06-04T08:16:32.467Z</time>
      </trkpt>
      <trkpt lat="48.42163" lon="-2.11434">
        <ele>72.020004</ele>
        <time>2025-06-04T08:16:31.278Z</time>
      </trkpt>
      <trkpt lat="48.42161" lon="-2.11437">
        <ele>72.06</ele>
        <time>2025-06-04T08:16:29.700Z</time>
      </trkpt>
      <trkpt lat="48.4216" lon="-2.11439">
        <ele>72.11</ele>
        <time>2025-06-04T08:16:29.448Z</time>
      </trkpt>
      <trkpt lat="48.42159" lon="-2.11441">
        <ele>72.17</ele>
        <time>2025-06-04T08:16:27.666Z</time>
      </trkpt>
      <trkpt lat="48.42156" lon="-2.11445">
        <ele>72.229996</ele>
        <time>2025-06-04T08:16:26.713Z</time>
      </trkpt>
      <trkpt lat="48.42154" lon="-2.11447">
        <ele>72.3</ele>
        <time>2025-06-04T08:16:26.476Z</time>
      </trkpt>
      <trkpt lat="48.42151" lon="-2.11449">
        <ele>72.38</ele>
        <time>2025-06-04T08:16:25.510Z</time>
      </trkpt>
      <trkpt lat="48.42148" lon="-2.11451">
        <ele>72.47</ele>
        <time>2025-06-04T08:16:24.473Z</time>
      </trkpt>
      <trkpt lat="48.42145" lon="-2.11451">
        <ele>72.55</ele>
        <time>2025-06-04T08:16:22.982Z</time>
      </trkpt>
      <trkpt lat="48.42142" lon="-2.1145">
        <ele>72.64</ele>
        <time>2025-06-04T08:16:21.802Z</time>
      </trkpt>
      <trkpt lat="48.4214" lon="-2.11448">
        <ele>72.74</ele>
        <time>2025-06-04T08:16:21.303Z</time>
      </trkpt>
      <trkpt lat="48.42138" lon="-2.11445">
        <ele>72.84</ele>
        <time>2025-06-04T08:16:20.361Z</time>
      </trkpt>
      <trkpt lat="48.42136" lon="-2.11442">
        <ele>72.93</ele>
        <time>2025-06-04T08:16:18.864Z</time>
      </trkpt>
      <trkpt lat="48.42133" lon="-2.11438">
        <ele>73.03</ele>
        <time>2025-06-04T08:16:18.464Z</time>
      </trkpt>
      <trkpt lat="48.42131" lon="-2.11434">
        <ele>73.11</ele>
        <time>2025-06-04T08:16:17.012Z</time>
      </trkpt>
      <trkpt lat="48.42129" lon="-2.1143">
        <ele>73.2</ele>
        <time>2025-06-04T08:16:16.481Z</time>
      </trkpt>
      <trkpt lat="48.42127" lon="-2.11427">
        <ele>73.28</ele>
        <time>2025-06-04T08:16:15.445Z</time>
      </trkpt>
      <trkpt lat="48.42126" lon="-2.11423">
        <ele>73.37</ele>
        <time>2025-06-04T08:16:13.743Z</time>
      </trkpt>
      <trkpt lat="48.42126" lon="-2.11421">
        <ele>73.44</ele>
        <time>2025-06-04T08:16:13.195Z</time>
      </trkpt>
      <trkpt lat="48.42125" lon="-2.1142">
        <ele>73.51</ele>
        <time>2025-06-04T08:16:12.469Z</time>
      </trkpt>
      <trkpt lat="48.42125" lon="-2.11417">
        <ele>73.58</ele>
        <time>2025-06-04T08:16:11.369Z</time>
      </trkpt>
      <trkpt lat="48.42125" lon="-2.11414">
        <ele>73.63</ele>
        <time>2025-06-04T08:16:09.583Z</time>
      </trkpt>
      <trkpt lat="48.42125" lon="-2.1141">
        <ele>73.68</ele>
        <time>2025-06-04T08:16:09.355Z</time>
      </trkpt>
      <trkpt lat="48.42125" lon="-2.11407">
        <ele>73.73</ele>
        <time>2025-06-04T08:16:08.337Z</time>
      </trkpt>
      <trkpt lat="48.42124" lon="-2.11404">
        <ele>73.76</ele>
        <time>2025-06-04T08:16:07.260Z</time>
      </trkpt>
      <trkpt lat="48.42124" lon="-2.11403">
        <ele>73.78</ele>
        <time>2025-06-04T08:16:06.498Z</time>
      </trkpt>
      <trkpt lat="48.42124" lon="-2.11396">
        <ele>73.82</ele>
        <time>2025-06-04T08:16:04.400Z</time>
      </trkpt>
      <trkpt lat="48.42124" lon="-2.11394">
        <ele>73.83</ele>
        <time>2025-06-04T08:16:03.256Z</time>
      </trkpt>
      <trkpt lat="48.42125" lon="-2.11392">
        <ele>73.84</ele>
        <time>2025-06-04T08:16:02.352Z</time>
      </trkpt>
      <trkpt lat="48.42125" lon="-2.11391">
        <ele>73.83</ele>
        <time>2025-06-04T08:16:00.509Z</time>
      </trkpt>
      <trkpt lat="48.42122" lon="-2.11391">
        <ele>73.7</ele>
        <time>2025-06-04T08:15:54.258Z</time>
      </trkpt>
      <trkpt lat="48.42113" lon="-2.11394">
        <ele>73.72</ele>
        <time>2025-06-04T08:15:37.930Z</time>
      </trkpt>
      <trkpt lat="48.42114" lon="-2.11394">
        <ele>73.74</ele>
        <time>2025-06-04T08:15:34.947Z</time>
      </trkpt>
      <trkpt lat="48.42115" lon="-2.11394">
        <ele>73.75</ele>
        <time>2025-06-04T08:15:33.933Z</time>
      </trkpt>
      <trkpt lat="48.42114" lon="-2.11395">
        <ele>73.76</ele>
        <time>2025-06-04T08:15:30.990Z</time>
      </trkpt>
      <trkpt lat="48.42115" lon="-2.11395">
        <ele>73.77</ele>
        <time>2025-06-04T08:15:29.904Z</time>
      </trkpt>
      <trkpt lat="48.42113" lon="-2.11395">
        <ele>73.8</ele>
        <time>2025-06-04T08:15:28.199Z</time>
      </trkpt>
      <trkpt lat="48.42109" lon="-2.11393">
        <ele>73.83</ele>
        <time>2025-06-04T08:15:24.894Z</time>
      </trkpt>
      <trkpt lat="48.42106" lon="-2.11391">
        <ele>73.85</ele>
        <time>2025-06-04T08:15:23.892Z</time>
      </trkpt>
      <trkpt lat="48.42105" lon="-2.11389">
        <ele>73.87</ele>
        <time>2025-06-04T08:15:22.934Z</time>
      </trkpt>
      <trkpt lat="48.42104" lon="-2.11386">
        <ele>73.88</ele>
        <time>2025-06-04T08:15:22.295Z</time>
      </trkpt>
      <trkpt lat="48.42103" lon="-2.11384">
        <ele>73.89</ele>
        <time>2025-06-04T08:15:20.848Z</time>
      </trkpt>
      <trkpt lat="48.42102" lon="-2.1138">
        <ele>73.9</ele>
        <time>2025-06-04T08:15:19.894Z</time>
      </trkpt>
      <trkpt lat="48.42103" lon="-2.11375">
        <ele>73.89</ele>
        <time>2025-06-04T08:15:19.120Z</time>
      </trkpt>
      <trkpt lat="48.42104" lon="-2.11371">
        <ele>73.85</ele>
        <time>2025-06-04T08:15:18.129Z</time>
      </trkpt>
      <trkpt lat="48.42105" lon="-2.11366">
        <ele>73.81</ele>
        <time>2025-06-04T08:15:16.861Z</time>
      </trkpt>
      <trkpt lat="48.42106" lon="-2.11365">
        <ele>73.75</ele>
        <time>2025-06-04T08:15:16.147Z</time>
      </trkpt>
      <trkpt lat="48.42107" lon="-2.11364">
        <ele>73.67</ele>
        <time>2025-06-04T08:15:14.969Z</time>
      </trkpt>
      <trkpt lat="48.42107" lon="-2.11362">
        <ele>73.57</ele>
        <time>2025-06-04T08:15:13.927Z</time>
      </trkpt>
      <trkpt lat="48.42107" lon="-2.1136">
        <ele>73.47</ele>
        <time>2025-06-04T08:15:13.174Z</time>
      </trkpt>
      <trkpt lat="48.42107" lon="-2.11358">
        <ele>73.35</ele>
        <time>2025-06-04T08:15:11.844Z</time>
      </trkpt>
      <trkpt lat="48.42105" lon="-2.11356">
        <ele>73.21</ele>
        <time>2025-06-04T08:15:10.965Z</time>
      </trkpt>
      <trkpt lat="48.42102" lon="-2.11356">
        <ele>73.07</ele>
        <time>2025-06-04T08:15:10.221Z</time>
      </trkpt>
      <trkpt lat="48.421" lon="-2.11357">
        <ele>72.93</ele>
        <time>2025-06-04T08:15:09.243Z</time>
      </trkpt>
      <trkpt lat="48.42097" lon="-2.11361">
        <ele>72.81</ele>
        <time>2025-06-04T08:15:07.867Z</time>
      </trkpt>
      <trkpt lat="48.42095" lon="-2.11366">
        <ele>72.71</ele>
        <time>2025-06-04T08:15:06.842Z</time>
      </trkpt>
      <trkpt lat="48.42093" lon="-2.11368">
        <ele>72.59</ele>
        <time>2025-06-04T08:15:05.974Z</time>
      </trkpt>
      <trkpt lat="48.4209" lon="-2.11369">
        <ele>72.479996</ele>
        <time>2025-06-04T08:15:05.004Z</time>
      </trkpt>
      <trkpt lat="48.42088" lon="-2.11369">
        <ele>72.37</ele>
        <time>2025-06-04T08:15:04.156Z</time>
      </trkpt>
      <trkpt lat="48.42086" lon="-2.11368">
        <ele>72.26</ele>
        <time>2025-06-04T08:15:02.880Z</time>
      </trkpt>
      <trkpt lat="48.42083" lon="-2.11368">
        <ele>72.15</ele>
        <time>2025-06-04T08:15:01.948Z</time>
      </trkpt>
      <trkpt lat="48.42081" lon="-2.1137">
        <ele>72.04</ele>
        <time>2025-06-04T08:15:01.260Z</time>
      </trkpt>
      <trkpt lat="48.42079" lon="-2.11374">
        <ele>71.92</ele>
        <time>2025-06-04T08:14:59.872Z</time>
      </trkpt>
      <trkpt lat="48.42077" lon="-2.11379">
        <ele>71.84</ele>
        <time>2025-06-04T08:14:59.231Z</time>
      </trkpt>
      <trkpt lat="48.42075" lon="-2.11385">
        <ele>71.76</ele>
        <time>2025-06-04T08:14:57.805Z</time>
      </trkpt>
      <trkpt lat="48.42073" lon="-2.1139">
        <ele>71.71</ele>
        <time>2025-06-04T08:14:56.753Z</time>
      </trkpt>
      <trkpt lat="48.4207" lon="-2.11396">
        <ele>71.68</ele>
        <time>2025-06-04T08:14:55.862Z</time>
      </trkpt>
      <trkpt lat="48.42068" lon="-2.11401">
        <ele>71.64</ele>
        <time>2025-06-04T08:14:55.194Z</time>
      </trkpt>
      <trkpt lat="48.42065" lon="-2.11407">
        <ele>71.61</ele>
        <time>2025-06-04T08:14:53.917Z</time>
      </trkpt>
      <trkpt lat="48.42063" lon="-2.11411">
        <ele>71.57</ele>
        <time>2025-06-04T08:14:53.284Z</time>
      </trkpt>
      <trkpt lat="48.42061" lon="-2.11417">
        <ele>71.53</ele>
        <time>2025-06-04T08:14:52.245Z</time>
      </trkpt>
      <trkpt lat="48.42057" lon="-2.11422">
        <ele>71.49</ele>
        <time>2025-06-04T08:14:50.858Z</time>
      </trkpt>
      <trkpt lat="48.42054" lon="-2.11425">
        <ele>71.45</ele>
        <time>2025-06-04T08:14:49.915Z</time>
      </trkpt>
      <trkpt lat="48.42051" lon="-2.11427">
        <ele>71.41</ele>
        <time>2025-06-04T08:14:48.981Z</time>
      </trkpt>
      <trkpt lat="48.42047" lon="-2.11429">
        <ele>71.36</ele>
        <time>2025-06-04T08:14:48.253Z</time>
      </trkpt>
      <trkpt lat="48.42044" lon="-2.1143">
        <ele>71.31</ele>
        <time>2025-06-04T08:14:46.867Z</time>
      </trkpt>
      <trkpt lat="48.42041" lon="-2.11432">
        <ele>71.270004</ele>
        <time>2025-06-04T08:14:46.226Z</time>
      </trkpt>
      <trkpt lat="48.4204" lon="-2.11433">
        <ele>71.22</ele>
        <time>2025-06-04T08:14:44.900Z</time>
      </trkpt>
      <trkpt lat="48.42038" lon="-2.11435">
        <ele>71.15</ele>
        <time>2025-06-04T08:14:43.983Z</time>
      </trkpt>
      <trkpt lat="48.42036" lon="-2.11438">
        <ele>71.09</ele>
        <time>2025-06-04T08:14:42.883Z</time>
      </trkpt>
      <trkpt lat="48.42034" lon="-2.11441">
        <ele>71.05</ele>
        <time>2025-06-04T08:14:41.392Z</time>
      </trkpt>
      <trkpt lat="48.42032" lon="-2.11445">
        <ele>70.99</ele>
        <time>2025-06-04T08:14:40.972Z</time>
      </trkpt>
      <trkpt lat="48.4203" lon="-2.11449">
        <ele>70.94</ele>
        <time>2025-06-04T08:14:40.158Z</time>
      </trkpt>
      <trkpt lat="48.42027" lon="-2.11451">
        <ele>70.89</ele>
        <time>2025-06-04T08:14:38.906Z</time>
      </trkpt>
      <trkpt lat="48.42023" lon="-2.11451">
        <ele>70.84</ele>
        <time>2025-06-04T08:14:38.220Z</time>
      </trkpt>
      <trkpt lat="48.4202" lon="-2.1145">
        <ele>70.72</ele>
        <time>2025-06-04T08:14:37.258Z</time>
      </trkpt>
      <trkpt lat="48.42013" lon="-2.11451">
        <ele>70.66</ele>
        <time>2025-06-04T08:14:34.869Z</time>
      </trkpt>
      <trkpt lat="48.4201" lon="-2.11451">
        <ele>70.53</ele>
        <time>2025-06-04T08:14:34.241Z</time>
      </trkpt>
      <trkpt lat="48.42003" lon="-2.11453">
        <ele>70.45</ele>
        <time>2025-06-04T08:14:32.251Z</time>
      </trkpt>
      <trkpt lat="48.41996" lon="-2.11455">
        <ele>70.43</ele>
        <time>2025-06-04T08:14:29.875Z</time>
      </trkpt>
      <trkpt lat="48.41994" lon="-2.11455">
        <ele>70.41</ele>
        <time>2025-06-04T08:14:28.919Z</time>
      </trkpt>
      <trkpt lat="48.41991" lon="-2.11452">
        <ele>70.38</ele>
        <time>2025-06-04T08:14:27.874Z</time>
      </trkpt>
      <trkpt lat="48.41988" lon="-2.11448">
        <ele>70.33</ele>
        <time>2025-06-04T08:14:26.936Z</time>
      </trkpt>
      <trkpt lat="48.41987" lon="-2.11445">
        <ele>70.270004</ele>
        <time>2025-06-04T08:14:25.967Z</time>
      </trkpt>
      <trkpt lat="48.41985" lon="-2.11442">
        <ele>70.19</ele>
        <time>2025-06-04T08:14:24.925Z</time>
      </trkpt>
      <trkpt lat="48.41982" lon="-2.11442">
        <ele>70.01</ele>
        <time>2025-06-04T08:14:24.255Z</time>
      </trkpt>
      <trkpt lat="48.41976" lon="-2.11442">
        <ele>69.95</ele>
        <time>2025-06-04T08:14:21.935Z</time>
      </trkpt>
      <trkpt lat="48.41975" lon="-2.11441">
        <ele>69.85</ele>
        <time>2025-06-04T08:14:20.856Z</time>
      </trkpt>
      <trkpt lat="48.41972" lon="-2.11439">
        <ele>69.64</ele>
        <time>2025-06-04T08:14:19.941Z</time>
      </trkpt>
      <trkpt lat="48.41967" lon="-2.11437">
        <ele>69.51</ele>
        <time>2025-06-04T08:14:19.251Z</time>
      </trkpt>
      <trkpt lat="48.41965" lon="-2.11439">
        <ele>69.42</ele>
        <time>2025-06-04T08:14:17.265Z</time>
      </trkpt>
      <trkpt lat="48.41962" lon="-2.11442">
        <ele>69.32</ele>
        <time>2025-06-04T08:14:16.281Z</time>
      </trkpt>
      <trkpt lat="48.41959" lon="-2.11445">
        <ele>69.21</ele>
        <time>2025-06-04T08:14:15.264Z</time>
      </trkpt>
      <trkpt lat="48.41956" lon="-2.1145">
        <ele>69.13</ele>
        <time>2025-06-04T08:14:14.254Z</time>
      </trkpt>
      <trkpt lat="48.41953" lon="-2.11456">
        <ele>69.06</ele>
        <time>2025-06-04T08:14:14.225Z</time>
      </trkpt>
      <trkpt lat="48.41945" lon="-2.11482">
        <ele>69.03</ele>
        <time>2025-06-04T08:14:12.254Z</time>
      </trkpt>
      <trkpt lat="48.41947" lon="-2.11484">
        <ele>69.05</ele>
        <time>2025-06-04T08:14:10.934Z</time>
      </trkpt>
      <trkpt lat="48.41942" lon="-2.11485">
        <ele>69.06</ele>
        <time>2025-06-04T08:14:10.226Z</time>
      </trkpt>
      <trkpt lat="48.41939" lon="-2.11486">
        <ele>69.08</ele>
        <time>2025-06-04T08:14:08.791Z</time>
      </trkpt>
      <trkpt lat="48.41936" lon="-2.11487">
        <ele>69.11</ele>
        <time>2025-06-04T08:14:08.222Z</time>
      </trkpt>
      <trkpt lat="48.41933" lon="-2.11488">
        <ele>69.14</ele>
        <time>2025-06-04T08:14:06.770Z</time>
      </trkpt>
      <trkpt lat="48.41932" lon="-2.11488">
        <ele>69.18</ele>
        <time>2025-06-04T08:14:06.184Z</time>
      </trkpt>
      <trkpt lat="48.4193" lon="-2.11487">
        <ele>69.2</ele>
        <time>2025-06-04T08:14:04.264Z</time>
      </trkpt>
      <trkpt lat="48.41929" lon="-2.11489">
        <ele>69.22</ele>
        <time>2025-06-04T08:14:03.265Z</time>
      </trkpt>
      <trkpt lat="48.41918" lon="-2.11491">
        <ele>70.06</ele>
        <time>2025-06-04T08:13:29.383Z</time>
      </trkpt>
      <trkpt lat="48.41914" lon="-2.11494">
        <ele>70.15</ele>
        <time>2025-06-04T08:13:28.862Z</time>
      </trkpt>
      <trkpt lat="48.41912" lon="-2.11497">
        <ele>70.229996</ele>
        <time>2025-06-04T08:13:27.881Z</time>
      </trkpt>
      <trkpt lat="48.41909" lon="-2.11501">
        <ele>70.31</ele>
        <time>2025-06-04T08:13:26.947Z</time>
      </trkpt>
      <trkpt lat="48.41906" lon="-2.11504">
        <ele>70.38</ele>
        <time>2025-06-04T08:13:25.931Z</time>
      </trkpt>
      <trkpt lat="48.41904" lon="-2.11508">
        <ele>70.47</ele>
        <time>2025-06-04T08:13:24.916Z</time>
      </trkpt>
      <trkpt lat="48.41902" lon="-2.11512">
        <ele>70.56</ele>
        <time>2025-06-04T08:13:23.998Z</time>
      </trkpt>
      <trkpt lat="48.419" lon="-2.11516">
        <ele>70.65</ele>
        <time>2025-06-04T08:13:22.919Z</time>
      </trkpt>
      <trkpt lat="48.41898" lon="-2.1152">
        <ele>70.74</ele>
        <time>2025-06-04T08:13:21.950Z</time>
      </trkpt>
      <trkpt lat="48.41897" lon="-2.11525">
        <ele>70.83</ele>
        <time>2025-06-04T08:13:20.925Z</time>
      </trkpt>
      <trkpt lat="48.41895" lon="-2.11531">
        <ele>70.95</ele>
        <time>2025-06-04T08:13:19.899Z</time>
      </trkpt>
      <trkpt lat="48.41893" lon="-2.11537">
        <ele>71.05</ele>
        <time>2025-06-04T08:13:18.860Z</time>
      </trkpt>
      <trkpt lat="48.4189" lon="-2.11541">
        <ele>71.17</ele>
        <time>2025-06-04T08:13:17.871Z</time>
      </trkpt>
      <trkpt lat="48.41887" lon="-2.11544">
        <ele>71.29</ele>
        <time>2025-06-04T08:13:16.902Z</time>
      </trkpt>
      <trkpt lat="48.41883" lon="-2.11548">
        <ele>71.43</ele>
        <time>2025-06-04T08:13:16.070Z</time>
      </trkpt>
      <trkpt lat="48.4188" lon="-2.1155">
        <ele>71.58</ele>
        <time>2025-06-04T08:13:14.835Z</time>
      </trkpt>
      <trkpt lat="48.41877" lon="-2.11555">
        <ele>71.75</ele>
        <time>2025-06-04T08:13:13.835Z</time>
      </trkpt>
      <trkpt lat="48.41872" lon="-2.11558">
        <ele>71.9</ele>
        <time>2025-06-04T08:13:12.866Z</time>
      </trkpt>
      <trkpt lat="48.41868" lon="-2.1156">
        <ele>72.04</ele>
        <time>2025-06-04T08:13:11.943Z</time>
      </trkpt>
      <trkpt lat="48.41864" lon="-2.11563">
        <ele>72.2</ele>
        <time>2025-06-04T08:13:10.931Z</time>
      </trkpt>
      <trkpt lat="48.41858" lon="-2.11565">
        <ele>72.38</ele>
        <time>2025-06-04T08:13:09.918Z</time>
      </trkpt>
      <trkpt lat="48.41852" lon="-2.11569">
        <ele>72.51</ele>
        <time>2025-06-04T08:13:08.908Z</time>
      </trkpt>
      <trkpt lat="48.41848" lon="-2.11571">
        <ele>72.66</ele>
        <time>2025-06-04T08:13:07.931Z</time>
      </trkpt>
      <trkpt lat="48.41845" lon="-2.11573">
        <ele>72.78</ele>
        <time>2025-06-04T08:13:06.850Z</time>
      </trkpt>
      <trkpt lat="48.41841" lon="-2.11575">
        <ele>72.9</ele>
        <time>2025-06-04T08:13:05.869Z</time>
      </trkpt>
      <trkpt lat="48.41838" lon="-2.11577">
        <ele>73.02</ele>
        <time>2025-06-04T08:13:05.270Z</time>
      </trkpt>
      <trkpt lat="48.41836" lon="-2.1158">
        <ele>73.12</ele>
        <time>2025-06-04T08:13:03.919Z</time>
      </trkpt>
      <trkpt lat="48.41835" lon="-2.11584">
        <ele>73.23</ele>
        <time>2025-06-04T08:13:02.952Z</time>
      </trkpt>
      <trkpt lat="48.41834" lon="-2.11588">
        <ele>73.32</ele>
        <time>2025-06-04T08:13:01.915Z</time>
      </trkpt>
      <trkpt lat="48.41833" lon="-2.11591">
        <ele>73.41</ele>
        <time>2025-06-04T08:13:00.924Z</time>
      </trkpt>
      <trkpt lat="48.41833" lon="-2.11595">
        <ele>73.5</ele>
        <time>2025-06-04T08:12:59.923Z</time>
      </trkpt>
      <trkpt lat="48.41832" lon="-2.11596">
        <ele>73.59</ele>
        <time>2025-06-04T08:12:58.922Z</time>
      </trkpt>
      <trkpt lat="48.41831" lon="-2.11602">
        <ele>73.68</ele>
        <time>2025-06-04T08:12:57.864Z</time>
      </trkpt>
      <trkpt lat="48.41829" lon="-2.11608">
        <ele>73.76</ele>
        <time>2025-06-04T08:12:56.934Z</time>
      </trkpt>
      <trkpt lat="48.41827" lon="-2.11614">
        <ele>73.8</ele>
        <time>2025-06-04T08:12:56.179Z</time>
      </trkpt>
      <trkpt lat="48.41824" lon="-2.11618">
        <ele>73.85</ele>
        <time>2025-06-04T08:12:54.876Z</time>
      </trkpt>
      <trkpt lat="48.41821" lon="-2.11623">
        <ele>73.88</ele>
        <time>2025-06-04T08:12:53.853Z</time>
      </trkpt>
      <trkpt lat="48.41817" lon="-2.11628">
        <ele>73.91</ele>
        <time>2025-06-04T08:12:52.861Z</time>
      </trkpt>
      <trkpt lat="48.41814" lon="-2.11631">
        <ele>73.94</ele>
        <time>2025-06-04T08:12:51.942Z</time>
      </trkpt>
      <trkpt lat="48.41811" lon="-2.11635">
        <ele>73.95</ele>
        <time>2025-06-04T08:12:50.938Z</time>
      </trkpt>
      <trkpt lat="48.41807" lon="-2.11639">
        <ele>73.96</ele>
        <time>2025-06-04T08:12:50.007Z</time>
      </trkpt>
      <trkpt lat="48.41804" lon="-2.11643">
        <ele>73.97</ele>
        <time>2025-06-04T08:12:48.923Z</time>
      </trkpt>
      <trkpt lat="48.41802" lon="-2.11646">
        <ele>73.98</ele>
        <time>2025-06-04T08:12:47.907Z</time>
      </trkpt>
      <trkpt lat="48.41798" lon="-2.1165">
        <ele>73.99</ele>
        <time>2025-06-04T08:12:46.932Z</time>
      </trkpt>
      <trkpt lat="48.41796" lon="-2.11652">
        <ele>74.01</ele>
        <time>2025-06-04T08:12:45.871Z</time>
      </trkpt>
      <trkpt lat="48.41793" lon="-2.11655">
        <ele>74.04</ele>
        <time>2025-06-04T08:12:44.779Z</time>
      </trkpt>
      <trkpt lat="48.41789" lon="-2.11655">
        <ele>74.06</ele>
        <time>2025-06-04T08:12:43.858Z</time>
      </trkpt>
      <trkpt lat="48.41785" lon="-2.11655">
        <ele>74.07</ele>
        <time>2025-06-04T08:12:42.905Z</time>
      </trkpt>
      <trkpt lat="48.41782" lon="-2.11655">
        <ele>74.09</ele>
        <time>2025-06-04T08:12:41.403Z</time>
      </trkpt>
      <trkpt lat="48.41779" lon="-2.11654">
        <ele>74.1</ele>
        <time>2025-06-04T08:12:40.987Z</time>
      </trkpt>
      <trkpt lat="48.41776" lon="-2.11654">
        <ele>74.09</ele>
        <time>2025-06-04T08:12:39.950Z</time>
      </trkpt>
      <trkpt lat="48.41773" lon="-2.11654">
        <ele>74.08</ele>
        <time>2025-06-04T08:12:38.930Z</time>
      </trkpt>
      <trkpt lat="48.41769" lon="-2.11654">
        <ele>74.06</ele>
        <time>2025-06-04T08:12:37.951Z</time>
      </trkpt>
      <trkpt lat="48.41767" lon="-2.11656">
        <ele>74.03</ele>
        <time>2025-06-04T08:12:36.877Z</time>
      </trkpt>
      <trkpt lat="48.41764" lon="-2.1166">
        <ele>74</ele>
        <time>2025-06-04T08:12:35.883Z</time>
      </trkpt>
      <trkpt lat="48.41761" lon="-2.11663">
        <ele>73.97</ele>
        <time>2025-06-04T08:12:34.352Z</time>
      </trkpt>
      <trkpt lat="48.41757" lon="-2.11666">
        <ele>73.91</ele>
        <time>2025-06-04T08:12:33.871Z</time>
      </trkpt>
      <trkpt lat="48.41753" lon="-2.11667">
        <ele>73.85</ele>
        <time>2025-06-04T08:12:32.866Z</time>
      </trkpt>
      <trkpt lat="48.41749" lon="-2.11668">
        <ele>73.69</ele>
        <time>2025-06-04T08:12:32.245Z</time>
      </trkpt>
      <trkpt lat="48.41742" lon="-2.1167">
        <ele>73.6</ele>
        <time>2025-06-04T08:12:29.835Z</time>
      </trkpt>
      <trkpt lat="48.41739" lon="-2.11672">
        <ele>73.49</ele>
        <time>2025-06-04T08:12:28.850Z</time>
      </trkpt>
      <trkpt lat="48.41736" lon="-2.11674">
        <ele>73.26</ele>
        <time>2025-06-04T08:12:28.247Z</time>
      </trkpt>
      <trkpt lat="48.4173" lon="-2.11679">
        <ele>73.15</ele>
        <time>2025-06-04T08:12:26.260Z</time>
      </trkpt>
      <trkpt lat="48.41727" lon="-2.11681">
        <ele>73.04</ele>
        <time>2025-06-04T08:12:26.259Z</time>
      </trkpt>
      <trkpt lat="48.41724" lon="-2.11683">
        <ele>72.93</ele>
        <time>2025-06-04T08:12:23.781Z</time>
      </trkpt>
      <trkpt lat="48.41721" lon="-2.11684">
        <ele>72.729996</ele>
        <time>2025-06-04T08:12:23.256Z</time>
      </trkpt>
      <trkpt lat="48.41714" lon="-2.11686">
        <ele>72.65</ele>
        <time>2025-06-04T08:12:21.257Z</time>
      </trkpt>
      <trkpt lat="48.41711" lon="-2.11686">
        <ele>72.57</ele>
        <time>2025-06-04T08:12:20.217Z</time>
      </trkpt>
      <trkpt lat="48.4171" lon="-2.11686">
        <ele>72.42</ele>
        <time>2025-06-04T08:12:19.117Z</time>
      </trkpt>
      <trkpt lat="48.41708" lon="-2.11687">
        <ele>72.33</ele>
        <time>2025-06-04T08:12:17.262Z</time>
      </trkpt>
      <trkpt lat="48.41706" lon="-2.11688">
        <ele>72.24</ele>
        <time>2025-06-04T08:12:16.254Z</time>
      </trkpt>
      <trkpt lat="48.41706" lon="-2.11689">
        <ele>72.12</ele>
        <time>2025-06-04T08:12:14.946Z</time>
      </trkpt>
      <trkpt lat="48.41702" lon="-2.11691">
        <ele>71.97</ele>
        <time>2025-06-04T08:12:12.275Z</time>
      </trkpt>
      <trkpt lat="48.41699" lon="-2.11691">
        <ele>71.9</ele>
        <time>2025-06-04T08:12:11.278Z</time>
      </trkpt>
      <trkpt lat="48.41697" lon="-2.1169">
        <ele>71.84</ele>
        <time>2025-06-04T08:12:10.268Z</time>
      </trkpt>
      <trkpt lat="48.41694" lon="-2.1169">
        <ele>71.770004</ele>
        <time>2025-06-04T08:12:09.252Z</time>
      </trkpt>
      <trkpt lat="48.41692" lon="-2.1169">
        <ele>71.72</ele>
        <time>2025-06-04T08:12:09.246Z</time>
      </trkpt>
      <trkpt lat="48.4169" lon="-2.1169">
        <ele>71.68</ele>
        <time>2025-06-04T08:12:07.271Z</time>
      </trkpt>
      <trkpt lat="48.41687" lon="-2.1169">
        <ele>71.63</ele>
        <time>2025-06-04T08:12:06.259Z</time>
      </trkpt>
      <trkpt lat="48.41686" lon="-2.1169">
        <ele>71.56</ele>
        <time>2025-06-04T08:12:05.157Z</time>
      </trkpt>
      <trkpt lat="48.41683" lon="-2.1169">
        <ele>71.53</ele>
        <time>2025-06-04T08:12:03.276Z</time>
      </trkpt>
      <trkpt lat="48.4168" lon="-2.1169">
        <ele>71.5</ele>
        <time>2025-06-04T08:12:02.285Z</time>
      </trkpt>
      <trkpt lat="48.41678" lon="-2.11689">
        <ele>71.479996</ele>
        <time>2025-06-04T08:12:02.070Z</time>
      </trkpt>
      <trkpt lat="48.41676" lon="-2.11689">
        <ele>71.46</ele>
        <time>2025-06-04T08:12:00.264Z</time>
      </trkpt>
      <trkpt lat="48.41673" lon="-2.11687">
        <ele>71.46</ele>
        <time>2025-06-04T08:11:59.121Z</time>
      </trkpt>
      <trkpt lat="48.41669" lon="-2.11684">
        <ele>71.46</ele>
        <time>2025-06-04T08:11:57.264Z</time>
      </trkpt>
      <trkpt lat="48.41667" lon="-2.11682">
        <ele>71.47</ele>
        <time>2025-06-04T08:11:56.261Z</time>
      </trkpt>
      <trkpt lat="48.41665" lon="-2.1168">
        <ele>71.479996</ele>
        <time>2025-06-04T08:11:55.249Z</time>
      </trkpt>
      <trkpt lat="48.41664" lon="-2.11679">
        <ele>71.49</ele>
        <time>2025-06-04T08:11:54.254Z</time>
      </trkpt>
      <trkpt lat="48.41662" lon="-2.11677">
        <ele>71.520004</ele>
        <time>2025-06-04T08:11:53.165Z</time>
      </trkpt>
      <trkpt lat="48.41658" lon="-2.11673">
        <ele>71.53</ele>
        <time>2025-06-04T08:11:51.263Z</time>
      </trkpt>
      <trkpt lat="48.41657" lon="-2.11671">
        <ele>71.55</ele>
        <time>2025-06-04T08:11:50.252Z</time>
      </trkpt>
      <trkpt lat="48.41654" lon="-2.11669">
        <ele>71.57</ele>
        <time>2025-06-04T08:11:50.137Z</time>
      </trkpt>
      <trkpt lat="48.41652" lon="-2.11667">
        <ele>71.6</ele>
        <time>2025-06-04T08:11:48.192Z</time>
      </trkpt>
      <trkpt lat="48.41648" lon="-2.1166">
        <ele>71.62</ele>
        <time>2025-06-04T08:11:46.195Z</time>
      </trkpt>
      <trkpt lat="48.41645" lon="-2.11653">
        <ele>71.62</ele>
        <time>2025-06-04T08:11:44.253Z</time>
      </trkpt>
      <trkpt lat="48.41643" lon="-2.1165">
        <ele>71.62</ele>
        <time>2025-06-04T08:11:43.277Z</time>
      </trkpt>
      <trkpt lat="48.41642" lon="-2.11648">
        <ele>71.61</ele>
        <time>2025-06-04T08:11:42.268Z</time>
      </trkpt>
      <trkpt lat="48.4164" lon="-2.11646">
        <ele>71.6</ele>
        <time>2025-06-04T08:11:41.262Z</time>
      </trkpt>
      <trkpt lat="48.41639" lon="-2.11645">
        <ele>71.6</ele>
        <time>2025-06-04T08:11:40.157Z</time>
      </trkpt>
      <trkpt lat="48.41637" lon="-2.11645">
        <ele>71.58</ele>
        <time>2025-06-04T08:11:38.269Z</time>
      </trkpt>
      <trkpt lat="48.41636" lon="-2.11645">
        <ele>71.58</ele>
        <time>2025-06-04T08:11:37.258Z</time>
      </trkpt>
      <trkpt lat="48.41635" lon="-2.11646">
        <ele>71.58</ele>
        <time>2025-06-04T08:11:35.883Z</time>
      </trkpt>
      <trkpt lat="48.41634" lon="-2.1164">
        <ele>71.58</ele>
        <time>2025-06-04T08:11:35.117Z</time>
      </trkpt>
      <trkpt lat="48.41632" lon="-2.11637">
        <ele>71.57</ele>
        <time>2025-06-04T08:11:33.251Z</time>
      </trkpt>
      <trkpt lat="48.4163" lon="-2.11634">
        <ele>71.57</ele>
        <time>2025-06-04T08:11:32.219Z</time>
      </trkpt>
      <trkpt lat="48.41628" lon="-2.11628">
        <ele>71.520004</ele>
        <time>2025-06-04T08:11:31.106Z</time>
      </trkpt>
      <trkpt lat="48.41623" lon="-2.1162">
        <ele>71.49</ele>
        <time>2025-06-04T08:11:29.218Z</time>
      </trkpt>
      <trkpt lat="48.41619" lon="-2.11617">
        <ele>71.46</ele>
        <time>2025-06-04T08:11:29.195Z</time>
      </trkpt>
      <trkpt lat="48.41615" lon="-2.11614">
        <ele>71.43</ele>
        <time>2025-06-04T08:11:27.259Z</time>
      </trkpt>
      <trkpt lat="48.41611" lon="-2.11612">
        <ele>71.39</ele>
        <time>2025-06-04T08:11:27.188Z</time>
      </trkpt>
      <trkpt lat="48.41606" lon="-2.1161">
        <ele>71.37</ele>
        <time>2025-06-04T08:11:26.192Z</time>
      </trkpt>
      <trkpt lat="48.41603" lon="-2.11609">
        <ele>71.36</ele>
        <time>2025-06-04T08:11:24.242Z</time>
      </trkpt>
      <trkpt lat="48.41599" lon="-2.11607">
        <ele>71.38</ele>
        <time>2025-06-04T08:11:24.146Z</time>
      </trkpt>
      <trkpt lat="48.41595" lon="-2.11606">
        <ele>71.41</ele>
        <time>2025-06-04T08:11:22.266Z</time>
      </trkpt>
      <trkpt lat="48.41593" lon="-2.11604">
        <ele>71.45</ele>
        <time>2025-06-04T08:11:21.179Z</time>
      </trkpt>
      <trkpt lat="48.4159" lon="-2.11603">
        <ele>71.51</ele>
        <time>2025-06-04T08:11:20.262Z</time>
      </trkpt>
      <trkpt lat="48.41588" lon="-2.116">
        <ele>71.58</ele>
        <time>2025-06-04T08:11:19.199Z</time>
      </trkpt>
      <trkpt lat="48.41586" lon="-2.11598">
        <ele>71.72</ele>
        <time>2025-06-04T08:11:17.964Z</time>
      </trkpt>
      <trkpt lat="48.41584" lon="-2.11591">
        <ele>71.8</ele>
        <time>2025-06-04T08:11:16.259Z</time>
      </trkpt>
      <trkpt lat="48.41582" lon="-2.11588">
        <ele>71.88</ele>
        <time>2025-06-04T08:11:15.239Z</time>
      </trkpt>
      <trkpt lat="48.41581" lon="-2.11582">
        <ele>72.01</ele>
        <time>2025-06-04T08:11:14.106Z</time>
      </trkpt>
      <trkpt lat="48.41582" lon="-2.11574">
        <ele>72.04</ele>
        <time>2025-06-04T08:11:13.163Z</time>
      </trkpt>
      <trkpt lat="48.41582" lon="-2.11571">
        <ele>72.09</ele>
        <time>2025-06-04T08:11:11.219Z</time>
      </trkpt>
      <trkpt lat="48.41584" lon="-2.11568">
        <ele>72.12</ele>
        <time>2025-06-04T08:11:10.249Z</time>
      </trkpt>
      <trkpt lat="48.41585" lon="-2.11565">
        <ele>72.17</ele>
        <time>2025-06-04T08:11:09.270Z</time>
      </trkpt>
      <trkpt lat="48.41586" lon="-2.11562">
        <ele>72.17</ele>
        <time>2025-06-04T08:11:08.251Z</time>
      </trkpt>
      <trkpt lat="48.41588" lon="-2.1156">
        <ele>72.18</ele>
        <time>2025-06-04T08:11:07.260Z</time>
      </trkpt>
      <trkpt lat="48.4159" lon="-2.11557">
        <ele>72.14</ele>
        <time>2025-06-04T08:11:06.137Z</time>
      </trkpt>
      <trkpt lat="48.41589" lon="-2.11544">
        <ele>72.01</ele>
        <time>2025-06-04T08:11:03.720Z</time>
      </trkpt>
      <trkpt lat="48.41587" lon="-2.1154">
        <ele>71.91</ele>
        <time>2025-06-04T08:11:02.819Z</time>
      </trkpt>
      <trkpt lat="48.41584" lon="-2.11537">
        <ele>71.67</ele>
        <time>2025-06-04T08:11:01.122Z</time>
      </trkpt>
      <trkpt lat="48.41579" lon="-2.11536">
        <ele>71.56</ele>
        <time>2025-06-04T08:10:59.801Z</time>
      </trkpt>
      <trkpt lat="48.41576" lon="-2.11537">
        <ele>71.44</ele>
        <time>2025-06-04T08:10:58.217Z</time>
      </trkpt>
      <trkpt lat="48.41573" lon="-2.1154">
        <ele>71.33</ele>
        <time>2025-06-04T08:10:57.194Z</time>
      </trkpt>
      <trkpt lat="48.4157" lon="-2.11542">
        <ele>71.25</ele>
        <time>2025-06-04T08:10:56.263Z</time>
      </trkpt>
      <trkpt lat="48.41567" lon="-2.11545">
        <ele>71.17</ele>
        <time>2025-06-04T08:10:55.265Z</time>
      </trkpt>
      <trkpt lat="48.41564" lon="-2.11548">
        <ele>71.09</ele>
        <time>2025-06-04T08:10:54.272Z</time>
      </trkpt>
      <trkpt lat="48.41561" lon="-2.1155">
        <ele>71</ele>
        <time>2025-06-04T08:10:53.884Z</time>
      </trkpt>
      <trkpt lat="48.41558" lon="-2.1155">
        <ele>70.9</ele>
        <time>2025-06-04T08:10:52.230Z</time>
      </trkpt>
      <trkpt lat="48.41556" lon="-2.1155">
        <ele>70.79</ele>
        <time>2025-06-04T08:10:51.882Z</time>
      </trkpt>
      <trkpt lat="48.41554" lon="-2.11548">
        <ele>70.67</ele>
        <time>2025-06-04T08:10:50.644Z</time>
      </trkpt>
      <trkpt lat="48.41553" lon="-2.11546">
        <ele>70.520004</ele>
        <time>2025-06-04T08:10:49.972Z</time>
      </trkpt>
      <trkpt lat="48.41552" lon="-2.11543">
        <ele>70.36</ele>
        <time>2025-06-04T08:10:49.137Z</time>
      </trkpt>
      <trkpt lat="48.4155" lon="-2.11539">
        <ele>70.18</ele>
        <time>2025-06-04T08:10:47.651Z</time>
      </trkpt>
      <trkpt lat="48.41548" lon="-2.11534">
        <ele>69.97</ele>
        <time>2025-06-04T08:10:46.266Z</time>
      </trkpt>
      <trkpt lat="48.41546" lon="-2.11528">
        <ele>69.74</ele>
        <time>2025-06-04T08:10:45.243Z</time>
      </trkpt>
      <trkpt lat="48.41544" lon="-2.11522">
        <ele>69.479996</ele>
        <time>2025-06-04T08:10:44.256Z</time>
      </trkpt>
      <trkpt lat="48.41541" lon="-2.11516">
        <ele>69.22</ele>
        <time>2025-06-04T08:10:43.255Z</time>
      </trkpt>
      <trkpt lat="48.41538" lon="-2.11509">
        <ele>68.93</ele>
        <time>2025-06-04T08:10:42.253Z</time>
      </trkpt>
      <trkpt lat="48.41536" lon="-2.11502">
        <ele>68.66</ele>
        <time>2025-06-04T08:10:41.246Z</time>
      </trkpt>
      <trkpt lat="48.41533" lon="-2.11495">
        <ele>68.38</ele>
        <time>2025-06-04T08:10:41.090Z</time>
      </trkpt>
      <trkpt lat="48.4153" lon="-2.11487">
        <ele>68.1</ele>
        <time>2025-06-04T08:10:39.974Z</time>
      </trkpt>
      <trkpt lat="48.41527" lon="-2.11481">
        <ele>67.85</ele>
        <time>2025-06-04T08:10:39.104Z</time>
      </trkpt>
      <trkpt lat="48.41524" lon="-2.11474">
        <ele>67.64</ele>
        <time>2025-06-04T08:10:37.690Z</time>
      </trkpt>
      <trkpt lat="48.41521" lon="-2.11468">
        <ele>67.479996</ele>
        <time>2025-06-04T08:10:36.252Z</time>
      </trkpt>
      <trkpt lat="48.41517" lon="-2.11459">
        <ele>67.35</ele>
        <time>2025-06-04T08:10:36.125Z</time>
      </trkpt>
      <trkpt lat="48.41515" lon="-2.11454">
        <ele>67.270004</ele>
        <time>2025-06-04T08:10:35.007Z</time>
      </trkpt>
      <trkpt lat="48.41512" lon="-2.11447">
        <ele>67.21</ele>
        <time>2025-06-04T08:10:33.255Z</time>
      </trkpt>
      <trkpt lat="48.4151" lon="-2.1144">
        <ele>67.17</ele>
        <time>2025-06-04T08:10:33.104Z</time>
      </trkpt>
      <trkpt lat="48.41507" lon="-2.11433">
        <ele>67.15</ele>
        <time>2025-06-04T08:10:31.252Z</time>
      </trkpt>
      <trkpt lat="48.41504" lon="-2.11427">
        <ele>67.16</ele>
        <time>2025-06-04T08:10:30.264Z</time>
      </trkpt>
      <trkpt lat="48.41501" lon="-2.11419">
        <ele>67.19</ele>
        <time>2025-06-04T08:10:29.262Z</time>
      </trkpt>
      <trkpt lat="48.41498" lon="-2.11412">
        <ele>67.21</ele>
        <time>2025-06-04T08:10:28.262Z</time>
      </trkpt>
      <trkpt lat="48.41495" lon="-2.11404">
        <ele>67.25</ele>
        <time>2025-06-04T08:10:27.259Z</time>
      </trkpt>
      <trkpt lat="48.41492" lon="-2.11396">
        <ele>67.29</ele>
        <time>2025-06-04T08:10:26.258Z</time>
      </trkpt>
      <trkpt lat="48.4149" lon="-2.11388">
        <ele>67.33</ele>
        <time>2025-06-04T08:10:25.257Z</time>
      </trkpt>
      <trkpt lat="48.41488" lon="-2.1138">
        <ele>67.32</ele>
        <time>2025-06-04T08:10:24.257Z</time>
      </trkpt>
      <trkpt lat="48.41486" lon="-2.11372">
        <ele>67.3</ele>
        <time>2025-06-04T08:10:23.255Z</time>
      </trkpt>
      <trkpt lat="48.41485" lon="-2.11364">
        <ele>67.270004</ele>
        <time>2025-06-04T08:10:22.276Z</time>
      </trkpt>
      <trkpt lat="48.41484" lon="-2.11357">
        <ele>67.22</ele>
        <time>2025-06-04T08:10:21.279Z</time>
      </trkpt>
      <trkpt lat="48.41482" lon="-2.11351">
        <ele>67.13</ele>
        <time>2025-06-04T08:10:21.083Z</time>
      </trkpt>
      <trkpt lat="48.4148" lon="-2.11345">
        <ele>66.99</ele>
        <time>2025-06-04T08:10:20.030Z</time>
      </trkpt>
      <trkpt lat="48.41478" lon="-2.1134">
        <ele>66.83</ele>
        <time>2025-06-04T08:10:19.099Z</time>
      </trkpt>
      <trkpt lat="48.41475" lon="-2.11334">
        <ele>66.65</ele>
        <time>2025-06-04T08:10:17.275Z</time>
      </trkpt>
      <trkpt lat="48.41473" lon="-2.11328">
        <ele>66.4</ele>
        <time>2025-06-04T08:10:16.240Z</time>
      </trkpt>
      <trkpt lat="48.41471" lon="-2.11322">
        <ele>66.15</ele>
        <time>2025-06-04T08:10:15.861Z</time>
      </trkpt>
      <trkpt lat="48.41468" lon="-2.11317">
        <ele>65.9</ele>
        <time>2025-06-04T08:10:14.890Z</time>
      </trkpt>
      <trkpt lat="48.41466" lon="-2.11311">
        <ele>65.67</ele>
        <time>2025-06-04T08:10:13.800Z</time>
      </trkpt>
      <trkpt lat="48.41463" lon="-2.11305">
        <ele>65.42</ele>
        <time>2025-06-04T08:10:12.727Z</time>
      </trkpt>
      <trkpt lat="48.4146" lon="-2.113">
        <ele>65.22</ele>
        <time>2025-06-04T08:10:11.654Z</time>
      </trkpt>
      <trkpt lat="48.41458" lon="-2.11294">
        <ele>65.04</ele>
        <time>2025-06-04T08:10:11.011Z</time>
      </trkpt>
      <trkpt lat="48.41455" lon="-2.11288">
        <ele>64.9</ele>
        <time>2025-06-04T08:10:09.257Z</time>
      </trkpt>
      <trkpt lat="48.41452" lon="-2.11282">
        <ele>64.78</ele>
        <time>2025-06-04T08:10:08.738Z</time>
      </trkpt>
      <trkpt lat="48.4145" lon="-2.11276">
        <ele>64.64</ele>
        <time>2025-06-04T08:10:07.825Z</time>
      </trkpt>
      <trkpt lat="48.41448" lon="-2.1127">
        <ele>64.479996</ele>
        <time>2025-06-04T08:10:06.276Z</time>
      </trkpt>
      <trkpt lat="48.41445" lon="-2.11264">
        <ele>64.33</ele>
        <time>2025-06-04T08:10:06.046Z</time>
      </trkpt>
      <trkpt lat="48.41442" lon="-2.11258">
        <ele>64.19</ele>
        <time>2025-06-04T08:10:04.265Z</time>
      </trkpt>
      <trkpt lat="48.41439" lon="-2.11253">
        <ele>64.06</ele>
        <time>2025-06-04T08:10:03.263Z</time>
      </trkpt>
      <trkpt lat="48.41436" lon="-2.11247">
        <ele>63.91</ele>
        <time>2025-06-04T08:10:02.263Z</time>
      </trkpt>
      <trkpt lat="48.41433" lon="-2.11241">
        <ele>63.75</ele>
        <time>2025-06-04T08:10:01.909Z</time>
      </trkpt>
      <trkpt lat="48.4143" lon="-2.11235">
        <ele>63.58</ele>
        <time>2025-06-04T08:10:01.080Z</time>
      </trkpt>
      <trkpt lat="48.41427" lon="-2.11228">
        <ele>63.41</ele>
        <time>2025-06-04T08:09:59.241Z</time>
      </trkpt>
      <trkpt lat="48.41424" lon="-2.11222">
        <ele>63.25</ele>
        <time>2025-06-04T08:09:58.259Z</time>
      </trkpt>
      <trkpt lat="48.41422" lon="-2.11215">
        <ele>63.08</ele>
        <time>2025-06-04T08:09:58.037Z</time>
      </trkpt>
      <trkpt lat="48.4142" lon="-2.11208">
        <ele>62.93</ele>
        <time>2025-06-04T08:09:57.025Z</time>
      </trkpt>
      <trkpt lat="48.41417" lon="-2.11201">
        <ele>62.78</ele>
        <time>2025-06-04T08:09:55.259Z</time>
      </trkpt>
      <trkpt lat="48.41414" lon="-2.11193">
        <ele>62.66</ele>
        <time>2025-06-04T08:09:54.257Z</time>
      </trkpt>
      <trkpt lat="48.41412" lon="-2.11186">
        <ele>62.54</ele>
        <time>2025-06-04T08:09:53.261Z</time>
      </trkpt>
      <trkpt lat="48.4141" lon="-2.11179">
        <ele>62.48</ele>
        <time>2025-06-04T08:09:53.055Z</time>
      </trkpt>
      <trkpt lat="48.41408" lon="-2.11171">
        <ele>62.42</ele>
        <time>2025-06-04T08:09:51.259Z</time>
      </trkpt>
      <trkpt lat="48.41406" lon="-2.11164">
        <ele>62.36</ele>
        <time>2025-06-04T08:09:51.064Z</time>
      </trkpt>
      <trkpt lat="48.41405" lon="-2.11156">
        <ele>62.32</ele>
        <time>2025-06-04T08:09:49.256Z</time>
      </trkpt>
      <trkpt lat="48.41403" lon="-2.11148">
        <ele>62.3</ele>
        <time>2025-06-04T08:09:48.635Z</time>
      </trkpt>
      <trkpt lat="48.41401" lon="-2.1114">
        <ele>62.29</ele>
        <time>2025-06-04T08:09:47.572Z</time>
      </trkpt>
      <trkpt lat="48.414" lon="-2.11132">
        <ele>62.29</ele>
        <time>2025-06-04T08:09:46.654Z</time>
      </trkpt>
      <trkpt lat="48.41399" lon="-2.11124">
        <ele>62.3</ele>
        <time>2025-06-04T08:09:45.583Z</time>
      </trkpt>
      <trkpt lat="48.41398" lon="-2.11116">
        <ele>62.309998</ele>
        <time>2025-06-04T08:09:44.278Z</time>
      </trkpt>
      <trkpt lat="48.41397" lon="-2.11108">
        <ele>62.33</ele>
        <time>2025-06-04T08:09:43.254Z</time>
      </trkpt>
      <trkpt lat="48.41395" lon="-2.111">
        <ele>62.34</ele>
        <time>2025-06-04T08:09:42.254Z</time>
      </trkpt>
      <trkpt lat="48.41394" lon="-2.11092">
        <ele>62.32</ele>
        <time>2025-06-04T08:09:41.818Z</time>
      </trkpt>
      <trkpt lat="48.41392" lon="-2.11085">
        <ele>62.29</ele>
        <time>2025-06-04T08:09:40.269Z</time>
      </trkpt>
      <trkpt lat="48.41389" lon="-2.11077">
        <ele>62.27</ele>
        <time>2025-06-04T08:09:39.257Z</time>
      </trkpt>
      <trkpt lat="48.41386" lon="-2.1107">
        <ele>62.23</ele>
        <time>2025-06-04T08:09:38.838Z</time>
      </trkpt>
      <trkpt lat="48.41384" lon="-2.11062">
        <ele>62.17</ele>
        <time>2025-06-04T08:09:37.221Z</time>
      </trkpt>
      <trkpt lat="48.41381" lon="-2.11055">
        <ele>62.11</ele>
        <time>2025-06-04T08:09:36.902Z</time>
      </trkpt>
      <trkpt lat="48.41378" lon="-2.11047">
        <ele>62.05</ele>
        <time>2025-06-04T08:09:35.982Z</time>
      </trkpt>
      <trkpt lat="48.41376" lon="-2.1104">
        <ele>61.97</ele>
        <time>2025-06-04T08:09:34.484Z</time>
      </trkpt>
      <trkpt lat="48.41373" lon="-2.11032">
        <ele>61.879997</ele>
        <time>2025-06-04T08:09:34.019Z</time>
      </trkpt>
      <trkpt lat="48.4137" lon="-2.11024">
        <ele>61.78</ele>
        <time>2025-06-04T08:09:32.984Z</time>
      </trkpt>
      <trkpt lat="48.41367" lon="-2.11018">
        <ele>61.68</ele>
        <time>2025-06-04T08:09:31.259Z</time>
      </trkpt>
      <trkpt lat="48.41365" lon="-2.11011">
        <ele>61.58</ele>
        <time>2025-06-04T08:09:30.273Z</time>
      </trkpt>
      <trkpt lat="48.41361" lon="-2.11004">
        <ele>61.47</ele>
        <time>2025-06-04T08:09:29.907Z</time>
      </trkpt>
      <trkpt lat="48.41359" lon="-2.10998">
        <ele>61.39</ele>
        <time>2025-06-04T08:09:28.272Z</time>
      </trkpt>
      <trkpt lat="48.41356" lon="-2.10994">
        <ele>61.32</ele>
        <time>2025-06-04T08:09:27.258Z</time>
      </trkpt>
      <trkpt lat="48.41352" lon="-2.10989">
        <ele>61.25</ele>
        <time>2025-06-04T08:09:26.253Z</time>
      </trkpt>
      <trkpt lat="48.4135" lon="-2.10985">
        <ele>61.16</ele>
        <time>2025-06-04T08:09:25.854Z</time>
      </trkpt>
      <trkpt lat="48.41347" lon="-2.10982">
        <ele>61.1</ele>
        <time>2025-06-04T08:09:24.208Z</time>
      </trkpt>
      <trkpt lat="48.41344" lon="-2.10982">
        <ele>61.04</ele>
        <time>2025-06-04T08:09:23.260Z</time>
      </trkpt>
      <trkpt lat="48.41341" lon="-2.10983">
        <ele>60.989998</ele>
        <time>2025-06-04T08:09:22.824Z</time>
      </trkpt>
      <trkpt lat="48.41337" lon="-2.10986">
        <ele>60.95</ele>
        <time>2025-06-04T08:09:21.273Z</time>
      </trkpt>
      <trkpt lat="48.41333" lon="-2.1099">
        <ele>60.93</ele>
        <time>2025-06-04T08:09:20.257Z</time>
      </trkpt>
      <trkpt lat="48.41329" lon="-2.10993">
        <ele>60.95</ele>
        <time>2025-06-04T08:09:19.259Z</time>
      </trkpt>
      <trkpt lat="48.41324" lon="-2.10996">
        <ele>60.97</ele>
        <time>2025-06-04T08:09:18.248Z</time>
      </trkpt>
      <trkpt lat="48.41319" lon="-2.11">
        <ele>61.02</ele>
        <time>2025-06-04T08:09:17.250Z</time>
      </trkpt>
      <trkpt lat="48.41315" lon="-2.11004">
        <ele>61.1</ele>
        <time>2025-06-04T08:09:16.773Z</time>
      </trkpt>
      <trkpt lat="48.4131" lon="-2.11008">
        <ele>61.190002</ele>
        <time>2025-06-04T08:09:15.255Z</time>
      </trkpt>
      <trkpt lat="48.41305" lon="-2.11012">
        <ele>61.3</ele>
        <time>2025-06-04T08:09:14.262Z</time>
      </trkpt>
      <trkpt lat="48.413" lon="-2.11017">
        <ele>61.43</ele>
        <time>2025-06-04T08:09:13.928Z</time>
      </trkpt>
      <trkpt lat="48.41295" lon="-2.11021">
        <ele>61.57</ele>
        <time>2025-06-04T08:09:12.254Z</time>
      </trkpt>
      <trkpt lat="48.41291" lon="-2.11024">
        <ele>61.690002</ele>
        <time>2025-06-04T08:09:11.847Z</time>
      </trkpt>
      <trkpt lat="48.41287" lon="-2.11027">
        <ele>61.8</ele>
        <time>2025-06-04T08:09:10.241Z</time>
      </trkpt>
      <trkpt lat="48.41283" lon="-2.11031">
        <ele>61.92</ele>
        <time>2025-06-04T08:09:09.250Z</time>
      </trkpt>
      <trkpt lat="48.4128" lon="-2.11036">
        <ele>62.04</ele>
        <time>2025-06-04T08:09:08.987Z</time>
      </trkpt>
      <trkpt lat="48.41278" lon="-2.11041">
        <ele>62.17</ele>
        <time>2025-06-04T08:09:07.828Z</time>
      </trkpt>
      <trkpt lat="48.41277" lon="-2.11047">
        <ele>62.27</ele>
        <time>2025-06-04T08:09:06.819Z</time>
      </trkpt>
      <trkpt lat="48.41277" lon="-2.11054">
        <ele>62.39</ele>
        <time>2025-06-04T08:09:06.023Z</time>
      </trkpt>
      <trkpt lat="48.41279" lon="-2.11062">
        <ele>62.53</ele>
        <time>2025-06-04T08:09:04.750Z</time>
      </trkpt>
      <trkpt lat="48.41282" lon="-2.11072">
        <ele>62.68</ele>
        <time>2025-06-04T08:09:03.250Z</time>
      </trkpt>
      <trkpt lat="48.41286" lon="-2.11082">
        <ele>62.85</ele>
        <time>2025-06-04T08:09:02.986Z</time>
      </trkpt>
      <trkpt lat="48.41291" lon="-2.11091">
        <ele>63.04</ele>
        <time>2025-06-04T08:09:01.791Z</time>
      </trkpt>
      <trkpt lat="48.41296" lon="-2.111">
        <ele>63.260002</ele>
        <time>2025-06-04T08:09:00.836Z</time>
      </trkpt>
      <trkpt lat="48.41301" lon="-2.11109">
        <ele>63.510002</ele>
        <time>2025-06-04T08:08:59.736Z</time>
      </trkpt>
      <trkpt lat="48.41304" lon="-2.11116">
        <ele>63.78</ele>
        <time>2025-06-04T08:08:58.795Z</time>
      </trkpt>
      <trkpt lat="48.41308" lon="-2.11123">
        <ele>64.06</ele>
        <time>2025-06-04T08:08:57.732Z</time>
      </trkpt>
      <trkpt lat="48.41311" lon="-2.11131">
        <ele>64.34</ele>
        <time>2025-06-04T08:08:56.906Z</time>
      </trkpt>
      <trkpt lat="48.41315" lon="-2.11139">
        <ele>64.58</ele>
        <time>2025-06-04T08:08:55.791Z</time>
      </trkpt>
      <trkpt lat="48.41317" lon="-2.11146">
        <ele>64.79</ele>
        <time>2025-06-04T08:08:54.753Z</time>
      </trkpt>
      <trkpt lat="48.4132" lon="-2.11154">
        <ele>65.03</ele>
        <time>2025-06-04T08:08:53.250Z</time>
      </trkpt>
      <trkpt lat="48.41322" lon="-2.11163">
        <ele>65.25</ele>
        <time>2025-06-04T08:08:52.261Z</time>
      </trkpt>
      <trkpt lat="48.41325" lon="-2.11172">
        <ele>65.479996</ele>
        <time>2025-06-04T08:08:51.258Z</time>
      </trkpt>
      <trkpt lat="48.41327" lon="-2.11181">
        <ele>65.71</ele>
        <time>2025-06-04T08:08:50.260Z</time>
      </trkpt>
      <trkpt lat="48.4133" lon="-2.1119">
        <ele>65.93</ele>
        <time>2025-06-04T08:08:49.904Z</time>
      </trkpt>
      <trkpt lat="48.41332" lon="-2.112">
        <ele>66.14</ele>
        <time>2025-06-04T08:08:48.510Z</time>
      </trkpt>
      <trkpt lat="48.41336" lon="-2.11214">
        <ele>66.31</ele>
        <time>2025-06-04T08:08:47.271Z</time>
      </trkpt>
      <trkpt lat="48.41337" lon="-2.11219">
        <ele>66.49</ele>
        <time>2025-06-04T08:08:46.652Z</time>
      </trkpt>
      <trkpt lat="48.41341" lon="-2.11232">
        <ele>66.65</ele>
        <time>2025-06-04T08:08:45.905Z</time>
      </trkpt>
      <trkpt lat="48.41342" lon="-2.11237">
        <ele>66.78</ele>
        <time>2025-06-04T08:08:44.497Z</time>
      </trkpt>
      <trkpt lat="48.41345" lon="-2.11246">
        <ele>66.89</ele>
        <time>2025-06-04T08:08:43.265Z</time>
      </trkpt>
      <trkpt lat="48.41348" lon="-2.11255">
        <ele>66.95</ele>
        <time>2025-06-04T08:08:42.997Z</time>
      </trkpt>
      <trkpt lat="48.41351" lon="-2.11263">
        <ele>67.01</ele>
        <time>2025-06-04T08:08:41.494Z</time>
      </trkpt>
      <trkpt lat="48.41354" lon="-2.11272">
        <ele>67.05</ele>
        <time>2025-06-04T08:08:40.262Z</time>
      </trkpt>
      <trkpt lat="48.41357" lon="-2.11281">
        <ele>67.08</ele>
        <time>2025-06-04T08:08:39.260Z</time>
      </trkpt>
      <trkpt lat="48.41361" lon="-2.11288">
        <ele>67.07</ele>
        <time>2025-06-04T08:08:38.909Z</time>
      </trkpt>
      <trkpt lat="48.41364" lon="-2.11296">
        <ele>67.06</ele>
        <time>2025-06-04T08:08:37.407Z</time>
      </trkpt>
      <trkpt lat="48.41367" lon="-2.11302">
        <ele>67.05</ele>
        <time>2025-06-04T08:08:36.255Z</time>
      </trkpt>
      <trkpt lat="48.4137" lon="-2.11307">
        <ele>67.05</ele>
        <time>2025-06-04T08:08:35.263Z</time>
      </trkpt>
      <trkpt lat="48.41373" lon="-2.11313">
        <ele>67.06</ele>
        <time>2025-06-04T08:08:34.259Z</time>
      </trkpt>
      <trkpt lat="48.41375" lon="-2.11319">
        <ele>67.09</ele>
        <time>2025-06-04T08:08:33.257Z</time>
      </trkpt>
      <trkpt lat="48.41377" lon="-2.11325">
        <ele>67.15</ele>
        <time>2025-06-04T08:08:32.262Z</time>
      </trkpt>
      <trkpt lat="48.4138" lon="-2.11332">
        <ele>67.229996</ele>
        <time>2025-06-04T08:08:31.895Z</time>
      </trkpt>
      <trkpt lat="48.41382" lon="-2.11341">
        <ele>67.32</ele>
        <time>2025-06-04T08:08:30.935Z</time>
      </trkpt>
      <trkpt lat="48.41385" lon="-2.11352">
        <ele>67.41</ele>
        <time>2025-06-04T08:08:29.258Z</time>
      </trkpt>
      <trkpt lat="48.41387" lon="-2.11359">
        <ele>67.520004</ele>
        <time>2025-06-04T08:08:28.246Z</time>
      </trkpt>
      <trkpt lat="48.41388" lon="-2.11368">
        <ele>67.61</ele>
        <time>2025-06-04T08:08:27.770Z</time>
      </trkpt>
      <trkpt lat="48.4139" lon="-2.11376">
        <ele>67.72</ele>
        <time>2025-06-04T08:08:26.789Z</time>
      </trkpt>
      <trkpt lat="48.41392" lon="-2.11384">
        <ele>67.81</ele>
        <time>2025-06-04T08:08:25.257Z</time>
      </trkpt>
      <trkpt lat="48.41393" lon="-2.11395">
        <ele>67.88</ele>
        <time>2025-06-04T08:08:24.861Z</time>
      </trkpt>
      <trkpt lat="48.41394" lon="-2.11402">
        <ele>67.95</ele>
        <time>2025-06-04T08:08:23.910Z</time>
      </trkpt>
      <trkpt lat="48.41396" lon="-2.11408">
        <ele>68.020004</ele>
        <time>2025-06-04T08:08:22.707Z</time>
      </trkpt>
      <trkpt lat="48.41397" lon="-2.11415">
        <ele>68.09</ele>
        <time>2025-06-04T08:08:21.515Z</time>
      </trkpt>
      <trkpt lat="48.41399" lon="-2.11422">
        <ele>68.17</ele>
        <time>2025-06-04T08:08:20.949Z</time>
      </trkpt>
      <trkpt lat="48.414" lon="-2.11429">
        <ele>68.25</ele>
        <time>2025-06-04T08:08:19.967Z</time>
      </trkpt>
      <trkpt lat="48.41401" lon="-2.11434">
        <ele>68.31</ele>
        <time>2025-06-04T08:08:18.474Z</time>
      </trkpt>
      <trkpt lat="48.41402" lon="-2.11439">
        <ele>68.38</ele>
        <time>2025-06-04T08:08:17.893Z</time>
      </trkpt>
      <trkpt lat="48.41402" lon="-2.11443">
        <ele>68.43</ele>
        <time>2025-06-04T08:08:15.998Z</time>
      </trkpt>
      <trkpt lat="48.41402" lon="-2.11447">
        <ele>68.49</ele>
        <time>2025-06-04T08:08:15.819Z</time>
      </trkpt>
      <trkpt lat="48.41402" lon="-2.1145">
        <ele>68.54</ele>
        <time>2025-06-04T08:08:14.270Z</time>
      </trkpt>
      <trkpt lat="48.41401" lon="-2.11454">
        <ele>68.59</ele>
        <time>2025-06-04T08:08:13.242Z</time>
      </trkpt>
      <trkpt lat="48.41401" lon="-2.11456">
        <ele>68.64</ele>
        <time>2025-06-04T08:08:12.842Z</time>
      </trkpt>
      <trkpt lat="48.41401" lon="-2.11458">
        <ele>68.7</ele>
        <time>2025-06-04T08:08:11.252Z</time>
      </trkpt>
      <trkpt lat="48.414" lon="-2.11456">
        <ele>69.04</ele>
        <time>2025-06-04T08:08:09.271Z</time>
      </trkpt>
      <trkpt lat="48.41401" lon="-2.11457">
        <ele>69.229996</ele>
        <time>2025-06-04T08:08:04.269Z</time>
      </trkpt>
      <trkpt lat="48.41405" lon="-2.1146">
        <ele>69.45</ele>
        <time>2025-06-04T08:08:02.126Z</time>
      </trkpt>
      <trkpt lat="48.41405" lon="-2.11464">
        <ele>69.56</ele>
        <time>2025-06-04T08:08:02.079Z</time>
      </trkpt>
      <trkpt lat="48.41406" lon="-2.11468">
        <ele>69.69</ele>
        <time>2025-06-04T08:08:00.600Z</time>
      </trkpt>
      <trkpt lat="48.41407" lon="-2.11477">
        <ele>69.79</ele>
        <time>2025-06-04T08:07:59.141Z</time>
      </trkpt>
      <trkpt lat="48.41408" lon="-2.11482">
        <ele>69.92</ele>
        <time>2025-06-04T08:07:58.721Z</time>
      </trkpt>
      <trkpt lat="48.41408" lon="-2.11488">
        <ele>70.03</ele>
        <time>2025-06-04T08:07:58.053Z</time>
      </trkpt>
      <trkpt lat="48.4141" lon="-2.11496">
        <ele>70.14</ele>
        <time>2025-06-04T08:07:56.604Z</time>
      </trkpt>
      <trkpt lat="48.4141" lon="-2.11507">
        <ele>70.24</ele>
        <time>2025-06-04T08:07:55.172Z</time>
      </trkpt>
      <trkpt lat="48.4141" lon="-2.11511">
        <ele>70.34</ele>
        <time>2025-06-04T08:07:55.050Z</time>
      </trkpt>
      <trkpt lat="48.41408" lon="-2.11519">
        <ele>70.42</ele>
        <time>2025-06-04T08:07:53.579Z</time>
      </trkpt>
      <trkpt lat="48.41407" lon="-2.11525">
        <ele>70.49</ele>
        <time>2025-06-04T08:07:52.775Z</time>
      </trkpt>
      <trkpt lat="48.41406" lon="-2.11531">
        <ele>70.56</ele>
        <time>2025-06-04T08:07:51.226Z</time>
      </trkpt>
      <trkpt lat="48.41406" lon="-2.11534">
        <ele>70.62</ele>
        <time>2025-06-04T08:07:50.764Z</time>
      </trkpt>
      <trkpt lat="48.41407" lon="-2.11539">
        <ele>70.67</ele>
        <time>2025-06-04T08:07:49.815Z</time>
      </trkpt>
      <trkpt lat="48.41407" lon="-2.11545">
        <ele>70.71</ele>
        <time>2025-06-04T08:07:48.718Z</time>
      </trkpt>
      <trkpt lat="48.41407" lon="-2.1155">
        <ele>70.74</ele>
        <time>2025-06-04T08:07:47.810Z</time>
      </trkpt>
      <trkpt lat="48.41409" lon="-2.11556">
        <ele>70.770004</ele>
        <time>2025-06-04T08:07:46.790Z</time>
      </trkpt>
      <trkpt lat="48.4141" lon="-2.11562">
        <ele>70.770004</ele>
        <time>2025-06-04T08:07:45.662Z</time>
      </trkpt>
      <trkpt lat="48.41412" lon="-2.11568">
        <ele>70.770004</ele>
        <time>2025-06-04T08:07:44.686Z</time>
      </trkpt>
      <trkpt lat="48.41414" lon="-2.11574">
        <ele>70.770004</ele>
        <time>2025-06-04T08:07:43.790Z</time>
      </trkpt>
      <trkpt lat="48.41416" lon="-2.11579">
        <ele>70.75</ele>
        <time>2025-06-04T08:07:42.657Z</time>
      </trkpt>
      <trkpt lat="48.41418" lon="-2.11586">
        <ele>70.729996</ele>
        <time>2025-06-04T08:07:41.689Z</time>
      </trkpt>
      <trkpt lat="48.4142" lon="-2.11593">
        <ele>70.7</ele>
        <time>2025-06-04T08:07:40.714Z</time>
      </trkpt>
      <trkpt lat="48.41421" lon="-2.11601">
        <ele>70.68</ele>
        <time>2025-06-04T08:07:39.586Z</time>
      </trkpt>
      <trkpt lat="48.41422" lon="-2.1161">
        <ele>70.65</ele>
        <time>2025-06-04T08:07:38.773Z</time>
      </trkpt>
      <trkpt lat="48.41422" lon="-2.11616">
        <ele>70.62</ele>
        <time>2025-06-04T08:07:37.934Z</time>
      </trkpt>
      <trkpt lat="48.41422" lon="-2.11628">
        <ele>70.59</ele>
        <time>2025-06-04T08:07:36.263Z</time>
      </trkpt>
      <trkpt lat="48.41422" lon="-2.11631">
        <ele>70.57</ele>
        <time>2025-06-04T08:07:35.858Z</time>
      </trkpt>
      <trkpt lat="48.41422" lon="-2.11638">
        <ele>70.56</ele>
        <time>2025-06-04T08:07:34.253Z</time>
      </trkpt>
      <trkpt lat="48.4142" lon="-2.11646">
        <ele>70.56</ele>
        <time>2025-06-04T08:07:33.797Z</time>
      </trkpt>
      <trkpt lat="48.41418" lon="-2.11653">
        <ele>70.55</ele>
        <time>2025-06-04T08:07:32.947Z</time>
      </trkpt>
      <trkpt lat="48.41416" lon="-2.1166">
        <ele>70.59</ele>
        <time>2025-06-04T08:07:31.800Z</time>
      </trkpt>
      <trkpt lat="48.41413" lon="-2.11667">
        <ele>70.69</ele>
        <time>2025-06-04T08:07:30.712Z</time>
      </trkpt>
      <trkpt lat="48.41411" lon="-2.11674">
        <ele>70.82</ele>
        <time>2025-06-04T08:07:29.260Z</time>
      </trkpt>
      <trkpt lat="48.41408" lon="-2.11679">
        <ele>71.01</ele>
        <time>2025-06-04T08:07:28.563Z</time>
      </trkpt>
      <trkpt lat="48.41405" lon="-2.11685">
        <ele>71.24</ele>
        <time>2025-06-04T08:07:27.261Z</time>
      </trkpt>
      <trkpt lat="48.41402" lon="-2.11691">
        <ele>71.51</ele>
        <time>2025-06-04T08:07:26.768Z</time>
      </trkpt>
      <trkpt lat="48.41399" lon="-2.11696">
        <ele>71.770004</ele>
        <time>2025-06-04T08:07:25.263Z</time>
      </trkpt>
      <trkpt lat="48.41395" lon="-2.11702">
        <ele>72.07</ele>
        <time>2025-06-04T08:07:24.258Z</time>
      </trkpt>
      <trkpt lat="48.41392" lon="-2.11707">
        <ele>72.36</ele>
        <time>2025-06-04T08:07:23.780Z</time>
      </trkpt>
      <trkpt lat="48.41389" lon="-2.11711">
        <ele>72.65</ele>
        <time>2025-06-04T08:07:22.874Z</time>
      </trkpt>
      <trkpt lat="48.41386" lon="-2.11716">
        <ele>72.93</ele>
        <time>2025-06-04T08:07:21.113Z</time>
      </trkpt>
      <trkpt lat="48.41384" lon="-2.1172">
        <ele>73.16</ele>
        <time>2025-06-04T08:07:20.132Z</time>
      </trkpt>
      <trkpt lat="48.41382" lon="-2.11723">
        <ele>73.37</ele>
        <time>2025-06-04T08:07:19.785Z</time>
      </trkpt>
      <trkpt lat="48.4138" lon="-2.11726">
        <ele>73.54</ele>
        <time>2025-06-04T08:07:18.257Z</time>
      </trkpt>
      <trkpt lat="48.41374" lon="-2.11734">
        <ele>73.72</ele>
        <time>2025-06-04T08:07:17.266Z</time>
      </trkpt>
      <trkpt lat="48.41371" lon="-2.11737">
        <ele>73.88</ele>
        <time>2025-06-04T08:07:16.847Z</time>
      </trkpt>
      <trkpt lat="48.41368" lon="-2.1174">
        <ele>74.05</ele>
        <time>2025-06-04T08:07:15.671Z</time>
      </trkpt>
      <trkpt lat="48.41366" lon="-2.11742">
        <ele>74.15</ele>
        <time>2025-06-04T08:07:14.784Z</time>
      </trkpt>
      <trkpt lat="48.41364" lon="-2.11744">
        <ele>74.35</ele>
        <time>2025-06-04T08:07:13.276Z</time>
      </trkpt>
      <trkpt lat="48.41362" lon="-2.11746">
        <ele>74.42</ele>
        <time>2025-06-04T08:07:11.875Z</time>
      </trkpt>
      <trkpt lat="48.41359" lon="-2.11749">
        <ele>74.46</ele>
        <time>2025-06-04T08:07:11.008Z</time>
      </trkpt>
      <trkpt lat="48.41356" lon="-2.11751">
        <ele>74.48</ele>
        <time>2025-06-04T08:07:09.429Z</time>
      </trkpt>
      <trkpt lat="48.41354" lon="-2.11755">
        <ele>74.49</ele>
        <time>2025-06-04T08:07:08.112Z</time>
      </trkpt>
      <trkpt lat="48.41351" lon="-2.11759">
        <ele>74.5</ele>
        <time>2025-06-04T08:07:07.267Z</time>
      </trkpt>
      <trkpt lat="48.41349" lon="-2.11763">
        <ele>74.5</ele>
        <time>2025-06-04T08:07:06.202Z</time>
      </trkpt>
      <trkpt lat="48.41345" lon="-2.1177">
        <ele>74.5</ele>
        <time>2025-06-04T08:07:05.818Z</time>
      </trkpt>
      <trkpt lat="48.41341" lon="-2.11778">
        <ele>74.5</ele>
        <time>2025-06-04T08:07:04.257Z</time>
      </trkpt>
      <trkpt lat="48.41333" lon="-2.11792">
        <ele>74.49</ele>
        <time>2025-06-04T08:07:03.734Z</time>
      </trkpt>
      <trkpt lat="48.41329" lon="-2.11798">
        <ele>74.47</ele>
        <time>2025-06-04T08:07:02.839Z</time>
      </trkpt>
      <trkpt lat="48.41329" lon="-2.11799">
        <ele>74.46</ele>
        <time>2025-06-04T08:07:01.135Z</time>
      </trkpt>
      <trkpt lat="48.41327" lon="-2.11803">
        <ele>74.44</ele>
        <time>2025-06-04T08:07:00.775Z</time>
      </trkpt>
      <trkpt lat="48.41324" lon="-2.11806">
        <ele>74.43</ele>
        <time>2025-06-04T08:06:59.763Z</time>
      </trkpt>
      <trkpt lat="48.41322" lon="-2.1181">
        <ele>74.42</ele>
        <time>2025-06-04T08:06:58.890Z</time>
      </trkpt>
      <trkpt lat="48.4132" lon="-2.11814">
        <ele>74.41</ele>
        <time>2025-06-04T08:06:57.030Z</time>
      </trkpt>
      <trkpt lat="48.41317" lon="-2.11819">
        <ele>74.41</ele>
        <time>2025-06-04T08:06:56.835Z</time>
      </trkpt>
      <trkpt lat="48.41314" lon="-2.11823">
        <ele>74.45</ele>
        <time>2025-06-04T08:06:55.788Z</time>
      </trkpt>
      <trkpt lat="48.4131" lon="-2.11829">
        <ele>74.51</ele>
        <time>2025-06-04T08:06:54.258Z</time>
      </trkpt>
      <trkpt lat="48.41306" lon="-2.11835">
        <ele>74.58</ele>
        <time>2025-06-04T08:06:53.275Z</time>
      </trkpt>
      <trkpt lat="48.41303" lon="-2.1184">
        <ele>74.65</ele>
        <time>2025-06-04T08:06:52.273Z</time>
      </trkpt>
      <trkpt lat="48.413" lon="-2.11845">
        <ele>74.71</ele>
        <time>2025-06-04T08:06:51.274Z</time>
      </trkpt>
      <trkpt lat="48.41297" lon="-2.11851">
        <ele>74.78</ele>
        <time>2025-06-04T08:06:50.983Z</time>
      </trkpt>
      <trkpt lat="48.41294" lon="-2.11857">
        <ele>74.82</ele>
        <time>2025-06-04T08:06:49.540Z</time>
      </trkpt>
      <trkpt lat="48.4129" lon="-2.11864">
        <ele>74.84</ele>
        <time>2025-06-04T08:06:48.826Z</time>
      </trkpt>
      <trkpt lat="48.41287" lon="-2.1187">
        <ele>74.86</ele>
        <time>2025-06-04T08:06:47.459Z</time>
      </trkpt>
      <trkpt lat="48.41283" lon="-2.11876">
        <ele>74.87</ele>
        <time>2025-06-04T08:06:46.249Z</time>
      </trkpt>
      <trkpt lat="48.41279" lon="-2.11881">
        <ele>74.88</ele>
        <time>2025-06-04T08:06:45.548Z</time>
      </trkpt>
      <trkpt lat="48.41275" lon="-2.11887">
        <ele>74.87</ele>
        <time>2025-06-04T08:06:44.457Z</time>
      </trkpt>
      <trkpt lat="48.41271" lon="-2.11892">
        <ele>74.84</ele>
        <time>2025-06-04T08:06:43.537Z</time>
      </trkpt>
      <trkpt lat="48.41266" lon="-2.11897">
        <ele>74.81</ele>
        <time>2025-06-04T08:06:42.545Z</time>
      </trkpt>
      <trkpt lat="48.41262" lon="-2.11903">
        <ele>74.76</ele>
        <time>2025-06-04T08:06:41.260Z</time>
      </trkpt>
      <trkpt lat="48.41257" lon="-2.11908">
        <ele>74.71</ele>
        <time>2025-06-04T08:06:40.980Z</time>
      </trkpt>
      <trkpt lat="48.41253" lon="-2.11914">
        <ele>74.66</ele>
        <time>2025-06-04T08:06:39.967Z</time>
      </trkpt>
      <trkpt lat="48.41249" lon="-2.11918">
        <ele>74.6</ele>
        <time>2025-06-04T08:06:38.535Z</time>
      </trkpt>
      <trkpt lat="48.41243" lon="-2.11924">
        <ele>74.54</ele>
        <time>2025-06-04T08:06:37.495Z</time>
      </trkpt>
      <trkpt lat="48.41238" lon="-2.11929">
        <ele>74.49</ele>
        <time>2025-06-04T08:06:36.004Z</time>
      </trkpt>
      <trkpt lat="48.41234" lon="-2.11932">
        <ele>74.43</ele>
        <time>2025-06-04T08:06:35.497Z</time>
      </trkpt>
      <trkpt lat="48.41228" lon="-2.11936">
        <ele>74.41</ele>
        <time>2025-06-04T08:06:34.261Z</time>
      </trkpt>
      <trkpt lat="48.41225" lon="-2.1194">
        <ele>74.39</ele>
        <time>2025-06-04T08:06:33.901Z</time>
      </trkpt>
      <trkpt lat="48.41222" lon="-2.11941">
        <ele>74.37</ele>
        <time>2025-06-04T08:06:32.813Z</time>
      </trkpt>
      <trkpt lat="48.41219" lon="-2.11941">
        <ele>74.36</ele>
        <time>2025-06-04T08:06:31.128Z</time>
      </trkpt>
      <trkpt lat="48.41216" lon="-2.1194">
        <ele>74.33</ele>
        <time>2025-06-04T08:06:30.258Z</time>
      </trkpt>
      <trkpt lat="48.41213" lon="-2.11938">
        <ele>74.31</ele>
        <time>2025-06-04T08:06:29.833Z</time>
      </trkpt>
      <trkpt lat="48.41211" lon="-2.11935">
        <ele>74.28</ele>
        <time>2025-06-04T08:06:28.791Z</time>
      </trkpt>
      <trkpt lat="48.41209" lon="-2.11933">
        <ele>74.26</ele>
        <time>2025-06-04T08:06:27.510Z</time>
      </trkpt>
      <trkpt lat="48.41208" lon="-2.11931">
        <ele>74.23</ele>
        <time>2025-06-04T08:06:26.203Z</time>
      </trkpt>
      <trkpt lat="48.41207" lon="-2.11929">
        <ele>74.19</ele>
        <time>2025-06-04T08:06:24.822Z</time>
      </trkpt>
      <trkpt lat="48.41206" lon="-2.11927">
        <ele>74.18</ele>
        <time>2025-06-04T08:06:23.667Z</time>
      </trkpt>
      <trkpt lat="48.41204" lon="-2.11924">
        <ele>74.16</ele>
        <time>2025-06-04T08:06:22.761Z</time>
      </trkpt>
      <trkpt lat="48.41202" lon="-2.11921">
        <ele>74.15</ele>
        <time>2025-06-04T08:06:21.627Z</time>
      </trkpt>
      <trkpt lat="48.41199" lon="-2.11917">
        <ele>74.13</ele>
        <time>2025-06-04T08:06:20.759Z</time>
      </trkpt>
      <trkpt lat="48.41193" lon="-2.11909">
        <ele>74.12</ele>
        <time>2025-06-04T08:06:19.787Z</time>
      </trkpt>
      <trkpt lat="48.41187" lon="-2.119">
        <ele>74.11</ele>
        <time>2025-06-04T08:06:18.651Z</time>
      </trkpt>
      <trkpt lat="48.4118" lon="-2.11891">
        <ele>74.09</ele>
        <time>2025-06-04T08:06:17.612Z</time>
      </trkpt>
      <trkpt lat="48.41172" lon="-2.11882">
        <ele>74.06</ele>
        <time>2025-06-04T08:06:16.057Z</time>
      </trkpt>
      <trkpt lat="48.41167" lon="-2.11876">
        <ele>74.04</ele>
        <time>2025-06-04T08:06:15.567Z</time>
      </trkpt>
      <trkpt lat="48.41169" lon="-2.11878">
        <ele>74.03</ele>
        <time>2025-06-04T08:06:14.904Z</time>
      </trkpt>
      <trkpt lat="48.41169" lon="-2.11877">
        <ele>74.01</ele>
        <time>2025-06-04T08:06:13.520Z</time>
      </trkpt>
      <trkpt lat="48.4117" lon="-2.11877">
        <ele>73.99</ele>
        <time>2025-06-04T08:06:12.544Z</time>
      </trkpt>
      <trkpt lat="48.4117" lon="-2.11875">
        <ele>73.98</ele>
        <time>2025-06-04T08:06:11.853Z</time>
      </trkpt>
      <trkpt lat="48.41169" lon="-2.11871">
        <ele>73.96</ele>
        <time>2025-06-04T08:06:10.792Z</time>
      </trkpt>
      <trkpt lat="48.41168" lon="-2.11868">
        <ele>73.96</ele>
        <time>2025-06-04T08:06:09.780Z</time>
      </trkpt>
      <trkpt lat="48.41167" lon="-2.11862">
        <ele>73.95</ele>
        <time>2025-06-04T08:06:08.756Z</time>
      </trkpt>
      <trkpt lat="48.41165" lon="-2.11855">
        <ele>73.95</ele>
        <time>2025-06-04T08:06:07.788Z</time>
      </trkpt>
      <trkpt lat="48.41163" lon="-2.1185">
        <ele>73.95</ele>
        <time>2025-06-04T08:06:06.493Z</time>
      </trkpt>
      <trkpt lat="48.41161" lon="-2.11846">
        <ele>73.96</ele>
        <time>2025-06-04T08:06:05.607Z</time>
      </trkpt>
      <trkpt lat="48.41158" lon="-2.11842">
        <ele>73.98</ele>
        <time>2025-06-04T08:06:04.560Z</time>
      </trkpt>
      <trkpt lat="48.41154" lon="-2.11837">
        <ele>74.03</ele>
        <time>2025-06-04T08:06:03.537Z</time>
      </trkpt>
      <trkpt lat="48.41149" lon="-2.1183">
        <ele>74.09</ele>
        <time>2025-06-04T08:06:02.536Z</time>
      </trkpt>
      <trkpt lat="48.41143" lon="-2.11822">
        <ele>74.14</ele>
        <time>2025-06-04T08:06:01.661Z</time>
      </trkpt>
      <trkpt lat="48.41139" lon="-2.11817">
        <ele>74.2</ele>
        <time>2025-06-04T08:06:00.770Z</time>
      </trkpt>
      <trkpt lat="48.41136" lon="-2.11812">
        <ele>74.26</ele>
        <time>2025-06-04T08:05:59.858Z</time>
      </trkpt>
      <trkpt lat="48.41131" lon="-2.11807">
        <ele>74.32</ele>
        <time>2025-06-04T08:05:58.803Z</time>
      </trkpt>
      <trkpt lat="48.41128" lon="-2.11803">
        <ele>74.39</ele>
        <time>2025-06-04T08:05:57.920Z</time>
      </trkpt>
      <trkpt lat="48.41125" lon="-2.11798">
        <ele>74.46</ele>
        <time>2025-06-04T08:05:56.852Z</time>
      </trkpt>
      <trkpt lat="48.41123" lon="-2.11793">
        <ele>74.52</ele>
        <time>2025-06-04T08:05:55.786Z</time>
      </trkpt>
      <trkpt lat="48.41122" lon="-2.11788">
        <ele>74.57</ele>
        <time>2025-06-04T08:05:54.812Z</time>
      </trkpt>
      <trkpt lat="48.41121" lon="-2.11783">
        <ele>74.61</ele>
        <time>2025-06-04T08:05:53.801Z</time>
      </trkpt>
      <trkpt lat="48.41118" lon="-2.11776">
        <ele>74.62</ele>
        <time>2025-06-04T08:05:52.825Z</time>
      </trkpt>
      <trkpt lat="48.41117" lon="-2.11775">
        <ele>74.62</ele>
        <time>2025-06-04T08:05:51.785Z</time>
      </trkpt>
      <trkpt lat="48.41114" lon="-2.11773">
        <ele>74.62</ele>
        <time>2025-06-04T08:05:50.852Z</time>
      </trkpt>
      <trkpt lat="48.4111" lon="-2.11773">
        <ele>74.63</ele>
        <time>2025-06-04T08:05:49.505Z</time>
      </trkpt>
      <trkpt lat="48.41104" lon="-2.11771">
        <ele>74.62</ele>
        <time>2025-06-04T08:05:48.606Z</time>
      </trkpt>
      <trkpt lat="48.41105" lon="-2.1177">
        <ele>74.62</ele>
        <time>2025-06-04T08:05:47.609Z</time>
      </trkpt>
      <trkpt lat="48.41109" lon="-2.11771">
        <ele>74.63</ele>
        <time>2025-06-04T08:05:46.530Z</time>
      </trkpt>
      <trkpt lat="48.41106" lon="-2.11769">
        <ele>74.64</ele>
        <time>2025-06-04T08:05:45.825Z</time>
      </trkpt>
      <trkpt lat="48.41103" lon="-2.11768">
        <ele>74.65</ele>
        <time>2025-06-04T08:05:44.606Z</time>
      </trkpt>
      <trkpt lat="48.41099" lon="-2.11765">
        <ele>74.67</ele>
        <time>2025-06-04T08:05:43.574Z</time>
      </trkpt>
      <trkpt lat="48.41094" lon="-2.11763">
        <ele>74.68</ele>
        <time>2025-06-04T08:05:42.509Z</time>
      </trkpt>
      <trkpt lat="48.4109" lon="-2.11761">
        <ele>74.69</ele>
        <time>2025-06-04T08:05:41.693Z</time>
      </trkpt>
      <trkpt lat="48.41086" lon="-2.11758">
        <ele>74.69</ele>
        <time>2025-06-04T08:05:40.767Z</time>
      </trkpt>
      <trkpt lat="48.41081" lon="-2.11756">
        <ele>74.7</ele>
        <time>2025-06-04T08:05:39.887Z</time>
      </trkpt>
      <trkpt lat="48.41076" lon="-2.11753">
        <ele>74.72</ele>
        <time>2025-06-04T08:05:38.533Z</time>
      </trkpt>
      <trkpt lat="48.41072" lon="-2.11751">
        <ele>74.73</ele>
        <time>2025-06-04T08:05:37.758Z</time>
      </trkpt>
      <trkpt lat="48.41068" lon="-2.11748">
        <ele>74.75</ele>
        <time>2025-06-04T08:05:35.975Z</time>
      </trkpt>
      <trkpt lat="48.41064" lon="-2.11746">
        <ele>74.78</ele>
        <time>2025-06-04T08:05:35.073Z</time>
      </trkpt>
      <trkpt lat="48.4106" lon="-2.11742">
        <ele>74.81</ele>
        <time>2025-06-04T08:05:34.263Z</time>
      </trkpt>
      <trkpt lat="48.41054" lon="-2.11738">
        <ele>74.86</ele>
        <time>2025-06-04T08:05:33.261Z</time>
      </trkpt>
      <trkpt lat="48.4105" lon="-2.11735">
        <ele>74.91</ele>
        <time>2025-06-04T08:05:32.796Z</time>
      </trkpt>
      <trkpt lat="48.41047" lon="-2.11733">
        <ele>74.97</ele>
        <time>2025-06-04T08:05:31.778Z</time>
      </trkpt>
      <trkpt lat="48.41043" lon="-2.11731">
        <ele>75.03</ele>
        <time>2025-06-04T08:05:30.436Z</time>
      </trkpt>
      <trkpt lat="48.41039" lon="-2.11728">
        <ele>75.11</ele>
        <time>2025-06-04T08:05:29.811Z</time>
      </trkpt>
      <trkpt lat="48.41034" lon="-2.11725">
        <ele>75.2</ele>
        <time>2025-06-04T08:05:28.710Z</time>
      </trkpt>
      <trkpt lat="48.41028" lon="-2.11722">
        <ele>75.3</ele>
        <time>2025-06-04T08:05:27.755Z</time>
      </trkpt>
      <trkpt lat="48.41019" lon="-2.11717">
        <ele>75.4</ele>
        <time>2025-06-04T08:05:26.846Z</time>
      </trkpt>
      <trkpt lat="48.41017" lon="-2.11717">
        <ele>75.5</ele>
        <time>2025-06-04T08:05:25.713Z</time>
      </trkpt>
      <trkpt lat="48.4101" lon="-2.11714">
        <ele>75.61</ele>
        <time>2025-06-04T08:05:24.694Z</time>
      </trkpt>
      <trkpt lat="48.41006" lon="-2.11713">
        <ele>75.73</ele>
        <time>2025-06-04T08:05:23.679Z</time>
      </trkpt>
      <trkpt lat="48.41004" lon="-2.11712">
        <ele>75.84</ele>
        <time>2025-06-04T08:05:22.712Z</time>
      </trkpt>
      <trkpt lat="48.41" lon="-2.11711">
        <ele>75.96</ele>
        <time>2025-06-04T08:05:21.695Z</time>
      </trkpt>
      <trkpt lat="48.40995" lon="-2.1171">
        <ele>76.08</ele>
        <time>2025-06-04T08:05:20.774Z</time>
      </trkpt>
      <trkpt lat="48.40992" lon="-2.11708">
        <ele>76.18</ele>
        <time>2025-06-04T08:05:19.157Z</time>
      </trkpt>
      <trkpt lat="48.40988" lon="-2.11707">
        <ele>76.27</ele>
        <time>2025-06-04T08:05:18.699Z</time>
      </trkpt>
      <trkpt lat="48.40984" lon="-2.11707">
        <ele>76.36</ele>
        <time>2025-06-04T08:05:17.719Z</time>
      </trkpt>
      <trkpt lat="48.40979" lon="-2.11706">
        <ele>76.45</ele>
        <time>2025-06-04T08:05:16.628Z</time>
      </trkpt>
      <trkpt lat="48.40975" lon="-2.11706">
        <ele>76.53</ele>
        <time>2025-06-04T08:05:15.770Z</time>
      </trkpt>
      <trkpt lat="48.40971" lon="-2.11707">
        <ele>76.62</ele>
        <time>2025-06-04T08:05:14.809Z</time>
      </trkpt>
      <trkpt lat="48.40969" lon="-2.11708">
        <ele>76.73</ele>
        <time>2025-06-04T08:05:13.775Z</time>
      </trkpt>
      <trkpt lat="48.40965" lon="-2.11708">
        <ele>76.85</ele>
        <time>2025-06-04T08:05:12.715Z</time>
      </trkpt>
      <trkpt lat="48.40963" lon="-2.11709">
        <ele>76.96</ele>
        <time>2025-06-04T08:05:11.746Z</time>
      </trkpt>
      <trkpt lat="48.4096" lon="-2.11709">
        <ele>77.1</ele>
        <time>2025-06-04T08:05:10.061Z</time>
      </trkpt>
      <trkpt lat="48.40955" lon="-2.11709">
        <ele>77.23</ele>
        <time>2025-06-04T08:05:09.673Z</time>
      </trkpt>
      <trkpt lat="48.40951" lon="-2.11709">
        <ele>77.38</ele>
        <time>2025-06-04T08:05:08.860Z</time>
      </trkpt>
      <trkpt lat="48.40945" lon="-2.11709">
        <ele>77.51</ele>
        <time>2025-06-04T08:05:07.697Z</time>
      </trkpt>
      <trkpt lat="48.40941" lon="-2.11709">
        <ele>77.64</ele>
        <time>2025-06-04T08:05:06.757Z</time>
      </trkpt>
      <trkpt lat="48.40937" lon="-2.1171">
        <ele>77.76</ele>
        <time>2025-06-04T08:05:05.715Z</time>
      </trkpt>
      <trkpt lat="48.40933" lon="-2.11711">
        <ele>77.87</ele>
        <time>2025-06-04T08:05:04.632Z</time>
      </trkpt>
      <trkpt lat="48.40932" lon="-2.11712">
        <ele>77.98</ele>
        <time>2025-06-04T08:05:03.665Z</time>
      </trkpt>
      <trkpt lat="48.40929" lon="-2.11714">
        <ele>78.09</ele>
        <time>2025-06-04T08:05:02.671Z</time>
      </trkpt>
      <trkpt lat="48.40928" lon="-2.11717">
        <ele>78.2</ele>
        <time>2025-06-04T08:05:01.845Z</time>
      </trkpt>
      <trkpt lat="48.40926" lon="-2.11721">
        <ele>78.32</ele>
        <time>2025-06-04T08:05:00.733Z</time>
      </trkpt>
      <trkpt lat="48.40924" lon="-2.11725">
        <ele>78.48</ele>
        <time>2025-06-04T08:04:59.324Z</time>
      </trkpt>
      <trkpt lat="48.40923" lon="-2.1173">
        <ele>78.64</ele>
        <time>2025-06-04T08:04:58.505Z</time>
      </trkpt>
      <trkpt lat="48.40919" lon="-2.11735">
        <ele>78.82</ele>
        <time>2025-06-04T08:04:57.746Z</time>
      </trkpt>
      <trkpt lat="48.40916" lon="-2.11738">
        <ele>79.01</ele>
        <time>2025-06-04T08:04:56.765Z</time>
      </trkpt>
      <trkpt lat="48.40912" lon="-2.1174">
        <ele>79.21</ele>
        <time>2025-06-04T08:04:55.621Z</time>
      </trkpt>
      <trkpt lat="48.40907" lon="-2.11743">
        <ele>79.38</ele>
        <time>2025-06-04T08:04:54.864Z</time>
      </trkpt>
      <trkpt lat="48.40905" lon="-2.11744">
        <ele>79.55</ele>
        <time>2025-06-04T08:04:53.725Z</time>
      </trkpt>
      <trkpt lat="48.409" lon="-2.11746">
        <ele>79.7</ele>
        <time>2025-06-04T08:04:52.753Z</time>
      </trkpt>
      <trkpt lat="48.40896" lon="-2.11748">
        <ele>79.86</ele>
        <time>2025-06-04T08:04:51.850Z</time>
      </trkpt>
      <trkpt lat="48.40892" lon="-2.1175">
        <ele>79.97</ele>
        <time>2025-06-04T08:04:50.585Z</time>
      </trkpt>
      <trkpt lat="48.40889" lon="-2.11752">
        <ele>80.09</ele>
        <time>2025-06-04T08:04:49.616Z</time>
      </trkpt>
      <trkpt lat="48.40886" lon="-2.11753">
        <ele>80.2</ele>
        <time>2025-06-04T08:04:48.841Z</time>
      </trkpt>
      <trkpt lat="48.40881" lon="-2.11754">
        <ele>80.27</ele>
        <time>2025-06-04T08:04:47.461Z</time>
      </trkpt>
      <trkpt lat="48.40877" lon="-2.11755">
        <ele>80.32</ele>
        <time>2025-06-04T08:04:46.469Z</time>
      </trkpt>
      <trkpt lat="48.40873" lon="-2.11756">
        <ele>80.38</ele>
        <time>2025-06-04T08:04:45.806Z</time>
      </trkpt>
      <trkpt lat="48.40868" lon="-2.11758">
        <ele>80.42</ele>
        <time>2025-06-04T08:04:44.448Z</time>
      </trkpt>
      <trkpt lat="48.40863" lon="-2.11759">
        <ele>80.42</ele>
        <time>2025-06-04T08:04:43.512Z</time>
      </trkpt>
      <trkpt lat="48.40859" lon="-2.11762">
        <ele>80.42</ele>
        <time>2025-06-04T08:04:42.461Z</time>
      </trkpt>
      <trkpt lat="48.40855" lon="-2.11765">
        <ele>80.41</ele>
        <time>2025-06-04T08:04:41.481Z</time>
      </trkpt>
      <trkpt lat="48.40852" lon="-2.11768">
        <ele>80.4</ele>
        <time>2025-06-04T08:04:40.797Z</time>
      </trkpt>
      <trkpt lat="48.40847" lon="-2.11773">
        <ele>80.37</ele>
        <time>2025-06-04T08:04:39.425Z</time>
      </trkpt>
      <trkpt lat="48.40843" lon="-2.11777">
        <ele>80.32</ele>
        <time>2025-06-04T08:04:38.770Z</time>
      </trkpt>
      <trkpt lat="48.40841" lon="-2.1178">
        <ele>80.27</ele>
        <time>2025-06-04T08:04:37.406Z</time>
      </trkpt>
      <trkpt lat="48.4084" lon="-2.11782">
        <ele>80.23</ele>
        <time>2025-06-04T08:04:36.386Z</time>
      </trkpt>
      <trkpt lat="48.40839" lon="-2.11784">
        <ele>80.18</ele>
        <time>2025-06-04T08:04:35.417Z</time>
      </trkpt>
      <trkpt lat="48.40837" lon="-2.11787">
        <ele>80.13</ele>
        <time>2025-06-04T08:04:34.396Z</time>
      </trkpt>
      <trkpt lat="48.40836" lon="-2.1179">
        <ele>80.08</ele>
        <time>2025-06-04T08:04:33.437Z</time>
      </trkpt>
      <trkpt lat="48.40835" lon="-2.11793">
        <ele>79.89</ele>
        <time>2025-06-04T08:04:31.868Z</time>
      </trkpt>
      <trkpt lat="48.40834" lon="-2.11794">
        <ele>79.81</ele>
        <time>2025-06-04T08:04:29.755Z</time>
      </trkpt>
      <trkpt lat="48.40834" lon="-2.11795">
        <ele>79.65</ele>
        <time>2025-06-04T08:04:27.742Z</time>
      </trkpt>
      <trkpt lat="48.40839" lon="-2.11806">
        <ele>78.86</ele>
        <time>2025-06-04T08:04:12.660Z</time>
      </trkpt>
      <trkpt lat="48.40841" lon="-2.11812">
        <ele>78.7</ele>
        <time>2025-06-04T08:04:10.768Z</time>
      </trkpt>
      <trkpt lat="48.40841" lon="-2.11814">
        <ele>78.64</ele>
        <time>2025-06-04T08:04:10.243Z</time>
      </trkpt>
      <trkpt lat="48.40842" lon="-2.11815">
        <ele>78.58</ele>
        <time>2025-06-04T08:04:09.631Z</time>
      </trkpt>
      <trkpt lat="48.40842" lon="-2.11816">
        <ele>78.5</ele>
        <time>2025-06-04T08:04:07.751Z</time>
      </trkpt>
      <trkpt lat="48.40842" lon="-2.11817">
        <ele>78.43</ele>
        <time>2025-06-04T08:04:06.758Z</time>
      </trkpt>
      <trkpt lat="48.40843" lon="-2.11819">
        <ele>78.35</ele>
        <time>2025-06-04T08:04:06.355Z</time>
      </trkpt>
      <trkpt lat="48.40844" lon="-2.1182">
        <ele>78.27</ele>
        <time>2025-06-04T08:04:05.233Z</time>
      </trkpt>
      <trkpt lat="48.40846" lon="-2.1182">
        <ele>78.19</ele>
        <time>2025-06-04T08:04:03.693Z</time>
      </trkpt>
      <trkpt lat="48.40847" lon="-2.11821">
        <ele>78.11</ele>
        <time>2025-06-04T08:04:03.397Z</time>
      </trkpt>
      <trkpt lat="48.40849" lon="-2.11821">
        <ele>78.03</ele>
        <time>2025-06-04T08:04:01.775Z</time>
      </trkpt>
      <trkpt lat="48.40852" lon="-2.11822">
        <ele>77.96</ele>
        <time>2025-06-04T08:04:00.683Z</time>
      </trkpt>
      <trkpt lat="48.40855" lon="-2.11822">
        <ele>77.89</ele>
        <time>2025-06-04T08:03:59.752Z</time>
      </trkpt>
      <trkpt lat="48.40857" lon="-2.11823">
        <ele>77.82</ele>
        <time>2025-06-04T08:03:58.735Z</time>
      </trkpt>
      <trkpt lat="48.40859" lon="-2.11824">
        <ele>77.77</ele>
        <time>2025-06-04T08:03:58.221Z</time>
      </trkpt>
      <trkpt lat="48.4086" lon="-2.11823">
        <ele>77.71</ele>
        <time>2025-06-04T08:03:57.183Z</time>
      </trkpt>
      <trkpt lat="48.40862" lon="-2.11823">
        <ele>77.66</ele>
        <time>2025-06-04T08:03:55.702Z</time>
      </trkpt>
      <trkpt lat="48.40863" lon="-2.11823">
        <ele>77.61</ele>
        <time>2025-06-04T08:03:55.175Z</time>
      </trkpt>
      <trkpt lat="48.40864" lon="-2.11823">
        <ele>77.55</ele>
        <time>2025-06-04T08:03:53.744Z</time>
      </trkpt>
      <trkpt lat="48.40865" lon="-2.11823">
        <ele>77.51</ele>
        <time>2025-06-04T08:03:53.164Z</time>
      </trkpt>
      <trkpt lat="48.40866" lon="-2.11822">
        <ele>77.47</ele>
        <time>2025-06-04T08:03:52.244Z</time>
      </trkpt>
      <trkpt lat="48.4087" lon="-2.11823">
        <ele>77.38</ele>
        <time>2025-06-04T08:03:50.164Z</time>
      </trkpt>
      <trkpt lat="48.40871" lon="-2.11824">
        <ele>77.3</ele>
        <time>2025-06-04T08:03:48.161Z</time>
      </trkpt>
      <trkpt lat="48.40872" lon="-2.11824">
        <ele>77.25</ele>
        <time>2025-06-04T08:03:47.234Z</time>
      </trkpt>
      <trkpt lat="48.40872" lon="-2.11828">
        <ele>77.13</ele>
        <time>2025-06-04T08:03:45.166Z</time>
      </trkpt>
      <trkpt lat="48.40871" lon="-2.11829">
        <ele>77.06</ele>
        <time>2025-06-04T08:03:44.278Z</time>
      </trkpt>
      <trkpt lat="48.40871" lon="-2.11833">
        <ele>76.92</ele>
        <time>2025-06-04T08:03:42.176Z</time>
      </trkpt>
      <trkpt lat="48.40875" lon="-2.11836">
        <ele>76.76</ele>
        <time>2025-06-04T08:03:40.179Z</time>
      </trkpt>
      <trkpt lat="48.40877" lon="-2.11835">
        <ele>76.67</ele>
        <time>2025-06-04T08:03:38.671Z</time>
      </trkpt>
      <trkpt lat="48.40879" lon="-2.11834">
        <ele>76.57</ele>
        <time>2025-06-04T08:03:37.649Z</time>
      </trkpt>
      <trkpt lat="48.40882" lon="-2.11833">
        <ele>76.48</ele>
        <time>2025-06-04T08:03:37.185Z</time>
      </trkpt>
      <trkpt lat="48.40884" lon="-2.11831">
        <ele>76.38</ele>
        <time>2025-06-04T08:03:36.180Z</time>
      </trkpt>
      <trkpt lat="48.40887" lon="-2.11829">
        <ele>76.28</ele>
        <time>2025-06-04T08:03:35.261Z</time>
      </trkpt>
      <trkpt lat="48.4089" lon="-2.11828">
        <ele>76.18</ele>
        <time>2025-06-04T08:03:34.214Z</time>
      </trkpt>
      <trkpt lat="48.40894" lon="-2.11825">
        <ele>76.07</ele>
        <time>2025-06-04T08:03:33.254Z</time>
      </trkpt>
      <trkpt lat="48.40896" lon="-2.11824">
        <ele>75.97</ele>
        <time>2025-06-04T08:03:32.180Z</time>
      </trkpt>
      <trkpt lat="48.40899" lon="-2.11823">
        <ele>75.87</ele>
        <time>2025-06-04T08:03:31.177Z</time>
      </trkpt>
      <trkpt lat="48.409" lon="-2.11823">
        <ele>75.76</ele>
        <time>2025-06-04T08:03:30.167Z</time>
      </trkpt>
      <trkpt lat="48.40901" lon="-2.11823">
        <ele>75.66</ele>
        <time>2025-06-04T08:03:29.225Z</time>
      </trkpt>
      <trkpt lat="48.40902" lon="-2.11824">
        <ele>75.55</ele>
        <time>2025-06-04T08:03:28.179Z</time>
      </trkpt>
      <trkpt lat="48.40903" lon="-2.11825">
        <ele>75.44</ele>
        <time>2025-06-04T08:03:27.183Z</time>
      </trkpt>
      <trkpt lat="48.40905" lon="-2.11826">
        <ele>75.31</ele>
        <time>2025-06-04T08:03:25.651Z</time>
      </trkpt>
      <trkpt lat="48.40913" lon="-2.1183">
        <ele>75.05</ele>
        <time>2025-06-04T08:03:23.677Z</time>
      </trkpt>
      <trkpt lat="48.40917" lon="-2.1183">
        <ele>74.91</ele>
        <time>2025-06-04T08:03:22.748Z</time>
      </trkpt>
      <trkpt lat="48.40921" lon="-2.11829">
        <ele>74.79</ele>
        <time>2025-06-04T08:03:22.181Z</time>
      </trkpt>
      <trkpt lat="48.40925" lon="-2.11828">
        <ele>74.66</ele>
        <time>2025-06-04T08:03:21.064Z</time>
      </trkpt>
      <trkpt lat="48.40928" lon="-2.11826">
        <ele>74.55</ele>
        <time>2025-06-04T08:03:20.084Z</time>
      </trkpt>
      <trkpt lat="48.40931" lon="-2.11824">
        <ele>74.45</ele>
        <time>2025-06-04T08:03:19.107Z</time>
      </trkpt>
      <trkpt lat="48.40934" lon="-2.11823">
        <ele>74.34</ele>
        <time>2025-06-04T08:03:18.458Z</time>
      </trkpt>
      <trkpt lat="48.40939" lon="-2.11821">
        <ele>74.24</ele>
        <time>2025-06-04T08:03:16.628Z</time>
      </trkpt>
      <trkpt lat="48.40944" lon="-2.11818">
        <ele>74.18</ele>
        <time>2025-06-04T08:03:16.142Z</time>
      </trkpt>
      <trkpt lat="48.40947" lon="-2.11816">
        <ele>74.12</ele>
        <time>2025-06-04T08:03:15.520Z</time>
      </trkpt>
      <trkpt lat="48.40952" lon="-2.11815">
        <ele>74.06</ele>
        <time>2025-06-04T08:03:14.116Z</time>
      </trkpt>
      <trkpt lat="48.40956" lon="-2.11814">
        <ele>74.02</ele>
        <time>2025-06-04T08:03:13.598Z</time>
      </trkpt>
      <trkpt lat="48.4096" lon="-2.11813">
        <ele>74.02</ele>
        <time>2025-06-04T08:03:11.720Z</time>
      </trkpt>
      <trkpt lat="48.40966" lon="-2.11812">
        <ele>74.01</ele>
        <time>2025-06-04T08:03:11.504Z</time>
      </trkpt>
      <trkpt lat="48.40969" lon="-2.11813">
        <ele>74.01</ele>
        <time>2025-06-04T08:03:09.742Z</time>
      </trkpt>
      <trkpt lat="48.40974" lon="-2.11814">
        <ele>73.99</ele>
        <time>2025-06-04T08:03:09.121Z</time>
      </trkpt>
      <trkpt lat="48.40978" lon="-2.11815">
        <ele>73.98</ele>
        <time>2025-06-04T08:03:08.543Z</time>
      </trkpt>
      <trkpt lat="48.40981" lon="-2.11816">
        <ele>73.96</ele>
        <time>2025-06-04T08:03:06.595Z</time>
      </trkpt>
      <trkpt lat="48.40985" lon="-2.11817">
        <ele>73.94</ele>
        <time>2025-06-04T08:03:05.599Z</time>
      </trkpt>
      <trkpt lat="48.4099" lon="-2.11819">
        <ele>73.92</ele>
        <time>2025-06-04T08:03:05.107Z</time>
      </trkpt>
      <trkpt lat="48.40995" lon="-2.1182">
        <ele>73.89</ele>
        <time>2025-06-04T08:03:04.529Z</time>
      </trkpt>
      <trkpt lat="48.41" lon="-2.11821">
        <ele>73.85</ele>
        <time>2025-06-04T08:03:02.593Z</time>
      </trkpt>
      <trkpt lat="48.41005" lon="-2.11823">
        <ele>73.8</ele>
        <time>2025-06-04T08:03:02.106Z</time>
      </trkpt>
      <trkpt lat="48.41011" lon="-2.11825">
        <ele>73.76</ele>
        <time>2025-06-04T08:03:00.620Z</time>
      </trkpt>
      <trkpt lat="48.41014" lon="-2.11827">
        <ele>73.71</ele>
        <time>2025-06-04T08:03:00.283Z</time>
      </trkpt>
      <trkpt lat="48.41019" lon="-2.11829">
        <ele>73.67</ele>
        <time>2025-06-04T08:02:59.068Z</time>
      </trkpt>
      <trkpt lat="48.41023" lon="-2.11832">
        <ele>73.63</ele>
        <time>2025-06-04T08:02:58.571Z</time>
      </trkpt>
      <trkpt lat="48.41027" lon="-2.11835">
        <ele>73.59</ele>
        <time>2025-06-04T08:02:57.064Z</time>
      </trkpt>
      <trkpt lat="48.41031" lon="-2.11839">
        <ele>73.54</ele>
        <time>2025-06-04T08:02:56.513Z</time>
      </trkpt>
      <trkpt lat="48.41033" lon="-2.11842">
        <ele>73.5</ele>
        <time>2025-06-04T08:02:55.104Z</time>
      </trkpt>
      <trkpt lat="48.41037" lon="-2.11846">
        <ele>73.45</ele>
        <time>2025-06-04T08:02:54.541Z</time>
      </trkpt>
      <trkpt lat="48.41039" lon="-2.1185">
        <ele>73.4</ele>
        <time>2025-06-04T08:02:53.561Z</time>
      </trkpt>
      <trkpt lat="48.41041" lon="-2.11853">
        <ele>73.35</ele>
        <time>2025-06-04T08:02:52.546Z</time>
      </trkpt>
      <trkpt lat="48.41044" lon="-2.11858">
        <ele>73.3</ele>
        <time>2025-06-04T08:02:51.557Z</time>
      </trkpt>
      <trkpt lat="48.41047" lon="-2.11863">
        <ele>73.23</ele>
        <time>2025-06-04T08:02:50.555Z</time>
      </trkpt>
      <trkpt lat="48.41051" lon="-2.1187">
        <ele>73.19</ele>
        <time>2025-06-04T08:02:49.567Z</time>
      </trkpt>
      <trkpt lat="48.41053" lon="-2.11874">
        <ele>73.14</ele>
        <time>2025-06-04T08:02:48.106Z</time>
      </trkpt>
      <trkpt lat="48.41056" lon="-2.11878">
        <ele>73.1</ele>
        <time>2025-06-04T08:02:47.081Z</time>
      </trkpt>
      <trkpt lat="48.41059" lon="-2.11883">
        <ele>73.07</ele>
        <time>2025-06-04T08:02:46.492Z</time>
      </trkpt>
      <trkpt lat="48.41063" lon="-2.11886">
        <ele>73.05</ele>
        <time>2025-06-04T08:02:44.568Z</time>
      </trkpt>
      <trkpt lat="48.41066" lon="-2.11888">
        <ele>73.06</ele>
        <time>2025-06-04T08:02:44.262Z</time>
      </trkpt>
      <trkpt lat="48.41069" lon="-2.1189">
        <ele>73.06</ele>
        <time>2025-06-04T08:02:43.253Z</time>
      </trkpt>
      <trkpt lat="48.41072" lon="-2.11892">
        <ele>73.07</ele>
        <time>2025-06-04T08:02:42.142Z</time>
      </trkpt>
      <trkpt lat="48.41074" lon="-2.11894">
        <ele>73.08</ele>
        <time>2025-06-04T08:02:41.192Z</time>
      </trkpt>
      <trkpt lat="48.41076" lon="-2.11896">
        <ele>73.1</ele>
        <time>2025-06-04T08:02:40.484Z</time>
      </trkpt>
      <trkpt lat="48.41078" lon="-2.11898">
        <ele>73.12</ele>
        <time>2025-06-04T08:02:39.206Z</time>
      </trkpt>
      <trkpt lat="48.41079" lon="-2.119">
        <ele>73.14</ele>
        <time>2025-06-04T08:02:38.202Z</time>
      </trkpt>
      <trkpt lat="48.41081" lon="-2.11902">
        <ele>73.17</ele>
        <time>2025-06-04T08:02:37.362Z</time>
      </trkpt>
      <trkpt lat="48.41082" lon="-2.11904">
        <ele>73.2</ele>
        <time>2025-06-04T08:02:36.538Z</time>
      </trkpt>
      <trkpt lat="48.41084" lon="-2.11906">
        <ele>73.24</ele>
        <time>2025-06-04T08:02:35.529Z</time>
      </trkpt>
      <trkpt lat="48.41085" lon="-2.11909">
        <ele>73.27</ele>
        <time>2025-06-04T08:02:33.561Z</time>
      </trkpt>
      <trkpt lat="48.41088" lon="-2.11914">
        <ele>73.31</ele>
        <time>2025-06-04T08:02:33.171Z</time>
      </trkpt>
      <trkpt lat="48.41093" lon="-2.11923">
        <ele>73.35</ele>
        <time>2025-06-04T08:02:32.513Z</time>
      </trkpt>
      <trkpt lat="48.411" lon="-2.11937">
        <ele>73.39</ele>
        <time>2025-06-04T08:02:31.294Z</time>
      </trkpt>
      <trkpt lat="48.41107" lon="-2.1195">
        <ele>73.42</ele>
        <time>2025-06-04T08:02:30.282Z</time>
      </trkpt>
      <trkpt lat="48.41106" lon="-2.11951">
        <ele>73.42</ele>
        <time>2025-06-04T08:02:29.552Z</time>
      </trkpt>
      <trkpt lat="48.41108" lon="-2.11957">
        <ele>73.42</ele>
        <time>2025-06-04T08:02:28.334Z</time>
      </trkpt>
      <trkpt lat="48.41108" lon="-2.11956">
        <ele>73.4</ele>
        <time>2025-06-04T08:02:27.304Z</time>
      </trkpt>
      <trkpt lat="48.41111" lon="-2.11963">
        <ele>73.36</ele>
        <time>2025-06-04T08:02:26.267Z</time>
      </trkpt>
      <trkpt lat="48.41113" lon="-2.1197">
        <ele>73.3</ele>
        <time>2025-06-04T08:02:25.455Z</time>
      </trkpt>
      <trkpt lat="48.41116" lon="-2.11976">
        <ele>73.23</ele>
        <time>2025-06-04T08:02:24.364Z</time>
      </trkpt>
      <trkpt lat="48.41117" lon="-2.11982">
        <ele>73.15</ele>
        <time>2025-06-04T08:02:23.242Z</time>
      </trkpt>
      <trkpt lat="48.41119" lon="-2.11985">
        <ele>73.07</ele>
        <time>2025-06-04T08:02:22.487Z</time>
      </trkpt>
      <trkpt lat="48.41121" lon="-2.11988">
        <ele>72.979996</ele>
        <time>2025-06-04T08:02:21.545Z</time>
      </trkpt>
      <trkpt lat="48.41127" lon="-2.11995">
        <ele>72.9</ele>
        <time>2025-06-04T08:02:19.819Z</time>
      </trkpt>
      <trkpt lat="48.41129" lon="-2.11999">
        <ele>72.82</ele>
        <time>2025-06-04T08:02:19.541Z</time>
      </trkpt>
      <trkpt lat="48.41132" lon="-2.12003">
        <ele>72.74</ele>
        <time>2025-06-04T08:02:18.208Z</time>
      </trkpt>
      <trkpt lat="48.41135" lon="-2.12007">
        <ele>72.66</ele>
        <time>2025-06-04T08:02:17.520Z</time>
      </trkpt>
      <trkpt lat="48.41138" lon="-2.12011">
        <ele>72.58</ele>
        <time>2025-06-04T08:02:15.573Z</time>
      </trkpt>
      <trkpt lat="48.41142" lon="-2.12015">
        <ele>72.51</ele>
        <time>2025-06-04T08:02:14.547Z</time>
      </trkpt>
      <trkpt lat="48.41144" lon="-2.12017">
        <ele>72.44</ele>
        <time>2025-06-04T08:02:14.526Z</time>
      </trkpt>
      <trkpt lat="48.41146" lon="-2.12021">
        <ele>72.38</ele>
        <time>2025-06-04T08:02:12.553Z</time>
      </trkpt>
      <trkpt lat="48.41149" lon="-2.12023">
        <ele>72.31</ele>
        <time>2025-06-04T08:02:12.244Z</time>
      </trkpt>
      <trkpt lat="48.41151" lon="-2.12025">
        <ele>72.26</ele>
        <time>2025-06-04T08:02:11.490Z</time>
      </trkpt>
      <trkpt lat="48.41154" lon="-2.12027">
        <ele>72.21</ele>
        <time>2025-06-04T08:02:09.577Z</time>
      </trkpt>
      <trkpt lat="48.41157" lon="-2.1203">
        <ele>72.15</ele>
        <time>2025-06-04T08:02:08.553Z</time>
      </trkpt>
      <trkpt lat="48.41159" lon="-2.12032">
        <ele>72.09</ele>
        <time>2025-06-04T08:02:07.581Z</time>
      </trkpt>
      <trkpt lat="48.41161" lon="-2.12034">
        <ele>72.06</ele>
        <time>2025-06-04T08:02:06.581Z</time>
      </trkpt>
      <trkpt lat="48.41161" lon="-2.12035">
        <ele>72.03</ele>
        <time>2025-06-04T08:02:05.565Z</time>
      </trkpt>
      <trkpt lat="48.41162" lon="-2.12036">
        <ele>72.01</ele>
        <time>2025-06-04T08:02:05.316Z</time>
      </trkpt>
      <trkpt lat="48.41164" lon="-2.12037">
        <ele>71.99</ele>
        <time>2025-06-04T08:02:04.296Z</time>
      </trkpt>
      <trkpt lat="48.41164" lon="-2.12038">
        <ele>71.97</ele>
        <time>2025-06-04T08:02:03.206Z</time>
      </trkpt>
      <trkpt lat="48.41164" lon="-2.12039">
        <ele>71.96</ele>
        <time>2025-06-04T08:02:02.465Z</time>
      </trkpt>
      <trkpt lat="48.41164" lon="-2.1204">
        <ele>71.95</ele>
        <time>2025-06-04T08:02:00.540Z</time>
      </trkpt>
      <trkpt lat="48.41165" lon="-2.1204">
        <ele>71.95</ele>
        <time>2025-06-04T08:01:59.646Z</time>
      </trkpt>
      <trkpt lat="48.41165" lon="-2.12041">
        <ele>71.95</ele>
        <time>2025-06-04T08:01:59.499Z</time>
      </trkpt>
      <trkpt lat="48.41165" lon="-2.12042">
        <ele>71.95</ele>
        <time>2025-06-04T08:01:58.514Z</time>
      </trkpt>
      <trkpt lat="48.41161" lon="-2.12047">
        <ele>72.62</ele>
        <time>2025-06-04T08:01:27.202Z</time>
      </trkpt>
      <trkpt lat="48.41157" lon="-2.12049">
        <ele>72.74</ele>
        <time>2025-06-04T08:01:25.209Z</time>
      </trkpt>
      <trkpt lat="48.41154" lon="-2.1205">
        <ele>72.82</ele>
        <time>2025-06-04T08:01:24.164Z</time>
      </trkpt>
      <trkpt lat="48.41151" lon="-2.12051">
        <ele>72.9</ele>
        <time>2025-06-04T08:01:23.188Z</time>
      </trkpt>
      <trkpt lat="48.4114" lon="-2.12052">
        <ele>72.979996</ele>
        <time>2025-06-04T08:01:22.356Z</time>
      </trkpt>
      <trkpt lat="48.4113" lon="-2.12052">
        <ele>73.05</ele>
        <time>2025-06-04T08:01:21.176Z</time>
      </trkpt>
      <trkpt lat="48.41125" lon="-2.12053">
        <ele>73.12</ele>
        <time>2025-06-04T08:01:20.170Z</time>
      </trkpt>
      <trkpt lat="48.41121" lon="-2.12054">
        <ele>73.17</ele>
        <time>2025-06-04T08:01:19.180Z</time>
      </trkpt>
      <trkpt lat="48.4112" lon="-2.12056">
        <ele>73.26</ele>
        <time>2025-06-04T08:01:18.168Z</time>
      </trkpt>
      <trkpt lat="48.41118" lon="-2.12057">
        <ele>73.29</ele>
        <time>2025-06-04T08:01:16.097Z</time>
      </trkpt>
      <trkpt lat="48.41119" lon="-2.12056">
        <ele>73.38</ele>
        <time>2025-06-04T08:01:14.163Z</time>
      </trkpt>
      <trkpt lat="48.41115" lon="-2.12059">
        <ele>73.43</ele>
        <time>2025-06-04T08:01:13.147Z</time>
      </trkpt>
      <trkpt lat="48.41113" lon="-2.12064">
        <ele>73.48</ele>
        <time>2025-06-04T08:01:12.174Z</time>
      </trkpt>
      <trkpt lat="48.41111" lon="-2.1207">
        <ele>73.53</ele>
        <time>2025-06-04T08:01:11.216Z</time>
      </trkpt>
      <trkpt lat="48.41105" lon="-2.12092">
        <ele>73.58</ele>
        <time>2025-06-04T08:01:09.586Z</time>
      </trkpt>
      <trkpt lat="48.41103" lon="-2.12099">
        <ele>73.64</ele>
        <time>2025-06-04T08:01:09.108Z</time>
      </trkpt>
      <trkpt lat="48.41102" lon="-2.12104">
        <ele>73.7</ele>
        <time>2025-06-04T08:01:08.253Z</time>
      </trkpt>
      <trkpt lat="48.41101" lon="-2.12109">
        <ele>73.76</ele>
        <time>2025-06-04T08:01:07.435Z</time>
      </trkpt>
      <trkpt lat="48.411" lon="-2.12112">
        <ele>73.83</ele>
        <time>2025-06-04T08:01:06.153Z</time>
      </trkpt>
      <trkpt lat="48.411" lon="-2.12111">
        <ele>73.91</ele>
        <time>2025-06-04T08:01:05.209Z</time>
      </trkpt>
      <trkpt lat="48.41098" lon="-2.12118">
        <ele>73.99</ele>
        <time>2025-06-04T08:01:04.243Z</time>
      </trkpt>
      <trkpt lat="48.41096" lon="-2.12124">
        <ele>74.09</ele>
        <time>2025-06-04T08:01:03.190Z</time>
      </trkpt>
      <trkpt lat="48.41094" lon="-2.1213">
        <ele>74.2</ele>
        <time>2025-06-04T08:01:02.134Z</time>
      </trkpt>
      <trkpt lat="48.41093" lon="-2.12135">
        <ele>74.32</ele>
        <time>2025-06-04T08:01:01.190Z</time>
      </trkpt>
      <trkpt lat="48.41092" lon="-2.12141">
        <ele>74.45</ele>
        <time>2025-06-04T08:01:00.184Z</time>
      </trkpt>
      <trkpt lat="48.41091" lon="-2.12148">
        <ele>74.59</ele>
        <time>2025-06-04T08:00:59.113Z</time>
      </trkpt>
      <trkpt lat="48.4109" lon="-2.12155">
        <ele>74.75</ele>
        <time>2025-06-04T08:00:58.151Z</time>
      </trkpt>
      <trkpt lat="48.41088" lon="-2.12162">
        <ele>74.93</ele>
        <time>2025-06-04T08:00:57.175Z</time>
      </trkpt>
      <trkpt lat="48.41085" lon="-2.1217">
        <ele>75.13</ele>
        <time>2025-06-04T08:00:56.165Z</time>
      </trkpt>
      <trkpt lat="48.41083" lon="-2.12178">
        <ele>75.35</ele>
        <time>2025-06-04T08:00:55.094Z</time>
      </trkpt>
      <trkpt lat="48.41081" lon="-2.12185">
        <ele>75.56</ele>
        <time>2025-06-04T08:00:54.211Z</time>
      </trkpt>
      <trkpt lat="48.41078" lon="-2.12192">
        <ele>75.76</ele>
        <time>2025-06-04T08:00:53.203Z</time>
      </trkpt>
      <trkpt lat="48.41076" lon="-2.12198">
        <ele>76.02</ele>
        <time>2025-06-04T08:00:51.961Z</time>
      </trkpt>
      <trkpt lat="48.41073" lon="-2.12206">
        <ele>76.22</ele>
        <time>2025-06-04T08:00:51.132Z</time>
      </trkpt>
      <trkpt lat="48.41071" lon="-2.12211">
        <ele>76.46</ele>
        <time>2025-06-04T08:00:50.183Z</time>
      </trkpt>
      <trkpt lat="48.41069" lon="-2.12216">
        <ele>76.65</ele>
        <time>2025-06-04T08:00:49.372Z</time>
      </trkpt>
      <trkpt lat="48.41068" lon="-2.12221">
        <ele>76.87</ele>
        <time>2025-06-04T08:00:48.087Z</time>
      </trkpt>
      <trkpt lat="48.41068" lon="-2.12228">
        <ele>77.05</ele>
        <time>2025-06-04T08:00:47.198Z</time>
      </trkpt>
      <trkpt lat="48.41068" lon="-2.12237">
        <ele>77.26</ele>
        <time>2025-06-04T08:00:46.069Z</time>
      </trkpt>
      <trkpt lat="48.41069" lon="-2.12244">
        <ele>77.35</ele>
        <time>2025-06-04T08:00:45.444Z</time>
      </trkpt>
      <trkpt lat="48.41072" lon="-2.1225">
        <ele>77.46</ele>
        <time>2025-06-04T08:00:44.146Z</time>
      </trkpt>
      <trkpt lat="48.41074" lon="-2.12253">
        <ele>77.57</ele>
        <time>2025-06-04T08:00:43.113Z</time>
      </trkpt>
      <trkpt lat="48.41076" lon="-2.12257">
        <ele>77.68</ele>
        <time>2025-06-04T08:00:42.476Z</time>
      </trkpt>
      <trkpt lat="48.41077" lon="-2.12259">
        <ele>77.81</ele>
        <time>2025-06-04T08:00:41.232Z</time>
      </trkpt>
      <trkpt lat="48.41077" lon="-2.12263">
        <ele>77.97</ele>
        <time>2025-06-04T08:00:40.212Z</time>
      </trkpt>
      <trkpt lat="48.41075" lon="-2.12266">
        <ele>78.13</ele>
        <time>2025-06-04T08:00:39.165Z</time>
      </trkpt>
      <trkpt lat="48.41073" lon="-2.12269">
        <ele>78.3</ele>
        <time>2025-06-04T08:00:38.265Z</time>
      </trkpt>
      <trkpt lat="48.41071" lon="-2.12273">
        <ele>78.49</ele>
        <time>2025-06-04T08:00:37.216Z</time>
      </trkpt>
      <trkpt lat="48.41069" lon="-2.12275">
        <ele>78.68</ele>
        <time>2025-06-04T08:00:36.160Z</time>
      </trkpt>
      <trkpt lat="48.41067" lon="-2.12276">
        <ele>78.87</ele>
        <time>2025-06-04T08:00:35.194Z</time>
      </trkpt>
      <trkpt lat="48.41067" lon="-2.12277">
        <ele>79.05</ele>
        <time>2025-06-04T08:00:34.107Z</time>
      </trkpt>
      <trkpt lat="48.41065" lon="-2.1228">
        <ele>79.25</ele>
        <time>2025-06-04T08:00:33.171Z</time>
      </trkpt>
      <trkpt lat="48.41062" lon="-2.12284">
        <ele>79.43</ele>
        <time>2025-06-04T08:00:32.133Z</time>
      </trkpt>
      <trkpt lat="48.41061" lon="-2.12287">
        <ele>79.6</ele>
        <time>2025-06-04T08:00:31.120Z</time>
      </trkpt>
      <trkpt lat="48.41059" lon="-2.12291">
        <ele>79.79</ele>
        <time>2025-06-04T08:00:30.111Z</time>
      </trkpt>
      <trkpt lat="48.41057" lon="-2.12296">
        <ele>80</ele>
        <time>2025-06-04T08:00:29.181Z</time>
      </trkpt>
      <trkpt lat="48.41055" lon="-2.12301">
        <ele>80.23</ele>
        <time>2025-06-04T08:00:28.259Z</time>
      </trkpt>
      <trkpt lat="48.41051" lon="-2.12308">
        <ele>80.47</ele>
        <time>2025-06-04T08:00:27.237Z</time>
      </trkpt>
      <trkpt lat="48.41048" lon="-2.12315">
        <ele>80.71</ele>
        <time>2025-06-04T08:00:26.222Z</time>
      </trkpt>
      <trkpt lat="48.41044" lon="-2.12322">
        <ele>80.9</ele>
        <time>2025-06-04T08:00:25.240Z</time>
      </trkpt>
      <trkpt lat="48.4104" lon="-2.12329">
        <ele>81.08</ele>
        <time>2025-06-04T08:00:24.229Z</time>
      </trkpt>
      <trkpt lat="48.41037" lon="-2.12335">
        <ele>81.25</ele>
        <time>2025-06-04T08:00:23.241Z</time>
      </trkpt>
      <trkpt lat="48.41034" lon="-2.12341">
        <ele>81.42</ele>
        <time>2025-06-04T08:00:22.224Z</time>
      </trkpt>
      <trkpt lat="48.41029" lon="-2.1235">
        <ele>81.54</ele>
        <time>2025-06-04T08:00:21.243Z</time>
      </trkpt>
      <trkpt lat="48.41026" lon="-2.12355">
        <ele>81.62</ele>
        <time>2025-06-04T08:00:20.223Z</time>
      </trkpt>
      <trkpt lat="48.4102" lon="-2.12367">
        <ele>81.63</ele>
        <time>2025-06-04T08:00:19.225Z</time>
      </trkpt>
      <trkpt lat="48.41019" lon="-2.12369">
        <ele>81.64</ele>
        <time>2025-06-04T08:00:18.241Z</time>
      </trkpt>
      <trkpt lat="48.41018" lon="-2.12372">
        <ele>81.63</ele>
        <time>2025-06-04T08:00:17.251Z</time>
      </trkpt>
      <trkpt lat="48.41016" lon="-2.12376">
        <ele>81.61</ele>
        <time>2025-06-04T08:00:16.393Z</time>
      </trkpt>
      <trkpt lat="48.41015" lon="-2.1238">
        <ele>81.57</ele>
        <time>2025-06-04T08:00:15.483Z</time>
      </trkpt>
      <trkpt lat="48.41014" lon="-2.12384">
        <ele>81.5</ele>
        <time>2025-06-04T08:00:14.330Z</time>
      </trkpt>
      <trkpt lat="48.41014" lon="-2.12388">
        <ele>81.44</ele>
        <time>2025-06-04T08:00:13.201Z</time>
      </trkpt>
      <trkpt lat="48.41015" lon="-2.12391">
        <ele>81.38</ele>
        <time>2025-06-04T08:00:12.435Z</time>
      </trkpt>
      <trkpt lat="48.41017" lon="-2.12394">
        <ele>81.32</ele>
        <time>2025-06-04T08:00:11.484Z</time>
      </trkpt>
      <trkpt lat="48.41019" lon="-2.12396">
        <ele>81.26</ele>
        <time>2025-06-04T08:00:10.150Z</time>
      </trkpt>
      <trkpt lat="48.41021" lon="-2.12398">
        <ele>81.22</ele>
        <time>2025-06-04T08:00:09.176Z</time>
      </trkpt>
      <trkpt lat="48.41023" lon="-2.124">
        <ele>81.19</ele>
        <time>2025-06-04T08:00:08.226Z</time>
      </trkpt>
      <trkpt lat="48.41025" lon="-2.12401">
        <ele>81.16</ele>
        <time>2025-06-04T08:00:07.138Z</time>
      </trkpt>
      <trkpt lat="48.41027" lon="-2.12402">
        <ele>81.15</ele>
        <time>2025-06-04T08:00:06.096Z</time>
      </trkpt>
      <trkpt lat="48.41029" lon="-2.12405">
        <ele>81.14</ele>
        <time>2025-06-04T08:00:05.338Z</time>
      </trkpt>
      <trkpt lat="48.4103" lon="-2.12406">
        <ele>81.17</ele>
        <time>2025-06-04T08:00:04.470Z</time>
      </trkpt>
      <trkpt lat="48.41031" lon="-2.1241">
        <ele>81.2</ele>
        <time>2025-06-04T08:00:03.380Z</time>
      </trkpt>
      <trkpt lat="48.41031" lon="-2.12414">
        <ele>81.24</ele>
        <time>2025-06-04T08:00:02.130Z</time>
      </trkpt>
      <trkpt lat="48.41031" lon="-2.12417">
        <ele>81.28</ele>
        <time>2025-06-04T08:00:01.296Z</time>
      </trkpt>
      <trkpt lat="48.4103" lon="-2.12421">
        <ele>81.33</ele>
        <time>2025-06-04T08:00:00.200Z</time>
      </trkpt>
      <trkpt lat="48.41029" lon="-2.12425">
        <ele>81.37</ele>
        <time>2025-06-04T07:59:59.188Z</time>
      </trkpt>
      <trkpt lat="48.41028" lon="-2.12429">
        <ele>81.43</ele>
        <time>2025-06-04T07:59:58.172Z</time>
      </trkpt>
      <trkpt lat="48.41027" lon="-2.12433">
        <ele>81.48</ele>
        <time>2025-06-04T07:59:57.445Z</time>
      </trkpt>
      <trkpt lat="48.41026" lon="-2.12437">
        <ele>81.53</ele>
        <time>2025-06-04T07:59:56.107Z</time>
      </trkpt>
      <trkpt lat="48.41024" lon="-2.12443">
        <ele>81.58</ele>
        <time>2025-06-04T07:59:55.097Z</time>
      </trkpt>
      <trkpt lat="48.41022" lon="-2.12451">
        <ele>81.64</ele>
        <time>2025-06-04T07:59:54.407Z</time>
      </trkpt>
      <trkpt lat="48.41022" lon="-2.12454">
        <ele>81.68</ele>
        <time>2025-06-04T07:59:53.333Z</time>
      </trkpt>
      <trkpt lat="48.41021" lon="-2.12456">
        <ele>81.73</ele>
        <time>2025-06-04T07:59:52.361Z</time>
      </trkpt>
      <trkpt lat="48.41021" lon="-2.12458">
        <ele>81.79</ele>
        <time>2025-06-04T07:59:51.456Z</time>
      </trkpt>
      <trkpt lat="48.4102" lon="-2.1246">
        <ele>81.83</ele>
        <time>2025-06-04T07:59:50.409Z</time>
      </trkpt>
      <trkpt lat="48.41019" lon="-2.12467">
        <ele>81.92</ele>
        <time>2025-06-04T07:59:48.203Z</time>
      </trkpt>
      <trkpt lat="48.4102" lon="-2.1247">
        <ele>81.98</ele>
        <time>2025-06-04T07:59:47.166Z</time>
      </trkpt>
      <trkpt lat="48.4102" lon="-2.12472">
        <ele>82.05</ele>
        <time>2025-06-04T07:59:46.331Z</time>
      </trkpt>
      <trkpt lat="48.4102" lon="-2.12473">
        <ele>82.12</ele>
        <time>2025-06-04T07:59:45.466Z</time>
      </trkpt>
      <trkpt lat="48.41021" lon="-2.12475">
        <ele>82.2</ele>
        <time>2025-06-04T07:59:44.221Z</time>
      </trkpt>
      <trkpt lat="48.41021" lon="-2.12476">
        <ele>82.27</ele>
        <time>2025-06-04T07:59:42.674Z</time>
      </trkpt>
      <trkpt lat="48.41021" lon="-2.12477">
        <ele>82.35</ele>
        <time>2025-06-04T07:59:41.541Z</time>
      </trkpt>
      <trkpt lat="48.4102" lon="-2.12478">
        <ele>82.44</ele>
        <time>2025-06-04T07:59:40.649Z</time>
      </trkpt>
      <trkpt lat="48.4102" lon="-2.12485">
        <ele>82.64</ele>
        <time>2025-06-04T07:59:39.416Z</time>
      </trkpt>
      <trkpt lat="48.4102" lon="-2.12487">
        <ele>82.75</ele>
        <time>2025-06-04T07:59:37.984Z</time>
      </trkpt>
      <trkpt lat="48.4102" lon="-2.12489">
        <ele>82.89</ele>
        <time>2025-06-04T07:59:37.108Z</time>
      </trkpt>
      <trkpt lat="48.41021" lon="-2.12492">
        <ele>83.02</ele>
        <time>2025-06-04T07:59:36.122Z</time>
      </trkpt>
      <trkpt lat="48.4102" lon="-2.12493">
        <ele>83.15</ele>
        <time>2025-06-04T07:59:35.095Z</time>
      </trkpt>
      <trkpt lat="48.41021" lon="-2.12494">
        <ele>83.32</ele>
        <time>2025-06-04T07:59:34.123Z</time>
      </trkpt>
      <trkpt lat="48.41021" lon="-2.12495">
        <ele>83.49</ele>
        <time>2025-06-04T07:59:33.134Z</time>
      </trkpt>
      <trkpt lat="48.41021" lon="-2.12497">
        <ele>83.71</ele>
        <time>2025-06-04T07:59:32.391Z</time>
      </trkpt>
      <trkpt lat="48.41021" lon="-2.12501">
        <ele>83.96</ele>
        <time>2025-06-04T07:59:30.996Z</time>
      </trkpt>
      <trkpt lat="48.4102" lon="-2.12504">
        <ele>84.29</ele>
        <time>2025-06-04T07:59:30.115Z</time>
      </trkpt>
      <trkpt lat="48.41019" lon="-2.12508">
        <ele>84.58</ele>
        <time>2025-06-04T07:59:29.409Z</time>
      </trkpt>
      <trkpt lat="48.41016" lon="-2.12511">
        <ele>84.93</ele>
        <time>2025-06-04T07:59:28.078Z</time>
      </trkpt>
      <trkpt lat="48.41014" lon="-2.12512">
        <ele>85.25</ele>
        <time>2025-06-04T07:59:27.161Z</time>
      </trkpt>
      <trkpt lat="48.4101" lon="-2.12512">
        <ele>85.6</ele>
        <time>2025-06-04T07:59:26.049Z</time>
      </trkpt>
      <trkpt lat="48.41007" lon="-2.12513">
        <ele>85.91</ele>
        <time>2025-06-04T07:59:25.355Z</time>
      </trkpt>
      <trkpt lat="48.41002" lon="-2.12513">
        <ele>86.18</ele>
        <time>2025-06-04T07:59:24.186Z</time>
      </trkpt>
      <trkpt lat="48.40999" lon="-2.12514">
        <ele>86.44</ele>
        <time>2025-06-04T07:59:23.442Z</time>
      </trkpt>
      <trkpt lat="48.40995" lon="-2.12515">
        <ele>86.62</ele>
        <time>2025-06-04T07:59:22.089Z</time>
      </trkpt>
      <trkpt lat="48.40993" lon="-2.12516">
        <ele>86.76</ele>
        <time>2025-06-04T07:59:21.283Z</time>
      </trkpt>
      <trkpt lat="48.40991" lon="-2.12517">
        <ele>86.89</ele>
        <time>2025-06-04T07:59:20.270Z</time>
      </trkpt>
      <trkpt lat="48.40988" lon="-2.12518">
        <ele>87.03</ele>
        <time>2025-06-04T07:59:19.184Z</time>
      </trkpt>
      <trkpt lat="48.40985" lon="-2.1252">
        <ele>87.12</ele>
        <time>2025-06-04T07:59:18.170Z</time>
      </trkpt>
      <trkpt lat="48.40983" lon="-2.12521">
        <ele>87.2</ele>
        <time>2025-06-04T07:59:17.126Z</time>
      </trkpt>
      <trkpt lat="48.40982" lon="-2.12522">
        <ele>87.23</ele>
        <time>2025-06-04T07:59:16.090Z</time>
      </trkpt>
      <trkpt lat="48.40981" lon="-2.12525">
        <ele>87.27</ele>
        <time>2025-06-04T07:59:15.065Z</time>
      </trkpt>
      <trkpt lat="48.4098" lon="-2.12528">
        <ele>87.31</ele>
        <time>2025-06-04T07:59:14.086Z</time>
      </trkpt>
      <trkpt lat="48.40981" lon="-2.12531">
        <ele>87.36</ele>
        <time>2025-06-04T07:59:13.079Z</time>
      </trkpt>
      <trkpt lat="48.40982" lon="-2.12534">
        <ele>87.41</ele>
        <time>2025-06-04T07:59:12.075Z</time>
      </trkpt>
      <trkpt lat="48.40984" lon="-2.12536">
        <ele>87.48</ele>
        <time>2025-06-04T07:59:11.332Z</time>
      </trkpt>
      <trkpt lat="48.40985" lon="-2.12538">
        <ele>87.57</ele>
        <time>2025-06-04T07:59:09.466Z</time>
      </trkpt>
      <trkpt lat="48.40986" lon="-2.1254">
        <ele>87.71</ele>
        <time>2025-06-04T07:59:09.146Z</time>
      </trkpt>
      <trkpt lat="48.40986" lon="-2.12543">
        <ele>87.86</ele>
        <time>2025-06-04T07:59:08.380Z</time>
      </trkpt>
      <trkpt lat="48.40986" lon="-2.12546">
        <ele>88.04</ele>
        <time>2025-06-04T07:59:06.462Z</time>
      </trkpt>
      <trkpt lat="48.40985" lon="-2.12549">
        <ele>88.2</ele>
        <time>2025-06-04T07:59:06.086Z</time>
      </trkpt>
      <trkpt lat="48.40983" lon="-2.12553">
        <ele>88.38</ele>
        <time>2025-06-04T07:59:05.368Z</time>
      </trkpt>
      <trkpt lat="48.40981" lon="-2.12556">
        <ele>88.55</ele>
        <time>2025-06-04T07:59:03.462Z</time>
      </trkpt>
      <trkpt lat="48.40978" lon="-2.1256">
        <ele>88.73</ele>
        <time>2025-06-04T07:59:02.458Z</time>
      </trkpt>
      <trkpt lat="48.40976" lon="-2.12563">
        <ele>88.89</ele>
        <time>2025-06-04T07:59:02.146Z</time>
      </trkpt>
      <trkpt lat="48.40974" lon="-2.12567">
        <ele>89.05</ele>
        <time>2025-06-04T07:59:01.386Z</time>
      </trkpt>
      <trkpt lat="48.40972" lon="-2.12571">
        <ele>89.2</ele>
        <time>2025-06-04T07:59:00.159Z</time>
      </trkpt>
      <trkpt lat="48.4097" lon="-2.12576">
        <ele>89.31</ele>
        <time>2025-06-04T07:58:59.166Z</time>
      </trkpt>
      <trkpt lat="48.40969" lon="-2.12581">
        <ele>89.41</ele>
        <time>2025-06-04T07:58:58.180Z</time>
      </trkpt>
      <trkpt lat="48.40969" lon="-2.12587">
        <ele>89.520004</ele>
        <time>2025-06-04T07:58:57.347Z</time>
      </trkpt>
      <trkpt lat="48.40968" lon="-2.12592">
        <ele>89.62</ele>
        <time>2025-06-04T07:58:56.159Z</time>
      </trkpt>
      <trkpt lat="48.40968" lon="-2.12597">
        <ele>89.71</ele>
        <time>2025-06-04T07:58:55.077Z</time>
      </trkpt>
      <trkpt lat="48.40968" lon="-2.12601">
        <ele>89.78</ele>
        <time>2025-06-04T07:58:54.326Z</time>
      </trkpt>
      <trkpt lat="48.40969" lon="-2.12605">
        <ele>89.86</ele>
        <time>2025-06-04T07:58:53.371Z</time>
      </trkpt>
      <trkpt lat="48.40969" lon="-2.12608">
        <ele>89.94</ele>
        <time>2025-06-04T07:58:52.114Z</time>
      </trkpt>
      <trkpt lat="48.40969" lon="-2.12612">
        <ele>90.01</ele>
        <time>2025-06-04T07:58:51.382Z</time>
      </trkpt>
      <trkpt lat="48.40969" lon="-2.12616">
        <ele>90.09</ele>
        <time>2025-06-04T07:58:49.454Z</time>
      </trkpt>
      <trkpt lat="48.40968" lon="-2.1262">
        <ele>90.16</ele>
        <time>2025-06-04T07:58:49.032Z</time>
      </trkpt>
      <trkpt lat="48.40968" lon="-2.12624">
        <ele>90.22</ele>
        <time>2025-06-04T07:58:48.389Z</time>
      </trkpt>
      <trkpt lat="48.40967" lon="-2.12628">
        <ele>90.28</ele>
        <time>2025-06-04T07:58:46.445Z</time>
      </trkpt>
      <trkpt lat="48.40967" lon="-2.12632">
        <ele>90.34</ele>
        <time>2025-06-04T07:58:45.464Z</time>
      </trkpt>
      <trkpt lat="48.40966" lon="-2.12636">
        <ele>90.39</ele>
        <time>2025-06-04T07:58:44.448Z</time>
      </trkpt>
      <trkpt lat="48.40965" lon="-2.1264">
        <ele>90.42</ele>
        <time>2025-06-04T07:58:43.431Z</time>
      </trkpt>
      <trkpt lat="48.40963" lon="-2.12643">
        <ele>90.45</ele>
        <time>2025-06-04T07:58:42.934Z</time>
      </trkpt>
      <trkpt lat="48.40962" lon="-2.12647">
        <ele>90.479996</ele>
        <time>2025-06-04T07:58:42.360Z</time>
      </trkpt>
      <trkpt lat="48.40961" lon="-2.1265">
        <ele>90.479996</ele>
        <time>2025-06-04T07:58:41.083Z</time>
      </trkpt>
      <trkpt lat="48.40959" lon="-2.12654">
        <ele>90.49</ele>
        <time>2025-06-04T07:58:40.363Z</time>
      </trkpt>
      <trkpt lat="48.40958" lon="-2.12658">
        <ele>90.49</ele>
        <time>2025-06-04T07:58:38.426Z</time>
      </trkpt>
      <trkpt lat="48.40957" lon="-2.12662">
        <ele>90.49</ele>
        <time>2025-06-04T07:58:37.423Z</time>
      </trkpt>
      <trkpt lat="48.40956" lon="-2.12667">
        <ele>90.479996</ele>
        <time>2025-06-04T07:58:36.844Z</time>
      </trkpt>
      <trkpt lat="48.40956" lon="-2.12671">
        <ele>90.47</ele>
        <time>2025-06-04T07:58:36.198Z</time>
      </trkpt>
      <trkpt lat="48.40957" lon="-2.12673">
        <ele>90.46</ele>
        <time>2025-06-04T07:58:35.375Z</time>
      </trkpt>
      <trkpt lat="48.40957" lon="-2.12675">
        <ele>90.45</ele>
        <time>2025-06-04T07:58:33.579Z</time>
      </trkpt>
      <trkpt lat="48.40958" lon="-2.12677">
        <ele>90.45</ele>
        <time>2025-06-04T07:58:33.333Z</time>
      </trkpt>
      <trkpt lat="48.40957" lon="-2.12677">
        <ele>90.44</ele>
        <time>2025-06-04T07:58:32.125Z</time>
      </trkpt>
      <trkpt lat="48.40958" lon="-2.12677">
        <ele>90.39</ele>
        <time>2025-06-04T07:58:27.439Z</time>
      </trkpt>
      <trkpt lat="48.40958" lon="-2.12678">
        <ele>90.34</ele>
        <time>2025-06-04T07:58:24.445Z</time>
      </trkpt>
      <trkpt lat="48.40959" lon="-2.12678">
        <ele>90.11</ele>
        <time>2025-06-04T07:58:18.262Z</time>
      </trkpt>
      <trkpt lat="48.40958" lon="-2.12678">
        <ele>89.8</ele>
        <time>2025-06-04T07:58:12.260Z</time>
      </trkpt>
      <trkpt lat="48.40963" lon="-2.1268">
        <ele>89.59</ele>
        <time>2025-06-04T07:58:05.112Z</time>
      </trkpt>
      <trkpt lat="48.40963" lon="-2.12682">
        <ele>89.51</ele>
        <time>2025-06-04T07:58:04.206Z</time>
      </trkpt>
      <trkpt lat="48.40963" lon="-2.12683">
        <ele>89.43</ele>
        <time>2025-06-04T07:58:03.013Z</time>
      </trkpt>
      <trkpt lat="48.40963" lon="-2.12684">
        <ele>89.24</ele>
        <time>2025-06-04T07:58:02.249Z</time>
      </trkpt>
      <trkpt lat="48.40967" lon="-2.12684">
        <ele>89.13</ele>
        <time>2025-06-04T07:58:00.114Z</time>
      </trkpt>
      <trkpt lat="48.40969" lon="-2.12683">
        <ele>89.03</ele>
        <time>2025-06-04T07:57:58.875Z</time>
      </trkpt>
      <trkpt lat="48.40971" lon="-2.1268">
        <ele>88.92</ele>
        <time>2025-06-04T07:57:57.899Z</time>
      </trkpt>
      <trkpt lat="48.40973" lon="-2.12677">
        <ele>88.73</ele>
        <time>2025-06-04T07:57:57.159Z</time>
      </trkpt>
      <trkpt lat="48.40979" lon="-2.12673">
        <ele>88.64</ele>
        <time>2025-06-04T07:57:55.832Z</time>
      </trkpt>
      <trkpt lat="48.40982" lon="-2.12672">
        <ele>88.54</ele>
        <time>2025-06-04T07:57:54.865Z</time>
      </trkpt>
      <trkpt lat="48.40984" lon="-2.12672">
        <ele>88.45</ele>
        <time>2025-06-04T07:57:53.254Z</time>
      </trkpt>
      <trkpt lat="48.40986" lon="-2.12671">
        <ele>88.29</ele>
        <time>2025-06-04T07:57:52.241Z</time>
      </trkpt>
      <trkpt lat="48.4099" lon="-2.12668">
        <ele>88.14</ele>
        <time>2025-06-04T07:57:49.270Z</time>
      </trkpt>
      <trkpt lat="48.40991" lon="-2.12667">
        <ele>88.08</ele>
        <time>2025-06-04T07:57:48.256Z</time>
      </trkpt>
      <trkpt lat="48.40993" lon="-2.12665">
        <ele>87.87</ele>
        <time>2025-06-04T07:57:46.108Z</time>
      </trkpt>
      <trkpt lat="48.40996" lon="-2.12663">
        <ele>87.74</ele>
        <time>2025-06-04T07:57:43.270Z</time>
      </trkpt>
      <trkpt lat="48.40997" lon="-2.12663">
        <ele>87.67</ele>
        <time>2025-06-04T07:57:43.125Z</time>
      </trkpt>
      <trkpt lat="48.41" lon="-2.12655">
        <ele>86.75</ele>
        <time>2025-06-04T07:57:34.264Z</time>
      </trkpt>
      <trkpt lat="48.41001" lon="-2.12652">
        <ele>86.58</ele>
        <time>2025-06-04T07:57:33.263Z</time>
      </trkpt>
      <trkpt lat="48.41002" lon="-2.12649">
        <ele>86.39</ele>
        <time>2025-06-04T07:57:32.245Z</time>
      </trkpt>
      <trkpt lat="48.41004" lon="-2.12646">
        <ele>86.22</ele>
        <time>2025-06-04T07:57:31.262Z</time>
      </trkpt>
      <trkpt lat="48.41006" lon="-2.12643">
        <ele>86.01</ele>
        <time>2025-06-04T07:57:30.197Z</time>
      </trkpt>
      <trkpt lat="48.41008" lon="-2.1264">
        <ele>85.81</ele>
        <time>2025-06-04T07:57:29.850Z</time>
      </trkpt>
      <trkpt lat="48.4101" lon="-2.12638">
        <ele>85.62</ele>
        <time>2025-06-04T07:57:28.902Z</time>
      </trkpt>
      <trkpt lat="48.41012" lon="-2.12635">
        <ele>85.39</ele>
        <time>2025-06-04T07:57:27.277Z</time>
      </trkpt>
      <trkpt lat="48.41014" lon="-2.12634">
        <ele>85.18</ele>
        <time>2025-06-04T07:57:26.729Z</time>
      </trkpt>
      <trkpt lat="48.41016" lon="-2.12632">
        <ele>84.92</ele>
        <time>2025-06-04T07:57:25.273Z</time>
      </trkpt>
      <trkpt lat="48.41018" lon="-2.1263">
        <ele>84.68</ele>
        <time>2025-06-04T07:57:24.989Z</time>
      </trkpt>
      <trkpt lat="48.4102" lon="-2.12628">
        <ele>84.38</ele>
        <time>2025-06-04T07:57:23.271Z</time>
      </trkpt>
      <trkpt lat="48.41022" lon="-2.12626">
        <ele>84.07</ele>
        <time>2025-06-04T07:57:22.271Z</time>
      </trkpt>
      <trkpt lat="48.41024" lon="-2.12625">
        <ele>83.7</ele>
        <time>2025-06-04T07:57:21.266Z</time>
      </trkpt>
      <trkpt lat="48.41025" lon="-2.12622">
        <ele>83.33</ele>
        <time>2025-06-04T07:57:20.272Z</time>
      </trkpt>
      <trkpt lat="48.41026" lon="-2.12621">
        <ele>82.91</ele>
        <time>2025-06-04T07:57:20.121Z</time>
      </trkpt>
      <trkpt lat="48.41029" lon="-2.12617">
        <ele>82.45</ele>
        <time>2025-06-04T07:57:18.263Z</time>
      </trkpt>
      <trkpt lat="48.41032" lon="-2.12613">
        <ele>81.99</ele>
        <time>2025-06-04T07:57:17.260Z</time>
      </trkpt>
      <trkpt lat="48.41035" lon="-2.1261">
        <ele>81.6</ele>
        <time>2025-06-04T07:57:16.261Z</time>
      </trkpt>
      <trkpt lat="48.41039" lon="-2.12606">
        <ele>81.16</ele>
        <time>2025-06-04T07:57:16.079Z</time>
      </trkpt>
      <trkpt lat="48.41043" lon="-2.12602">
        <ele>80.75</ele>
        <time>2025-06-04T07:57:14.986Z</time>
      </trkpt>
      <trkpt lat="48.41048" lon="-2.12598">
        <ele>80.39</ele>
        <time>2025-06-04T07:57:13.289Z</time>
      </trkpt>
      <trkpt lat="48.41053" lon="-2.12593">
        <ele>80.06</ele>
        <time>2025-06-04T07:57:13.133Z</time>
      </trkpt>
      <trkpt lat="48.41058" lon="-2.12589">
        <ele>79.85</ele>
        <time>2025-06-04T07:57:12.119Z</time>
      </trkpt>
      <trkpt lat="48.41061" lon="-2.12585">
        <ele>79.62</ele>
        <time>2025-06-04T07:57:10.673Z</time>
      </trkpt>
      <trkpt lat="48.41064" lon="-2.12582">
        <ele>79.36</ele>
        <time>2025-06-04T07:57:10.135Z</time>
      </trkpt>
      <trkpt lat="48.41068" lon="-2.12576">
        <ele>78.88</ele>
        <time>2025-06-04T07:57:08.118Z</time>
      </trkpt>
      <trkpt lat="48.41071" lon="-2.12563">
        <ele>78.61</ele>
        <time>2025-06-04T07:57:06.252Z</time>
      </trkpt>
      <trkpt lat="48.41074" lon="-2.12553">
        <ele>78.33</ele>
        <time>2025-06-04T07:57:05.259Z</time>
      </trkpt>
      <trkpt lat="48.41078" lon="-2.1254">
        <ele>78.05</ele>
        <time>2025-06-04T07:57:05.086Z</time>
      </trkpt>
      <trkpt lat="48.41079" lon="-2.12539">
        <ele>77.54</ele>
        <time>2025-06-04T07:57:04.050Z</time>
      </trkpt>
      <trkpt lat="48.41084" lon="-2.1253">
        <ele>77.37</ele>
        <time>2025-06-04T07:57:01.264Z</time>
      </trkpt>
      <trkpt lat="48.41086" lon="-2.12528">
        <ele>77.2</ele>
        <time>2025-06-04T07:57:00.225Z</time>
      </trkpt>
      <trkpt lat="48.41087" lon="-2.12527">
        <ele>77.02</ele>
        <time>2025-06-04T07:56:59.259Z</time>
      </trkpt>
      <trkpt lat="48.41086" lon="-2.12521">
        <ele>76.86</ele>
        <time>2025-06-04T07:56:58.705Z</time>
      </trkpt>
      <trkpt lat="48.41087" lon="-2.12519">
        <ele>76.7</ele>
        <time>2025-06-04T07:56:57.257Z</time>
      </trkpt>
      <trkpt lat="48.41088" lon="-2.12512">
        <ele>76.57</ele>
        <time>2025-06-04T07:56:56.839Z</time>
      </trkpt>
      <trkpt lat="48.4109" lon="-2.12506">
        <ele>76.46</ele>
        <time>2025-06-04T07:56:55.656Z</time>
      </trkpt>
      <trkpt lat="48.41092" lon="-2.12499">
        <ele>76.36</ele>
        <time>2025-06-04T07:56:54.254Z</time>
      </trkpt>
      <trkpt lat="48.41093" lon="-2.12493">
        <ele>76.29</ele>
        <time>2025-06-04T07:56:53.903Z</time>
      </trkpt>
      <trkpt lat="48.41096" lon="-2.12482">
        <ele>76.22</ele>
        <time>2025-06-04T07:56:52.951Z</time>
      </trkpt>
      <trkpt lat="48.41098" lon="-2.12479">
        <ele>76.17</ele>
        <time>2025-06-04T07:56:52.099Z</time>
      </trkpt>
      <trkpt lat="48.41101" lon="-2.12465">
        <ele>76.13</ele>
        <time>2025-06-04T07:56:50.618Z</time>
      </trkpt>
      <trkpt lat="48.41103" lon="-2.12459">
        <ele>76.11</ele>
        <time>2025-06-04T07:56:49.189Z</time>
      </trkpt>
      <trkpt lat="48.41104" lon="-2.12457">
        <ele>76.09</ele>
        <time>2025-06-04T07:56:48.917Z</time>
      </trkpt>
      <trkpt lat="48.41105" lon="-2.12454">
        <ele>76.06</ele>
        <time>2025-06-04T07:56:48.099Z</time>
      </trkpt>
      <trkpt lat="48.41106" lon="-2.12449">
        <ele>76.04</ele>
        <time>2025-06-04T07:56:46.136Z</time>
      </trkpt>
      <trkpt lat="48.41108" lon="-2.12445">
        <ele>76.01</ele>
        <time>2025-06-04T07:56:45.182Z</time>
      </trkpt>
      <trkpt lat="48.41109" lon="-2.12441">
        <ele>75.98</ele>
        <time>2025-06-04T07:56:44.268Z</time>
      </trkpt>
      <trkpt lat="48.41111" lon="-2.12436">
        <ele>75.95</ele>
        <time>2025-06-04T07:56:43.149Z</time>
      </trkpt>
      <trkpt lat="48.41113" lon="-2.12433">
        <ele>75.9</ele>
        <time>2025-06-04T07:56:43.037Z</time>
      </trkpt>
      <trkpt lat="48.41115" lon="-2.1243">
        <ele>75.86</ele>
        <time>2025-06-04T07:56:41.258Z</time>
      </trkpt>
      <trkpt lat="48.41117" lon="-2.12427">
        <ele>75.81</ele>
        <time>2025-06-04T07:56:40.258Z</time>
      </trkpt>
      <trkpt lat="48.41119" lon="-2.12422">
        <ele>75.75</ele>
        <time>2025-06-04T07:56:40.043Z</time>
      </trkpt>
      <trkpt lat="48.4112" lon="-2.12417">
        <ele>75.69</ele>
        <time>2025-06-04T07:56:39.011Z</time>
      </trkpt>
      <trkpt lat="48.41122" lon="-2.12412">
        <ele>75.62</ele>
        <time>2025-06-04T07:56:37.245Z</time>
      </trkpt>
      <trkpt lat="48.41122" lon="-2.12408">
        <ele>75.55</ele>
        <time>2025-06-04T07:56:37.039Z</time>
      </trkpt>
      <trkpt lat="48.41124" lon="-2.12404">
        <ele>75.48</ele>
        <time>2025-06-04T07:56:35.548Z</time>
      </trkpt>
      <trkpt lat="48.41125" lon="-2.12399">
        <ele>75.4</ele>
        <time>2025-06-04T07:56:34.135Z</time>
      </trkpt>
      <trkpt lat="48.41126" lon="-2.12395">
        <ele>75.33</ele>
        <time>2025-06-04T07:56:33.736Z</time>
      </trkpt>
      <trkpt lat="48.41127" lon="-2.12391">
        <ele>75.25</ele>
        <time>2025-06-04T07:56:33.104Z</time>
      </trkpt>
      <trkpt lat="48.41128" lon="-2.12387">
        <ele>75.17</ele>
        <time>2025-06-04T07:56:32Z</time>
      </trkpt>
      <trkpt lat="48.41129" lon="-2.12385">
        <ele>75.09</ele>
        <time>2025-06-04T07:56:31.010Z</time>
      </trkpt>
      <trkpt lat="48.41131" lon="-2.12382">
        <ele>74.99</ele>
        <time>2025-06-04T07:56:29.959Z</time>
      </trkpt>
      <trkpt lat="48.41132" lon="-2.1238">
        <ele>74.9</ele>
        <time>2025-06-04T07:56:28.835Z</time>
      </trkpt>
      <trkpt lat="48.41133" lon="-2.12378">
        <ele>74.8</ele>
        <time>2025-06-04T07:56:27.101Z</time>
      </trkpt>
      <trkpt lat="48.41134" lon="-2.12376">
        <ele>74.61</ele>
        <time>2025-06-04T07:56:26.028Z</time>
      </trkpt>
      <trkpt lat="48.41137" lon="-2.12371">
        <ele>74.51</ele>
        <time>2025-06-04T07:56:24.104Z</time>
      </trkpt>
      <trkpt lat="48.41138" lon="-2.12369">
        <ele>74.41</ele>
        <time>2025-06-04T07:56:23.264Z</time>
      </trkpt>
      <trkpt lat="48.4114" lon="-2.12368">
        <ele>74.31</ele>
        <time>2025-06-04T07:56:23.083Z</time>
      </trkpt>
      <trkpt lat="48.41142" lon="-2.12365">
        <ele>74.22</ele>
        <time>2025-06-04T07:56:21.931Z</time>
      </trkpt>
      <trkpt lat="48.41143" lon="-2.12364">
        <ele>74.13</ele>
        <time>2025-06-04T07:56:20.887Z</time>
      </trkpt>
      <trkpt lat="48.41144" lon="-2.12362">
        <ele>74.04</ele>
        <time>2025-06-04T07:56:19.263Z</time>
      </trkpt>
      <trkpt lat="48.41145" lon="-2.12359">
        <ele>73.96</ele>
        <time>2025-06-04T07:56:18.239Z</time>
      </trkpt>
      <trkpt lat="48.41146" lon="-2.12355">
        <ele>73.89</ele>
        <time>2025-06-04T07:56:17.607Z</time>
      </trkpt>
      <trkpt lat="48.41147" lon="-2.12352">
        <ele>73.83</ele>
        <time>2025-06-04T07:56:16.264Z</time>
      </trkpt>
      <trkpt lat="48.41148" lon="-2.12347">
        <ele>73.78</ele>
        <time>2025-06-04T07:56:16.049Z</time>
      </trkpt>
      <trkpt lat="48.41148" lon="-2.12342">
        <ele>73.75</ele>
        <time>2025-06-04T07:56:14.264Z</time>
      </trkpt>
      <trkpt lat="48.4115" lon="-2.12338">
        <ele>73.74</ele>
        <time>2025-06-04T07:56:13.740Z</time>
      </trkpt>
      <trkpt lat="48.41151" lon="-2.12333">
        <ele>73.73</ele>
        <time>2025-06-04T07:56:12.641Z</time>
      </trkpt>
      <trkpt lat="48.41152" lon="-2.12327">
        <ele>73.72</ele>
        <time>2025-06-04T07:56:11.632Z</time>
      </trkpt>
      <trkpt lat="48.41154" lon="-2.12323">
        <ele>73.72</ele>
        <time>2025-06-04T07:56:10.586Z</time>
      </trkpt>
      <trkpt lat="48.41156" lon="-2.12318">
        <ele>73.74</ele>
        <time>2025-06-04T07:56:10.033Z</time>
      </trkpt>
      <trkpt lat="48.41158" lon="-2.12314">
        <ele>73.75</ele>
        <time>2025-06-04T07:56:08.686Z</time>
      </trkpt>
      <trkpt lat="48.41162" lon="-2.12312">
        <ele>73.76</ele>
        <time>2025-06-04T07:56:07.975Z</time>
      </trkpt>
      <trkpt lat="48.41165" lon="-2.12311">
        <ele>73.77</ele>
        <time>2025-06-04T07:56:07.070Z</time>
      </trkpt>
      <trkpt lat="48.41167" lon="-2.12309">
        <ele>73.78</ele>
        <time>2025-06-04T07:56:05.554Z</time>
      </trkpt>
      <trkpt lat="48.4117" lon="-2.12305">
        <ele>73.78</ele>
        <time>2025-06-04T07:56:04.827Z</time>
      </trkpt>
      <trkpt lat="48.41172" lon="-2.123">
        <ele>73.77</ele>
        <time>2025-06-04T07:56:03.586Z</time>
      </trkpt>
      <trkpt lat="48.41173" lon="-2.12294">
        <ele>73.77</ele>
        <time>2025-06-04T07:56:02.614Z</time>
      </trkpt>
      <trkpt lat="48.41174" lon="-2.12287">
        <ele>73.76</ele>
        <time>2025-06-04T07:56:02.050Z</time>
      </trkpt>
      <trkpt lat="48.41175" lon="-2.12281">
        <ele>73.74</ele>
        <time>2025-06-04T07:56:00.642Z</time>
      </trkpt>
      <trkpt lat="48.41176" lon="-2.12274">
        <ele>73.72</ele>
        <time>2025-06-04T07:55:59.190Z</time>
      </trkpt>
      <trkpt lat="48.41177" lon="-2.1227">
        <ele>73.71</ele>
        <time>2025-06-04T07:55:58.266Z</time>
      </trkpt>
      <trkpt lat="48.41178" lon="-2.12264">
        <ele>73.69</ele>
        <time>2025-06-04T07:55:57.904Z</time>
      </trkpt>
      <trkpt lat="48.41187" lon="-2.12248">
        <ele>73.68</ele>
        <time>2025-06-04T07:55:56.266Z</time>
      </trkpt>
      <trkpt lat="48.4119" lon="-2.12241">
        <ele>73.73</ele>
        <time>2025-06-04T07:55:55.946Z</time>
      </trkpt>
      <trkpt lat="48.41191" lon="-2.12239">
        <ele>73.79</ele>
        <time>2025-06-04T07:55:54.264Z</time>
      </trkpt>
      <trkpt lat="48.41191" lon="-2.12238">
        <ele>73.84</ele>
        <time>2025-06-04T07:55:53.990Z</time>
      </trkpt>
      <trkpt lat="48.41191" lon="-2.12236">
        <ele>73.85</ele>
        <time>2025-06-04T07:55:53.026Z</time>
      </trkpt>
      <trkpt lat="48.41188" lon="-2.12233">
        <ele>73.86</ele>
        <time>2025-06-04T07:55:51.256Z</time>
      </trkpt>
      <trkpt lat="48.41187" lon="-2.12235">
        <ele>73.88</ele>
        <time>2025-06-04T07:55:50.989Z</time>
      </trkpt>
      <trkpt lat="48.41189" lon="-2.1223">
        <ele>73.9</ele>
        <time>2025-06-04T07:55:49.246Z</time>
      </trkpt>
      <trkpt lat="48.41191" lon="-2.12225">
        <ele>73.94</ele>
        <time>2025-06-04T07:55:48.915Z</time>
      </trkpt>
      <trkpt lat="48.41193" lon="-2.12223">
        <ele>73.99</ele>
        <time>2025-06-04T07:55:47.236Z</time>
      </trkpt>
      <trkpt lat="48.41197" lon="-2.12222">
        <ele>74.04</ele>
        <time>2025-06-04T07:55:46.274Z</time>
      </trkpt>
      <trkpt lat="48.412" lon="-2.12223">
        <ele>74.09</ele>
        <time>2025-06-04T07:55:45.272Z</time>
      </trkpt>
      <trkpt lat="48.41203" lon="-2.12226">
        <ele>74.11</ele>
        <time>2025-06-04T07:55:44.279Z</time>
      </trkpt>
      <trkpt lat="48.41207" lon="-2.1223">
        <ele>74.13</ele>
        <time>2025-06-04T07:55:44.007Z</time>
      </trkpt>
      <trkpt lat="48.41211" lon="-2.12234">
        <ele>74.12</ele>
        <time>2025-06-04T07:55:42.579Z</time>
      </trkpt>
      <trkpt lat="48.41215" lon="-2.12239">
        <ele>74.1</ele>
        <time>2025-06-04T07:55:41.518Z</time>
      </trkpt>
      <trkpt lat="48.41218" lon="-2.12243">
        <ele>74.07</ele>
        <time>2025-06-04T07:55:40.248Z</time>
      </trkpt>
      <trkpt lat="48.41222" lon="-2.12247">
        <ele>74.02</ele>
        <time>2025-06-04T07:55:40.035Z</time>
      </trkpt>
      <trkpt lat="48.41225" lon="-2.12251">
        <ele>73.96</ele>
        <time>2025-06-04T07:55:38.534Z</time>
      </trkpt>
      <trkpt lat="48.41228" lon="-2.12253">
        <ele>73.89</ele>
        <time>2025-06-04T07:55:37.906Z</time>
      </trkpt>
      <trkpt lat="48.41231" lon="-2.12254">
        <ele>73.82</ele>
        <time>2025-06-04T07:55:37.040Z</time>
      </trkpt>
      <trkpt lat="48.41234" lon="-2.12254">
        <ele>73.73</ele>
        <time>2025-06-04T07:55:35.533Z</time>
      </trkpt>
      <trkpt lat="48.41238" lon="-2.12251">
        <ele>73.65</ele>
        <time>2025-06-04T07:55:34.267Z</time>
      </trkpt>
      <trkpt lat="48.41241" lon="-2.12248">
        <ele>73.55</ele>
        <time>2025-06-04T07:55:33.266Z</time>
      </trkpt>
      <trkpt lat="48.41246" lon="-2.12243">
        <ele>73.47</ele>
        <time>2025-06-04T07:55:32.983Z</time>
      </trkpt>
      <trkpt lat="48.4125" lon="-2.12237">
        <ele>73.4</ele>
        <time>2025-06-04T07:55:31.988Z</time>
      </trkpt>
      <trkpt lat="48.41253" lon="-2.12233">
        <ele>73.33</ele>
        <time>2025-06-04T07:55:30.064Z</time>
      </trkpt>
      <trkpt lat="48.41256" lon="-2.12227">
        <ele>73.27</ele>
        <time>2025-06-04T07:55:29.959Z</time>
      </trkpt>
      <trkpt lat="48.41259" lon="-2.12222">
        <ele>73.23</ele>
        <time>2025-06-04T07:55:28.042Z</time>
      </trkpt>
      <trkpt lat="48.41263" lon="-2.12217">
        <ele>73.19</ele>
        <time>2025-06-04T07:55:27.270Z</time>
      </trkpt>
      <trkpt lat="48.41265" lon="-2.1221">
        <ele>73.17</ele>
        <time>2025-06-04T07:55:26.118Z</time>
      </trkpt>
      <trkpt lat="48.41267" lon="-2.12206">
        <ele>73.14</ele>
        <time>2025-06-04T07:55:25.997Z</time>
      </trkpt>
      <trkpt lat="48.41268" lon="-2.12203">
        <ele>73.13</ele>
        <time>2025-06-04T07:55:24.603Z</time>
      </trkpt>
      <trkpt lat="48.41269" lon="-2.122">
        <ele>73.12</ele>
        <time>2025-06-04T07:55:23.589Z</time>
      </trkpt>
      <trkpt lat="48.41269" lon="-2.12198">
        <ele>73.11</ele>
        <time>2025-06-04T07:55:22.938Z</time>
      </trkpt>
      <trkpt lat="48.41269" lon="-2.12199">
        <ele>72</ele>
        <time>2025-06-04T07:54:40.749Z</time>
      </trkpt>
      <trkpt lat="48.41276" lon="-2.12196">
        <ele>74.98</ele>
        <time>2025-06-04T07:54:39.771Z</time>
      </trkpt>
      <trkpt lat="48.41278" lon="-2.12199">
        <ele>75.15</ele>
        <time>2025-06-04T07:54:37.834Z</time>
      </trkpt>
      <trkpt lat="48.41281" lon="-2.12203">
        <ele>75.32</ele>
        <time>2025-06-04T07:54:37.340Z</time>
      </trkpt>
      <trkpt lat="48.41284" lon="-2.12209">
        <ele>75.49</ele>
        <time>2025-06-04T07:54:36.761Z</time>
      </trkpt>
      <trkpt lat="48.41287" lon="-2.12215">
        <ele>75.66</ele>
        <time>2025-06-04T07:54:35.762Z</time>
      </trkpt>
      <trkpt lat="48.41291" lon="-2.12221">
        <ele>75.82</ele>
        <time>2025-06-04T07:54:34.489Z</time>
      </trkpt>
      <trkpt lat="48.41294" lon="-2.12226">
        <ele>75.97</ele>
        <time>2025-06-04T07:54:33.535Z</time>
      </trkpt>
      <trkpt lat="48.41298" lon="-2.12231">
        <ele>76.11</ele>
        <time>2025-06-04T07:54:32.733Z</time>
      </trkpt>
      <trkpt lat="48.41301" lon="-2.12235">
        <ele>76.23</ele>
        <time>2025-06-04T07:54:31.327Z</time>
      </trkpt>
      <trkpt lat="48.41306" lon="-2.1224">
        <ele>76.36</ele>
        <time>2025-06-04T07:54:30.319Z</time>
      </trkpt>
      <trkpt lat="48.4131" lon="-2.12246">
        <ele>76.5</ele>
        <time>2025-06-04T07:54:29.301Z</time>
      </trkpt>
      <trkpt lat="48.41314" lon="-2.12251">
        <ele>76.63</ele>
        <time>2025-06-04T07:54:28.547Z</time>
      </trkpt>
      <trkpt lat="48.41317" lon="-2.12255">
        <ele>76.75</ele>
        <time>2025-06-04T07:54:27.723Z</time>
      </trkpt>
      <trkpt lat="48.41322" lon="-2.1226">
        <ele>76.88</ele>
        <time>2025-06-04T07:54:26.745Z</time>
      </trkpt>
      <trkpt lat="48.41327" lon="-2.12266">
        <ele>76.98</ele>
        <time>2025-06-04T07:54:25.749Z</time>
      </trkpt>
      <trkpt lat="48.41332" lon="-2.12272">
        <ele>77.09</ele>
        <time>2025-06-04T07:54:24.751Z</time>
      </trkpt>
      <trkpt lat="48.41339" lon="-2.1228">
        <ele>77.21</ele>
        <time>2025-06-04T07:54:23.289Z</time>
      </trkpt>
      <trkpt lat="48.41343" lon="-2.12284">
        <ele>77.34</ele>
        <time>2025-06-04T07:54:22.257Z</time>
      </trkpt>
      <trkpt lat="48.41348" lon="-2.12291">
        <ele>77.47</ele>
        <time>2025-06-04T07:54:21.260Z</time>
      </trkpt>
      <trkpt lat="48.41354" lon="-2.12298">
        <ele>77.63</ele>
        <time>2025-06-04T07:54:20.586Z</time>
      </trkpt>
      <trkpt lat="48.4136" lon="-2.12304">
        <ele>77.8</ele>
        <time>2025-06-04T07:54:19.571Z</time>
      </trkpt>
      <trkpt lat="48.41365" lon="-2.12311">
        <ele>78</ele>
        <time>2025-06-04T07:54:18.373Z</time>
      </trkpt>
      <trkpt lat="48.41371" lon="-2.12317">
        <ele>78.19</ele>
        <time>2025-06-04T07:54:16.748Z</time>
      </trkpt>
      <trkpt lat="48.41376" lon="-2.12324">
        <ele>78.4</ele>
        <time>2025-06-04T07:54:16.738Z</time>
      </trkpt>
      <trkpt lat="48.41381" lon="-2.1233">
        <ele>78.62</ele>
        <time>2025-06-04T07:54:15.327Z</time>
      </trkpt>
      <trkpt lat="48.41386" lon="-2.12338">
        <ele>78.85</ele>
        <time>2025-06-04T07:54:14.323Z</time>
      </trkpt>
      <trkpt lat="48.41392" lon="-2.12344">
        <ele>79.08</ele>
        <time>2025-06-04T07:54:12.825Z</time>
      </trkpt>
      <trkpt lat="48.41401" lon="-2.12356">
        <ele>79.28</ele>
        <time>2025-06-04T07:54:12.313Z</time>
      </trkpt>
      <trkpt lat="48.41402" lon="-2.12357">
        <ele>79.49</ele>
        <time>2025-06-04T07:54:11.281Z</time>
      </trkpt>
      <trkpt lat="48.41407" lon="-2.12363">
        <ele>79.67</ele>
        <time>2025-06-04T07:54:10.430Z</time>
      </trkpt>
      <trkpt lat="48.4141" lon="-2.12367">
        <ele>79.86</ele>
        <time>2025-06-04T07:54:09.366Z</time>
      </trkpt>
      <trkpt lat="48.41415" lon="-2.12372">
        <ele>80.04</ele>
        <time>2025-06-04T07:54:08.699Z</time>
      </trkpt>
      <trkpt lat="48.41418" lon="-2.12377">
        <ele>80.18</ele>
        <time>2025-06-04T07:54:07.466Z</time>
      </trkpt>
      <trkpt lat="48.41421" lon="-2.12381">
        <ele>80.31</ele>
        <time>2025-06-04T07:54:06.419Z</time>
      </trkpt>
      <trkpt lat="48.41423" lon="-2.12385">
        <ele>80.46</ele>
        <time>2025-06-04T07:54:05.726Z</time>
      </trkpt>
      <trkpt lat="48.41425" lon="-2.12389">
        <ele>80.6</ele>
        <time>2025-06-04T07:54:04.712Z</time>
      </trkpt>
      <trkpt lat="48.41424" lon="-2.12396">
        <ele>80.77</ele>
        <time>2025-06-04T07:54:03.293Z</time>
      </trkpt>
      <trkpt lat="48.41421" lon="-2.12401">
        <ele>80.99</ele>
        <time>2025-06-04T07:54:02.713Z</time>
      </trkpt>
      <trkpt lat="48.41417" lon="-2.12407">
        <ele>81.22</ele>
        <time>2025-06-04T07:54:01.710Z</time>
      </trkpt>
      <trkpt lat="48.41412" lon="-2.12415">
        <ele>81.47</ele>
        <time>2025-06-04T07:54:00.301Z</time>
      </trkpt>
      <trkpt lat="48.41404" lon="-2.12432">
        <ele>81.72</ele>
        <time>2025-06-04T07:53:59.574Z</time>
      </trkpt>
      <trkpt lat="48.41403" lon="-2.12433">
        <ele>81.99</ele>
        <time>2025-06-04T07:53:58.173Z</time>
      </trkpt>
      <trkpt lat="48.41399" lon="-2.12443">
        <ele>82.21</ele>
        <time>2025-06-04T07:53:57.572Z</time>
      </trkpt>
      <trkpt lat="48.41396" lon="-2.12453">
        <ele>82.41</ele>
        <time>2025-06-04T07:53:56.721Z</time>
      </trkpt>
      <trkpt lat="48.41392" lon="-2.12466">
        <ele>82.77</ele>
        <time>2025-06-04T07:53:55.711Z</time>
      </trkpt>
      <trkpt lat="48.41389" lon="-2.12487">
        <ele>82.92</ele>
        <time>2025-06-04T07:53:53.248Z</time>
      </trkpt>
      <trkpt lat="48.41388" lon="-2.12499">
        <ele>83.09</ele>
        <time>2025-06-04T07:53:52.302Z</time>
      </trkpt>
      <trkpt lat="48.41386" lon="-2.1251">
        <ele>83.19</ele>
        <time>2025-06-04T07:53:51.310Z</time>
      </trkpt>
      <trkpt lat="48.41385" lon="-2.12533">
        <ele>83.38</ele>
        <time>2025-06-04T07:53:49.237Z</time>
      </trkpt>
      <trkpt lat="48.41384" lon="-2.12548">
        <ele>83.48</ele>
        <time>2025-06-04T07:53:48.297Z</time>
      </trkpt>
      <trkpt lat="48.41383" lon="-2.12565">
        <ele>83.59</ele>
        <time>2025-06-04T07:53:47.311Z</time>
      </trkpt>
      <trkpt lat="48.41382" lon="-2.12567">
        <ele>83.72</ele>
        <time>2025-06-04T07:53:46.265Z</time>
      </trkpt>
      <trkpt lat="48.41381" lon="-2.12577">
        <ele>83.87</ele>
        <time>2025-06-04T07:53:45.245Z</time>
      </trkpt>
      <trkpt lat="48.4138" lon="-2.1259">
        <ele>84.07</ele>
        <time>2025-06-04T07:53:44.314Z</time>
      </trkpt>
      <trkpt lat="48.4138" lon="-2.12597">
        <ele>84.29</ele>
        <time>2025-06-04T07:53:43.288Z</time>
      </trkpt>
      <trkpt lat="48.41379" lon="-2.12608">
        <ele>84.53</ele>
        <time>2025-06-04T07:53:42.275Z</time>
      </trkpt>
      <trkpt lat="48.41378" lon="-2.1262">
        <ele>84.77</ele>
        <time>2025-06-04T07:53:41.331Z</time>
      </trkpt>
      <trkpt lat="48.41377" lon="-2.12627">
        <ele>84.99</ele>
        <time>2025-06-04T07:53:40.684Z</time>
      </trkpt>
      <trkpt lat="48.41376" lon="-2.12635">
        <ele>85.44</ele>
        <time>2025-06-04T07:53:39.238Z</time>
      </trkpt>
      <trkpt lat="48.41376" lon="-2.12653">
        <ele>85.61</ele>
        <time>2025-06-04T07:53:36.760Z</time>
      </trkpt>
      <trkpt lat="48.41379" lon="-2.12664">
        <ele>85.79</ele>
        <time>2025-06-04T07:53:36.293Z</time>
      </trkpt>
      <trkpt lat="48.41381" lon="-2.12668">
        <ele>85.93</ele>
        <time>2025-06-04T07:53:35.686Z</time>
      </trkpt>
      <trkpt lat="48.41386" lon="-2.12673">
        <ele>86.09</ele>
        <time>2025-06-04T07:53:34.213Z</time>
      </trkpt>
      <trkpt lat="48.4139" lon="-2.12675">
        <ele>86.23</ele>
        <time>2025-06-04T07:53:33.200Z</time>
      </trkpt>
      <trkpt lat="48.41395" lon="-2.12678">
        <ele>86.37</ele>
        <time>2025-06-04T07:53:32.682Z</time>
      </trkpt>
      <trkpt lat="48.41401" lon="-2.12682">
        <ele>86.49</ele>
        <time>2025-06-04T07:53:31.301Z</time>
      </trkpt>
      <trkpt lat="48.41406" lon="-2.12685">
        <ele>86.6</ele>
        <time>2025-06-04T07:53:30.237Z</time>
      </trkpt>
      <trkpt lat="48.4141" lon="-2.12688">
        <ele>86.72</ele>
        <time>2025-06-04T07:53:29.264Z</time>
      </trkpt>
      <trkpt lat="48.41416" lon="-2.12691">
        <ele>86.84</ele>
        <time>2025-06-04T07:53:28.280Z</time>
      </trkpt>
      <trkpt lat="48.41421" lon="-2.12695">
        <ele>86.95</ele>
        <time>2025-06-04T07:53:27.224Z</time>
      </trkpt>
      <trkpt lat="48.41426" lon="-2.12698">
        <ele>87.04</ele>
        <time>2025-06-04T07:53:26.204Z</time>
      </trkpt>
      <trkpt lat="48.4143" lon="-2.12701">
        <ele>87.15</ele>
        <time>2025-06-04T07:53:25.259Z</time>
      </trkpt>
      <trkpt lat="48.41435" lon="-2.12704">
        <ele>87.27</ele>
        <time>2025-06-04T07:53:24.264Z</time>
      </trkpt>
      <trkpt lat="48.4144" lon="-2.12707">
        <ele>87.4</ele>
        <time>2025-06-04T07:53:22.695Z</time>
      </trkpt>
      <trkpt lat="48.41445" lon="-2.1271">
        <ele>87.54</ele>
        <time>2025-06-04T07:53:22.197Z</time>
      </trkpt>
      <trkpt lat="48.41445" lon="-2.1271">
        <ele>88.6</ele>
        <time>2025-06-04T07:51:53.178Z</time>
      </trkpt>
      <trkpt lat="48.41499" lon="-2.12757">
        <ele>90.24</ele>
        <time>2025-06-04T07:51:52.209Z</time>
      </trkpt>
      <trkpt lat="48.41499" lon="-2.12762">
        <ele>90.39</ele>
        <time>2025-06-04T07:51:51.281Z</time>
      </trkpt>
      <trkpt lat="48.41497" lon="-2.12769">
        <ele>90.54</ele>
        <time>2025-06-04T07:51:50.294Z</time>
      </trkpt>
      <trkpt lat="48.41493" lon="-2.1278">
        <ele>90.7</ele>
        <time>2025-06-04T07:51:49.274Z</time>
      </trkpt>
      <trkpt lat="48.41492" lon="-2.12784">
        <ele>90.83</ele>
        <time>2025-06-04T07:51:48.152Z</time>
      </trkpt>
      <trkpt lat="48.4149" lon="-2.12792">
        <ele>90.96</ele>
        <time>2025-06-04T07:51:47.290Z</time>
      </trkpt>
      <trkpt lat="48.41486" lon="-2.12811">
        <ele>91.08</ele>
        <time>2025-06-04T07:51:46.277Z</time>
      </trkpt>
      <trkpt lat="48.41485" lon="-2.12812">
        <ele>91.19</ele>
        <time>2025-06-04T07:51:44.681Z</time>
      </trkpt>
      <trkpt lat="48.41483" lon="-2.12822">
        <ele>91.31</ele>
        <time>2025-06-04T07:51:44.207Z</time>
      </trkpt>
      <trkpt lat="48.41479" lon="-2.12838">
        <ele>91.44</ele>
        <time>2025-06-04T07:51:43.263Z</time>
      </trkpt>
      <trkpt lat="48.41479" lon="-2.12841">
        <ele>91.58</ele>
        <time>2025-06-04T07:51:42.222Z</time>
      </trkpt>
      <trkpt lat="48.41475" lon="-2.1286">
        <ele>91.74</ele>
        <time>2025-06-04T07:51:41.265Z</time>
      </trkpt>
      <trkpt lat="48.41474" lon="-2.12861">
        <ele>91.92</ele>
        <time>2025-06-04T07:51:39.765Z</time>
      </trkpt>
      <trkpt lat="48.41471" lon="-2.12874">
        <ele>92.12</ele>
        <time>2025-06-04T07:51:39.160Z</time>
      </trkpt>
      <trkpt lat="48.4147" lon="-2.1288">
        <ele>92.32</ele>
        <time>2025-06-04T07:51:38.383Z</time>
      </trkpt>
      <trkpt lat="48.41468" lon="-2.12889">
        <ele>92.520004</ele>
        <time>2025-06-04T07:51:37.473Z</time>
      </trkpt>
      <trkpt lat="48.41466" lon="-2.12898">
        <ele>92.7</ele>
        <time>2025-06-04T07:51:36.199Z</time>
      </trkpt>
      <trkpt lat="48.41464" lon="-2.12907">
        <ele>92.83</ele>
        <time>2025-06-04T07:51:35.174Z</time>
      </trkpt>
      <trkpt lat="48.41462" lon="-2.12915">
        <ele>92.96</ele>
        <time>2025-06-04T07:51:34.211Z</time>
      </trkpt>
      <trkpt lat="48.41459" lon="-2.12927">
        <ele>93.07</ele>
        <time>2025-06-04T07:51:33.396Z</time>
      </trkpt>
      <trkpt lat="48.41457" lon="-2.12933">
        <ele>93.12</ele>
        <time>2025-06-04T07:51:32.208Z</time>
      </trkpt>
      <trkpt lat="48.41455" lon="-2.1294">
        <ele>93.16</ele>
        <time>2025-06-04T07:51:31.171Z</time>
      </trkpt>
      <trkpt lat="48.41452" lon="-2.12948">
        <ele>93.2</ele>
        <time>2025-06-04T07:51:30.255Z</time>
      </trkpt>
      <trkpt lat="48.4145" lon="-2.12953">
        <ele>93.22</ele>
        <time>2025-06-04T07:51:29.332Z</time>
      </trkpt>
      <trkpt lat="48.41447" lon="-2.12958">
        <ele>93.24</ele>
        <time>2025-06-04T07:51:28.564Z</time>
      </trkpt>
      <trkpt lat="48.41445" lon="-2.12962">
        <ele>93.24</ele>
        <time>2025-06-04T07:51:27.278Z</time>
      </trkpt>
      <trkpt lat="48.41442" lon="-2.12967">
        <ele>93.25</ele>
        <time>2025-06-04T07:51:26.057Z</time>
      </trkpt>
      <trkpt lat="48.41441" lon="-2.12971">
        <ele>93.24</ele>
        <time>2025-06-04T07:51:25.553Z</time>
      </trkpt>
      <trkpt lat="48.41439" lon="-2.12975">
        <ele>93.229996</ele>
        <time>2025-06-04T07:51:24.507Z</time>
      </trkpt>
      <trkpt lat="48.41436" lon="-2.12981">
        <ele>93.22</ele>
        <time>2025-06-04T07:51:23.495Z</time>
      </trkpt>
      <trkpt lat="48.41435" lon="-2.12985">
        <ele>93.22</ele>
        <time>2025-06-04T07:51:22.495Z</time>
      </trkpt>
      <trkpt lat="48.41434" lon="-2.12988">
        <ele>93.229996</ele>
        <time>2025-06-04T07:51:21.065Z</time>
      </trkpt>
      <trkpt lat="48.41433" lon="-2.12991">
        <ele>93.24</ele>
        <time>2025-06-04T07:51:20.502Z</time>
      </trkpt>
      <trkpt lat="48.41432" lon="-2.12996">
        <ele>93.24</ele>
        <time>2025-06-04T07:51:19.091Z</time>
      </trkpt>
      <trkpt lat="48.41431" lon="-2.13001">
        <ele>93.26</ele>
        <time>2025-06-04T07:51:18.052Z</time>
      </trkpt>
      <trkpt lat="48.4143" lon="-2.13007">
        <ele>93.28</ele>
        <time>2025-06-04T07:51:17.054Z</time>
      </trkpt>
      <trkpt lat="48.41428" lon="-2.13013">
        <ele>93.3</ele>
        <time>2025-06-04T07:51:16.132Z</time>
      </trkpt>
      <trkpt lat="48.41428" lon="-2.13019">
        <ele>93.32</ele>
        <time>2025-06-04T07:51:15.028Z</time>
      </trkpt>
      <trkpt lat="48.41427" lon="-2.13025">
        <ele>93.34</ele>
        <time>2025-06-04T07:51:14.203Z</time>
      </trkpt>
      <trkpt lat="48.41426" lon="-2.13031">
        <ele>93.37</ele>
        <time>2025-06-04T07:51:13.083Z</time>
      </trkpt>
      <trkpt lat="48.41426" lon="-2.13036">
        <ele>93.39</ele>
        <time>2025-06-04T07:51:12.417Z</time>
      </trkpt>
      <trkpt lat="48.41425" lon="-2.13041">
        <ele>93.41</ele>
        <time>2025-06-04T07:51:11.399Z</time>
      </trkpt>
      <trkpt lat="48.41424" lon="-2.13049">
        <ele>93.42</ele>
        <time>2025-06-04T07:51:10.184Z</time>
      </trkpt>
      <trkpt lat="48.41422" lon="-2.13061">
        <ele>93.43</ele>
        <time>2025-06-04T07:51:09.132Z</time>
      </trkpt>
      <trkpt lat="48.41421" lon="-2.13069">
        <ele>93.43</ele>
        <time>2025-06-04T07:51:08.143Z</time>
      </trkpt>
      <trkpt lat="48.41421" lon="-2.13075">
        <ele>93.42</ele>
        <time>2025-06-04T07:51:07.152Z</time>
      </trkpt>
      <trkpt lat="48.4142" lon="-2.13079">
        <ele>93.42</ele>
        <time>2025-06-04T07:51:06.135Z</time>
      </trkpt>
      <trkpt lat="48.41418" lon="-2.13083">
        <ele>93.43</ele>
        <time>2025-06-04T07:51:05.315Z</time>
      </trkpt>
      <trkpt lat="48.41417" lon="-2.13088">
        <ele>93.44</ele>
        <time>2025-06-04T07:51:04.151Z</time>
      </trkpt>
      <trkpt lat="48.41416" lon="-2.13094">
        <ele>93.47</ele>
        <time>2025-06-04T07:51:03.524Z</time>
      </trkpt>
      <trkpt lat="48.41414" lon="-2.13101">
        <ele>93.51</ele>
        <time>2025-06-04T07:51:02.203Z</time>
      </trkpt>
      <trkpt lat="48.41412" lon="-2.13107">
        <ele>93.54</ele>
        <time>2025-06-04T07:51:01.131Z</time>
      </trkpt>
      <trkpt lat="48.41412" lon="-2.13114">
        <ele>93.57</ele>
        <time>2025-06-04T07:51:00.517Z</time>
      </trkpt>
      <trkpt lat="48.41411" lon="-2.1312">
        <ele>93.6</ele>
        <time>2025-06-04T07:50:59.399Z</time>
      </trkpt>
      <trkpt lat="48.41413" lon="-2.13127">
        <ele>93.63</ele>
        <time>2025-06-04T07:50:58.108Z</time>
      </trkpt>
      <trkpt lat="48.41415" lon="-2.13131">
        <ele>93.66</ele>
        <time>2025-06-04T07:50:57.091Z</time>
      </trkpt>
      <trkpt lat="48.4142" lon="-2.13134">
        <ele>93.67</ele>
        <time>2025-06-04T07:50:56.197Z</time>
      </trkpt>
      <trkpt lat="48.41425" lon="-2.13136">
        <ele>93.67</ele>
        <time>2025-06-04T07:50:54.677Z</time>
      </trkpt>
      <trkpt lat="48.4143" lon="-2.1314">
        <ele>93.67</ele>
        <time>2025-06-04T07:50:54.092Z</time>
      </trkpt>
      <trkpt lat="48.41434" lon="-2.13141">
        <ele>93.66</ele>
        <time>2025-06-04T07:50:53.195Z</time>
      </trkpt>
      <trkpt lat="48.41439" lon="-2.13147">
        <ele>93.65</ele>
        <time>2025-06-04T07:50:52.206Z</time>
      </trkpt>
      <trkpt lat="48.41444" lon="-2.13147">
        <ele>93.64</ele>
        <time>2025-06-04T07:50:51.082Z</time>
      </trkpt>
      <trkpt lat="48.41446" lon="-2.13148">
        <ele>93.62</ele>
        <time>2025-06-04T07:50:50.099Z</time>
      </trkpt>
      <trkpt lat="48.41449" lon="-2.13148">
        <ele>93.6</ele>
        <time>2025-06-04T07:50:49.483Z</time>
      </trkpt>
      <trkpt lat="48.41453" lon="-2.13148">
        <ele>93.58</ele>
        <time>2025-06-04T07:50:47.965Z</time>
      </trkpt>
      <trkpt lat="48.41457" lon="-2.13148">
        <ele>93.55</ele>
        <time>2025-06-04T07:50:47.201Z</time>
      </trkpt>
      <trkpt lat="48.41461" lon="-2.13148">
        <ele>93.53</ele>
        <time>2025-06-04T07:50:46.203Z</time>
      </trkpt>
      <trkpt lat="48.41462" lon="-2.13149">
        <ele>93.5</ele>
        <time>2025-06-04T07:50:45.156Z</time>
      </trkpt>
      <trkpt lat="48.41466" lon="-2.13152">
        <ele>93.46</ele>
        <time>2025-06-04T07:50:44.198Z</time>
      </trkpt>
      <trkpt lat="48.4147" lon="-2.13155">
        <ele>93.42</ele>
        <time>2025-06-04T07:50:43.450Z</time>
      </trkpt>
      <trkpt lat="48.41473" lon="-2.13159">
        <ele>93.38</ele>
        <time>2025-06-04T07:50:42.325Z</time>
      </trkpt>
      <trkpt lat="48.41476" lon="-2.13165">
        <ele>93.35</ele>
        <time>2025-06-04T07:50:41.139Z</time>
      </trkpt>
      <trkpt lat="48.4148" lon="-2.13171">
        <ele>93.32</ele>
        <time>2025-06-04T07:50:40.446Z</time>
      </trkpt>
      <trkpt lat="48.41483" lon="-2.13176">
        <ele>93.32</ele>
        <time>2025-06-04T07:50:38.971Z</time>
      </trkpt>
      <trkpt lat="48.41486" lon="-2.13179">
        <ele>93.32</ele>
        <time>2025-06-04T07:50:38.137Z</time>
      </trkpt>
      <trkpt lat="48.4149" lon="-2.13181">
        <ele>93.32</ele>
        <time>2025-06-04T07:50:37.070Z</time>
      </trkpt>
      <trkpt lat="48.41494" lon="-2.13182">
        <ele>93.32</ele>
        <time>2025-06-04T07:50:36.071Z</time>
      </trkpt>
      <trkpt lat="48.415" lon="-2.13183">
        <ele>93.33</ele>
        <time>2025-06-04T07:50:35.491Z</time>
      </trkpt>
      <trkpt lat="48.41504" lon="-2.13185">
        <ele>93.33</ele>
        <time>2025-06-04T07:50:34.014Z</time>
      </trkpt>
      <trkpt lat="48.41509" lon="-2.13186">
        <ele>93.32</ele>
        <time>2025-06-04T07:50:33.075Z</time>
      </trkpt>
      <trkpt lat="48.41515" lon="-2.13187">
        <ele>93.3</ele>
        <time>2025-06-04T07:50:32.238Z</time>
      </trkpt>
      <trkpt lat="48.41519" lon="-2.13188">
        <ele>93.270004</ele>
        <time>2025-06-04T07:50:31.186Z</time>
      </trkpt>
      <trkpt lat="48.41525" lon="-2.13189">
        <ele>93.24</ele>
        <time>2025-06-04T07:50:30.364Z</time>
      </trkpt>
      <trkpt lat="48.41529" lon="-2.1319">
        <ele>93.2</ele>
        <time>2025-06-04T07:50:29.144Z</time>
      </trkpt>
      <trkpt lat="48.41534" lon="-2.13191">
        <ele>93.16</ele>
        <time>2025-06-04T07:50:28.133Z</time>
      </trkpt>
      <trkpt lat="48.41539" lon="-2.13191">
        <ele>93.11</ele>
        <time>2025-06-04T07:50:27.196Z</time>
      </trkpt>
      <trkpt lat="48.41544" lon="-2.13192">
        <ele>93.04</ele>
        <time>2025-06-04T07:50:26.122Z</time>
      </trkpt>
      <trkpt lat="48.41549" lon="-2.13193">
        <ele>92.96</ele>
        <time>2025-06-04T07:50:25.163Z</time>
      </trkpt>
      <trkpt lat="48.41554" lon="-2.13194">
        <ele>92.89</ele>
        <time>2025-06-04T07:50:24.190Z</time>
      </trkpt>
      <trkpt lat="48.41559" lon="-2.13194">
        <ele>92.81</ele>
        <time>2025-06-04T07:50:23.208Z</time>
      </trkpt>
      <trkpt lat="48.41564" lon="-2.13195">
        <ele>92.72</ele>
        <time>2025-06-04T07:50:22.161Z</time>
      </trkpt>
      <trkpt lat="48.41569" lon="-2.13195">
        <ele>92.62</ele>
        <time>2025-06-04T07:50:21.407Z</time>
      </trkpt>
      <trkpt lat="48.41574" lon="-2.13196">
        <ele>92.51</ele>
        <time>2025-06-04T07:50:20.190Z</time>
      </trkpt>
      <trkpt lat="48.4158" lon="-2.13196">
        <ele>92.4</ele>
        <time>2025-06-04T07:50:19.135Z</time>
      </trkpt>
      <trkpt lat="48.41585" lon="-2.13196">
        <ele>92.28</ele>
        <time>2025-06-04T07:50:18.398Z</time>
      </trkpt>
      <trkpt lat="48.4159" lon="-2.13196">
        <ele>92.17</ele>
        <time>2025-06-04T07:50:17.181Z</time>
      </trkpt>
      <trkpt lat="48.41595" lon="-2.13196">
        <ele>92.06</ele>
        <time>2025-06-04T07:50:16.404Z</time>
      </trkpt>
      <trkpt lat="48.416" lon="-2.13195">
        <ele>91.94</ele>
        <time>2025-06-04T07:50:15.141Z</time>
      </trkpt>
      <trkpt lat="48.41605" lon="-2.13193">
        <ele>91.82</ele>
        <time>2025-06-04T07:50:14.159Z</time>
      </trkpt>
      <trkpt lat="48.4161" lon="-2.13191">
        <ele>91.71</ele>
        <time>2025-06-04T07:50:13.408Z</time>
      </trkpt>
      <trkpt lat="48.41615" lon="-2.13189">
        <ele>91.61</ele>
        <time>2025-06-04T07:50:12.370Z</time>
      </trkpt>
      <trkpt lat="48.41619" lon="-2.13185">
        <ele>91.520004</ele>
        <time>2025-06-04T07:50:11.423Z</time>
      </trkpt>
      <trkpt lat="48.41623" lon="-2.13179">
        <ele>91.44</ele>
        <time>2025-06-04T07:50:10.314Z</time>
      </trkpt>
      <trkpt lat="48.41626" lon="-2.13174">
        <ele>91.36</ele>
        <time>2025-06-04T07:50:08.905Z</time>
      </trkpt>
      <trkpt lat="48.41628" lon="-2.13167">
        <ele>91.28</ele>
        <time>2025-06-04T07:50:08.106Z</time>
      </trkpt>
      <trkpt lat="48.41629" lon="-2.13161">
        <ele>91.19</ele>
        <time>2025-06-04T07:50:07.439Z</time>
      </trkpt>
      <trkpt lat="48.41631" lon="-2.13155">
        <ele>91.09</ele>
        <time>2025-06-04T07:50:05.912Z</time>
      </trkpt>
      <trkpt lat="48.41633" lon="-2.13149">
        <ele>91</ele>
        <time>2025-06-04T07:50:04.992Z</time>
      </trkpt>
      <trkpt lat="48.41634" lon="-2.13143">
        <ele>90.89</ele>
        <time>2025-06-04T07:50:03.892Z</time>
      </trkpt>
      <trkpt lat="48.41636" lon="-2.13136">
        <ele>90.8</ele>
        <time>2025-06-04T07:50:02.990Z</time>
      </trkpt>
      <trkpt lat="48.41638" lon="-2.13128">
        <ele>90.71</ele>
        <time>2025-06-04T07:50:02.115Z</time>
      </trkpt>
      <trkpt lat="48.41639" lon="-2.1312">
        <ele>90.61</ele>
        <time>2025-06-04T07:50:01.132Z</time>
      </trkpt>
      <trkpt lat="48.4164" lon="-2.13115">
        <ele>90.520004</ele>
        <time>2025-06-04T07:50:00.436Z</time>
      </trkpt>
      <trkpt lat="48.41645" lon="-2.13088">
        <ele>90.49</ele>
        <time>2025-06-04T07:49:59.132Z</time>
      </trkpt>
      <trkpt lat="48.41649" lon="-2.13083">
        <ele>90.45</ele>
        <time>2025-06-04T07:49:58.354Z</time>
      </trkpt>
      <trkpt lat="48.4165" lon="-2.13084">
        <ele>90.41</ele>
        <time>2025-06-04T07:49:57.283Z</time>
      </trkpt>
      <trkpt lat="48.4165" lon="-2.13083">
        <ele>90.36</ele>
        <time>2025-06-04T07:49:56.044Z</time>
      </trkpt>
      <trkpt lat="48.4165" lon="-2.1308">
        <ele>90.31</ele>
        <time>2025-06-04T07:49:55.448Z</time>
      </trkpt>
      <trkpt lat="48.4165" lon="-2.13077">
        <ele>90.24</ele>
        <time>2025-06-04T07:49:54.156Z</time>
      </trkpt>
      <trkpt lat="48.4165" lon="-2.13079">
        <ele>90.18</ele>
        <time>2025-06-04T07:49:53.106Z</time>
      </trkpt>
      <trkpt lat="48.4165" lon="-2.13073">
        <ele>90.12</ele>
        <time>2025-06-04T07:49:52.053Z</time>
      </trkpt>
      <trkpt lat="48.41652" lon="-2.13068">
        <ele>90.05</ele>
        <time>2025-06-04T07:49:51.063Z</time>
      </trkpt>
      <trkpt lat="48.41653" lon="-2.13063">
        <ele>89.99</ele>
        <time>2025-06-04T07:49:50.424Z</time>
      </trkpt>
      <trkpt lat="48.41654" lon="-2.13059">
        <ele>89.93</ele>
        <time>2025-06-04T07:49:49.440Z</time>
      </trkpt>
      <trkpt lat="48.41656" lon="-2.13054">
        <ele>89.87</ele>
        <time>2025-06-04T07:49:48.123Z</time>
      </trkpt>
      <trkpt lat="48.41658" lon="-2.1305">
        <ele>89.82</ele>
        <time>2025-06-04T07:49:47.136Z</time>
      </trkpt>
      <trkpt lat="48.4166" lon="-2.13045">
        <ele>89.770004</ele>
        <time>2025-06-04T07:49:46.063Z</time>
      </trkpt>
      <trkpt lat="48.41662" lon="-2.13042">
        <ele>89.74</ele>
        <time>2025-06-04T07:49:45.142Z</time>
      </trkpt>
      <trkpt lat="48.41665" lon="-2.13037">
        <ele>89.71</ele>
        <time>2025-06-04T07:49:44.160Z</time>
      </trkpt>
      <trkpt lat="48.41674" lon="-2.1303">
        <ele>89.68</ele>
        <time>2025-06-04T07:49:42.546Z</time>
      </trkpt>
      <trkpt lat="48.41681" lon="-2.13025">
        <ele>89.65</ele>
        <time>2025-06-04T07:49:42.073Z</time>
      </trkpt>
      <trkpt lat="48.41687" lon="-2.1302">
        <ele>89.63</ele>
        <time>2025-06-04T07:49:41.241Z</time>
      </trkpt>
      <trkpt lat="48.41692" lon="-2.13014">
        <ele>89.6</ele>
        <time>2025-06-04T07:49:40.160Z</time>
      </trkpt>
      <trkpt lat="48.41697" lon="-2.13006">
        <ele>89.57</ele>
        <time>2025-06-04T07:49:39.395Z</time>
      </trkpt>
      <trkpt lat="48.41698" lon="-2.13004">
        <ele>89.54</ele>
        <time>2025-06-04T07:49:38.228Z</time>
      </trkpt>
      <trkpt lat="48.41698" lon="-2.13001">
        <ele>89.51</ele>
        <time>2025-06-04T07:49:37.272Z</time>
      </trkpt>
      <trkpt lat="48.41698" lon="-2.12999">
        <ele>89.47</ele>
        <time>2025-06-04T07:49:36.385Z</time>
      </trkpt>
      <trkpt lat="48.41699" lon="-2.12998">
        <ele>89.43</ele>
        <time>2025-06-04T07:49:35.424Z</time>
      </trkpt>
      <trkpt lat="48.41699" lon="-2.12999">
        <ele>89.39</ele>
        <time>2025-06-04T07:49:33.979Z</time>
      </trkpt>
      <trkpt lat="48.417" lon="-2.12999">
        <ele>89.36</ele>
        <time>2025-06-04T07:49:33.275Z</time>
      </trkpt>
      <trkpt lat="48.41701" lon="-2.13">
        <ele>89.35</ele>
        <time>2025-06-04T07:49:32.427Z</time>
      </trkpt>
      <trkpt lat="48.41702" lon="-2.12999">
        <ele>89.33</ele>
        <time>2025-06-04T07:49:30.966Z</time>
      </trkpt>
      <trkpt lat="48.41701" lon="-2.13001">
        <ele>89.31</ele>
        <time>2025-06-04T07:49:29.896Z</time>
      </trkpt>
      <trkpt lat="48.41702" lon="-2.13003">
        <ele>89.28</ele>
        <time>2025-06-04T07:49:28.936Z</time>
      </trkpt>
      <trkpt lat="48.41705" lon="-2.13008">
        <ele>89.2</ele>
        <time>2025-06-04T07:49:27.173Z</time>
      </trkpt>
      <trkpt lat="48.41705" lon="-2.13007">
        <ele>89.05</ele>
        <time>2025-06-04T07:49:25.411Z</time>
      </trkpt>
      <trkpt lat="48.41708" lon="-2.13009">
        <ele>88.97</ele>
        <time>2025-06-04T07:49:24.261Z</time>
      </trkpt>
      <trkpt lat="48.41711" lon="-2.13009">
        <ele>88.88</ele>
        <time>2025-06-04T07:49:22.960Z</time>
      </trkpt>
      <trkpt lat="48.41714" lon="-2.13007">
        <ele>88.79</ele>
        <time>2025-06-04T07:49:22.234Z</time>
      </trkpt>
      <trkpt lat="48.41717" lon="-2.13004">
        <ele>88.7</ele>
        <time>2025-06-04T07:49:21.219Z</time>
      </trkpt>
      <trkpt lat="48.41721" lon="-2.12999">
        <ele>88.6</ele>
        <time>2025-06-04T07:49:20.420Z</time>
      </trkpt>
      <trkpt lat="48.41724" lon="-2.12995">
        <ele>88.5</ele>
        <time>2025-06-04T07:49:19.320Z</time>
      </trkpt>
      <trkpt lat="48.41727" lon="-2.12991">
        <ele>88.39</ele>
        <time>2025-06-04T07:49:17.474Z</time>
      </trkpt>
      <trkpt lat="48.41734" lon="-2.12986">
        <ele>88.26</ele>
        <time>2025-06-04T07:49:16.947Z</time>
      </trkpt>
      <trkpt lat="48.41736" lon="-2.12982">
        <ele>88.14</ele>
        <time>2025-06-04T07:49:16.369Z</time>
      </trkpt>
      <trkpt lat="48.41739" lon="-2.12983">
        <ele>88.02</ele>
        <time>2025-06-04T07:49:15.004Z</time>
      </trkpt>
      <trkpt lat="48.41743" lon="-2.12986">
        <ele>87.91</ele>
        <time>2025-06-04T07:49:13.950Z</time>
      </trkpt>
      <trkpt lat="48.41746" lon="-2.1299">
        <ele>87.8</ele>
        <time>2025-06-04T07:49:12.938Z</time>
      </trkpt>
      <trkpt lat="48.4175" lon="-2.12994">
        <ele>87.68</ele>
        <time>2025-06-04T07:49:12.384Z</time>
      </trkpt>
      <trkpt lat="48.41754" lon="-2.12999">
        <ele>87.55</ele>
        <time>2025-06-04T07:49:10.921Z</time>
      </trkpt>
      <trkpt lat="48.41759" lon="-2.13006">
        <ele>87.45</ele>
        <time>2025-06-04T07:49:09.967Z</time>
      </trkpt>
      <trkpt lat="48.41762" lon="-2.13009">
        <ele>87.36</ele>
        <time>2025-06-04T07:49:09.395Z</time>
      </trkpt>
      <trkpt lat="48.41768" lon="-2.13014">
        <ele>87.28</ele>
        <time>2025-06-04T07:49:07.906Z</time>
      </trkpt>
      <trkpt lat="48.41785" lon="-2.13027">
        <ele>87.2</ele>
        <time>2025-06-04T07:49:06.952Z</time>
      </trkpt>
      <trkpt lat="48.41798" lon="-2.13035">
        <ele>87.17</ele>
        <time>2025-06-04T07:49:05.972Z</time>
      </trkpt>
      <trkpt lat="48.41799" lon="-2.13036">
        <ele>87.15</ele>
        <time>2025-06-04T07:49:04.896Z</time>
      </trkpt>
      <trkpt lat="48.41799" lon="-2.13037">
        <ele>87.12</ele>
        <time>2025-06-04T07:49:03.398Z</time>
      </trkpt>
      <trkpt lat="48.41799" lon="-2.13036">
        <ele>87.11</ele>
        <time>2025-06-04T07:49:01.940Z</time>
      </trkpt>
      <trkpt lat="48.41798" lon="-2.13035">
        <ele>87.08</ele>
        <time>2025-06-04T07:49:01.205Z</time>
      </trkpt>
      <trkpt lat="48.41796" lon="-2.13034">
        <ele>87.05</ele>
        <time>2025-06-04T07:48:59.581Z</time>
      </trkpt>
      <trkpt lat="48.41798" lon="-2.13035">
        <ele>87.03</ele>
        <time>2025-06-04T07:48:59.133Z</time>
      </trkpt>
      <trkpt lat="48.41803" lon="-2.13038">
        <ele>86.99</ele>
        <time>2025-06-04T07:48:58.133Z</time>
      </trkpt>
      <trkpt lat="48.41806" lon="-2.13041">
        <ele>86.96</ele>
        <time>2025-06-04T07:48:57.357Z</time>
      </trkpt>
      <trkpt lat="48.4181" lon="-2.13045">
        <ele>86.93</ele>
        <time>2025-06-04T07:48:56.385Z</time>
      </trkpt>
      <trkpt lat="48.41814" lon="-2.13048">
        <ele>86.88</ele>
        <time>2025-06-04T07:48:55.380Z</time>
      </trkpt>
      <trkpt lat="48.41818" lon="-2.13051">
        <ele>86.83</ele>
        <time>2025-06-04T07:48:53.929Z</time>
      </trkpt>
      <trkpt lat="48.41822" lon="-2.13054">
        <ele>86.78</ele>
        <time>2025-06-04T07:48:52.995Z</time>
      </trkpt>
      <trkpt lat="48.41827" lon="-2.13058">
        <ele>86.73</ele>
        <time>2025-06-04T07:48:52.313Z</time>
      </trkpt>
      <trkpt lat="48.41833" lon="-2.13064">
        <ele>86.67</ele>
        <time>2025-06-04T07:48:50.538Z</time>
      </trkpt>
      <trkpt lat="48.4184" lon="-2.1307">
        <ele>86.61</ele>
        <time>2025-06-04T07:48:50.345Z</time>
      </trkpt>
      <trkpt lat="48.41843" lon="-2.13072">
        <ele>86.55</ele>
        <time>2025-06-04T07:48:48.883Z</time>
      </trkpt>
      <trkpt lat="48.41848" lon="-2.13075">
        <ele>86.49</ele>
        <time>2025-06-04T07:48:48.198Z</time>
      </trkpt>
      <trkpt lat="48.41856" lon="-2.13081">
        <ele>86.4</ele>
        <time>2025-06-04T07:48:47.284Z</time>
      </trkpt>
      <trkpt lat="48.41861" lon="-2.13084">
        <ele>86.31</ele>
        <time>2025-06-04T07:48:45.925Z</time>
      </trkpt>
      <trkpt lat="48.41866" lon="-2.13087">
        <ele>86.21</ele>
        <time>2025-06-04T07:48:44.923Z</time>
      </trkpt>
      <trkpt lat="48.41871" lon="-2.1309">
        <ele>86.11</ele>
        <time>2025-06-04T07:48:43.971Z</time>
      </trkpt>
      <trkpt lat="48.41875" lon="-2.13091">
        <ele>86</ele>
        <time>2025-06-04T07:48:42.906Z</time>
      </trkpt>
      <trkpt lat="48.41879" lon="-2.13094">
        <ele>85.87</ele>
        <time>2025-06-04T07:48:41.871Z</time>
      </trkpt>
      <trkpt lat="48.41883" lon="-2.13096">
        <ele>85.74</ele>
        <time>2025-06-04T07:48:40.960Z</time>
      </trkpt>
      <trkpt lat="48.41887" lon="-2.13098">
        <ele>85.58</ele>
        <time>2025-06-04T07:48:39.986Z</time>
      </trkpt>
      <trkpt lat="48.41891" lon="-2.13101">
        <ele>85.4</ele>
        <time>2025-06-04T07:48:38.972Z</time>
      </trkpt>
      <trkpt lat="48.41896" lon="-2.13103">
        <ele>85.2</ele>
        <time>2025-06-04T07:48:37.961Z</time>
      </trkpt>
      <trkpt lat="48.41901" lon="-2.13105">
        <ele>84.97</ele>
        <time>2025-06-04T07:48:37.336Z</time>
      </trkpt>
      <trkpt lat="48.41906" lon="-2.13104">
        <ele>84.73</ele>
        <time>2025-06-04T07:48:35.972Z</time>
      </trkpt>
      <trkpt lat="48.41911" lon="-2.13102">
        <ele>84.49</ele>
        <time>2025-06-04T07:48:34.882Z</time>
      </trkpt>
      <trkpt lat="48.41915" lon="-2.13099">
        <ele>84.23</ele>
        <time>2025-06-04T07:48:33.948Z</time>
      </trkpt>
      <trkpt lat="48.41919" lon="-2.13096">
        <ele>84.01</ele>
        <time>2025-06-04T07:48:33.278Z</time>
      </trkpt>
      <trkpt lat="48.41923" lon="-2.13094">
        <ele>83.81</ele>
        <time>2025-06-04T07:48:31.959Z</time>
      </trkpt>
      <trkpt lat="48.41926" lon="-2.13093">
        <ele>83.64</ele>
        <time>2025-06-04T07:48:31.019Z</time>
      </trkpt>
      <trkpt lat="48.41928" lon="-2.13089">
        <ele>83.48</ele>
        <time>2025-06-04T07:48:30.364Z</time>
      </trkpt>
      <trkpt lat="48.41928" lon="-2.13086">
        <ele>83.31</ele>
        <time>2025-06-04T07:48:28.959Z</time>
      </trkpt>
      <trkpt lat="48.4193" lon="-2.13084">
        <ele>83.15</ele>
        <time>2025-06-04T07:48:27.578Z</time>
      </trkpt>
      <trkpt lat="48.41933" lon="-2.13078">
        <ele>82.97</ele>
        <time>2025-06-04T07:48:27.289Z</time>
      </trkpt>
      <trkpt lat="48.41937" lon="-2.13074">
        <ele>82.79</ele>
        <time>2025-06-04T07:48:26.341Z</time>
      </trkpt>
      <trkpt lat="48.4194" lon="-2.13069">
        <ele>82.6</ele>
        <time>2025-06-04T07:48:24.984Z</time>
      </trkpt>
      <trkpt lat="48.41943" lon="-2.13064">
        <ele>82.41</ele>
        <time>2025-06-04T07:48:24.340Z</time>
      </trkpt>
      <trkpt lat="48.41946" lon="-2.13061">
        <ele>82.21</ele>
        <time>2025-06-04T07:48:22.938Z</time>
      </trkpt>
      <trkpt lat="48.41949" lon="-2.13057">
        <ele>82.01</ele>
        <time>2025-06-04T07:48:22.337Z</time>
      </trkpt>
      <trkpt lat="48.41953" lon="-2.13052">
        <ele>81.81</ele>
        <time>2025-06-04T07:48:21.325Z</time>
      </trkpt>
      <trkpt lat="48.41957" lon="-2.13047">
        <ele>81.63</ele>
        <time>2025-06-04T07:48:19.512Z</time>
      </trkpt>
      <trkpt lat="48.41961" lon="-2.13042">
        <ele>81.49</ele>
        <time>2025-06-04T07:48:18.371Z</time>
      </trkpt>
      <trkpt lat="48.41964" lon="-2.13036">
        <ele>81.35</ele>
        <time>2025-06-04T07:48:18.349Z</time>
      </trkpt>
      <trkpt lat="48.41966" lon="-2.13031">
        <ele>81.23</ele>
        <time>2025-06-04T07:48:17.331Z</time>
      </trkpt>
      <trkpt lat="48.41968" lon="-2.13025">
        <ele>81.1</ele>
        <time>2025-06-04T07:48:15.406Z</time>
      </trkpt>
      <trkpt lat="48.4197" lon="-2.13017">
        <ele>81.01</ele>
        <time>2025-06-04T07:48:14.978Z</time>
      </trkpt>
      <trkpt lat="48.41971" lon="-2.13011">
        <ele>80.91</ele>
        <time>2025-06-04T07:48:14.290Z</time>
      </trkpt>
      <trkpt lat="48.41972" lon="-2.13005">
        <ele>80.81</ele>
        <time>2025-06-04T07:48:13.306Z</time>
      </trkpt>
      <trkpt lat="48.41974" lon="-2.12996">
        <ele>80.73</ele>
        <time>2025-06-04T07:48:11.417Z</time>
      </trkpt>
      <trkpt lat="48.41975" lon="-2.12991">
        <ele>80.63</ele>
        <time>2025-06-04T07:48:10.980Z</time>
      </trkpt>
      <trkpt lat="48.41975" lon="-2.12985">
        <ele>80.55</ele>
        <time>2025-06-04T07:48:10.266Z</time>
      </trkpt>
      <trkpt lat="48.41976" lon="-2.12978">
        <ele>80.47</ele>
        <time>2025-06-04T07:48:08.974Z</time>
      </trkpt>
      <trkpt lat="48.41976" lon="-2.12972">
        <ele>80.4</ele>
        <time>2025-06-04T07:48:07.351Z</time>
      </trkpt>
      <trkpt lat="48.41975" lon="-2.12967">
        <ele>80.34</ele>
        <time>2025-06-04T07:48:07.333Z</time>
      </trkpt>
      <trkpt lat="48.41975" lon="-2.12961">
        <ele>80.27</ele>
        <time>2025-06-04T07:48:06.330Z</time>
      </trkpt>
      <trkpt lat="48.41974" lon="-2.12954">
        <ele>80.2</ele>
        <time>2025-06-04T07:48:05.311Z</time>
      </trkpt>
      <trkpt lat="48.41974" lon="-2.12948">
        <ele>80.14</ele>
        <time>2025-06-04T07:48:03.348Z</time>
      </trkpt>
      <trkpt lat="48.41973" lon="-2.12942">
        <ele>80.05</ele>
        <time>2025-06-04T07:48:03.311Z</time>
      </trkpt>
      <trkpt lat="48.41973" lon="-2.12936">
        <ele>79.96</ele>
        <time>2025-06-04T07:48:01.390Z</time>
      </trkpt>
      <trkpt lat="48.41972" lon="-2.12927">
        <ele>79.87</ele>
        <time>2025-06-04T07:48:00.333Z</time>
      </trkpt>
      <trkpt lat="48.41972" lon="-2.12921">
        <ele>79.79</ele>
        <time>2025-06-04T07:47:59.335Z</time>
      </trkpt>
      <trkpt lat="48.41973" lon="-2.12914">
        <ele>79.71</ele>
        <time>2025-06-04T07:47:58.865Z</time>
      </trkpt>
      <trkpt lat="48.41973" lon="-2.12905">
        <ele>79.63</ele>
        <time>2025-06-04T07:47:57.931Z</time>
      </trkpt>
      <trkpt lat="48.41973" lon="-2.12897">
        <ele>79.54</ele>
        <time>2025-06-04T07:47:56.933Z</time>
      </trkpt>
      <trkpt lat="48.41974" lon="-2.12885">
        <ele>79.46</ele>
        <time>2025-06-04T07:47:55.905Z</time>
      </trkpt>
      <trkpt lat="48.41974" lon="-2.12883">
        <ele>79.41</ele>
        <time>2025-06-04T07:47:54.884Z</time>
      </trkpt>
      <trkpt lat="48.41973" lon="-2.12876">
        <ele>79.35</ele>
        <time>2025-06-04T07:47:54.238Z</time>
      </trkpt>
      <trkpt lat="48.41973" lon="-2.12869">
        <ele>79.3</ele>
        <time>2025-06-04T07:47:52.346Z</time>
      </trkpt>
      <trkpt lat="48.41972" lon="-2.12864">
        <ele>79.27</ele>
        <time>2025-06-04T07:47:51.942Z</time>
      </trkpt>
      <trkpt lat="48.41971" lon="-2.12861">
        <ele>79.24</ele>
        <time>2025-06-04T07:47:51.247Z</time>
      </trkpt>
      <trkpt lat="48.41971" lon="-2.12858">
        <ele>79.21</ele>
        <time>2025-06-04T07:47:49.325Z</time>
      </trkpt>
      <trkpt lat="48.41974" lon="-2.12854">
        <ele>79.17</ele>
        <time>2025-06-04T07:47:49.146Z</time>
      </trkpt>
      <trkpt lat="48.41974" lon="-2.12852">
        <ele>79.13</ele>
        <time>2025-06-04T07:47:48.305Z</time>
      </trkpt>
      <trkpt lat="48.41975" lon="-2.12851">
        <ele>79.11</ele>
        <time>2025-06-04T07:47:46.322Z</time>
      </trkpt>
      <trkpt lat="48.41976" lon="-2.12848">
        <ele>79.08</ele>
        <time>2025-06-04T07:47:45.989Z</time>
      </trkpt>
      <trkpt lat="48.41977" lon="-2.12847">
        <ele>79.05</ele>
        <time>2025-06-04T07:47:44.932Z</time>
      </trkpt>
      <trkpt lat="48.41977" lon="-2.12846">
        <ele>79.03</ele>
        <time>2025-06-04T07:47:43.949Z</time>
      </trkpt>
      <trkpt lat="48.41977" lon="-2.12844">
        <ele>79.01</ele>
        <time>2025-06-04T07:47:42.885Z</time>
      </trkpt>
      <trkpt lat="48.41976" lon="-2.12843">
        <ele>78.97</ele>
        <time>2025-06-04T07:47:41.107Z</time>
      </trkpt>
      <trkpt lat="48.41974" lon="-2.12829">
        <ele>77.28</ele>
        <time>2025-06-04T07:46:46.789Z</time>
      </trkpt>
      <trkpt lat="48.41974" lon="-2.12824">
        <ele>77.14</ele>
        <time>2025-06-04T07:46:46.211Z</time>
      </trkpt>
      <trkpt lat="48.41974" lon="-2.12818">
        <ele>77</ele>
        <time>2025-06-04T07:46:45.110Z</time>
      </trkpt>
      <trkpt lat="48.41975" lon="-2.12812">
        <ele>76.85</ele>
        <time>2025-06-04T07:46:44.056Z</time>
      </trkpt>
      <trkpt lat="48.41978" lon="-2.12798">
        <ele>76.74</ele>
        <time>2025-06-04T07:46:43.116Z</time>
      </trkpt>
      <trkpt lat="48.41979" lon="-2.12786">
        <ele>76.62</ele>
        <time>2025-06-04T07:46:42.391Z</time>
      </trkpt>
      <trkpt lat="48.41981" lon="-2.12766">
        <ele>76.51</ele>
        <time>2025-06-04T07:46:41.099Z</time>
      </trkpt>
      <trkpt lat="48.41984" lon="-2.12765">
        <ele>76.49</ele>
        <time>2025-06-04T07:46:40.050Z</time>
      </trkpt>
      <trkpt lat="48.41981" lon="-2.12763">
        <ele>76.44</ele>
        <time>2025-06-04T07:46:39.010Z</time>
      </trkpt>
      <trkpt lat="48.41978" lon="-2.12761">
        <ele>76.4</ele>
        <time>2025-06-04T07:46:38.033Z</time>
      </trkpt>
      <trkpt lat="48.41976" lon="-2.1276">
        <ele>76.35</ele>
        <time>2025-06-04T07:46:36.995Z</time>
      </trkpt>
      <trkpt lat="48.41974" lon="-2.12758">
        <ele>76.31</ele>
        <time>2025-06-04T07:46:35.733Z</time>
      </trkpt>
      <trkpt lat="48.41972" lon="-2.12757">
        <ele>76.26</ele>
        <time>2025-06-04T07:46:34.699Z</time>
      </trkpt>
      <trkpt lat="48.41972" lon="-2.12756">
        <ele>76.21</ele>
        <time>2025-06-04T07:46:34.165Z</time>
      </trkpt>
      <trkpt lat="48.41971" lon="-2.12756">
        <ele>76.15</ele>
        <time>2025-06-04T07:46:32.745Z</time>
      </trkpt>
      <trkpt lat="48.41972" lon="-2.12753">
        <ele>75.25</ele>
        <time>2025-06-04T07:46:24.419Z</time>
      </trkpt>
      <trkpt lat="48.41973" lon="-2.12752">
        <ele>75.1</ele>
        <time>2025-06-04T07:46:22.933Z</time>
      </trkpt>
      <trkpt lat="48.41975" lon="-2.12749">
        <ele>74.95</ele>
        <time>2025-06-04T07:46:22.336Z</time>
      </trkpt>
      <trkpt lat="48.41979" lon="-2.12746">
        <ele>74.81</ele>
        <time>2025-06-04T07:46:21.368Z</time>
      </trkpt>
      <trkpt lat="48.41982" lon="-2.12743">
        <ele>74.68</ele>
        <time>2025-06-04T07:46:20.389Z</time>
      </trkpt>
      <trkpt lat="48.41986" lon="-2.12739">
        <ele>74.56</ele>
        <time>2025-06-04T07:46:19.378Z</time>
      </trkpt>
      <trkpt lat="48.41989" lon="-2.12733">
        <ele>74.44</ele>
        <time>2025-06-04T07:46:18.363Z</time>
      </trkpt>
      <trkpt lat="48.41992" lon="-2.12726">
        <ele>74.35</ele>
        <time>2025-06-04T07:46:17.354Z</time>
      </trkpt>
      <trkpt lat="48.41993" lon="-2.12719">
        <ele>74.3</ele>
        <time>2025-06-04T07:46:16.402Z</time>
      </trkpt>
      <trkpt lat="48.41994" lon="-2.12709">
        <ele>74.26</ele>
        <time>2025-06-04T07:46:15.383Z</time>
      </trkpt>
      <trkpt lat="48.41994" lon="-2.12703">
        <ele>74.23</ele>
        <time>2025-06-04T07:46:14.334Z</time>
      </trkpt>
      <trkpt lat="48.41994" lon="-2.12695">
        <ele>74.2</ele>
        <time>2025-06-04T07:46:13.342Z</time>
      </trkpt>
      <trkpt lat="48.41993" lon="-2.12687">
        <ele>74.2</ele>
        <time>2025-06-04T07:46:12.702Z</time>
      </trkpt>
      <trkpt lat="48.41993" lon="-2.12678">
        <ele>74.2</ele>
        <time>2025-06-04T07:46:11.383Z</time>
      </trkpt>
      <trkpt lat="48.41993" lon="-2.12671">
        <ele>74.22</ele>
        <time>2025-06-04T07:46:10.392Z</time>
      </trkpt>
      <trkpt lat="48.41993" lon="-2.12663">
        <ele>74.23</ele>
        <time>2025-06-04T07:46:09.424Z</time>
      </trkpt>
      <trkpt lat="48.41992" lon="-2.12656">
        <ele>74.25</ele>
        <time>2025-06-04T07:46:08.470Z</time>
      </trkpt>
      <trkpt lat="48.41992" lon="-2.12649">
        <ele>74.27</ele>
        <time>2025-06-04T07:46:07.389Z</time>
      </trkpt>
      <trkpt lat="48.41991" lon="-2.12641">
        <ele>74.27</ele>
        <time>2025-06-04T07:46:06.505Z</time>
      </trkpt>
      <trkpt lat="48.4199" lon="-2.12634">
        <ele>74.27</ele>
        <time>2025-06-04T07:46:05.637Z</time>
      </trkpt>
      <trkpt lat="48.4199" lon="-2.1263">
        <ele>74.27</ele>
        <time>2025-06-04T07:46:04.422Z</time>
      </trkpt>
      <trkpt lat="48.41991" lon="-2.12624">
        <ele>74.26</ele>
        <time>2025-06-04T07:46:03.563Z</time>
      </trkpt>
      <trkpt lat="48.41991" lon="-2.12621">
        <ele>74.27</ele>
        <time>2025-06-04T07:46:02.349Z</time>
      </trkpt>
      <trkpt lat="48.41991" lon="-2.12616">
        <ele>74.27</ele>
        <time>2025-06-04T07:46:01.355Z</time>
      </trkpt>
      <trkpt lat="48.41991" lon="-2.12612">
        <ele>74.27</ele>
        <time>2025-06-04T07:46:00.424Z</time>
      </trkpt>
      <trkpt lat="48.41991" lon="-2.12607">
        <ele>74.27</ele>
        <time>2025-06-04T07:45:59.633Z</time>
      </trkpt>
      <trkpt lat="48.41991" lon="-2.12601">
        <ele>74.25</ele>
        <time>2025-06-04T07:45:58.386Z</time>
      </trkpt>
      <trkpt lat="48.4199" lon="-2.12595">
        <ele>74.24</ele>
        <time>2025-06-04T07:45:57.410Z</time>
      </trkpt>
      <trkpt lat="48.4199" lon="-2.12589">
        <ele>74.22</ele>
        <time>2025-06-04T07:45:56.404Z</time>
      </trkpt>
      <trkpt lat="48.41989" lon="-2.12583">
        <ele>74.21</ele>
        <time>2025-06-04T07:45:55.440Z</time>
      </trkpt>
      <trkpt lat="48.41989" lon="-2.12576">
        <ele>74.2</ele>
        <time>2025-06-04T07:45:54.370Z</time>
      </trkpt>
      <trkpt lat="48.41988" lon="-2.12568">
        <ele>74.2</ele>
        <time>2025-06-04T07:45:53.745Z</time>
      </trkpt>
      <trkpt lat="48.41988" lon="-2.12561">
        <ele>74.21</ele>
        <time>2025-06-04T07:45:52.711Z</time>
      </trkpt>
      <trkpt lat="48.41988" lon="-2.12553">
        <ele>74.22</ele>
        <time>2025-06-04T07:45:51.389Z</time>
      </trkpt>
      <trkpt lat="48.41987" lon="-2.12546">
        <ele>74.23</ele>
        <time>2025-06-04T07:45:50.670Z</time>
      </trkpt>
      <trkpt lat="48.41988" lon="-2.12538">
        <ele>74.25</ele>
        <time>2025-06-04T07:45:49.543Z</time>
      </trkpt>
      <trkpt lat="48.41987" lon="-2.12531">
        <ele>74.27</ele>
        <time>2025-06-04T07:45:48.749Z</time>
      </trkpt>
      <trkpt lat="48.41987" lon="-2.12523">
        <ele>74.28</ele>
        <time>2025-06-04T07:45:47.345Z</time>
      </trkpt>
      <trkpt lat="48.41986" lon="-2.12514">
        <ele>74.3</ele>
        <time>2025-06-04T07:45:46.737Z</time>
      </trkpt>
      <trkpt lat="48.41984" lon="-2.12503">
        <ele>74.32</ele>
        <time>2025-06-04T07:45:45.343Z</time>
      </trkpt>
      <trkpt lat="48.41982" lon="-2.12492">
        <ele>74.34</ele>
        <time>2025-06-04T07:45:43.774Z</time>
      </trkpt>
      <trkpt lat="48.41981" lon="-2.12481">
        <ele>74.36</ele>
        <time>2025-06-04T07:45:43.750Z</time>
      </trkpt>
      <trkpt lat="48.4198" lon="-2.1247">
        <ele>74.37</ele>
        <time>2025-06-04T07:45:42.736Z</time>
      </trkpt>
      <trkpt lat="48.41978" lon="-2.12457">
        <ele>74.36</ele>
        <time>2025-06-04T07:45:40.774Z</time>
      </trkpt>
      <trkpt lat="48.41978" lon="-2.12452">
        <ele>74.35</ele>
        <time>2025-06-04T07:45:40.751Z</time>
      </trkpt>
      <trkpt lat="48.41978" lon="-2.12443">
        <ele>74.33</ele>
        <time>2025-06-04T07:45:39.347Z</time>
      </trkpt>
      <trkpt lat="48.41979" lon="-2.12438">
        <ele>74.31</ele>
        <time>2025-06-04T07:45:38.714Z</time>
      </trkpt>
      <trkpt lat="48.4198" lon="-2.12429">
        <ele>74.29</ele>
        <time>2025-06-04T07:45:37.323Z</time>
      </trkpt>
      <trkpt lat="48.41982" lon="-2.12422">
        <ele>74.28</ele>
        <time>2025-06-04T07:45:36.472Z</time>
      </trkpt>
      <trkpt lat="48.41984" lon="-2.12412">
        <ele>74.27</ele>
        <time>2025-06-04T07:45:34.811Z</time>
      </trkpt>
      <trkpt lat="48.41986" lon="-2.124">
        <ele>74.27</ele>
        <time>2025-06-04T07:45:34.756Z</time>
      </trkpt>
      <trkpt lat="48.41992" lon="-2.12379">
        <ele>74.27</ele>
        <time>2025-06-04T07:45:33.668Z</time>
      </trkpt>
      <trkpt lat="48.41994" lon="-2.12369">
        <ele>74.29</ele>
        <time>2025-06-04T07:45:31.779Z</time>
      </trkpt>
      <trkpt lat="48.42008" lon="-2.12324">
        <ele>74.31</ele>
        <time>2025-06-04T07:45:31.320Z</time>
      </trkpt>
      <trkpt lat="48.42014" lon="-2.12308">
        <ele>74.33</ele>
        <time>2025-06-04T07:45:30.719Z</time>
      </trkpt>
      <trkpt lat="48.42019" lon="-2.12291">
        <ele>74.36</ele>
        <time>2025-06-04T07:45:29.259Z</time>
      </trkpt>
      <trkpt lat="48.42022" lon="-2.12283">
        <ele>74.42</ele>
        <time>2025-06-04T07:45:28.661Z</time>
      </trkpt>
      <trkpt lat="48.42025" lon="-2.12276">
        <ele>74.46</ele>
        <time>2025-06-04T07:45:27.428Z</time>
      </trkpt>
      <trkpt lat="48.42025" lon="-2.12275">
        <ele>74.49</ele>
        <time>2025-06-04T07:45:26.396Z</time>
      </trkpt>
      <trkpt lat="48.42026" lon="-2.12274">
        <ele>74.51</ele>
        <time>2025-06-04T07:45:25.399Z</time>
      </trkpt>
      <trkpt lat="48.42027" lon="-2.12272">
        <ele>74.53</ele>
        <time>2025-06-04T07:45:24.430Z</time>
      </trkpt>
      <trkpt lat="48.42027" lon="-2.12271">
        <ele>74.56</ele>
        <time>2025-06-04T07:45:22.761Z</time>
      </trkpt>
      <trkpt lat="48.42029" lon="-2.12266">
        <ele>74.59</ele>
        <time>2025-06-04T07:45:21.430Z</time>
      </trkpt>
      <trkpt lat="48.42031" lon="-2.12263">
        <ele>74.6</ele>
        <time>2025-06-04T07:45:20.743Z</time>
      </trkpt>
      <trkpt lat="48.42032" lon="-2.12262">
        <ele>74.6</ele>
        <time>2025-06-04T07:45:19.365Z</time>
      </trkpt>
      <trkpt lat="48.42031" lon="-2.12262">
        <ele>74.6</ele>
        <time>2025-06-04T07:45:18.379Z</time>
      </trkpt>
      <trkpt lat="48.42033" lon="-2.1226">
        <ele>74.6</ele>
        <time>2025-06-04T07:45:14.406Z</time>
      </trkpt>
      <trkpt lat="48.42033" lon="-2.12259">
        <ele>74.6</ele>
        <time>2025-06-04T07:45:13.301Z</time>
      </trkpt>
      <trkpt lat="48.42033" lon="-2.1226">
        <ele>74.6</ele>
        <time>2025-06-04T07:45:12.351Z</time>
      </trkpt>
      <trkpt lat="48.42033" lon="-2.12259">
        <ele>74.59</ele>
        <time>2025-06-04T07:45:11.650Z</time>
      </trkpt>
      <trkpt lat="48.42034" lon="-2.12249">
        <ele>74.38</ele>
        <time>2025-06-04T07:44:52.718Z</time>
      </trkpt>
      <trkpt lat="48.42034" lon="-2.12246">
        <ele>74.34</ele>
        <time>2025-06-04T07:44:51.248Z</time>
      </trkpt>
      <trkpt lat="48.42034" lon="-2.12242">
        <ele>74.3</ele>
        <time>2025-06-04T07:44:50.253Z</time>
      </trkpt>
      <trkpt lat="48.42033" lon="-2.12236">
        <ele>74.24</ele>
        <time>2025-06-04T07:44:49.743Z</time>
      </trkpt>
      <trkpt lat="48.42033" lon="-2.1223">
        <ele>74.18</ele>
        <time>2025-06-04T07:44:48.251Z</time>
      </trkpt>
      <trkpt lat="48.4203" lon="-2.12211">
        <ele>74.12</ele>
        <time>2025-06-04T07:44:47.243Z</time>
      </trkpt>
      <trkpt lat="48.42029" lon="-2.122">
        <ele>74.05</ele>
        <time>2025-06-04T07:44:46.261Z</time>
      </trkpt>
      <trkpt lat="48.42027" lon="-2.12191">
        <ele>73.98</ele>
        <time>2025-06-04T07:44:45.241Z</time>
      </trkpt>
      <trkpt lat="48.42027" lon="-2.1219">
        <ele>73.92</ele>
        <time>2025-06-04T07:44:44.225Z</time>
      </trkpt>
      <trkpt lat="48.42026" lon="-2.12179">
        <ele>73.87</ele>
        <time>2025-06-04T07:44:43.804Z</time>
      </trkpt>
      <trkpt lat="48.42025" lon="-2.12171">
        <ele>73.82</ele>
        <time>2025-06-04T07:44:43.188Z</time>
      </trkpt>
      <trkpt lat="48.42025" lon="-2.12158">
        <ele>73.77</ele>
        <time>2025-06-04T07:44:42.175Z</time>
      </trkpt>
      <trkpt lat="48.42025" lon="-2.12156">
        <ele>73.72</ele>
        <time>2025-06-04T07:44:40.183Z</time>
      </trkpt>
      <trkpt lat="48.42027" lon="-2.12143">
        <ele>73.7</ele>
        <time>2025-06-04T07:44:38.192Z</time>
      </trkpt>
      <trkpt lat="48.42029" lon="-2.12134">
        <ele>73.69</ele>
        <time>2025-06-04T07:44:37.192Z</time>
      </trkpt>
      <trkpt lat="48.42031" lon="-2.12123">
        <ele>73.68</ele>
        <time>2025-06-04T07:44:36.261Z</time>
      </trkpt>
      <trkpt lat="48.42031" lon="-2.12124">
        <ele>73.69</ele>
        <time>2025-06-04T07:44:35.260Z</time>
      </trkpt>
      <trkpt lat="48.42031" lon="-2.12121">
        <ele>73.7</ele>
        <time>2025-06-04T07:44:34.258Z</time>
      </trkpt>
      <trkpt lat="48.42032" lon="-2.12117">
        <ele>73.7</ele>
        <time>2025-06-04T07:44:33.272Z</time>
      </trkpt>
      <trkpt lat="48.42032" lon="-2.12111">
        <ele>73.72</ele>
        <time>2025-06-04T07:44:32.966Z</time>
      </trkpt>
      <trkpt lat="48.42033" lon="-2.12104">
        <ele>73.73</ele>
        <time>2025-06-04T07:44:31.256Z</time>
      </trkpt>
      <trkpt lat="48.42034" lon="-2.12097">
        <ele>73.78</ele>
        <time>2025-06-04T07:44:30.134Z</time>
      </trkpt>
      <trkpt lat="48.42036" lon="-2.12087">
        <ele>73.8</ele>
        <time>2025-06-04T07:44:28.257Z</time>
      </trkpt>
      <trkpt lat="48.42038" lon="-2.12081">
        <ele>73.83</ele>
        <time>2025-06-04T07:44:27.201Z</time>
      </trkpt>
      <trkpt lat="48.4204" lon="-2.12075">
        <ele>73.88</ele>
        <time>2025-06-04T07:44:26.149Z</time>
      </trkpt>
      <trkpt lat="48.42041" lon="-2.12064">
        <ele>73.9</ele>
        <time>2025-06-04T07:44:24.248Z</time>
      </trkpt>
      <trkpt lat="48.42042" lon="-2.12059">
        <ele>73.92</ele>
        <time>2025-06-04T07:44:23.250Z</time>
      </trkpt>
      <trkpt lat="48.42043" lon="-2.12053">
        <ele>73.93</ele>
        <time>2025-06-04T07:44:22.195Z</time>
      </trkpt>
      <trkpt lat="48.42043" lon="-2.12048">
        <ele>73.94</ele>
        <time>2025-06-04T07:44:20.832Z</time>
      </trkpt>
      <trkpt lat="48.42043" lon="-2.12043">
        <ele>73.97</ele>
        <time>2025-06-04T07:44:20.123Z</time>
      </trkpt>
      <trkpt lat="48.42043" lon="-2.12035">
        <ele>73.98</ele>
        <time>2025-06-04T07:44:18.248Z</time>
      </trkpt>
      <trkpt lat="48.42044" lon="-2.1203">
        <ele>73.99</ele>
        <time>2025-06-04T07:44:17.270Z</time>
      </trkpt>
      <trkpt lat="48.42044" lon="-2.12026">
        <ele>74</ele>
        <time>2025-06-04T07:44:16.824Z</time>
      </trkpt>
      <trkpt lat="48.42044" lon="-2.12022">
        <ele>74.01</ele>
        <time>2025-06-04T07:44:15.148Z</time>
      </trkpt>
      <trkpt lat="48.42045" lon="-2.12017">
        <ele>74.01</ele>
        <time>2025-06-04T07:44:13.819Z</time>
      </trkpt>
      <trkpt lat="48.42046" lon="-2.12016">
        <ele>74.01</ele>
        <time>2025-06-04T07:44:12.262Z</time>
      </trkpt>
      <trkpt lat="48.42047" lon="-2.12013">
        <ele>73.99</ele>
        <time>2025-06-04T07:44:11.145Z</time>
      </trkpt>
      <trkpt lat="48.42048" lon="-2.1201">
        <ele>73.97</ele>
        <time>2025-06-04T07:44:09.271Z</time>
      </trkpt>
      <trkpt lat="48.42047" lon="-2.12007">
        <ele>73.94</ele>
        <time>2025-06-04T07:44:08.267Z</time>
      </trkpt>
      <trkpt lat="48.42045" lon="-2.12005">
        <ele>73.9</ele>
        <time>2025-06-04T07:44:07.258Z</time>
      </trkpt>
      <trkpt lat="48.42043" lon="-2.12004">
        <ele>73.86</ele>
        <time>2025-06-04T07:44:06.985Z</time>
      </trkpt>
      <trkpt lat="48.42041" lon="-2.12003">
        <ele>73.83</ele>
        <time>2025-06-04T07:44:05.255Z</time>
      </trkpt>
      <trkpt lat="48.4204" lon="-2.12002">
        <ele>73.8</ele>
        <time>2025-06-04T07:44:04.225Z</time>
      </trkpt>
      <trkpt lat="48.42042" lon="-2.12003">
        <ele>73.77</ele>
        <time>2025-06-04T07:44:03.255Z</time>
      </trkpt>
      <trkpt lat="48.42041" lon="-2.12002">
        <ele>73.73</ele>
        <time>2025-06-04T07:44:02.981Z</time>
      </trkpt>
      <trkpt lat="48.4204" lon="-2.12001">
        <ele>73.7</ele>
        <time>2025-06-04T07:44:01.262Z</time>
      </trkpt>
      <trkpt lat="48.4204" lon="-2.11999">
        <ele>73.66</ele>
        <time>2025-06-04T07:44:00.262Z</time>
      </trkpt>
      <trkpt lat="48.4204" lon="-2.11997">
        <ele>73.61</ele>
        <time>2025-06-04T07:44:00.083Z</time>
      </trkpt>
      <trkpt lat="48.42041" lon="-2.11996">
        <ele>73.56</ele>
        <time>2025-06-04T07:43:58.261Z</time>
      </trkpt>
      <trkpt lat="48.42042" lon="-2.11992">
        <ele>73.5</ele>
        <time>2025-06-04T07:43:57.840Z</time>
      </trkpt>
      <trkpt lat="48.42044" lon="-2.11987">
        <ele>73.42</ele>
        <time>2025-06-04T07:43:56.266Z</time>
      </trkpt>
      <trkpt lat="48.42046" lon="-2.11979">
        <ele>73.33</ele>
        <time>2025-06-04T07:43:55.858Z</time>
      </trkpt>
      <trkpt lat="48.42047" lon="-2.11965">
        <ele>73.24</ele>
        <time>2025-06-04T07:43:55.134Z</time>
      </trkpt>
      <trkpt lat="48.42047" lon="-2.11952">
        <ele>73.11</ele>
        <time>2025-06-04T07:43:53.267Z</time>
      </trkpt>
      <trkpt lat="48.42046" lon="-2.11941">
        <ele>73.01</ele>
        <time>2025-06-04T07:43:52.171Z</time>
      </trkpt>
      <trkpt lat="48.42046" lon="-2.1194">
        <ele>72.93</ele>
        <time>2025-06-04T07:43:51.939Z</time>
      </trkpt>
      <trkpt lat="48.42045" lon="-2.11934">
        <ele>72.84</ele>
        <time>2025-06-04T07:43:50.968Z</time>
      </trkpt>
      <trkpt lat="48.42044" lon="-2.11927">
        <ele>72.78</ele>
        <time>2025-06-04T07:43:49.267Z</time>
      </trkpt>
      <trkpt lat="48.42042" lon="-2.11919">
        <ele>72.71</ele>
        <time>2025-06-04T07:43:49.034Z</time>
      </trkpt>
      <trkpt lat="48.4204" lon="-2.11906">
        <ele>72.65</ele>
        <time>2025-06-04T07:43:47.264Z</time>
      </trkpt>
      <trkpt lat="48.4204" lon="-2.11902">
        <ele>72.6</ele>
        <time>2025-06-04T07:43:46.263Z</time>
      </trkpt>
      <trkpt lat="48.42038" lon="-2.11895">
        <ele>72.56</ele>
        <time>2025-06-04T07:43:45.845Z</time>
      </trkpt>
      <trkpt lat="48.42036" lon="-2.11887">
        <ele>72.5</ele>
        <time>2025-06-04T07:43:44.245Z</time>
      </trkpt>
      <trkpt lat="48.42034" lon="-2.11876">
        <ele>72.42</ele>
        <time>2025-06-04T07:43:43.266Z</time>
      </trkpt>
      <trkpt lat="48.42033" lon="-2.11872">
        <ele>72.32</ele>
        <time>2025-06-04T07:43:43.026Z</time>
      </trkpt>
      <trkpt lat="48.42033" lon="-2.11865">
        <ele>72.21</ele>
        <time>2025-06-04T07:43:41.251Z</time>
      </trkpt>
      <trkpt lat="48.42032" lon="-2.11858">
        <ele>72.08</ele>
        <time>2025-06-04T07:43:40.145Z</time>
      </trkpt>
      <trkpt lat="48.42031" lon="-2.11854">
        <ele>71.95</ele>
        <time>2025-06-04T07:43:39.249Z</time>
      </trkpt>
      <trkpt lat="48.4203" lon="-2.11849">
        <ele>71.8</ele>
        <time>2025-06-04T07:43:38.240Z</time>
      </trkpt>
      <trkpt lat="48.42029" lon="-2.11845">
        <ele>71.63</ele>
        <time>2025-06-04T07:43:38.017Z</time>
      </trkpt>
      <trkpt lat="48.42027" lon="-2.1184">
        <ele>71.47</ele>
        <time>2025-06-04T07:43:36.257Z</time>
      </trkpt>
      <trkpt lat="48.42026" lon="-2.11835">
        <ele>71.3</ele>
        <time>2025-06-04T07:43:35.251Z</time>
      </trkpt>
      <trkpt lat="48.42025" lon="-2.1183">
        <ele>71.15</ele>
        <time>2025-06-04T07:43:34.970Z</time>
      </trkpt>
      <trkpt lat="48.42023" lon="-2.11824">
        <ele>71.020004</ele>
        <time>2025-06-04T07:43:33.136Z</time>
      </trkpt>
      <trkpt lat="48.42023" lon="-2.1182">
        <ele>70.9</ele>
        <time>2025-06-04T07:43:32.245Z</time>
      </trkpt>
      <trkpt lat="48.42022" lon="-2.11816">
        <ele>70.72</ele>
        <time>2025-06-04T07:43:31.099Z</time>
      </trkpt>
      <trkpt lat="48.42022" lon="-2.1181">
        <ele>70.63</ele>
        <time>2025-06-04T07:43:30.057Z</time>
      </trkpt>
      <trkpt lat="48.42021" lon="-2.11805">
        <ele>70.58</ele>
        <time>2025-06-04T07:43:28.753Z</time>
      </trkpt>
      <trkpt lat="48.4202" lon="-2.11799">
        <ele>70.53</ele>
        <time>2025-06-04T07:43:27.122Z</time>
      </trkpt>
      <trkpt lat="48.42019" lon="-2.11793">
        <ele>70.5</ele>
        <time>2025-06-04T07:43:26.271Z</time>
      </trkpt>
      <trkpt lat="48.42019" lon="-2.11787">
        <ele>70.46</ele>
        <time>2025-06-04T07:43:25.678Z</time>
      </trkpt>
      <trkpt lat="48.4202" lon="-2.11779">
        <ele>70.44</ele>
        <time>2025-06-04T07:43:24.695Z</time>
      </trkpt>
      <trkpt lat="48.42022" lon="-2.11772">
        <ele>70.42</ele>
        <time>2025-06-04T07:43:23.745Z</time>
      </trkpt>
      <trkpt lat="48.42027" lon="-2.11754">
        <ele>70.42</ele>
        <time>2025-06-04T07:43:22.153Z</time>
      </trkpt>
      <trkpt lat="48.42029" lon="-2.11747">
        <ele>70.43</ele>
        <time>2025-06-04T07:43:21.756Z</time>
      </trkpt>
      <trkpt lat="48.42031" lon="-2.11741">
        <ele>70.45</ele>
        <time>2025-06-04T07:43:20.708Z</time>
      </trkpt>
      <trkpt lat="48.42031" lon="-2.11738">
        <ele>70.47</ele>
        <time>2025-06-04T07:43:19.262Z</time>
      </trkpt>
      <trkpt lat="48.42031" lon="-2.1174">
        <ele>70.49</ele>
        <time>2025-06-04T07:43:18.116Z</time>
      </trkpt>
      <trkpt lat="48.42032" lon="-2.11736">
        <ele>70.51</ele>
        <time>2025-06-04T07:43:17.733Z</time>
      </trkpt>
      <trkpt lat="48.42033" lon="-2.11727">
        <ele>70.54</ele>
        <time>2025-06-04T07:43:16.265Z</time>
      </trkpt>
      <trkpt lat="48.42034" lon="-2.11727">
        <ele>70.57</ele>
        <time>2025-06-04T07:43:15.161Z</time>
      </trkpt>
      <trkpt lat="48.42034" lon="-2.11723">
        <ele>70.61</ele>
        <time>2025-06-04T07:43:14.254Z</time>
      </trkpt>
      <trkpt lat="48.42034" lon="-2.11721">
        <ele>70.66</ele>
        <time>2025-06-04T07:43:13.673Z</time>
      </trkpt>
      <trkpt lat="48.42034" lon="-2.11718">
        <ele>70.71</ele>
        <time>2025-06-04T07:43:12.192Z</time>
      </trkpt>
      <trkpt lat="48.42034" lon="-2.11714">
        <ele>70.82</ele>
        <time>2025-06-04T07:43:10.186Z</time>
      </trkpt>
      <trkpt lat="48.42035" lon="-2.11707">
        <ele>70.89</ele>
        <time>2025-06-04T07:43:09.241Z</time>
      </trkpt>
      <trkpt lat="48.42038" lon="-2.11705">
        <ele>70.97</ele>
        <time>2025-06-04T07:43:08.278Z</time>
      </trkpt>
    </trkseg>
  </trk>
</gpx>